<?xml version='1.0' encoding='UTF-8'?><gpx version="1.1" creator="JPX - https://github.com/jenetics/jpx" xmlns="http://www.topografix.com/GPX/1/1"><trk><trkseg><trkpt lat="39.42732939713293" lon="-3.363368906365241"><ele>647.0</ele><time>2026-05-01T07:35:58.999Z</time></trkpt><trkpt lat="39.427268005865294" lon="-3.363288583555564"><ele>647.0</ele><time>2026-05-01T07:35:59.999Z</time></trkpt><trkpt lat="39.4271802634236" lon="-3.3632300929884402"><ele>647.0</ele><time>2026-05-01T07:36:00.999Z</time></trkpt><trkpt lat="39.427069349534925" lon="-3.363156441751092"><ele>647.0</ele><time>2026-05-01T07:36:01.999Z</time></trkpt><trkpt lat="39.426946777791244" lon="-3.3630817967652358"><ele>647.0</ele><time>2026-05-01T07:36:02.999Z</time></trkpt><trkpt lat="39.426830400656215" lon="-3.3630116411124766"><ele>647.0</ele><time>2026-05-01T07:36:03.999Z</time></trkpt><trkpt lat="39.426734821740375" lon="-3.362954023227516"><ele>647.0</ele><time>2026-05-01T07:36:04.999Z</time></trkpt><trkpt lat="39.426652501637996" lon="-3.3629081498139914"><ele>647.0</ele><time>2026-05-01T07:36:05.999Z</time></trkpt><trkpt lat="39.426578092023156" lon="-3.3628663698771186"><ele>647.0</ele><time>2026-05-01T07:36:06.999Z</time></trkpt><trkpt lat="39.42649300011396" lon="-3.3628130427048273"><ele>647.0</ele><time>2026-05-01T07:36:08.999Z</time></trkpt><trkpt lat="39.42642877821674" lon="-3.3627971085345236"><ele>647.0</ele><time>2026-05-01T07:36:11.999Z</time></trkpt><trkpt lat="39.4263739579208" lon="-3.3627526471000833"><ele>646.8</ele><time>2026-05-01T07:36:58.999Z</time></trkpt><trkpt lat="39.426311408446125" lon="-3.3627101186987582"><ele>646.6</ele><time>2026-05-01T07:37:00.999Z</time></trkpt><trkpt lat="39.42622132768565" lon="-3.36265343499839"><ele>646.4</ele><time>2026-05-01T07:37:02.999Z</time></trkpt><trkpt lat="39.42610677598902" lon="-3.3625965696200137"><ele>646.1999999999999</ele><time>2026-05-01T07:37:04.999Z</time></trkpt><trkpt lat="39.42600892457243" lon="-3.362562525407732"><ele>646.0</ele><time>2026-05-01T07:37:06.999Z</time></trkpt><trkpt lat="39.425915785525454" lon="-3.3625923105551228"><ele>646.0</ele><time>2026-05-01T07:37:08.999Z</time></trkpt><trkpt lat="39.42582074259007" lon="-3.3626132156841986"><ele>646.0</ele><time>2026-05-01T07:37:10.999Z</time></trkpt><trkpt lat="39.42572779495507" lon="-3.3626332501692455"><ele>646.0</ele><time>2026-05-01T07:37:12.999Z</time></trkpt><trkpt lat="39.425629960569495" lon="-3.362658895329242"><ele>646.0</ele><time>2026-05-01T07:37:14.999Z</time></trkpt><trkpt lat="39.425542814030514" lon="-3.362696148898544"><ele>646.0</ele><time>2026-05-01T07:37:16.999Z</time></trkpt><trkpt lat="39.42545564995491" lon="-3.3627128475137913"><ele>646.0</ele><time>2026-05-01T07:37:18.999Z</time></trkpt><trkpt lat="39.42537168529176" lon="-3.3627252697990184"><ele>646.0</ele><time>2026-05-01T07:37:20.999Z</time></trkpt><trkpt lat="39.42527624888512" lon="-3.3627736240430885"><ele>646.0</ele><time>2026-05-01T07:37:22.999Z</time></trkpt><trkpt lat="39.42518465406424" lon="-3.362800023907595"><ele>646.0</ele><time>2026-05-01T07:37:24.999Z</time></trkpt><trkpt lat="39.42508131497392" lon="-3.3628298087582893"><ele>646.0</ele><time>2026-05-01T07:37:26.999Z</time></trkpt><trkpt lat="39.424966026246075" lon="-3.362859447615531"><ele>646.0</ele><time>2026-05-01T07:37:28.999Z</time></trkpt><trkpt lat="39.42487475167639" lon="-3.3629145271576038"><ele>646.0</ele><time>2026-05-01T07:37:30.999Z</time></trkpt><trkpt lat="39.42479693635474" lon="-3.3629148351648634"><ele>646.0</ele><time>2026-05-01T07:37:33.999Z</time></trkpt><trkpt lat="39.42475751319956" lon="-3.3628316184092486"><ele>646.0</ele><time>2026-05-01T07:37:36.999Z</time></trkpt><trkpt lat="39.42474814096955" lon="-3.362726175432806"><ele>646.0</ele><time>2026-05-01T07:37:37.999Z</time></trkpt><trkpt lat="39.42473451115761" lon="-3.3626015753428518"><ele>646.0</ele><time>2026-05-01T07:37:38.999Z</time></trkpt><trkpt lat="39.424648437079945" lon="-3.3625610430330113"><ele>646.0</ele><time>2026-05-01T07:37:39.999Z</time></trkpt><trkpt lat="39.42459890659425" lon="-3.362480536775083"><ele>646.0</ele><time>2026-05-01T07:37:40.999Z</time></trkpt><trkpt lat="39.42455512977496" lon="-3.3623944047500656"><ele>646.0</ele><time>2026-05-01T07:37:41.999Z</time></trkpt><trkpt lat="39.42448966600002" lon="-3.3623425550837704"><ele>646.0</ele><time>2026-05-01T07:37:42.999Z</time></trkpt><trkpt lat="39.42442898273333" lon="-3.362230015381201"><ele>646.0</ele><time>2026-05-01T07:37:43.999Z</time></trkpt><trkpt lat="39.4243626611723" lon="-3.3620359192572327"><ele>646.0</ele><time>2026-05-01T07:37:44.999Z</time></trkpt><trkpt lat="39.424336182248304" lon="-3.3618487344488313"><ele>646.0</ele><time>2026-05-01T07:37:45.999Z</time></trkpt><trkpt lat="39.42429619919866" lon="-3.3616927993100583"><ele>646.0</ele><time>2026-05-01T07:37:46.999Z</time></trkpt><trkpt lat="39.42426199542811" lon="-3.361551120123718"><ele>646.0</ele><time>2026-05-01T07:37:47.999Z</time></trkpt><trkpt lat="39.42423293350365" lon="-3.3614230258135613"><ele>645.5</ele><time>2026-05-01T07:37:48.999Z</time></trkpt><trkpt lat="39.42418233749939" lon="-3.361294162631269"><ele>645.0</ele><time>2026-05-01T07:37:49.999Z</time></trkpt><trkpt lat="39.424159335369666" lon="-3.3611379416290412"><ele>644.5</ele><time>2026-05-01T07:37:50.999Z</time></trkpt><trkpt lat="39.42414547157364" lon="-3.360975996168583"><ele>644.0</ele><time>2026-05-01T07:37:51.999Z</time></trkpt><trkpt lat="39.4241339658864" lon="-3.36083426614956"><ele>644.0</ele><time>2026-05-01T07:37:53Z</time></trkpt><trkpt lat="39.42412299913619" lon="-3.3606743634141294"><ele>644.0</ele><time>2026-05-01T07:37:54Z</time></trkpt><trkpt lat="39.42411099610169" lon="-3.360499350711983"><ele>644.0</ele><time>2026-05-01T07:37:55Z</time></trkpt><trkpt lat="39.424099241624916" lon="-3.360326327338967"><ele>644.0</ele><time>2026-05-01T07:37:56Z</time></trkpt><trkpt lat="39.42408623755366" lon="-3.3601353991116496"><ele>644.0</ele><time>2026-05-01T07:37:57Z</time></trkpt><trkpt lat="39.424075753911794" lon="-3.3599814763731333"><ele>644.0</ele><time>2026-05-01T07:37:58Z</time></trkpt><trkpt lat="39.42406499733856" lon="-3.3598235459524406"><ele>644.0</ele><time>2026-05-01T07:37:59Z</time></trkpt><trkpt lat="39.42405725535209" lon="-3.359688147945871"><ele>644.0</ele><time>2026-05-01T07:38:00Z</time></trkpt><trkpt lat="39.424051842076565" lon="-3.359569981608045"><ele>644.0</ele><time>2026-05-01T07:38:01Z</time></trkpt><trkpt lat="39.424047834674276" lon="-3.359472352182074"><ele>644.2</ele><time>2026-05-01T07:38:02Z</time></trkpt><trkpt lat="39.424044834055316" lon="-3.3593491213849975"><ele>644.4000000000001</ele><time>2026-05-01T07:38:04Z</time></trkpt><trkpt lat="39.42404628283055" lon="-3.359231131854017"><ele>644.6</ele><time>2026-05-01T07:38:10Z</time></trkpt><trkpt lat="39.42398032656438" lon="-3.3591870872065535"><ele>644.8</ele><time>2026-05-01T07:38:13Z</time></trkpt><trkpt lat="39.42388015010842" lon="-3.3591472754702814"><ele>645.0</ele><time>2026-05-01T07:38:14Z</time></trkpt><trkpt lat="39.423793992603706" lon="-3.359140906100736"><ele>645.2</ele><time>2026-05-01T07:38:15Z</time></trkpt><trkpt lat="39.42370769462197" lon="-3.3591327392198944"><ele>645.4</ele><time>2026-05-01T07:38:16Z</time></trkpt><trkpt lat="39.42361639391211" lon="-3.359115266007983"><ele>645.5999999999999</ele><time>2026-05-01T07:38:17Z</time></trkpt><trkpt lat="39.423508140597754" lon="-3.35908983728704"><ele>645.8</ele><time>2026-05-01T07:38:18Z</time></trkpt><trkpt lat="39.42338466314375" lon="-3.359058246278441"><ele>646.0</ele><time>2026-05-01T07:38:19Z</time></trkpt><trkpt lat="39.42324925328273" lon="-3.3590299478235037"><ele>646.0</ele><time>2026-05-01T07:38:20Z</time></trkpt><trkpt lat="39.42310681810504" lon="-3.359013462726172"><ele>646.0</ele><time>2026-05-01T07:38:21Z</time></trkpt><trkpt lat="39.422957863906426" lon="-3.35897843087981"><ele>646.0</ele><time>2026-05-01T07:38:22Z</time></trkpt><trkpt lat="39.42280815096594" lon="-3.358941778113119"><ele>646.0</ele><time>2026-05-01T07:38:23Z</time></trkpt><trkpt lat="39.42265618233727" lon="-3.358904573106365"><ele>645.0</ele><time>2026-05-01T07:38:24Z</time></trkpt><trkpt lat="39.42248736438561" lon="-3.358861916602091"><ele>644.0</ele><time>2026-05-01T07:38:25Z</time></trkpt><trkpt lat="39.422310011920494" lon="-3.3588166679533917"><ele>643.0</ele><time>2026-05-01T07:38:26Z</time></trkpt><trkpt lat="39.42212813724832" lon="-3.358769642981178"><ele>642.6666666666667</ele><time>2026-05-01T07:38:27Z</time></trkpt><trkpt lat="39.42194983420797" lon="-3.3587223578189898"><ele>642.3333333333334</ele><time>2026-05-01T07:38:28Z</time></trkpt><trkpt lat="39.42177079398587" lon="-3.358651916050173"><ele>642.0</ele><time>2026-05-01T07:38:29Z</time></trkpt><trkpt lat="39.42158862669705" lon="-3.358622469070225"><ele>642.0</ele><time>2026-05-01T07:38:30Z</time></trkpt><trkpt lat="39.42140996438049" lon="-3.3585655866440858"><ele>642.0</ele><time>2026-05-01T07:38:31Z</time></trkpt><trkpt lat="39.4212261011355" lon="-3.3585094203285633"><ele>642.0</ele><time>2026-05-01T07:38:32Z</time></trkpt><trkpt lat="39.42104835703144" lon="-3.3584485106661877"><ele>642.0</ele><time>2026-05-01T07:38:33Z</time></trkpt><trkpt lat="39.42087019181766" lon="-3.358363337476659"><ele>642.0</ele><time>2026-05-01T07:38:34Z</time></trkpt><trkpt lat="39.42070226360241" lon="-3.3583053386440884"><ele>642.0</ele><time>2026-05-01T07:38:35Z</time></trkpt><trkpt lat="39.42053079240493" lon="-3.3582399576592277"><ele>642.0</ele><time>2026-05-01T07:38:36Z</time></trkpt><trkpt lat="39.4203532322325" lon="-3.358174284022154"><ele>642.0</ele><time>2026-05-01T07:38:37Z</time></trkpt><trkpt lat="39.42017164759829" lon="-3.3580999593942513"><ele>642.0</ele><time>2026-05-01T07:38:38Z</time></trkpt><trkpt lat="39.4199888133723" lon="-3.3580248758559166"><ele>642.0</ele><time>2026-05-01T07:38:39Z</time></trkpt><trkpt lat="39.41978250139262" lon="-3.3579451761929344"><ele>642.0</ele><time>2026-05-01T07:38:40Z</time></trkpt><trkpt lat="39.41955799168426" lon="-3.357857291269972"><ele>642.0</ele><time>2026-05-01T07:38:41Z</time></trkpt><trkpt lat="39.41932380071421" lon="-3.3577834775734083"><ele>642.0</ele><time>2026-05-01T07:38:42Z</time></trkpt><trkpt lat="39.419079843712716" lon="-3.35768701371463"><ele>642.0</ele><time>2026-05-01T07:38:43Z</time></trkpt><trkpt lat="39.41884990119517" lon="-3.357594689721756"><ele>642.0</ele><time>2026-05-01T07:38:44Z</time></trkpt><trkpt lat="39.41861583737862" lon="-3.3575025181720886"><ele>641.5</ele><time>2026-05-01T07:38:45Z</time></trkpt><trkpt lat="39.418386976725024" lon="-3.3574149839289342"><ele>641.0</ele><time>2026-05-01T07:38:46Z</time></trkpt><trkpt lat="39.41817611939091" lon="-3.357336679982459"><ele>641.0</ele><time>2026-05-01T07:38:47Z</time></trkpt><trkpt lat="39.417963302217224" lon="-3.3572464384036533"><ele>641.0</ele><time>2026-05-01T07:38:48Z</time></trkpt><trkpt lat="39.41773718710227" lon="-3.3572115323892553"><ele>641.0</ele><time>2026-05-01T07:38:49Z</time></trkpt><trkpt lat="39.41750687403689" lon="-3.357206415230302"><ele>641.0</ele><time>2026-05-01T07:38:50Z</time></trkpt><trkpt lat="39.4172685170461" lon="-3.3572276987247602"><ele>641.0</ele><time>2026-05-01T07:38:51Z</time></trkpt><trkpt lat="39.41702064679558" lon="-3.3572742183394144"><ele>641.0</ele><time>2026-05-01T07:38:52Z</time></trkpt><trkpt lat="39.416762974297235" lon="-3.3573379741107043"><ele>641.0</ele><time>2026-05-01T07:38:53Z</time></trkpt><trkpt lat="39.41649664468083" lon="-3.3573940613878195"><ele>641.0</ele><time>2026-05-01T07:38:54Z</time></trkpt><trkpt lat="39.41622593945379" lon="-3.3574491750806787"><ele>641.5</ele><time>2026-05-01T07:38:55Z</time></trkpt><trkpt lat="39.415958172361144" lon="-3.3575081245944407"><ele>642.0</ele><time>2026-05-01T07:38:56Z</time></trkpt><trkpt lat="39.4156874670238" lon="-3.3575687510841483"><ele>642.0</ele><time>2026-05-01T07:38:57Z</time></trkpt><trkpt lat="39.41540404050194" lon="-3.3576278053546167"><ele>642.0</ele><time>2026-05-01T07:38:58Z</time></trkpt><trkpt lat="39.415121756491224" lon="-3.357680723785871"><ele>642.0</ele><time>2026-05-01T07:38:59Z</time></trkpt><trkpt lat="39.41483940062205" lon="-3.357724785986592"><ele>642.0</ele><time>2026-05-01T07:39:00Z</time></trkpt><trkpt lat="39.41455691013292" lon="-3.357765936638305"><ele>642.0</ele><time>2026-05-01T07:39:00.999Z</time></trkpt><trkpt lat="39.41427609498009" lon="-3.3577983021976094"><ele>642.0</ele><time>2026-05-01T07:39:01.999Z</time></trkpt><trkpt lat="39.41399866472163" lon="-3.357833378659186"><ele>641.0</ele><time>2026-05-01T07:39:02.999Z</time></trkpt><trkpt lat="39.4137447253757" lon="-3.3578648790785697"><ele>640.0</ele><time>2026-05-01T07:39:03.999Z</time></trkpt><trkpt lat="39.41351734189161" lon="-3.3578959642634514"><ele>640.0</ele><time>2026-05-01T07:39:04.999Z</time></trkpt><trkpt lat="39.41330098133903" lon="-3.3579250142342096"><ele>640.0</ele><time>2026-05-01T07:39:05.999Z</time></trkpt><trkpt lat="39.41309527754019" lon="-3.3579533659395087"><ele>640.0</ele><time>2026-05-01T07:39:06.999Z</time></trkpt><trkpt lat="39.41290479329185" lon="-3.3579797427381983"><ele>640.0</ele><time>2026-05-01T07:39:07.999Z</time></trkpt><trkpt lat="39.41272241788625" lon="-3.3580040814727665"><ele>640.0</ele><time>2026-05-01T07:39:08.999Z</time></trkpt><trkpt lat="39.41254888958872" lon="-3.358027717511534"><ele>640.0</ele><time>2026-05-01T07:39:09.999Z</time></trkpt><trkpt lat="39.41238048261689" lon="-3.358050672911027"><ele>640.0</ele><time>2026-05-01T07:39:10.999Z</time></trkpt><trkpt lat="39.41223625335912" lon="-3.3580689450009533"><ele>640.0</ele><time>2026-05-01T07:39:11.999Z</time></trkpt><trkpt lat="39.41211278511528" lon="-3.3580846029980314"><ele>640.0</ele><time>2026-05-01T07:39:12.999Z</time></trkpt><trkpt lat="39.41201629522788" lon="-3.358099344742706"><ele>640.0</ele><time>2026-05-01T07:39:13.999Z</time></trkpt><trkpt lat="39.411940344476946" lon="-3.3580997643892045"><ele>640.0</ele><time>2026-05-01T07:39:14.999Z</time></trkpt><trkpt lat="39.411877368225696" lon="-3.3581218492325817"><ele>640.2</ele><time>2026-05-01T07:39:15.999Z</time></trkpt><trkpt lat="39.41182857628061" lon="-3.3579353962479406"><ele>640.4</ele><time>2026-05-01T07:39:17.999Z</time></trkpt><trkpt lat="39.41181094191107" lon="-3.357820911078635"><ele>640.5999999999999</ele><time>2026-05-01T07:39:18.999Z</time></trkpt><trkpt lat="39.4117918176586" lon="-3.3576905573828078"><ele>640.8</ele><time>2026-05-01T07:39:19.999Z</time></trkpt><trkpt lat="39.41177286820844" lon="-3.3575825894586155"><ele>641.0</ele><time>2026-05-01T07:39:20.999Z</time></trkpt><trkpt lat="39.41175378998504" lon="-3.357472710704872"><ele>641.0</ele><time>2026-05-01T07:39:21.999Z</time></trkpt><trkpt lat="39.41172468395079" lon="-3.3573516841422832"><ele>641.0</ele><time>2026-05-01T07:39:22.999Z</time></trkpt><trkpt lat="39.41169935727012" lon="-3.3572345499149825"><ele>641.0</ele><time>2026-05-01T07:39:23.999Z</time></trkpt><trkpt lat="39.41166572764231" lon="-3.3571086841710303"><ele>641.0</ele><time>2026-05-01T07:39:24.999Z</time></trkpt><trkpt lat="39.411660229414665" lon="-3.35698710701578"><ele>641.0</ele><time>2026-05-01T07:39:25.999Z</time></trkpt><trkpt lat="39.41167677063563" lon="-3.356889445109799"><ele>640.8333333333333</ele><time>2026-05-01T07:39:26.999Z</time></trkpt><trkpt lat="39.411702331874636" lon="-3.356791452580032"><ele>640.6666666666666</ele><time>2026-05-01T07:39:27.999Z</time></trkpt><trkpt lat="39.41171580150393" lon="-3.356710205864168"><ele>640.5</ele><time>2026-05-01T07:39:28.999Z</time></trkpt><trkpt lat="39.41171616035003" lon="-3.3566115442715065"><ele>640.3333333333334</ele><time>2026-05-01T07:39:29.999Z</time></trkpt><trkpt lat="39.41170015206234" lon="-3.356503490773509"><ele>640.1666666666667</ele><time>2026-05-01T07:39:30.999Z</time></trkpt><trkpt lat="39.41168659496943" lon="-3.356388241958296"><ele>640.0</ele><time>2026-05-01T07:39:31.999Z</time></trkpt><trkpt lat="39.4116370928248" lon="-3.356275031874414"><ele>640.0</ele><time>2026-05-01T07:39:32.999Z</time></trkpt><trkpt lat="39.41156398129218" lon="-3.35615478847042"><ele>640.0</ele><time>2026-05-01T07:39:33.999Z</time></trkpt><trkpt lat="39.41147858540925" lon="-3.3560495285874867"><ele>640.0</ele><time>2026-05-01T07:39:34.999Z</time></trkpt><trkpt lat="39.41136563769861" lon="-3.3559408808940763"><ele>640.0</ele><time>2026-05-01T07:39:35.999Z</time></trkpt><trkpt lat="39.41123672172555" lon="-3.355837656393477"><ele>639.6666666666667</ele><time>2026-05-01T07:39:36.999Z</time></trkpt><trkpt lat="39.41109622623706" lon="-3.355748317587389"><ele>639.3333333333334</ele><time>2026-05-01T07:39:37.999Z</time></trkpt><trkpt lat="39.41090891035599" lon="-3.3556445157614867"><ele>639.0</ele><time>2026-05-01T07:39:38.999Z</time></trkpt><trkpt lat="39.41070067794643" lon="-3.3555224324861506"><ele>638.6666666666666</ele><time>2026-05-01T07:39:39.999Z</time></trkpt><trkpt lat="39.410485240049674" lon="-3.355389834889798"><ele>638.3333333333333</ele><time>2026-05-01T07:39:40.999Z</time></trkpt><trkpt lat="39.41031094176918" lon="-3.355260912643819"><ele>638.0</ele><time>2026-05-01T07:39:41.999Z</time></trkpt><trkpt lat="39.41015696856968" lon="-3.355137028125468"><ele>638.0</ele><time>2026-05-01T07:39:42.999Z</time></trkpt><trkpt lat="39.41002927461964" lon="-3.35503271223622"><ele>638.0</ele><time>2026-05-01T07:39:43.999Z</time></trkpt><trkpt lat="39.40990933124401" lon="-3.3549601891580783"><ele>638.0</ele><time>2026-05-01T07:39:44.999Z</time></trkpt><trkpt lat="39.40979178527838" lon="-3.354915472239184"><ele>638.0</ele><time>2026-05-01T07:39:45.999Z</time></trkpt><trkpt lat="39.40966226864551" lon="-3.3548708371314264"><ele>638.3333333333333</ele><time>2026-05-01T07:39:46.999Z</time></trkpt><trkpt lat="39.40952333788996" lon="-3.35482801470721"><ele>638.6666666666666</ele><time>2026-05-01T07:39:47.999Z</time></trkpt><trkpt lat="39.40937449197836" lon="-3.354788943743599"><ele>639.0</ele><time>2026-05-01T07:39:48.999Z</time></trkpt><trkpt lat="39.40920519349321" lon="-3.3547587245832577"><ele>639.0</ele><time>2026-05-01T07:39:49.999Z</time></trkpt><trkpt lat="39.40902557462319" lon="-3.3547145947673696"><ele>639.0</ele><time>2026-05-01T07:39:50.999Z</time></trkpt><trkpt lat="39.408816288500596" lon="-3.3546617902541356"><ele>639.0</ele><time>2026-05-01T07:39:52Z</time></trkpt><trkpt lat="39.40860266281076" lon="-3.3546194693880094"><ele>639.0</ele><time>2026-05-01T07:39:53Z</time></trkpt><trkpt lat="39.40842970416196" lon="-3.3545684110836813"><ele>639.0</ele><time>2026-05-01T07:39:54Z</time></trkpt><trkpt lat="39.40829948151598" lon="-3.354486592926609"><ele>639.0</ele><time>2026-05-01T07:39:55Z</time></trkpt><trkpt lat="39.40818777250191" lon="-3.3543864892975734"><ele>639.0</ele><time>2026-05-01T07:39:56Z</time></trkpt><trkpt lat="39.40807833960076" lon="-3.354263272313048"><ele>639.0</ele><time>2026-05-01T07:39:57Z</time></trkpt><trkpt lat="39.407964291344044" lon="-3.354125511580317"><ele>639.0</ele><time>2026-05-01T07:39:58Z</time></trkpt><trkpt lat="39.40783003834947" lon="-3.3539561460359923"><ele>639.6666666666666</ele><time>2026-05-01T07:39:59Z</time></trkpt><trkpt lat="39.407686008510254" lon="-3.3537855988148784"><ele>640.3333333333333</ele><time>2026-05-01T07:40:00Z</time></trkpt><trkpt lat="39.40752764933002" lon="-3.3536127434199394"><ele>641.0</ele><time>2026-05-01T07:40:01Z</time></trkpt><trkpt lat="39.407361296524954" lon="-3.353433240422049"><ele>641.0</ele><time>2026-05-01T07:40:02Z</time></trkpt><trkpt lat="39.40721815917651" lon="-3.3532861127400158"><ele>641.0</ele><time>2026-05-01T07:40:03Z</time></trkpt><trkpt lat="39.40708986212282" lon="-3.3531673345925275"><ele>641.0</ele><time>2026-05-01T07:40:04Z</time></trkpt><trkpt lat="39.406950236734176" lon="-3.353018501212451"><ele>640.6666666666666</ele><time>2026-05-01T07:40:05Z</time></trkpt><trkpt lat="39.40680955371669" lon="-3.3528706649356326"><ele>640.3333333333334</ele><time>2026-05-01T07:40:06Z</time></trkpt><trkpt lat="39.40666395126267" lon="-3.3527113532837975"><ele>640.0</ele><time>2026-05-01T07:40:07Z</time></trkpt><trkpt lat="39.40652836286934" lon="-3.3525672349460702"><ele>640.0</ele><time>2026-05-01T07:40:08Z</time></trkpt><trkpt lat="39.406389206622315" lon="-3.35241687989533"><ele>640.0</ele><time>2026-05-01T07:40:09Z</time></trkpt><trkpt lat="39.40625404045979" lon="-3.3522595478034303"><ele>640.0</ele><time>2026-05-01T07:40:10Z</time></trkpt><trkpt lat="39.406130741250855" lon="-3.35210674457934"><ele>640.3333333333334</ele><time>2026-05-01T07:40:11Z</time></trkpt><trkpt lat="39.406015521430234" lon="-3.351954424593236"><ele>640.6666666666666</ele><time>2026-05-01T07:40:12Z</time></trkpt><trkpt lat="39.40589888239957" lon="-3.3517936593788193"><ele>641.0</ele><time>2026-05-01T07:40:13Z</time></trkpt><trkpt lat="39.405793563118145" lon="-3.3516357231931786"><ele>641.0</ele><time>2026-05-01T07:40:14Z</time></trkpt><trkpt lat="39.40571714341054" lon="-3.3515100714578057"><ele>641.0</ele><time>2026-05-01T07:40:15Z</time></trkpt><trkpt lat="39.405653152232105" lon="-3.3513653622588664"><ele>641.0</ele><time>2026-05-01T07:40:16Z</time></trkpt><trkpt lat="39.40556961636453" lon="-3.3511857950816433"><ele>641.0</ele><time>2026-05-01T07:40:17Z</time></trkpt><trkpt lat="39.40547305456171" lon="-3.3510070476752536"><ele>641.3333333333333</ele><time>2026-05-01T07:40:18Z</time></trkpt><trkpt lat="39.40537880674617" lon="-3.3508595451473457"><ele>641.6666666666666</ele><time>2026-05-01T07:40:19Z</time></trkpt><trkpt lat="39.405276600097885" lon="-3.3507153133050394"><ele>642.0</ele><time>2026-05-01T07:40:20Z</time></trkpt><trkpt lat="39.40515503188329" lon="-3.3505572204516696"><ele>641.6666666666666</ele><time>2026-05-01T07:40:21Z</time></trkpt><trkpt lat="39.4050252699725" lon="-3.3503872069101357"><ele>641.3333333333333</ele><time>2026-05-01T07:40:22Z</time></trkpt><trkpt lat="39.40489447697143" lon="-3.350210307045454"><ele>641.0</ele><time>2026-05-01T07:40:23Z</time></trkpt><trkpt lat="39.4047795827531" lon="-3.3500630011715895"><ele>641.0</ele><time>2026-05-01T07:40:24Z</time></trkpt><trkpt lat="39.40468161627745" lon="-3.349941797203199"><ele>641.0</ele><time>2026-05-01T07:40:25Z</time></trkpt><trkpt lat="39.40458700620801" lon="-3.349854506709449"><ele>641.0</ele><time>2026-05-01T07:40:26Z</time></trkpt><trkpt lat="39.404491682770356" lon="-3.349791179589801"><ele>641.0</ele><time>2026-05-01T07:40:27Z</time></trkpt><trkpt lat="39.404386847680556" lon="-3.349748879869994"><ele>641.0</ele><time>2026-05-01T07:40:28Z</time></trkpt><trkpt lat="39.404258149137114" lon="-3.349717654813055"><ele>641.0</ele><time>2026-05-01T07:40:29Z</time></trkpt><trkpt lat="39.40409372391396" lon="-3.349687220781377"><ele>641.0</ele><time>2026-05-01T07:40:30Z</time></trkpt><trkpt lat="39.4039050236305" lon="-3.349661430134859"><ele>640.0</ele><time>2026-05-01T07:40:31Z</time></trkpt><trkpt lat="39.40372923136615" lon="-3.3496366093615277"><ele>639.0</ele><time>2026-05-01T07:40:32Z</time></trkpt><trkpt lat="39.403568932002706" lon="-3.349594135346087"><ele>638.0</ele><time>2026-05-01T07:40:33Z</time></trkpt><trkpt lat="39.40339026895037" lon="-3.349519203252536"><ele>638.0</ele><time>2026-05-01T07:40:34Z</time></trkpt><trkpt lat="39.40320129876937" lon="-3.3494430742344234"><ele>638.0</ele><time>2026-05-01T07:40:35Z</time></trkpt><trkpt lat="39.40303285412409" lon="-3.3493894412316494"><ele>638.0</ele><time>2026-05-01T07:40:36Z</time></trkpt><trkpt lat="39.40285590715119" lon="-3.349360809350071"><ele>638.0</ele><time>2026-05-01T07:40:37Z</time></trkpt><trkpt lat="39.402658347392" lon="-3.3493330099541927"><ele>638.0</ele><time>2026-05-01T07:40:38Z</time></trkpt><trkpt lat="39.402451157022554" lon="-3.3492963948030416"><ele>638.0</ele><time>2026-05-01T07:40:39Z</time></trkpt><trkpt lat="39.40223746744234" lon="-3.349254228579626"><ele>639.0</ele><time>2026-05-01T07:40:40Z</time></trkpt><trkpt lat="39.40203066202239" lon="-3.3492132451929284"><ele>640.0</ele><time>2026-05-01T07:40:41Z</time></trkpt><trkpt lat="39.40187109162775" lon="-3.349176435518921"><ele>641.0</ele><time>2026-05-01T07:40:42Z</time></trkpt><trkpt lat="39.40171167333454" lon="-3.3491557921683475"><ele>641.0</ele><time>2026-05-01T07:40:43Z</time></trkpt><trkpt lat="39.40153015662496" lon="-3.3491459054883363"><ele>641.0</ele><time>2026-05-01T07:40:44Z</time></trkpt><trkpt lat="39.40136072184309" lon="-3.3491479748583344"><ele>641.0</ele><time>2026-05-01T07:40:45Z</time></trkpt><trkpt lat="39.40120201884788" lon="-3.349175383008676"><ele>640.6666666666666</ele><time>2026-05-01T07:40:46Z</time></trkpt><trkpt lat="39.40102878542402" lon="-3.34920547814418"><ele>640.3333333333334</ele><time>2026-05-01T07:40:47Z</time></trkpt><trkpt lat="39.400851011137256" lon="-3.349221565556334"><ele>640.0</ele><time>2026-05-01T07:40:48Z</time></trkpt><trkpt lat="39.40064326785277" lon="-3.3492278886137794"><ele>640.6666666666667</ele><time>2026-05-01T07:40:49Z</time></trkpt><trkpt lat="39.400447045909345" lon="-3.3492244543788257"><ele>641.3333333333334</ele><time>2026-05-01T07:40:50Z</time></trkpt><trkpt lat="39.40024256845337" lon="-3.349220324033552"><ele>642.0</ele><time>2026-05-01T07:40:51Z</time></trkpt><trkpt lat="39.4000492375105" lon="-3.349213745642186"><ele>642.0</ele><time>2026-05-01T07:40:52Z</time></trkpt><trkpt lat="39.39987877032121" lon="-3.3492106612176875"><ele>642.0</ele><time>2026-05-01T07:40:53Z</time></trkpt><trkpt lat="39.399710775627575" lon="-3.349202087310719"><ele>642.0</ele><time>2026-05-01T07:40:54Z</time></trkpt><trkpt lat="39.39952710154745" lon="-3.3491694418075526"><ele>641.0</ele><time>2026-05-01T07:40:55Z</time></trkpt><trkpt lat="39.399348216928544" lon="-3.3491306390348954"><ele>640.0</ele><time>2026-05-01T07:40:56Z</time></trkpt><trkpt lat="39.39919583036308" lon="-3.3491165916962986"><ele>639.0</ele><time>2026-05-01T07:40:57Z</time></trkpt><trkpt lat="39.39907498860603" lon="-3.349111115420439"><ele>639.0</ele><time>2026-05-01T07:40:58Z</time></trkpt><trkpt lat="39.39897229083288" lon="-3.3491073567842995"><ele>639.0</ele><time>2026-05-01T07:40:59Z</time></trkpt><trkpt lat="39.39886190252098" lon="-3.3490985078203046"><ele>639.0</ele><time>2026-05-01T07:41:00Z</time></trkpt><trkpt lat="39.39873659530535" lon="-3.349091078386947"><ele>639.0</ele><time>2026-05-01T07:41:01Z</time></trkpt><trkpt lat="39.39860471096867" lon="-3.349104907135642"><ele>639.25</ele><time>2026-05-01T07:41:02Z</time></trkpt><trkpt lat="39.398488028536974" lon="-3.349135826837504"><ele>639.5</ele><time>2026-05-01T07:41:03Z</time></trkpt><trkpt lat="39.398376032048986" lon="-3.349164058128426"><ele>639.75</ele><time>2026-05-01T07:41:04Z</time></trkpt><trkpt lat="39.398255191656936" lon="-3.3491901137255877"><ele>640.0</ele><time>2026-05-01T07:41:05Z</time></trkpt><trkpt lat="39.39812098494797" lon="-3.3492153591164615"><ele>639.3333333333334</ele><time>2026-05-01T07:41:06Z</time></trkpt><trkpt lat="39.39795076373495" lon="-3.3492383958118404"><ele>638.6666666666666</ele><time>2026-05-01T07:41:07Z</time></trkpt><trkpt lat="39.39779405885903" lon="-3.3492586728690497"><ele>638.0</ele><time>2026-05-01T07:41:08Z</time></trkpt><trkpt lat="39.397641392618574" lon="-3.349279605475828"><ele>638.0</ele><time>2026-05-01T07:41:09Z</time></trkpt><trkpt lat="39.397479155145824" lon="-3.349303306310067"><ele>638.0</ele><time>2026-05-01T07:41:10Z</time></trkpt><trkpt lat="39.39730421939638" lon="-3.3493325559562845"><ele>638.0</ele><time>2026-05-01T07:41:11Z</time></trkpt><trkpt lat="39.39713011734855" lon="-3.3493630331870854"><ele>638.0</ele><time>2026-05-01T07:41:12Z</time></trkpt><trkpt lat="39.39696679512322" lon="-3.3493801600531508"><ele>638.0</ele><time>2026-05-01T07:41:13Z</time></trkpt><trkpt lat="39.3967952723267" lon="-3.3493769262642683"><ele>638.0</ele><time>2026-05-01T07:41:14Z</time></trkpt><trkpt lat="39.396619308379016" lon="-3.349361502084508"><ele>638.0</ele><time>2026-05-01T07:41:15Z</time></trkpt><trkpt lat="39.396466477437336" lon="-3.349341621837121"><ele>638.0</ele><time>2026-05-01T07:41:16Z</time></trkpt><trkpt lat="39.39634006449321" lon="-3.3493128773831096"><ele>638.0</ele><time>2026-05-01T07:41:17Z</time></trkpt><trkpt lat="39.3962242731186" lon="-3.3492838273179575"><ele>638.0</ele><time>2026-05-01T07:41:18Z</time></trkpt><trkpt lat="39.396131200528224" lon="-3.34927026891435"><ele>638.0</ele><time>2026-05-01T07:41:19Z</time></trkpt><trkpt lat="39.396051233006155" lon="-3.3492620481193516"><ele>638.0</ele><time>2026-05-01T07:41:20Z</time></trkpt><trkpt lat="39.39594752702149" lon="-3.3492368151708938"><ele>638.0</ele><time>2026-05-01T07:41:22Z</time></trkpt><trkpt lat="39.39587999462769" lon="-3.3492584473197584"><ele>638.0</ele><time>2026-05-01T07:41:24Z</time></trkpt><trkpt lat="39.39584092350496" lon="-3.3493530066279895"><ele>638.0</ele><time>2026-05-01T07:41:26Z</time></trkpt><trkpt lat="39.395828714056194" lon="-3.349509694424646"><ele>638.0</ele><time>2026-05-01T07:41:28Z</time></trkpt><trkpt lat="39.395826469488654" lon="-3.349657368929789"><ele>638.0</ele><time>2026-05-01T07:41:29Z</time></trkpt><trkpt lat="39.395832836915766" lon="-3.3498310618633402"><ele>638.0</ele><time>2026-05-01T07:41:30Z</time></trkpt><trkpt lat="39.395834476710675" lon="-3.3500458636345423"><ele>638.0</ele><time>2026-05-01T07:41:31Z</time></trkpt><trkpt lat="39.39583787736717" lon="-3.3502716789167994"><ele>638.6666666666666</ele><time>2026-05-01T07:41:32Z</time></trkpt><trkpt lat="39.39583890088577" lon="-3.3505060885290776"><ele>639.3333333333334</ele><time>2026-05-01T07:41:33Z</time></trkpt><trkpt lat="39.395844650593865" lon="-3.3507472528584836"><ele>640.0</ele><time>2026-05-01T07:41:34Z</time></trkpt><trkpt lat="39.39585360936658" lon="-3.350989809072701"><ele>640.6666666666667</ele><time>2026-05-01T07:41:35Z</time></trkpt><trkpt lat="39.39585773046198" lon="-3.35124121079304"><ele>641.3333333333334</ele><time>2026-05-01T07:41:36Z</time></trkpt><trkpt lat="39.395864324515586" lon="-3.3515012287472166"><ele>642.0</ele><time>2026-05-01T07:41:37Z</time></trkpt><trkpt lat="39.3958710550577" lon="-3.3517493937447296"><ele>641.3333333333334</ele><time>2026-05-01T07:41:38Z</time></trkpt><trkpt lat="39.3958770509741" lon="-3.3519766888899816"><ele>640.6666666666667</ele><time>2026-05-01T07:41:39Z</time></trkpt><trkpt lat="39.39587783852589" lon="-3.3521984104000615"><ele>640.0</ele><time>2026-05-01T07:41:40Z</time></trkpt><trkpt lat="39.39587868289645" lon="-3.352427858306525"><ele>640.0</ele><time>2026-05-01T07:41:41Z</time></trkpt><trkpt lat="39.39588626746926" lon="-3.352649271735626"><ele>640.0</ele><time>2026-05-01T07:41:42Z</time></trkpt><trkpt lat="39.39589124632024" lon="-3.3528718505202617"><ele>640.0</ele><time>2026-05-01T07:41:43Z</time></trkpt><trkpt lat="39.39590000442789" lon="-3.3531039145996067"><ele>640.0</ele><time>2026-05-01T07:41:44Z</time></trkpt><trkpt lat="39.395926857313064" lon="-3.353334402051979"><ele>640.0</ele><time>2026-05-01T07:41:45Z</time></trkpt><trkpt lat="39.395937436020745" lon="-3.353542546422328"><ele>640.0</ele><time>2026-05-01T07:41:46Z</time></trkpt><trkpt lat="39.395949500172236" lon="-3.3537478413520825"><ele>640.3333333333334</ele><time>2026-05-01T07:41:47Z</time></trkpt><trkpt lat="39.395965759056025" lon="-3.3539598046027104"><ele>640.6666666666666</ele><time>2026-05-01T07:41:48Z</time></trkpt><trkpt lat="39.39599870671909" lon="-3.3541442632135205"><ele>641.0</ele><time>2026-05-01T07:41:49Z</time></trkpt><trkpt lat="39.39604098599041" lon="-3.3543274674829804"><ele>641.0</ele><time>2026-05-01T07:41:50Z</time></trkpt><trkpt lat="39.3960869371746" lon="-3.3545029149660244"><ele>641.0</ele><time>2026-05-01T07:41:51Z</time></trkpt><trkpt lat="39.39613764900143" lon="-3.3546752010313203"><ele>641.0</ele><time>2026-05-01T07:41:52Z</time></trkpt><trkpt lat="39.3962065133423" lon="-3.3548724583442624"><ele>641.25</ele><time>2026-05-01T07:41:53Z</time></trkpt><trkpt lat="39.39628191283847" lon="-3.3550451363341054"><ele>641.5</ele><time>2026-05-01T07:41:54Z</time></trkpt><trkpt lat="39.39636315197559" lon="-3.3551907184030094"><ele>641.75</ele><time>2026-05-01T07:41:55Z</time></trkpt><trkpt lat="39.39644612785305" lon="-3.3553347732274887"><ele>642.0</ele><time>2026-05-01T07:41:56Z</time></trkpt><trkpt lat="39.396532575006674" lon="-3.3554820965114383"><ele>642.5</ele><time>2026-05-01T07:41:57Z</time></trkpt><trkpt lat="39.396619608662384" lon="-3.3556239941031665"><ele>643.0</ele><time>2026-05-01T07:41:58.001Z</time></trkpt><trkpt lat="39.39671268942615" lon="-3.3557663047474144"><ele>643.5</ele><time>2026-05-01T07:41:59.001Z</time></trkpt><trkpt lat="39.39679658350378" lon="-3.3558945699007814"><ele>644.0</ele><time>2026-05-01T07:42:00.001Z</time></trkpt><trkpt lat="39.39687949008166" lon="-3.3560213252916826"><ele>644.0</ele><time>2026-05-01T07:42:01.001Z</time></trkpt><trkpt lat="39.396969535929045" lon="-3.3561565109788307"><ele>644.0</ele><time>2026-05-01T07:42:02.001Z</time></trkpt><trkpt lat="39.397048856491246" lon="-3.3562742489477406"><ele>644.0</ele><time>2026-05-01T07:42:03.001Z</time></trkpt><trkpt lat="39.39711586155786" lon="-3.356370153025651"><ele>644.0</ele><time>2026-05-01T07:42:04.001Z</time></trkpt><trkpt lat="39.397168449570216" lon="-3.356470001079716"><ele>643.8000000000001</ele><time>2026-05-01T07:42:05.001Z</time></trkpt><trkpt lat="39.39722792687314" lon="-3.356539300657011"><ele>643.6</ele><time>2026-05-01T07:42:06.001Z</time></trkpt><trkpt lat="39.39733135451192" lon="-3.3566252935772996"><ele>643.4</ele><time>2026-05-01T07:42:08.001Z</time></trkpt><trkpt lat="39.39741056604144" lon="-3.3566813776729343"><ele>643.2</ele><time>2026-05-01T07:42:10.001Z</time></trkpt><trkpt lat="39.39744280601488" lon="-3.3567661230981733"><ele>643.0</ele><time>2026-05-01T07:42:12.001Z</time></trkpt><trkpt lat="39.39742328799546" lon="-3.3569087273863922"><ele>643.0</ele><time>2026-05-01T07:42:15.001Z</time></trkpt><trkpt lat="39.39742940030226" lon="-3.356994513105784"><ele>643.0</ele><time>2026-05-01T07:42:16.001Z</time></trkpt><trkpt lat="39.39746269315203" lon="-3.3571005455737106"><ele>643.0</ele><time>2026-05-01T07:42:17.001Z</time></trkpt><trkpt lat="39.397478972971086" lon="-3.357200227410561"><ele>643.0</ele><time>2026-05-01T07:42:18.001Z</time></trkpt><trkpt lat="39.39747591325805" lon="-3.357292731288608"><ele>643.0</ele><time>2026-05-01T07:42:19.001Z</time></trkpt><trkpt lat="39.39749448771196" lon="-3.3573978369907604"><ele>643.0</ele><time>2026-05-01T07:42:21Z</time></trkpt><trkpt lat="39.397431163461114" lon="-3.3575055226423265"><ele>643.2</ele><time>2026-05-01T07:42:23Z</time></trkpt><trkpt lat="39.39733504867144" lon="-3.357503830838668"><ele>643.4</ele><time>2026-05-01T07:42:25Z</time></trkpt><trkpt lat="39.39724901809541" lon="-3.3576021482477123"><ele>643.6</ele><time>2026-05-01T07:42:26Z</time></trkpt><trkpt lat="39.397174234098976" lon="-3.357702456518626"><ele>643.8000000000001</ele><time>2026-05-01T07:42:27Z</time></trkpt><trkpt lat="39.397087956293696" lon="-3.3578210107008846"><ele>644.0</ele><time>2026-05-01T07:42:28Z</time></trkpt><trkpt lat="39.39699840858098" lon="-3.3579440580575293"><ele>644.0</ele><time>2026-05-01T07:42:29Z</time></trkpt><trkpt lat="39.39693409815223" lon="-3.358032426904762"><ele>644.0</ele><time>2026-05-01T07:42:30Z</time></trkpt><trkpt lat="39.39682713656252" lon="-3.358177699633415"><ele>644.0</ele><time>2026-05-01T07:42:31Z</time></trkpt><trkpt lat="39.396728219482185" lon="-3.3583257794350527"><ele>644.0</ele><time>2026-05-01T07:42:32Z</time></trkpt><trkpt lat="39.39662539475887" lon="-3.358483480730142"><ele>644.0</ele><time>2026-05-01T07:42:33Z</time></trkpt><trkpt lat="39.39652021656448" lon="-3.358667958514981"><ele>644.0</ele><time>2026-05-01T07:42:34Z</time></trkpt><trkpt lat="39.39641681056255" lon="-3.3588801420797165"><ele>644.0</ele><time>2026-05-01T07:42:35Z</time></trkpt><trkpt lat="39.396345493432165" lon="-3.359052239529709"><ele>643.6666666666666</ele><time>2026-05-01T07:42:36Z</time></trkpt><trkpt lat="39.396273783014365" lon="-3.3592682849376847"><ele>643.3333333333334</ele><time>2026-05-01T07:42:37Z</time></trkpt><trkpt lat="39.39622147994662" lon="-3.3594760563086488"><ele>643.0</ele><time>2026-05-01T07:42:38Z</time></trkpt><trkpt lat="39.396171103091284" lon="-3.3597135729395666"><ele>643.0</ele><time>2026-05-01T07:42:39Z</time></trkpt><trkpt lat="39.39614164074314" lon="-3.359935125855876"><ele>643.0</ele><time>2026-05-01T07:42:40Z</time></trkpt><trkpt lat="39.39612639488409" lon="-3.360167120996933"><ele>643.0</ele><time>2026-05-01T07:42:41Z</time></trkpt><trkpt lat="39.39612671107534" lon="-3.3604272062417615"><ele>642.0</ele><time>2026-05-01T07:42:42Z</time></trkpt><trkpt lat="39.39614440546724" lon="-3.3606834000794072"><ele>641.0</ele><time>2026-05-01T07:42:43Z</time></trkpt><trkpt lat="39.39618683979295" lon="-3.3609611854789394"><ele>640.0</ele><time>2026-05-01T07:42:44Z</time></trkpt><trkpt lat="39.39621708903636" lon="-3.361240866285642"><ele>641.0</ele><time>2026-05-01T07:42:45Z</time></trkpt><trkpt lat="39.39624249785244" lon="-3.361492354137552"><ele>642.0</ele><time>2026-05-01T07:42:46Z</time></trkpt><trkpt lat="39.396273081171294" lon="-3.3617950574708475"><ele>643.0</ele><time>2026-05-01T07:42:47Z</time></trkpt><trkpt lat="39.396305207374425" lon="-3.362083455000183"><ele>644.5</ele><time>2026-05-01T07:42:48Z</time></trkpt><trkpt lat="39.39633909505746" lon="-3.36238668578834"><ele>646.0</ele><time>2026-05-01T07:42:49Z</time></trkpt><trkpt lat="39.39637270735144" lon="-3.3626868020016984"><ele>646.0</ele><time>2026-05-01T07:42:50Z</time></trkpt><trkpt lat="39.396409792923464" lon="-3.363000382162816"><ele>646.0</ele><time>2026-05-01T07:42:51Z</time></trkpt><trkpt lat="39.39645133644906" lon="-3.363357928395032"><ele>646.0</ele><time>2026-05-01T07:42:52Z</time></trkpt><trkpt lat="39.396482396206515" lon="-3.3636667773263036"><ele>646.0</ele><time>2026-05-01T07:42:53Z</time></trkpt><trkpt lat="39.39651262137084" lon="-3.363956425059404"><ele>646.0</ele><time>2026-05-01T07:42:54Z</time></trkpt><trkpt lat="39.39654889783641" lon="-3.3642548586169974"><ele>646.0</ele><time>2026-05-01T07:42:55Z</time></trkpt><trkpt lat="39.39658602372275" lon="-3.364539801402533"><ele>646.0</ele><time>2026-05-01T07:42:56Z</time></trkpt><trkpt lat="39.3966176546656" lon="-3.3647774754668314"><ele>646.0</ele><time>2026-05-01T07:42:57Z</time></trkpt><trkpt lat="39.39664830719637" lon="-3.364997439906498"><ele>646.0</ele><time>2026-05-01T07:42:58Z</time></trkpt><trkpt lat="39.39668086293231" lon="-3.3652310618515866"><ele>646.0</ele><time>2026-05-01T07:42:59Z</time></trkpt><trkpt lat="39.39671884198769" lon="-3.365495509819724"><ele>646.0</ele><time>2026-05-01T07:43:00Z</time></trkpt><trkpt lat="39.396758308957914" lon="-3.3657630049806433"><ele>646.0</ele><time>2026-05-01T07:43:01Z</time></trkpt><trkpt lat="39.39679882911654" lon="-3.3660376383725197"><ele>646.0</ele><time>2026-05-01T07:43:02Z</time></trkpt><trkpt lat="39.39683293923259" lon="-3.3662674478792938"><ele>646.0</ele><time>2026-05-01T07:43:03Z</time></trkpt><trkpt lat="39.39685832382509" lon="-3.366438322494026"><ele>646.0</ele><time>2026-05-01T07:43:04Z</time></trkpt><trkpt lat="39.396881465639254" lon="-3.3665940999884607"><ele>646.0</ele><time>2026-05-01T07:43:05Z</time></trkpt><trkpt lat="39.39690484822156" lon="-3.366751498249466"><ele>645.3333333333334</ele><time>2026-05-01T07:43:06Z</time></trkpt><trkpt lat="39.396937569516076" lon="-3.3669642400003394"><ele>644.6666666666666</ele><time>2026-05-01T07:43:07Z</time></trkpt><trkpt lat="39.39697315148298" lon="-3.3671869283188105"><ele>644.0</ele><time>2026-05-01T07:43:08Z</time></trkpt><trkpt lat="39.39701553139805" lon="-3.3674411827613024"><ele>644.0</ele><time>2026-05-01T07:43:09Z</time></trkpt><trkpt lat="39.397055663509846" lon="-3.3676784518081404"><ele>644.0</ele><time>2026-05-01T07:43:10Z</time></trkpt><trkpt lat="39.39709803529943" lon="-3.3679289622762996"><ele>644.0</ele><time>2026-05-01T07:43:11Z</time></trkpt><trkpt lat="39.397143485697846" lon="-3.3681976741031443"><ele>644.6666666666666</ele><time>2026-05-01T07:43:12Z</time></trkpt><trkpt lat="39.39719304355557" lon="-3.3684873021971655"><ele>645.3333333333334</ele><time>2026-05-01T07:43:13Z</time></trkpt><trkpt lat="39.3972388986354" lon="-3.368747427007441"><ele>646.0</ele><time>2026-05-01T07:43:14Z</time></trkpt><trkpt lat="39.39728189574118" lon="-3.3689911457216066"><ele>646.0</ele><time>2026-05-01T07:43:15Z</time></trkpt><trkpt lat="39.397320383641485" lon="-3.3692089405518226"><ele>646.0</ele><time>2026-05-01T07:43:16Z</time></trkpt><trkpt lat="39.39735751722432" lon="-3.369411406997131"><ele>646.0</ele><time>2026-05-01T07:43:17Z</time></trkpt><trkpt lat="39.39739592696549" lon="-3.369618394122216"><ele>646.0</ele><time>2026-05-01T07:43:18Z</time></trkpt><trkpt lat="39.39743103182632" lon="-3.369806733856267"><ele>646.0</ele><time>2026-05-01T07:43:19Z</time></trkpt><trkpt lat="39.39746554104841" lon="-3.3699916043053713"><ele>646.0</ele><time>2026-05-01T07:43:20Z</time></trkpt><trkpt lat="39.39750579961024" lon="-3.3702065316562226"><ele>646.0</ele><time>2026-05-01T07:43:21Z</time></trkpt><trkpt lat="39.3975471931864" lon="-3.3704218547276827"><ele>646.0</ele><time>2026-05-01T07:43:22Z</time></trkpt><trkpt lat="39.397582238635245" lon="-3.370604155810089"><ele>646.0</ele><time>2026-05-01T07:43:23Z</time></trkpt><trkpt lat="39.397611229804156" lon="-3.3707542674745166"><ele>646.0</ele><time>2026-05-01T07:43:24Z</time></trkpt><trkpt lat="39.397628764700116" lon="-3.3708433137211617"><ele>646.0</ele><time>2026-05-01T07:43:25Z</time></trkpt><trkpt lat="39.39764713343162" lon="-3.3709365943728735"><ele>646.0</ele><time>2026-05-01T07:43:27Z</time></trkpt><trkpt lat="39.39767055063494" lon="-3.3710225677621"><ele>646.0</ele><time>2026-05-01T07:43:30Z</time></trkpt><trkpt lat="39.39759051612235" lon="-3.3710589643412874"><ele>646.0</ele><time>2026-05-01T07:43:34Z</time></trkpt><trkpt lat="39.39752161497499" lon="-3.3710841917596466"><ele>646.0</ele><time>2026-05-01T07:43:36Z</time></trkpt><trkpt lat="39.39743039384594" lon="-3.3711128989728163"><ele>646.0</ele><time>2026-05-01T07:43:38Z</time></trkpt><trkpt lat="39.39722375455959" lon="-3.371155305633041"><ele>645.5</ele><time>2026-05-01T07:43:40Z</time></trkpt><trkpt lat="39.39712271066787" lon="-3.371151816540028"><ele>645.0</ele><time>2026-05-01T07:43:41Z</time></trkpt><trkpt lat="39.39701019107152" lon="-3.3711095444905324"><ele>644.5</ele><time>2026-05-01T07:43:42Z</time></trkpt><trkpt lat="39.39686520665994" lon="-3.3710457585786977"><ele>644.0</ele><time>2026-05-01T07:43:43Z</time></trkpt><trkpt lat="39.396709056266026" lon="-3.370966418393522"><ele>644.0</ele><time>2026-05-01T07:43:44Z</time></trkpt><trkpt lat="39.39654203523543" lon="-3.370852000185584"><ele>644.0</ele><time>2026-05-01T07:43:45Z</time></trkpt><trkpt lat="39.39634490257774" lon="-3.3707327802296296"><ele>644.0</ele><time>2026-05-01T07:43:46Z</time></trkpt><trkpt lat="39.39613420578681" lon="-3.3705796838303237"><ele>642.5</ele><time>2026-05-01T07:43:47Z</time></trkpt><trkpt lat="39.39591142877681" lon="-3.3704246724119606"><ele>641.0</ele><time>2026-05-01T07:43:48Z</time></trkpt><trkpt lat="39.39568296469557" lon="-3.3702778848101516"><ele>641.0</ele><time>2026-05-01T07:43:49Z</time></trkpt><trkpt lat="39.395483739936004" lon="-3.3701616878467506"><ele>641.0</ele><time>2026-05-01T07:43:50Z</time></trkpt><trkpt lat="39.395297821317776" lon="-3.3700592097070925"><ele>641.0</ele><time>2026-05-01T07:43:51Z</time></trkpt><trkpt lat="39.395130545032664" lon="-3.369969860763356"><ele>641.0</ele><time>2026-05-01T07:43:52Z</time></trkpt><trkpt lat="39.39497890197249" lon="-3.3698910144463152"><ele>641.0</ele><time>2026-05-01T07:43:53Z</time></trkpt><trkpt lat="39.394828480060944" lon="-3.369828390547819"><ele>641.0</ele><time>2026-05-01T07:43:54Z</time></trkpt><trkpt lat="39.39467787182662" lon="-3.369782982655262"><ele>640.3333333333333</ele><time>2026-05-01T07:43:55Z</time></trkpt><trkpt lat="39.39449824674613" lon="-3.369738862467904"><ele>639.6666666666666</ele><time>2026-05-01T07:43:56Z</time></trkpt><trkpt lat="39.39431501032811" lon="-3.3696995012121933"><ele>639.0</ele><time>2026-05-01T07:43:57Z</time></trkpt><trkpt lat="39.39411117694102" lon="-3.36966094797909"><ele>639.0</ele><time>2026-05-01T07:43:58Z</time></trkpt><trkpt lat="39.39390564091257" lon="-3.3696220101260366"><ele>639.0</ele><time>2026-05-01T07:43:59Z</time></trkpt><trkpt lat="39.39371414038349" lon="-3.36958287424344"><ele>639.0</ele><time>2026-05-01T07:44:00Z</time></trkpt><trkpt lat="39.393547450375394" lon="-3.3695507904742508"><ele>639.0</ele><time>2026-05-01T07:44:01Z</time></trkpt><trkpt lat="39.39338588937693" lon="-3.3695235115391946"><ele>639.0</ele><time>2026-05-01T07:44:02Z</time></trkpt><trkpt lat="39.39320399243702" lon="-3.3694994973048455"><ele>639.0</ele><time>2026-05-01T07:44:03Z</time></trkpt><trkpt lat="39.39302053509672" lon="-3.3694759384114277"><ele>639.0</ele><time>2026-05-01T07:44:04.001Z</time></trkpt><trkpt lat="39.392876134500554" lon="-3.369447910929"><ele>639.0</ele><time>2026-05-01T07:44:05.001Z</time></trkpt><trkpt lat="39.39275450009792" lon="-3.369412951935586"><ele>639.0</ele><time>2026-05-01T07:44:06.001Z</time></trkpt><trkpt lat="39.39263261699562" lon="-3.3693487739501173"><ele>639.0</ele><time>2026-05-01T07:44:07.001Z</time></trkpt><trkpt lat="39.39251123367615" lon="-3.3692681538943177"><ele>639.0</ele><time>2026-05-01T07:44:08.001Z</time></trkpt><trkpt lat="39.39238306221555" lon="-3.369186360563819"><ele>639.0</ele><time>2026-05-01T07:44:09.001Z</time></trkpt><trkpt lat="39.392238393988535" lon="-3.3691084354619516"><ele>639.0</ele><time>2026-05-01T07:44:10.001Z</time></trkpt><trkpt lat="39.392078851389144" lon="-3.3690348589485875"><ele>639.3333333333334</ele><time>2026-05-01T07:44:11.001Z</time></trkpt><trkpt lat="39.391933934322225" lon="-3.368976779099953"><ele>639.6666666666667</ele><time>2026-05-01T07:44:12.001Z</time></trkpt><trkpt lat="39.39177904829607" lon="-3.3689203422456124"><ele>640.0</ele><time>2026-05-01T07:44:13.001Z</time></trkpt><trkpt lat="39.39160502654514" lon="-3.368861527632746"><ele>640.3333333333334</ele><time>2026-05-01T07:44:14.001Z</time></trkpt><trkpt lat="39.39142122735768" lon="-3.368801537974303"><ele>640.6666666666666</ele><time>2026-05-01T07:44:15.001Z</time></trkpt><trkpt lat="39.391227973218434" lon="-3.3687393477930514"><ele>641.0</ele><time>2026-05-01T07:44:16.001Z</time></trkpt><trkpt lat="39.391023618360656" lon="-3.368673908488671"><ele>639.0</ele><time>2026-05-01T07:44:17.001Z</time></trkpt><trkpt lat="39.39081136875978" lon="-3.3686059410798417"><ele>637.0</ele><time>2026-05-01T07:44:18.001Z</time></trkpt><trkpt lat="39.39058592275228" lon="-3.3685337478021498"><ele>637.0</ele><time>2026-05-01T07:44:19.001Z</time></trkpt><trkpt lat="39.39035098554347" lon="-3.3684584724223936"><ele>637.0</ele><time>2026-05-01T07:44:20.001Z</time></trkpt><trkpt lat="39.39012254613159" lon="-3.368389593466183"><ele>637.0</ele><time>2026-05-01T07:44:21.001Z</time></trkpt><trkpt lat="39.389914377014804" lon="-3.368326826445191"><ele>637.0</ele><time>2026-05-01T07:44:22.001Z</time></trkpt><trkpt lat="39.38971469435751" lon="-3.3682630913067895"><ele>637.0</ele><time>2026-05-01T07:44:23.001Z</time></trkpt><trkpt lat="39.389520871267926" lon="-3.3681669197070465"><ele>637.6666666666667</ele><time>2026-05-01T07:44:24.001Z</time></trkpt><trkpt lat="39.389318670459716" lon="-3.3680722342394662"><ele>638.3333333333334</ele><time>2026-05-01T07:44:25.001Z</time></trkpt><trkpt lat="39.38910823705561" lon="-3.3679526942221507"><ele>639.0</ele><time>2026-05-01T07:44:26.001Z</time></trkpt><trkpt lat="39.38886874711948" lon="-3.367834774732525"><ele>639.3333333333334</ele><time>2026-05-01T07:44:27.001Z</time></trkpt><trkpt lat="39.38865268295206" lon="-3.367728211946149"><ele>639.6666666666667</ele><time>2026-05-01T07:44:28Z</time></trkpt><trkpt lat="39.38845805926966" lon="-3.367650752889401"><ele>640.0</ele><time>2026-05-01T07:44:29Z</time></trkpt><trkpt lat="39.38827002472498" lon="-3.36759424991809"><ele>640.0</ele><time>2026-05-01T07:44:30Z</time></trkpt><trkpt lat="39.38808628807105" lon="-3.3675512457508208"><ele>640.0</ele><time>2026-05-01T07:44:31Z</time></trkpt><trkpt lat="39.38790610460402" lon="-3.367525644522597"><ele>640.0</ele><time>2026-05-01T07:44:32Z</time></trkpt><trkpt lat="39.387720485565225" lon="-3.3675253997671684"><ele>640.0</ele><time>2026-05-01T07:44:33Z</time></trkpt><trkpt lat="39.38751932543838" lon="-3.3675407636184707"><ele>640.0</ele><time>2026-05-01T07:44:34Z</time></trkpt><trkpt lat="39.3873036026566" lon="-3.3675566703492015"><ele>640.0</ele><time>2026-05-01T07:44:35Z</time></trkpt><trkpt lat="39.387070408518426" lon="-3.367567067369617"><ele>639.6666666666667</ele><time>2026-05-01T07:44:36Z</time></trkpt><trkpt lat="39.386855393275766" lon="-3.3675560132633287"><ele>639.3333333333334</ele><time>2026-05-01T07:44:37Z</time></trkpt><trkpt lat="39.386663788141256" lon="-3.367558003175797"><ele>639.0</ele><time>2026-05-01T07:44:38Z</time></trkpt><trkpt lat="39.3864835433116" lon="-3.367548362048451"><ele>639.6666666666666</ele><time>2026-05-01T07:44:39Z</time></trkpt><trkpt lat="39.38629171002288" lon="-3.3675292918636552"><ele>640.3333333333333</ele><time>2026-05-01T07:44:40Z</time></trkpt><trkpt lat="39.38611357922924" lon="-3.3674936433714566"><ele>641.0</ele><time>2026-05-01T07:44:41Z</time></trkpt><trkpt lat="39.385957195729354" lon="-3.367446857222681"><ele>641.0</ele><time>2026-05-01T07:44:42Z</time></trkpt><trkpt lat="39.38580032905777" lon="-3.36742234065954"><ele>641.0</ele><time>2026-05-01T07:44:43Z</time></trkpt><trkpt lat="39.38566688802238" lon="-3.367386187555832"><ele>641.0</ele><time>2026-05-01T07:44:44Z</time></trkpt><trkpt lat="39.385522254521945" lon="-3.3673516594631643"><ele>641.0</ele><time>2026-05-01T07:44:45Z</time></trkpt><trkpt lat="39.38537282295898" lon="-3.367322701874667"><ele>641.1999999999999</ele><time>2026-05-01T07:44:46Z</time></trkpt><trkpt lat="39.385224830611136" lon="-3.3672968580224487"><ele>641.4</ele><time>2026-05-01T07:44:47Z</time></trkpt><trkpt lat="39.38511025171744" lon="-3.3672816096546514"><ele>641.6</ele><time>2026-05-01T07:44:48Z</time></trkpt><trkpt lat="39.3850121698382" lon="-3.3672723383432035"><ele>641.8</ele><time>2026-05-01T07:44:49Z</time></trkpt><trkpt lat="39.38492952969245" lon="-3.3672645266703887"><ele>642.0</ele><time>2026-05-01T07:44:50Z</time></trkpt><trkpt lat="39.38486333506041" lon="-3.3672565698645194"><ele>642.0</ele><time>2026-05-01T07:44:51Z</time></trkpt><trkpt lat="39.384799897105545" lon="-3.3672477516804395"><ele>642.0</ele><time>2026-05-01T07:44:52Z</time></trkpt><trkpt lat="39.384707334547976" lon="-3.367231759405338"><ele>642.0</ele><time>2026-05-01T07:44:54Z</time></trkpt><trkpt lat="39.38464379734443" lon="-3.367220583736705"><ele>642.0</ele><time>2026-05-01T07:44:58Z</time></trkpt><trkpt lat="39.38457263602347" lon="-3.367201600262067"><ele>642.0</ele><time>2026-05-01T07:47:23Z</time></trkpt><trkpt lat="39.384497731020716" lon="-3.3671846282058797"><ele>642.0</ele><time>2026-05-01T07:47:24Z</time></trkpt><trkpt lat="39.38441550609071" lon="-3.3671691130020354"><ele>641.8</ele><time>2026-05-01T07:47:25Z</time></trkpt><trkpt lat="39.38431488533179" lon="-3.367141448320708"><ele>641.6</ele><time>2026-05-01T07:47:26Z</time></trkpt><trkpt lat="39.38421769144005" lon="-3.36710988239567"><ele>641.4</ele><time>2026-05-01T07:47:27Z</time></trkpt><trkpt lat="39.38410511017193" lon="-3.3670757369684474"><ele>641.1999999999999</ele><time>2026-05-01T07:47:28Z</time></trkpt><trkpt lat="39.38400503316318" lon="-3.367045384018296"><ele>641.0</ele><time>2026-05-01T07:47:29Z</time></trkpt><trkpt lat="39.383908305125544" lon="-3.367016046808348"><ele>641.1999999999999</ele><time>2026-05-01T07:47:30Z</time></trkpt><trkpt lat="39.38381142509894" lon="-3.3669838535964067"><ele>641.4</ele><time>2026-05-01T07:47:31Z</time></trkpt><trkpt lat="39.38370812475812" lon="-3.3669472015753246"><ele>641.6</ele><time>2026-05-01T07:47:32Z</time></trkpt><trkpt lat="39.38360649239427" lon="-3.3669081392375966"><ele>641.8</ele><time>2026-05-01T07:47:32.999Z</time></trkpt><trkpt lat="39.38349992541187" lon="-3.3668671802864774"><ele>642.0</ele><time>2026-05-01T07:47:33.999Z</time></trkpt><trkpt lat="39.38338820579713" lon="-3.3668203489487323"><ele>642.0</ele><time>2026-05-01T07:47:34.999Z</time></trkpt><trkpt lat="39.383268190216675" lon="-3.3667682092263598"><ele>642.0</ele><time>2026-05-01T07:47:35.999Z</time></trkpt><trkpt lat="39.38314588804887" lon="-3.366713528603065"><ele>642.0</ele><time>2026-05-01T07:47:36.999Z</time></trkpt><trkpt lat="39.3830196158556" lon="-3.3666557539881103"><ele>642.0</ele><time>2026-05-01T07:47:37.999Z</time></trkpt><trkpt lat="39.382889459786064" lon="-3.366592166631535"><ele>642.0</ele><time>2026-05-01T07:47:38.999Z</time></trkpt><trkpt lat="39.38275699383486" lon="-3.366524190369748"><ele>642.0</ele><time>2026-05-01T07:47:39.999Z</time></trkpt><trkpt lat="39.38262323222652" lon="-3.3664519500707164"><ele>642.0</ele><time>2026-05-01T07:47:40.999Z</time></trkpt><trkpt lat="39.382481739407886" lon="-3.366373175251479"><ele>642.0</ele><time>2026-05-01T07:47:41.999Z</time></trkpt><trkpt lat="39.382321625324415" lon="-3.366278780818558"><ele>641.6666666666666</ele><time>2026-05-01T07:47:42.999Z</time></trkpt><trkpt lat="39.38214440571526" lon="-3.3661699214825758"><ele>641.3333333333333</ele><time>2026-05-01T07:47:43.999Z</time></trkpt><trkpt lat="39.38194917257256" lon="-3.366049775893292"><ele>641.0</ele><time>2026-05-01T07:47:44.999Z</time></trkpt><trkpt lat="39.38178064523164" lon="-3.365946064702722"><ele>641.0</ele><time>2026-05-01T07:47:45.999Z</time></trkpt><trkpt lat="39.38162223927409" lon="-3.365848580957247"><ele>641.0</ele><time>2026-05-01T07:47:46.999Z</time></trkpt><trkpt lat="39.381470736036945" lon="-3.365748315366342"><ele>641.0</ele><time>2026-05-01T07:47:47.999Z</time></trkpt><trkpt lat="39.38131883877321" lon="-3.3656231519306887"><ele>641.3333333333333</ele><time>2026-05-01T07:47:48.999Z</time></trkpt><trkpt lat="39.38117618599582" lon="-3.36547745457414"><ele>641.6666666666666</ele><time>2026-05-01T07:47:49.999Z</time></trkpt><trkpt lat="39.38104108257778" lon="-3.3653252891355416"><ele>642.0</ele><time>2026-05-01T07:47:50.999Z</time></trkpt><trkpt lat="39.380907340101324" lon="-3.3651642014385628"><ele>642.0</ele><time>2026-05-01T07:47:51.999Z</time></trkpt><trkpt lat="39.3807752514282" lon="-3.364996367162787"><ele>642.0</ele><time>2026-05-01T07:47:52.999Z</time></trkpt><trkpt lat="39.38064038853563" lon="-3.3647914428055734"><ele>642.0</ele><time>2026-05-01T07:47:53.999Z</time></trkpt><trkpt lat="39.38047981695651" lon="-3.364611201857365"><ele>642.3333333333334</ele><time>2026-05-01T07:47:54.999Z</time></trkpt><trkpt lat="39.380336440274505" lon="-3.3644280339622923"><ele>642.6666666666667</ele><time>2026-05-01T07:47:55.999Z</time></trkpt><trkpt lat="39.380186439514446" lon="-3.3642593054327183"><ele>643.0</ele><time>2026-05-01T07:47:56.999Z</time></trkpt><trkpt lat="39.3800379630228" lon="-3.364107669668737"><ele>643.0</ele><time>2026-05-01T07:47:57.999Z</time></trkpt><trkpt lat="39.37990031515922" lon="-3.3639828030182892"><ele>643.0</ele><time>2026-05-01T07:47:58.999Z</time></trkpt><trkpt lat="39.37976079907307" lon="-3.3638649592935614"><ele>643.0</ele><time>2026-05-01T07:47:59.999Z</time></trkpt><trkpt lat="39.37959176084206" lon="-3.3637202553491092"><ele>642.6666666666667</ele><time>2026-05-01T07:48:00.999Z</time></trkpt><trkpt lat="39.37945758111472" lon="-3.363604529070312"><ele>642.3333333333334</ele><time>2026-05-01T07:48:01.999Z</time></trkpt><trkpt lat="39.379320396020006" lon="-3.363490068521305"><ele>642.0</ele><time>2026-05-01T07:48:02.999Z</time></trkpt><trkpt lat="39.379186484607985" lon="-3.363386091440181"><ele>642.0</ele><time>2026-05-01T07:48:03.999Z</time></trkpt><trkpt lat="39.379052420135174" lon="-3.3632849185335183"><ele>642.0</ele><time>2026-05-01T07:48:04.999Z</time></trkpt><trkpt lat="39.37892163899705" lon="-3.3632040874839464"><ele>642.0</ele><time>2026-05-01T07:48:05.999Z</time></trkpt><trkpt lat="39.37878944677431" lon="-3.363128307793943"><ele>642.0</ele><time>2026-05-01T07:48:06.999Z</time></trkpt><trkpt lat="39.378647644543726" lon="-3.363051521737457"><ele>641.3333333333334</ele><time>2026-05-01T07:48:07.999Z</time></trkpt><trkpt lat="39.378496475416156" lon="-3.362972891138338"><ele>640.6666666666667</ele><time>2026-05-01T07:48:08.999Z</time></trkpt><trkpt lat="39.37832046569021" lon="-3.3628813395682675"><ele>640.0</ele><time>2026-05-01T07:48:09.999Z</time></trkpt><trkpt lat="39.378116498567316" lon="-3.3627636244802512"><ele>640.0</ele><time>2026-05-01T07:48:10.999Z</time></trkpt><trkpt lat="39.37792688821259" lon="-3.3626333570325957"><ele>640.0</ele><time>2026-05-01T07:48:11.999Z</time></trkpt><trkpt lat="39.37774760804673" lon="-3.3624843682712844"><ele>640.0</ele><time>2026-05-01T07:48:12.999Z</time></trkpt><trkpt lat="39.37756510868872" lon="-3.3623060890476717"><ele>640.3333333333334</ele><time>2026-05-01T07:48:13.999Z</time></trkpt><trkpt lat="39.377357056457335" lon="-3.362158925451357"><ele>640.6666666666666</ele><time>2026-05-01T07:48:14.999Z</time></trkpt><trkpt lat="39.37718639829443" lon="-3.3620184286248724"><ele>641.0</ele><time>2026-05-01T07:48:16.001Z</time></trkpt><trkpt lat="39.37703316593574" lon="-3.361898568614796"><ele>641.25</ele><time>2026-05-01T07:48:17.001Z</time></trkpt><trkpt lat="39.376901678158866" lon="-3.3618021980685486"><ele>641.5</ele><time>2026-05-01T07:48:18.001Z</time></trkpt><trkpt lat="39.37678075156662" lon="-3.3617169468967405"><ele>641.75</ele><time>2026-05-01T07:48:19.001Z</time></trkpt><trkpt lat="39.37666917173052" lon="-3.36164247398733"><ele>642.0</ele><time>2026-05-01T07:48:20.001Z</time></trkpt><trkpt lat="39.37656635986534" lon="-3.3615747732356422"><ele>642.0</ele><time>2026-05-01T07:48:21.001Z</time></trkpt><trkpt lat="39.37646919059494" lon="-3.3615137969813658"><ele>642.0</ele><time>2026-05-01T07:48:22.001Z</time></trkpt><trkpt lat="39.37639418731235" lon="-3.36146673040545"><ele>642.0</ele><time>2026-05-01T07:48:23.001Z</time></trkpt><trkpt lat="39.37631576706851" lon="-3.3614175195924436"><ele>642.0</ele><time>2026-05-01T07:48:24.001Z</time></trkpt><trkpt lat="39.37624437400251" lon="-3.3613715581294255"><ele>642.0</ele><time>2026-05-01T07:48:25.001Z</time></trkpt><trkpt lat="39.37618777250605" lon="-3.361311877925695"><ele>642.0</ele><time>2026-05-01T07:48:26.001Z</time></trkpt><trkpt lat="39.376124714886714" lon="-3.3612848733402645"><ele>642.1666666666666</ele><time>2026-05-01T07:48:27Z</time></trkpt><trkpt lat="39.37606809811591" lon="-3.361241464672001"><ele>642.3333333333334</ele><time>2026-05-01T07:48:28Z</time></trkpt><trkpt lat="39.375995663238676" lon="-3.3612022123291045"><ele>642.5</ele><time>2026-05-01T07:48:29Z</time></trkpt><trkpt lat="39.37592283633658" lon="-3.3611592747176156"><ele>642.6666666666667</ele><time>2026-05-01T07:48:30Z</time></trkpt><trkpt lat="39.37584368439785" lon="-3.361102928990851"><ele>642.8333333333334</ele><time>2026-05-01T07:48:31Z</time></trkpt><trkpt lat="39.37576295957449" lon="-3.3610480520376163"><ele>643.0</ele><time>2026-05-01T07:48:32Z</time></trkpt><trkpt lat="39.37565536764953" lon="-3.3610016867952845"><ele>643.0</ele><time>2026-05-01T07:48:33Z</time></trkpt><trkpt lat="39.3755457822258" lon="-3.360933651253221"><ele>643.0</ele><time>2026-05-01T07:48:34Z</time></trkpt><trkpt lat="39.3754355182767" lon="-3.360865202514246"><ele>643.0</ele><time>2026-05-01T07:48:35Z</time></trkpt><trkpt lat="39.37532094763689" lon="-3.360794080338989"><ele>643.0</ele><time>2026-05-01T07:48:36Z</time></trkpt><trkpt lat="39.37520425506639" lon="-3.360721640906665"><ele>643.0</ele><time>2026-05-01T07:48:37Z</time></trkpt><trkpt lat="39.375082028370095" lon="-3.36064576609923"><ele>643.0</ele><time>2026-05-01T07:48:38Z</time></trkpt><trkpt lat="39.374961779439836" lon="-3.360567955275279"><ele>643.0</ele><time>2026-05-01T07:48:39Z</time></trkpt><trkpt lat="39.37484087232409" lon="-3.3604894144451913"><ele>643.0</ele><time>2026-05-01T07:48:40Z</time></trkpt><trkpt lat="39.37472157549164" lon="-3.360410220961161"><ele>643.25</ele><time>2026-05-01T07:48:41Z</time></trkpt><trkpt lat="39.37460266405022" lon="-3.3603311092427557"><ele>643.5</ele><time>2026-05-01T07:48:42Z</time></trkpt><trkpt lat="39.37448150144287" lon="-3.360250089368107"><ele>643.75</ele><time>2026-05-01T07:48:43Z</time></trkpt><trkpt lat="39.37436283511413" lon="-3.3601702985134314"><ele>644.0</ele><time>2026-05-01T07:48:44Z</time></trkpt><trkpt lat="39.37424984301499" lon="-3.3600943229812024"><ele>644.0</ele><time>2026-05-01T07:48:45Z</time></trkpt><trkpt lat="39.37413361331017" lon="-3.360017162530714"><ele>644.0</ele><time>2026-05-01T07:48:46Z</time></trkpt><trkpt lat="39.37402409743955" lon="-3.359946326714435"><ele>644.0</ele><time>2026-05-01T07:48:47Z</time></trkpt><trkpt lat="39.373917719378575" lon="-3.3598725857964276"><ele>644.0</ele><time>2026-05-01T07:48:48Z</time></trkpt><trkpt lat="39.37381801271021" lon="-3.3598007644258945"><ele>644.0</ele><time>2026-05-01T07:48:49Z</time></trkpt><trkpt lat="39.37371892131838" lon="-3.359727226510702"><ele>644.0</ele><time>2026-05-01T07:48:50Z</time></trkpt><trkpt lat="39.373629542208356" lon="-3.3596573948621056"><ele>644.0</ele><time>2026-05-01T07:48:51Z</time></trkpt><trkpt lat="39.373543853226884" lon="-3.359567618864987"><ele>644.0</ele><time>2026-05-01T07:48:52Z</time></trkpt><trkpt lat="39.373452685841315" lon="-3.3594987429273324"><ele>644.0</ele><time>2026-05-01T07:48:53Z</time></trkpt><trkpt lat="39.373369427340315" lon="-3.3594211445445206"><ele>644.0</ele><time>2026-05-01T07:48:54Z</time></trkpt><trkpt lat="39.37327645474521" lon="-3.3593535982938896"><ele>644.0</ele><time>2026-05-01T07:48:55Z</time></trkpt><trkpt lat="39.37318309804352" lon="-3.3592778166691453"><ele>644.0</ele><time>2026-05-01T07:48:56Z</time></trkpt><trkpt lat="39.373094066455494" lon="-3.359206325594369"><ele>644.0</ele><time>2026-05-01T07:48:57Z</time></trkpt><trkpt lat="39.37300552537602" lon="-3.3591320678679955"><ele>644.0</ele><time>2026-05-01T07:48:58Z</time></trkpt><trkpt lat="39.3728930093592" lon="-3.359051890035056"><ele>644.0</ele><time>2026-05-01T07:48:59Z</time></trkpt><trkpt lat="39.37278009265516" lon="-3.3589624263071394"><ele>644.0</ele><time>2026-05-01T07:49:00Z</time></trkpt><trkpt lat="39.372669508485025" lon="-3.358875411440679"><ele>644.0</ele><time>2026-05-01T07:49:01Z</time></trkpt><trkpt lat="39.372564233729584" lon="-3.358779608126826"><ele>644.0</ele><time>2026-05-01T07:49:02Z</time></trkpt><trkpt lat="39.37245989651127" lon="-3.358684657992258"><ele>643.75</ele><time>2026-05-01T07:49:03Z</time></trkpt><trkpt lat="39.37236377976684" lon="-3.3585971881596453"><ele>643.5</ele><time>2026-05-01T07:49:04Z</time></trkpt><trkpt lat="39.372274067191334" lon="-3.3585154147396716"><ele>643.25</ele><time>2026-05-01T07:49:05Z</time></trkpt><trkpt lat="39.37218464047798" lon="-3.358433824058824"><ele>643.0</ele><time>2026-05-01T07:49:06Z</time></trkpt><trkpt lat="39.372090467728306" lon="-3.358346078898852"><ele>643.2</ele><time>2026-05-01T07:49:07Z</time></trkpt><trkpt lat="39.372006503424174" lon="-3.3582469121897613"><ele>643.4</ele><time>2026-05-01T07:49:08Z</time></trkpt><trkpt lat="39.371919681698124" lon="-3.3581771519281736"><ele>643.6</ele><time>2026-05-01T07:49:09Z</time></trkpt><trkpt lat="39.37183881863237" lon="-3.3580959078896195"><ele>643.8000000000001</ele><time>2026-05-01T07:49:10Z</time></trkpt><trkpt lat="39.37175275973148" lon="-3.358035083427357"><ele>644.0</ele><time>2026-05-01T07:49:11Z</time></trkpt><trkpt lat="39.37166399026924" lon="-3.357934121784144"><ele>644.0</ele><time>2026-05-01T07:49:12Z</time></trkpt><trkpt lat="39.37157463952474" lon="-3.357859007404372"><ele>644.0</ele><time>2026-05-01T07:49:13Z</time></trkpt><trkpt lat="39.37150640830391" lon="-3.357794838338502"><ele>644.0</ele><time>2026-05-01T07:49:14Z</time></trkpt><trkpt lat="39.37143360430316" lon="-3.357738156800435"><ele>644.0</ele><time>2026-05-01T07:49:15Z</time></trkpt><trkpt lat="39.371365552388895" lon="-3.3576735632267023"><ele>644.0</ele><time>2026-05-01T07:49:16Z</time></trkpt><trkpt lat="39.37129297477001" lon="-3.3576032762132053"><ele>644.3333333333333</ele><time>2026-05-01T07:49:17Z</time></trkpt><trkpt lat="39.3712232857969" lon="-3.3575316014960865"><ele>644.6666666666666</ele><time>2026-05-01T07:49:18Z</time></trkpt><trkpt lat="39.37115752309397" lon="-3.357464361335178"><ele>645.0</ele><time>2026-05-01T07:49:18.999Z</time></trkpt><trkpt lat="39.37108880861008" lon="-3.357405215435636"><ele>645.3333333333334</ele><time>2026-05-01T07:49:19.999Z</time></trkpt><trkpt lat="39.37102166971563" lon="-3.3573538854420586"><ele>645.6666666666667</ele><time>2026-05-01T07:49:20.999Z</time></trkpt><trkpt lat="39.370931166048884" lon="-3.3573239781301116"><ele>646.0</ele><time>2026-05-01T07:49:22.999Z</time></trkpt><trkpt lat="39.37086821290392" lon="-3.3573172412876295"><ele>646.0</ele><time>2026-05-01T07:49:24.999Z</time></trkpt><trkpt lat="39.37079144348076" lon="-3.3572809459734336"><ele>646.0</ele><time>2026-05-01T07:49:26.999Z</time></trkpt><trkpt lat="39.37074932830832" lon="-3.357154260053036"><ele>646.0</ele><time>2026-05-01T07:49:27.999Z</time></trkpt><trkpt lat="39.37070817750515" lon="-3.357070211020622"><ele>646.0</ele><time>2026-05-01T07:49:28.999Z</time></trkpt><trkpt lat="39.37065935839977" lon="-3.3569794623921476"><ele>646.0</ele><time>2026-05-01T07:49:29.999Z</time></trkpt><trkpt lat="39.37059991877324" lon="-3.3568725947814935"><ele>646.0</ele><time>2026-05-01T07:49:30.999Z</time></trkpt><trkpt lat="39.37053496225718" lon="-3.3567601515405"><ele>646.0</ele><time>2026-05-01T07:49:31.999Z</time></trkpt><trkpt lat="39.37046151473082" lon="-3.356636817091936"><ele>646.0</ele><time>2026-05-01T07:49:32.999Z</time></trkpt><trkpt lat="39.370389703531366" lon="-3.356516230486317"><ele>646.0</ele><time>2026-05-01T07:49:33.999Z</time></trkpt><trkpt lat="39.37032270875491" lon="-3.3564023965736136"><ele>645.4</ele><time>2026-05-01T07:49:34.999Z</time></trkpt><trkpt lat="39.370259552774804" lon="-3.356295035396672"><ele>644.8</ele><time>2026-05-01T07:49:35.999Z</time></trkpt><trkpt lat="39.37019320499485" lon="-3.3561875793693123"><ele>644.1999999999999</ele><time>2026-05-01T07:49:36.999Z</time></trkpt><trkpt lat="39.37011841214868" lon="-3.3560793042282295"><ele>643.5999999999999</ele><time>2026-05-01T07:49:37.999Z</time></trkpt><trkpt lat="39.37003946709965" lon="-3.3559727914668045"><ele>643.0</ele><time>2026-05-01T07:49:38.999Z</time></trkpt><trkpt lat="39.36995480307852" lon="-3.355861480885895"><ele>643.0</ele><time>2026-05-01T07:49:39.999Z</time></trkpt><trkpt lat="39.369877237237326" lon="-3.3557594191637423"><ele>643.0</ele><time>2026-05-01T07:49:40.999Z</time></trkpt><trkpt lat="39.36980494437198" lon="-3.355664295642456"><ele>643.0</ele><time>2026-05-01T07:49:41.999Z</time></trkpt><trkpt lat="39.36973326262839" lon="-3.35556997627832"><ele>643.0</ele><time>2026-05-01T07:49:42.999Z</time></trkpt><trkpt lat="39.369667258321314" lon="-3.3554831272766927"><ele>643.0</ele><time>2026-05-01T07:49:43.999Z</time></trkpt><trkpt lat="39.36960184251146" lon="-3.355397052691696"><ele>643.1666666666667</ele><time>2026-05-01T07:49:44.999Z</time></trkpt><trkpt lat="39.36954093358617" lon="-3.355309076767012"><ele>643.3333333333334</ele><time>2026-05-01T07:49:45.999Z</time></trkpt><trkpt lat="39.369481040848264" lon="-3.3552303418556475"><ele>643.5</ele><time>2026-05-01T07:49:46.999Z</time></trkpt><trkpt lat="39.369427650247076" lon="-3.3551615430971857"><ele>643.6666666666666</ele><time>2026-05-01T07:49:47.999Z</time></trkpt><trkpt lat="39.36938176003181" lon="-3.3551038917762908"><ele>643.8333333333333</ele><time>2026-05-01T07:49:48.999Z</time></trkpt><trkpt lat="39.36933663395368" lon="-3.355035552897512"><ele>644.0</ele><time>2026-05-01T07:49:50.999Z</time></trkpt><trkpt lat="39.36938827906441" lon="-3.354922643125273"><ele>644.0</ele><time>2026-05-01T07:49:53.999Z</time></trkpt><trkpt lat="39.36945819354774" lon="-3.3548813564124274"><ele>644.0</ele><time>2026-05-01T07:49:54.999Z</time></trkpt><trkpt lat="39.369559905965026" lon="-3.3548248508332814"><ele>644.0</ele><time>2026-05-01T07:49:55.999Z</time></trkpt><trkpt lat="39.36965884096705" lon="-3.3547753962024904"><ele>644.0</ele><time>2026-05-01T07:49:56.999Z</time></trkpt><trkpt lat="39.36975370716973" lon="-3.354746218437254"><ele>644.0</ele><time>2026-05-01T07:49:57.999Z</time></trkpt><trkpt lat="39.369842549330286" lon="-3.354753296787071"><ele>643.5</ele><time>2026-05-01T07:49:58.999Z</time></trkpt><trkpt lat="39.369927609948526" lon="-3.354763871061319"><ele>643.0</ele><time>2026-05-01T07:49:59.999Z</time></trkpt><trkpt lat="39.37002996992739" lon="-3.3548182337654944"><ele>642.5</ele><time>2026-05-01T07:50:00.999Z</time></trkpt><trkpt lat="39.37016676291095" lon="-3.354883647916821"><ele>642.0</ele><time>2026-05-01T07:50:01.999Z</time></trkpt><trkpt lat="39.3703037142478" lon="-3.3549384154645585"><ele>642.0</ele><time>2026-05-01T07:50:02.999Z</time></trkpt><trkpt lat="39.370415479369576" lon="-3.3550031527827717"><ele>642.0</ele><time>2026-05-01T07:50:03.999Z</time></trkpt><trkpt lat="39.37053121148412" lon="-3.355036574025707"><ele>642.0</ele><time>2026-05-01T07:50:04.999Z</time></trkpt><trkpt lat="39.370664941744934" lon="-3.3550348961738377"><ele>642.0</ele><time>2026-05-01T07:50:05.999Z</time></trkpt><trkpt lat="39.37078818548116" lon="-3.355041560234858"><ele>642.5</ele><time>2026-05-01T07:50:06.999Z</time></trkpt><trkpt lat="39.370902035845866" lon="-3.355052194690984"><ele>643.0</ele><time>2026-05-01T07:50:07.999Z</time></trkpt><trkpt lat="39.37099369504732" lon="-3.355058099601547"><ele>643.5</ele><time>2026-05-01T07:50:08.999Z</time></trkpt><trkpt lat="39.37106214300017" lon="-3.355058103142094"><ele>644.0</ele><time>2026-05-01T07:50:09.999Z</time></trkpt><trkpt lat="39.37112933982143" lon="-3.355066767997499"><ele>644.5</ele><time>2026-05-01T07:50:11.999Z</time></trkpt><trkpt lat="39.37115541614731" lon="-3.3549824782778006"><ele>645.0</ele><time>2026-05-01T07:50:14.999Z</time></trkpt><trkpt lat="39.37115783854896" lon="-3.3548587061802384"><ele>645.0</ele><time>2026-05-01T07:50:15.999Z</time></trkpt><trkpt lat="39.37116074943348" lon="-3.3547099747468034"><ele>645.0</ele><time>2026-05-01T07:50:16.999Z</time></trkpt><trkpt lat="39.37116357022317" lon="-3.3545658467495523"><ele>645.0</ele><time>2026-05-01T07:50:17.999Z</time></trkpt><trkpt lat="39.37116770046613" lon="-3.3543934220999665"><ele>645.0</ele><time>2026-05-01T07:50:18.999Z</time></trkpt><trkpt lat="39.37117343978574" lon="-3.3542128555684827"><ele>644.8</ele><time>2026-05-01T07:50:19.999Z</time></trkpt><trkpt lat="39.37117925914727" lon="-3.3540451934944264"><ele>644.6</ele><time>2026-05-01T07:50:20.999Z</time></trkpt><trkpt lat="39.37118030329204" lon="-3.3538943963523007"><ele>644.4000000000001</ele><time>2026-05-01T07:50:22Z</time></trkpt><trkpt lat="39.371173422715124" lon="-3.3537632481794835"><ele>644.2</ele><time>2026-05-01T07:50:23Z</time></trkpt><trkpt lat="39.3711618071204" lon="-3.3536407130590615"><ele>644.0</ele><time>2026-05-01T07:50:24Z</time></trkpt><trkpt lat="39.37114825785561" lon="-3.35352732844859"><ele>643.4000000000001</ele><time>2026-05-01T07:50:25Z</time></trkpt><trkpt lat="39.37113248626497" lon="-3.3534071021805856"><ele>642.8</ele><time>2026-05-01T07:50:26Z</time></trkpt><trkpt lat="39.371117356201026" lon="-3.3533029641934253"><ele>642.2</ele><time>2026-05-01T07:50:27Z</time></trkpt><trkpt lat="39.37110394495966" lon="-3.3532128379960517"><ele>641.5999999999999</ele><time>2026-05-01T07:50:28Z</time></trkpt><trkpt lat="39.371091550668766" lon="-3.353094663084076"><ele>641.0</ele><time>2026-05-01T07:50:30Z</time></trkpt><trkpt lat="39.370932271418006" lon="-3.353049916005376"><ele>641.0</ele><time>2026-05-01T07:50:33Z</time></trkpt><trkpt lat="39.37081457815143" lon="-3.353051015191116"><ele>641.0</ele><time>2026-05-01T07:50:34Z</time></trkpt><trkpt lat="39.37071452403084" lon="-3.3530519496402613"><ele>641.0</ele><time>2026-05-01T07:50:35Z</time></trkpt><trkpt lat="39.370620895391255" lon="-3.3530528240750948"><ele>641.0</ele><time>2026-05-01T07:50:36Z</time></trkpt><trkpt lat="39.370531750579204" lon="-3.353053656636207"><ele>641.0</ele><time>2026-05-01T07:50:37Z</time></trkpt><trkpt lat="39.37042932856282" lon="-3.35305461319574"><ele>641.4</ele><time>2026-05-01T07:50:38Z</time></trkpt><trkpt lat="39.37031478875873" lon="-3.353055682930039"><ele>641.8</ele><time>2026-05-01T07:50:39Z</time></trkpt><trkpt lat="39.37019818552431" lon="-3.353039217054312"><ele>642.1999999999999</ele><time>2026-05-01T07:50:40Z</time></trkpt><trkpt lat="39.37008646635986" lon="-3.3530432249165503"><ele>642.5999999999999</ele><time>2026-05-01T07:50:41Z</time></trkpt><trkpt lat="39.369992560096556" lon="-3.35304120741996"><ele>643.0</ele><time>2026-05-01T07:50:42Z</time></trkpt><trkpt lat="39.36990557258572" lon="-3.353046525462762"><ele>643.0</ele><time>2026-05-01T07:50:43Z</time></trkpt><trkpt lat="39.36982631189551" lon="-3.3530587169635284"><ele>643.0</ele><time>2026-05-01T07:50:44Z</time></trkpt><trkpt lat="39.36974923162747" lon="-3.353059432294045"><ele>643.0</ele><time>2026-05-01T07:50:45Z</time></trkpt><trkpt lat="39.36966669285649" lon="-3.353066678942935"><ele>643.0</ele><time>2026-05-01T07:50:46Z</time></trkpt><trkpt lat="39.36959048933472" lon="-3.3530724040032376"><ele>643.0</ele><time>2026-05-01T07:50:47Z</time></trkpt><trkpt lat="39.36952508741939" lon="-3.353085059848479"><ele>643.0</ele><time>2026-05-01T07:50:48Z</time></trkpt><trkpt lat="39.36945340022997" lon="-3.3531121150879786"><ele>642.8333333333334</ele><time>2026-05-01T07:50:49Z</time></trkpt><trkpt lat="39.36935235753024" lon="-3.3531609008772447"><ele>642.6666666666667</ele><time>2026-05-01T07:50:51Z</time></trkpt><trkpt lat="39.36928022938016" lon="-3.353187690429792"><ele>642.5</ele><time>2026-05-01T07:50:53Z</time></trkpt><trkpt lat="39.36919591575188" lon="-3.3531991268029566"><ele>642.3333333333334</ele><time>2026-05-01T07:50:55Z</time></trkpt><trkpt lat="39.369138972240954" lon="-3.3532454896274984"><ele>642.1666666666666</ele><time>2026-05-01T07:50:56Z</time></trkpt><trkpt lat="39.369057053514254" lon="-3.3532460085960256"><ele>642.0</ele><time>2026-05-01T07:50:57Z</time></trkpt><trkpt lat="39.36897318597847" lon="-3.353313487082132"><ele>642.0</ele><time>2026-05-01T07:50:58Z</time></trkpt><trkpt lat="39.36889289117795" lon="-3.3533649883576833"><ele>642.0</ele><time>2026-05-01T07:50:59Z</time></trkpt><trkpt lat="39.36881956924323" lon="-3.3534234617249297"><ele>642.0</ele><time>2026-05-01T07:51:00Z</time></trkpt><trkpt lat="39.36875642134379" lon="-3.353480679370816"><ele>642.0</ele><time>2026-05-01T07:51:01Z</time></trkpt><trkpt lat="39.368706234751315" lon="-3.3535372591458255"><ele>642.0</ele><time>2026-05-01T07:51:02Z</time></trkpt><trkpt lat="39.36866844559688" lon="-3.3536036019751645"><ele>642.0</ele><time>2026-05-01T07:51:03Z</time></trkpt><trkpt lat="39.368578221230166" lon="-3.353672237796443"><ele>642.5</ele><time>2026-05-01T07:51:05Z</time></trkpt><trkpt lat="39.368478051993655" lon="-3.353622601642375"><ele>643.0</ele><time>2026-05-01T07:51:07Z</time></trkpt><trkpt lat="39.36841134263307" lon="-3.3535992714409697"><ele>643.5</ele><time>2026-05-01T07:51:08Z</time></trkpt><trkpt lat="39.36833547836455" lon="-3.353604900572595"><ele>644.0</ele><time>2026-05-01T07:51:09Z</time></trkpt><trkpt lat="39.36825261001489" lon="-3.3536341295861116"><ele>644.5</ele><time>2026-05-01T07:51:10Z</time></trkpt><trkpt lat="39.36815985465449" lon="-3.353666232586475"><ele>645.0</ele><time>2026-05-01T07:51:11Z</time></trkpt><trkpt lat="39.3680857408619" lon="-3.3536914430250184"><ele>645.0</ele><time>2026-05-01T07:51:12Z</time></trkpt><trkpt lat="39.36801407067542" lon="-3.3537184070739676"><ele>645.0</ele><time>2026-05-01T07:51:13Z</time></trkpt><trkpt lat="39.36795165829011" lon="-3.353746824785732"><ele>645.0</ele><time>2026-05-01T07:51:13.999Z</time></trkpt><trkpt lat="39.36786164347435" lon="-3.3537791461127964"><ele>645.0</ele><time>2026-05-01T07:51:14.999Z</time></trkpt><trkpt lat="39.36776562684713" lon="-3.353804874198171"><ele>645.0</ele><time>2026-05-01T07:51:15.999Z</time></trkpt><trkpt lat="39.367669923529306" lon="-3.3538362708513443"><ele>645.0</ele><time>2026-05-01T07:51:16.999Z</time></trkpt><trkpt lat="39.367583510536036" lon="-3.3538703799133285"><ele>645.0</ele><time>2026-05-01T07:51:17.999Z</time></trkpt><trkpt lat="39.367502918954614" lon="-3.3539225780134174"><ele>645.0</ele><time>2026-05-01T07:51:18.999Z</time></trkpt><trkpt lat="39.36741086746341" lon="-3.353961533382366"><ele>645.0</ele><time>2026-05-01T07:51:19.999Z</time></trkpt><trkpt lat="39.36729642362163" lon="-3.3539872276251335"><ele>645.0</ele><time>2026-05-01T07:51:20.999Z</time></trkpt><trkpt lat="39.3671842424106" lon="-3.3540250986813405"><ele>645.0</ele><time>2026-05-01T07:51:21.999Z</time></trkpt><trkpt lat="39.36708278968635" lon="-3.3540448020756113"><ele>645.1666666666666</ele><time>2026-05-01T07:51:22.999Z</time></trkpt><trkpt lat="39.366999879993294" lon="-3.3540561568426717"><ele>645.3333333333334</ele><time>2026-05-01T07:51:23.999Z</time></trkpt><trkpt lat="39.36692389402808" lon="-3.3540718800439486"><ele>645.5</ele><time>2026-05-01T07:51:24.999Z</time></trkpt><trkpt lat="39.36685488693142" lon="-3.3540861342336177"><ele>645.6666666666667</ele><time>2026-05-01T07:51:25.999Z</time></trkpt><trkpt lat="39.36675925709106" lon="-3.3540805450423523"><ele>645.8333333333334</ele><time>2026-05-01T07:51:26.999Z</time></trkpt><trkpt lat="39.3666720392559" lon="-3.354077902091376"><ele>646.0</ele><time>2026-05-01T07:51:27.999Z</time></trkpt><trkpt lat="39.36660153324464" lon="-3.354083020234488"><ele>646.0</ele><time>2026-05-01T07:51:28.999Z</time></trkpt><trkpt lat="39.366474636932324" lon="-3.3541382134200974"><ele>646.0</ele><time>2026-05-01T07:51:30.999Z</time></trkpt><trkpt lat="39.36637794604918" lon="-3.3541556699626924"><ele>646.0</ele><time>2026-05-01T07:51:31.999Z</time></trkpt><trkpt lat="39.36628843662921" lon="-3.354210865295466"><ele>646.0</ele><time>2026-05-01T07:51:32.999Z</time></trkpt><trkpt lat="39.366191508995946" lon="-3.354237163299079"><ele>646.0</ele><time>2026-05-01T07:51:33.999Z</time></trkpt><trkpt lat="39.366104105741016" lon="-3.354300782561374"><ele>646.1999999999999</ele><time>2026-05-01T07:51:34.999Z</time></trkpt><trkpt lat="39.36602104526101" lon="-3.354351455201783"><ele>646.4</ele><time>2026-05-01T07:51:35.999Z</time></trkpt><trkpt lat="39.36593503050596" lon="-3.3544060018412836"><ele>646.6</ele><time>2026-05-01T07:51:36.999Z</time></trkpt><trkpt lat="39.36584714657355" lon="-3.354454871687225"><ele>646.8</ele><time>2026-05-01T07:51:37.999Z</time></trkpt><trkpt lat="39.36575741991527" lon="-3.35449844525191"><ele>647.0</ele><time>2026-05-01T07:51:38.999Z</time></trkpt><trkpt lat="39.365681495669136" lon="-3.3545253716414263"><ele>647.0</ele><time>2026-05-01T07:51:39.999Z</time></trkpt><trkpt lat="39.36558630666017" lon="-3.3545725911100854"><ele>647.0</ele><time>2026-05-01T07:51:41.999Z</time></trkpt><trkpt lat="39.36548673391363" lon="-3.3546380437543726"><ele>647.0</ele><time>2026-05-01T07:51:43.999Z</time></trkpt><trkpt lat="39.365425829659614" lon="-3.3546639722992615"><ele>647.0</ele><time>2026-05-01T07:51:44.999Z</time></trkpt><trkpt lat="39.365360251674495" lon="-3.35470490674408"><ele>647.0</ele><time>2026-05-01T07:51:45.999Z</time></trkpt><trkpt lat="39.36530053601843" lon="-3.35473179189887"><ele>647.0</ele><time>2026-05-01T07:51:46.999Z</time></trkpt><trkpt lat="39.365175509660325" lon="-3.3548013153299565"><ele>647.8</ele><time>2026-05-01T07:51:48.999Z</time></trkpt><trkpt lat="39.36503592635523" lon="-3.3548772399682343"><ele>648.6</ele><time>2026-05-01T07:51:50.999Z</time></trkpt><trkpt lat="39.36493361737231" lon="-3.3549329275861948"><ele>649.4</ele><time>2026-05-01T07:51:51.999Z</time></trkpt><trkpt lat="39.36484027987332" lon="-3.35496931108136"><ele>650.1999999999999</ele><time>2026-05-01T07:51:52.999Z</time></trkpt><trkpt lat="39.36477783501588" lon="-3.3550101650596935"><ele>651.0</ele><time>2026-05-01T07:51:53.999Z</time></trkpt><trkpt lat="39.364714093756795" lon="-3.3550494401300868"><ele>651.0</ele><time>2026-05-01T07:51:54.999Z</time></trkpt><trkpt lat="39.36464937425587" lon="-3.355072842051063"><ele>651.0</ele><time>2026-05-01T07:51:55.999Z</time></trkpt><trkpt lat="39.36455169121706" lon="-3.3551479718991204"><ele>651.0</ele><time>2026-05-01T07:51:57.999Z</time></trkpt><trkpt lat="39.36445274976507" lon="-3.3552047155990246"><ele>651.0</ele><time>2026-05-01T07:51:59.999Z</time></trkpt><trkpt lat="39.36435549514647" lon="-3.3552604915889837"><ele>651.0</ele><time>2026-05-01T07:52:01.999Z</time></trkpt><trkpt lat="39.36429808780003" lon="-3.355296336425343"><ele>651.0</ele><time>2026-05-01T07:52:02.999Z</time></trkpt><trkpt lat="39.364240720423005" lon="-3.355330110878081"><ele>651.0</ele><time>2026-05-01T07:52:03.999Z</time></trkpt><trkpt lat="39.364150731796315" lon="-3.3553830907616846"><ele>651.0</ele><time>2026-05-01T07:52:05.999Z</time></trkpt><trkpt lat="39.36403447975918" lon="-3.355447208723853"><ele>651.0</ele><time>2026-05-01T07:52:07.999Z</time></trkpt><trkpt lat="39.36396692309568" lon="-3.355489027818698"><ele>651.0</ele><time>2026-05-01T07:52:08.999Z</time></trkpt><trkpt lat="39.36387881412511" lon="-3.3555393776846643"><ele>651.0</ele><time>2026-05-01T07:52:09.999Z</time></trkpt><trkpt lat="39.36378769283276" lon="-3.355575988596025"><ele>651.0</ele><time>2026-05-01T07:52:10.999Z</time></trkpt><trkpt lat="39.36369609395336" lon="-3.3556487355245084"><ele>651.0</ele><time>2026-05-01T07:52:11.999Z</time></trkpt><trkpt lat="39.36361407841534" lon="-3.3556992041255818"><ele>651.0</ele><time>2026-05-01T07:52:12.999Z</time></trkpt><trkpt lat="39.363539800329804" lon="-3.355745965137214"><ele>651.0</ele><time>2026-05-01T07:52:13.999Z</time></trkpt><trkpt lat="39.36347516973761" lon="-3.355787428054384"><ele>651.0</ele><time>2026-05-01T07:52:14.999Z</time></trkpt><trkpt lat="39.363387803331804" lon="-3.3558609329644065"><ele>651.0</ele><time>2026-05-01T07:52:16.999Z</time></trkpt><trkpt lat="39.36331315028426" lon="-3.3559868653488376"><ele>651.0</ele><time>2026-05-01T07:52:19.999Z</time></trkpt><trkpt lat="39.363221723985745" lon="-3.3560348645142937"><ele>651.0</ele><time>2026-05-01T07:52:20.999Z</time></trkpt><trkpt lat="39.36313845516953" lon="-3.3560606783689355"><ele>651.0</ele><time>2026-05-01T07:52:21.998Z</time></trkpt><trkpt lat="39.36305410969666" lon="-3.3561042380406354"><ele>651.0</ele><time>2026-05-01T07:52:22.998Z</time></trkpt><trkpt lat="39.362982683138405" lon="-3.3561438349653328"><ele>651.1999999999999</ele><time>2026-05-01T07:52:23.998Z</time></trkpt><trkpt lat="39.362900707806624" lon="-3.3561613617323567"><ele>651.4</ele><time>2026-05-01T07:52:24.998Z</time></trkpt><trkpt lat="39.36281444549541" lon="-3.3562038660446976"><ele>651.6</ele><time>2026-05-01T07:52:25.998Z</time></trkpt><trkpt lat="39.3627495006566" lon="-3.356231459226823"><ele>651.8</ele><time>2026-05-01T07:52:26.998Z</time></trkpt><trkpt lat="39.36264426141566" lon="-3.3562776103746867"><ele>652.0</ele><time>2026-05-01T07:52:29Z</time></trkpt><trkpt lat="39.36254393099031" lon="-3.356321368725616"><ele>652.0</ele><time>2026-05-01T07:52:31Z</time></trkpt><trkpt lat="39.36247282445215" lon="-3.356351920299784"><ele>652.0</ele><time>2026-05-01T07:52:32Z</time></trkpt><trkpt lat="39.3623888435978" lon="-3.3563880034420914"><ele>652.0</ele><time>2026-05-01T07:52:33Z</time></trkpt><trkpt lat="39.36229957715169" lon="-3.356426357584551"><ele>652.0</ele><time>2026-05-01T07:52:34Z</time></trkpt><trkpt lat="39.36220040863626" lon="-3.3564672516078558"><ele>652.0</ele><time>2026-05-01T07:52:36Z</time></trkpt><trkpt lat="39.362093160789975" lon="-3.3565117251212095"><ele>652.0</ele><time>2026-05-01T07:52:38Z</time></trkpt><trkpt lat="39.36197084904764" lon="-3.356572039634272"><ele>652.0</ele><time>2026-05-01T07:52:40Z</time></trkpt><trkpt lat="39.3619787145423" lon="-3.3567133725957548"><ele>652.0</ele><time>2026-05-01T07:52:41Z</time></trkpt><trkpt lat="39.36192996939502" lon="-3.3568456741610606"><ele>652.0</ele><time>2026-05-01T07:52:42Z</time></trkpt><trkpt lat="39.36186013582177" lon="-3.357005624836249"><ele>651.0</ele><time>2026-05-01T07:52:43Z</time></trkpt><trkpt lat="39.361770779821846" lon="-3.357205830571891"><ele>650.0</ele><time>2026-05-01T07:52:44Z</time></trkpt><trkpt lat="39.361699622901675" lon="-3.3573716730690606"><ele>649.0</ele><time>2026-05-01T07:52:45Z</time></trkpt><trkpt lat="39.361641960840814" lon="-3.3575223473621594"><ele>649.0</ele><time>2026-05-01T07:52:46Z</time></trkpt><trkpt lat="39.361588292785925" lon="-3.357661660872695"><ele>649.0</ele><time>2026-05-01T07:52:47Z</time></trkpt><trkpt lat="39.36154006987403" lon="-3.3577763439500408"><ele>649.0</ele><time>2026-05-01T07:52:48Z</time></trkpt><trkpt lat="39.36149151089587" lon="-3.3578514328913447"><ele>649.0</ele><time>2026-05-01T07:52:49Z</time></trkpt><trkpt lat="39.361457018040525" lon="-3.3579335286634744"><ele>649.0</ele><time>2026-05-01T07:52:50Z</time></trkpt><trkpt lat="39.361409311852356" lon="-3.3580259201197586"><ele>648.6</ele><time>2026-05-01T07:52:51Z</time></trkpt><trkpt lat="39.36136368237005" lon="-3.3580966249382453"><ele>648.2</ele><time>2026-05-01T07:52:52Z</time></trkpt><trkpt lat="39.361332832447715" lon="-3.358179854026933"><ele>647.8000000000001</ele><time>2026-05-01T07:52:53Z</time></trkpt><trkpt lat="39.36127270865456" lon="-3.3582819130837773"><ele>647.4000000000001</ele><time>2026-05-01T07:52:54Z</time></trkpt><trkpt lat="39.361190434555496" lon="-3.3584240163782213"><ele>647.0</ele><time>2026-05-01T07:52:55Z</time></trkpt><trkpt lat="39.361087031506955" lon="-3.3586026134355573"><ele>647.0</ele><time>2026-05-01T07:52:56Z</time></trkpt><trkpt lat="39.36098366670205" lon="-3.3587811441850484"><ele>647.0</ele><time>2026-05-01T07:52:57Z</time></trkpt><trkpt lat="39.36087173476094" lon="-3.358937744440248"><ele>647.0</ele><time>2026-05-01T07:52:58Z</time></trkpt><trkpt lat="39.360797482315405" lon="-3.359088831966921"><ele>647.2</ele><time>2026-05-01T07:52:59Z</time></trkpt><trkpt lat="39.3607418636145" lon="-3.3591781098480866"><ele>647.4000000000001</ele><time>2026-05-01T07:53:00Z</time></trkpt><trkpt lat="39.36069494195928" lon="-3.3592458495414887"><ele>647.5999999999999</ele><time>2026-05-01T07:53:03Z</time></trkpt><trkpt lat="39.3606527648114" lon="-3.3593211291015437"><ele>647.8</ele><time>2026-05-01T07:53:08Z</time></trkpt><trkpt lat="39.36069247025821" lon="-3.359257395031429"><ele>648.0</ele><time>2026-05-01T07:53:11Z</time></trkpt><trkpt lat="39.36079126077962" lon="-3.359089140151161"><ele>648.0</ele><time>2026-05-01T07:53:13Z</time></trkpt><trkpt lat="39.36087737894486" lon="-3.358936469911084"><ele>648.0</ele><time>2026-05-01T07:53:14Z</time></trkpt><trkpt lat="39.36097584906094" lon="-3.3587631740965374"><ele>648.0</ele><time>2026-05-01T07:53:15Z</time></trkpt><trkpt lat="39.361085031032275" lon="-3.358583522359328"><ele>647.8</ele><time>2026-05-01T07:53:16Z</time></trkpt><trkpt lat="39.36116486468887" lon="-3.358443054387572"><ele>647.5999999999999</ele><time>2026-05-01T07:53:16.999Z</time></trkpt><trkpt lat="39.36122843747211" lon="-3.3583267741867178"><ele>647.4000000000001</ele><time>2026-05-01T07:53:17.999Z</time></trkpt><trkpt lat="39.36127203559045" lon="-3.358235557551527"><ele>647.2</ele><time>2026-05-01T07:53:18.999Z</time></trkpt><trkpt lat="39.361298963151334" lon="-3.3581612138690216"><ele>647.0</ele><time>2026-05-01T07:53:19.999Z</time></trkpt><trkpt lat="39.36135433982779" lon="-3.3581025944729688"><ele>647.0</ele><time>2026-05-01T07:53:21.999Z</time></trkpt><trkpt lat="39.36139781069812" lon="-3.358187929647954"><ele>647.0</ele><time>2026-05-01T07:53:23.999Z</time></trkpt><trkpt lat="39.361425122029395" lon="-3.358307383401897"><ele>647.0</ele><time>2026-05-01T07:53:25.999Z</time></trkpt><trkpt lat="39.36143330121852" lon="-3.3584186184357123"><ele>647.0</ele><time>2026-05-01T07:53:26.999Z</time></trkpt><trkpt lat="39.361430520643815" lon="-3.35854785058661"><ele>647.0</ele><time>2026-05-01T07:53:27.999Z</time></trkpt><trkpt lat="39.36143544423328" lon="-3.35868616683774"><ele>647.0</ele><time>2026-05-01T07:53:28.999Z</time></trkpt><trkpt lat="39.3614428324104" lon="-3.358839394010319"><ele>647.0</ele><time>2026-05-01T07:53:29.999Z</time></trkpt><trkpt lat="39.361448487382404" lon="-3.3589970143826444"><ele>647.0</ele><time>2026-05-01T07:53:30.999Z</time></trkpt><trkpt lat="39.36144966135339" lon="-3.3591631779495583"><ele>647.0</ele><time>2026-05-01T07:53:31.999Z</time></trkpt><trkpt lat="39.36144804575812" lon="-3.3593386464849715"><ele>647.0</ele><time>2026-05-01T07:53:32.999Z</time></trkpt><trkpt lat="39.36144654597514" lon="-3.3595182107955486"><ele>647.0</ele><time>2026-05-01T07:53:33.999Z</time></trkpt><trkpt lat="39.361438494750026" lon="-3.3597093191767757"><ele>647.0</ele><time>2026-05-01T07:53:34.999Z</time></trkpt><trkpt lat="39.36141561617086" lon="-3.359936843614736"><ele>647.3333333333333</ele><time>2026-05-01T07:53:35.999Z</time></trkpt><trkpt lat="39.36138067633091" lon="-3.360184125966049"><ele>647.6666666666666</ele><time>2026-05-01T07:53:36.999Z</time></trkpt><trkpt lat="39.361336709914035" lon="-3.360430135672523"><ele>648.0</ele><time>2026-05-01T07:53:37.999Z</time></trkpt><trkpt lat="39.36130078245785" lon="-3.3606722981716715"><ele>647.3333333333334</ele><time>2026-05-01T07:53:38.999Z</time></trkpt><trkpt lat="39.36126304791274" lon="-3.3608979156317202"><ele>646.6666666666667</ele><time>2026-05-01T07:53:39.999Z</time></trkpt><trkpt lat="39.36122362691041" lon="-3.361105934920088"><ele>646.0</ele><time>2026-05-01T07:53:40.999Z</time></trkpt><trkpt lat="39.36118708939686" lon="-3.3612953742901834"><ele>646.25</ele><time>2026-05-01T07:53:41.999Z</time></trkpt><trkpt lat="39.361149386367245" lon="-3.361478325224595"><ele>646.5</ele><time>2026-05-01T07:53:42.999Z</time></trkpt><trkpt lat="39.3611180305128" lon="-3.361667948468096"><ele>646.75</ele><time>2026-05-01T07:53:43.999Z</time></trkpt><trkpt lat="39.36109026348206" lon="-3.3618434659585055"><ele>647.0</ele><time>2026-05-01T07:53:44.999Z</time></trkpt><trkpt lat="39.36106371741821" lon="-3.3620129301414123"><ele>647.0</ele><time>2026-05-01T07:53:45.999Z</time></trkpt><trkpt lat="39.361057001175034" lon="-3.3621873554449766"><ele>647.0</ele><time>2026-05-01T07:53:46.999Z</time></trkpt><trkpt lat="39.36103329014414" lon="-3.3623795632999434"><ele>647.0</ele><time>2026-05-01T07:53:47.999Z</time></trkpt><trkpt lat="39.36098995316461" lon="-3.362586504926043"><ele>647.0</ele><time>2026-05-01T07:53:48.999Z</time></trkpt><trkpt lat="39.36096543512794" lon="-3.362810847028917"><ele>647.0</ele><time>2026-05-01T07:53:49.999Z</time></trkpt><trkpt lat="39.36096376259455" lon="-3.3630273925949306"><ele>647.0</ele><time>2026-05-01T07:53:50.999Z</time></trkpt><trkpt lat="39.36093404859731" lon="-3.363219184294831"><ele>647.0</ele><time>2026-05-01T07:53:51.999Z</time></trkpt><trkpt lat="39.3609358665274" lon="-3.363417214541032"><ele>647.0</ele><time>2026-05-01T07:53:52.999Z</time></trkpt><trkpt lat="39.36092237617484" lon="-3.363612347578417"><ele>647.0</ele><time>2026-05-01T07:53:53.999Z</time></trkpt><trkpt lat="39.36089415506718" lon="-3.3638022243471037"><ele>647.0</ele><time>2026-05-01T07:53:54.999Z</time></trkpt><trkpt lat="39.3608979709957" lon="-3.363987973763301"><ele>647.0</ele><time>2026-05-01T07:53:55.999Z</time></trkpt><trkpt lat="39.36087210472957" lon="-3.3641556011521874"><ele>647.0</ele><time>2026-05-01T07:53:56.999Z</time></trkpt><trkpt lat="39.360864917746554" lon="-3.3643220110783476"><ele>647.0</ele><time>2026-05-01T07:53:57.999Z</time></trkpt><trkpt lat="39.360856157531025" lon="-3.3644781308080325"><ele>647.0</ele><time>2026-05-01T07:53:58.999Z</time></trkpt><trkpt lat="39.36084410289796" lon="-3.3646192966854023"><ele>647.0</ele><time>2026-05-01T07:53:59.999Z</time></trkpt><trkpt lat="39.36083551839828" lon="-3.364751547741059"><ele>647.0</ele><time>2026-05-01T07:54:00.999Z</time></trkpt><trkpt lat="39.36083305478707" lon="-3.364876313463313"><ele>647.0</ele><time>2026-05-01T07:54:01.999Z</time></trkpt><trkpt lat="39.36083075691586" lon="-3.3649963170680617"><ele>647.0</ele><time>2026-05-01T07:54:02.999Z</time></trkpt><trkpt lat="39.36083020512303" lon="-3.365116464763904"><ele>647.5</ele><time>2026-05-01T07:54:03.999Z</time></trkpt><trkpt lat="39.3608350304665" lon="-3.3652437995823004"><ele>648.0</ele><time>2026-05-01T07:54:04.999Z</time></trkpt><trkpt lat="39.36084220281589" lon="-3.3653648001355414"><ele>648.5</ele><time>2026-05-01T07:54:05.999Z</time></trkpt><trkpt lat="39.36085321883935" lon="-3.3655279094618984"><ele>649.0</ele><time>2026-05-01T07:54:06.999Z</time></trkpt><trkpt lat="39.36088202170467" lon="-3.3657120234192752"><ele>649.3333333333334</ele><time>2026-05-01T07:54:07.999Z</time></trkpt><trkpt lat="39.36087641257871" lon="-3.36590536410298"><ele>649.6666666666666</ele><time>2026-05-01T07:54:08.999Z</time></trkpt><trkpt lat="39.36087419305675" lon="-3.3661170917984973"><ele>650.0</ele><time>2026-05-01T07:54:09.999Z</time></trkpt><trkpt lat="39.36086187580704" lon="-3.366368822990907"><ele>650.0</ele><time>2026-05-01T07:54:10.999Z</time></trkpt><trkpt lat="39.360851925986545" lon="-3.3666514229952145"><ele>650.0</ele><time>2026-05-01T07:54:11.999Z</time></trkpt><trkpt lat="39.36084711691036" lon="-3.366921510023669"><ele>650.0</ele><time>2026-05-01T07:54:12.999Z</time></trkpt><trkpt lat="39.360843781312106" lon="-3.367161496870704"><ele>650.0</ele><time>2026-05-01T07:54:13.999Z</time></trkpt><trkpt lat="39.36084186615299" lon="-3.367378637606831"><ele>650.0</ele><time>2026-05-01T07:54:14.999Z</time></trkpt><trkpt lat="39.360833640972004" lon="-3.3675919718698615"><ele>650.0</ele><time>2026-05-01T07:54:15.999Z</time></trkpt><trkpt lat="39.36082607472042" lon="-3.367795662004855"><ele>650.0</ele><time>2026-05-01T07:54:16.999Z</time></trkpt><trkpt lat="39.36081890942614" lon="-3.3679806301735598"><ele>650.0</ele><time>2026-05-01T07:54:17.999Z</time></trkpt><trkpt lat="39.360810929164735" lon="-3.368147258528899"><ele>650.0</ele><time>2026-05-01T07:54:18.999Z</time></trkpt><trkpt lat="39.36080528310647" lon="-3.3683140905938336"><ele>650.0</ele><time>2026-05-01T07:54:19.999Z</time></trkpt><trkpt lat="39.360808704975476" lon="-3.3684807106425176"><ele>650.25</ele><time>2026-05-01T07:54:20.999Z</time></trkpt><trkpt lat="39.360822387956276" lon="-3.3686572020447487"><ele>650.5</ele><time>2026-05-01T07:54:21.999Z</time></trkpt><trkpt lat="39.360870577916536" lon="-3.368827789610789"><ele>650.75</ele><time>2026-05-01T07:54:22.999Z</time></trkpt><trkpt lat="39.360911460829556" lon="-3.368996391425555"><ele>651.0</ele><time>2026-05-01T07:54:23.999Z</time></trkpt><trkpt lat="39.36094655645015" lon="-3.3691701968127785"><ele>651.0</ele><time>2026-05-01T07:54:24.998Z</time></trkpt><trkpt lat="39.36099990853285" lon="-3.369316037680548"><ele>651.0</ele><time>2026-05-01T07:54:25.998Z</time></trkpt><trkpt lat="39.36103769021861" lon="-3.3694318443025075"><ele>651.0</ele><time>2026-05-01T07:54:26.998Z</time></trkpt><trkpt lat="39.36106612026544" lon="-3.3695148817278353"><ele>651.0</ele><time>2026-05-01T07:54:27.998Z</time></trkpt><trkpt lat="39.36110501740884" lon="-3.3696008864226155"><ele>651.0</ele><time>2026-05-01T07:54:29.998Z</time></trkpt><trkpt lat="39.36114200794159" lon="-3.3696971325532377"><ele>651.0</ele><time>2026-05-01T07:54:35Z</time></trkpt><trkpt lat="39.361085072885736" lon="-3.3697753752830524"><ele>651.0</ele><time>2026-05-01T07:54:36Z</time></trkpt><trkpt lat="39.36102309774729" lon="-3.369857822935304"><ele>651.0</ele><time>2026-05-01T07:54:37Z</time></trkpt><trkpt lat="39.36095284562016" lon="-3.369972081932937"><ele>651.0</ele><time>2026-05-01T07:54:38Z</time></trkpt><trkpt lat="39.36087704345936" lon="-3.37007278193918"><ele>651.0</ele><time>2026-05-01T07:54:39Z</time></trkpt><trkpt lat="39.36079913614671" lon="-3.3701752095528295"><ele>651.0</ele><time>2026-05-01T07:54:40Z</time></trkpt><trkpt lat="39.360711373198036" lon="-3.3702887200777707"><ele>651.0</ele><time>2026-05-01T07:54:41Z</time></trkpt><trkpt lat="39.36062063379709" lon="-3.3704016893798907"><ele>651.0</ele><time>2026-05-01T07:54:42Z</time></trkpt><trkpt lat="39.36052754646373" lon="-3.3705173224940133"><ele>651.0</ele><time>2026-05-01T07:54:43Z</time></trkpt><trkpt lat="39.36043094898021" lon="-3.370637315911189"><ele>650.75</ele><time>2026-05-01T07:54:44Z</time></trkpt><trkpt lat="39.36033291899502" lon="-3.370760095668468"><ele>650.5</ele><time>2026-05-01T07:54:45Z</time></trkpt><trkpt lat="39.36021754694322" lon="-3.3708750249552573"><ele>650.25</ele><time>2026-05-01T07:54:46Z</time></trkpt><trkpt lat="39.36012114238509" lon="-3.371024932043218"><ele>650.0</ele><time>2026-05-01T07:54:47Z</time></trkpt><trkpt lat="39.36002126521911" lon="-3.371147127114384"><ele>650.0</ele><time>2026-05-01T07:54:48Z</time></trkpt><trkpt lat="39.359919456252996" lon="-3.37127168563987"><ele>650.0</ele><time>2026-05-01T07:54:49Z</time></trkpt><trkpt lat="39.35981463126455" lon="-3.3714011446007377"><ele>650.0</ele><time>2026-05-01T07:54:50Z</time></trkpt><trkpt lat="39.35970912612691" lon="-3.371535694844895"><ele>650.0</ele><time>2026-05-01T07:54:51Z</time></trkpt><trkpt lat="39.3596003231912" lon="-3.371675159725168"><ele>650.25</ele><time>2026-05-01T07:54:52Z</time></trkpt><trkpt lat="39.359500875930905" lon="-3.3718060183740497"><ele>650.5</ele><time>2026-05-01T07:54:53Z</time></trkpt><trkpt lat="39.35940271678749" lon="-3.3719386200410963"><ele>650.75</ele><time>2026-05-01T07:54:54Z</time></trkpt><trkpt lat="39.35929753390614" lon="-3.3720577627422914"><ele>651.0</ele><time>2026-05-01T07:54:55Z</time></trkpt><trkpt lat="39.35920771014231" lon="-3.372181845411872"><ele>651.5</ele><time>2026-05-01T07:54:56Z</time></trkpt><trkpt lat="39.35912488558777" lon="-3.372326896583156"><ele>652.0</ele><time>2026-05-01T07:54:57Z</time></trkpt><trkpt lat="39.35901959397254" lon="-3.372475135514568"><ele>652.5</ele><time>2026-05-01T07:54:58Z</time></trkpt><trkpt lat="39.35891702549369" lon="-3.372615444476936"><ele>653.0</ele><time>2026-05-01T07:54:59Z</time></trkpt><trkpt lat="39.358823753991956" lon="-3.372742425764158"><ele>653.0</ele><time>2026-05-01T07:55:00Z</time></trkpt><trkpt lat="39.35871447961264" lon="-3.3728597757027377"><ele>653.0</ele><time>2026-05-01T07:55:01Z</time></trkpt><trkpt lat="39.35860349025961" lon="-3.3730063685552465"><ele>653.0</ele><time>2026-05-01T07:55:02Z</time></trkpt><trkpt lat="39.358484028687414" lon="-3.37317830384547"><ele>652.0</ele><time>2026-05-01T07:55:03Z</time></trkpt><trkpt lat="39.358361410690534" lon="-3.373323446556923"><ele>651.0</ele><time>2026-05-01T07:55:04Z</time></trkpt><trkpt lat="39.35824436457453" lon="-3.3734547323121564"><ele>650.0</ele><time>2026-05-01T07:55:05Z</time></trkpt><trkpt lat="39.358133541951915" lon="-3.3735785901609083"><ele>650.75</ele><time>2026-05-01T07:55:06Z</time></trkpt><trkpt lat="39.35802915163271" lon="-3.3736944374935565"><ele>651.5</ele><time>2026-05-01T07:55:07Z</time></trkpt><trkpt lat="39.35793048256672" lon="-3.3738015233614074"><ele>652.25</ele><time>2026-05-01T07:55:08Z</time></trkpt><trkpt lat="39.35783608412154" lon="-3.3739022062799795"><ele>653.0</ele><time>2026-05-01T07:55:09Z</time></trkpt><trkpt lat="39.35774514801247" lon="-3.373997001231036"><ele>653.4</ele><time>2026-05-01T07:55:10Z</time></trkpt><trkpt lat="39.35765713639037" lon="-3.3740882888258827"><ele>653.8</ele><time>2026-05-01T07:55:11Z</time></trkpt><trkpt lat="39.3575723488066" lon="-3.3741726782570276"><ele>654.2</ele><time>2026-05-01T07:55:12Z</time></trkpt><trkpt lat="39.35748566591267" lon="-3.374255892180232"><ele>654.6</ele><time>2026-05-01T07:55:13Z</time></trkpt><trkpt lat="39.357390719834264" lon="-3.3743435412102376"><ele>655.0</ele><time>2026-05-01T07:55:14Z</time></trkpt><trkpt lat="39.35728634906095" lon="-3.3744364325773"><ele>654.0</ele><time>2026-05-01T07:55:15Z</time></trkpt><trkpt lat="39.35717329928347" lon="-3.374535123309104"><ele>653.0</ele><time>2026-05-01T07:55:16Z</time></trkpt><trkpt lat="39.3570513682634" lon="-3.374641567231231"><ele>652.0</ele><time>2026-05-01T07:55:17Z</time></trkpt><trkpt lat="39.35691035259518" lon="-3.374743788033312"><ele>651.0</ele><time>2026-05-01T07:55:18Z</time></trkpt><trkpt lat="39.3567701209984" lon="-3.3748766098440846"><ele>651.0</ele><time>2026-05-01T07:55:18.999Z</time></trkpt><trkpt lat="39.35663378560652" lon="-3.3749854171330096"><ele>651.0</ele><time>2026-05-01T07:55:19.999Z</time></trkpt><trkpt lat="39.35650178880757" lon="-3.3751110950548866"><ele>651.0</ele><time>2026-05-01T07:55:20.999Z</time></trkpt><trkpt lat="39.35636616938397" lon="-3.3752229236959406"><ele>651.4</ele><time>2026-05-01T07:55:21.999Z</time></trkpt><trkpt lat="39.356271796240144" lon="-3.3752950410603386"><ele>651.8</ele><time>2026-05-01T07:55:22.999Z</time></trkpt><trkpt lat="39.35620549101306" lon="-3.375345384359075"><ele>652.1999999999999</ele><time>2026-05-01T07:55:23.999Z</time></trkpt><trkpt lat="39.35610417115856" lon="-3.375417722070042"><ele>652.5999999999999</ele><time>2026-05-01T07:55:25.999Z</time></trkpt><trkpt lat="39.35618760326348" lon="-3.375357823590987"><ele>653.0</ele><time>2026-05-01T07:55:30.999Z</time></trkpt><trkpt lat="39.35624569053278" lon="-3.3752341346974584"><ele>653.0</ele><time>2026-05-01T07:55:31.999Z</time></trkpt><trkpt lat="39.35633056147575" lon="-3.3752004509180917"><ele>653.0</ele><time>2026-05-01T07:55:32.999Z</time></trkpt><trkpt lat="39.356402377839515" lon="-3.375156018916705"><ele>653.0</ele><time>2026-05-01T07:55:33.999Z</time></trkpt><trkpt lat="39.35646368895137" lon="-3.3751122556665845"><ele>653.0</ele><time>2026-05-01T07:55:34.999Z</time></trkpt><trkpt lat="39.356515040186466" lon="-3.375048443725919"><ele>653.0</ele><time>2026-05-01T07:55:36.999Z</time></trkpt><trkpt lat="39.35656336810852" lon="-3.3752326607854664"><ele>652.5999999999999</ele><time>2026-05-01T07:55:38.999Z</time></trkpt><trkpt lat="39.35655045906588" lon="-3.3753321309934665"><ele>652.1999999999999</ele><time>2026-05-01T07:55:39.999Z</time></trkpt><trkpt lat="39.3565429535812" lon="-3.375478965611128"><ele>651.8</ele><time>2026-05-01T07:55:40.999Z</time></trkpt><trkpt lat="39.35654330060549" lon="-3.37563827901317"><ele>651.4</ele><time>2026-05-01T07:55:41.999Z</time></trkpt><trkpt lat="39.35654087234417" lon="-3.375775296031126"><ele>651.0</ele><time>2026-05-01T07:55:42.999Z</time></trkpt><trkpt lat="39.3565279766779" lon="-3.375912722028892"><ele>651.0</ele><time>2026-05-01T07:55:43.999Z</time></trkpt><trkpt lat="39.35652321523913" lon="-3.376033249037764"><ele>651.0</ele><time>2026-05-01T07:55:44.999Z</time></trkpt><trkpt lat="39.356490684046356" lon="-3.376151306947944"><ele>651.0</ele><time>2026-05-01T07:55:45.999Z</time></trkpt><trkpt lat="39.356448271707194" lon="-3.3762810279185005"><ele>651.0</ele><time>2026-05-01T07:55:46.999Z</time></trkpt><trkpt lat="39.35639310620745" lon="-3.3764171736222144"><ele>651.0</ele><time>2026-05-01T07:55:47.999Z</time></trkpt><trkpt lat="39.35632377383628" lon="-3.376554959617758"><ele>651.5</ele><time>2026-05-01T07:55:48.999Z</time></trkpt><trkpt lat="39.35624900612861" lon="-3.376700715873191"><ele>652.0</ele><time>2026-05-01T07:55:49.999Z</time></trkpt><trkpt lat="39.356171458675405" lon="-3.3768518910807295"><ele>652.5</ele><time>2026-05-01T07:55:50.999Z</time></trkpt><trkpt lat="39.35609275302852" lon="-3.3770065198627393"><ele>653.0</ele><time>2026-05-01T07:55:51.999Z</time></trkpt><trkpt lat="39.35602163652896" lon="-3.3771542021171643"><ele>653.25</ele><time>2026-05-01T07:55:52.999Z</time></trkpt><trkpt lat="39.35595603335175" lon="-3.3772904352740043"><ele>653.5</ele><time>2026-05-01T07:55:53.999Z</time></trkpt><trkpt lat="39.35588095586178" lon="-3.3774106949058886"><ele>653.75</ele><time>2026-05-01T07:55:54.999Z</time></trkpt><trkpt lat="39.3558224188326" lon="-3.377531421940735"><ele>654.0</ele><time>2026-05-01T07:55:55.999Z</time></trkpt><trkpt lat="39.355759839077336" lon="-3.377653392777767"><ele>654.0</ele><time>2026-05-01T07:55:56.999Z</time></trkpt><trkpt lat="39.35570318359308" lon="-3.377771010855752"><ele>654.0</ele><time>2026-05-01T07:55:57.999Z</time></trkpt><trkpt lat="39.35564007244046" lon="-3.377906581644989"><ele>654.0</ele><time>2026-05-01T07:55:58.999Z</time></trkpt><trkpt lat="39.35556964334946" lon="-3.3780589581176237"><ele>654.0</ele><time>2026-05-01T07:55:59.999Z</time></trkpt><trkpt lat="39.35550928927702" lon="-3.3782287460211675"><ele>654.0</ele><time>2026-05-01T07:56:00.999Z</time></trkpt><trkpt lat="39.35543977668311" lon="-3.378400628992948"><ele>654.0</ele><time>2026-05-01T07:56:01.999Z</time></trkpt><trkpt lat="39.35535636086608" lon="-3.378571044415087"><ele>654.0</ele><time>2026-05-01T07:56:02.999Z</time></trkpt><trkpt lat="39.35529047855189" lon="-3.378768080145702"><ele>654.0</ele><time>2026-05-01T07:56:03.999Z</time></trkpt><trkpt lat="39.35522057638722" lon="-3.3789938326518207"><ele>654.0</ele><time>2026-05-01T07:56:04.999Z</time></trkpt><trkpt lat="39.35514058621459" lon="-3.3792643426605937"><ele>654.0</ele><time>2026-05-01T07:56:05.999Z</time></trkpt><trkpt lat="39.35505702014226" lon="-3.379567983857306"><ele>653.3333333333334</ele><time>2026-05-01T07:56:06.999Z</time></trkpt><trkpt lat="39.354977471392196" lon="-3.3798548623842737"><ele>652.6666666666667</ele><time>2026-05-01T07:56:07.999Z</time></trkpt><trkpt lat="39.35491273099665" lon="-3.380112407470311"><ele>652.0</ele><time>2026-05-01T07:56:08.999Z</time></trkpt><trkpt lat="39.35480207282272" lon="-3.380378642717"><ele>652.5</ele><time>2026-05-01T07:56:09.999Z</time></trkpt><trkpt lat="39.354673573815745" lon="-3.3806742744111373"><ele>653.0</ele><time>2026-05-01T07:56:10.999Z</time></trkpt><trkpt lat="39.354573722780394" lon="-3.380916313952253"><ele>653.0</ele><time>2026-05-01T07:56:11.999Z</time></trkpt><trkpt lat="39.354476177942054" lon="-3.381201490120948"><ele>653.0</ele><time>2026-05-01T07:56:12.999Z</time></trkpt><trkpt lat="39.35439532008475" lon="-3.3814537564718123"><ele>653.0</ele><time>2026-05-01T07:56:13.999Z</time></trkpt><trkpt lat="39.35432792022226" lon="-3.381700496501783"><ele>653.0</ele><time>2026-05-01T07:56:14.999Z</time></trkpt><trkpt lat="39.354239837876555" lon="-3.3819222677617624"><ele>653.0</ele><time>2026-05-01T07:56:15.999Z</time></trkpt><trkpt lat="39.35415868307466" lon="-3.3820915919839574"><ele>653.4</ele><time>2026-05-01T07:56:16.999Z</time></trkpt><trkpt lat="39.3540728122028" lon="-3.382231576525911"><ele>653.8</ele><time>2026-05-01T07:56:17.999Z</time></trkpt><trkpt lat="39.35400083937759" lon="-3.3823395924201196"><ele>654.2</ele><time>2026-05-01T07:56:18.999Z</time></trkpt><trkpt lat="39.35393745493463" lon="-3.3824017947530023"><ele>654.6</ele><time>2026-05-01T07:56:19.999Z</time></trkpt><trkpt lat="39.35389582344288" lon="-3.3824911623442913"><ele>655.0</ele><time>2026-05-01T07:56:20.999Z</time></trkpt><trkpt lat="39.3538649319877" lon="-3.3826063102493795"><ele>655.0</ele><time>2026-05-01T07:56:21.999Z</time></trkpt><trkpt lat="39.353831815914056" lon="-3.382741761057609"><ele>655.0</ele><time>2026-05-01T07:56:22.999Z</time></trkpt><trkpt lat="39.353781862252156" lon="-3.382901145814413"><ele>655.0</ele><time>2026-05-01T07:56:23.999Z</time></trkpt><trkpt lat="39.35375778781467" lon="-3.3830841346099114"><ele>655.0</ele><time>2026-05-01T07:56:24.999Z</time></trkpt><trkpt lat="39.35372878118142" lon="-3.3832633708183804"><ele>655.0</ele><time>2026-05-01T07:56:25.999Z</time></trkpt><trkpt lat="39.35370410373762" lon="-3.3834411527345165"><ele>655.0</ele><time>2026-05-01T07:56:26.998Z</time></trkpt><trkpt lat="39.35367655494744" lon="-3.3835934799162266"><ele>655.0</ele><time>2026-05-01T07:56:27.998Z</time></trkpt><trkpt lat="39.35366623686311" lon="-3.3837504111103036"><ele>655.0</ele><time>2026-05-01T07:56:28.998Z</time></trkpt><trkpt lat="39.35366174300563" lon="-3.383899779712077"><ele>655.0</ele><time>2026-05-01T07:56:29.998Z</time></trkpt><trkpt lat="39.35366045916926" lon="-3.3840482731227035"><ele>655.0</ele><time>2026-05-01T07:56:30.998Z</time></trkpt><trkpt lat="39.3536596964784" lon="-3.3842110462334847"><ele>655.0</ele><time>2026-05-01T07:56:31.998Z</time></trkpt><trkpt lat="39.353663996935836" lon="-3.384368508236466"><ele>655.0</ele><time>2026-05-01T07:56:32.998Z</time></trkpt><trkpt lat="39.35366540281613" lon="-3.3845111452821013"><ele>655.0</ele><time>2026-05-01T07:56:33.998Z</time></trkpt><trkpt lat="39.353662489328705" lon="-3.3846384112969337"><ele>655.0</ele><time>2026-05-01T07:56:34.998Z</time></trkpt><trkpt lat="39.35364276319749" lon="-3.3847877794747876"><ele>655.0</ele><time>2026-05-01T07:56:35.998Z</time></trkpt><trkpt lat="39.35361668212317" lon="-3.384963441431558"><ele>655.0</ele><time>2026-05-01T07:56:36.998Z</time></trkpt><trkpt lat="39.353572356438434" lon="-3.3851472937161264"><ele>654.3333333333334</ele><time>2026-05-01T07:56:37.998Z</time></trkpt><trkpt lat="39.353516326500035" lon="-3.385355812955183"><ele>653.6666666666666</ele><time>2026-05-01T07:56:38.998Z</time></trkpt><trkpt lat="39.35346878430656" lon="-3.385560336381202"><ele>653.0</ele><time>2026-05-01T07:56:40Z</time></trkpt><trkpt lat="39.35343123010062" lon="-3.385739349033788"><ele>653.0</ele><time>2026-05-01T07:56:41Z</time></trkpt><trkpt lat="39.353397014149145" lon="-3.385910130565491"><ele>653.0</ele><time>2026-05-01T07:56:42Z</time></trkpt><trkpt lat="39.353379756798745" lon="-3.386085340454432"><ele>653.0</ele><time>2026-05-01T07:56:43Z</time></trkpt><trkpt lat="39.3533472608493" lon="-3.38624319596071"><ele>653.0</ele><time>2026-05-01T07:56:44Z</time></trkpt><trkpt lat="39.3533161729197" lon="-3.386394254358361"><ele>653.5999999999999</ele><time>2026-05-01T07:56:45Z</time></trkpt><trkpt lat="39.353287650412305" lon="-3.386532847213221"><ele>654.1999999999999</ele><time>2026-05-01T07:56:46Z</time></trkpt><trkpt lat="39.35326325513948" lon="-3.386659760162724"><ele>654.8</ele><time>2026-05-01T07:56:47Z</time></trkpt><trkpt lat="39.353242960267394" lon="-3.3867793088193396"><ele>655.4</ele><time>2026-05-01T07:56:48Z</time></trkpt><trkpt lat="39.35322443967103" lon="-3.3869053481687343"><ele>656.0</ele><time>2026-05-01T07:56:49Z</time></trkpt><trkpt lat="39.353210343660145" lon="-3.387001276772635"><ele>656.0</ele><time>2026-05-01T07:56:50Z</time></trkpt><trkpt lat="39.35318511684394" lon="-3.3870795063993238"><ele>656.0</ele><time>2026-05-01T07:56:51Z</time></trkpt><trkpt lat="39.35318546493212" lon="-3.387206672316938"><ele>656.0</ele><time>2026-05-01T07:56:53Z</time></trkpt><trkpt lat="39.353114115480864" lon="-3.387550547977538"><ele>656.0</ele><time>2026-05-01T07:56:54Z</time></trkpt><trkpt lat="39.35309145787404" lon="-3.3876871414290917"><ele>656.75</ele><time>2026-05-01T07:56:55Z</time></trkpt><trkpt lat="39.35307139689355" lon="-3.387835827513006"><ele>657.5</ele><time>2026-05-01T07:56:56Z</time></trkpt><trkpt lat="39.353044711615325" lon="-3.3879951809267674"><ele>658.25</ele><time>2026-05-01T07:56:57Z</time></trkpt><trkpt lat="39.35301815664574" lon="-3.3881652335341705"><ele>659.0</ele><time>2026-05-01T07:56:58Z</time></trkpt><trkpt lat="39.35297812328594" lon="-3.388360801934038"><ele>659.3333333333333</ele><time>2026-05-01T07:56:59Z</time></trkpt><trkpt lat="39.35292737384103" lon="-3.3886009884594266"><ele>659.6666666666666</ele><time>2026-05-01T07:57:00Z</time></trkpt><trkpt lat="39.352873103534584" lon="-3.3888376282924426"><ele>660.0</ele><time>2026-05-01T07:57:01Z</time></trkpt><trkpt lat="39.35282062524844" lon="-3.3890628753227303"><ele>659.3333333333334</ele><time>2026-05-01T07:57:02Z</time></trkpt><trkpt lat="39.35276305733535" lon="-3.389274024792216"><ele>658.6666666666667</ele><time>2026-05-01T07:57:03Z</time></trkpt><trkpt lat="39.35270321108762" lon="-3.3894864291747226"><ele>658.0</ele><time>2026-05-01T07:57:04Z</time></trkpt><trkpt lat="39.35264346153628" lon="-3.389702614538191"><ele>657.6666666666667</ele><time>2026-05-01T07:57:05Z</time></trkpt><trkpt lat="39.3525847038366" lon="-3.3899408316888535"><ele>657.3333333333334</ele><time>2026-05-01T07:57:06Z</time></trkpt><trkpt lat="39.352509225070506" lon="-3.3902273411130888"><ele>657.0</ele><time>2026-05-01T07:57:07Z</time></trkpt><trkpt lat="39.35242895978896" lon="-3.3904823882086736"><ele>657.3333333333334</ele><time>2026-05-01T07:57:08Z</time></trkpt><trkpt lat="39.35232555581618" lon="-3.390731946582235"><ele>657.6666666666667</ele><time>2026-05-01T07:57:09Z</time></trkpt><trkpt lat="39.352220468334394" lon="-3.390952170777971"><ele>658.0</ele><time>2026-05-01T07:57:10Z</time></trkpt><trkpt lat="39.352120168313355" lon="-3.391138287379856"><ele>658.0</ele><time>2026-05-01T07:57:11Z</time></trkpt><trkpt lat="39.35201037888902" lon="-3.3913051457133183"><ele>658.0</ele><time>2026-05-01T07:57:12Z</time></trkpt><trkpt lat="39.351874958609564" lon="-3.391486327956239"><ele>658.0</ele><time>2026-05-01T07:57:13Z</time></trkpt><trkpt lat="39.35174166325871" lon="-3.3916612476334542"><ele>658.0</ele><time>2026-05-01T07:57:14Z</time></trkpt><trkpt lat="39.35167080428761" lon="-3.3918424235752704"><ele>658.0</ele><time>2026-05-01T07:57:15Z</time></trkpt><trkpt lat="39.351622825270546" lon="-3.3919637967070724"><ele>658.0</ele><time>2026-05-01T07:57:16Z</time></trkpt><trkpt lat="39.35160061897608" lon="-3.392081849036836"><ele>658.0</ele><time>2026-05-01T07:57:17Z</time></trkpt><trkpt lat="39.35158890693021" lon="-3.3922059023984343"><ele>657.5</ele><time>2026-05-01T07:57:18Z</time></trkpt><trkpt lat="39.35157995385905" lon="-3.3923626880046163"><ele>657.0</ele><time>2026-05-01T07:57:19Z</time></trkpt><trkpt lat="39.35157205986487" lon="-3.392548488920886"><ele>656.5</ele><time>2026-05-01T07:57:20Z</time></trkpt><trkpt lat="39.351542658498026" lon="-3.392756392784644"><ele>656.0</ele><time>2026-05-01T07:57:21Z</time></trkpt><trkpt lat="39.35151234849028" lon="-3.392980291172925"><ele>657.3333333333333</ele><time>2026-05-01T07:57:22Z</time></trkpt><trkpt lat="39.3514808744446" lon="-3.393183878283548"><ele>658.6666666666666</ele><time>2026-05-01T07:57:23Z</time></trkpt><trkpt lat="39.351439579828806" lon="-3.3933685932480038"><ele>660.0</ele><time>2026-05-01T07:57:24Z</time></trkpt><trkpt lat="39.35138661591884" lon="-3.3935405996863954"><ele>660.3333333333334</ele><time>2026-05-01T07:57:25Z</time></trkpt><trkpt lat="39.35135116691557" lon="-3.3937188916267957"><ele>660.6666666666667</ele><time>2026-05-01T07:57:26Z</time></trkpt><trkpt lat="39.35129577017313" lon="-3.393905275402231"><ele>661.0</ele><time>2026-05-01T07:57:26.999Z</time></trkpt><trkpt lat="39.351228299053886" lon="-3.39412130143612"><ele>660.6666666666667</ele><time>2026-05-01T07:57:27.999Z</time></trkpt><trkpt lat="39.35115310280381" lon="-3.39435630766389"><ele>660.3333333333334</ele><time>2026-05-01T07:57:28.999Z</time></trkpt><trkpt lat="39.35105809342004" lon="-3.39461943265876"><ele>660.0</ele><time>2026-05-01T07:57:29.999Z</time></trkpt><trkpt lat="39.35098317569404" lon="-3.3948844277247554"><ele>660.0</ele><time>2026-05-01T07:57:30.999Z</time></trkpt><trkpt lat="39.35092106657195" lon="-3.3951076830680367"><ele>660.0</ele><time>2026-05-01T07:57:31.999Z</time></trkpt><trkpt lat="39.350871053298405" lon="-3.395298411353156"><ele>660.0</ele><time>2026-05-01T07:57:32.999Z</time></trkpt><trkpt lat="39.35082648006282" lon="-3.3954630199434828"><ele>660.0</ele><time>2026-05-01T07:57:33.999Z</time></trkpt><trkpt lat="39.35079353139266" lon="-3.39562056893173"><ele>660.0</ele><time>2026-05-01T07:57:34.999Z</time></trkpt><trkpt lat="39.350730249921895" lon="-3.3957721407594463"><ele>660.0</ele><time>2026-05-01T07:57:35.999Z</time></trkpt><trkpt lat="39.35063548038641" lon="-3.3959058259165875"><ele>660.0</ele><time>2026-05-01T07:57:36.999Z</time></trkpt><trkpt lat="39.350531980100385" lon="-3.3960518558587625"><ele>660.0</ele><time>2026-05-01T07:57:37.999Z</time></trkpt><trkpt lat="39.35041881058505" lon="-3.396195218003568"><ele>660.0</ele><time>2026-05-01T07:57:38.999Z</time></trkpt><trkpt lat="39.35031324525477" lon="-3.396375475299914"><ele>660.0</ele><time>2026-05-01T07:57:39.999Z</time></trkpt><trkpt lat="39.35020548161477" lon="-3.3965376007075503"><ele>660.6666666666666</ele><time>2026-05-01T07:57:40.999Z</time></trkpt><trkpt lat="39.35008660299765" lon="-3.3967152236605807"><ele>661.3333333333333</ele><time>2026-05-01T07:57:41.999Z</time></trkpt><trkpt lat="39.349952865501436" lon="-3.3968925064656106"><ele>662.0</ele><time>2026-05-01T07:57:42.999Z</time></trkpt><trkpt lat="39.349818510080276" lon="-3.397047599281444"><ele>663.0</ele><time>2026-05-01T07:57:43.999Z</time></trkpt><trkpt lat="39.34969540346952" lon="-3.3972238350674053"><ele>664.0</ele><time>2026-05-01T07:57:44.999Z</time></trkpt><trkpt lat="39.3495737991649" lon="-3.397402100302578"><ele>665.0</ele><time>2026-05-01T07:57:45.999Z</time></trkpt><trkpt lat="39.3494787613347" lon="-3.397591328277017"><ele>665.0</ele><time>2026-05-01T07:57:46.999Z</time></trkpt><trkpt lat="39.34939036424795" lon="-3.397757848964542"><ele>665.0</ele><time>2026-05-01T07:57:47.999Z</time></trkpt><trkpt lat="39.349290750470054" lon="-3.3979111131183224"><ele>665.0</ele><time>2026-05-01T07:57:48.999Z</time></trkpt><trkpt lat="39.34918233928686" lon="-3.3980584309156585"><ele>665.25</ele><time>2026-05-01T07:57:49.999Z</time></trkpt><trkpt lat="39.34908185859315" lon="-3.3981898889498923"><ele>665.5</ele><time>2026-05-01T07:57:50.999Z</time></trkpt><trkpt lat="39.3489914320602" lon="-3.398305199231478"><ele>665.75</ele><time>2026-05-01T07:57:51.999Z</time></trkpt><trkpt lat="39.348895432255745" lon="-3.3984143932583244"><ele>666.0</ele><time>2026-05-01T07:57:52.999Z</time></trkpt><trkpt lat="39.34878734195821" lon="-3.3985199954540506"><ele>666.0</ele><time>2026-05-01T07:57:53.999Z</time></trkpt><trkpt lat="39.348671477176055" lon="-3.3986273614215032"><ele>666.0</ele><time>2026-05-01T07:57:54.999Z</time></trkpt><trkpt lat="39.34854959201138" lon="-3.3987551591052294"><ele>666.0</ele><time>2026-05-01T07:57:55.999Z</time></trkpt><trkpt lat="39.34844534670643" lon="-3.398886072548663"><ele>666.0</ele><time>2026-05-01T07:57:56.999Z</time></trkpt><trkpt lat="39.34833925979301" lon="-3.398991899302007"><ele>666.0</ele><time>2026-05-01T07:57:57.999Z</time></trkpt><trkpt lat="39.34824293363238" lon="-3.3991207921796547"><ele>666.0</ele><time>2026-05-01T07:57:58.999Z</time></trkpt><trkpt lat="39.34812796043234" lon="-3.399247261383739"><ele>666.0</ele><time>2026-05-01T07:57:59.999Z</time></trkpt><trkpt lat="39.34800028254608" lon="-3.399405196122691"><ele>666.25</ele><time>2026-05-01T07:58:00.999Z</time></trkpt><trkpt lat="39.3478708438175" lon="-3.399544089333437"><ele>666.5</ele><time>2026-05-01T07:58:01.999Z</time></trkpt><trkpt lat="39.34777231074883" lon="-3.399655339566746"><ele>666.75</ele><time>2026-05-01T07:58:02.999Z</time></trkpt><trkpt lat="39.34770473187822" lon="-3.39973636277165"><ele>667.0</ele><time>2026-05-01T07:58:03.999Z</time></trkpt><trkpt lat="39.34764724404231" lon="-3.399816565536503"><ele>667.0</ele><time>2026-05-01T07:58:04.999Z</time></trkpt><trkpt lat="39.34759450135757" lon="-3.3999098487383206"><ele>667.0</ele><time>2026-05-01T07:58:05.999Z</time></trkpt><trkpt lat="39.34756363672809" lon="-3.400004908102637"><ele>667.0</ele><time>2026-05-01T07:58:06.999Z</time></trkpt><trkpt lat="39.34751923805188" lon="-3.4000961504707097"><ele>667.0</ele><time>2026-05-01T07:58:07.999Z</time></trkpt><trkpt lat="39.34750059259395" lon="-3.4002042230217437"><ele>667.0</ele><time>2026-05-01T07:58:08.999Z</time></trkpt><trkpt lat="39.347481369623836" lon="-3.400323488637454"><ele>667.0</ele><time>2026-05-01T07:58:09.999Z</time></trkpt><trkpt lat="39.347464497656404" lon="-3.40044932984915"><ele>667.6</ele><time>2026-05-01T07:58:10.999Z</time></trkpt><trkpt lat="39.34744904440368" lon="-3.400582657668928"><ele>668.2</ele><time>2026-05-01T07:58:11.999Z</time></trkpt><trkpt lat="39.347432287853046" lon="-3.400714039613264"><ele>668.8</ele><time>2026-05-01T07:58:12.999Z</time></trkpt><trkpt lat="39.3474121927504" lon="-3.4008454847268856"><ele>669.4</ele><time>2026-05-01T07:58:13.999Z</time></trkpt><trkpt lat="39.347393548283065" lon="-3.400982823925088"><ele>670.0</ele><time>2026-05-01T07:58:14.999Z</time></trkpt><trkpt lat="39.3473885233596" lon="-3.4011321395056497"><ele>670.0</ele><time>2026-05-01T07:58:15.999Z</time></trkpt><trkpt lat="39.34739245580662" lon="-3.4012827334565103"><ele>670.0</ele><time>2026-05-01T07:58:16.999Z</time></trkpt><trkpt lat="39.34740050564525" lon="-3.401439702747301"><ele>670.0</ele><time>2026-05-01T07:58:17.999Z</time></trkpt><trkpt lat="39.34739477956349" lon="-3.401601293555295"><ele>670.0</ele><time>2026-05-01T07:58:18.999Z</time></trkpt><trkpt lat="39.347379212998504" lon="-3.4017709623673267"><ele>670.25</ele><time>2026-05-01T07:58:19.999Z</time></trkpt><trkpt lat="39.34735790023221" lon="-3.4019656668223752"><ele>670.5</ele><time>2026-05-01T07:58:20.999Z</time></trkpt><trkpt lat="39.34734860343912" lon="-3.402154887450183"><ele>670.75</ele><time>2026-05-01T07:58:21.999Z</time></trkpt><trkpt lat="39.34735090126361" lon="-3.4023253444520276"><ele>671.0</ele><time>2026-05-01T07:58:22.999Z</time></trkpt><trkpt lat="39.34735679069648" lon="-3.4024817387594504"><ele>671.0</ele><time>2026-05-01T07:58:23.999Z</time></trkpt><trkpt lat="39.34736254175562" lon="-3.402658065389899"><ele>671.0</ele><time>2026-05-01T07:58:24.999Z</time></trkpt><trkpt lat="39.3473732694468" lon="-3.402844774095699"><ele>671.0</ele><time>2026-05-01T07:58:25.999Z</time></trkpt><trkpt lat="39.347392323006375" lon="-3.4030328437679267"><ele>671.0</ele><time>2026-05-01T07:58:26.999Z</time></trkpt><trkpt lat="39.34741499697101" lon="-3.403229424440423"><ele>670.6666666666666</ele><time>2026-05-01T07:58:27.999Z</time></trkpt><trkpt lat="39.34744730977449" lon="-3.4034178009142386"><ele>670.3333333333334</ele><time>2026-05-01T07:58:28.999Z</time></trkpt><trkpt lat="39.34747867200732" lon="-3.4036169540313974"><ele>670.0</ele><time>2026-05-01T07:58:29.999Z</time></trkpt><trkpt lat="39.34750500498075" lon="-3.4038010405833035"><ele>670.4</ele><time>2026-05-01T07:58:30.999Z</time></trkpt><trkpt lat="39.347525927785625" lon="-3.403952491904028"><ele>670.8</ele><time>2026-05-01T07:58:31.999Z</time></trkpt><trkpt lat="39.347531226782955" lon="-3.4040768781467756"><ele>671.2</ele><time>2026-05-01T07:58:32.999Z</time></trkpt><trkpt lat="39.347518437240986" lon="-3.404201633133128"><ele>671.6</ele><time>2026-05-01T07:58:33.999Z</time></trkpt><trkpt lat="39.34750620911655" lon="-3.4043381438635"><ele>672.0</ele><time>2026-05-01T07:58:34.998Z</time></trkpt><trkpt lat="39.347486452393994" lon="-3.4044715927614924"><ele>672.0</ele><time>2026-05-01T07:58:35.998Z</time></trkpt><trkpt lat="39.34747042059874" lon="-3.4045942285393935"><ele>672.0</ele><time>2026-05-01T07:58:36.998Z</time></trkpt><trkpt lat="39.3474371937069" lon="-3.4046973926197657"><ele>672.0</ele><time>2026-05-01T07:58:37.998Z</time></trkpt><trkpt lat="39.34741277545242" lon="-3.4047972262288337"><ele>672.0</ele><time>2026-05-01T07:58:38.998Z</time></trkpt><trkpt lat="39.34738654552365" lon="-3.4049153908479872"><ele>672.0</ele><time>2026-05-01T07:58:39.998Z</time></trkpt><trkpt lat="39.34736236785164" lon="-3.405039937064912"><ele>672.2</ele><time>2026-05-01T07:58:40.998Z</time></trkpt><trkpt lat="39.34733759575165" lon="-3.4051715187055316"><ele>672.4000000000001</ele><time>2026-05-01T07:58:41.998Z</time></trkpt><trkpt lat="39.34730793952261" lon="-3.4052986071787785"><ele>672.5999999999999</ele><time>2026-05-01T07:58:42.998Z</time></trkpt><trkpt lat="39.3472641862158" lon="-3.4054320971035184"><ele>672.8</ele><time>2026-05-01T07:58:43.998Z</time></trkpt><trkpt lat="39.34720807352129" lon="-3.405577268014597"><ele>673.0</ele><time>2026-05-01T07:58:44.998Z</time></trkpt><trkpt lat="39.34714859209511" lon="-3.4057237927671666"><ele>674.0</ele><time>2026-05-01T07:58:46Z</time></trkpt><trkpt lat="39.3470917076365" lon="-3.4058859586650025"><ele>675.0</ele><time>2026-05-01T07:58:47Z</time></trkpt><trkpt lat="39.34705866617615" lon="-3.4060609823347776"><ele>676.0</ele><time>2026-05-01T07:58:48Z</time></trkpt><trkpt lat="39.34699802066505" lon="-3.406223207339833"><ele>677.0</ele><time>2026-05-01T07:58:49Z</time></trkpt><trkpt lat="39.34694954275044" lon="-3.40637427090542"><ele>677.0</ele><time>2026-05-01T07:58:50Z</time></trkpt><trkpt lat="39.346881313283475" lon="-3.4065229405682143"><ele>677.0</ele><time>2026-05-01T07:58:51Z</time></trkpt><trkpt lat="39.346819915261584" lon="-3.406659280255154"><ele>677.0</ele><time>2026-05-01T07:58:52Z</time></trkpt><trkpt lat="39.34676160333137" lon="-3.40679267381166"><ele>677.0</ele><time>2026-05-01T07:58:53Z</time></trkpt><trkpt lat="39.34670080755081" lon="-3.4069516712209826"><ele>677.0</ele><time>2026-05-01T07:58:54Z</time></trkpt><trkpt lat="39.34666663412929" lon="-3.4071118963644555"><ele>677.0</ele><time>2026-05-01T07:58:55Z</time></trkpt><trkpt lat="39.34664819168822" lon="-3.407265959411325"><ele>677.0</ele><time>2026-05-01T07:58:56Z</time></trkpt><trkpt lat="39.34663809295794" lon="-3.407418390835374"><ele>677.0</ele><time>2026-05-01T07:58:57Z</time></trkpt><trkpt lat="39.34665168373328" lon="-3.4075777351485663"><ele>677.0</ele><time>2026-05-01T07:58:58Z</time></trkpt><trkpt lat="39.346615684707494" lon="-3.4077318354881485"><ele>677.0</ele><time>2026-05-01T07:58:59Z</time></trkpt><trkpt lat="39.34658795313746" lon="-3.4078816545344712"><ele>677.0</ele><time>2026-05-01T07:59:00Z</time></trkpt><trkpt lat="39.34655320973288" lon="-3.4080274900007694"><ele>677.0</ele><time>2026-05-01T07:59:01Z</time></trkpt><trkpt lat="39.34651247010269" lon="-3.4081654435455846"><ele>677.0</ele><time>2026-05-01T07:59:02Z</time></trkpt><trkpt lat="39.34647711763289" lon="-3.408293124177466"><ele>677.0</ele><time>2026-05-01T07:59:03Z</time></trkpt><trkpt lat="39.346453112982644" lon="-3.408390938982203"><ele>677.0</ele><time>2026-05-01T07:59:04Z</time></trkpt><trkpt lat="39.346447490922436" lon="-3.4084786498093917"><ele>677.0</ele><time>2026-05-01T07:59:05Z</time></trkpt><trkpt lat="39.34645374883008" lon="-3.408576268447431"><ele>677.0</ele><time>2026-05-01T07:59:06Z</time></trkpt><trkpt lat="39.34646522079235" lon="-3.408708784337206"><ele>677.0</ele><time>2026-05-01T07:59:07Z</time></trkpt><trkpt lat="39.34646802826405" lon="-3.408839897733023"><ele>677.2</ele><time>2026-05-01T07:59:08Z</time></trkpt><trkpt lat="39.34645435176891" lon="-3.408973398502789"><ele>677.4000000000001</ele><time>2026-05-01T07:59:09Z</time></trkpt><trkpt lat="39.346440469956526" lon="-3.40911763168409"><ele>677.5999999999999</ele><time>2026-05-01T07:59:10Z</time></trkpt><trkpt lat="39.34642805019157" lon="-3.409254162936546"><ele>677.8</ele><time>2026-05-01T07:59:11Z</time></trkpt><trkpt lat="39.34641602362564" lon="-3.409389283566042"><ele>678.0</ele><time>2026-05-01T07:59:12Z</time></trkpt><trkpt lat="39.34640624233102" lon="-3.4095110568907647"><ele>678.0</ele><time>2026-05-01T07:59:13Z</time></trkpt><trkpt lat="39.34640115540133" lon="-3.4096343346400015"><ele>678.0</ele><time>2026-05-01T07:59:14Z</time></trkpt><trkpt lat="39.346389501280015" lon="-3.409767106066081"><ele>678.0</ele><time>2026-05-01T07:59:15Z</time></trkpt><trkpt lat="39.34636760871773" lon="-3.4098993156750277"><ele>678.0</ele><time>2026-05-01T07:59:16Z</time></trkpt><trkpt lat="39.34633774272959" lon="-3.4100320312756125"><ele>678.0</ele><time>2026-05-01T07:59:17Z</time></trkpt><trkpt lat="39.34630716214248" lon="-3.410167074053643"><ele>678.4</ele><time>2026-05-01T07:59:18Z</time></trkpt><trkpt lat="39.34628140602405" lon="-3.4103011501006186"><ele>678.8</ele><time>2026-05-01T07:59:19Z</time></trkpt><trkpt lat="39.34624461983829" lon="-3.4104330751548857"><ele>679.2</ele><time>2026-05-01T07:59:20Z</time></trkpt><trkpt lat="39.346201166448736" lon="-3.4105637226307106"><ele>679.6</ele><time>2026-05-01T07:59:21Z</time></trkpt><trkpt lat="39.3461613955038" lon="-3.4106749160146195"><ele>680.0</ele><time>2026-05-01T07:59:22Z</time></trkpt><trkpt lat="39.34611311389949" lon="-3.4107930576787413"><ele>680.0</ele><time>2026-05-01T07:59:23Z</time></trkpt><trkpt lat="39.346055489803746" lon="-3.410912512846033"><ele>680.0</ele><time>2026-05-01T07:59:24Z</time></trkpt><trkpt lat="39.345984997370614" lon="-3.4110526671171835"><ele>680.0</ele><time>2026-05-01T07:59:25Z</time></trkpt><trkpt lat="39.34592857487377" lon="-3.4111574609262676"><ele>680.0</ele><time>2026-05-01T07:59:26Z</time></trkpt><trkpt lat="39.345876370872105" lon="-3.4112689695595115"><ele>680.0</ele><time>2026-05-01T07:59:27Z</time></trkpt><trkpt lat="39.34580104388951" lon="-3.411398888213584"><ele>679.8</ele><time>2026-05-01T07:59:28Z</time></trkpt><trkpt lat="39.345739656703415" lon="-3.411521358586474"><ele>679.6</ele><time>2026-05-01T07:59:29Z</time></trkpt><trkpt lat="39.3456865141797" lon="-3.4116275481964533"><ele>679.4000000000001</ele><time>2026-05-01T07:59:30Z</time></trkpt><trkpt lat="39.34563029116379" lon="-3.4117281451915584"><ele>679.2</ele><time>2026-05-01T07:59:31Z</time></trkpt><trkpt lat="39.34557173797816" lon="-3.4118210256311894"><ele>679.0</ele><time>2026-05-01T07:59:32Z</time></trkpt><trkpt lat="39.34550145938551" lon="-3.411911919035468"><ele>680.2</ele><time>2026-05-01T07:59:33Z</time></trkpt><trkpt lat="39.34544165146587" lon="-3.411990967337483"><ele>681.4000000000001</ele><time>2026-05-01T07:59:34Z</time></trkpt><trkpt lat="39.3453744891582" lon="-3.412075081772186"><ele>682.6</ele><time>2026-05-01T07:59:35Z</time></trkpt><trkpt lat="39.34530125712886" lon="-3.4121646849899365"><ele>683.8</ele><time>2026-05-01T07:59:35.999Z</time></trkpt><trkpt lat="39.34523733797309" lon="-3.412242810169468"><ele>685.0</ele><time>2026-05-01T07:59:36.999Z</time></trkpt><trkpt lat="39.34517012657539" lon="-3.412327401018648"><ele>685.0</ele><time>2026-05-01T07:59:37.999Z</time></trkpt><trkpt lat="39.345124394122244" lon="-3.4124214374579362"><ele>685.0</ele><time>2026-05-01T07:59:38.999Z</time></trkpt><trkpt lat="39.34508018204869" lon="-3.4124906439290155"><ele>685.0</ele><time>2026-05-01T07:59:39.999Z</time></trkpt><trkpt lat="39.34508179230826" lon="-3.412580084787164"><ele>685.0</ele><time>2026-05-01T07:59:40.999Z</time></trkpt><trkpt lat="39.34504633768182" lon="-3.412671777562578"><ele>685.0</ele><time>2026-05-01T07:59:41.999Z</time></trkpt><trkpt lat="39.34501162914519" lon="-3.4127425130173017"><ele>685.0</ele><time>2026-05-01T07:59:42.999Z</time></trkpt><trkpt lat="39.34492925799328" lon="-3.4127943641390712"><ele>685.0</ele><time>2026-05-01T07:59:44.999Z</time></trkpt><trkpt lat="39.344787059728844" lon="-3.4128535672946487"><ele>685.0</ele><time>2026-05-01T07:59:46.999Z</time></trkpt><trkpt lat="39.34470687419093" lon="-3.4128757606470304"><ele>685.0</ele><time>2026-05-01T07:59:47.999Z</time></trkpt><trkpt lat="39.34463023313109" lon="-3.412874803272424"><ele>685.0</ele><time>2026-05-01T07:59:48.999Z</time></trkpt><trkpt lat="39.34456238488323" lon="-3.41286858335401"><ele>685.0</ele><time>2026-05-01T07:59:49.999Z</time></trkpt><trkpt lat="39.34451103995065" lon="-3.412935403668698"><ele>685.0</ele><time>2026-05-01T07:59:50.999Z</time></trkpt><trkpt lat="39.34445717593532" lon="-3.4129835005214324"><ele>685.75</ele><time>2026-05-01T07:59:51.999Z</time></trkpt><trkpt lat="39.344374322876476" lon="-3.413067931160774"><ele>686.5</ele><time>2026-05-01T07:59:52.999Z</time></trkpt><trkpt lat="39.344264639292255" lon="-3.4131966170850307"><ele>687.25</ele><time>2026-05-01T07:59:53.999Z</time></trkpt><trkpt lat="39.34416139289373" lon="-3.41331045914276"><ele>688.0</ele><time>2026-05-01T07:59:54.999Z</time></trkpt><trkpt lat="39.34407596158836" lon="-3.4134474771481806"><ele>688.0</ele><time>2026-05-01T07:59:55.999Z</time></trkpt><trkpt lat="39.34398979392298" lon="-3.413585249739551"><ele>688.0</ele><time>2026-05-01T07:59:56.999Z</time></trkpt><trkpt lat="39.343899027560624" lon="-3.4137535540899804"><ele>688.0</ele><time>2026-05-01T07:59:57.999Z</time></trkpt><trkpt lat="39.34380863292152" lon="-3.413891846563688"><ele>688.0</ele><time>2026-05-01T07:59:58.999Z</time></trkpt><trkpt lat="39.3437296353976" lon="-3.4140325330428296"><ele>689.2</ele><time>2026-05-01T07:59:59.999Z</time></trkpt><trkpt lat="39.34366147558922" lon="-3.414155534561693"><ele>690.4</ele><time>2026-05-01T08:00:00.999Z</time></trkpt><trkpt lat="39.34358818562871" lon="-3.4142756547271507"><ele>691.6</ele><time>2026-05-01T08:00:01.999Z</time></trkpt><trkpt lat="39.3435161093292" lon="-3.414393886560147"><ele>692.8000000000001</ele><time>2026-05-01T08:00:02.999Z</time></trkpt><trkpt lat="39.34347124554891" lon="-3.4144984762443196"><ele>694.0</ele><time>2026-05-01T08:00:03.999Z</time></trkpt><trkpt lat="39.343468425018294" lon="-3.414599401393937"><ele>694.0</ele><time>2026-05-01T08:00:04.999Z</time></trkpt><trkpt lat="39.34344498482579" lon="-3.414685476164977"><ele>694.0</ele><time>2026-05-01T08:00:05.999Z</time></trkpt><trkpt lat="39.343441574316174" lon="-3.4147698495173353"><ele>694.0</ele><time>2026-05-01T08:00:06.999Z</time></trkpt><trkpt lat="39.343386346804664" lon="-3.414841625026191"><ele>694.0</ele><time>2026-05-01T08:00:07.999Z</time></trkpt><trkpt lat="39.34333341051184" lon="-3.4149255541692027"><ele>694.0</ele><time>2026-05-01T08:00:08.999Z</time></trkpt><trkpt lat="39.34327809624924" lon="-3.4149936261713103"><ele>694.0</ele><time>2026-05-01T08:00:09.999Z</time></trkpt><trkpt lat="39.34321226185387" lon="-3.4150508334201826"><ele>694.0</ele><time>2026-05-01T08:00:10.999Z</time></trkpt><trkpt lat="39.34316698410167" lon="-3.4151078652807203"><ele>694.0</ele><time>2026-05-01T08:00:11.999Z</time></trkpt><trkpt lat="39.343128547035086" lon="-3.415178354223562"><ele>694.0</ele><time>2026-05-01T08:00:12.999Z</time></trkpt><trkpt lat="39.34309548550452" lon="-3.4152636643845145"><ele>694.0</ele><time>2026-05-01T08:00:13.999Z</time></trkpt><trkpt lat="39.343074690336096" lon="-3.415384939800198"><ele>694.0</ele><time>2026-05-01T08:00:14.999Z</time></trkpt><trkpt lat="39.34302844441458" lon="-3.4154962602623513"><ele>694.0</ele><time>2026-05-01T08:00:15.999Z</time></trkpt><trkpt lat="39.34297686749924" lon="-3.4156310302660553"><ele>694.8000000000001</ele><time>2026-05-01T08:00:16.999Z</time></trkpt><trkpt lat="39.34293391609111" lon="-3.415754696034692"><ele>695.6</ele><time>2026-05-01T08:00:17.999Z</time></trkpt><trkpt lat="39.34289310732102" lon="-3.4158668741918907"><ele>696.4</ele><time>2026-05-01T08:00:18.999Z</time></trkpt><trkpt lat="39.34287418421814" lon="-3.4159787399084016"><ele>697.2</ele><time>2026-05-01T08:00:19.999Z</time></trkpt><trkpt lat="39.34284736591243" lon="-3.4161069206583226"><ele>698.0</ele><time>2026-05-01T08:00:20.999Z</time></trkpt><trkpt lat="39.342823532469964" lon="-3.4162612531996825"><ele>697.4</ele><time>2026-05-01T08:00:21.999Z</time></trkpt><trkpt lat="39.34279649799421" lon="-3.416416908575565"><ele>696.8</ele><time>2026-05-01T08:00:22.999Z</time></trkpt><trkpt lat="39.34279311521593" lon="-3.4165479669171677"><ele>696.2</ele><time>2026-05-01T08:00:23.999Z</time></trkpt><trkpt lat="39.34279501715454" lon="-3.416680409251137"><ele>695.6</ele><time>2026-05-01T08:00:24.999Z</time></trkpt><trkpt lat="39.342793890955555" lon="-3.4167875766311697"><ele>695.0</ele><time>2026-05-01T08:00:25.999Z</time></trkpt><trkpt lat="39.342772224972016" lon="-3.416917489705179"><ele>695.0</ele><time>2026-05-01T08:00:26.999Z</time></trkpt><trkpt lat="39.34274502451521" lon="-3.4170651311560296"><ele>695.0</ele><time>2026-05-01T08:00:27.999Z</time></trkpt><trkpt lat="39.342712239695096" lon="-3.417219106823436"><ele>695.0</ele><time>2026-05-01T08:00:28.999Z</time></trkpt><trkpt lat="39.34267894245681" lon="-3.4173786388608356"><ele>695.0</ele><time>2026-05-01T08:00:29.999Z</time></trkpt><trkpt lat="39.34265087010808" lon="-3.4175215432378727"><ele>694.6</ele><time>2026-05-01T08:00:30.999Z</time></trkpt><trkpt lat="39.342624522539026" lon="-3.4176453207274498"><ele>694.2</ele><time>2026-05-01T08:00:31.999Z</time></trkpt><trkpt lat="39.34259825378948" lon="-3.4177838471228648"><ele>693.8</ele><time>2026-05-01T08:00:32.999Z</time></trkpt><trkpt lat="39.342584263767776" lon="-3.4179079487246793"><ele>693.4</ele><time>2026-05-01T08:00:33.999Z</time></trkpt><trkpt lat="39.342572150184765" lon="-3.418027561759497"><ele>693.0</ele><time>2026-05-01T08:00:34.999Z</time></trkpt><trkpt lat="39.34255753986483" lon="-3.418168601462842"><ele>692.5999999999999</ele><time>2026-05-01T08:00:35.999Z</time></trkpt><trkpt lat="39.34254659078016" lon="-3.4182964887254412"><ele>692.1999999999999</ele><time>2026-05-01T08:00:36.999Z</time></trkpt><trkpt lat="39.34253312730014" lon="-3.4184370160136077"><ele>691.8</ele><time>2026-05-01T08:00:37.999Z</time></trkpt><trkpt lat="39.34251102911252" lon="-3.4185757198762747"><ele>691.4</ele><time>2026-05-01T08:00:38.999Z</time></trkpt><trkpt lat="39.3424769608464" lon="-3.4186907020109114"><ele>691.0</ele><time>2026-05-01T08:00:39.999Z</time></trkpt><trkpt lat="39.3424368785069" lon="-3.418788888138157"><ele>691.4</ele><time>2026-05-01T08:00:40.999Z</time></trkpt><trkpt lat="39.34238801847073" lon="-3.4189060123036588"><ele>691.8</ele><time>2026-05-01T08:00:41.999Z</time></trkpt><trkpt lat="39.342332078157725" lon="-3.4190370969868242"><ele>692.1999999999999</ele><time>2026-05-01T08:00:42.998Z</time></trkpt><trkpt lat="39.342277270452726" lon="-3.419164695727896"><ele>692.5999999999999</ele><time>2026-05-01T08:00:43.998Z</time></trkpt><trkpt lat="39.34222933335709" lon="-3.419284661544574"><ele>693.0</ele><time>2026-05-01T08:00:44.998Z</time></trkpt><trkpt lat="39.342173500767124" lon="-3.419426250533537"><ele>693.0</ele><time>2026-05-01T08:00:45.998Z</time></trkpt><trkpt lat="39.342118580664774" lon="-3.419563479002142"><ele>693.0</ele><time>2026-05-01T08:00:46.998Z</time></trkpt><trkpt lat="39.34207862558075" lon="-3.4196742965174476"><ele>693.0</ele><time>2026-05-01T08:00:47.998Z</time></trkpt><trkpt lat="39.34204759907142" lon="-3.4197957205258462"><ele>693.0</ele><time>2026-05-01T08:00:48.998Z</time></trkpt><trkpt lat="39.34200501575706" lon="-3.4199376312816674"><ele>693.0</ele><time>2026-05-01T08:00:49.998Z</time></trkpt><trkpt lat="39.34196296620505" lon="-3.4200840061822317"><ele>692.8</ele><time>2026-05-01T08:00:50.998Z</time></trkpt><trkpt lat="39.34192120200351" lon="-3.420208494622575"><ele>692.5999999999999</ele><time>2026-05-01T08:00:52Z</time></trkpt><trkpt lat="39.34188629283306" lon="-3.4203264181803834"><ele>692.4000000000001</ele><time>2026-05-01T08:00:53Z</time></trkpt><trkpt lat="39.34184777745865" lon="-3.4204498683693108"><ele>692.2</ele><time>2026-05-01T08:00:54Z</time></trkpt><trkpt lat="39.34181471543777" lon="-3.4205621206429444"><ele>692.0</ele><time>2026-05-01T08:00:55Z</time></trkpt><trkpt lat="39.341782983310765" lon="-3.420685134497125"><ele>692.0</ele><time>2026-05-01T08:00:56Z</time></trkpt><trkpt lat="39.34175377654468" lon="-3.4208116015723493"><ele>692.0</ele><time>2026-05-01T08:00:57Z</time></trkpt><trkpt lat="39.3417263170606" lon="-3.4209484668437597"><ele>692.0</ele><time>2026-05-01T08:00:58Z</time></trkpt><trkpt lat="39.341705508212684" lon="-3.421042472452738"><ele>692.0</ele><time>2026-05-01T08:00:59Z</time></trkpt><trkpt lat="39.34167840256217" lon="-3.4211816145142726"><ele>692.0</ele><time>2026-05-01T08:01:00Z</time></trkpt><trkpt lat="39.34165409856165" lon="-3.4212704407100945"><ele>692.2</ele><time>2026-05-01T08:01:01Z</time></trkpt><trkpt lat="39.34162471315652" lon="-3.4213708812464945"><ele>692.4000000000001</ele><time>2026-05-01T08:01:02Z</time></trkpt><trkpt lat="39.34159291455917" lon="-3.421455817149382"><ele>692.5999999999999</ele><time>2026-05-01T08:01:03Z</time></trkpt><trkpt lat="39.341579741976105" lon="-3.4215400385450945"><ele>692.8</ele><time>2026-05-01T08:01:04Z</time></trkpt><trkpt lat="39.34152009380475" lon="-3.4216675734685795"><ele>693.0</ele><time>2026-05-01T08:01:05Z</time></trkpt><trkpt lat="39.34148808339033" lon="-3.421817774564528"><ele>693.0</ele><time>2026-05-01T08:01:06Z</time></trkpt><trkpt lat="39.34144385184465" lon="-3.4219592506085115"><ele>693.0</ele><time>2026-05-01T08:01:07Z</time></trkpt><trkpt lat="39.341405088298416" lon="-3.4220727589100894"><ele>693.0</ele><time>2026-05-01T08:01:08Z</time></trkpt><trkpt lat="39.34138195367322" lon="-3.4221617718762825"><ele>693.0</ele><time>2026-05-01T08:01:09Z</time></trkpt><trkpt lat="39.34134377328073" lon="-3.4222886422405194"><ele>693.0</ele><time>2026-05-01T08:01:11Z</time></trkpt><trkpt lat="39.341353895575836" lon="-3.4224174800496256"><ele>694.0</ele><time>2026-05-01T08:01:13Z</time></trkpt><trkpt lat="39.34137259074692" lon="-3.422549702193323"><ele>695.0</ele><time>2026-05-01T08:01:15Z</time></trkpt><trkpt lat="39.34135446237042" lon="-3.422649117792285"><ele>696.0</ele><time>2026-05-01T08:01:16Z</time></trkpt><trkpt lat="39.34133002495109" lon="-3.4227522889570254"><ele>697.0</ele><time>2026-05-01T08:01:17Z</time></trkpt><trkpt lat="39.341303516433904" lon="-3.4228521406393937"><ele>698.0</ele><time>2026-05-01T08:01:18Z</time></trkpt><trkpt lat="39.341276557263825" lon="-3.4229521951133113"><ele>699.0</ele><time>2026-05-01T08:01:19Z</time></trkpt><trkpt lat="39.34126140365416" lon="-3.423064956525409"><ele>699.2</ele><time>2026-05-01T08:01:20Z</time></trkpt><trkpt lat="39.34124041446237" lon="-3.4231853237862024"><ele>699.4000000000001</ele><time>2026-05-01T08:01:21Z</time></trkpt><trkpt lat="39.34121313566513" lon="-3.4233043066978674"><ele>699.6</ele><time>2026-05-01T08:01:22Z</time></trkpt><trkpt lat="39.34118474688907" lon="-3.4234225964857012"><ele>699.8</ele><time>2026-05-01T08:01:23Z</time></trkpt><trkpt lat="39.341153602946605" lon="-3.423534400261125"><ele>700.0</ele><time>2026-05-01T08:01:24Z</time></trkpt><trkpt lat="39.34112891571855" lon="-3.42364653611176"><ele>700.0</ele><time>2026-05-01T08:01:25Z</time></trkpt><trkpt lat="39.34110699834639" lon="-3.423741083286074"><ele>700.0</ele><time>2026-05-01T08:01:26Z</time></trkpt><trkpt lat="39.34108024775106" lon="-3.4238384659267718"><ele>700.0</ele><time>2026-05-01T08:01:27Z</time></trkpt><trkpt lat="39.34105845884764" lon="-3.4239675115941157"><ele>700.0</ele><time>2026-05-01T08:01:28Z</time></trkpt><trkpt lat="39.34105730612488" lon="-3.424109483748912"><ele>700.0</ele><time>2026-05-01T08:01:29Z</time></trkpt><trkpt lat="39.34102097518532" lon="-3.4242394138749503"><ele>699.8</ele><time>2026-05-01T08:01:30Z</time></trkpt><trkpt lat="39.34099291917462" lon="-3.4243667756014435"><ele>699.6</ele><time>2026-05-01T08:01:31Z</time></trkpt><trkpt lat="39.34097544867342" lon="-3.4245138014901975"><ele>699.4000000000001</ele><time>2026-05-01T08:01:32Z</time></trkpt><trkpt lat="39.34092593102685" lon="-3.4246335131939287"><ele>699.2</ele><time>2026-05-01T08:01:33Z</time></trkpt><trkpt lat="39.340885869138575" lon="-3.42475089217266"><ele>699.0</ele><time>2026-05-01T08:01:34Z</time></trkpt><trkpt lat="39.34084196740082" lon="-3.4248633878923007"><ele>698.4000000000001</ele><time>2026-05-01T08:01:34.999Z</time></trkpt><trkpt lat="39.34078415145275" lon="-3.424978985082608"><ele>697.8</ele><time>2026-05-01T08:01:35.999Z</time></trkpt><trkpt lat="39.34073876299391" lon="-3.4251169764393032"><ele>697.2</ele><time>2026-05-01T08:01:36.999Z</time></trkpt><trkpt lat="39.34070055929736" lon="-3.4252195612723084"><ele>696.5999999999999</ele><time>2026-05-01T08:01:37.999Z</time></trkpt><trkpt lat="39.34067231432649" lon="-3.4253600410857374"><ele>696.0</ele><time>2026-05-01T08:01:39.999Z</time></trkpt><trkpt lat="39.34068633421758" lon="-3.4254577267624424"><ele>696.0</ele><time>2026-05-01T08:01:40.999Z</time></trkpt><trkpt lat="39.340704444082775" lon="-3.4255713721842262"><ele>696.0</ele><time>2026-05-01T08:01:41.999Z</time></trkpt><trkpt lat="39.340720123444655" lon="-3.4257003206024925"><ele>696.0</ele><time>2026-05-01T08:01:42.999Z</time></trkpt><trkpt lat="39.34074015003354" lon="-3.425839548181517"><ele>696.0</ele><time>2026-05-01T08:01:43.999Z</time></trkpt><trkpt lat="39.34075510234802" lon="-3.4259453999539122"><ele>696.0</ele><time>2026-05-01T08:01:44.999Z</time></trkpt><trkpt lat="39.34075715440685" lon="-3.426045882897437"><ele>696.0</ele><time>2026-05-01T08:01:45.999Z</time></trkpt><trkpt lat="39.34074609092602" lon="-3.426141650014182"><ele>696.0</ele><time>2026-05-01T08:01:46.999Z</time></trkpt><trkpt lat="39.34073619646341" lon="-3.426237767488932"><ele>696.0</ele><time>2026-05-01T08:01:47.999Z</time></trkpt><trkpt lat="39.340712649634234" lon="-3.4263331655616907"><ele>696.0</ele><time>2026-05-01T08:01:48.999Z</time></trkpt><trkpt lat="39.34068375277441" lon="-3.4264373669817525"><ele>696.0</ele><time>2026-05-01T08:01:49.999Z</time></trkpt><trkpt lat="39.34066118160386" lon="-3.4265560572734124"><ele>696.0</ele><time>2026-05-01T08:01:50.999Z</time></trkpt><trkpt lat="39.340665484655375" lon="-3.4266782295359484"><ele>696.1999999999999</ele><time>2026-05-01T08:01:51.999Z</time></trkpt><trkpt lat="39.34064947502516" lon="-3.4267966646621764"><ele>696.4</ele><time>2026-05-01T08:01:52.999Z</time></trkpt><trkpt lat="39.3406557513518" lon="-3.426899097580629"><ele>696.6</ele><time>2026-05-01T08:01:53.999Z</time></trkpt><trkpt lat="39.340671646990565" lon="-3.42703231784904"><ele>696.8</ele><time>2026-05-01T08:01:54.999Z</time></trkpt><trkpt lat="39.3406956667937" lon="-3.42718659064419"><ele>697.0</ele><time>2026-05-01T08:01:55.999Z</time></trkpt><trkpt lat="39.340722296306865" lon="-3.4273289607956734"><ele>697.0</ele><time>2026-05-01T08:01:56.999Z</time></trkpt><trkpt lat="39.34073863844627" lon="-3.427463348960724"><ele>697.0</ele><time>2026-05-01T08:01:57.999Z</time></trkpt><trkpt lat="39.34075412668151" lon="-3.4275976200014595"><ele>697.0</ele><time>2026-05-01T08:01:58.999Z</time></trkpt><trkpt lat="39.340773838762225" lon="-3.427735581461171"><ele>697.0</ele><time>2026-05-01T08:01:59.999Z</time></trkpt><trkpt lat="39.34078992478095" lon="-3.4278846114314767"><ele>697.0</ele><time>2026-05-01T08:02:00.999Z</time></trkpt><trkpt lat="39.34081244856587" lon="-3.428019542746238"><ele>697.0</ele><time>2026-05-01T08:02:01.999Z</time></trkpt><trkpt lat="39.34084184414849" lon="-3.4281654130944363"><ele>697.0</ele><time>2026-05-01T08:02:02.999Z</time></trkpt><trkpt lat="39.34086929135447" lon="-3.4283262892200566"><ele>697.0</ele><time>2026-05-01T08:02:03.999Z</time></trkpt><trkpt lat="39.34088232773164" lon="-3.428471910662521"><ele>697.0</ele><time>2026-05-01T08:02:04.999Z</time></trkpt><trkpt lat="39.34089157323836" lon="-3.428607876189878"><ele>697.0</ele><time>2026-05-01T08:02:05.999Z</time></trkpt><trkpt lat="39.34089578246598" lon="-3.4287574301534143"><ele>697.0</ele><time>2026-05-01T08:02:06.999Z</time></trkpt><trkpt lat="39.34089030524498" lon="-3.42888031173135"><ele>697.0</ele><time>2026-05-01T08:02:07.999Z</time></trkpt><trkpt lat="39.34088718672533" lon="-3.429000524504985"><ele>697.0</ele><time>2026-05-01T08:02:08.999Z</time></trkpt><trkpt lat="39.34088980987641" lon="-3.4290930884643935"><ele>697.0</ele><time>2026-05-01T08:02:09.999Z</time></trkpt><trkpt lat="39.34091190626391" lon="-3.429172907865941"><ele>697.0</ele><time>2026-05-01T08:02:10.999Z</time></trkpt><trkpt lat="39.34094935436841" lon="-3.4292590067343074"><ele>697.2</ele><time>2026-05-01T08:02:11.999Z</time></trkpt><trkpt lat="39.34100703074773" lon="-3.4293601856073153"><ele>697.4000000000001</ele><time>2026-05-01T08:02:12.999Z</time></trkpt><trkpt lat="39.34101548360916" lon="-3.429504489268706"><ele>697.5999999999999</ele><time>2026-05-01T08:02:13.999Z</time></trkpt><trkpt lat="39.34103021536476" lon="-3.429641442034312"><ele>697.8</ele><time>2026-05-01T08:02:14.999Z</time></trkpt><trkpt lat="39.34104761245267" lon="-3.4297922389920648"><ele>698.0</ele><time>2026-05-01T08:02:15.999Z</time></trkpt><trkpt lat="39.341049949762244" lon="-3.4299914469952135"><ele>697.0</ele><time>2026-05-01T08:02:17.999Z</time></trkpt><trkpt lat="39.341057147679365" lon="-3.4301242883363807"><ele>696.0</ele><time>2026-05-01T08:02:18.999Z</time></trkpt><trkpt lat="39.341068052052165" lon="-3.4302622957170597"><ele>695.0</ele><time>2026-05-01T08:02:19.999Z</time></trkpt><trkpt lat="39.34108200690164" lon="-3.430397893654773"><ele>694.0</ele><time>2026-05-01T08:02:20.999Z</time></trkpt><trkpt lat="39.34109344193995" lon="-3.430525431467511"><ele>693.0</ele><time>2026-05-01T08:02:21.999Z</time></trkpt><trkpt lat="39.34109131088101" lon="-3.430643353788914"><ele>692.6666666666666</ele><time>2026-05-01T08:02:22.999Z</time></trkpt><trkpt lat="39.34107891390135" lon="-3.4307527460626246"><ele>692.3333333333334</ele><time>2026-05-01T08:02:23.999Z</time></trkpt><trkpt lat="39.34106254012458" lon="-3.43085600730261"><ele>692.0</ele><time>2026-05-01T08:02:24.999Z</time></trkpt><trkpt lat="39.34104644912123" lon="-3.430960348091187"><ele>691.6666666666667</ele><time>2026-05-01T08:02:25.999Z</time></trkpt><trkpt lat="39.34102470378244" lon="-3.4310683955068058"><ele>691.3333333333334</ele><time>2026-05-01T08:02:26.999Z</time></trkpt><trkpt lat="39.34100487454478" lon="-3.4311732999214177"><ele>691.0</ele><time>2026-05-01T08:02:27.999Z</time></trkpt><trkpt lat="39.34099199336979" lon="-3.431262684497209"><ele>690.5999999999999</ele><time>2026-05-01T08:02:28.999Z</time></trkpt><trkpt lat="39.34096693561902" lon="-3.431427622086535"><ele>690.2</ele><time>2026-05-01T08:02:30.999Z</time></trkpt><trkpt lat="39.34096207194031" lon="-3.431538325267813"><ele>689.8</ele><time>2026-05-01T08:02:31.999Z</time></trkpt><trkpt lat="39.340946373404975" lon="-3.4316668825873182"><ele>689.4000000000001</ele><time>2026-05-01T08:02:32.999Z</time></trkpt><trkpt lat="39.340912745083074" lon="-3.431804086733358"><ele>689.0</ele><time>2026-05-01T08:02:33.999Z</time></trkpt><trkpt lat="39.34089710069306" lon="-3.4319515018061053"><ele>689.0</ele><time>2026-05-01T08:02:34.999Z</time></trkpt><trkpt lat="39.340867329696984" lon="-3.432094273237633"><ele>689.0</ele><time>2026-05-01T08:02:35.999Z</time></trkpt><trkpt lat="39.34083847702828" lon="-3.4322444187843284"><ele>689.0</ele><time>2026-05-01T08:02:36.999Z</time></trkpt><trkpt lat="39.34080725551515" lon="-3.4324049703065156"><ele>689.0</ele><time>2026-05-01T08:02:37.999Z</time></trkpt><trkpt lat="39.340770294799306" lon="-3.4325903480134667"><ele>689.0</ele><time>2026-05-01T08:02:38.999Z</time></trkpt><trkpt lat="39.34074502672653" lon="-3.43280545547144"><ele>689.0</ele><time>2026-05-01T08:02:39.999Z</time></trkpt><trkpt lat="39.34071254622868" lon="-3.433045835909053"><ele>689.0</ele><time>2026-05-01T08:02:40.999Z</time></trkpt><trkpt lat="39.3406712471675" lon="-3.4332118619318805"><ele>689.5</ele><time>2026-05-01T08:02:41.999Z</time></trkpt><trkpt lat="39.34064519088891" lon="-3.4333597872614203"><ele>690.0</ele><time>2026-05-01T08:02:42.999Z</time></trkpt><trkpt lat="39.34063537295214" lon="-3.4334665586652697"><ele>690.5</ele><time>2026-05-01T08:02:43.999Z</time></trkpt><trkpt lat="39.34062536915964" lon="-3.4335731999380483"><ele>691.0</ele><time>2026-05-01T08:02:44.999Z</time></trkpt><trkpt lat="39.340607590233624" lon="-3.4336689230687956"><ele>691.5</ele><time>2026-05-01T08:02:45.999Z</time></trkpt><trkpt lat="39.34058085973712" lon="-3.4337544081614135"><ele>692.0</ele><time>2026-05-01T08:02:46.999Z</time></trkpt><trkpt lat="39.34053770160746" lon="-3.433844914881237"><ele>692.4000000000001</ele><time>2026-05-01T08:02:47.998Z</time></trkpt><trkpt lat="39.34046996129896" lon="-3.4339561808130963"><ele>692.8000000000001</ele><time>2026-05-01T08:02:48.998Z</time></trkpt><trkpt lat="39.34040754155313" lon="-3.4340677430248343"><ele>693.2</ele><time>2026-05-01T08:02:49.998Z</time></trkpt><trkpt lat="39.340352940897354" lon="-3.43416918991547"><ele>693.6</ele><time>2026-05-01T08:02:50.998Z</time></trkpt><trkpt lat="39.340296170159554" lon="-3.434260809427367"><ele>694.0</ele><time>2026-05-01T08:02:51.998Z</time></trkpt><trkpt lat="39.340241762091225" lon="-3.434385290797844"><ele>694.0</ele><time>2026-05-01T08:02:52.998Z</time></trkpt><trkpt lat="39.34017029720834" lon="-3.4344929654338294"><ele>694.0</ele><time>2026-05-01T08:02:53.998Z</time></trkpt><trkpt lat="39.34011537581439" lon="-3.434603308428715"><ele>694.0</ele><time>2026-05-01T08:02:54.998Z</time></trkpt><trkpt lat="39.34008251459993" lon="-3.434689521007663"><ele>694.0</ele><time>2026-05-01T08:02:55.998Z</time></trkpt><trkpt lat="39.34004136291101" lon="-3.4347682544271394"><ele>694.0</ele><time>2026-05-01T08:02:56.998Z</time></trkpt><trkpt lat="39.3400109205121" lon="-3.434879439717359"><ele>694.0</ele><time>2026-05-01T08:02:58Z</time></trkpt><trkpt lat="39.33996543198996" lon="-3.4349816545794667"><ele>694.0</ele><time>2026-05-01T08:02:59Z</time></trkpt><trkpt lat="39.339920490931185" lon="-3.435082639285057"><ele>694.0</ele><time>2026-05-01T08:03:00Z</time></trkpt><trkpt lat="39.33985660701512" lon="-3.4351812783162052"><ele>694.0</ele><time>2026-05-01T08:03:01Z</time></trkpt><trkpt lat="39.33981345079266" lon="-3.435279984782266"><ele>694.0</ele><time>2026-05-01T08:03:02Z</time></trkpt><trkpt lat="39.33976881052668" lon="-3.43537635004276"><ele>694.6</ele><time>2026-05-01T08:03:03Z</time></trkpt><trkpt lat="39.339707690538695" lon="-3.4354427507617795"><ele>695.2</ele><time>2026-05-01T08:03:04Z</time></trkpt><trkpt lat="39.33964555633234" lon="-3.435560063480995"><ele>695.8000000000001</ele><time>2026-05-01T08:03:05Z</time></trkpt><trkpt lat="39.33958351605298" lon="-3.43567084098442"><ele>696.4000000000001</ele><time>2026-05-01T08:03:06Z</time></trkpt><trkpt lat="39.33952295265974" lon="-3.43578614214761"><ele>697.0</ele><time>2026-05-01T08:03:07Z</time></trkpt><trkpt lat="39.339469350292006" lon="-3.4358904090620412"><ele>697.6</ele><time>2026-05-01T08:03:08Z</time></trkpt><trkpt lat="39.339416592656136" lon="-3.4359795261497013"><ele>698.2</ele><time>2026-05-01T08:03:09Z</time></trkpt><trkpt lat="39.339352829458235" lon="-3.43608446436948"><ele>698.8</ele><time>2026-05-01T08:03:10Z</time></trkpt><trkpt lat="39.339305941020996" lon="-3.4361940599344725"><ele>699.4</ele><time>2026-05-01T08:03:11Z</time></trkpt><trkpt lat="39.339262781775524" lon="-3.436282754560189"><ele>700.0</ele><time>2026-05-01T08:03:12Z</time></trkpt><trkpt lat="39.339215442984454" lon="-3.436390381512438"><ele>700.3333333333334</ele><time>2026-05-01T08:03:13Z</time></trkpt><trkpt lat="39.339169529185554" lon="-3.4364649121741895"><ele>700.6666666666667</ele><time>2026-05-01T08:03:14Z</time></trkpt><trkpt lat="39.33913144747832" lon="-3.436555361801522"><ele>701.0</ele><time>2026-05-01T08:03:15Z</time></trkpt><trkpt lat="39.33909006354265" lon="-3.4366397878375237"><ele>701.3333333333334</ele><time>2026-05-01T08:03:16Z</time></trkpt><trkpt lat="39.339031760341605" lon="-3.436707887522217"><ele>701.6666666666666</ele><time>2026-05-01T08:03:17Z</time></trkpt><trkpt lat="39.33896607318916" lon="-3.436765512710155"><ele>702.0</ele><time>2026-05-01T08:03:18Z</time></trkpt><trkpt lat="39.3388955435682" lon="-3.4369189858131675"><ele>702.3333333333334</ele><time>2026-05-01T08:03:20Z</time></trkpt><trkpt lat="39.3388550302723" lon="-3.437010902868263"><ele>702.6666666666666</ele><time>2026-05-01T08:03:21Z</time></trkpt><trkpt lat="39.33878685064515" lon="-3.4371221173737365"><ele>703.0</ele><time>2026-05-01T08:03:23Z</time></trkpt><trkpt lat="39.33872578008153" lon="-3.437154660690457"><ele>703.3333333333333</ele><time>2026-05-01T08:03:24Z</time></trkpt><trkpt lat="39.338659450940085" lon="-3.4372301912344745"><ele>703.6666666666666</ele><time>2026-05-01T08:03:25Z</time></trkpt><trkpt lat="39.338585146075324" lon="-3.4373010807291524"><ele>704.0</ele><time>2026-05-01T08:03:26Z</time></trkpt><trkpt lat="39.33852021431293" lon="-3.4373845207560527"><ele>704.0</ele><time>2026-05-01T08:03:27Z</time></trkpt><trkpt lat="39.33844495506074" lon="-3.4374757842944743"><ele>704.0</ele><time>2026-05-01T08:03:28Z</time></trkpt><trkpt lat="39.338377448911636" lon="-3.437605099745278"><ele>704.0</ele><time>2026-05-01T08:03:29Z</time></trkpt><trkpt lat="39.33831925309493" lon="-3.437704723802447"><ele>704.0</ele><time>2026-05-01T08:03:30Z</time></trkpt><trkpt lat="39.33823417358509" lon="-3.4378144381819964"><ele>704.0</ele><time>2026-05-01T08:03:32Z</time></trkpt><trkpt lat="39.338155786014326" lon="-3.437913873019006"><ele>704.0</ele><time>2026-05-01T08:03:34Z</time></trkpt><trkpt lat="39.3380998131244" lon="-3.4379779036923566"><ele>704.0</ele><time>2026-05-01T08:03:35Z</time></trkpt><trkpt lat="39.33803738289197" lon="-3.4380643454375814"><ele>704.0</ele><time>2026-05-01T08:03:36Z</time></trkpt><trkpt lat="39.33797553159401" lon="-3.438148639256755"><ele>704.0</ele><time>2026-05-01T08:03:37Z</time></trkpt><trkpt lat="39.33791102587249" lon="-3.4382051853052475"><ele>704.0</ele><time>2026-05-01T08:03:38Z</time></trkpt><trkpt lat="39.33782270960762" lon="-3.4383206927267955"><ele>704.3333333333333</ele><time>2026-05-01T08:03:40Z</time></trkpt><trkpt lat="39.33776112465226" lon="-3.4383698783969012"><ele>704.6666666666666</ele><time>2026-05-01T08:03:41Z</time></trkpt><trkpt lat="39.33769440694553" lon="-3.4384085339865442"><ele>705.0</ele><time>2026-05-01T08:03:41.999Z</time></trkpt><trkpt lat="39.33763012440867" lon="-3.4384519570282412"><ele>705.3333333333334</ele><time>2026-05-01T08:03:42.999Z</time></trkpt><trkpt lat="39.33756421514994" lon="-3.4385316590249047"><ele>705.6666666666667</ele><time>2026-05-01T08:03:43.999Z</time></trkpt><trkpt lat="39.337478625420964" lon="-3.4385798134237255"><ele>706.0</ele><time>2026-05-01T08:03:44.999Z</time></trkpt><trkpt lat="39.33739842936333" lon="-3.4386404543126963"><ele>706.0</ele><time>2026-05-01T08:03:45.999Z</time></trkpt><trkpt lat="39.33732366366234" lon="-3.4386812537421805"><ele>706.0</ele><time>2026-05-01T08:03:46.999Z</time></trkpt><trkpt lat="39.33725427419528" lon="-3.438724840686868"><ele>706.0</ele><time>2026-05-01T08:03:47.999Z</time></trkpt><trkpt lat="39.33718026281464" lon="-3.438771364406367"><ele>706.0</ele><time>2026-05-01T08:03:48.999Z</time></trkpt><trkpt lat="39.33710763354983" lon="-3.438814848777759"><ele>706.0</ele><time>2026-05-01T08:03:49.999Z</time></trkpt><trkpt lat="39.337035034322994" lon="-3.438860622913051"><ele>706.0</ele><time>2026-05-01T08:03:50.999Z</time></trkpt><trkpt lat="39.33697176994035" lon="-3.4389035465742723"><ele>707.0</ele><time>2026-05-01T08:03:51.999Z</time></trkpt><trkpt lat="39.33691309094111" lon="-3.438957373236289"><ele>708.0</ele><time>2026-05-01T08:03:52.999Z</time></trkpt><trkpt lat="39.3368531845101" lon="-3.4390184589794957"><ele>709.0</ele><time>2026-05-01T08:03:53.999Z</time></trkpt><trkpt lat="39.33677297067569" lon="-3.4391236625065424"><ele>710.0</ele><time>2026-05-01T08:03:55.999Z</time></trkpt><trkpt lat="39.336724647601955" lon="-3.4391840499562574"><ele>711.0</ele><time>2026-05-01T08:03:56.999Z</time></trkpt><trkpt lat="39.336676279832815" lon="-3.4392444358551137"><ele>712.0</ele><time>2026-05-01T08:03:57.999Z</time></trkpt><trkpt lat="39.33662206985285" lon="-3.439308831252033"><ele>712.0</ele><time>2026-05-01T08:03:58.999Z</time></trkpt><trkpt lat="39.33655710259725" lon="-3.439369499917807"><ele>712.0</ele><time>2026-05-01T08:03:59.999Z</time></trkpt><trkpt lat="39.336459742572885" lon="-3.4394434797283227"><ele>712.0</ele><time>2026-05-01T08:04:01.999Z</time></trkpt><trkpt lat="39.33639533372163" lon="-3.439460477328092"><ele>712.0</ele><time>2026-05-01T08:04:02.999Z</time></trkpt><trkpt lat="39.33633318621877" lon="-3.4395082428185395"><ele>712.0</ele><time>2026-05-01T08:04:03.999Z</time></trkpt><trkpt lat="39.33627452413994" lon="-3.4395445018694626"><ele>712.0</ele><time>2026-05-01T08:04:04.999Z</time></trkpt><trkpt lat="39.33616745416769" lon="-3.4396249553358267"><ele>712.7142857142857</ele><time>2026-05-01T08:04:06.999Z</time></trkpt><trkpt lat="39.336116668954006" lon="-3.439691438521784"><ele>713.4285714285714</ele><time>2026-05-01T08:04:07.999Z</time></trkpt><trkpt lat="39.336062264287115" lon="-3.4397416345388994"><ele>714.1428571428571</ele><time>2026-05-01T08:04:08.999Z</time></trkpt><trkpt lat="39.33600070097253" lon="-3.4397979780267423"><ele>714.8571428571429</ele><time>2026-05-01T08:04:09.999Z</time></trkpt><trkpt lat="39.33594113833299" lon="-3.4398524903716257"><ele>715.5714285714286</ele><time>2026-05-01T08:04:10.999Z</time></trkpt><trkpt lat="39.3358778836846" lon="-3.439913833743729"><ele>716.2857142857142</ele><time>2026-05-01T08:04:11.999Z</time></trkpt><trkpt lat="39.33581066468233" lon="-3.4399588644262016"><ele>717.0</ele><time>2026-05-01T08:04:12.999Z</time></trkpt><trkpt lat="39.33575379848579" lon="-3.440024214542349"><ele>717.0</ele><time>2026-05-01T08:04:13.999Z</time></trkpt><trkpt lat="39.33568418912931" lon="-3.4400896892976474"><ele>717.0</ele><time>2026-05-01T08:04:14.999Z</time></trkpt><trkpt lat="39.33563686472963" lon="-3.4401695070212184"><ele>717.0</ele><time>2026-05-01T08:04:15.999Z</time></trkpt><trkpt lat="39.33557938019497" lon="-3.440231962805591"><ele>717.0</ele><time>2026-05-01T08:04:16.999Z</time></trkpt><trkpt lat="39.33551880096766" lon="-3.4402804060375667"><ele>717.0</ele><time>2026-05-01T08:04:17.999Z</time></trkpt><trkpt lat="39.33545178517562" lon="-3.440353525963714"><ele>717.0</ele><time>2026-05-01T08:04:18.999Z</time></trkpt><trkpt lat="39.335374807098" lon="-3.4404005337185257"><ele>717.8</ele><time>2026-05-01T08:04:19.999Z</time></trkpt><trkpt lat="39.335296480784876" lon="-3.440464175693117"><ele>718.6</ele><time>2026-05-01T08:04:20.999Z</time></trkpt><trkpt lat="39.335229804399255" lon="-3.4405291902886037"><ele>719.4</ele><time>2026-05-01T08:04:21.999Z</time></trkpt><trkpt lat="39.33515317812064" lon="-3.4405725662109203"><ele>720.1999999999999</ele><time>2026-05-01T08:04:22.999Z</time></trkpt><trkpt lat="39.33505237561694" lon="-3.4406468922930276"><ele>721.0</ele><time>2026-05-01T08:04:23.999Z</time></trkpt><trkpt lat="39.33495205628974" lon="-3.4407093860913887"><ele>721.0</ele><time>2026-05-01T08:04:24.999Z</time></trkpt><trkpt lat="39.3348583088597" lon="-3.44076575946548"><ele>721.0</ele><time>2026-05-01T08:04:25.999Z</time></trkpt><trkpt lat="39.3347760875164" lon="-3.4408382733121043"><ele>721.0</ele><time>2026-05-01T08:04:26.999Z</time></trkpt><trkpt lat="39.334681875816145" lon="-3.440872180123376"><ele>721.0</ele><time>2026-05-01T08:04:27.999Z</time></trkpt><trkpt lat="39.33459337358761" lon="-3.440928515624617"><ele>721.0</ele><time>2026-05-01T08:04:28.999Z</time></trkpt><trkpt lat="39.33452463849894" lon="-3.4409748465435697"><ele>722.4</ele><time>2026-05-01T08:04:29.999Z</time></trkpt><trkpt lat="39.33443026233591" lon="-3.4410230650412164"><ele>723.8</ele><time>2026-05-01T08:04:30.999Z</time></trkpt><trkpt lat="39.33434190224571" lon="-3.441049075022096"><ele>725.1999999999999</ele><time>2026-05-01T08:04:31.999Z</time></trkpt><trkpt lat="39.33426005568421" lon="-3.441075450723079"><ele>726.5999999999999</ele><time>2026-05-01T08:04:32.999Z</time></trkpt><trkpt lat="39.334180059344476" lon="-3.4411304235453"><ele>728.0</ele><time>2026-05-01T08:04:33.999Z</time></trkpt><trkpt lat="39.33409246883758" lon="-3.441172625937449"><ele>728.0</ele><time>2026-05-01T08:04:34.999Z</time></trkpt><trkpt lat="39.33401185586854" lon="-3.4412213745817577"><ele>728.0</ele><time>2026-05-01T08:04:35.999Z</time></trkpt><trkpt lat="39.333942475172016" lon="-3.441277125000705"><ele>728.0</ele><time>2026-05-01T08:04:36.999Z</time></trkpt><trkpt lat="39.333872963283454" lon="-3.441321180121352"><ele>728.0</ele><time>2026-05-01T08:04:37.999Z</time></trkpt><trkpt lat="39.333812670965415" lon="-3.4413913956822375"><ele>728.0</ele><time>2026-05-01T08:04:38.999Z</time></trkpt><trkpt lat="39.333750882247415" lon="-3.4414290334884607"><ele>728.0</ele><time>2026-05-01T08:04:39.999Z</time></trkpt><trkpt lat="39.33367378472293" lon="-3.4414431438353827"><ele>728.3333333333333</ele><time>2026-05-01T08:04:40.999Z</time></trkpt><trkpt lat="39.33359643461684" lon="-3.441496150258755"><ele>728.6666666666666</ele><time>2026-05-01T08:04:41.999Z</time></trkpt><trkpt lat="39.333526581846996" lon="-3.4415269265336605"><ele>729.0</ele><time>2026-05-01T08:04:42.999Z</time></trkpt><trkpt lat="39.33344266309365" lon="-3.4415739929922533"><ele>729.3333333333334</ele><time>2026-05-01T08:04:43.999Z</time></trkpt><trkpt lat="39.333358888278525" lon="-3.4416097573203945"><ele>729.6666666666667</ele><time>2026-05-01T08:04:44.999Z</time></trkpt><trkpt lat="39.33329852662327" lon="-3.4416531511504984"><ele>730.0</ele><time>2026-05-01T08:04:45.999Z</time></trkpt><trkpt lat="39.33323961618627" lon="-3.441695601450243"><ele>730.0</ele><time>2026-05-01T08:04:46.999Z</time></trkpt><trkpt lat="39.33318200366108" lon="-3.4417573235791385"><ele>730.0</ele><time>2026-05-01T08:04:47.999Z</time></trkpt><trkpt lat="39.33308199567852" lon="-3.44183104513056"><ele>730.0</ele><time>2026-05-01T08:04:48.999Z</time></trkpt><trkpt lat="39.33300647044179" lon="-3.4418883686045008"><ele>730.0</ele><time>2026-05-01T08:04:49.999Z</time></trkpt><trkpt lat="39.3329160737384" lon="-3.441956979559998"><ele>730.0</ele><time>2026-05-01T08:04:50.999Z</time></trkpt><trkpt lat="39.33282729489545" lon="-3.4420275625138492"><ele>731.0</ele><time>2026-05-01T08:04:51.999Z</time></trkpt><trkpt lat="39.33273973305366" lon="-3.4421010097131903"><ele>732.0</ele><time>2026-05-01T08:04:52.999Z</time></trkpt><trkpt lat="39.33264895055992" lon="-3.442179987151651"><ele>733.0</ele><time>2026-05-01T08:04:53.998Z</time></trkpt><trkpt lat="39.33256038380592" lon="-3.4422396339148427"><ele>734.0</ele><time>2026-05-01T08:04:54.998Z</time></trkpt><trkpt lat="39.33248941594426" lon="-3.44230866904836"><ele>735.0</ele><time>2026-05-01T08:04:55.998Z</time></trkpt><trkpt lat="39.33243458867944" lon="-3.4423895917972445"><ele>735.0</ele><time>2026-05-01T08:04:56.998Z</time></trkpt><trkpt lat="39.33237956806414" lon="-3.4424510985999692"><ele>735.0</ele><time>2026-05-01T08:04:57.998Z</time></trkpt><trkpt lat="39.33233342950009" lon="-3.44252814167804"><ele>735.0</ele><time>2026-05-01T08:04:59.998Z</time></trkpt><trkpt lat="39.33216355012889" lon="-3.4428756274059604"><ele>737.0</ele><time>2026-05-01T08:05:02.998Z</time></trkpt><trkpt lat="39.33214173197091" lon="-3.4429908171124293"><ele>739.0</ele><time>2026-05-01T08:05:04Z</time></trkpt><trkpt lat="39.33213495016971" lon="-3.443110260794759"><ele>741.0</ele><time>2026-05-01T08:05:05Z</time></trkpt><trkpt lat="39.332127838864736" lon="-3.4432256913192925"><ele>743.0</ele><time>2026-05-01T08:05:06Z</time></trkpt><trkpt lat="39.33211066078742" lon="-3.4433054245619137"><ele>745.0</ele><time>2026-05-01T08:05:07Z</time></trkpt><trkpt lat="39.33211488757777" lon="-3.4433874925159453"><ele>747.0</ele><time>2026-05-01T08:05:08Z</time></trkpt><trkpt lat="39.33211927952553" lon="-3.443470223779446"><ele>747.0</ele><time>2026-05-01T08:05:09Z</time></trkpt><trkpt lat="39.33209076081081" lon="-3.4436117460054305"><ele>747.0</ele><time>2026-05-01T08:05:11Z</time></trkpt><trkpt lat="39.33207148696777" lon="-3.443699342341898"><ele>747.0</ele><time>2026-05-01T08:05:12Z</time></trkpt><trkpt lat="39.33208145815695" lon="-3.443792747591973"><ele>747.0</ele><time>2026-05-01T08:05:13Z</time></trkpt><trkpt lat="39.332081566593146" lon="-3.443885898896921"><ele>747.0</ele><time>2026-05-01T08:05:14Z</time></trkpt><trkpt lat="39.3320895328752" lon="-3.4439723219209384"><ele>747.0</ele><time>2026-05-01T08:05:15Z</time></trkpt><trkpt lat="39.33211072810544" lon="-3.444058906436082"><ele>746.1666666666666</ele><time>2026-05-01T08:05:16Z</time></trkpt><trkpt lat="39.33210957425085" lon="-3.4441556700648692"><ele>745.3333333333334</ele><time>2026-05-01T08:05:17Z</time></trkpt><trkpt lat="39.332128033260496" lon="-3.44425213256423"><ele>744.5</ele><time>2026-05-01T08:05:18Z</time></trkpt><trkpt lat="39.332129181039946" lon="-3.4443530022096174"><ele>743.6666666666667</ele><time>2026-05-01T08:05:19Z</time></trkpt><trkpt lat="39.33213029037365" lon="-3.444451417162268"><ele>742.8333333333334</ele><time>2026-05-01T08:05:20Z</time></trkpt><trkpt lat="39.33213116563195" lon="-3.444559457112572"><ele>742.0</ele><time>2026-05-01T08:05:21Z</time></trkpt><trkpt lat="39.33213250475511" lon="-3.4446619996671686"><ele>741.0</ele><time>2026-05-01T08:05:22Z</time></trkpt><trkpt lat="39.33213093506547" lon="-3.4447551116893216"><ele>740.0</ele><time>2026-05-01T08:05:23Z</time></trkpt><trkpt lat="39.33212818531966" lon="-3.4448384208301235"><ele>739.0</ele><time>2026-05-01T08:05:24Z</time></trkpt><trkpt lat="39.33212718689722" lon="-3.4449207717372463"><ele>738.0</ele><time>2026-05-01T08:05:25Z</time></trkpt><trkpt lat="39.33211924331616" lon="-3.4450223364866845"><ele>737.0</ele><time>2026-05-01T08:05:26Z</time></trkpt><trkpt lat="39.33209660000508" lon="-3.445133577582243"><ele>736.0</ele><time>2026-05-01T08:05:27Z</time></trkpt><trkpt lat="39.33207446854535" lon="-3.4452295023790547"><ele>735.0</ele><time>2026-05-01T08:05:28Z</time></trkpt><trkpt lat="39.332044282626114" lon="-3.445318067800166"><ele>735.0</ele><time>2026-05-01T08:05:29Z</time></trkpt><trkpt lat="39.33202317562722" lon="-3.445404592173396"><ele>735.0</ele><time>2026-05-01T08:05:30Z</time></trkpt><trkpt lat="39.33196755079782" lon="-3.445486571801694"><ele>735.0</ele><time>2026-05-01T08:05:31Z</time></trkpt><trkpt lat="39.331914784882336" lon="-3.4455780609753965"><ele>735.0</ele><time>2026-05-01T08:05:32Z</time></trkpt><trkpt lat="39.33186141646456" lon="-3.4456613436686583"><ele>735.0</ele><time>2026-05-01T08:05:33Z</time></trkpt><trkpt lat="39.3317979033384" lon="-3.4457337533525108"><ele>735.0</ele><time>2026-05-01T08:05:34Z</time></trkpt><trkpt lat="39.33172243998126" lon="-3.445790644290992"><ele>735.6666666666666</ele><time>2026-05-01T08:05:35Z</time></trkpt><trkpt lat="39.33165599476941" lon="-3.445869101756043"><ele>736.3333333333334</ele><time>2026-05-01T08:05:36Z</time></trkpt><trkpt lat="39.3315887061289" lon="-3.445900531403331"><ele>737.0</ele><time>2026-05-01T08:05:37Z</time></trkpt><trkpt lat="39.331481114254686" lon="-3.4459835484597927"><ele>737.6666666666667</ele><time>2026-05-01T08:05:39Z</time></trkpt><trkpt lat="39.3314102177084" lon="-3.4460141739025945"><ele>738.3333333333334</ele><time>2026-05-01T08:05:40Z</time></trkpt><trkpt lat="39.33134327542523" lon="-3.4460417680528095"><ele>739.0</ele><time>2026-05-01T08:05:41Z</time></trkpt><trkpt lat="39.331278910974405" lon="-3.446074424645891"><ele>739.6666666666667</ele><time>2026-05-01T08:05:42Z</time></trkpt><trkpt lat="39.331217478394336" lon="-3.4461168268975895"><ele>740.3333333333334</ele><time>2026-05-01T08:05:43Z</time></trkpt><trkpt lat="39.33115160061881" lon="-3.4461666162484805"><ele>741.0</ele><time>2026-05-01T08:05:44Z</time></trkpt><trkpt lat="39.33104983548973" lon="-3.446252635623899"><ele>741.6666666666666</ele><time>2026-05-01T08:05:45.999Z</time></trkpt><trkpt lat="39.33098323583008" lon="-3.446287383399903"><ele>742.3333333333333</ele><time>2026-05-01T08:05:46.999Z</time></trkpt><trkpt lat="39.330911352731164" lon="-3.4463502066147536"><ele>743.0</ele><time>2026-05-01T08:05:47.999Z</time></trkpt><trkpt lat="39.33082771785786" lon="-3.44642725709983"><ele>743.0</ele><time>2026-05-01T08:05:48.999Z</time></trkpt><trkpt lat="39.33075059369093" lon="-3.446465603428894"><ele>743.0</ele><time>2026-05-01T08:05:49.999Z</time></trkpt><trkpt lat="39.3306957120375" lon="-3.4465221541043563"><ele>743.0</ele><time>2026-05-01T08:05:50.999Z</time></trkpt><trkpt lat="39.3306203616804" lon="-3.4465540111609743"><ele>743.0</ele><time>2026-05-01T08:05:51.999Z</time></trkpt><trkpt lat="39.33054918539112" lon="-3.4465806019512826"><ele>743.0</ele><time>2026-05-01T08:05:52.999Z</time></trkpt><trkpt lat="39.33047138197831" lon="-3.446642790094241"><ele>743.0</ele><time>2026-05-01T08:05:53.999Z</time></trkpt><trkpt lat="39.330387485459774" lon="-3.4466681946865645"><ele>740.8</ele><time>2026-05-01T08:05:54.999Z</time></trkpt><trkpt lat="39.33031086275987" lon="-3.446727491417912"><ele>738.5999999999999</ele><time>2026-05-01T08:05:55.999Z</time></trkpt><trkpt lat="39.33022266023268" lon="-3.446759427286898"><ele>736.4000000000001</ele><time>2026-05-01T08:05:56.999Z</time></trkpt><trkpt lat="39.3301382740337" lon="-3.4468214022496304"><ele>734.2</ele><time>2026-05-01T08:05:57.999Z</time></trkpt><trkpt lat="39.33004923984629" lon="-3.4468773810453865"><ele>732.0</ele><time>2026-05-01T08:05:58.999Z</time></trkpt><trkpt lat="39.32995924837799" lon="-3.4469361636276044"><ele>732.0</ele><time>2026-05-01T08:05:59.999Z</time></trkpt><trkpt lat="39.32988625918311" lon="-3.446987929034697"><ele>732.0</ele><time>2026-05-01T08:06:00.999Z</time></trkpt><trkpt lat="39.329813176581155" lon="-3.447045706356905"><ele>732.0</ele><time>2026-05-01T08:06:01.999Z</time></trkpt><trkpt lat="39.32973081824677" lon="-3.4471126845171853"><ele>732.0</ele><time>2026-05-01T08:06:02.999Z</time></trkpt><trkpt lat="39.32966105849244" lon="-3.447151584154827"><ele>732.0</ele><time>2026-05-01T08:06:03.999Z</time></trkpt><trkpt lat="39.32959933108429" lon="-3.4471993364045863"><ele>732.0</ele><time>2026-05-01T08:06:04.999Z</time></trkpt><trkpt lat="39.329481368383234" lon="-3.447258763099547"><ele>732.5</ele><time>2026-05-01T08:06:06.999Z</time></trkpt><trkpt lat="39.32940689630882" lon="-3.447283684616892"><ele>733.0</ele><time>2026-05-01T08:06:07.999Z</time></trkpt><trkpt lat="39.329332432834775" lon="-3.4473054600937854"><ele>733.5</ele><time>2026-05-01T08:06:08.999Z</time></trkpt><trkpt lat="39.32925331842115" lon="-3.4473323655488013"><ele>734.0</ele><time>2026-05-01T08:06:09.999Z</time></trkpt><trkpt lat="39.32917724192858" lon="-3.4473837594781065"><ele>734.5</ele><time>2026-05-01T08:06:10.999Z</time></trkpt><trkpt lat="39.32911047365849" lon="-3.4474162757503923"><ele>735.0</ele><time>2026-05-01T08:06:11.999Z</time></trkpt><trkpt lat="39.3290315494796" lon="-3.4474314492485862"><ele>735.0</ele><time>2026-05-01T08:06:12.999Z</time></trkpt><trkpt lat="39.32896271084494" lon="-3.447459073348756"><ele>735.0</ele><time>2026-05-01T08:06:13.999Z</time></trkpt><trkpt lat="39.328853288280676" lon="-3.4475200588932204"><ele>735.0</ele><time>2026-05-01T08:06:15.999Z</time></trkpt><trkpt lat="39.32878889246099" lon="-3.447537135798638"><ele>735.0</ele><time>2026-05-01T08:06:16.999Z</time></trkpt><trkpt lat="39.32871769118363" lon="-3.447543709004335"><ele>735.0</ele><time>2026-05-01T08:06:17.999Z</time></trkpt><trkpt lat="39.32865316264946" lon="-3.447566794811709"><ele>735.0</ele><time>2026-05-01T08:06:18.999Z</time></trkpt><trkpt lat="39.32859220685634" lon="-3.4476260621161807"><ele>733.4</ele><time>2026-05-01T08:06:19.999Z</time></trkpt><trkpt lat="39.328518187803965" lon="-3.447677933877457"><ele>731.8</ele><time>2026-05-01T08:06:20.999Z</time></trkpt><trkpt lat="39.32844154310743" lon="-3.447736917658635"><ele>730.2</ele><time>2026-05-01T08:06:21.999Z</time></trkpt><trkpt lat="39.32837715143323" lon="-3.447789661573006"><ele>728.6</ele><time>2026-05-01T08:06:22.999Z</time></trkpt><trkpt lat="39.32828742130556" lon="-3.4478886823576844"><ele>727.0</ele><time>2026-05-01T08:06:24.999Z</time></trkpt><trkpt lat="39.32819271362853" lon="-3.4479798261619816"><ele>727.0</ele><time>2026-05-01T08:06:26.999Z</time></trkpt><trkpt lat="39.32815036078825" lon="-3.448040350744775"><ele>727.0</ele><time>2026-05-01T08:06:27.999Z</time></trkpt><trkpt lat="39.32810080397386" lon="-3.4481070364573982"><ele>727.0</ele><time>2026-05-01T08:06:28.999Z</time></trkpt><trkpt lat="39.32806332827768" lon="-3.4481838226031907"><ele>727.0</ele><time>2026-05-01T08:06:29.999Z</time></trkpt><trkpt lat="39.32798454675706" lon="-3.44825365582417"><ele>727.0</ele><time>2026-05-01T08:06:30.999Z</time></trkpt><trkpt lat="39.32794249740206" lon="-3.4483191352680342"><ele>727.0</ele><time>2026-05-01T08:06:31.999Z</time></trkpt><trkpt lat="39.327893209357654" lon="-3.448391145266114"><ele>727.0</ele><time>2026-05-01T08:06:32.999Z</time></trkpt><trkpt lat="39.3277883197764" lon="-3.448480164048086"><ele>726.0</ele><time>2026-05-01T08:06:34.999Z</time></trkpt><trkpt lat="39.32768998749799" lon="-3.4485786783272014"><ele>725.0</ele><time>2026-05-01T08:06:36.999Z</time></trkpt><trkpt lat="39.327636078629425" lon="-3.448634404141895"><ele>724.0</ele><time>2026-05-01T08:06:37.999Z</time></trkpt><trkpt lat="39.32753671891871" lon="-3.4487488885594835"><ele>723.0</ele><time>2026-05-01T08:06:39.999Z</time></trkpt><trkpt lat="39.327479838712726" lon="-3.4488451287055986"><ele>722.0</ele><time>2026-05-01T08:06:40.999Z</time></trkpt><trkpt lat="39.32742211595213" lon="-3.4489172222071356"><ele>721.8</ele><time>2026-05-01T08:06:41.999Z</time></trkpt><trkpt lat="39.32737667701629" lon="-3.4489761325480903"><ele>721.6</ele><time>2026-05-01T08:06:42.999Z</time></trkpt><trkpt lat="39.32728165547171" lon="-3.4491178675489635"><ele>721.4</ele><time>2026-05-01T08:06:44.999Z</time></trkpt><trkpt lat="39.32722656713063" lon="-3.4492053255105466"><ele>721.1999999999999</ele><time>2026-05-01T08:06:45.999Z</time></trkpt><trkpt lat="39.32717469032857" lon="-3.449265692441471"><ele>721.0</ele><time>2026-05-01T08:06:46.999Z</time></trkpt><trkpt lat="39.32708766437961" lon="-3.449391718441843"><ele>720.5</ele><time>2026-05-01T08:06:48.999Z</time></trkpt><trkpt lat="39.32702923819809" lon="-3.4494699569238914"><ele>720.0</ele><time>2026-05-01T08:06:49.999Z</time></trkpt><trkpt lat="39.32698069886004" lon="-3.449536600829069"><ele>719.5</ele><time>2026-05-01T08:06:50.999Z</time></trkpt><trkpt lat="39.32692947034376" lon="-3.449609077531181"><ele>719.0</ele><time>2026-05-01T08:06:51.999Z</time></trkpt><trkpt lat="39.32686772660259" lon="-3.4496715175176407"><ele>718.5</ele><time>2026-05-01T08:06:52.999Z</time></trkpt><trkpt lat="39.326810285813494" lon="-3.4497353739038203"><ele>718.0</ele><time>2026-05-01T08:06:53.999Z</time></trkpt><trkpt lat="39.3267281811036" lon="-3.4498576048973444"><ele>717.1666666666667</ele><time>2026-05-01T08:06:55.999Z</time></trkpt><trkpt lat="39.32667434608279" lon="-3.4499275628681776"><ele>716.3333333333334</ele><time>2026-05-01T08:06:56.999Z</time></trkpt><trkpt lat="39.3266122696876" lon="-3.450011462679648"><ele>715.5</ele><time>2026-05-01T08:06:57.999Z</time></trkpt><trkpt lat="39.32654292954084" lon="-3.4500847188842605"><ele>714.6666666666666</ele><time>2026-05-01T08:06:58.999Z</time></trkpt><trkpt lat="39.32648055468184" lon="-3.4501542554310434"><ele>713.8333333333333</ele><time>2026-05-01T08:06:59.999Z</time></trkpt><trkpt lat="39.32641257310565" lon="-3.4502377758127474"><ele>713.0</ele><time>2026-05-01T08:07:00.998Z</time></trkpt><trkpt lat="39.32633014176095" lon="-3.4503393100781645"><ele>713.0</ele><time>2026-05-01T08:07:01.998Z</time></trkpt><trkpt lat="39.32627961982627" lon="-3.450410173263185"><ele>713.0</ele><time>2026-05-01T08:07:02.998Z</time></trkpt><trkpt lat="39.32620525134333" lon="-3.4504851147529707"><ele>713.0</ele><time>2026-05-01T08:07:03.998Z</time></trkpt><trkpt lat="39.32614030795057" lon="-3.450564953409111"><ele>713.0</ele><time>2026-05-01T08:07:04.998Z</time></trkpt><trkpt lat="39.32606957337715" lon="-3.450647910922387"><ele>713.0</ele><time>2026-05-01T08:07:05.998Z</time></trkpt><trkpt lat="39.32599050209195" lon="-3.4507513925200044"><ele>711.25</ele><time>2026-05-01T08:07:06.998Z</time></trkpt><trkpt lat="39.32591019312008" lon="-3.450852786616618"><ele>709.5</ele><time>2026-05-01T08:07:07.998Z</time></trkpt><trkpt lat="39.325803912414784" lon="-3.450966798425066"><ele>707.75</ele><time>2026-05-01T08:07:08.998Z</time></trkpt><trkpt lat="39.325705713554825" lon="-3.4510967816937685"><ele>706.0</ele><time>2026-05-01T08:07:10Z</time></trkpt><trkpt lat="39.32561591654752" lon="-3.4511946066600214"><ele>705.5</ele><time>2026-05-01T08:07:11Z</time></trkpt><trkpt lat="39.325532780254626" lon="-3.4512589350580583"><ele>705.0</ele><time>2026-05-01T08:07:12Z</time></trkpt><trkpt lat="39.325486348814444" lon="-3.4513367279849887"><ele>704.5</ele><time>2026-05-01T08:07:13Z</time></trkpt><trkpt lat="39.32544049808567" lon="-3.451400634610703"><ele>704.0</ele><time>2026-05-01T08:07:14Z</time></trkpt><trkpt lat="39.32540266306682" lon="-3.451477124523064"><ele>703.5</ele><time>2026-05-01T08:07:15Z</time></trkpt><trkpt lat="39.325349368379705" lon="-3.451592847720319"><ele>703.0</ele><time>2026-05-01T08:07:16Z</time></trkpt><trkpt lat="39.325295713094064" lon="-3.4516735962069096"><ele>702.1666666666667</ele><time>2026-05-01T08:07:17Z</time></trkpt><trkpt lat="39.325246520691685" lon="-3.4517335163427068"><ele>701.3333333333334</ele><time>2026-05-01T08:07:18Z</time></trkpt><trkpt lat="39.32519813808766" lon="-3.4518086929041933"><ele>700.5</ele><time>2026-05-01T08:07:19Z</time></trkpt><trkpt lat="39.32513795135744" lon="-3.451881485173608"><ele>699.6666666666666</ele><time>2026-05-01T08:07:20Z</time></trkpt><trkpt lat="39.325087276958975" lon="-3.4519469935857776"><ele>698.8333333333333</ele><time>2026-05-01T08:07:21Z</time></trkpt><trkpt lat="39.32503516782084" lon="-3.452024969032372"><ele>698.0</ele><time>2026-05-01T08:07:22Z</time></trkpt><trkpt lat="39.324972394040614" lon="-3.452097368436197"><ele>697.5999999999999</ele><time>2026-05-01T08:07:23Z</time></trkpt><trkpt lat="39.324928041271036" lon="-3.4521870426091414"><ele>697.1999999999999</ele><time>2026-05-01T08:07:24Z</time></trkpt><trkpt lat="39.32486324875232" lon="-3.4523018631594065"><ele>696.8</ele><time>2026-05-01T08:07:25Z</time></trkpt><trkpt lat="39.324812652247324" lon="-3.452407351595735"><ele>696.4</ele><time>2026-05-01T08:07:26Z</time></trkpt><trkpt lat="39.324779920193116" lon="-3.452502853815489"><ele>696.0</ele><time>2026-05-01T08:07:27Z</time></trkpt><trkpt lat="39.32473457149088" lon="-3.4525890637685555"><ele>695.6666666666666</ele><time>2026-05-01T08:07:28Z</time></trkpt><trkpt lat="39.324692425736515" lon="-3.4526691848205755"><ele>695.3333333333334</ele><time>2026-05-01T08:07:29Z</time></trkpt><trkpt lat="39.32463665694251" lon="-3.4527752039147415"><ele>695.0</ele><time>2026-05-01T08:07:30Z</time></trkpt><trkpt lat="39.32458726065123" lon="-3.452869108586137"><ele>694.6666666666667</ele><time>2026-05-01T08:07:31Z</time></trkpt><trkpt lat="39.324521598817014" lon="-3.4529578388187407"><ele>694.3333333333334</ele><time>2026-05-01T08:07:32Z</time></trkpt><trkpt lat="39.32447942988469" lon="-3.453032781167497"><ele>694.0</ele><time>2026-05-01T08:07:33Z</time></trkpt><trkpt lat="39.32444244587015" lon="-3.453108304323661"><ele>693.4000000000001</ele><time>2026-05-01T08:07:34Z</time></trkpt><trkpt lat="39.32436845892246" lon="-3.453234870583481"><ele>692.8</ele><time>2026-05-01T08:07:36Z</time></trkpt><trkpt lat="39.32431894850685" lon="-3.453357296399725"><ele>692.2</ele><time>2026-05-01T08:07:38Z</time></trkpt><trkpt lat="39.32427044509304" lon="-3.453441878948265"><ele>691.5999999999999</ele><time>2026-05-01T08:07:40Z</time></trkpt><trkpt lat="39.32420589667186" lon="-3.453544475313945"><ele>691.0</ele><time>2026-05-01T08:07:42Z</time></trkpt><trkpt lat="39.32415450211422" lon="-3.453614002881333"><ele>691.0</ele><time>2026-05-01T08:07:43Z</time></trkpt><trkpt lat="39.32408060228639" lon="-3.453676076153962"><ele>691.0</ele><time>2026-05-01T08:07:44Z</time></trkpt><trkpt lat="39.324018273081776" lon="-3.4537513587723607"><ele>691.0</ele><time>2026-05-01T08:07:45Z</time></trkpt><trkpt lat="39.32395668947182" lon="-3.453824311671965"><ele>691.0</ele><time>2026-05-01T08:07:46Z</time></trkpt><trkpt lat="39.32390289178221" lon="-3.4539198555105095"><ele>691.0</ele><time>2026-05-01T08:07:47Z</time></trkpt><trkpt lat="39.323839094587456" lon="-3.4540030821180725"><ele>691.0</ele><time>2026-05-01T08:07:48Z</time></trkpt><trkpt lat="39.323763268742475" lon="-3.4540770626266872"><ele>690.6666666666667</ele><time>2026-05-01T08:07:49Z</time></trkpt><trkpt lat="39.32371313227126" lon="-3.45417988824155"><ele>690.3333333333334</ele><time>2026-05-01T08:07:50Z</time></trkpt><trkpt lat="39.3236546434798" lon="-3.454268226982985"><ele>690.0</ele><time>2026-05-01T08:07:51Z</time></trkpt><trkpt lat="39.323606025817725" lon="-3.454352454235872"><ele>689.6666666666666</ele><time>2026-05-01T08:07:52Z</time></trkpt><trkpt lat="39.32355868048108" lon="-3.4544391748217276"><ele>689.3333333333333</ele><time>2026-05-01T08:07:53Z</time></trkpt><trkpt lat="39.32351235115353" lon="-3.454531255004314"><ele>689.0</ele><time>2026-05-01T08:07:54Z</time></trkpt><trkpt lat="39.32346806505874" lon="-3.4546257088335763"><ele>689.0</ele><time>2026-05-01T08:07:54.999Z</time></trkpt><trkpt lat="39.32342028858772" lon="-3.4547370120937737"><ele>689.0</ele><time>2026-05-01T08:07:55.999Z</time></trkpt><trkpt lat="39.32336448514399" lon="-3.4548299862924923"><ele>689.0</ele><time>2026-05-01T08:07:56.999Z</time></trkpt><trkpt lat="39.32332639731319" lon="-3.454929689099056"><ele>689.0</ele><time>2026-05-01T08:07:57.999Z</time></trkpt><trkpt lat="39.32330362299781" lon="-3.455036080944595"><ele>689.0</ele><time>2026-05-01T08:07:58.999Z</time></trkpt><trkpt lat="39.323265298694494" lon="-3.4551386199071294"><ele>689.0</ele><time>2026-05-01T08:07:59.999Z</time></trkpt><trkpt lat="39.32320689520441" lon="-3.455245410010604"><ele>689.0</ele><time>2026-05-01T08:08:00.999Z</time></trkpt><trkpt lat="39.32315555446076" lon="-3.4553834758575888"><ele>689.0</ele><time>2026-05-01T08:08:01.999Z</time></trkpt><trkpt lat="39.32308176563859" lon="-3.4555435461073225"><ele>689.0</ele><time>2026-05-01T08:08:02.999Z</time></trkpt><trkpt lat="39.32298006465791" lon="-3.455685861122677"><ele>689.0</ele><time>2026-05-01T08:08:03.999Z</time></trkpt><trkpt lat="39.32285662187034" lon="-3.4558121610017873"><ele>688.6666666666666</ele><time>2026-05-01T08:08:04.999Z</time></trkpt><trkpt lat="39.32266096210161" lon="-3.4559660069683176"><ele>688.3333333333334</ele><time>2026-05-01T08:08:05.999Z</time></trkpt><trkpt lat="39.32250026177587" lon="-3.456160117472842"><ele>688.0</ele><time>2026-05-01T08:08:06.999Z</time></trkpt><trkpt lat="39.32235633834931" lon="-3.456324939922548"><ele>687.0</ele><time>2026-05-01T08:08:07.999Z</time></trkpt><trkpt lat="39.322229499535304" lon="-3.4564715426693575"><ele>686.0</ele><time>2026-05-01T08:08:08.999Z</time></trkpt><trkpt lat="39.322110512816494" lon="-3.456609488894382"><ele>685.0</ele><time>2026-05-01T08:08:09.999Z</time></trkpt><trkpt lat="39.32199528664469" lon="-3.456745074723012"><ele>685.0</ele><time>2026-05-01T08:08:10.999Z</time></trkpt><trkpt lat="39.32188581225876" lon="-3.456874357399229"><ele>685.0</ele><time>2026-05-01T08:08:11.999Z</time></trkpt><trkpt lat="39.321783485149155" lon="-3.456992236585443"><ele>685.0</ele><time>2026-05-01T08:08:12.999Z</time></trkpt><trkpt lat="39.321678322449344" lon="-3.457095197471586"><ele>685.0</ele><time>2026-05-01T08:08:13.999Z</time></trkpt><trkpt lat="39.321577996052895" lon="-3.4571805672943867"><ele>684.8</ele><time>2026-05-01T08:08:14.999Z</time></trkpt><trkpt lat="39.32147724548689" lon="-3.4572446523390346"><ele>684.6</ele><time>2026-05-01T08:08:15.999Z</time></trkpt><trkpt lat="39.321379029427646" lon="-3.457296444303115"><ele>684.4000000000001</ele><time>2026-05-01T08:08:16.999Z</time></trkpt><trkpt lat="39.321293143139826" lon="-3.4573710340880495"><ele>684.2</ele><time>2026-05-01T08:08:17.999Z</time></trkpt><trkpt lat="39.32122735521761" lon="-3.457486320192142"><ele>684.0</ele><time>2026-05-01T08:08:18.999Z</time></trkpt><trkpt lat="39.32116650896076" lon="-3.45761617242039"><ele>684.0</ele><time>2026-05-01T08:08:19.999Z</time></trkpt><trkpt lat="39.32109997829352" lon="-3.457755235568498"><ele>684.0</ele><time>2026-05-01T08:08:20.999Z</time></trkpt><trkpt lat="39.32100559614895" lon="-3.4578853142932244"><ele>684.0</ele><time>2026-05-01T08:08:21.999Z</time></trkpt><trkpt lat="39.320909422672" lon="-3.458045602614364"><ele>684.0</ele><time>2026-05-01T08:08:22.999Z</time></trkpt><trkpt lat="39.32077210296684" lon="-3.4582106157475283"><ele>682.3333333333334</ele><time>2026-05-01T08:08:23.999Z</time></trkpt><trkpt lat="39.32065513831491" lon="-3.4583610170604073"><ele>680.6666666666667</ele><time>2026-05-01T08:08:24.999Z</time></trkpt><trkpt lat="39.320541023181555" lon="-3.458478636288068"><ele>679.0</ele><time>2026-05-01T08:08:25.999Z</time></trkpt><trkpt lat="39.32040240110413" lon="-3.4586061695600634"><ele>679.0</ele><time>2026-05-01T08:08:26.999Z</time></trkpt><trkpt lat="39.3202231584044" lon="-3.4587492421187767"><ele>679.0</ele><time>2026-05-01T08:08:27.999Z</time></trkpt><trkpt lat="39.32002818240319" lon="-3.458931232617604"><ele>679.0</ele><time>2026-05-01T08:08:28.999Z</time></trkpt><trkpt lat="39.319793065228424" lon="-3.459104287476988"><ele>679.0</ele><time>2026-05-01T08:08:29.999Z</time></trkpt><trkpt lat="39.319545688368265" lon="-3.459262278664333"><ele>677.5</ele><time>2026-05-01T08:08:30.999Z</time></trkpt><trkpt lat="39.31931347316829" lon="-3.4594098065710672"><ele>676.0</ele><time>2026-05-01T08:08:31.999Z</time></trkpt><trkpt lat="39.3191361691173" lon="-3.459519497487979"><ele>676.0</ele><time>2026-05-01T08:08:32.999Z</time></trkpt><trkpt lat="39.31896437313395" lon="-3.4595989910985603"><ele>676.0</ele><time>2026-05-01T08:08:33.999Z</time></trkpt><trkpt lat="39.31881398021321" lon="-3.4596291008506608"><ele>676.0</ele><time>2026-05-01T08:08:34.999Z</time></trkpt><trkpt lat="39.318660394337" lon="-3.4596673509329685"><ele>675.25</ele><time>2026-05-01T08:08:35.999Z</time></trkpt><trkpt lat="39.318515960058804" lon="-3.4597314657850378"><ele>674.5</ele><time>2026-05-01T08:08:36.999Z</time></trkpt><trkpt lat="39.31839310485478" lon="-3.459772754329962"><ele>673.75</ele><time>2026-05-01T08:08:37.999Z</time></trkpt><trkpt lat="39.31827285226176" lon="-3.4598118738090125"><ele>673.0</ele><time>2026-05-01T08:08:38.999Z</time></trkpt><trkpt lat="39.31815152797428" lon="-3.4598272007201034"><ele>672.5999999999999</ele><time>2026-05-01T08:08:39.999Z</time></trkpt><trkpt lat="39.31804243145304" lon="-3.459873855151156"><ele>672.1999999999999</ele><time>2026-05-01T08:08:40.999Z</time></trkpt><trkpt lat="39.31793452898274" lon="-3.4599088484854694"><ele>671.8</ele><time>2026-05-01T08:08:41.999Z</time></trkpt><trkpt lat="39.31783628214615" lon="-3.4599496153511016"><ele>671.4</ele><time>2026-05-01T08:08:42.999Z</time></trkpt><trkpt lat="39.31774664885913" lon="-3.459994833018529"><ele>671.0</ele><time>2026-05-01T08:08:43.999Z</time></trkpt><trkpt lat="39.31766447486986" lon="-3.460044453287396"><ele>671.0</ele><time>2026-05-01T08:08:44.999Z</time></trkpt><trkpt lat="39.31758145655561" lon="-3.460098376437466"><ele>671.0</ele><time>2026-05-01T08:08:45.999Z</time></trkpt><trkpt lat="39.31750037112657" lon="-3.4601573716959404"><ele>671.0</ele><time>2026-05-01T08:08:46.999Z</time></trkpt><trkpt lat="39.31743708999343" lon="-3.460207373249465"><ele>671.0</ele><time>2026-05-01T08:08:47.999Z</time></trkpt><trkpt lat="39.317375264467316" lon="-3.4602565860401273"><ele>671.0</ele><time>2026-05-01T08:08:48.999Z</time></trkpt><trkpt lat="39.31731744657733" lon="-3.460302608773842"><ele>671.0</ele><time>2026-05-01T08:08:49.999Z</time></trkpt><trkpt lat="39.31724190911726" lon="-3.460335953813201"><ele>671.0</ele><time>2026-05-01T08:08:50.999Z</time></trkpt><trkpt lat="39.317177973113466" lon="-3.4603821956344323"><ele>671.0</ele><time>2026-05-01T08:08:51.999Z</time></trkpt><trkpt lat="39.31712143152072" lon="-3.4604310249776966"><ele>671.0</ele><time>2026-05-01T08:08:52.999Z</time></trkpt><trkpt lat="39.31706497983545" lon="-3.4604764304497984"><ele>671.0</ele><time>2026-05-01T08:08:53.999Z</time></trkpt><trkpt lat="39.31700408798913" lon="-3.4605389331860184"><ele>671.0</ele><time>2026-05-01T08:08:54.999Z</time></trkpt><trkpt lat="39.316946706405524" lon="-3.4606052471595143"><ele>671.0</ele><time>2026-05-01T08:08:55.999Z</time></trkpt><trkpt lat="39.31688658464938" lon="-3.4606697651153278"><ele>671.0</ele><time>2026-05-01T08:08:56.999Z</time></trkpt><trkpt lat="39.316822828937624" lon="-3.4607423900047407"><ele>671.0</ele><time>2026-05-01T08:08:57.999Z</time></trkpt><trkpt lat="39.31678080987692" lon="-3.46083456782561"><ele>671.0</ele><time>2026-05-01T08:08:58.999Z</time></trkpt><trkpt lat="39.31673204199382" lon="-3.460922658051832"><ele>671.0</ele><time>2026-05-01T08:08:59.999Z</time></trkpt><trkpt lat="39.31668830731837" lon="-3.461032672815131"><ele>671.0</ele><time>2026-05-01T08:09:00.999Z</time></trkpt><trkpt lat="39.31664314768657" lon="-3.4611500760483143"><ele>671.0</ele><time>2026-05-01T08:09:01.999Z</time></trkpt><trkpt lat="39.316587354892214" lon="-3.461254387569832"><ele>670.75</ele><time>2026-05-01T08:09:02.999Z</time></trkpt><trkpt lat="39.31654398527828" lon="-3.461379124507375"><ele>670.5</ele><time>2026-05-01T08:09:03.999Z</time></trkpt><trkpt lat="39.31649143955122" lon="-3.4615208159846858"><ele>670.25</ele><time>2026-05-01T08:09:04.999Z</time></trkpt><trkpt lat="39.31643442166722" lon="-3.4617041818213945"><ele>670.0</ele><time>2026-05-01T08:09:05.999Z</time></trkpt><trkpt lat="39.316390476767396" lon="-3.4618878514862534"><ele>668.6666666666667</ele><time>2026-05-01T08:09:06.999Z</time></trkpt><trkpt lat="39.316346199403824" lon="-3.4621232193477147"><ele>667.3333333333334</ele><time>2026-05-01T08:09:07.999Z</time></trkpt><trkpt lat="39.316309049195496" lon="-3.4623488015601103"><ele>666.0</ele><time>2026-05-01T08:09:08.999Z</time></trkpt><trkpt lat="39.31627289834569" lon="-3.4625463841692334"><ele>666.0</ele><time>2026-05-01T08:09:09.999Z</time></trkpt><trkpt lat="39.3162136061827" lon="-3.4627350428084855"><ele>666.0</ele><time>2026-05-01T08:09:10.999Z</time></trkpt><trkpt lat="39.31612762570008" lon="-3.462912854623515"><ele>666.0</ele><time>2026-05-01T08:09:11.999Z</time></trkpt><trkpt lat="39.3160208762196" lon="-3.4630958348735095"><ele>665.3333333333334</ele><time>2026-05-01T08:09:12.999Z</time></trkpt><trkpt lat="39.31591511612455" lon="-3.4632930907870114"><ele>664.6666666666667</ele><time>2026-05-01T08:09:13.999Z</time></trkpt><trkpt lat="39.31585115701595" lon="-3.463504494251183"><ele>664.0</ele><time>2026-05-01T08:09:14.999Z</time></trkpt><trkpt lat="39.31579933304966" lon="-3.4637077276312684"><ele>663.6666666666667</ele><time>2026-05-01T08:09:16Z</time></trkpt><trkpt lat="39.31576662948209" lon="-3.463883084777645"><ele>663.3333333333334</ele><time>2026-05-01T08:09:17Z</time></trkpt><trkpt lat="39.3157416690836" lon="-3.46407558111592"><ele>663.0</ele><time>2026-05-01T08:09:18Z</time></trkpt><trkpt lat="39.31572232559838" lon="-3.4642953456177796"><ele>663.0</ele><time>2026-05-01T08:09:19Z</time></trkpt><trkpt lat="39.315714239514186" lon="-3.464502041395636"><ele>663.0</ele><time>2026-05-01T08:09:20Z</time></trkpt><trkpt lat="39.315696331442034" lon="-3.464709509457101"><ele>663.0</ele><time>2026-05-01T08:09:21Z</time></trkpt><trkpt lat="39.315711575191735" lon="-3.46492263922562"><ele>663.0</ele><time>2026-05-01T08:09:22Z</time></trkpt><trkpt lat="39.31574152287047" lon="-3.4651148681280577"><ele>663.0</ele><time>2026-05-01T08:09:23Z</time></trkpt><trkpt lat="39.315811188724" lon="-3.4653067290332094"><ele>663.0</ele><time>2026-05-01T08:09:24Z</time></trkpt><trkpt lat="39.31586679865959" lon="-3.465541688315925"><ele>663.0</ele><time>2026-05-01T08:09:25Z</time></trkpt><trkpt lat="39.31591730754272" lon="-3.465755161991247"><ele>663.0</ele><time>2026-05-01T08:09:26Z</time></trkpt><trkpt lat="39.315937642393756" lon="-3.4659592049525187"><ele>663.0</ele><time>2026-05-01T08:09:27Z</time></trkpt><trkpt lat="39.315943034988855" lon="-3.4662109650094037"><ele>662.0</ele><time>2026-05-01T08:09:28Z</time></trkpt><trkpt lat="39.315941818305205" lon="-3.4665056779027643"><ele>661.0</ele><time>2026-05-01T08:09:29Z</time></trkpt><trkpt lat="39.31593598434526" lon="-3.4667955085419195"><ele>661.0</ele><time>2026-05-01T08:09:30Z</time></trkpt><trkpt lat="39.315936322464815" lon="-3.46703417354985"><ele>661.0</ele><time>2026-05-01T08:09:31Z</time></trkpt><trkpt lat="39.31594096856079" lon="-3.4672222214364474"><ele>661.0</ele><time>2026-05-01T08:09:32Z</time></trkpt><trkpt lat="39.315954125982074" lon="-3.467405705206519"><ele>661.0</ele><time>2026-05-01T08:09:33Z</time></trkpt><trkpt lat="39.31599030942265" lon="-3.467583943468463"><ele>661.0</ele><time>2026-05-01T08:09:34Z</time></trkpt><trkpt lat="39.31605385115354" lon="-3.46777053809207"><ele>661.0</ele><time>2026-05-01T08:09:35Z</time></trkpt><trkpt lat="39.316137675283706" lon="-3.467993990860616"><ele>661.3333333333334</ele><time>2026-05-01T08:09:36Z</time></trkpt><trkpt lat="39.31623367689411" lon="-3.4682574894388107"><ele>661.6666666666666</ele><time>2026-05-01T08:09:37Z</time></trkpt><trkpt lat="39.31630415750698" lon="-3.4684741811117625"><ele>662.0</ele><time>2026-05-01T08:09:38Z</time></trkpt><trkpt lat="39.316351213049835" lon="-3.468631194481024"><ele>662.0</ele><time>2026-05-01T08:09:39Z</time></trkpt><trkpt lat="39.3163848020901" lon="-3.4687527955045696"><ele>662.0</ele><time>2026-05-01T08:09:40Z</time></trkpt><trkpt lat="39.3164008435585" lon="-3.4688349723238243"><ele>662.0</ele><time>2026-05-01T08:09:41Z</time></trkpt><trkpt lat="39.31640535614351" lon="-3.468927812953248"><ele>662.0</ele><time>2026-05-01T08:09:44Z</time></trkpt><trkpt lat="39.316320929481485" lon="-3.4689181425745224"><ele>662.0</ele><time>2026-05-01T08:09:47Z</time></trkpt><trkpt lat="39.3162499671631" lon="-3.468914800913498"><ele>662.0</ele><time>2026-05-01T08:09:48Z</time></trkpt><trkpt lat="39.31617206574703" lon="-3.468879393195442"><ele>662.0</ele><time>2026-05-01T08:09:49Z</time></trkpt><trkpt lat="39.316066646009325" lon="-3.468834256700729"><ele>662.0</ele><time>2026-05-01T08:09:50Z</time></trkpt><trkpt lat="39.31593106924971" lon="-3.4687835372699"><ele>662.0</ele><time>2026-05-01T08:09:51Z</time></trkpt><trkpt lat="39.315781162668124" lon="-3.46872977045197"><ele>662.0</ele><time>2026-05-01T08:09:52Z</time></trkpt><trkpt lat="39.3156157714022" lon="-3.4686712710179872"><ele>662.6666666666666</ele><time>2026-05-01T08:09:53Z</time></trkpt><trkpt lat="39.3154324207001" lon="-3.4686102874530733"><ele>663.3333333333334</ele><time>2026-05-01T08:09:54Z</time></trkpt><trkpt lat="39.315273301004446" lon="-3.4685622501430826"><ele>664.0</ele><time>2026-05-01T08:09:55Z</time></trkpt><trkpt lat="39.31513566575807" lon="-3.468524129650791"><ele>664.0</ele><time>2026-05-01T08:09:56Z</time></trkpt><trkpt lat="39.31501114751191" lon="-3.4684908829495527"><ele>664.0</ele><time>2026-05-01T08:09:57Z</time></trkpt><trkpt lat="39.31487283958063" lon="-3.4684600343836993"><ele>664.0</ele><time>2026-05-01T08:09:58Z</time></trkpt><trkpt lat="39.314731516104544" lon="-3.468443605148508"><ele>664.0</ele><time>2026-05-01T08:09:59Z</time></trkpt><trkpt lat="39.31456778024665" lon="-3.4684347918303056"><ele>664.25</ele><time>2026-05-01T08:09:59.999Z</time></trkpt><trkpt lat="39.314406999349366" lon="-3.4684324665496984"><ele>664.5</ele><time>2026-05-01T08:10:00.999Z</time></trkpt><trkpt lat="39.31426526090651" lon="-3.468433807234959"><ele>664.75</ele><time>2026-05-01T08:10:01.999Z</time></trkpt><trkpt lat="39.31414087335169" lon="-3.468438947553083"><ele>665.0</ele><time>2026-05-01T08:10:02.999Z</time></trkpt><trkpt lat="39.31402397859991" lon="-3.4684311443686893"><ele>665.0</ele><time>2026-05-01T08:10:03.999Z</time></trkpt><trkpt lat="39.31391185246694" lon="-3.4683982949492895"><ele>665.0</ele><time>2026-05-01T08:10:04.999Z</time></trkpt><trkpt lat="39.313819696930594" lon="-3.468329415636436"><ele>665.0</ele><time>2026-05-01T08:10:05.999Z</time></trkpt><trkpt lat="39.31374894057999" lon="-3.468217745821033"><ele>665.0</ele><time>2026-05-01T08:10:06.999Z</time></trkpt><trkpt lat="39.313650425514545" lon="-3.468132049013089"><ele>665.2</ele><time>2026-05-01T08:10:07.999Z</time></trkpt><trkpt lat="39.31354182750715" lon="-3.468016025791814"><ele>665.4</ele><time>2026-05-01T08:10:08.999Z</time></trkpt><trkpt lat="39.31343283098867" lon="-3.467903594776273"><ele>665.5999999999999</ele><time>2026-05-01T08:10:09.999Z</time></trkpt><trkpt lat="39.31334952805975" lon="-3.467850605005697"><ele>665.8</ele><time>2026-05-01T08:10:10.999Z</time></trkpt><trkpt lat="39.31327888979255" lon="-3.4678182683624588"><ele>666.0</ele><time>2026-05-01T08:10:11.999Z</time></trkpt><trkpt lat="39.31318894491899" lon="-3.4678418150980153"><ele>666.0</ele><time>2026-05-01T08:10:13.999Z</time></trkpt><trkpt lat="39.313123903603675" lon="-3.467890216688985"><ele>666.0</ele><time>2026-05-01T08:10:35.999Z</time></trkpt><trkpt lat="39.31307414957235" lon="-3.46800609304512"><ele>666.0</ele><time>2026-05-01T08:10:36.999Z</time></trkpt><trkpt lat="39.31324087387413" lon="-3.4680060222224993"><ele>666.0</ele><time>2026-05-01T08:10:37.999Z</time></trkpt><trkpt lat="39.31332697872336" lon="-3.46807269277711"><ele>666.0</ele><time>2026-05-01T08:10:38.999Z</time></trkpt><trkpt lat="39.313414958388655" lon="-3.4681781924485646"><ele>666.0</ele><time>2026-05-01T08:10:39.999Z</time></trkpt><trkpt lat="39.313473567702815" lon="-3.468276985198236"><ele>666.0</ele><time>2026-05-01T08:10:40.999Z</time></trkpt><trkpt lat="39.31351603316598" lon="-3.468391763360177"><ele>666.0</ele><time>2026-05-01T08:10:41.999Z</time></trkpt><trkpt lat="39.31354900009642" lon="-3.4685276666685123"><ele>666.0</ele><time>2026-05-01T08:10:42.999Z</time></trkpt><trkpt lat="39.31357429059677" lon="-3.4686946174804447"><ele>666.0</ele><time>2026-05-01T08:10:43.999Z</time></trkpt><trkpt lat="39.31360176654031" lon="-3.468874759179028"><ele>666.3333333333334</ele><time>2026-05-01T08:10:44.999Z</time></trkpt><trkpt lat="39.31363792859651" lon="-3.4690837620337285"><ele>666.6666666666667</ele><time>2026-05-01T08:10:45.999Z</time></trkpt><trkpt lat="39.31367365017079" lon="-3.469299863092607"><ele>667.0</ele><time>2026-05-01T08:10:46.999Z</time></trkpt><trkpt lat="39.3137046732754" lon="-3.469513718500273"><ele>667.0</ele><time>2026-05-01T08:10:47.999Z</time></trkpt><trkpt lat="39.31373069587277" lon="-3.469712396199663"><ele>667.0</ele><time>2026-05-01T08:10:48.999Z</time></trkpt><trkpt lat="39.31373611767116" lon="-3.4698863217245854"><ele>667.0</ele><time>2026-05-01T08:10:49.999Z</time></trkpt><trkpt lat="39.3137117958023" lon="-3.4700613682804686"><ele>667.0</ele><time>2026-05-01T08:10:50.999Z</time></trkpt><trkpt lat="39.313667443251944" lon="-3.470236826271388"><ele>667.0</ele><time>2026-05-01T08:10:51.999Z</time></trkpt><trkpt lat="39.31359813794651" lon="-3.470411944778863"><ele>667.0</ele><time>2026-05-01T08:10:52.999Z</time></trkpt><trkpt lat="39.313504621309356" lon="-3.4706109949612753"><ele>667.0</ele><time>2026-05-01T08:10:53.999Z</time></trkpt><trkpt lat="39.31340248260136" lon="-3.470839630696523"><ele>666.6666666666667</ele><time>2026-05-01T08:10:54.999Z</time></trkpt><trkpt lat="39.313314402359445" lon="-3.471082577460501"><ele>666.3333333333334</ele><time>2026-05-01T08:10:55.999Z</time></trkpt><trkpt lat="39.313207190069534" lon="-3.4713582098212648"><ele>666.0</ele><time>2026-05-01T08:10:56.999Z</time></trkpt><trkpt lat="39.31315264570914" lon="-3.471573132600443"><ele>666.0</ele><time>2026-05-01T08:10:57.999Z</time></trkpt><trkpt lat="39.31309872609705" lon="-3.4717397852017244"><ele>666.0</ele><time>2026-05-01T08:10:58.999Z</time></trkpt><trkpt lat="39.31305991196289" lon="-3.471862416092021"><ele>666.0</ele><time>2026-05-01T08:10:59.999Z</time></trkpt><trkpt lat="39.31302764778921" lon="-3.471962300067283"><ele>666.0</ele><time>2026-05-01T08:11:00.999Z</time></trkpt><trkpt lat="39.313002019784925" lon="-3.4720391484458446"><ele>666.0</ele><time>2026-05-01T08:11:01.999Z</time></trkpt><trkpt lat="39.312964696967875" lon="-3.4721432033001407"><ele>665.8</ele><time>2026-05-01T08:11:48Z</time></trkpt><trkpt lat="39.31293113722773" lon="-3.472218870308319"><ele>665.5999999999999</ele><time>2026-05-01T08:11:51Z</time></trkpt><trkpt lat="39.31304717061752" lon="-3.472330695250637"><ele>665.4</ele><time>2026-05-01T08:11:53Z</time></trkpt><trkpt lat="39.31315195103546" lon="-3.4723956920147776"><ele>665.2</ele><time>2026-05-01T08:11:54Z</time></trkpt><trkpt lat="39.313240973193615" lon="-3.4724497840337194"><ele>665.0</ele><time>2026-05-01T08:11:55Z</time></trkpt><trkpt lat="39.3133178696659" lon="-3.4725079149161733"><ele>665.0</ele><time>2026-05-01T08:11:56Z</time></trkpt><trkpt lat="39.31338066557202" lon="-3.4725496768557"><ele>665.0</ele><time>2026-05-01T08:11:57Z</time></trkpt><trkpt lat="39.31344833807776" lon="-3.472597116076936"><ele>665.0</ele><time>2026-05-01T08:11:58Z</time></trkpt><trkpt lat="39.31351998426973" lon="-3.472644403035624"><ele>665.0</ele><time>2026-05-01T08:11:59Z</time></trkpt><trkpt lat="39.31359651409113" lon="-3.4726793285409143"><ele>665.0</ele><time>2026-05-01T08:12:00Z</time></trkpt><trkpt lat="39.313669989416965" lon="-3.4726887272362794"><ele>665.0</ele><time>2026-05-01T08:12:01Z</time></trkpt><trkpt lat="39.31373360742611" lon="-3.4726841580352055"><ele>665.0</ele><time>2026-05-01T08:12:02Z</time></trkpt><trkpt lat="39.313857590203376" lon="-3.47265879922266"><ele>665.0</ele><time>2026-05-01T08:12:04Z</time></trkpt><trkpt lat="39.31392510003213" lon="-3.4726295666290037"><ele>665.0</ele><time>2026-05-01T08:12:05Z</time></trkpt><trkpt lat="39.31399072480651" lon="-3.472594309400443"><ele>665.0</ele><time>2026-05-01T08:12:06Z</time></trkpt><trkpt lat="39.31406040813839" lon="-3.4725679671824494"><ele>665.0</ele><time>2026-05-01T08:12:07Z</time></trkpt><trkpt lat="39.31412703094507" lon="-3.4725623073889054"><ele>665.0</ele><time>2026-05-01T08:12:08Z</time></trkpt><trkpt lat="39.31419060929179" lon="-3.4725782266907066"><ele>665.0</ele><time>2026-05-01T08:12:09Z</time></trkpt><trkpt lat="39.31426595515584" lon="-3.472620937499113"><ele>665.0</ele><time>2026-05-01T08:12:10Z</time></trkpt><trkpt lat="39.31433857941375" lon="-3.472700435323136"><ele>665.0</ele><time>2026-05-01T08:12:11Z</time></trkpt><trkpt lat="39.31437061946555" lon="-3.4727858794127373"><ele>665.0</ele><time>2026-05-01T08:12:11.999Z</time></trkpt><trkpt lat="39.314381356831476" lon="-3.4728882377719095"><ele>665.0</ele><time>2026-05-01T08:12:12.999Z</time></trkpt><trkpt lat="39.31438119024761" lon="-3.4729768895977693"><ele>665.0</ele><time>2026-05-01T08:12:13.999Z</time></trkpt><trkpt lat="39.31439047953959" lon="-3.4730645709422667"><ele>665.0</ele><time>2026-05-01T08:12:14.999Z</time></trkpt><trkpt lat="39.3144259047062" lon="-3.473179182351755"><ele>665.0</ele><time>2026-05-01T08:12:15.999Z</time></trkpt><trkpt lat="39.31450176696434" lon="-3.47329291639786"><ele>665.75</ele><time>2026-05-01T08:12:16.999Z</time></trkpt><trkpt lat="39.31461501577711" lon="-3.4733920799753077"><ele>666.5</ele><time>2026-05-01T08:12:17.999Z</time></trkpt><trkpt lat="39.314753352497426" lon="-3.4734770300097497"><ele>667.25</ele><time>2026-05-01T08:12:18.999Z</time></trkpt><trkpt lat="39.31490234578525" lon="-3.473550778829624"><ele>668.0</ele><time>2026-05-01T08:12:19.999Z</time></trkpt><trkpt lat="39.315032362031886" lon="-3.4736173549418243"><ele>668.0</ele><time>2026-05-01T08:12:20.999Z</time></trkpt><trkpt lat="39.315161132869015" lon="-3.473704752700049"><ele>668.0</ele><time>2026-05-01T08:12:21.999Z</time></trkpt><trkpt lat="39.3153057799525" lon="-3.4738153270656693"><ele>668.0</ele><time>2026-05-01T08:12:22.999Z</time></trkpt><trkpt lat="39.31545392043044" lon="-3.4739212496777037"><ele>668.3333333333333</ele><time>2026-05-01T08:12:23.999Z</time></trkpt><trkpt lat="39.315609075969725" lon="-3.474022335814468"><ele>668.6666666666666</ele><time>2026-05-01T08:12:24.999Z</time></trkpt><trkpt lat="39.31576866286059" lon="-3.47412716767461"><ele>669.0</ele><time>2026-05-01T08:12:25.999Z</time></trkpt><trkpt lat="39.31593209506045" lon="-3.4742377987147393"><ele>669.0</ele><time>2026-05-01T08:12:26.999Z</time></trkpt><trkpt lat="39.316096187368025" lon="-3.4743453390899157"><ele>669.0</ele><time>2026-05-01T08:12:27.999Z</time></trkpt><trkpt lat="39.31625383301507" lon="-3.4744489681670347"><ele>669.0</ele><time>2026-05-01T08:12:28.999Z</time></trkpt><trkpt lat="39.31640474499008" lon="-3.474548940751882"><ele>669.6666666666666</ele><time>2026-05-01T08:12:29.999Z</time></trkpt><trkpt lat="39.31658572078001" lon="-3.4746692363973044"><ele>670.3333333333333</ele><time>2026-05-01T08:12:30.999Z</time></trkpt><trkpt lat="39.316795848674104" lon="-3.474806261581411"><ele>671.0</ele><time>2026-05-01T08:12:31.999Z</time></trkpt><trkpt lat="39.31701832610113" lon="-3.474955908291205"><ele>671.5</ele><time>2026-05-01T08:12:32.999Z</time></trkpt><trkpt lat="39.31725461059573" lon="-3.4751206202247578"><ele>672.0</ele><time>2026-05-01T08:12:33.999Z</time></trkpt><trkpt lat="39.31746840364147" lon="-3.4752659786332027"><ele>672.0</ele><time>2026-05-01T08:12:34.999Z</time></trkpt><trkpt lat="39.31764723560036" lon="-3.4753816080750264"><ele>672.0</ele><time>2026-05-01T08:12:35.999Z</time></trkpt><trkpt lat="39.31781434288459" lon="-3.47548838025194"><ele>672.0</ele><time>2026-05-01T08:12:36.999Z</time></trkpt><trkpt lat="39.317966479411865" lon="-3.4755886789240105"><ele>672.0</ele><time>2026-05-01T08:12:37.999Z</time></trkpt><trkpt lat="39.31810861602423" lon="-3.4756878031239418"><ele>672.0</ele><time>2026-05-01T08:12:38.999Z</time></trkpt><trkpt lat="39.31824531898669" lon="-3.475780287692809"><ele>672.0</ele><time>2026-05-01T08:12:39.999Z</time></trkpt><trkpt lat="39.31836835785611" lon="-3.4758623089537055"><ele>672.0</ele><time>2026-05-01T08:12:40.999Z</time></trkpt><trkpt lat="39.31848307444983" lon="-3.47594200407852"><ele>672.0</ele><time>2026-05-01T08:12:41.999Z</time></trkpt><trkpt lat="39.31859164696831" lon="-3.4760155904793457"><ele>672.0</ele><time>2026-05-01T08:12:42.999Z</time></trkpt><trkpt lat="39.3187148315803" lon="-3.4760977461554554"><ele>672.0</ele><time>2026-05-01T08:12:43.999Z</time></trkpt><trkpt lat="39.318873941928054" lon="-3.4761989748487"><ele>672.0</ele><time>2026-05-01T08:12:44.999Z</time></trkpt><trkpt lat="39.319054083461914" lon="-3.476313699107898"><ele>672.0</ele><time>2026-05-01T08:12:45.999Z</time></trkpt><trkpt lat="39.31922499727337" lon="-3.4764210750003666"><ele>672.0</ele><time>2026-05-01T08:12:46.999Z</time></trkpt><trkpt lat="39.319372417446324" lon="-3.4765033275071264"><ele>672.0</ele><time>2026-05-01T08:12:47.999Z</time></trkpt><trkpt lat="39.31951263775739" lon="-3.4765865088668"><ele>672.0</ele><time>2026-05-01T08:12:48.999Z</time></trkpt><trkpt lat="39.319638785752105" lon="-3.4766657427245375"><ele>672.0</ele><time>2026-05-01T08:12:49.999Z</time></trkpt><trkpt lat="39.319751844029334" lon="-3.4767449007599427"><ele>672.0</ele><time>2026-05-01T08:12:50.999Z</time></trkpt><trkpt lat="39.319850817390204" lon="-3.4768248456411235"><ele>672.2</ele><time>2026-05-01T08:12:51.999Z</time></trkpt><trkpt lat="39.31992477356015" lon="-3.476916493036605"><ele>672.4000000000001</ele><time>2026-05-01T08:12:52.999Z</time></trkpt><trkpt lat="39.32000433042578" lon="-3.4769458159790023"><ele>672.5999999999999</ele><time>2026-05-01T08:12:53.999Z</time></trkpt><trkpt lat="39.32000318792041" lon="-3.477131057806683"><ele>672.8</ele><time>2026-05-01T08:12:54.999Z</time></trkpt><trkpt lat="39.32002307066279" lon="-3.4772632399405814"><ele>673.0</ele><time>2026-05-01T08:12:55.999Z</time></trkpt><trkpt lat="39.32008867803171" lon="-3.4773960605726657"><ele>673.0</ele><time>2026-05-01T08:12:56.999Z</time></trkpt><trkpt lat="39.320149813793144" lon="-3.4775517251946946"><ele>673.0</ele><time>2026-05-01T08:12:57.999Z</time></trkpt><trkpt lat="39.320231841383176" lon="-3.4777166512488296"><ele>673.0</ele><time>2026-05-01T08:12:58.999Z</time></trkpt><trkpt lat="39.32027775522101" lon="-3.477892685980736"><ele>673.0</ele><time>2026-05-01T08:12:59.999Z</time></trkpt><trkpt lat="39.32029286829444" lon="-3.478075115443522"><ele>673.5</ele><time>2026-05-01T08:13:00.999Z</time></trkpt><trkpt lat="39.320287401165466" lon="-3.478281661800596"><ele>674.0</ele><time>2026-05-01T08:13:01.999Z</time></trkpt><trkpt lat="39.320275972575025" lon="-3.4784730485430275"><ele>674.5</ele><time>2026-05-01T08:13:02.999Z</time></trkpt><trkpt lat="39.3202893438166" lon="-3.478622467410258"><ele>675.0</ele><time>2026-05-01T08:13:03.999Z</time></trkpt><trkpt lat="39.32028409787094" lon="-3.4787443770584514"><ele>675.4</ele><time>2026-05-01T08:13:04.999Z</time></trkpt><trkpt lat="39.32027219107879" lon="-3.4788604485187995"><ele>675.8</ele><time>2026-05-01T08:13:05.999Z</time></trkpt><trkpt lat="39.32025499673798" lon="-3.478993802434351"><ele>676.2</ele><time>2026-05-01T08:13:06.999Z</time></trkpt><trkpt lat="39.32020471549461" lon="-3.4791272714459622"><ele>676.6</ele><time>2026-05-01T08:13:07.999Z</time></trkpt><trkpt lat="39.32017034633452" lon="-3.479230548346278"><ele>677.0</ele><time>2026-05-01T08:13:08.999Z</time></trkpt><trkpt lat="39.32012637852533" lon="-3.4793690912024418"><ele>677.0</ele><time>2026-05-01T08:13:10.999Z</time></trkpt><trkpt lat="39.32010140036878" lon="-3.4794702923778624"><ele>677.0</ele><time>2026-05-01T08:13:11.999Z</time></trkpt><trkpt lat="39.32007532180786" lon="-3.479596489729667"><ele>677.0</ele><time>2026-05-01T08:13:12.999Z</time></trkpt><trkpt lat="39.32004864832547" lon="-3.4797348347440096"><ele>677.0</ele><time>2026-05-01T08:13:13.999Z</time></trkpt><trkpt lat="39.32002162310947" lon="-3.479877449322676"><ele>677.0</ele><time>2026-05-01T08:13:14.999Z</time></trkpt><trkpt lat="39.31997698420902" lon="-3.480023132004487"><ele>677.25</ele><time>2026-05-01T08:13:15.999Z</time></trkpt><trkpt lat="39.319959038726445" lon="-3.480207713886046"><ele>677.5</ele><time>2026-05-01T08:13:16.999Z</time></trkpt><trkpt lat="39.31991985237121" lon="-3.4804133789552383"><ele>677.75</ele><time>2026-05-01T08:13:17.999Z</time></trkpt><trkpt lat="39.319888336635955" lon="-3.480578966650742"><ele>678.0</ele><time>2026-05-01T08:13:18.999Z</time></trkpt><trkpt lat="39.31986337913234" lon="-3.4807100966901348"><ele>678.0</ele><time>2026-05-01T08:13:19.999Z</time></trkpt><trkpt lat="39.31983374139074" lon="-3.480808152197471"><ele>678.0</ele><time>2026-05-01T08:13:20.999Z</time></trkpt><trkpt lat="39.319819802069716" lon="-3.4808924163493478"><ele>678.0</ele><time>2026-05-01T08:13:21.999Z</time></trkpt><trkpt lat="39.31979404700226" lon="-3.481011554137955"><ele>678.0</ele><time>2026-05-01T08:13:23.999Z</time></trkpt><trkpt lat="39.31980791222225" lon="-3.481091658787798"><ele>678.0</ele><time>2026-05-01T08:13:25.999Z</time></trkpt><trkpt lat="39.31990845206724" lon="-3.4811007845160846"><ele>678.0</ele><time>2026-05-01T08:13:26.999Z</time></trkpt><trkpt lat="39.32000218613098" lon="-3.48114639205483"><ele>678.0</ele><time>2026-05-01T08:13:28Z</time></trkpt><trkpt lat="39.32011152821454" lon="-3.4811849941277226"><ele>678.0</ele><time>2026-05-01T08:13:29Z</time></trkpt><trkpt lat="39.32021729438263" lon="-3.481216770665436"><ele>678.0</ele><time>2026-05-01T08:13:30Z</time></trkpt><trkpt lat="39.32030064043602" lon="-3.481231856848266"><ele>678.0</ele><time>2026-05-01T08:13:31Z</time></trkpt><trkpt lat="39.320391050912974" lon="-3.4812676873148214"><ele>678.0</ele><time>2026-05-01T08:13:33Z</time></trkpt><trkpt lat="39.320477367189085" lon="-3.4812763632157497"><ele>678.2</ele><time>2026-05-01T08:13:38Z</time></trkpt><trkpt lat="39.32043349235288" lon="-3.4814772775720337"><ele>678.4</ele><time>2026-05-01T08:13:39Z</time></trkpt><trkpt lat="39.320399300719636" lon="-3.481593863399804"><ele>678.6</ele><time>2026-05-01T08:13:40Z</time></trkpt><trkpt lat="39.320380525386994" lon="-3.48169832652343"><ele>678.8000000000001</ele><time>2026-05-01T08:13:41Z</time></trkpt><trkpt lat="39.32035832417927" lon="-3.481814296947526"><ele>679.0</ele><time>2026-05-01T08:13:42Z</time></trkpt><trkpt lat="39.320356419523854" lon="-3.4819424360819307"><ele>679.0</ele><time>2026-05-01T08:13:43Z</time></trkpt><trkpt lat="39.320339322164514" lon="-3.482061186172901"><ele>679.0</ele><time>2026-05-01T08:13:44Z</time></trkpt><trkpt lat="39.32033412660706" lon="-3.4821578481246718"><ele>679.0</ele><time>2026-05-01T08:13:45Z</time></trkpt><trkpt lat="39.32032398093666" lon="-3.4822512902928278"><ele>679.0</ele><time>2026-05-01T08:13:46Z</time></trkpt><trkpt lat="39.3203151003346" lon="-3.4823330806424018"><ele>679.0</ele><time>2026-05-01T08:13:47Z</time></trkpt><trkpt lat="39.320291429732684" lon="-3.4824639256546153"><ele>679.0</ele><time>2026-05-01T08:13:49Z</time></trkpt><trkpt lat="39.32025935441475" lon="-3.482558943287776"><ele>679.2</ele><time>2026-05-01T08:13:53Z</time></trkpt><trkpt lat="39.32015979285475" lon="-3.482594843412641"><ele>679.4000000000001</ele><time>2026-05-01T08:13:55Z</time></trkpt><trkpt lat="39.32014254295845" lon="-3.4827141886825137"><ele>679.6</ele><time>2026-05-01T08:13:57Z</time></trkpt><trkpt lat="39.32007285153873" lon="-3.4828592089794683"><ele>679.8</ele><time>2026-05-01T08:13:59Z</time></trkpt><trkpt lat="39.320028058950946" lon="-3.482959372652422"><ele>680.0</ele><time>2026-05-01T08:14:00Z</time></trkpt><trkpt lat="39.319969795045466" lon="-3.4830631162116092"><ele>680.0</ele><time>2026-05-01T08:14:01Z</time></trkpt><trkpt lat="39.319924918094884" lon="-3.4832000576476627"><ele>680.0</ele><time>2026-05-01T08:14:02Z</time></trkpt><trkpt lat="39.319870087551735" lon="-3.4833293775426983"><ele>680.0</ele><time>2026-05-01T08:14:03Z</time></trkpt><trkpt lat="39.31982388375841" lon="-3.4834387991219153"><ele>680.0</ele><time>2026-05-01T08:14:04Z</time></trkpt><trkpt lat="39.319776157811575" lon="-3.4835517212178515"><ele>680.0</ele><time>2026-05-01T08:14:05Z</time></trkpt><trkpt lat="39.31973623657838" lon="-3.483644985010065"><ele>680.0</ele><time>2026-05-01T08:14:06Z</time></trkpt><trkpt lat="39.31970481361212" lon="-3.483718395209785"><ele>680.0</ele><time>2026-05-01T08:14:07Z</time></trkpt><trkpt lat="39.31967328349929" lon="-3.483792055730897"><ele>680.0</ele><time>2026-05-01T08:14:08Z</time></trkpt><trkpt lat="39.31963719646101" lon="-3.4838763631221425"><ele>680.0</ele><time>2026-05-01T08:14:09Z</time></trkpt><trkpt lat="39.31960159938774" lon="-3.4839651536163787"><ele>680.0</ele><time>2026-05-01T08:14:10Z</time></trkpt><trkpt lat="39.31956026161764" lon="-3.4840755064424798"><ele>680.0</ele><time>2026-05-01T08:14:11Z</time></trkpt><trkpt lat="39.31951865928496" lon="-3.4842011063769407"><ele>680.25</ele><time>2026-05-01T08:14:12Z</time></trkpt><trkpt lat="39.31948073006429" lon="-3.484333279655032"><ele>680.5</ele><time>2026-05-01T08:14:13Z</time></trkpt><trkpt lat="39.31944813983288" lon="-3.484487228270413"><ele>680.75</ele><time>2026-05-01T08:14:14Z</time></trkpt><trkpt lat="39.31939626434958" lon="-3.484656472835724"><ele>681.0</ele><time>2026-05-01T08:14:15Z</time></trkpt><trkpt lat="39.319390033528336" lon="-3.484822058779781"><ele>681.0</ele><time>2026-05-01T08:14:16Z</time></trkpt><trkpt lat="39.319397755121635" lon="-3.4849864873050866"><ele>681.0</ele><time>2026-05-01T08:14:17Z</time></trkpt><trkpt lat="39.319416611086574" lon="-3.485160493948446"><ele>681.0</ele><time>2026-05-01T08:14:18Z</time></trkpt><trkpt lat="39.31946267374309" lon="-3.4853376335879034"><ele>681.0</ele><time>2026-05-01T08:14:19Z</time></trkpt><trkpt lat="39.31949114517509" lon="-3.4855345105317803"><ele>680.6666666666666</ele><time>2026-05-01T08:14:20Z</time></trkpt><trkpt lat="39.31953260137993" lon="-3.485731493216619"><ele>680.3333333333333</ele><time>2026-05-01T08:14:21Z</time></trkpt><trkpt lat="39.31959483912533" lon="-3.4859672990625894"><ele>680.0</ele><time>2026-05-01T08:14:22Z</time></trkpt><trkpt lat="39.31966283717049" lon="-3.4861809981077796"><ele>680.6666666666666</ele><time>2026-05-01T08:14:22.999Z</time></trkpt><trkpt lat="39.319733554574825" lon="-3.4864157334152805"><ele>681.3333333333334</ele><time>2026-05-01T08:14:23.999Z</time></trkpt><trkpt lat="39.319783792842635" lon="-3.486671183835771"><ele>682.0</ele><time>2026-05-01T08:14:24.999Z</time></trkpt><trkpt lat="39.3198284857347" lon="-3.486887145751531"><ele>682.6666666666667</ele><time>2026-05-01T08:14:25.999Z</time></trkpt><trkpt lat="39.319859364484095" lon="-3.4871278096396057"><ele>683.3333333333334</ele><time>2026-05-01T08:14:26.999Z</time></trkpt><trkpt lat="39.31987769546072" lon="-3.4873655473172804"><ele>684.0</ele><time>2026-05-01T08:14:27.999Z</time></trkpt><trkpt lat="39.319888673070224" lon="-3.48763169819514"><ele>685.0</ele><time>2026-05-01T08:14:28.999Z</time></trkpt><trkpt lat="39.319916778026986" lon="-3.4879280107820945"><ele>686.0</ele><time>2026-05-01T08:14:29.999Z</time></trkpt><trkpt lat="39.31993833051363" lon="-3.4882392174946824"><ele>686.0</ele><time>2026-05-01T08:14:30.999Z</time></trkpt><trkpt lat="39.31995815857807" lon="-3.488551153889123"><ele>686.0</ele><time>2026-05-01T08:14:31.999Z</time></trkpt><trkpt lat="39.31997098683759" lon="-3.48881508875955"><ele>686.0</ele><time>2026-05-01T08:14:32.999Z</time></trkpt><trkpt lat="39.319978493947204" lon="-3.4890536703869266"><ele>686.3333333333333</ele><time>2026-05-01T08:14:33.999Z</time></trkpt><trkpt lat="39.31996781449962" lon="-3.489283733241504"><ele>686.6666666666666</ele><time>2026-05-01T08:14:34.999Z</time></trkpt><trkpt lat="39.31998893796607" lon="-3.489488937432479"><ele>687.0</ele><time>2026-05-01T08:14:35.999Z</time></trkpt><trkpt lat="39.31999372660751" lon="-3.489688509928229"><ele>687.0</ele><time>2026-05-01T08:14:36.999Z</time></trkpt><trkpt lat="39.31999788486964" lon="-3.489861810589631"><ele>687.0</ele><time>2026-05-01T08:14:37.999Z</time></trkpt><trkpt lat="39.32000226524897" lon="-3.490044368282075"><ele>687.0</ele><time>2026-05-01T08:14:38.999Z</time></trkpt><trkpt lat="39.320006758840975" lon="-3.4902316441213594"><ele>687.0</ele><time>2026-05-01T08:14:39.999Z</time></trkpt><trkpt lat="39.320012458760125" lon="-3.4904173044770332"><ele>687.0</ele><time>2026-05-01T08:14:40.999Z</time></trkpt><trkpt lat="39.3200008578826" lon="-3.4905967549865458"><ele>687.0</ele><time>2026-05-01T08:14:41.999Z</time></trkpt><trkpt lat="39.32001179515218" lon="-3.490771039900825"><ele>687.0</ele><time>2026-05-01T08:14:42.999Z</time></trkpt><trkpt lat="39.319990830050415" lon="-3.49093536666468"><ele>687.0</ele><time>2026-05-01T08:14:43.999Z</time></trkpt><trkpt lat="39.31996284314347" lon="-3.4910916649206882"><ele>687.5</ele><time>2026-05-01T08:14:44.999Z</time></trkpt><trkpt lat="39.31993066860235" lon="-3.4912584613842257"><ele>688.0</ele><time>2026-05-01T08:14:45.999Z</time></trkpt><trkpt lat="39.31989724744367" lon="-3.4914265027881433"><ele>688.5</ele><time>2026-05-01T08:14:46.999Z</time></trkpt><trkpt lat="39.319860594167665" lon="-3.4915977960223508"><ele>689.0</ele><time>2026-05-01T08:14:47.999Z</time></trkpt><trkpt lat="39.31982338621527" lon="-3.4917700147880724"><ele>689.0</ele><time>2026-05-01T08:14:48.999Z</time></trkpt><trkpt lat="39.31978187392556" lon="-3.491956604194854"><ele>689.0</ele><time>2026-05-01T08:14:49.999Z</time></trkpt><trkpt lat="39.319738484114275" lon="-3.4921512272601043"><ele>689.0</ele><time>2026-05-01T08:14:50.999Z</time></trkpt><trkpt lat="39.31969371040543" lon="-3.4923461771669806"><ele>689.3333333333333</ele><time>2026-05-01T08:14:51.999Z</time></trkpt><trkpt lat="39.31964844766403" lon="-3.492539074649258"><ele>689.6666666666666</ele><time>2026-05-01T08:14:52.999Z</time></trkpt><trkpt lat="39.31959643585154" lon="-3.492748005500333"><ele>690.0</ele><time>2026-05-01T08:14:53.999Z</time></trkpt><trkpt lat="39.31952830753788" lon="-3.492967067214141"><ele>690.0</ele><time>2026-05-01T08:14:54.999Z</time></trkpt><trkpt lat="39.319479187366724" lon="-3.4931649821560917"><ele>690.0</ele><time>2026-05-01T08:14:55.999Z</time></trkpt><trkpt lat="39.319430821281706" lon="-3.4933445987281484"><ele>690.0</ele><time>2026-05-01T08:14:56.999Z</time></trkpt><trkpt lat="39.3193763783129" lon="-3.4935262242825185"><ele>690.0</ele><time>2026-05-01T08:14:57.999Z</time></trkpt><trkpt lat="39.31932140224544" lon="-3.493713707397748"><ele>690.0</ele><time>2026-05-01T08:14:58.999Z</time></trkpt><trkpt lat="39.31928136278039" lon="-3.49392552482325"><ele>690.0</ele><time>2026-05-01T08:14:59.999Z</time></trkpt><trkpt lat="39.3192336296153" lon="-3.494125086957835"><ele>690.0</ele><time>2026-05-01T08:15:00.999Z</time></trkpt><trkpt lat="39.31918368991433" lon="-3.494313044452045"><ele>690.0</ele><time>2026-05-01T08:15:01.999Z</time></trkpt><trkpt lat="39.31911247834034" lon="-3.494484137560208"><ele>690.0</ele><time>2026-05-01T08:15:02.999Z</time></trkpt><trkpt lat="39.319053523918704" lon="-3.4946389575512304"><ele>690.0</ele><time>2026-05-01T08:15:03.999Z</time></trkpt><trkpt lat="39.31898289789937" lon="-3.4948212321147114"><ele>690.0</ele><time>2026-05-01T08:15:04.999Z</time></trkpt><trkpt lat="39.31890915027775" lon="-3.4950215373050457"><ele>690.0</ele><time>2026-05-01T08:15:05.999Z</time></trkpt><trkpt lat="39.31884210459571" lon="-3.4952202820917138"><ele>690.0</ele><time>2026-05-01T08:15:06.999Z</time></trkpt><trkpt lat="39.31880824614761" lon="-3.4954152125407982"><ele>690.6666666666666</ele><time>2026-05-01T08:15:07.999Z</time></trkpt><trkpt lat="39.3187519654936" lon="-3.495610244882386"><ele>691.3333333333333</ele><time>2026-05-01T08:15:08.999Z</time></trkpt><trkpt lat="39.3187352026043" lon="-3.4958241851553242"><ele>692.0</ele><time>2026-05-01T08:15:09.999Z</time></trkpt><trkpt lat="39.3187106415776" lon="-3.496048562706881"><ele>692.0</ele><time>2026-05-01T08:15:10.999Z</time></trkpt><trkpt lat="39.31868409182969" lon="-3.496246750725052"><ele>692.0</ele><time>2026-05-01T08:15:11.999Z</time></trkpt><trkpt lat="39.318662283368944" lon="-3.4964188724908456"><ele>692.0</ele><time>2026-05-01T08:15:12.999Z</time></trkpt><trkpt lat="39.318642690340724" lon="-3.496583928521138"><ele>692.0</ele><time>2026-05-01T08:15:13.999Z</time></trkpt><trkpt lat="39.31862517743578" lon="-3.4967383124154408"><ele>692.4000000000001</ele><time>2026-05-01T08:15:14.999Z</time></trkpt><trkpt lat="39.31860868792924" lon="-3.49688396130092"><ele>692.8000000000001</ele><time>2026-05-01T08:15:15.999Z</time></trkpt><trkpt lat="39.31858660409718" lon="-3.4970244599967124"><ele>693.2</ele><time>2026-05-01T08:15:16.999Z</time></trkpt><trkpt lat="39.3185822794017" lon="-3.4971541861933257"><ele>693.6</ele><time>2026-05-01T08:15:17.999Z</time></trkpt><trkpt lat="39.31859182814763" lon="-3.497276810283176"><ele>694.0</ele><time>2026-05-01T08:15:18.999Z</time></trkpt><trkpt lat="39.31860862038214" lon="-3.497405876927443"><ele>694.2</ele><time>2026-05-01T08:15:19.999Z</time></trkpt><trkpt lat="39.31863120769667" lon="-3.4975372408696668"><ele>694.4000000000001</ele><time>2026-05-01T08:15:20.999Z</time></trkpt><trkpt lat="39.31865260698685" lon="-3.4976698443854324"><ele>694.6</ele><time>2026-05-01T08:15:21.999Z</time></trkpt><trkpt lat="39.31866663655283" lon="-3.4977972657402665"><ele>694.8</ele><time>2026-05-01T08:15:22.999Z</time></trkpt><trkpt lat="39.31866699815081" lon="-3.497912781165266"><ele>695.0</ele><time>2026-05-01T08:15:23.999Z</time></trkpt><trkpt lat="39.31865921438637" lon="-3.4980346920518377"><ele>695.0</ele><time>2026-05-01T08:15:24.999Z</time></trkpt><trkpt lat="39.318644827212985" lon="-3.4981624464216257"><ele>695.0</ele><time>2026-05-01T08:15:25.999Z</time></trkpt><trkpt lat="39.318616905727204" lon="-3.498296094939463"><ele>695.0</ele><time>2026-05-01T08:15:26.999Z</time></trkpt><trkpt lat="39.318584383116225" lon="-3.4984223542569826"><ele>695.0</ele><time>2026-05-01T08:15:27.999Z</time></trkpt><trkpt lat="39.3185468824993" lon="-3.498555560174941"><ele>695.0</ele><time>2026-05-01T08:15:28.999Z</time></trkpt><trkpt lat="39.31849523972243" lon="-3.4986798548942297"><ele>695.25</ele><time>2026-05-01T08:15:29.999Z</time></trkpt><trkpt lat="39.3184293086927" lon="-3.498840608297152"><ele>695.5</ele><time>2026-05-01T08:15:30.999Z</time></trkpt><trkpt lat="39.31839214207638" lon="-3.4990237002628"><ele>695.75</ele><time>2026-05-01T08:15:31.999Z</time></trkpt><trkpt lat="39.31836271868113" lon="-3.4991920566366006"><ele>696.0</ele><time>2026-05-01T08:15:32.999Z</time></trkpt><trkpt lat="39.31833766685956" lon="-3.499359047487639"><ele>696.0</ele><time>2026-05-01T08:15:34Z</time></trkpt><trkpt lat="39.3183142698447" lon="-3.499540910731998"><ele>696.0</ele><time>2026-05-01T08:15:35Z</time></trkpt><trkpt lat="39.318296730645876" lon="-3.499721349577085"><ele>696.0</ele><time>2026-05-01T08:15:36Z</time></trkpt><trkpt lat="39.31828622208676" lon="-3.4998953515011784"><ele>696.0</ele><time>2026-05-01T08:15:37Z</time></trkpt><trkpt lat="39.31827811862816" lon="-3.5000961957767753"><ele>696.5</ele><time>2026-05-01T08:15:38Z</time></trkpt><trkpt lat="39.31825498295972" lon="-3.5003055439990227"><ele>697.0</ele><time>2026-05-01T08:15:39Z</time></trkpt><trkpt lat="39.31824279924773" lon="-3.50048728355438"><ele>697.5</ele><time>2026-05-01T08:15:40Z</time></trkpt><trkpt lat="39.31821151736581" lon="-3.500668965336199"><ele>698.0</ele><time>2026-05-01T08:15:41Z</time></trkpt><trkpt lat="39.31816025514384" lon="-3.5008477350468534"><ele>698.6666666666666</ele><time>2026-05-01T08:15:42Z</time></trkpt><trkpt lat="39.31810976187938" lon="-3.5010420882927704"><ele>699.3333333333334</ele><time>2026-05-01T08:15:43Z</time></trkpt><trkpt lat="39.318044919275835" lon="-3.50122999181854"><ele>700.0</ele><time>2026-05-01T08:15:44Z</time></trkpt><trkpt lat="39.31797392681588" lon="-3.501432797803297"><ele>700.0</ele><time>2026-05-01T08:15:45Z</time></trkpt><trkpt lat="39.317914350463596" lon="-3.501609661432169"><ele>700.0</ele><time>2026-05-01T08:15:46Z</time></trkpt><trkpt lat="39.31784965912212" lon="-3.5017680290721227"><ele>700.0</ele><time>2026-05-01T08:15:47Z</time></trkpt><trkpt lat="39.317814622115066" lon="-3.5019235513139253"><ele>700.0</ele><time>2026-05-01T08:15:48Z</time></trkpt><trkpt lat="39.31775446413014" lon="-3.5020786907252845"><ele>700.75</ele><time>2026-05-01T08:15:49Z</time></trkpt><trkpt lat="39.31766473690051" lon="-3.502223860309184"><ele>701.5</ele><time>2026-05-01T08:15:50Z</time></trkpt><trkpt lat="39.31760645462487" lon="-3.502378770454796"><ele>702.25</ele><time>2026-05-01T08:15:51Z</time></trkpt><trkpt lat="39.317540629691166" lon="-3.5025150892140244"><ele>703.0</ele><time>2026-05-01T08:15:52Z</time></trkpt><trkpt lat="39.31747823081916" lon="-3.502650979233646"><ele>703.0</ele><time>2026-05-01T08:15:53Z</time></trkpt><trkpt lat="39.317419147398596" lon="-3.5027933215660467"><ele>703.0</ele><time>2026-05-01T08:15:54Z</time></trkpt><trkpt lat="39.31736570793094" lon="-3.502945790710975"><ele>703.0</ele><time>2026-05-01T08:15:55Z</time></trkpt><trkpt lat="39.31731584226313" lon="-3.503102843186316"><ele>703.0</ele><time>2026-05-01T08:15:56Z</time></trkpt><trkpt lat="39.317270919856256" lon="-3.5032640549730956"><ele>703.3333333333334</ele><time>2026-05-01T08:15:57Z</time></trkpt><trkpt lat="39.317225868617335" lon="-3.5034565743497796"><ele>703.6666666666666</ele><time>2026-05-01T08:15:58Z</time></trkpt><trkpt lat="39.31718393251884" lon="-3.5036639658977844"><ele>704.0</ele><time>2026-05-01T08:15:59Z</time></trkpt><trkpt lat="39.317150585823505" lon="-3.5038691137140257"><ele>704.5</ele><time>2026-05-01T08:16:00Z</time></trkpt><trkpt lat="39.31712446692625" lon="-3.5040663700660706"><ele>705.0</ele><time>2026-05-01T08:16:01Z</time></trkpt><trkpt lat="39.31710079002649" lon="-3.5042479881996504"><ele>705.5</ele><time>2026-05-01T08:16:02Z</time></trkpt><trkpt lat="39.31707945279447" lon="-3.5044189332503852"><ele>706.0</ele><time>2026-05-01T08:16:03Z</time></trkpt><trkpt lat="39.31704750091699" lon="-3.5045822037554974"><ele>706.1999999999999</ele><time>2026-05-01T08:16:04Z</time></trkpt><trkpt lat="39.317041594171535" lon="-3.5047372846111053"><ele>706.4</ele><time>2026-05-01T08:16:05Z</time></trkpt><trkpt lat="39.3170297535534" lon="-3.5048823021977404"><ele>706.6</ele><time>2026-05-01T08:16:06Z</time></trkpt><trkpt lat="39.317025082290954" lon="-3.5050247545587605"><ele>706.8</ele><time>2026-05-01T08:16:07Z</time></trkpt><trkpt lat="39.31702209728902" lon="-3.50515818904517"><ele>707.0</ele><time>2026-05-01T08:16:08Z</time></trkpt><trkpt lat="39.317021041937046" lon="-3.5052968006599383"><ele>707.25</ele><time>2026-05-01T08:16:09Z</time></trkpt><trkpt lat="39.31702712131851" lon="-3.5054343220743185"><ele>707.5</ele><time>2026-05-01T08:16:10Z</time></trkpt><trkpt lat="39.31704165635862" lon="-3.5055803437364745"><ele>707.75</ele><time>2026-05-01T08:16:11Z</time></trkpt><trkpt lat="39.3170630307074" lon="-3.5057288309482613"><ele>708.0</ele><time>2026-05-01T08:16:12Z</time></trkpt><trkpt lat="39.31708754084605" lon="-3.505875264120226"><ele>708.0</ele><time>2026-05-01T08:16:13Z</time></trkpt><trkpt lat="39.31711453530871" lon="-3.5060255443638084"><ele>708.0</ele><time>2026-05-01T08:16:14Z</time></trkpt><trkpt lat="39.31714436247935" lon="-3.5061771455616024"><ele>708.0</ele><time>2026-05-01T08:16:15Z</time></trkpt><trkpt lat="39.31719049007271" lon="-3.5063278177710635"><ele>708.0</ele><time>2026-05-01T08:16:16Z</time></trkpt><trkpt lat="39.31724021643588" lon="-3.5064810608843056"><ele>708.8</ele><time>2026-05-01T08:16:17Z</time></trkpt><trkpt lat="39.31729686655606" lon="-3.5066004444333996"><ele>709.5999999999999</ele><time>2026-05-01T08:16:18Z</time></trkpt><trkpt lat="39.317351756759244" lon="-3.5066975762019075"><ele>710.4000000000001</ele><time>2026-05-01T08:16:19Z</time></trkpt><trkpt lat="39.31742776644649" lon="-3.5068075751779655"><ele>711.2</ele><time>2026-05-01T08:16:20Z</time></trkpt><trkpt lat="39.317510647952346" lon="-3.5069199157543354"><ele>712.0</ele><time>2026-05-01T08:16:21Z</time></trkpt><trkpt lat="39.31759929275927" lon="-3.5070345449280986"><ele>711.5</ele><time>2026-05-01T08:16:22Z</time></trkpt><trkpt lat="39.3176822824546" lon="-3.507170386142519"><ele>711.0</ele><time>2026-05-01T08:16:23Z</time></trkpt><trkpt lat="39.31776248466415" lon="-3.5073396931655196"><ele>710.5</ele><time>2026-05-01T08:16:24Z</time></trkpt><trkpt lat="39.31782793576082" lon="-3.5074926551695644"><ele>710.0</ele><time>2026-05-01T08:16:25Z</time></trkpt><trkpt lat="39.31788448316765" lon="-3.5076318803290296"><ele>710.0</ele><time>2026-05-01T08:16:26Z</time></trkpt><trkpt lat="39.31791998014239" lon="-3.5077552489273756"><ele>710.0</ele><time>2026-05-01T08:16:27Z</time></trkpt><trkpt lat="39.317928506400776" lon="-3.507865782077812"><ele>710.0</ele><time>2026-05-01T08:16:28Z</time></trkpt><trkpt lat="39.317920772880264" lon="-3.5079742367661186"><ele>710.0</ele><time>2026-05-01T08:16:29Z</time></trkpt><trkpt lat="39.317900279696914" lon="-3.5080966920511507"><ele>710.0</ele><time>2026-05-01T08:16:30Z</time></trkpt><trkpt lat="39.317866553722205" lon="-3.508257199214479"><ele>710.0</ele><time>2026-05-01T08:16:31Z</time></trkpt><trkpt lat="39.317827304588725" lon="-3.50845593850829"><ele>710.0</ele><time>2026-05-01T08:16:32Z</time></trkpt><trkpt lat="39.3177881402166" lon="-3.508687764779289"><ele>710.0</ele><time>2026-05-01T08:16:32.999Z</time></trkpt><trkpt lat="39.31774539413811" lon="-3.5089492049669406"><ele>710.3333333333333</ele><time>2026-05-01T08:16:33.999Z</time></trkpt><trkpt lat="39.317711802781574" lon="-3.5091889538515746"><ele>710.6666666666666</ele><time>2026-05-01T08:16:34.999Z</time></trkpt><trkpt lat="39.31767956636863" lon="-3.509427769628013"><ele>711.0</ele><time>2026-05-01T08:16:35.999Z</time></trkpt><trkpt lat="39.317644704789075" lon="-3.509668486906458"><ele>711.3333333333334</ele><time>2026-05-01T08:16:36.999Z</time></trkpt><trkpt lat="39.31761264165007" lon="-3.5099281950604175"><ele>711.6666666666667</ele><time>2026-05-01T08:16:37.999Z</time></trkpt><trkpt lat="39.317577396069325" lon="-3.510185667977515"><ele>712.0</ele><time>2026-05-01T08:16:38.999Z</time></trkpt><trkpt lat="39.31753700968426" lon="-3.5104566040411807"><ele>712.5</ele><time>2026-05-01T08:16:39.999Z</time></trkpt><trkpt lat="39.31749049988372" lon="-3.5107445296962694"><ele>713.0</ele><time>2026-05-01T08:16:40.999Z</time></trkpt><trkpt lat="39.31744377826512" lon="-3.5110311966638204"><ele>713.3333333333333</ele><time>2026-05-01T08:16:41.999Z</time></trkpt><trkpt lat="39.317402152830574" lon="-3.5113050189540775"><ele>713.6666666666666</ele><time>2026-05-01T08:16:42.999Z</time></trkpt><trkpt lat="39.31736671038441" lon="-3.511559639983383"><ele>714.0</ele><time>2026-05-01T08:16:43.999Z</time></trkpt><trkpt lat="39.31733331346267" lon="-3.51180965909595"><ele>714.0</ele><time>2026-05-01T08:16:44.999Z</time></trkpt><trkpt lat="39.31728940286665" lon="-3.5120718719876587"><ele>714.0</ele><time>2026-05-01T08:16:45.999Z</time></trkpt><trkpt lat="39.31724835759446" lon="-3.5123424952717026"><ele>714.0</ele><time>2026-05-01T08:16:46.999Z</time></trkpt><trkpt lat="39.31720551520094" lon="-3.5126354087997798"><ele>714.0</ele><time>2026-05-01T08:16:47.999Z</time></trkpt><trkpt lat="39.317187182106004" lon="-3.5127696671609145"><ele>714.0</ele><time>2026-05-01T08:16:48.999Z</time></trkpt><trkpt lat="39.31714997328443" lon="-3.5130155449138023"><ele>714.0</ele><time>2026-05-01T08:16:49.999Z</time></trkpt><trkpt lat="39.31710763823426" lon="-3.5132914072035097"><ele>715.0</ele><time>2026-05-01T08:16:50.999Z</time></trkpt><trkpt lat="39.317078703609255" lon="-3.5136016722274976"><ele>716.0</ele><time>2026-05-01T08:16:51.999Z</time></trkpt><trkpt lat="39.31701784592775" lon="-3.5138975787297615"><ele>716.0</ele><time>2026-05-01T08:16:52.999Z</time></trkpt><trkpt lat="39.31697533685098" lon="-3.514218573829886"><ele>716.0</ele><time>2026-05-01T08:16:53.999Z</time></trkpt><trkpt lat="39.31693231208017" lon="-3.5145312557807027"><ele>716.3333333333333</ele><time>2026-05-01T08:16:54.999Z</time></trkpt><trkpt lat="39.3168862536918" lon="-3.514830489210247"><ele>716.6666666666666</ele><time>2026-05-01T08:16:55.999Z</time></trkpt><trkpt lat="39.31684862250949" lon="-3.5150837934092265"><ele>717.0</ele><time>2026-05-01T08:16:56.999Z</time></trkpt><trkpt lat="39.31681449192161" lon="-3.515296910182995"><ele>717.25</ele><time>2026-05-01T08:16:57.999Z</time></trkpt><trkpt lat="39.31678190112865" lon="-3.5154952903761636"><ele>717.5</ele><time>2026-05-01T08:16:58.999Z</time></trkpt><trkpt lat="39.31675018901691" lon="-3.5156728826660273"><ele>717.75</ele><time>2026-05-01T08:16:59.999Z</time></trkpt><trkpt lat="39.3167614118159" lon="-3.5158178551441366"><ele>718.0</ele><time>2026-05-01T08:17:00.999Z</time></trkpt><trkpt lat="39.31677312602085" lon="-3.515932728746927"><ele>718.0</ele><time>2026-05-01T08:17:01.999Z</time></trkpt><trkpt lat="39.31678950968279" lon="-3.516013380776643"><ele>718.0</ele><time>2026-05-01T08:17:02.999Z</time></trkpt><trkpt lat="39.31685538312057" lon="-3.5161680786557117"><ele>718.0</ele><time>2026-05-01T08:17:04.999Z</time></trkpt><trkpt lat="39.31691019765425" lon="-3.516273915614277"><ele>718.0</ele><time>2026-05-01T08:17:05.999Z</time></trkpt><trkpt lat="39.31696750668739" lon="-3.516440738740327"><ele>718.0</ele><time>2026-05-01T08:17:06.999Z</time></trkpt><trkpt lat="39.31699930318055" lon="-3.5166083528879386"><ele>718.0</ele><time>2026-05-01T08:17:07.999Z</time></trkpt><trkpt lat="39.31702670766992" lon="-3.51678909074277"><ele>718.0</ele><time>2026-05-01T08:17:08.999Z</time></trkpt><trkpt lat="39.317046506854766" lon="-3.5170013693425752"><ele>718.0</ele><time>2026-05-01T08:17:09.999Z</time></trkpt><trkpt lat="39.31706579623296" lon="-3.5172545088356726"><ele>717.6666666666667</ele><time>2026-05-01T08:17:10.999Z</time></trkpt><trkpt lat="39.31706455092001" lon="-3.5175400120286766"><ele>717.3333333333334</ele><time>2026-05-01T08:17:11.999Z</time></trkpt><trkpt lat="39.31706214772374" lon="-3.517765568277324"><ele>717.0</ele><time>2026-05-01T08:17:12.999Z</time></trkpt><trkpt lat="39.31706060977831" lon="-3.5179624733716994"><ele>717.75</ele><time>2026-05-01T08:17:13.999Z</time></trkpt><trkpt lat="39.31705248946536" lon="-3.5181536288738755"><ele>718.5</ele><time>2026-05-01T08:17:14.999Z</time></trkpt><trkpt lat="39.31703900507323" lon="-3.5183283384741433"><ele>719.25</ele><time>2026-05-01T08:17:15.999Z</time></trkpt><trkpt lat="39.3170165994907" lon="-3.518517098471296"><ele>720.0</ele><time>2026-05-01T08:17:16.999Z</time></trkpt><trkpt lat="39.31700232844374" lon="-3.518722346682902"><ele>720.3333333333334</ele><time>2026-05-01T08:17:17.999Z</time></trkpt><trkpt lat="39.31699624945406" lon="-3.51892754345338"><ele>720.6666666666667</ele><time>2026-05-01T08:17:18.999Z</time></trkpt><trkpt lat="39.3170006942563" lon="-3.519143061101508"><ele>721.0</ele><time>2026-05-01T08:17:19.999Z</time></trkpt><trkpt lat="39.31701012668829" lon="-3.519370156085527"><ele>720.6666666666667</ele><time>2026-05-01T08:17:20.999Z</time></trkpt><trkpt lat="39.31702851706338" lon="-3.5196101238923703"><ele>720.3333333333334</ele><time>2026-05-01T08:17:21.999Z</time></trkpt><trkpt lat="39.31705170043457" lon="-3.5198189373181568"><ele>720.0</ele><time>2026-05-01T08:17:22.999Z</time></trkpt><trkpt lat="39.31707664477023" lon="-3.5199909412955166"><ele>720.0</ele><time>2026-05-01T08:17:23.999Z</time></trkpt><trkpt lat="39.317102902404756" lon="-3.520152139037338"><ele>720.0</ele><time>2026-05-01T08:17:24.999Z</time></trkpt><trkpt lat="39.317129166562125" lon="-3.5203166053392265"><ele>720.0</ele><time>2026-05-01T08:17:25.999Z</time></trkpt><trkpt lat="39.31717573591569" lon="-3.520454138548975"><ele>720.0</ele><time>2026-05-01T08:17:26.999Z</time></trkpt><trkpt lat="39.31719788844636" lon="-3.520616278729206"><ele>720.8</ele><time>2026-05-01T08:17:27.999Z</time></trkpt><trkpt lat="39.3172216140446" lon="-3.5207727992060094"><ele>721.6</ele><time>2026-05-01T08:17:28.999Z</time></trkpt><trkpt lat="39.31723110947107" lon="-3.5209099063021347"><ele>722.4000000000001</ele><time>2026-05-01T08:17:29.999Z</time></trkpt><trkpt lat="39.31723308177923" lon="-3.521038143337355"><ele>723.2</ele><time>2026-05-01T08:17:30.999Z</time></trkpt><trkpt lat="39.31723658191487" lon="-3.5211736940989042"><ele>724.0</ele><time>2026-05-01T08:17:31.999Z</time></trkpt><trkpt lat="39.317247040498536" lon="-3.52127730346174"><ele>724.0</ele><time>2026-05-01T08:17:32.999Z</time></trkpt><trkpt lat="39.31725843883343" lon="-3.521386060236099"><ele>724.0</ele><time>2026-05-01T08:17:33.999Z</time></trkpt><trkpt lat="39.31729021244462" lon="-3.5214775688817497"><ele>724.0</ele><time>2026-05-01T08:17:34.999Z</time></trkpt><trkpt lat="39.317310151326254" lon="-3.521585840207988"><ele>724.0</ele><time>2026-05-01T08:17:35.999Z</time></trkpt><trkpt lat="39.31730977097107" lon="-3.5217183455568204"><ele>724.0</ele><time>2026-05-01T08:17:36.999Z</time></trkpt><trkpt lat="39.317299733232836" lon="-3.5218488238609384"><ele>724.0</ele><time>2026-05-01T08:17:37.999Z</time></trkpt><trkpt lat="39.317243149513295" lon="-3.5220219549938654"><ele>724.0</ele><time>2026-05-01T08:17:38.999Z</time></trkpt><trkpt lat="39.31727683064342" lon="-3.5221569372647497"><ele>724.0</ele><time>2026-05-01T08:17:40Z</time></trkpt><trkpt lat="39.317307889804326" lon="-3.522264782122681"><ele>724.0</ele><time>2026-05-01T08:17:41Z</time></trkpt><trkpt lat="39.31730595905168" lon="-3.5223794704919147"><ele>724.0</ele><time>2026-05-01T08:17:42Z</time></trkpt><trkpt lat="39.31734100700957" lon="-3.5224914178752647"><ele>724.2</ele><time>2026-05-01T08:17:43Z</time></trkpt><trkpt lat="39.31737601529245" lon="-3.5226081012409507"><ele>724.4000000000001</ele><time>2026-05-01T08:17:44Z</time></trkpt><trkpt lat="39.31738789264155" lon="-3.5227295546719137"><ele>724.6</ele><time>2026-05-01T08:17:45Z</time></trkpt><trkpt lat="39.317408899990696" lon="-3.5228492209822115"><ele>724.8</ele><time>2026-05-01T08:17:46Z</time></trkpt><trkpt lat="39.317419346212304" lon="-3.522970216355809"><ele>725.0</ele><time>2026-05-01T08:17:47Z</time></trkpt><trkpt lat="39.31743451359081" lon="-3.523079003778981"><ele>725.1666666666666</ele><time>2026-05-01T08:17:48Z</time></trkpt><trkpt lat="39.31746589275122" lon="-3.5231904204074027"><ele>725.3333333333333</ele><time>2026-05-01T08:17:49Z</time></trkpt><trkpt lat="39.31751468007427" lon="-3.523305259589714"><ele>725.5</ele><time>2026-05-01T08:17:50Z</time></trkpt><trkpt lat="39.31753009483164" lon="-3.523410803151037"><ele>725.6666666666666</ele><time>2026-05-01T08:17:51Z</time></trkpt><trkpt lat="39.31753266451146" lon="-3.523514189680274"><ele>725.8333333333334</ele><time>2026-05-01T08:17:52Z</time></trkpt><trkpt lat="39.31752527521303" lon="-3.523628582231902"><ele>726.0</ele><time>2026-05-01T08:17:53Z</time></trkpt><trkpt lat="39.31752114467028" lon="-3.52375280323247"><ele>726.0</ele><time>2026-05-01T08:17:54Z</time></trkpt><trkpt lat="39.31751794393369" lon="-3.5239103353125034"><ele>726.0</ele><time>2026-05-01T08:17:55Z</time></trkpt><trkpt lat="39.31752381820897" lon="-3.524068865315397"><ele>726.0</ele><time>2026-05-01T08:17:56Z</time></trkpt><trkpt lat="39.317561162860436" lon="-3.5242312828335023"><ele>726.0</ele><time>2026-05-01T08:17:57Z</time></trkpt><trkpt lat="39.317578112263895" lon="-3.524390321971809"><ele>726.0</ele><time>2026-05-01T08:17:58Z</time></trkpt><trkpt lat="39.31758315470972" lon="-3.5245307552745264"><ele>726.0</ele><time>2026-05-01T08:17:59Z</time></trkpt><trkpt lat="39.317585490961946" lon="-3.5246621162359335"><ele>726.0</ele><time>2026-05-01T08:18:00Z</time></trkpt><trkpt lat="39.31758872225334" lon="-3.5247934085047037"><ele>726.0</ele><time>2026-05-01T08:18:01Z</time></trkpt><trkpt lat="39.31759298397397" lon="-3.5249201083552073"><ele>726.0</ele><time>2026-05-01T08:18:02Z</time></trkpt><trkpt lat="39.317580568719116" lon="-3.5250438989549053"><ele>726.4</ele><time>2026-05-01T08:18:03Z</time></trkpt><trkpt lat="39.31759736071667" lon="-3.525152331508093"><ele>726.8</ele><time>2026-05-01T08:18:04Z</time></trkpt><trkpt lat="39.31760595211098" lon="-3.525274580783404"><ele>727.1999999999999</ele><time>2026-05-01T08:18:05Z</time></trkpt><trkpt lat="39.31763799928931" lon="-3.525403788712571"><ele>727.5999999999999</ele><time>2026-05-01T08:18:06Z</time></trkpt><trkpt lat="39.31768273142625" lon="-3.5255637389410164"><ele>728.0</ele><time>2026-05-01T08:18:07Z</time></trkpt><trkpt lat="39.31772778040259" lon="-3.5257247396851543"><ele>728.25</ele><time>2026-05-01T08:18:08Z</time></trkpt><trkpt lat="39.31774015557803" lon="-3.5258648727619755"><ele>728.5</ele><time>2026-05-01T08:18:09Z</time></trkpt><trkpt lat="39.31773041986436" lon="-3.5259942201026875"><ele>728.75</ele><time>2026-05-01T08:18:10Z</time></trkpt><trkpt lat="39.31770831996418" lon="-3.526137786393955"><ele>729.0</ele><time>2026-05-01T08:18:11Z</time></trkpt><trkpt lat="39.31767959414936" lon="-3.526304411402375"><ele>729.25</ele><time>2026-05-01T08:18:12Z</time></trkpt><trkpt lat="39.3176689250639" lon="-3.5264644675273678"><ele>729.5</ele><time>2026-05-01T08:18:13Z</time></trkpt><trkpt lat="39.317671069540125" lon="-3.526609128863585"><ele>729.75</ele><time>2026-05-01T08:18:14Z</time></trkpt><trkpt lat="39.31768289848585" lon="-3.52677924130651"><ele>730.0</ele><time>2026-05-01T08:18:15Z</time></trkpt><trkpt lat="39.31764247280995" lon="-3.5269448321514125"><ele>730.5</ele><time>2026-05-01T08:18:16Z</time></trkpt><trkpt lat="39.31760603012741" lon="-3.5271226098576456"><ele>731.0</ele><time>2026-05-01T08:18:17Z</time></trkpt><trkpt lat="39.31755696077364" lon="-3.527303634770036"><ele>731.5</ele><time>2026-05-01T08:18:18Z</time></trkpt><trkpt lat="39.31751351304919" lon="-3.5274965630932753"><ele>732.0</ele><time>2026-05-01T08:18:19Z</time></trkpt><trkpt lat="39.317485424210204" lon="-3.527696659193143"><ele>733.0</ele><time>2026-05-01T08:18:20Z</time></trkpt><trkpt lat="39.31746278191304" lon="-3.5279146931567977"><ele>734.0</ele><time>2026-05-01T08:18:21Z</time></trkpt><trkpt lat="39.317455627904316" lon="-3.5281504611745476"><ele>735.0</ele><time>2026-05-01T08:18:22Z</time></trkpt><trkpt lat="39.31742986163094" lon="-3.52834169176149"><ele>735.0</ele><time>2026-05-01T08:18:23Z</time></trkpt><trkpt lat="39.31739415941138" lon="-3.5285178275050475"><ele>735.0</ele><time>2026-05-01T08:18:24Z</time></trkpt><trkpt lat="39.317341750335665" lon="-3.5286604467867893"><ele>735.0</ele><time>2026-05-01T08:18:25Z</time></trkpt><trkpt lat="39.317306897031976" lon="-3.5287969004418867"><ele>735.0</ele><time>2026-05-01T08:18:26Z</time></trkpt><trkpt lat="39.31728057138035" lon="-3.528949690968771"><ele>735.25</ele><time>2026-05-01T08:18:27Z</time></trkpt><trkpt lat="39.31728059651255" lon="-3.5291170311298936"><ele>735.5</ele><time>2026-05-01T08:18:28Z</time></trkpt><trkpt lat="39.3172301590862" lon="-3.529258380980968"><ele>735.75</ele><time>2026-05-01T08:18:29Z</time></trkpt><trkpt lat="39.31720567440258" lon="-3.5293981981086144"><ele>736.0</ele><time>2026-05-01T08:18:30Z</time></trkpt><trkpt lat="39.31719025117941" lon="-3.5295503229219127"><ele>736.0</ele><time>2026-05-01T08:18:31Z</time></trkpt><trkpt lat="39.317201017472705" lon="-3.529713807393459"><ele>736.0</ele><time>2026-05-01T08:18:32Z</time></trkpt><trkpt lat="39.31717795908635" lon="-3.5298837624836987"><ele>736.0</ele><time>2026-05-01T08:18:33Z</time></trkpt><trkpt lat="39.31717538778208" lon="-3.5300634154027613"><ele>736.0</ele><time>2026-05-01T08:18:34Z</time></trkpt><trkpt lat="39.31717089970409" lon="-3.53025849274766"><ele>736.0</ele><time>2026-05-01T08:18:35Z</time></trkpt><trkpt lat="39.3171736448421" lon="-3.530426115108746"><ele>736.0</ele><time>2026-05-01T08:18:36Z</time></trkpt><trkpt lat="39.31719014526968" lon="-3.5305772980884513"><ele>736.0</ele><time>2026-05-01T08:18:37Z</time></trkpt><trkpt lat="39.31722248790795" lon="-3.5307082198749105"><ele>736.0</ele><time>2026-05-01T08:18:38Z</time></trkpt><trkpt lat="39.31725776882742" lon="-3.530835059698681"><ele>736.0</ele><time>2026-05-01T08:18:39Z</time></trkpt><trkpt lat="39.317288670822364" lon="-3.5309489289861116"><ele>736.0</ele><time>2026-05-01T08:18:40Z</time></trkpt><trkpt lat="39.317277665366376" lon="-3.5310745147764435"><ele>736.0</ele><time>2026-05-01T08:18:40.999Z</time></trkpt><trkpt lat="39.31724617600255" lon="-3.53121119484369"><ele>736.0</ele><time>2026-05-01T08:18:41.999Z</time></trkpt><trkpt lat="39.31719608371206" lon="-3.531339284310924"><ele>736.0</ele><time>2026-05-01T08:18:42.999Z</time></trkpt><trkpt lat="39.31715774572748" lon="-3.5314841098568834"><ele>736.0</ele><time>2026-05-01T08:18:43.999Z</time></trkpt><trkpt lat="39.31714539251375" lon="-3.5316424654801435"><ele>736.0</ele><time>2026-05-01T08:18:44.999Z</time></trkpt><trkpt lat="39.3171088064594" lon="-3.5318109311383434"><ele>736.0</ele><time>2026-05-01T08:18:45.999Z</time></trkpt><trkpt lat="39.31705926500767" lon="-3.5319714537701583"><ele>736.0</ele><time>2026-05-01T08:18:46.999Z</time></trkpt><trkpt lat="39.31703217599794" lon="-3.532140250535452"><ele>736.75</ele><time>2026-05-01T08:18:47.999Z</time></trkpt><trkpt lat="39.31699691185114" lon="-3.532309542229417"><ele>737.5</ele><time>2026-05-01T08:18:48.999Z</time></trkpt><trkpt lat="39.31695118283924" lon="-3.532488871268185"><ele>738.25</ele><time>2026-05-01T08:18:49.999Z</time></trkpt><trkpt lat="39.316933963395535" lon="-3.5326516226124793"><ele>739.0</ele><time>2026-05-01T08:18:50.999Z</time></trkpt><trkpt lat="39.31690839014317" lon="-3.53281124012124"><ele>739.5</ele><time>2026-05-01T08:18:51.999Z</time></trkpt><trkpt lat="39.316908614352684" lon="-3.533004305481409"><ele>740.0</ele><time>2026-05-01T08:18:52.999Z</time></trkpt><trkpt lat="39.31692228504025" lon="-3.5331801660320865"><ele>740.5</ele><time>2026-05-01T08:18:53.999Z</time></trkpt><trkpt lat="39.31694221155822" lon="-3.5333323318406857"><ele>741.0</ele><time>2026-05-01T08:18:54.999Z</time></trkpt><trkpt lat="39.316983311639646" lon="-3.533462608007869"><ele>741.0</ele><time>2026-05-01T08:18:55.999Z</time></trkpt><trkpt lat="39.31700258853563" lon="-3.5335791766469677"><ele>741.0</ele><time>2026-05-01T08:18:56.999Z</time></trkpt><trkpt lat="39.31701042319976" lon="-3.5336926795390813"><ele>741.0</ele><time>2026-05-01T08:18:57.999Z</time></trkpt><trkpt lat="39.31698765516172" lon="-3.533840423212083"><ele>741.0</ele><time>2026-05-01T08:18:59.999Z</time></trkpt><trkpt lat="39.316995382211175" lon="-3.533994809811295"><ele>741.0</ele><time>2026-05-01T08:19:01.999Z</time></trkpt><trkpt lat="39.31702372060019" lon="-3.534133525913826"><ele>741.8</ele><time>2026-05-01T08:19:03.999Z</time></trkpt><trkpt lat="39.31702972637575" lon="-3.5342276303836675"><ele>742.5999999999999</ele><time>2026-05-01T08:19:05.999Z</time></trkpt><trkpt lat="39.316915638979545" lon="-3.5344073870887565"><ele>743.4</ele><time>2026-05-01T08:19:08.999Z</time></trkpt><trkpt lat="39.31685125413484" lon="-3.534477607722522"><ele>744.2</ele><time>2026-05-01T08:19:09.999Z</time></trkpt><trkpt lat="39.31678696122706" lon="-3.534574645584183"><ele>745.0</ele><time>2026-05-01T08:19:10.999Z</time></trkpt><trkpt lat="39.316727491310026" lon="-3.534675703302765"><ele>745.0</ele><time>2026-05-01T08:19:11.999Z</time></trkpt><trkpt lat="39.316678587052344" lon="-3.5347515081705803"><ele>745.0</ele><time>2026-05-01T08:19:12.999Z</time></trkpt><trkpt lat="39.31663392723169" lon="-3.5348339666255097"><ele>745.0</ele><time>2026-05-01T08:19:13.999Z</time></trkpt><trkpt lat="39.31660394873098" lon="-3.534928052897767"><ele>745.0</ele><time>2026-05-01T08:19:14.999Z</time></trkpt><trkpt lat="39.316580496699146" lon="-3.5350332201854107"><ele>745.0</ele><time>2026-05-01T08:19:15.999Z</time></trkpt><trkpt lat="39.31656711927039" lon="-3.5351613530175148"><ele>745.0</ele><time>2026-05-01T08:19:16.999Z</time></trkpt><trkpt lat="39.316540814205425" lon="-3.5353123178909005"><ele>745.6</ele><time>2026-05-01T08:19:17.999Z</time></trkpt><trkpt lat="39.316536195314306" lon="-3.5354760995142436"><ele>746.2</ele><time>2026-05-01T08:19:18.999Z</time></trkpt><trkpt lat="39.316475323517224" lon="-3.5356085383767484"><ele>746.8</ele><time>2026-05-01T08:19:19.999Z</time></trkpt><trkpt lat="39.31644282288363" lon="-3.53573356864012"><ele>747.4</ele><time>2026-05-01T08:19:20.999Z</time></trkpt><trkpt lat="39.316422677663304" lon="-3.53583660039612"><ele>748.0</ele><time>2026-05-01T08:19:21.999Z</time></trkpt><trkpt lat="39.316421603771154" lon="-3.5359248429001977"><ele>748.0</ele><time>2026-05-01T08:19:22.999Z</time></trkpt><trkpt lat="39.316432692518454" lon="-3.5360103746130056"><ele>748.0</ele><time>2026-05-01T08:19:23.999Z</time></trkpt><trkpt lat="39.31646744752491" lon="-3.5361361464068564"><ele>748.0</ele><time>2026-05-01T08:19:24.999Z</time></trkpt><trkpt lat="39.3165092072362" lon="-3.536284907628123"><ele>748.0</ele><time>2026-05-01T08:19:25.999Z</time></trkpt><trkpt lat="39.31654597490217" lon="-3.536388739658397"><ele>748.0</ele><time>2026-05-01T08:19:26.999Z</time></trkpt><trkpt lat="39.31660352715447" lon="-3.5365125797403323"><ele>748.0</ele><time>2026-05-01T08:19:27.999Z</time></trkpt><trkpt lat="39.31663671352324" lon="-3.5366221306149503"><ele>748.0</ele><time>2026-05-01T08:19:28.999Z</time></trkpt><trkpt lat="39.316646188946265" lon="-3.536724611034052"><ele>748.0</ele><time>2026-05-01T08:19:29.999Z</time></trkpt><trkpt lat="39.31666700579075" lon="-3.536811156804562"><ele>748.0</ele><time>2026-05-01T08:19:30.999Z</time></trkpt><trkpt lat="39.316703552866876" lon="-3.5369565609542293"><ele>748.0</ele><time>2026-05-01T08:19:32.999Z</time></trkpt><trkpt lat="39.31669816480791" lon="-3.5370523662184667"><ele>748.0</ele><time>2026-05-01T08:19:33.999Z</time></trkpt><trkpt lat="39.316675781304156" lon="-3.5371336812231733"><ele>748.0</ele><time>2026-05-01T08:19:34.999Z</time></trkpt><trkpt lat="39.31664364195786" lon="-3.537275914635937"><ele>748.0</ele><time>2026-05-01T08:19:36.999Z</time></trkpt><trkpt lat="39.316647966759675" lon="-3.537374400618955"><ele>748.0</ele><time>2026-05-01T08:19:38.999Z</time></trkpt><trkpt lat="39.31665289450942" lon="-3.5374948309609127"><ele>748.0</ele><time>2026-05-01T08:19:40.999Z</time></trkpt><trkpt lat="39.316685238517195" lon="-3.5376050780593875"><ele>748.0</ele><time>2026-05-01T08:19:42.999Z</time></trkpt><trkpt lat="39.316730505690984" lon="-3.5376993557728045"><ele>748.0</ele><time>2026-05-01T08:19:46Z</time></trkpt><trkpt lat="39.316816990193196" lon="-3.5377949867738994"><ele>748.0</ele><time>2026-05-01T08:19:48Z</time></trkpt><trkpt lat="39.316885972113695" lon="-3.53778269251852"><ele>748.0</ele><time>2026-05-01T08:19:49Z</time></trkpt><trkpt lat="39.31699155103464" lon="-3.537802067699137"><ele>748.0</ele><time>2026-05-01T08:19:51Z</time></trkpt><trkpt lat="39.317112836667526" lon="-3.5378322262852353"><ele>748.0</ele><time>2026-05-01T08:19:53Z</time></trkpt><trkpt lat="39.31719626614235" lon="-3.537847704178809"><ele>748.0</ele><time>2026-05-01T08:19:55Z</time></trkpt><trkpt lat="39.31728187451077" lon="-3.5378558429454725"><ele>748.0</ele><time>2026-05-01T08:19:57Z</time></trkpt><trkpt lat="39.317345175031974" lon="-3.5379100450672722"><ele>748.0</ele><time>2026-05-01T08:19:58Z</time></trkpt><trkpt lat="39.317401924582484" lon="-3.5379752840181666"><ele>748.0</ele><time>2026-05-01T08:19:59Z</time></trkpt><trkpt lat="39.31745123182512" lon="-3.538054977866268"><ele>748.0</ele><time>2026-05-01T08:20:00Z</time></trkpt><trkpt lat="39.31755829919203" lon="-3.538190230419637"><ele>748.0</ele><time>2026-05-01T08:20:01Z</time></trkpt><trkpt lat="39.317603881942794" lon="-3.538271448369869"><ele>748.0</ele><time>2026-05-01T08:20:02Z</time></trkpt><trkpt lat="39.31765585877333" lon="-3.5383530334531996"><ele>748.0</ele><time>2026-05-01T08:20:03Z</time></trkpt><trkpt lat="39.317712842642834" lon="-3.538431589578029"><ele>748.0</ele><time>2026-05-01T08:20:04Z</time></trkpt><trkpt lat="39.317769595594655" lon="-3.5385154737021214"><ele>748.0</ele><time>2026-05-01T08:20:05Z</time></trkpt><trkpt lat="39.31782052544122" lon="-3.538613006262498"><ele>748.0</ele><time>2026-05-01T08:20:06Z</time></trkpt><trkpt lat="39.31786482342467" lon="-3.5387192557277594"><ele>748.4</ele><time>2026-05-01T08:20:07Z</time></trkpt><trkpt lat="39.31791101389672" lon="-3.538830976004497"><ele>748.8</ele><time>2026-05-01T08:20:08Z</time></trkpt><trkpt lat="39.31795441861534" lon="-3.5389382607972113"><ele>749.2</ele><time>2026-05-01T08:20:09Z</time></trkpt><trkpt lat="39.317992440185044" lon="-3.539041877413008"><ele>749.6</ele><time>2026-05-01T08:20:10Z</time></trkpt><trkpt lat="39.31801472763717" lon="-3.5391476405228453"><ele>750.0</ele><time>2026-05-01T08:20:11Z</time></trkpt><trkpt lat="39.31803835112395" lon="-3.539254269512547"><ele>750.0</ele><time>2026-05-01T08:20:12Z</time></trkpt><trkpt lat="39.31806222513911" lon="-3.539362555723576"><ele>750.0</ele><time>2026-05-01T08:20:13Z</time></trkpt><trkpt lat="39.31808479757461" lon="-3.5394727205975287"><ele>750.0</ele><time>2026-05-01T08:20:14Z</time></trkpt><trkpt lat="39.3181070127931" lon="-3.539587298507752"><ele>750.0</ele><time>2026-05-01T08:20:15Z</time></trkpt><trkpt lat="39.31813381553744" lon="-3.539713547503337"><ele>750.0</ele><time>2026-05-01T08:20:16Z</time></trkpt><trkpt lat="39.3181646663063" lon="-3.5398511694886947"><ele>751.0</ele><time>2026-05-01T08:20:17Z</time></trkpt><trkpt lat="39.31819827982681" lon="-3.5399993622303136"><ele>752.0</ele><time>2026-05-01T08:20:18Z</time></trkpt><trkpt lat="39.31823770197575" lon="-3.540152049565892"><ele>753.0</ele><time>2026-05-01T08:20:19Z</time></trkpt><trkpt lat="39.31828261046606" lon="-3.54029106900292"><ele>754.0</ele><time>2026-05-01T08:20:20Z</time></trkpt><trkpt lat="39.31832126256833" lon="-3.5404173461789528"><ele>754.0</ele><time>2026-05-01T08:20:21Z</time></trkpt><trkpt lat="39.3183527399654" lon="-3.5405284785853204"><ele>754.0</ele><time>2026-05-01T08:20:22Z</time></trkpt><trkpt lat="39.318383864360996" lon="-3.540633542505532"><ele>754.0</ele><time>2026-05-01T08:20:23Z</time></trkpt><trkpt lat="39.31840976217658" lon="-3.540746428829007"><ele>754.0</ele><time>2026-05-01T08:20:24Z</time></trkpt><trkpt lat="39.31843698025031" lon="-3.540874703782582"><ele>754.0</ele><time>2026-05-01T08:20:25Z</time></trkpt><trkpt lat="39.31845519081875" lon="-3.5410368218826047"><ele>754.0</ele><time>2026-05-01T08:20:26Z</time></trkpt><trkpt lat="39.31847440387165" lon="-3.5412370248322316"><ele>754.0</ele><time>2026-05-01T08:20:27Z</time></trkpt><trkpt lat="39.318490542287826" lon="-3.5414216823781053"><ele>754.0</ele><time>2026-05-01T08:20:28Z</time></trkpt><trkpt lat="39.31853118634404" lon="-3.541569927693961"><ele>754.0</ele><time>2026-05-01T08:20:29Z</time></trkpt><trkpt lat="39.31855013231562" lon="-3.5417214866708555"><ele>754.0</ele><time>2026-05-01T08:20:30Z</time></trkpt><trkpt lat="39.318598161997066" lon="-3.5418664345045427"><ele>754.0</ele><time>2026-05-01T08:20:31Z</time></trkpt><trkpt lat="39.31865209182111" lon="-3.542005299796249"><ele>754.0</ele><time>2026-05-01T08:20:32Z</time></trkpt><trkpt lat="39.31870928827448" lon="-3.5421403837281233"><ele>754.0</ele><time>2026-05-01T08:20:33Z</time></trkpt><trkpt lat="39.31876606151235" lon="-3.5422713021351515"><ele>754.5</ele><time>2026-05-01T08:20:34Z</time></trkpt><trkpt lat="39.31882387414612" lon="-3.542401732498145"><ele>755.0</ele><time>2026-05-01T08:20:35Z</time></trkpt><trkpt lat="39.31888088735389" lon="-3.542527038175754"><ele>755.5</ele><time>2026-05-01T08:20:36Z</time></trkpt><trkpt lat="39.31894000759084" lon="-3.5426512212199306"><ele>756.0</ele><time>2026-05-01T08:20:37Z</time></trkpt><trkpt lat="39.31900090754645" lon="-3.5427762322471956"><ele>756.5</ele><time>2026-05-01T08:20:38Z</time></trkpt><trkpt lat="39.31906012844532" lon="-3.542904613392937"><ele>757.0</ele><time>2026-05-01T08:20:39Z</time></trkpt><trkpt lat="39.319119136657996" lon="-3.5430387117839013"><ele>757.5</ele><time>2026-05-01T08:20:40Z</time></trkpt><trkpt lat="39.31919927314237" lon="-3.54318684789658"><ele>758.0</ele><time>2026-05-01T08:20:41Z</time></trkpt><trkpt lat="39.31929028090223" lon="-3.5433826479406902"><ele>758.0</ele><time>2026-05-01T08:20:42Z</time></trkpt><trkpt lat="39.319366079310456" lon="-3.5435572773512547"><ele>758.0</ele><time>2026-05-01T08:20:43Z</time></trkpt><trkpt lat="39.319427364163225" lon="-3.5437053130805087"><ele>758.0</ele><time>2026-05-01T08:20:44Z</time></trkpt><trkpt lat="39.319485991277595" lon="-3.5438348161427173"><ele>758.0</ele><time>2026-05-01T08:20:45Z</time></trkpt><trkpt lat="39.31953418654117" lon="-3.543957690777975"><ele>758.8333333333333</ele><time>2026-05-01T08:20:45.999Z</time></trkpt><trkpt lat="39.31957904631006" lon="-3.544069616045392"><ele>759.6666666666666</ele><time>2026-05-01T08:20:46.999Z</time></trkpt><trkpt lat="39.31961667857493" lon="-3.544159352423955"><ele>760.5</ele><time>2026-05-01T08:20:47.999Z</time></trkpt><trkpt lat="39.319633770441776" lon="-3.544244529127282"><ele>761.3333333333334</ele><time>2026-05-01T08:20:48.999Z</time></trkpt><trkpt lat="39.31964870209218" lon="-3.5443450473765132"><ele>762.1666666666667</ele><time>2026-05-01T08:20:49.999Z</time></trkpt><trkpt lat="39.319679218333434" lon="-3.544452749710888"><ele>763.0</ele><time>2026-05-01T08:20:50.999Z</time></trkpt><trkpt lat="39.319709871516004" lon="-3.544567960337075"><ele>763.0</ele><time>2026-05-01T08:20:51.999Z</time></trkpt><trkpt lat="39.319747603464435" lon="-3.544688576833661"><ele>763.0</ele><time>2026-05-01T08:20:52.999Z</time></trkpt><trkpt lat="39.319785852066865" lon="-3.5447942708001667"><ele>763.0</ele><time>2026-05-01T08:20:53.999Z</time></trkpt><trkpt lat="39.31981219282098" lon="-3.54489010134657"><ele>763.0</ele><time>2026-05-01T08:20:54.999Z</time></trkpt><trkpt lat="39.319860598801434" lon="-3.544966679145655"><ele>763.0</ele><time>2026-05-01T08:20:55.999Z</time></trkpt><trkpt lat="39.31992597867512" lon="-3.5449825160751978"><ele>763.0</ele><time>2026-05-01T08:20:56.999Z</time></trkpt><trkpt lat="39.31997726077107" lon="-3.5450457093138397"><ele>763.0</ele><time>2026-05-01T08:20:57.999Z</time></trkpt><trkpt lat="39.32004203494594" lon="-3.545072195620652"><ele>763.0</ele><time>2026-05-01T08:20:58.999Z</time></trkpt><trkpt lat="39.3201055336487" lon="-3.5450620714915586"><ele>763.0</ele><time>2026-05-01T08:20:59.999Z</time></trkpt><trkpt lat="39.32019356929698" lon="-3.5451136378659807"><ele>763.0</ele><time>2026-05-01T08:21:01.999Z</time></trkpt><trkpt lat="39.320238154101396" lon="-3.5451728884480493"><ele>763.0</ele><time>2026-05-01T08:21:02.999Z</time></trkpt><trkpt lat="39.32028848411722" lon="-3.5452573431351357"><ele>763.0</ele><time>2026-05-01T08:21:03.999Z</time></trkpt><trkpt lat="39.32033860280685" lon="-3.545356044002843"><ele>763.8</ele><time>2026-05-01T08:21:04.999Z</time></trkpt><trkpt lat="39.320388611717895" lon="-3.545459387617197"><ele>764.5999999999999</ele><time>2026-05-01T08:21:05.999Z</time></trkpt><trkpt lat="39.32043315715508" lon="-3.5455754744304726"><ele>765.4000000000001</ele><time>2026-05-01T08:21:06.999Z</time></trkpt><trkpt lat="39.320462717995554" lon="-3.5456864293625006"><ele>766.2</ele><time>2026-05-01T08:21:07.999Z</time></trkpt><trkpt lat="39.32048137223131" lon="-3.5457932466478432"><ele>767.0</ele><time>2026-05-01T08:21:08.999Z</time></trkpt><trkpt lat="39.32049557721446" lon="-3.5459113484611495"><ele>767.0</ele><time>2026-05-01T08:21:09.999Z</time></trkpt><trkpt lat="39.32050227745757" lon="-3.5460509659091173"><ele>767.0</ele><time>2026-05-01T08:21:10.999Z</time></trkpt><trkpt lat="39.32050728688171" lon="-3.5462205702320433"><ele>767.0</ele><time>2026-05-01T08:21:11.999Z</time></trkpt><trkpt lat="39.32051389578424" lon="-3.5463880366197906"><ele>767.0</ele><time>2026-05-01T08:21:12.999Z</time></trkpt><trkpt lat="39.32051807137551" lon="-3.546542252964668"><ele>766.8</ele><time>2026-05-01T08:21:13.999Z</time></trkpt><trkpt lat="39.32053105445388" lon="-3.54668963066065"><ele>766.6</ele><time>2026-05-01T08:21:14.999Z</time></trkpt><trkpt lat="39.320538843908245" lon="-3.546824814259849"><ele>766.4</ele><time>2026-05-01T08:21:15.999Z</time></trkpt><trkpt lat="39.320535532479155" lon="-3.5469369933688792"><ele>766.1999999999999</ele><time>2026-05-01T08:21:16.999Z</time></trkpt><trkpt lat="39.320511740104656" lon="-3.547045545853623"><ele>766.0</ele><time>2026-05-01T08:21:17.999Z</time></trkpt><trkpt lat="39.32048706475648" lon="-3.5471698333288466"><ele>766.0</ele><time>2026-05-01T08:21:18.999Z</time></trkpt><trkpt lat="39.320489913690636" lon="-3.5472844606739997"><ele>766.0</ele><time>2026-05-01T08:21:19.999Z</time></trkpt><trkpt lat="39.32053328927268" lon="-3.5474184660154124"><ele>766.0</ele><time>2026-05-01T08:21:20.999Z</time></trkpt><trkpt lat="39.32053321030886" lon="-3.547594440377562"><ele>766.0</ele><time>2026-05-01T08:21:21.999Z</time></trkpt><trkpt lat="39.320492438162525" lon="-3.54773983962833"><ele>766.25</ele><time>2026-05-01T08:21:22.999Z</time></trkpt><trkpt lat="39.320457896444935" lon="-3.547881348193395"><ele>766.5</ele><time>2026-05-01T08:21:23.999Z</time></trkpt><trkpt lat="39.32041670217673" lon="-3.5480238046574395"><ele>766.75</ele><time>2026-05-01T08:21:24.999Z</time></trkpt><trkpt lat="39.320372666108504" lon="-3.548181975024709"><ele>767.0</ele><time>2026-05-01T08:21:25.999Z</time></trkpt><trkpt lat="39.320328482599635" lon="-3.548366248643493"><ele>767.0</ele><time>2026-05-01T08:21:26.999Z</time></trkpt><trkpt lat="39.32030232584278" lon="-3.548536049123479"><ele>767.0</ele><time>2026-05-01T08:21:27.999Z</time></trkpt><trkpt lat="39.32028165256084" lon="-3.548678701235287"><ele>767.0</ele><time>2026-05-01T08:21:28.999Z</time></trkpt><trkpt lat="39.320271870270055" lon="-3.5488033118554174"><ele>767.0</ele><time>2026-05-01T08:21:29.999Z</time></trkpt><trkpt lat="39.320270812837826" lon="-3.5489398360095845"><ele>767.0</ele><time>2026-05-01T08:21:30.999Z</time></trkpt><trkpt lat="39.320286502580956" lon="-3.549089307471039"><ele>767.25</ele><time>2026-05-01T08:21:31.999Z</time></trkpt><trkpt lat="39.32030748934318" lon="-3.5492633859703306"><ele>767.5</ele><time>2026-05-01T08:21:32.999Z</time></trkpt><trkpt lat="39.32031817296079" lon="-3.549430359288712"><ele>767.75</ele><time>2026-05-01T08:21:33.999Z</time></trkpt><trkpt lat="39.32031438518668" lon="-3.5495878927937574"><ele>768.0</ele><time>2026-05-01T08:21:34.999Z</time></trkpt><trkpt lat="39.32030490598875" lon="-3.549760164110454"><ele>768.0</ele><time>2026-05-01T08:21:35.999Z</time></trkpt><trkpt lat="39.32028428837811" lon="-3.5499209825142586"><ele>768.0</ele><time>2026-05-01T08:21:36.999Z</time></trkpt><trkpt lat="39.32026461619054" lon="-3.550089169435375"><ele>768.0</ele><time>2026-05-01T08:21:37.999Z</time></trkpt><trkpt lat="39.320263985448975" lon="-3.550220728766467"><ele>768.0</ele><time>2026-05-01T08:21:38.999Z</time></trkpt><trkpt lat="39.320283375276176" lon="-3.5503521135387355"><ele>768.1666666666666</ele><time>2026-05-01T08:21:39.999Z</time></trkpt><trkpt lat="39.320316447875015" lon="-3.5504901706940597"><ele>768.3333333333333</ele><time>2026-05-01T08:21:40.999Z</time></trkpt><trkpt lat="39.3203540951494" lon="-3.5506050525940362"><ele>768.5</ele><time>2026-05-01T08:21:41.999Z</time></trkpt><trkpt lat="39.320392496633495" lon="-3.550697595983079"><ele>768.6666666666666</ele><time>2026-05-01T08:21:42.999Z</time></trkpt><trkpt lat="39.3204278326274" lon="-3.550779509277688"><ele>768.8333333333333</ele><time>2026-05-01T08:21:43.999Z</time></trkpt><trkpt lat="39.320455956062375" lon="-3.5508654149989853"><ele>769.0</ele><time>2026-05-01T08:21:44.999Z</time></trkpt><trkpt lat="39.32047989758855" lon="-3.5509852067429026"><ele>769.0</ele><time>2026-05-01T08:21:45.999Z</time></trkpt><trkpt lat="39.320498506671974" lon="-3.551142234834108"><ele>769.0</ele><time>2026-05-01T08:21:46.999Z</time></trkpt><trkpt lat="39.320517334228484" lon="-3.551325647063281"><ele>769.0</ele><time>2026-05-01T08:21:47.999Z</time></trkpt><trkpt lat="39.32053641675834" lon="-3.5514946274153867"><ele>769.0</ele><time>2026-05-01T08:21:48.999Z</time></trkpt><trkpt lat="39.32055536865527" lon="-3.5516529751127006"><ele>771.5</ele><time>2026-05-01T08:21:49.999Z</time></trkpt><trkpt lat="39.320577104091065" lon="-3.5518067878328323"><ele>774.0</ele><time>2026-05-01T08:21:50.999Z</time></trkpt><trkpt lat="39.32060410430487" lon="-3.5519760779236043"><ele>776.5</ele><time>2026-05-01T08:21:52Z</time></trkpt><trkpt lat="39.32062944392771" lon="-3.5521384734132866"><ele>779.0</ele><time>2026-05-01T08:21:53Z</time></trkpt><trkpt lat="39.32064165819639" lon="-3.552282413319491"><ele>779.75</ele><time>2026-05-01T08:21:54Z</time></trkpt><trkpt lat="39.32064324971573" lon="-3.55241309471375"><ele>780.5</ele><time>2026-05-01T08:21:55Z</time></trkpt><trkpt lat="39.32063181607887" lon="-3.552552795590056"><ele>781.25</ele><time>2026-05-01T08:21:56Z</time></trkpt><trkpt lat="39.32061622235492" lon="-3.5527239685407332"><ele>782.0</ele><time>2026-05-01T08:21:57Z</time></trkpt><trkpt lat="39.320593206536095" lon="-3.5528938012242923"><ele>782.0</ele><time>2026-05-01T08:21:58Z</time></trkpt><trkpt lat="39.32057003989669" lon="-3.5530402408764137"><ele>782.0</ele><time>2026-05-01T08:21:59Z</time></trkpt><trkpt lat="39.320550652225855" lon="-3.55317837908032"><ele>782.0</ele><time>2026-05-01T08:22:00Z</time></trkpt><trkpt lat="39.32053336799574" lon="-3.553303230259066"><ele>782.0</ele><time>2026-05-01T08:22:01Z</time></trkpt><trkpt lat="39.320524100707686" lon="-3.5534094262655325"><ele>782.0</ele><time>2026-05-01T08:22:02Z</time></trkpt><trkpt lat="39.32052211022589" lon="-3.5534973379662955"><ele>781.3333333333334</ele><time>2026-05-01T08:22:03Z</time></trkpt><trkpt lat="39.320532579678996" lon="-3.5536258099667415"><ele>780.6666666666667</ele><time>2026-05-01T08:22:05Z</time></trkpt><trkpt lat="39.32055535095501" lon="-3.553729068625804"><ele>780.0</ele><time>2026-05-01T08:22:07Z</time></trkpt><trkpt lat="39.320575989072665" lon="-3.5538176249858853"><ele>779.3333333333333</ele><time>2026-05-01T08:22:08Z</time></trkpt><trkpt lat="39.32060143626644" lon="-3.5539044655547674"><ele>778.6666666666666</ele><time>2026-05-01T08:22:09Z</time></trkpt><trkpt lat="39.320635583073674" lon="-3.553981036215381"><ele>778.0</ele><time>2026-05-01T08:22:10Z</time></trkpt><trkpt lat="39.32067420225195" lon="-3.554050088203138"><ele>778.0</ele><time>2026-05-01T08:22:11Z</time></trkpt><trkpt lat="39.32072040812828" lon="-3.55411721569215"><ele>778.0</ele><time>2026-05-01T08:22:12Z</time></trkpt><trkpt lat="39.32077526668592" lon="-3.5541930864915083"><ele>778.0</ele><time>2026-05-01T08:22:13Z</time></trkpt><trkpt lat="39.320842880667676" lon="-3.5542709523834795"><ele>778.0</ele><time>2026-05-01T08:22:14Z</time></trkpt><trkpt lat="39.320917069446715" lon="-3.55436722307597"><ele>778.0</ele><time>2026-05-01T08:22:15Z</time></trkpt><trkpt lat="39.32097174074077" lon="-3.554483489339215"><ele>777.4</ele><time>2026-05-01T08:22:16Z</time></trkpt><trkpt lat="39.32100152606033" lon="-3.554605190842676"><ele>776.8</ele><time>2026-05-01T08:22:17Z</time></trkpt><trkpt lat="39.321043138351754" lon="-3.5547369726020324"><ele>776.2</ele><time>2026-05-01T08:22:18Z</time></trkpt><trkpt lat="39.32109859494812" lon="-3.554862610336873"><ele>775.6</ele><time>2026-05-01T08:22:19Z</time></trkpt><trkpt lat="39.32115165791821" lon="-3.5549711630241947"><ele>775.0</ele><time>2026-05-01T08:22:20Z</time></trkpt><trkpt lat="39.32119784075483" lon="-3.5550707017571135"><ele>775.0</ele><time>2026-05-01T08:22:21Z</time></trkpt><trkpt lat="39.32123502907845" lon="-3.5551876158780216"><ele>775.0</ele><time>2026-05-01T08:22:22Z</time></trkpt><trkpt lat="39.32124880530165" lon="-3.5553295512951464"><ele>775.0</ele><time>2026-05-01T08:22:23Z</time></trkpt><trkpt lat="39.3212704732886" lon="-3.5555069586245276"><ele>775.0</ele><time>2026-05-01T08:22:24Z</time></trkpt><trkpt lat="39.32130254624177" lon="-3.5557339905511283"><ele>775.6666666666666</ele><time>2026-05-01T08:22:25Z</time></trkpt><trkpt lat="39.32134577031432" lon="-3.5559613131547536"><ele>776.3333333333333</ele><time>2026-05-01T08:22:26Z</time></trkpt><trkpt lat="39.32137339770748" lon="-3.5561446691261795"><ele>777.0</ele><time>2026-05-01T08:22:27Z</time></trkpt><trkpt lat="39.321393344045745" lon="-3.556303296035922"><ele>778.2</ele><time>2026-05-01T08:22:28Z</time></trkpt><trkpt lat="39.32140890988161" lon="-3.556425157625734"><ele>779.4000000000001</ele><time>2026-05-01T08:22:29Z</time></trkpt><trkpt lat="39.32142159659203" lon="-3.556561521245719"><ele>780.5999999999999</ele><time>2026-05-01T08:22:30Z</time></trkpt><trkpt lat="39.32144459846179" lon="-3.556664721490538"><ele>781.8</ele><time>2026-05-01T08:22:31Z</time></trkpt><trkpt lat="39.32147325348242" lon="-3.5567921099643325"><ele>783.0</ele><time>2026-05-01T08:22:32Z</time></trkpt><trkpt lat="39.32151531288678" lon="-3.5569116937193757"><ele>783.0</ele><time>2026-05-01T08:22:33Z</time></trkpt><trkpt lat="39.32153987440329" lon="-3.5570280738626785"><ele>783.0</ele><time>2026-05-01T08:22:34Z</time></trkpt><trkpt lat="39.321561567863576" lon="-3.557125258055654"><ele>783.0</ele><time>2026-05-01T08:22:35Z</time></trkpt><trkpt lat="39.321570312251346" lon="-3.557232864790091"><ele>783.0</ele><time>2026-05-01T08:22:36Z</time></trkpt><trkpt lat="39.321573319844745" lon="-3.5573316649224624"><ele>783.0</ele><time>2026-05-01T08:22:37Z</time></trkpt><trkpt lat="39.32157268958067" lon="-3.557413848320247"><ele>783.0</ele><time>2026-05-01T08:22:38Z</time></trkpt><trkpt lat="39.32156661198664" lon="-3.557524348212347"><ele>783.0</ele><time>2026-05-01T08:22:39Z</time></trkpt><trkpt lat="39.321566599354135" lon="-3.5576725632756547"><ele>783.0</ele><time>2026-05-01T08:22:40Z</time></trkpt><trkpt lat="39.32158670164371" lon="-3.5577919878235895"><ele>783.0</ele><time>2026-05-01T08:22:41Z</time></trkpt><trkpt lat="39.32159972242907" lon="-3.5578931693437057"><ele>783.0</ele><time>2026-05-01T08:22:42Z</time></trkpt><trkpt lat="39.321606910769646" lon="-3.5579825532001994"><ele>783.0</ele><time>2026-05-01T08:22:43Z</time></trkpt><trkpt lat="39.32165615678515" lon="-3.558129346641639"><ele>783.0</ele><time>2026-05-01T08:22:45Z</time></trkpt><trkpt lat="39.321704398141264" lon="-3.558269347956576"><ele>783.0</ele><time>2026-05-01T08:22:47Z</time></trkpt><trkpt lat="39.32173201090392" lon="-3.558359428857971"><ele>783.0</ele><time>2026-05-01T08:22:48Z</time></trkpt><trkpt lat="39.32176352176492" lon="-3.5584481455070356"><ele>783.0</ele><time>2026-05-01T08:22:48.999Z</time></trkpt><trkpt lat="39.32182611154518" lon="-3.5585860381363466"><ele>783.0</ele><time>2026-05-01T08:22:50.999Z</time></trkpt><trkpt lat="39.32188026722012" lon="-3.5587309927075865"><ele>782.8333333333334</ele><time>2026-05-01T08:22:52.999Z</time></trkpt><trkpt lat="39.3219102942812" lon="-3.5588054255185653"><ele>782.6666666666667</ele><time>2026-05-01T08:22:53.999Z</time></trkpt><trkpt lat="39.32193863638179" lon="-3.558918332056956"><ele>782.5</ele><time>2026-05-01T08:22:54.999Z</time></trkpt><trkpt lat="39.32197042966961" lon="-3.559012252872619"><ele>782.3333333333334</ele><time>2026-05-01T08:22:55.999Z</time></trkpt><trkpt lat="39.322003407302425" lon="-3.559118698482882"><ele>782.1666666666667</ele><time>2026-05-01T08:22:56.999Z</time></trkpt><trkpt lat="39.322050478961465" lon="-3.5592226962094293"><ele>782.0</ele><time>2026-05-01T08:22:57.999Z</time></trkpt><trkpt lat="39.32210507508894" lon="-3.5593300938578003"><ele>782.0000000000001</ele><time>2026-05-01T08:22:58.999Z</time></trkpt><trkpt lat="39.32215134751283" lon="-3.5594335822173844"><ele>782.0</ele><time>2026-05-01T08:22:59.999Z</time></trkpt><trkpt lat="39.32218244917942" lon="-3.5595440524889583"><ele>782.0</ele><time>2026-05-01T08:23:00.999Z</time></trkpt><trkpt lat="39.322201225420656" lon="-3.559654432047905"><ele>782.0</ele><time>2026-05-01T08:23:01.999Z</time></trkpt><trkpt lat="39.3222208749215" lon="-3.5597658945218424"><ele>782.0000000000001</ele><time>2026-05-01T08:23:02.999Z</time></trkpt><trkpt lat="39.322239464354624" lon="-3.559870739801236"><ele>782.0</ele><time>2026-05-01T08:23:03.999Z</time></trkpt><trkpt lat="39.32225214284141" lon="-3.559960809819928"><ele>782.3333333333334</ele><time>2026-05-01T08:23:04.999Z</time></trkpt><trkpt lat="39.32227442272082" lon="-3.560037175247766"><ele>782.6666666666667</ele><time>2026-05-01T08:23:05.999Z</time></trkpt><trkpt lat="39.322319194644344" lon="-3.5601540495347592"><ele>783.0</ele><time>2026-05-01T08:23:07.999Z</time></trkpt><trkpt lat="39.322356568690964" lon="-3.5602888558911583"><ele>783.3333333333333</ele><time>2026-05-01T08:23:09.999Z</time></trkpt><trkpt lat="39.322383625853334" lon="-3.5603982782586256"><ele>783.6666666666666</ele><time>2026-05-01T08:23:10.999Z</time></trkpt><trkpt lat="39.32241303651572" lon="-3.5604936949053565"><ele>784.0</ele><time>2026-05-01T08:23:11.999Z</time></trkpt><trkpt lat="39.32244507476782" lon="-3.560568216430386"><ele>783.9999999999999</ele><time>2026-05-01T08:23:12.999Z</time></trkpt><trkpt lat="39.322474039155" lon="-3.5606424363016105"><ele>784.0</ele><time>2026-05-01T08:23:13.999Z</time></trkpt><trkpt lat="39.32252571561764" lon="-3.560774399429337"><ele>784.0</ele><time>2026-05-01T08:23:15.999Z</time></trkpt><trkpt lat="39.32257133669106" lon="-3.560890843229274"><ele>784.0</ele><time>2026-05-01T08:23:17.999Z</time></trkpt><trkpt lat="39.32259677587341" lon="-3.560971411737366"><ele>783.9999999999999</ele><time>2026-05-01T08:23:18.999Z</time></trkpt><trkpt lat="39.322611737653205" lon="-3.5610954963450854"><ele>784.0</ele><time>2026-05-01T08:23:19.999Z</time></trkpt><trkpt lat="39.32263260442172" lon="-3.5612162251791117"><ele>784.6</ele><time>2026-05-01T08:23:20.999Z</time></trkpt><trkpt lat="39.322645806837244" lon="-3.561341322457864"><ele>785.2</ele><time>2026-05-01T08:23:21.999Z</time></trkpt><trkpt lat="39.322655127552785" lon="-3.5614584473167374"><ele>785.8000000000001</ele><time>2026-05-01T08:23:22.999Z</time></trkpt><trkpt lat="39.32267271273964" lon="-3.5615665125746863"><ele>786.4000000000001</ele><time>2026-05-01T08:23:23.999Z</time></trkpt><trkpt lat="39.322693834654544" lon="-3.5616778851499626"><ele>787.0</ele><time>2026-05-01T08:23:24.999Z</time></trkpt><trkpt lat="39.322706802821" lon="-3.5618053930334614"><ele>786.9999999999999</ele><time>2026-05-01T08:23:25.999Z</time></trkpt><trkpt lat="39.32271326566297" lon="-3.5619272540450284"><ele>787.0</ele><time>2026-05-01T08:23:26.999Z</time></trkpt><trkpt lat="39.32271568272579" lon="-3.5620337406565463"><ele>787.0</ele><time>2026-05-01T08:23:27.999Z</time></trkpt><trkpt lat="39.322713420742744" lon="-3.5621448991476665"><ele>787.0</ele><time>2026-05-01T08:23:28.999Z</time></trkpt><trkpt lat="39.322715586418006" lon="-3.5622506415418185"><ele>786.9999999999999</ele><time>2026-05-01T08:23:29.999Z</time></trkpt><trkpt lat="39.32270980722836" lon="-3.5623600419507504"><ele>787.0</ele><time>2026-05-01T08:23:30.999Z</time></trkpt><trkpt lat="39.32269104637478" lon="-3.562484049987311"><ele>787.1666666666666</ele><time>2026-05-01T08:23:31.999Z</time></trkpt><trkpt lat="39.32267824459448" lon="-3.5625905329178726"><ele>787.3333333333333</ele><time>2026-05-01T08:23:32.999Z</time></trkpt><trkpt lat="39.32266214256763" lon="-3.5626798190505995"><ele>787.5</ele><time>2026-05-01T08:23:33.999Z</time></trkpt><trkpt lat="39.32264689631929" lon="-3.5627801795969694"><ele>787.6666666666667</ele><time>2026-05-01T08:23:34.999Z</time></trkpt><trkpt lat="39.322633973187074" lon="-3.562878936577278"><ele>787.8333333333334</ele><time>2026-05-01T08:23:35.999Z</time></trkpt><trkpt lat="39.322621253126314" lon="-3.5629767558231853"><ele>788.0</ele><time>2026-05-01T08:23:36.999Z</time></trkpt><trkpt lat="39.32260627657028" lon="-3.563081630934188"><ele>788.5000000000001</ele><time>2026-05-01T08:23:37.999Z</time></trkpt><trkpt lat="39.322580205842826" lon="-3.5631796505724704"><ele>789.0</ele><time>2026-05-01T08:23:38.999Z</time></trkpt><trkpt lat="39.322542073040516" lon="-3.563278938396281"><ele>789.5</ele><time>2026-05-01T08:23:39.999Z</time></trkpt><trkpt lat="39.322500239849894" lon="-3.563388247096233"><ele>790.0</ele><time>2026-05-01T08:23:40.999Z</time></trkpt><trkpt lat="39.32245775975193" lon="-3.5634946458459074"><ele>790.5000000000001</ele><time>2026-05-01T08:23:41.999Z</time></trkpt><trkpt lat="39.32242322380208" lon="-3.5635838766787447"><ele>791.0</ele><time>2026-05-01T08:23:42.999Z</time></trkpt><trkpt lat="39.32239485957035" lon="-3.5636726005434682"><ele>791.0</ele><time>2026-05-01T08:23:43.999Z</time></trkpt><trkpt lat="39.32238066249669" lon="-3.5637600065713553"><ele>791.0</ele><time>2026-05-01T08:23:44.999Z</time></trkpt><trkpt lat="39.322384300676326" lon="-3.5639106355263452"><ele>791.0</ele><time>2026-05-01T08:23:46.999Z</time></trkpt><trkpt lat="39.32237966701712" lon="-3.564077398663158"><ele>791.0</ele><time>2026-05-01T08:23:48.999Z</time></trkpt><trkpt lat="39.32238360609633" lon="-3.5641635924312163"><ele>791.0</ele><time>2026-05-01T08:23:49.999Z</time></trkpt><trkpt lat="39.32239625960464" lon="-3.5642783568819403"><ele>791.0000000000001</ele><time>2026-05-01T08:23:51.999Z</time></trkpt><trkpt lat="39.32238997777122" lon="-3.56436712544634"><ele>791.0</ele><time>2026-05-01T08:23:55.999Z</time></trkpt><trkpt lat="39.322375587800124" lon="-3.5644484689791085"><ele>791.0</ele><time>2026-05-01T08:23:56.999Z</time></trkpt><trkpt lat="39.32236424520512" lon="-3.564554565820032"><ele>791.0</ele><time>2026-05-01T08:23:58Z</time></trkpt><trkpt lat="39.32237192119586" lon="-3.5646633016293876"><ele>791.0000000000001</ele><time>2026-05-01T08:23:59Z</time></trkpt><trkpt lat="39.32239196283627" lon="-3.5647602599434967"><ele>791.0</ele><time>2026-05-01T08:24:00Z</time></trkpt><trkpt lat="39.32241570491727" lon="-3.5648506818111025"><ele>791.5999999999999</ele><time>2026-05-01T08:24:01Z</time></trkpt><trkpt lat="39.32243499495153" lon="-3.5650038285483108"><ele>792.2</ele><time>2026-05-01T08:24:03Z</time></trkpt><trkpt lat="39.32242975663151" lon="-3.565092602643988"><ele>792.8</ele><time>2026-05-01T08:24:04Z</time></trkpt><trkpt lat="39.322406584251674" lon="-3.5652340248666654"><ele>793.4000000000001</ele><time>2026-05-01T08:24:06Z</time></trkpt><trkpt lat="39.32236571919228" lon="-3.5653760171289557"><ele>794.0</ele><time>2026-05-01T08:24:08Z</time></trkpt><trkpt lat="39.32234113667758" lon="-3.565480267459729"><ele>794.0</ele><time>2026-05-01T08:24:09Z</time></trkpt><trkpt lat="39.322323746229735" lon="-3.5655709318220685"><ele>794.0</ele><time>2026-05-01T08:24:10Z</time></trkpt><trkpt lat="39.32230929782596" lon="-3.5657188171079373"><ele>794.0</ele><time>2026-05-01T08:24:12Z</time></trkpt><trkpt lat="39.322314150406115" lon="-3.5658678227312253"><ele>794.0</ele><time>2026-05-01T08:24:14Z</time></trkpt><trkpt lat="39.32232834153544" lon="-3.566005677324186"><ele>794.0</ele><time>2026-05-01T08:24:16Z</time></trkpt><trkpt lat="39.322330929799115" lon="-3.5661002769237253"><ele>794.0000000000001</ele><time>2026-05-01T08:24:17Z</time></trkpt><trkpt lat="39.32233842118937" lon="-3.5661923743000226"><ele>794.0</ele><time>2026-05-01T08:24:18Z</time></trkpt><trkpt lat="39.32234735691869" lon="-3.566288863337509"><ele>794.0</ele><time>2026-05-01T08:24:19Z</time></trkpt><trkpt lat="39.32235412540713" lon="-3.566371132828649"><ele>794.0</ele><time>2026-05-01T08:24:20Z</time></trkpt><trkpt lat="39.32235996230774" lon="-3.56646251156999"><ele>794.0000000000001</ele><time>2026-05-01T08:24:21Z</time></trkpt><trkpt lat="39.322361665392776" lon="-3.5665676601215495"><ele>794.0</ele><time>2026-05-01T08:24:22Z</time></trkpt><trkpt lat="39.32236796414877" lon="-3.5666916163813474"><ele>794.4000000000001</ele><time>2026-05-01T08:24:23Z</time></trkpt><trkpt lat="39.32238032050027" lon="-3.5668123623274823"><ele>794.8</ele><time>2026-05-01T08:24:24Z</time></trkpt><trkpt lat="39.322389293451245" lon="-3.5669425672381396"><ele>795.2</ele><time>2026-05-01T08:24:25Z</time></trkpt><trkpt lat="39.32239250768167" lon="-3.567046152081495"><ele>795.5999999999999</ele><time>2026-05-01T08:24:26Z</time></trkpt><trkpt lat="39.3223829798483" lon="-3.5671682684213093"><ele>796.0</ele><time>2026-05-01T08:24:27Z</time></trkpt><trkpt lat="39.322364562849025" lon="-3.567291937565095"><ele>796.4999999999999</ele><time>2026-05-01T08:24:28Z</time></trkpt><trkpt lat="39.32235342987434" lon="-3.5673989484971274"><ele>797.0</ele><time>2026-05-01T08:24:29Z</time></trkpt><trkpt lat="39.322337454270766" lon="-3.567481654413408"><ele>797.5</ele><time>2026-05-01T08:24:30Z</time></trkpt><trkpt lat="39.32231787142763" lon="-3.567588327696072"><ele>798.0</ele><time>2026-05-01T08:24:31Z</time></trkpt><trkpt lat="39.322280064338905" lon="-3.5677039319051853"><ele>798.4999999999999</ele><time>2026-05-01T08:24:32Z</time></trkpt><trkpt lat="39.32226032203518" lon="-3.5678148072397877"><ele>799.0</ele><time>2026-05-01T08:24:33Z</time></trkpt><trkpt lat="39.32224935929131" lon="-3.567931085033128"><ele>799.0</ele><time>2026-05-01T08:24:34Z</time></trkpt><trkpt lat="39.32223766452414" lon="-3.5680405538944227"><ele>799.0</ele><time>2026-05-01T08:24:35Z</time></trkpt><trkpt lat="39.32222557129905" lon="-3.568156084952616"><ele>799.0</ele><time>2026-05-01T08:24:36Z</time></trkpt><trkpt lat="39.32222593273461" lon="-3.568261940942891"><ele>799.0</ele><time>2026-05-01T08:24:37Z</time></trkpt><trkpt lat="39.322221925627225" lon="-3.5683804193459583"><ele>799.0</ele><time>2026-05-01T08:24:38Z</time></trkpt><trkpt lat="39.32221438010991" lon="-3.5685099444807156"><ele>799.0</ele><time>2026-05-01T08:24:39Z</time></trkpt><trkpt lat="39.322201767259" lon="-3.568636548654059"><ele>799.0</ele><time>2026-05-01T08:24:40Z</time></trkpt><trkpt lat="39.322186104364924" lon="-3.568770531834844"><ele>799.0</ele><time>2026-05-01T08:24:41Z</time></trkpt><trkpt lat="39.32216466563685" lon="-3.568882788018003"><ele>799.0</ele><time>2026-05-01T08:24:42Z</time></trkpt><trkpt lat="39.3221477344117" lon="-3.568968387168921"><ele>799.0</ele><time>2026-05-01T08:24:43Z</time></trkpt><trkpt lat="39.32214425124849" lon="-3.569105790716225"><ele>798.8333333333333</ele><time>2026-05-01T08:24:45Z</time></trkpt><trkpt lat="39.32216684724728" lon="-3.5692014762100164"><ele>798.6666666666666</ele><time>2026-05-01T08:24:48Z</time></trkpt><trkpt lat="39.322161998460146" lon="-3.569308436295037"><ele>798.5</ele><time>2026-05-01T08:24:50Z</time></trkpt><trkpt lat="39.32213664265293" lon="-3.569395131188625"><ele>798.3333333333333</ele><time>2026-05-01T08:24:51Z</time></trkpt><trkpt lat="39.32209837813132" lon="-3.5695526492352982"><ele>798.1666666666666</ele><time>2026-05-01T08:24:53Z</time></trkpt><trkpt lat="39.322084453456156" lon="-3.569644906171191"><ele>798.0</ele><time>2026-05-01T08:24:54Z</time></trkpt><trkpt lat="39.3220681539675" lon="-3.569741072583232"><ele>798.4</ele><time>2026-05-01T08:24:54.999Z</time></trkpt><trkpt lat="39.322048630311265" lon="-3.5698397605421364"><ele>798.8</ele><time>2026-05-01T08:24:55.999Z</time></trkpt><trkpt lat="39.32202787070066" lon="-3.5699483183727048"><ele>799.2</ele><time>2026-05-01T08:24:56.999Z</time></trkpt><trkpt lat="39.32200854591024" lon="-3.5700606955303287"><ele>799.6</ele><time>2026-05-01T08:24:57.999Z</time></trkpt><trkpt lat="39.32197623055785" lon="-3.570203808288882"><ele>800.0</ele><time>2026-05-01T08:24:58.999Z</time></trkpt><trkpt lat="39.32194796886457" lon="-3.570323006108672"><ele>800.6</ele><time>2026-05-01T08:24:59.999Z</time></trkpt><trkpt lat="39.32192579469918" lon="-3.5704116402575776"><ele>801.2</ele><time>2026-05-01T08:25:00.999Z</time></trkpt><trkpt lat="39.3218912576845" lon="-3.5705597343955415"><ele>801.8</ele><time>2026-05-01T08:25:02.999Z</time></trkpt><trkpt lat="39.321862513279704" lon="-3.5707021298041677"><ele>802.4</ele><time>2026-05-01T08:25:04.999Z</time></trkpt><trkpt lat="39.32183045286662" lon="-3.5708542525766322"><ele>803.0</ele><time>2026-05-01T08:25:06.999Z</time></trkpt><trkpt lat="39.32178022772301" lon="-3.570993343211646"><ele>803.0</ele><time>2026-05-01T08:25:08.999Z</time></trkpt><trkpt lat="39.321717247649545" lon="-3.5711166218771195"><ele>803.0</ele><time>2026-05-01T08:25:10.999Z</time></trkpt><trkpt lat="39.32166474477776" lon="-3.5712181958553444"><ele>803.0</ele><time>2026-05-01T08:25:12.999Z</time></trkpt><trkpt lat="39.321624070051136" lon="-3.5712875612840844"><ele>803.0</ele><time>2026-05-01T08:25:13.999Z</time></trkpt><trkpt lat="39.32157426861099" lon="-3.5713722331389453"><ele>803.0</ele><time>2026-05-01T08:25:14.999Z</time></trkpt><trkpt lat="39.321516534227804" lon="-3.5714687440609416"><ele>803.0</ele><time>2026-05-01T08:25:15.999Z</time></trkpt><trkpt lat="39.321456387367874" lon="-3.5715730413503843"><ele>803.0</ele><time>2026-05-01T08:25:16.999Z</time></trkpt><trkpt lat="39.32139864083117" lon="-3.571677811870105"><ele>803.0</ele><time>2026-05-01T08:25:17.999Z</time></trkpt><trkpt lat="39.32135577833661" lon="-3.571781402238478"><ele>803.0</ele><time>2026-05-01T08:25:18.999Z</time></trkpt><trkpt lat="39.32130693179585" lon="-3.5718945653944347"><ele>803.0</ele><time>2026-05-01T08:25:19.999Z</time></trkpt><trkpt lat="39.32125895015776" lon="-3.5719955012654894"><ele>803.1666666666667</ele><time>2026-05-01T08:25:20.999Z</time></trkpt><trkpt lat="39.321201281624035" lon="-3.5721148755250285"><ele>803.3333333333334</ele><time>2026-05-01T08:25:21.999Z</time></trkpt><trkpt lat="39.321157930176064" lon="-3.572205175942615"><ele>803.5</ele><time>2026-05-01T08:25:22.999Z</time></trkpt><trkpt lat="39.32111920060608" lon="-3.572306151402493"><ele>803.6666666666667</ele><time>2026-05-01T08:25:23.999Z</time></trkpt><trkpt lat="39.32109521357399" lon="-3.572396414097423"><ele>803.8333333333334</ele><time>2026-05-01T08:25:24.999Z</time></trkpt><trkpt lat="39.32107421631278" lon="-3.5725124836546662"><ele>804.0</ele><time>2026-05-01T08:25:25.999Z</time></trkpt><trkpt lat="39.32105523939393" lon="-3.5726239242503506"><ele>804.0</ele><time>2026-05-01T08:25:26.999Z</time></trkpt><trkpt lat="39.32103508690944" lon="-3.5727456546516665"><ele>804.0</ele><time>2026-05-01T08:25:27.999Z</time></trkpt><trkpt lat="39.32100509722933" lon="-3.572853739063533"><ele>804.0</ele><time>2026-05-01T08:25:28.999Z</time></trkpt><trkpt lat="39.32097401495157" lon="-3.572941433418343"><ele>804.0</ele><time>2026-05-01T08:25:29.999Z</time></trkpt><trkpt lat="39.320924872191284" lon="-3.5730791587929223"><ele>804.0</ele><time>2026-05-01T08:25:31.999Z</time></trkpt><trkpt lat="39.32090942906535" lon="-3.5731700131146016"><ele>804.0</ele><time>2026-05-01T08:25:32.999Z</time></trkpt><trkpt lat="39.32090204579693" lon="-3.5732819159556053"><ele>804.1666666666666</ele><time>2026-05-01T08:25:33.999Z</time></trkpt><trkpt lat="39.320906260202214" lon="-3.573402416136252"><ele>804.3333333333333</ele><time>2026-05-01T08:25:34.999Z</time></trkpt><trkpt lat="39.3209192929562" lon="-3.5735152756693864"><ele>804.5</ele><time>2026-05-01T08:25:35.999Z</time></trkpt><trkpt lat="39.32092730350363" lon="-3.5736203989368693"><ele>804.6666666666666</ele><time>2026-05-01T08:25:36.999Z</time></trkpt><trkpt lat="39.32093233139906" lon="-3.573738302093423"><ele>804.8333333333333</ele><time>2026-05-01T08:25:37.999Z</time></trkpt><trkpt lat="39.32092305856988" lon="-3.573856088015437"><ele>805.0</ele><time>2026-05-01T08:25:38.999Z</time></trkpt><trkpt lat="39.32089978317956" lon="-3.573979422095873"><ele>805.25</ele><time>2026-05-01T08:25:39.999Z</time></trkpt><trkpt lat="39.32085884518469" lon="-3.574128408501391"><ele>805.5</ele><time>2026-05-01T08:25:40.999Z</time></trkpt><trkpt lat="39.320814401650566" lon="-3.5743063004865956"><ele>805.75</ele><time>2026-05-01T08:25:41.999Z</time></trkpt><trkpt lat="39.32077921951673" lon="-3.5744666417883755"><ele>806.0</ele><time>2026-05-01T08:25:42.999Z</time></trkpt><trkpt lat="39.32073823975813" lon="-3.5746297461408854"><ele>806.75</ele><time>2026-05-01T08:25:43.999Z</time></trkpt><trkpt lat="39.32069833665868" lon="-3.574796401500527"><ele>807.5</ele><time>2026-05-01T08:25:44.999Z</time></trkpt><trkpt lat="39.32065647806814" lon="-3.5749583863897323"><ele>808.25</ele><time>2026-05-01T08:25:45.999Z</time></trkpt><trkpt lat="39.32061658366872" lon="-3.575111602302697"><ele>809.0</ele><time>2026-05-01T08:25:46.999Z</time></trkpt><trkpt lat="39.32058127264093" lon="-3.575251163433341"><ele>809.75</ele><time>2026-05-01T08:25:47.999Z</time></trkpt><trkpt lat="39.3205471693943" lon="-3.5753970346989075"><ele>810.5</ele><time>2026-05-01T08:25:48.999Z</time></trkpt><trkpt lat="39.32052240673809" lon="-3.5755262105757746"><ele>811.25</ele><time>2026-05-01T08:25:49.999Z</time></trkpt><trkpt lat="39.32050580132684" lon="-3.5756256329160907"><ele>812.0</ele><time>2026-05-01T08:25:50.999Z</time></trkpt><trkpt lat="39.32038972334965" lon="-3.5759440371344393"><ele>812.0000000000001</ele><time>2026-05-01T08:25:52.999Z</time></trkpt><trkpt lat="39.32036148036376" lon="-3.5760668524332972"><ele>812.0</ele><time>2026-05-01T08:25:53.999Z</time></trkpt><trkpt lat="39.32033738981633" lon="-3.576177412288485"><ele>812.0</ele><time>2026-05-01T08:25:54.999Z</time></trkpt><trkpt lat="39.32030205082528" lon="-3.5762807713786624"><ele>812.0</ele><time>2026-05-01T08:25:55.999Z</time></trkpt><trkpt lat="39.32026907852732" lon="-3.576399359987059"><ele>812.0000000000001</ele><time>2026-05-01T08:25:56.999Z</time></trkpt><trkpt lat="39.320245054860266" lon="-3.576490045128724"><ele>812.0</ele><time>2026-05-01T08:25:57.999Z</time></trkpt><trkpt lat="39.32022851552846" lon="-3.5765706372170083"><ele>812.4000000000001</ele><time>2026-05-01T08:25:58.999Z</time></trkpt><trkpt lat="39.32021728594946" lon="-3.5767238611345897"><ele>812.8000000000001</ele><time>2026-05-01T08:26:00.999Z</time></trkpt><trkpt lat="39.32021959151498" lon="-3.5768419959141977"><ele>813.2</ele><time>2026-05-01T08:26:01.999Z</time></trkpt><trkpt lat="39.32022998789339" lon="-3.576981690965051"><ele>813.6</ele><time>2026-05-01T08:26:02.999Z</time></trkpt><trkpt lat="39.32024964118591" lon="-3.5770950988469234"><ele>814.0</ele><time>2026-05-01T08:26:04Z</time></trkpt><trkpt lat="39.32027119622884" lon="-3.5771912882713313"><ele>814.2</ele><time>2026-05-01T08:26:05Z</time></trkpt><trkpt lat="39.32029587304148" lon="-3.577300175868083"><ele>814.4000000000001</ele><time>2026-05-01T08:26:06Z</time></trkpt><trkpt lat="39.32031290392149" lon="-3.5773943665972756"><ele>814.6</ele><time>2026-05-01T08:26:07Z</time></trkpt><trkpt lat="39.320338667937186" lon="-3.5775076578471308"><ele>814.8</ele><time>2026-05-01T08:26:08Z</time></trkpt><trkpt lat="39.32036747182108" lon="-3.577630790169108"><ele>815.0</ele><time>2026-05-01T08:26:09Z</time></trkpt><trkpt lat="39.32040065541567" lon="-3.57778514199666"><ele>815.5000000000001</ele><time>2026-05-01T08:26:10Z</time></trkpt><trkpt lat="39.32041569879811" lon="-3.577896939644285"><ele>816.0</ele><time>2026-05-01T08:26:11Z</time></trkpt><trkpt lat="39.320420724262256" lon="-3.5779925287503915"><ele>816.5</ele><time>2026-05-01T08:26:12Z</time></trkpt><trkpt lat="39.3204113659407" lon="-3.578091088770627"><ele>817.0</ele><time>2026-05-01T08:26:13Z</time></trkpt><trkpt lat="39.32038964986636" lon="-3.578179643758893"><ele>817.5000000000001</ele><time>2026-05-01T08:26:14Z</time></trkpt><trkpt lat="39.32034494285119" lon="-3.5782650960217763"><ele>818.0</ele><time>2026-05-01T08:26:15Z</time></trkpt><trkpt lat="39.32024497382161" lon="-3.578418717133062"><ele>818.0</ele><time>2026-05-01T08:26:16Z</time></trkpt><trkpt lat="39.32015962422765" lon="-3.5785679394187664"><ele>818.0</ele><time>2026-05-01T08:26:17Z</time></trkpt><trkpt lat="39.32011173480872" lon="-3.5786972879191112"><ele>818.0</ele><time>2026-05-01T08:26:18Z</time></trkpt><trkpt lat="39.32007392252483" lon="-3.578838125761198"><ele>818.0</ele><time>2026-05-01T08:26:19Z</time></trkpt><trkpt lat="39.32004770129425" lon="-3.579005887941252"><ele>818.0000000000001</ele><time>2026-05-01T08:26:20Z</time></trkpt><trkpt lat="39.32003058297363" lon="-3.579150182760602"><ele>818.0</ele><time>2026-05-01T08:26:21Z</time></trkpt><trkpt lat="39.320019555435685" lon="-3.5792630590950543"><ele>818.0</ele><time>2026-05-01T08:26:22Z</time></trkpt><trkpt lat="39.319999114059605" lon="-3.5793645808744654"><ele>818.0</ele><time>2026-05-01T08:26:23Z</time></trkpt><trkpt lat="39.31998133159248" lon="-3.5794563138564053"><ele>818.0000000000001</ele><time>2026-05-01T08:26:24Z</time></trkpt><trkpt lat="39.31995764648093" lon="-3.5795622561955014"><ele>818.0</ele><time>2026-05-01T08:26:25Z</time></trkpt><trkpt lat="39.3199386754062" lon="-3.5796531082282432"><ele>818.3333333333334</ele><time>2026-05-01T08:26:26Z</time></trkpt><trkpt lat="39.31991987845735" lon="-3.579749504291746"><ele>818.6666666666667</ele><time>2026-05-01T08:26:27Z</time></trkpt><trkpt lat="39.31990535888273" lon="-3.5798323278937327"><ele>819.0</ele><time>2026-05-01T08:26:28Z</time></trkpt><trkpt lat="39.31988150525198" lon="-3.579934730724278"><ele>819.3333333333333</ele><time>2026-05-01T08:26:29Z</time></trkpt><trkpt lat="39.31985544639159" lon="-3.5800662399723397"><ele>819.6666666666666</ele><time>2026-05-01T08:26:30Z</time></trkpt><trkpt lat="39.31983323540159" lon="-3.580192381331469"><ele>820.0</ele><time>2026-05-01T08:26:31Z</time></trkpt><trkpt lat="39.31980574019556" lon="-3.580318804175557"><ele>820.6666666666666</ele><time>2026-05-01T08:26:32Z</time></trkpt><trkpt lat="39.319779339365965" lon="-3.5804138757756063"><ele>821.3333333333333</ele><time>2026-05-01T08:26:33Z</time></trkpt><trkpt lat="39.31974724154275" lon="-3.580529855439692"><ele>822.0</ele><time>2026-05-01T08:26:34Z</time></trkpt><trkpt lat="39.31972099491242" lon="-3.5806565116237423"><ele>822.6666666666667</ele><time>2026-05-01T08:26:35Z</time></trkpt><trkpt lat="39.319701545835244" lon="-3.5807557197967665"><ele>823.3333333333334</ele><time>2026-05-01T08:26:36Z</time></trkpt><trkpt lat="39.319689294828606" lon="-3.5808453667689895"><ele>824.0</ele><time>2026-05-01T08:26:37Z</time></trkpt><trkpt lat="39.3196763964677" lon="-3.5809297632004706"><ele>824.3333333333334</ele><time>2026-05-01T08:26:38Z</time></trkpt><trkpt lat="39.3196488936656" lon="-3.58102368879508"><ele>824.6666666666667</ele><time>2026-05-01T08:26:39Z</time></trkpt><trkpt lat="39.3196256919509" lon="-3.581127335783093"><ele>825.0</ele><time>2026-05-01T08:26:40Z</time></trkpt><trkpt lat="39.31960268520105" lon="-3.5812331300132203"><ele>825.3333333333333</ele><time>2026-05-01T08:26:41Z</time></trkpt><trkpt lat="39.31957412612641" lon="-3.581325443422044"><ele>825.6666666666666</ele><time>2026-05-01T08:26:42Z</time></trkpt><trkpt lat="39.31953305256729" lon="-3.581419772354363"><ele>826.0</ele><time>2026-05-01T08:26:43Z</time></trkpt><trkpt lat="39.319486781853385" lon="-3.5815192936753832"><ele>825.5999999999999</ele><time>2026-05-01T08:26:44Z</time></trkpt><trkpt lat="39.31943594890842" lon="-3.5816176958551353"><ele>825.2</ele><time>2026-05-01T08:26:45Z</time></trkpt><trkpt lat="39.31938915380188" lon="-3.581730414613191"><ele>824.8</ele><time>2026-05-01T08:26:46Z</time></trkpt><trkpt lat="39.319341017311444" lon="-3.5818563305463806"><ele>824.4000000000001</ele><time>2026-05-01T08:26:47Z</time></trkpt><trkpt lat="39.31929424852971" lon="-3.5819870399365716"><ele>824.0</ele><time>2026-05-01T08:26:48Z</time></trkpt><trkpt lat="39.31925142138338" lon="-3.582112958173948"><ele>824.0</ele><time>2026-05-01T08:26:49Z</time></trkpt><trkpt lat="39.319206973385825" lon="-3.5822493942206735"><ele>824.0</ele><time>2026-05-01T08:26:50Z</time></trkpt><trkpt lat="39.31915679472719" lon="-3.582393759820426"><ele>824.0</ele><time>2026-05-01T08:26:51Z</time></trkpt><trkpt lat="39.31910205070531" lon="-3.582537531252009"><ele>824.0</ele><time>2026-05-01T08:26:52Z</time></trkpt><trkpt lat="39.31905642739983" lon="-3.5826765113678483"><ele>824.0</ele><time>2026-05-01T08:26:53Z</time></trkpt><trkpt lat="39.31901886487369" lon="-3.582805993219002"><ele>824.0</ele><time>2026-05-01T08:26:54Z</time></trkpt><trkpt lat="39.31898714909493" lon="-3.582907986376333"><ele>824.0</ele><time>2026-05-01T08:26:55Z</time></trkpt><trkpt lat="39.318934586671" lon="-3.583049449265713"><ele>824.0</ele><time>2026-05-01T08:26:56Z</time></trkpt><trkpt lat="39.31888244223205" lon="-3.583195865472689"><ele>824.0</ele><time>2026-05-01T08:26:57Z</time></trkpt><trkpt lat="39.31884066578267" lon="-3.583298306811503"><ele>825.0</ele><time>2026-05-01T08:26:58Z</time></trkpt><trkpt lat="39.31878851614554" lon="-3.58343327580051"><ele>826.0</ele><time>2026-05-01T08:27:00Z</time></trkpt><trkpt lat="39.318740655674596" lon="-3.583543163870917"><ele>827.0</ele><time>2026-05-01T08:27:01Z</time></trkpt><trkpt lat="39.31867661561629" lon="-3.583652717484105"><ele>828.0</ele><time>2026-05-01T08:27:01.999Z</time></trkpt><trkpt lat="39.318599526970964" lon="-3.5837686877060304"><ele>829.0</ele><time>2026-05-01T08:27:02.999Z</time></trkpt><trkpt lat="39.318544874776535" lon="-3.5838577994245946"><ele>829.6</ele><time>2026-05-01T08:27:03.999Z</time></trkpt><trkpt lat="39.318498983983424" lon="-3.5839330462999364"><ele>830.2</ele><time>2026-05-01T08:27:04.999Z</time></trkpt><trkpt lat="39.318451565314696" lon="-3.5840206988279317"><ele>830.8000000000001</ele><time>2026-05-01T08:27:05.999Z</time></trkpt><trkpt lat="39.31838887847731" lon="-3.584137533699385"><ele>831.4000000000001</ele><time>2026-05-01T08:27:06.999Z</time></trkpt><trkpt lat="39.318319053943824" lon="-3.5842660185706596"><ele>832.0</ele><time>2026-05-01T08:27:07.999Z</time></trkpt><trkpt lat="39.31825778130802" lon="-3.5843856766096622"><ele>831.9999999999999</ele><time>2026-05-01T08:27:08.999Z</time></trkpt><trkpt lat="39.31822502420261" lon="-3.584477618445198"><ele>832.0</ele><time>2026-05-01T08:27:09.999Z</time></trkpt><trkpt lat="39.31820755415146" lon="-3.584556407390716"><ele>832.0</ele><time>2026-05-01T08:27:10.999Z</time></trkpt><trkpt lat="39.31818876655912" lon="-3.584719599850125"><ele>832.0</ele><time>2026-05-01T08:27:12.999Z</time></trkpt><trkpt lat="39.318191271396635" lon="-3.5848229106020817"><ele>831.9999999999999</ele><time>2026-05-01T08:27:13.999Z</time></trkpt><trkpt lat="39.31819547603192" lon="-3.584930532284391"><ele>832.0</ele><time>2026-05-01T08:27:14.999Z</time></trkpt><trkpt lat="39.31819919359515" lon="-3.5850436216096786"><ele>832.8333333333333</ele><time>2026-05-01T08:27:15.999Z</time></trkpt><trkpt lat="39.318194109766345" lon="-3.5851418351664126"><ele>833.6666666666666</ele><time>2026-05-01T08:27:16.999Z</time></trkpt><trkpt lat="39.318178253245925" lon="-3.5852319898201364"><ele>834.5</ele><time>2026-05-01T08:27:17.999Z</time></trkpt><trkpt lat="39.3181633715572" lon="-3.585332151111504"><ele>835.3333333333333</ele><time>2026-05-01T08:27:18.999Z</time></trkpt><trkpt lat="39.3181454572065" lon="-3.5854309050858624"><ele>836.1666666666666</ele><time>2026-05-01T08:27:19.999Z</time></trkpt><trkpt lat="39.31812820810763" lon="-3.585588938954222"><ele>837.0</ele><time>2026-05-01T08:27:21.999Z</time></trkpt><trkpt lat="39.31813401165663" lon="-3.585706924306649"><ele>838.5</ele><time>2026-05-01T08:27:22.999Z</time></trkpt><trkpt lat="39.31815180719207" lon="-3.585850404329253"><ele>840.0</ele><time>2026-05-01T08:27:23.999Z</time></trkpt><trkpt lat="39.31816860750173" lon="-3.58602501052965"><ele>841.5</ele><time>2026-05-01T08:27:24.999Z</time></trkpt><trkpt lat="39.31816352167527" lon="-3.5861851506634457"><ele>843.0</ele><time>2026-05-01T08:27:25.999Z</time></trkpt><trkpt lat="39.31815361974928" lon="-3.586325912813161"><ele>843.2</ele><time>2026-05-01T08:27:26.999Z</time></trkpt><trkpt lat="39.318149338593884" lon="-3.5864306787547315"><ele>843.4</ele><time>2026-05-01T08:27:27.999Z</time></trkpt><trkpt lat="39.31814655442543" lon="-3.5865303976748657"><ele>843.6</ele><time>2026-05-01T08:27:28.999Z</time></trkpt><trkpt lat="39.31813904733923" lon="-3.5866670373255736"><ele>843.8000000000001</ele><time>2026-05-01T08:27:29.999Z</time></trkpt><trkpt lat="39.31812273787286" lon="-3.5868426677716805"><ele>844.0</ele><time>2026-05-01T08:27:30.999Z</time></trkpt><trkpt lat="39.31810564964202" lon="-3.5869842216306154"><ele>844.4000000000001</ele><time>2026-05-01T08:27:31.999Z</time></trkpt><trkpt lat="39.31809397786863" lon="-3.587102479648319"><ele>844.8</ele><time>2026-05-01T08:27:32.999Z</time></trkpt><trkpt lat="39.31808749246317" lon="-3.58721962521605"><ele>845.2</ele><time>2026-05-01T08:27:33.999Z</time></trkpt><trkpt lat="39.31809810634368" lon="-3.5873377283356245"><ele>845.5999999999999</ele><time>2026-05-01T08:27:34.999Z</time></trkpt><trkpt lat="39.3181115064554" lon="-3.5874593690117957"><ele>846.0</ele><time>2026-05-01T08:27:35.999Z</time></trkpt><trkpt lat="39.31812893192396" lon="-3.587589712401095"><ele>846.0</ele><time>2026-05-01T08:27:36.999Z</time></trkpt><trkpt lat="39.3181554852848" lon="-3.58773003094514"><ele>846.0</ele><time>2026-05-01T08:27:37.999Z</time></trkpt><trkpt lat="39.318179317634474" lon="-3.587872132342727"><ele>846.0</ele><time>2026-05-01T08:27:38.999Z</time></trkpt><trkpt lat="39.318197863156456" lon="-3.5879703639654283"><ele>846.0</ele><time>2026-05-01T08:27:39.999Z</time></trkpt><trkpt lat="39.31821252954271" lon="-3.5880617721825177"><ele>846.0</ele><time>2026-05-01T08:27:40.999Z</time></trkpt><trkpt lat="39.31822951217735" lon="-3.588153321886704"><ele>846.0</ele><time>2026-05-01T08:27:41.999Z</time></trkpt><trkpt lat="39.31823498620098" lon="-3.5882543505067317"><ele>846.4</ele><time>2026-05-01T08:27:42.999Z</time></trkpt><trkpt lat="39.31822628389131" lon="-3.5883730212883402"><ele>846.8</ele><time>2026-05-01T08:27:43.999Z</time></trkpt><trkpt lat="39.31820415408665" lon="-3.588502242982291"><ele>847.1999999999999</ele><time>2026-05-01T08:27:44.999Z</time></trkpt><trkpt lat="39.31816599013163" lon="-3.5886324328676054"><ele>847.5999999999999</ele><time>2026-05-01T08:27:45.999Z</time></trkpt><trkpt lat="39.31811553010393" lon="-3.5887413222610904"><ele>848.0</ele><time>2026-05-01T08:27:46.999Z</time></trkpt><trkpt lat="39.3180533237152" lon="-3.588845091053137"><ele>847.1666666666667</ele><time>2026-05-01T08:27:47.999Z</time></trkpt><trkpt lat="39.318009729359844" lon="-3.5889177852425593"><ele>846.3333333333334</ele><time>2026-05-01T08:27:48.999Z</time></trkpt><trkpt lat="39.317965813550444" lon="-3.5889923589440174"><ele>845.5</ele><time>2026-05-01T08:27:49.999Z</time></trkpt><trkpt lat="39.3179180795348" lon="-3.5890582664266466"><ele>844.6666666666667</ele><time>2026-05-01T08:27:50.999Z</time></trkpt><trkpt lat="39.31785138456421" lon="-3.5891238184843623"><ele>843.8333333333334</ele><time>2026-05-01T08:27:51.999Z</time></trkpt><trkpt lat="39.31778086378828" lon="-3.589181949634571"><ele>843.0</ele><time>2026-05-01T08:27:52.999Z</time></trkpt><trkpt lat="39.3177049487636" lon="-3.5892596165824857"><ele>843.0</ele><time>2026-05-01T08:27:53.999Z</time></trkpt><trkpt lat="39.317647274247534" lon="-3.589346782110696"><ele>843.0</ele><time>2026-05-01T08:27:54.999Z</time></trkpt><trkpt lat="39.31759818126594" lon="-3.5894318928540287"><ele>843.0</ele><time>2026-05-01T08:27:55.999Z</time></trkpt><trkpt lat="39.317531648855145" lon="-3.5895417827001648"><ele>843.0</ele><time>2026-05-01T08:27:56.999Z</time></trkpt><trkpt lat="39.31747484854899" lon="-3.589636954491145"><ele>843.0</ele><time>2026-05-01T08:27:57.999Z</time></trkpt><trkpt lat="39.31743324045249" lon="-3.5897518711755385"><ele>843.5</ele><time>2026-05-01T08:27:58.999Z</time></trkpt><trkpt lat="39.31740843278811" lon="-3.5898939537201335"><ele>844.0</ele><time>2026-05-01T08:27:59.999Z</time></trkpt><trkpt lat="39.31738526682812" lon="-3.5900803755266226"><ele>844.5</ele><time>2026-05-01T08:28:00.999Z</time></trkpt><trkpt lat="39.317371045973644" lon="-3.5902698475060775"><ele>845.0</ele><time>2026-05-01T08:28:01.999Z</time></trkpt><trkpt lat="39.317357196426364" lon="-3.5904682631618012"><ele>846.2</ele><time>2026-05-01T08:28:02.999Z</time></trkpt><trkpt lat="39.317350845534925" lon="-3.5906055104768213"><ele>847.4</ele><time>2026-05-01T08:28:03.999Z</time></trkpt><trkpt lat="39.317344445274415" lon="-3.5907017182412293"><ele>848.5999999999999</ele><time>2026-05-01T08:28:04.999Z</time></trkpt><trkpt lat="39.317330712387594" lon="-3.5908227877610175"><ele>849.8</ele><time>2026-05-01T08:28:06.999Z</time></trkpt><trkpt lat="39.317286025594626" lon="-3.5908964441471207"><ele>851.0</ele><time>2026-05-01T08:28:08.999Z</time></trkpt><trkpt lat="39.317218606191915" lon="-3.5910491892564735"><ele>851.1666666666667</ele><time>2026-05-01T08:28:11Z</time></trkpt><trkpt lat="39.31716586093604" lon="-3.59113484003921"><ele>851.3333333333334</ele><time>2026-05-01T08:28:12Z</time></trkpt><trkpt lat="39.317114850082554" lon="-3.59123477198229"><ele>851.5</ele><time>2026-05-01T08:28:13Z</time></trkpt><trkpt lat="39.31707470153158" lon="-3.591346125585122"><ele>851.6666666666667</ele><time>2026-05-01T08:28:14Z</time></trkpt><trkpt lat="39.31704592170792" lon="-3.59145414214117"><ele>851.8333333333334</ele><time>2026-05-01T08:28:15Z</time></trkpt><trkpt lat="39.317032986183094" lon="-3.5915596341532336"><ele>852.0</ele><time>2026-05-01T08:28:16Z</time></trkpt><trkpt lat="39.31701387570746" lon="-3.591691812178175"><ele>852.0</ele><time>2026-05-01T08:28:17Z</time></trkpt><trkpt lat="39.31699333801076" lon="-3.5918248787360043"><ele>852.0</ele><time>2026-05-01T08:28:18Z</time></trkpt><trkpt lat="39.31697465896004" lon="-3.591962923174203"><ele>852.0</ele><time>2026-05-01T08:28:19Z</time></trkpt><trkpt lat="39.31696283941307" lon="-3.5920933908108204"><ele>852.0</ele><time>2026-05-01T08:28:20Z</time></trkpt><trkpt lat="39.31694988838459" lon="-3.5922058781909794"><ele>852.0</ele><time>2026-05-01T08:28:21Z</time></trkpt><trkpt lat="39.31693785815405" lon="-3.592301961677772"><ele>851.8</ele><time>2026-05-01T08:28:22Z</time></trkpt><trkpt lat="39.31693149207415" lon="-3.592405691808661"><ele>851.6</ele><time>2026-05-01T08:28:23Z</time></trkpt><trkpt lat="39.316934473657845" lon="-3.5925295403065616"><ele>851.4</ele><time>2026-05-01T08:28:24Z</time></trkpt><trkpt lat="39.31694701325881" lon="-3.59264687686975"><ele>851.1999999999999</ele><time>2026-05-01T08:28:25Z</time></trkpt><trkpt lat="39.31697290513987" lon="-3.5927610123374376"><ele>851.0</ele><time>2026-05-01T08:28:26Z</time></trkpt><trkpt lat="39.316987273390005" lon="-3.5928769480821208"><ele>851.8</ele><time>2026-05-01T08:28:27Z</time></trkpt><trkpt lat="39.31699197682045" lon="-3.5929822557671502"><ele>852.5999999999999</ele><time>2026-05-01T08:28:28Z</time></trkpt><trkpt lat="39.31699977951998" lon="-3.5931479435515357"><ele>853.4</ele><time>2026-05-01T08:28:30Z</time></trkpt><trkpt lat="39.316985841434665" lon="-3.5932683854549237"><ele>854.2</ele><time>2026-05-01T08:28:31Z</time></trkpt><trkpt lat="39.31696895833957" lon="-3.5933954887032376"><ele>855.0</ele><time>2026-05-01T08:28:32Z</time></trkpt><trkpt lat="39.31696551092668" lon="-3.5935612075464993"><ele>856.8</ele><time>2026-05-01T08:28:33Z</time></trkpt><trkpt lat="39.31696683190296" lon="-3.593729803000522"><ele>858.6</ele><time>2026-05-01T08:28:34Z</time></trkpt><trkpt lat="39.31698417371334" lon="-3.593864235161083"><ele>860.4000000000001</ele><time>2026-05-01T08:28:35Z</time></trkpt><trkpt lat="39.31698993015654" lon="-3.593963195802185"><ele>862.2</ele><time>2026-05-01T08:28:36Z</time></trkpt><trkpt lat="39.31701002760605" lon="-3.5940657543277816"><ele>864.0</ele><time>2026-05-01T08:28:37Z</time></trkpt><trkpt lat="39.31704836450782" lon="-3.5941705229294487"><ele>864.0</ele><time>2026-05-01T08:28:38Z</time></trkpt><trkpt lat="39.31708985239318" lon="-3.5942487431066366"><ele>864.0000000000001</ele><time>2026-05-01T08:28:39Z</time></trkpt><trkpt lat="39.31713715953442" lon="-3.5943237866016906"><ele>864.0000000000001</ele><time>2026-05-01T08:28:40Z</time></trkpt><trkpt lat="39.31718079299043" lon="-3.5944111547372817"><ele>864.0</ele><time>2026-05-01T08:28:41Z</time></trkpt><trkpt lat="39.317251193139384" lon="-3.59453394904686"><ele>864.0</ele><time>2026-05-01T08:28:42Z</time></trkpt><trkpt lat="39.317338656933764" lon="-3.594680237063901"><ele>863.0</ele><time>2026-05-01T08:28:43Z</time></trkpt><trkpt lat="39.31743365615134" lon="-3.594829741589817"><ele>862.0000000000001</ele><time>2026-05-01T08:28:44Z</time></trkpt><trkpt lat="39.317525486526556" lon="-3.59497464595231"><ele>861.0000000000001</ele><time>2026-05-01T08:28:45Z</time></trkpt><trkpt lat="39.31756040333233" lon="-3.5950554770889385"><ele>860.0</ele><time>2026-05-01T08:28:47Z</time></trkpt><trkpt lat="39.31758415561962" lon="-3.59513348355811"><ele>859.0</ele><time>2026-05-01T08:28:48Z</time></trkpt><trkpt lat="39.317613331801155" lon="-3.595236909404732"><ele>860.25</ele><time>2026-05-01T08:28:49Z</time></trkpt><trkpt lat="39.31764949722187" lon="-3.5953644403090856"><ele>861.5</ele><time>2026-05-01T08:28:50Z</time></trkpt><trkpt lat="39.317668675127884" lon="-3.5954840440846216"><ele>862.75</ele><time>2026-05-01T08:28:51Z</time></trkpt><trkpt lat="39.3176889162069" lon="-3.5956539442434865"><ele>864.0</ele><time>2026-05-01T08:28:52Z</time></trkpt><trkpt lat="39.31770481318443" lon="-3.595829789040019"><ele>864.0</ele><time>2026-05-01T08:28:53Z</time></trkpt><trkpt lat="39.31771170233045" lon="-3.5959584639006974"><ele>864.0000000000001</ele><time>2026-05-01T08:28:54Z</time></trkpt><trkpt lat="39.31771256122828" lon="-3.5961117651617345"><ele>864.0000000000001</ele><time>2026-05-01T08:28:55Z</time></trkpt><trkpt lat="39.317712803880575" lon="-3.5962531122249923"><ele>864.0</ele><time>2026-05-01T08:28:56Z</time></trkpt><trkpt lat="39.31771445498589" lon="-3.5963762290449344"><ele>864.0</ele><time>2026-05-01T08:28:57Z</time></trkpt><trkpt lat="39.317719772492" lon="-3.596478917955788"><ele>864.5</ele><time>2026-05-01T08:28:58Z</time></trkpt><trkpt lat="39.31771450917517" lon="-3.596599571142569"><ele>865.0</ele><time>2026-05-01T08:28:59Z</time></trkpt><trkpt lat="39.31769673540204" lon="-3.596753204918776"><ele>865.5</ele><time>2026-05-01T08:28:59.999Z</time></trkpt><trkpt lat="39.317674055715635" lon="-3.5968661579787273"><ele>866.0</ele><time>2026-05-01T08:29:00.999Z</time></trkpt><trkpt lat="39.317650279673174" lon="-3.596957998489453"><ele>866.5</ele><time>2026-05-01T08:29:01.999Z</time></trkpt><trkpt lat="39.317645872814836" lon="-3.5970430212478512"><ele>867.0</ele><time>2026-05-01T08:29:02.999Z</time></trkpt><trkpt lat="39.31765122145835" lon="-3.5971512739674134"><ele>868.6</ele><time>2026-05-01T08:29:03.999Z</time></trkpt><trkpt lat="39.31767636590835" lon="-3.597285420484276"><ele>870.2</ele><time>2026-05-01T08:29:04.999Z</time></trkpt><trkpt lat="39.31771608761715" lon="-3.5973864694096136"><ele>871.8</ele><time>2026-05-01T08:29:05.999Z</time></trkpt><trkpt lat="39.31776106426587" lon="-3.597479883991504"><ele>873.4</ele><time>2026-05-01T08:29:06.999Z</time></trkpt><trkpt lat="39.31782870423552" lon="-3.5975964132902667"><ele>875.0</ele><time>2026-05-01T08:29:07.999Z</time></trkpt><trkpt lat="39.31792311141636" lon="-3.5976866827085754"><ele>875.0</ele><time>2026-05-01T08:29:08.999Z</time></trkpt><trkpt lat="39.318001887025325" lon="-3.5977563167221476"><ele>875.0</ele><time>2026-05-01T08:29:09.999Z</time></trkpt><trkpt lat="39.31810674316064" lon="-3.597849118809839"><ele>875.0</ele><time>2026-05-01T08:29:10.999Z</time></trkpt><trkpt lat="39.3182090712985" lon="-3.5979611720470284"><ele>875.0</ele><time>2026-05-01T08:29:11.999Z</time></trkpt><trkpt lat="39.31830383551833" lon="-3.5980295859580713"><ele>874.0</ele><time>2026-05-01T08:29:12.999Z</time></trkpt><trkpt lat="39.31839098584537" lon="-3.598088518931666"><ele>873.0</ele><time>2026-05-01T08:29:13.999Z</time></trkpt><trkpt lat="39.31848269907767" lon="-3.5981645318002724"><ele>872.0</ele><time>2026-05-01T08:29:14.999Z</time></trkpt><trkpt lat="39.31859521859954" lon="-3.5982494193179453"><ele>871.0</ele><time>2026-05-01T08:29:15.999Z</time></trkpt><trkpt lat="39.318703869505896" lon="-3.598332551662111"><ele>871.0</ele><time>2026-05-01T08:29:16.999Z</time></trkpt><trkpt lat="39.318790802267166" lon="-3.5984095566938628"><ele>870.9999999999999</ele><time>2026-05-01T08:29:17.999Z</time></trkpt><trkpt lat="39.31886243582661" lon="-3.598474495303407"><ele>870.9999999999999</ele><time>2026-05-01T08:29:18.999Z</time></trkpt><trkpt lat="39.31892068782957" lon="-3.5985236408671066"><ele>871.0</ele><time>2026-05-01T08:29:19.999Z</time></trkpt><trkpt lat="39.31905760567354" lon="-3.5986128211238095"><ele>871.0</ele><time>2026-05-01T08:29:21.999Z</time></trkpt><trkpt lat="39.31913834995674" lon="-3.598699042113866"><ele>871.8</ele><time>2026-05-01T08:29:22.999Z</time></trkpt><trkpt lat="39.31922218436936" lon="-3.59880716300774"><ele>872.5999999999999</ele><time>2026-05-01T08:29:23.999Z</time></trkpt><trkpt lat="39.319300628309875" lon="-3.598903342575453"><ele>873.4</ele><time>2026-05-01T08:29:24.999Z</time></trkpt><trkpt lat="39.319364956048254" lon="-3.598999885484926"><ele>874.2</ele><time>2026-05-01T08:29:25.999Z</time></trkpt><trkpt lat="39.31944013876757" lon="-3.5991030274969225"><ele>875.0</ele><time>2026-05-01T08:29:26.999Z</time></trkpt><trkpt lat="39.319528211767434" lon="-3.5992131476320792"><ele>875.0</ele><time>2026-05-01T08:29:27.999Z</time></trkpt><trkpt lat="39.31960718298478" lon="-3.599323405088531"><ele>875.0</ele><time>2026-05-01T08:29:28.999Z</time></trkpt><trkpt lat="39.31966598373861" lon="-3.599420412100101"><ele>875.0</ele><time>2026-05-01T08:29:29.999Z</time></trkpt><trkpt lat="39.319713838613296" lon="-3.599516629063786"><ele>875.0</ele><time>2026-05-01T08:29:30.999Z</time></trkpt><trkpt lat="39.31976085017245" lon="-3.5996321457710816"><ele>875.0</ele><time>2026-05-01T08:29:31.999Z</time></trkpt><trkpt lat="39.319794908292515" lon="-3.5997386449373474"><ele>876.0</ele><time>2026-05-01T08:29:32.999Z</time></trkpt><trkpt lat="39.31983362649238" lon="-3.5998158821625825"><ele>877.0</ele><time>2026-05-01T08:29:33.999Z</time></trkpt><trkpt lat="39.31987895603316" lon="-3.599892347599686"><ele>878.0</ele><time>2026-05-01T08:29:34.999Z</time></trkpt><trkpt lat="39.31991348362451" lon="-3.599965841092074"><ele>879.0</ele><time>2026-05-01T08:29:35.999Z</time></trkpt><trkpt lat="39.31993963497675" lon="-3.600049194575539"><ele>880.0</ele><time>2026-05-01T08:29:36.999Z</time></trkpt><trkpt lat="39.31996521744818" lon="-3.600134138074077"><ele>881.0</ele><time>2026-05-01T08:29:37.999Z</time></trkpt><trkpt lat="39.31999139758412" lon="-3.6002221501690657"><ele>882.0</ele><time>2026-05-01T08:29:38.999Z</time></trkpt><trkpt lat="39.32002321667937" lon="-3.600301577443817"><ele>881.6</ele><time>2026-05-01T08:29:39.999Z</time></trkpt><trkpt lat="39.3200806494535" lon="-3.6004136636358957"><ele>881.2</ele><time>2026-05-01T08:29:41.999Z</time></trkpt><trkpt lat="39.320129716026656" lon="-3.6005151515489233"><ele>880.8</ele><time>2026-05-01T08:29:43.999Z</time></trkpt><trkpt lat="39.32017363396044" lon="-3.600614405305115"><ele>880.4</ele><time>2026-05-01T08:29:45.999Z</time></trkpt><trkpt lat="39.32022038858808" lon="-3.6007175225358465"><ele>880.0</ele><time>2026-05-01T08:29:47.999Z</time></trkpt><trkpt lat="39.32027062891648" lon="-3.600830494312879"><ele>880.0</ele><time>2026-05-01T08:29:49.999Z</time></trkpt><trkpt lat="39.320337976313404" lon="-3.600909304011195"><ele>880.0</ele><time>2026-05-01T08:29:51.999Z</time></trkpt><trkpt lat="39.32042449889986" lon="-3.6010046284824906"><ele>880.0</ele><time>2026-05-01T08:29:53.999Z</time></trkpt><trkpt lat="39.32045429912696" lon="-3.601092857666698"><ele>880.0</ele><time>2026-05-01T08:29:54.999Z</time></trkpt><trkpt lat="39.3204684541937" lon="-3.6012195737508845"><ele>880.0</ele><time>2026-05-01T08:29:55.999Z</time></trkpt><trkpt lat="39.32047239471875" lon="-3.601348482378711"><ele>880.6666666666666</ele><time>2026-05-01T08:29:56.999Z</time></trkpt><trkpt lat="39.32048397816436" lon="-3.6014405756811385"><ele>881.3333333333333</ele><time>2026-05-01T08:29:57.999Z</time></trkpt><trkpt lat="39.320489803169245" lon="-3.6015244972286937"><ele>882.0</ele><time>2026-05-01T08:29:58.999Z</time></trkpt><trkpt lat="39.32048786371526" lon="-3.601610293986547"><ele>882.6666666666667</ele><time>2026-05-01T08:29:59.999Z</time></trkpt><trkpt lat="39.320487957696336" lon="-3.601699531058225"><ele>883.3333333333334</ele><time>2026-05-01T08:30:00.999Z</time></trkpt><trkpt lat="39.320486576849284" lon="-3.6018544078688364"><ele>884.0</ele><time>2026-05-01T08:30:02.999Z</time></trkpt><trkpt lat="39.32048411804578" lon="-3.601938017343499"><ele>884.2</ele><time>2026-05-01T08:30:03.999Z</time></trkpt><trkpt lat="39.32047738202808" lon="-3.6020843287029645"><ele>884.4000000000001</ele><time>2026-05-01T08:30:05.999Z</time></trkpt><trkpt lat="39.32047405379206" lon="-3.602167399552895"><ele>884.6</ele><time>2026-05-01T08:30:06.998Z</time></trkpt><trkpt lat="39.32047284020038" lon="-3.602317054121061"><ele>884.8</ele><time>2026-05-01T08:30:08.998Z</time></trkpt><trkpt lat="39.32047359967017" lon="-3.6025056307426713"><ele>885.0</ele><time>2026-05-01T08:30:10.998Z</time></trkpt><trkpt lat="39.32048404130114" lon="-3.602663390162007"><ele>885.0</ele><time>2026-05-01T08:30:11.998Z</time></trkpt><trkpt lat="39.320499465639685" lon="-3.6027967704268"><ele>885.0</ele><time>2026-05-01T08:30:12.998Z</time></trkpt><trkpt lat="39.3205142231888" lon="-3.6029362782650405"><ele>885.0</ele><time>2026-05-01T08:30:14.998Z</time></trkpt><trkpt lat="39.32052366128481" lon="-3.6030698191123625"><ele>885.0</ele><time>2026-05-01T08:30:17Z</time></trkpt><trkpt lat="39.32053951902647" lon="-3.6032418539342643"><ele>885.2</ele><time>2026-05-01T08:30:19Z</time></trkpt><trkpt lat="39.32054838590462" lon="-3.6033524999418938"><ele>885.4</ele><time>2026-05-01T08:30:20Z</time></trkpt><trkpt lat="39.32056618035438" lon="-3.603512843557849"><ele>885.5999999999999</ele><time>2026-05-01T08:30:22Z</time></trkpt><trkpt lat="39.32056270216319" lon="-3.6036176030594858"><ele>885.8</ele><time>2026-05-01T08:30:23Z</time></trkpt><trkpt lat="39.320567970347994" lon="-3.603735716173175"><ele>886.0</ele><time>2026-05-01T08:30:24Z</time></trkpt><trkpt lat="39.32058457996077" lon="-3.6038697671613504"><ele>886.8333333333333</ele><time>2026-05-01T08:30:25Z</time></trkpt><trkpt lat="39.32059997573066" lon="-3.603994729563215"><ele>887.6666666666666</ele><time>2026-05-01T08:30:26Z</time></trkpt><trkpt lat="39.32061573039438" lon="-3.6041197448449664"><ele>888.5</ele><time>2026-05-01T08:30:28Z</time></trkpt><trkpt lat="39.32062032547866" lon="-3.6042085155319517"><ele>889.3333333333333</ele><time>2026-05-01T08:30:30Z</time></trkpt><trkpt lat="39.3206376585009" lon="-3.6043371373920587"><ele>890.1666666666666</ele><time>2026-05-01T08:30:32Z</time></trkpt><trkpt lat="39.32064133210566" lon="-3.6044390365543006"><ele>891.0</ele><time>2026-05-01T08:30:35Z</time></trkpt><trkpt lat="39.32061265976424" lon="-3.604605805418494"><ele>891.0</ele><time>2026-05-01T08:30:37Z</time></trkpt><trkpt lat="39.32059758653894" lon="-3.6046902875558597"><ele>891.0</ele><time>2026-05-01T08:30:38Z</time></trkpt><trkpt lat="39.32058298373301" lon="-3.6047952893993793"><ele>891.0</ele><time>2026-05-01T08:30:39Z</time></trkpt><trkpt lat="39.32057326346973" lon="-3.604910182635932"><ele>891.0</ele><time>2026-05-01T08:30:40Z</time></trkpt><trkpt lat="39.32056296179927" lon="-3.604998295659781"><ele>891.0</ele><time>2026-05-01T08:30:41Z</time></trkpt><trkpt lat="39.32056122476344" lon="-3.605097043969204"><ele>891.0</ele><time>2026-05-01T08:30:42Z</time></trkpt><trkpt lat="39.320564325232304" lon="-3.6051981683450496"><ele>891.1666666666666</ele><time>2026-05-01T08:30:43Z</time></trkpt><trkpt lat="39.3205693129657" lon="-3.605309277242835"><ele>891.3333333333333</ele><time>2026-05-01T08:30:44Z</time></trkpt><trkpt lat="39.32057545522327" lon="-3.60541462173208"><ele>891.5</ele><time>2026-05-01T08:30:45Z</time></trkpt><trkpt lat="39.32058134504171" lon="-3.6055002295975"><ele>891.6666666666666</ele><time>2026-05-01T08:30:46Z</time></trkpt><trkpt lat="39.32058469516913" lon="-3.6055863211936314"><ele>891.8333333333333</ele><time>2026-05-01T08:30:47Z</time></trkpt><trkpt lat="39.32058121186581" lon="-3.6056910797649664"><ele>892.0</ele><time>2026-05-01T08:30:48Z</time></trkpt><trkpt lat="39.3205657597366" lon="-3.6058162259753397"><ele>892.0</ele><time>2026-05-01T08:30:49Z</time></trkpt><trkpt lat="39.320554590433105" lon="-3.6059442559668784"><ele>892.0</ele><time>2026-05-01T08:30:50Z</time></trkpt><trkpt lat="39.320543207011774" lon="-3.606113410911807"><ele>892.0</ele><time>2026-05-01T08:30:51Z</time></trkpt><trkpt lat="39.32053110467442" lon="-3.6062515773382384"><ele>892.0</ele><time>2026-05-01T08:30:52Z</time></trkpt><trkpt lat="39.32053378116392" lon="-3.6063967911666177"><ele>892.1666666666666</ele><time>2026-05-01T08:30:54Z</time></trkpt><trkpt lat="39.32053282525413" lon="-3.6065255653181394"><ele>892.3333333333333</ele><time>2026-05-01T08:30:56Z</time></trkpt><trkpt lat="39.32052793513202" lon="-3.606607448583699"><ele>892.5</ele><time>2026-05-01T08:30:57Z</time></trkpt><trkpt lat="39.32052333471007" lon="-3.6066957838256553"><ele>892.6666666666667</ele><time>2026-05-01T08:30:58Z</time></trkpt><trkpt lat="39.320496163159845" lon="-3.606858774979706"><ele>892.8333333333334</ele><time>2026-05-01T08:31:00Z</time></trkpt><trkpt lat="39.3204629055194" lon="-3.6069482576529337"><ele>893.0</ele><time>2026-05-01T08:31:01Z</time></trkpt><trkpt lat="39.32041799179787" lon="-3.6070461143750587"><ele>893.8</ele><time>2026-05-01T08:31:02Z</time></trkpt><trkpt lat="39.32036879695371" lon="-3.60713409074086"><ele>894.5999999999999</ele><time>2026-05-01T08:31:03Z</time></trkpt><trkpt lat="39.32033109604535" lon="-3.607215368903778"><ele>895.4000000000001</ele><time>2026-05-01T08:31:04Z</time></trkpt><trkpt lat="39.32027121088195" lon="-3.6073553886920195"><ele>896.2</ele><time>2026-05-01T08:31:05.999Z</time></trkpt><trkpt lat="39.32020459229748" lon="-3.607487887445794"><ele>897.0</ele><time>2026-05-01T08:31:07.999Z</time></trkpt><trkpt lat="39.3201319248965" lon="-3.607615945289668"><ele>897.0</ele><time>2026-05-01T08:31:09.999Z</time></trkpt><trkpt lat="39.32003377497633" lon="-3.607753129767259"><ele>897.0</ele><time>2026-05-01T08:31:11.999Z</time></trkpt><trkpt lat="39.31999030886589" lon="-3.6078193863586487"><ele>897.0</ele><time>2026-05-01T08:31:12.999Z</time></trkpt><trkpt lat="39.31991424487407" lon="-3.6079376663549514"><ele>897.0</ele><time>2026-05-01T08:31:14.999Z</time></trkpt><trkpt lat="39.319848181237006" lon="-3.6080602696401205"><ele>897.0</ele><time>2026-05-01T08:31:16.999Z</time></trkpt><trkpt lat="39.31980216753439" lon="-3.6081370229308654"><ele>898.4000000000001</ele><time>2026-05-01T08:31:17.999Z</time></trkpt><trkpt lat="39.31975647109323" lon="-3.6082314055787026"><ele>899.8000000000001</ele><time>2026-05-01T08:31:18.999Z</time></trkpt><trkpt lat="39.31970168454458" lon="-3.6083276307209595"><ele>901.2</ele><time>2026-05-01T08:31:19.999Z</time></trkpt><trkpt lat="39.31964884102757" lon="-3.608417944530651"><ele>902.6</ele><time>2026-05-01T08:31:20.999Z</time></trkpt><trkpt lat="39.319594545303104" lon="-3.608517548944087"><ele>904.0</ele><time>2026-05-01T08:31:21.999Z</time></trkpt><trkpt lat="39.3195239025099" lon="-3.608604329493845"><ele>903.6666666666666</ele><time>2026-05-01T08:31:22.999Z</time></trkpt><trkpt lat="39.31948342952079" lon="-3.6086733951917394"><ele>903.3333333333333</ele><time>2026-05-01T08:31:23.999Z</time></trkpt><trkpt lat="39.319444300631076" lon="-3.60874618712569"><ele>903.0</ele><time>2026-05-01T08:31:24.999Z</time></trkpt><trkpt lat="39.31941218114299" lon="-3.608823826900936"><ele>902.6666666666667</ele><time>2026-05-01T08:31:25.999Z</time></trkpt><trkpt lat="39.3193735774401" lon="-3.608906968220325"><ele>902.3333333333334</ele><time>2026-05-01T08:31:26.999Z</time></trkpt><trkpt lat="39.31933644061927" lon="-3.6090013673506554"><ele>902.0</ele><time>2026-05-01T08:31:27.999Z</time></trkpt><trkpt lat="39.31929467728491" lon="-3.6091047143307424"><ele>902.0000000000001</ele><time>2026-05-01T08:31:28.999Z</time></trkpt><trkpt lat="39.31925147885207" lon="-3.6092044094601246"><ele>902.0</ele><time>2026-05-01T08:31:29.999Z</time></trkpt><trkpt lat="39.31921204243439" lon="-3.609293195329231"><ele>902.0</ele><time>2026-05-01T08:31:30.999Z</time></trkpt><trkpt lat="39.31918468233127" lon="-3.609387753226144"><ele>902.0</ele><time>2026-05-01T08:31:31.999Z</time></trkpt><trkpt lat="39.31916479881437" lon="-3.609472786218113"><ele>902.0000000000001</ele><time>2026-05-01T08:31:32.999Z</time></trkpt><trkpt lat="39.3191459370013" lon="-3.609575742339761"><ele>902.0</ele><time>2026-05-01T08:31:33.999Z</time></trkpt><trkpt lat="39.31913283047582" lon="-3.609717180902687"><ele>903.25</ele><time>2026-05-01T08:31:34.999Z</time></trkpt><trkpt lat="39.31912129448358" lon="-3.609849374465526"><ele>904.5</ele><time>2026-05-01T08:31:35.999Z</time></trkpt><trkpt lat="39.319086686100405" lon="-3.610029685049907"><ele>905.75</ele><time>2026-05-01T08:31:36.999Z</time></trkpt><trkpt lat="39.31904306193102" lon="-3.610162203411892"><ele>907.0</ele><time>2026-05-01T08:31:37.999Z</time></trkpt><trkpt lat="39.31896417611091" lon="-3.6103147747718407"><ele>907.6666666666666</ele><time>2026-05-01T08:31:38.999Z</time></trkpt><trkpt lat="39.31886157088629" lon="-3.610476587203185"><ele>908.3333333333333</ele><time>2026-05-01T08:31:39.999Z</time></trkpt><trkpt lat="39.31873121991172" lon="-3.61065323838914"><ele>909.0</ele><time>2026-05-01T08:31:40.999Z</time></trkpt><trkpt lat="39.31859709185576" lon="-3.6108081604322746"><ele>909.0</ele><time>2026-05-01T08:31:41.999Z</time></trkpt><trkpt lat="39.318481981655786" lon="-3.6109444341195807"><ele>909.0</ele><time>2026-05-01T08:31:42.999Z</time></trkpt><trkpt lat="39.31834979403826" lon="-3.6110906992574683"><ele>909.0</ele><time>2026-05-01T08:31:43.999Z</time></trkpt><trkpt lat="39.31828411946177" lon="-3.611207347370293"><ele>909.0</ele><time>2026-05-01T08:31:44.999Z</time></trkpt><trkpt lat="39.31817507203438" lon="-3.611329803647599"><ele>912.0</ele><time>2026-05-01T08:31:45.999Z</time></trkpt><trkpt lat="39.31806070312409" lon="-3.611457919530906"><ele>915.0</ele><time>2026-05-01T08:31:46.999Z</time></trkpt><trkpt lat="39.31793597617669" lon="-3.611592744907701"><ele>918.0</ele><time>2026-05-01T08:31:47.999Z</time></trkpt><trkpt lat="39.31782284524325" lon="-3.6117464686078034"><ele>918.0</ele><time>2026-05-01T08:31:48.999Z</time></trkpt><trkpt lat="39.3177162986512" lon="-3.611875124265724"><ele>918.0</ele><time>2026-05-01T08:31:49.999Z</time></trkpt><trkpt lat="39.317669464451235" lon="-3.611980810799766"><ele>918.0</ele><time>2026-05-01T08:31:51.999Z</time></trkpt><trkpt lat="39.31761311656288" lon="-3.6120683799017494"><ele>918.0</ele><time>2026-05-01T08:31:52.999Z</time></trkpt><trkpt lat="39.31753828558284" lon="-3.6121941272110876"><ele>917.0</ele><time>2026-05-01T08:31:53.999Z</time></trkpt><trkpt lat="39.317488731312366" lon="-3.612287101622357"><ele>916.0</ele><time>2026-05-01T08:31:54.999Z</time></trkpt><trkpt lat="39.317435172395584" lon="-3.612392454157746"><ele>915.0</ele><time>2026-05-01T08:31:56.999Z</time></trkpt><trkpt lat="39.317380570468686" lon="-3.6125081187924897"><ele>914.0</ele><time>2026-05-01T08:31:58.999Z</time></trkpt><trkpt lat="39.31725443690066" lon="-3.6126151981872976"><ele>913.0</ele><time>2026-05-01T08:32:00.999Z</time></trkpt><trkpt lat="39.317161493508465" lon="-3.612701692907401"><ele>914.25</ele><time>2026-05-01T08:32:01.999Z</time></trkpt><trkpt lat="39.31705579940302" lon="-3.6128112703592548"><ele>915.5</ele><time>2026-05-01T08:32:02.999Z</time></trkpt><trkpt lat="39.31693080103648" lon="-3.6129507127381384"><ele>916.75</ele><time>2026-05-01T08:32:03.999Z</time></trkpt><trkpt lat="39.316830170121825" lon="-3.6130566223142955"><ele>918.0</ele><time>2026-05-01T08:32:04.999Z</time></trkpt><trkpt lat="39.31674359568028" lon="-3.61315044569834"><ele>918.0</ele><time>2026-05-01T08:32:05.999Z</time></trkpt><trkpt lat="39.31665648249641" lon="-3.6132509053493935"><ele>918.0</ele><time>2026-05-01T08:32:06.999Z</time></trkpt><trkpt lat="39.31657239015895" lon="-3.613344123874377"><ele>918.0</ele><time>2026-05-01T08:32:07.999Z</time></trkpt><trkpt lat="39.31650222379547" lon="-3.6134231146255664"><ele>918.0</ele><time>2026-05-01T08:32:08.999Z</time></trkpt><trkpt lat="39.31643384882033" lon="-3.613496163362793"><ele>918.0</ele><time>2026-05-01T08:32:09.999Z</time></trkpt><trkpt lat="39.31634887717798" lon="-3.6136000555277414"><ele>919.0</ele><time>2026-05-01T08:32:10.999Z</time></trkpt><trkpt lat="39.31628554104672" lon="-3.613694131511401"><ele>920.0</ele><time>2026-05-01T08:32:11.999Z</time></trkpt><trkpt lat="39.31623411469337" lon="-3.6137764469940024"><ele>921.0</ele><time>2026-05-01T08:32:12.998Z</time></trkpt><trkpt lat="39.31617741219679" lon="-3.613851397052144"><ele>922.0</ele><time>2026-05-01T08:32:13.998Z</time></trkpt><trkpt lat="39.31609847351343" lon="-3.6139519204011843"><ele>923.0</ele><time>2026-05-01T08:32:14.998Z</time></trkpt><trkpt lat="39.31601664864349" lon="-3.6140739509049893"><ele>923.0</ele><time>2026-05-01T08:32:15.998Z</time></trkpt><trkpt lat="39.315940654424566" lon="-3.614224102911913"><ele>923.0</ele><time>2026-05-01T08:32:16.998Z</time></trkpt><trkpt lat="39.315871724761905" lon="-3.6143662101697607"><ele>923.0</ele><time>2026-05-01T08:32:17.998Z</time></trkpt><trkpt lat="39.315827281325355" lon="-3.61448786253653"><ele>923.0</ele><time>2026-05-01T08:32:18.998Z</time></trkpt><trkpt lat="39.31577815924249" lon="-3.6146058313150458"><ele>923.0</ele><time>2026-05-01T08:32:19.998Z</time></trkpt><trkpt lat="39.31572358560445" lon="-3.6147233384517623"><ele>923.0</ele><time>2026-05-01T08:32:20.998Z</time></trkpt><trkpt lat="39.315674793748094" lon="-3.614815971286661"><ele>923.0</ele><time>2026-05-01T08:32:22Z</time></trkpt><trkpt lat="39.31561729401179" lon="-3.6149076450300694"><ele>923.0</ele><time>2026-05-01T08:32:23Z</time></trkpt><trkpt lat="39.31555132508323" lon="-3.6149904052919157"><ele>923.0</ele><time>2026-05-01T08:32:24Z</time></trkpt><trkpt lat="39.315477601900895" lon="-3.615056870477555"><ele>922.5999999999999</ele><time>2026-05-01T08:32:25Z</time></trkpt><trkpt lat="39.315392174812544" lon="-3.6151258632968264"><ele>922.1999999999999</ele><time>2026-05-01T08:32:26Z</time></trkpt><trkpt lat="39.31530498354199" lon="-3.6151897595193563"><ele>921.8</ele><time>2026-05-01T08:32:27Z</time></trkpt><trkpt lat="39.31522016669933" lon="-3.615263498154595"><ele>921.4</ele><time>2026-05-01T08:32:28Z</time></trkpt><trkpt lat="39.31512882566657" lon="-3.615337403085009"><ele>921.0</ele><time>2026-05-01T08:32:29Z</time></trkpt><trkpt lat="39.31504679611386" lon="-3.615414146684329"><ele>921.0</ele><time>2026-05-01T08:32:30Z</time></trkpt><trkpt lat="39.31496055071731" lon="-3.6154854311029387"><ele>920.9999999999999</ele><time>2026-05-01T08:32:31Z</time></trkpt><trkpt lat="39.314888273220504" lon="-3.6155583382355787"><ele>920.9999999999999</ele><time>2026-05-01T08:32:32Z</time></trkpt><trkpt lat="39.31482242434528" lon="-3.615624019446186"><ele>921.0</ele><time>2026-05-01T08:32:33Z</time></trkpt><trkpt lat="39.31474607437122" lon="-3.615691067425319"><ele>921.0</ele><time>2026-05-01T08:32:34Z</time></trkpt><trkpt lat="39.31466010112946" lon="-3.6157397289669895"><ele>921.8</ele><time>2026-05-01T08:32:35Z</time></trkpt><trkpt lat="39.31456461489475" lon="-3.615776192434766"><ele>922.5999999999999</ele><time>2026-05-01T08:32:36Z</time></trkpt><trkpt lat="39.31446391051411" lon="-3.61580460683781"><ele>923.4</ele><time>2026-05-01T08:32:37Z</time></trkpt><trkpt lat="39.314364725793574" lon="-3.615832277936129"><ele>924.2</ele><time>2026-05-01T08:32:38Z</time></trkpt><trkpt lat="39.3142877245235" lon="-3.6158627076359138"><ele>925.0</ele><time>2026-05-01T08:32:39Z</time></trkpt><trkpt lat="39.31422061006134" lon="-3.615889652259471"><ele>925.0</ele><time>2026-05-01T08:32:40Z</time></trkpt><trkpt lat="39.31412878945014" lon="-3.6159316156128964"><ele>925.0</ele><time>2026-05-01T08:32:41Z</time></trkpt><trkpt lat="39.314018398494724" lon="-3.6159803835705295"><ele>925.0</ele><time>2026-05-01T08:32:42Z</time></trkpt><trkpt lat="39.31391360620453" lon="-3.616022803860914"><ele>925.0</ele><time>2026-05-01T08:32:43Z</time></trkpt><trkpt lat="39.31382256809837" lon="-3.616059176690971"><ele>925.0</ele><time>2026-05-01T08:32:44Z</time></trkpt><trkpt lat="39.3137360249789" lon="-3.6161014171188453"><ele>927.8</ele><time>2026-05-01T08:32:45Z</time></trkpt><trkpt lat="39.31362872995065" lon="-3.6161539514308583"><ele>930.6</ele><time>2026-05-01T08:32:46Z</time></trkpt><trkpt lat="39.31352628334524" lon="-3.61620829135837"><ele>933.4000000000001</ele><time>2026-05-01T08:32:47Z</time></trkpt><trkpt lat="39.313434638387086" lon="-3.616252625236286"><ele>936.2</ele><time>2026-05-01T08:32:48Z</time></trkpt><trkpt lat="39.313365055016355" lon="-3.616279885316001"><ele>939.0</ele><time>2026-05-01T08:32:49Z</time></trkpt><trkpt lat="39.313262359339255" lon="-3.6163023688120943"><ele>939.0</ele><time>2026-05-01T08:32:50Z</time></trkpt><trkpt lat="39.313180297080606" lon="-3.6163208570847405"><ele>939.0000000000001</ele><time>2026-05-01T08:32:51Z</time></trkpt><trkpt lat="39.31308504009782" lon="-3.6163472802000487"><ele>939.0000000000001</ele><time>2026-05-01T08:32:52Z</time></trkpt><trkpt lat="39.312989218004155" lon="-3.6163833699936014"><ele>939.0</ele><time>2026-05-01T08:32:53Z</time></trkpt><trkpt lat="39.31290196378221" lon="-3.616425746127166"><ele>939.0</ele><time>2026-05-01T08:32:54Z</time></trkpt><trkpt lat="39.31281622344765" lon="-3.616473115923243"><ele>939.3333333333334</ele><time>2026-05-01T08:32:55Z</time></trkpt><trkpt lat="39.312731998147676" lon="-3.616525581843951"><ele>939.6666666666667</ele><time>2026-05-01T08:32:56Z</time></trkpt><trkpt lat="39.312659321378035" lon="-3.6165859530273954"><ele>940.0</ele><time>2026-05-01T08:32:57Z</time></trkpt><trkpt lat="39.31260307656028" lon="-3.616635128214249"><ele>940.3333333333334</ele><time>2026-05-01T08:32:58Z</time></trkpt><trkpt lat="39.31255385159835" lon="-3.6166932041411717"><ele>940.6666666666667</ele><time>2026-05-01T08:32:59Z</time></trkpt><trkpt lat="39.31248726830175" lon="-3.6167892996977673"><ele>941.0</ele><time>2026-05-01T08:33:00Z</time></trkpt><trkpt lat="39.312408693998414" lon="-3.6169191786352486"><ele>941.25</ele><time>2026-05-01T08:33:01Z</time></trkpt><trkpt lat="39.312338201008146" lon="-3.617052126394689"><ele>941.5</ele><time>2026-05-01T08:33:02Z</time></trkpt><trkpt lat="39.312254972430885" lon="-3.617189389656652"><ele>941.75</ele><time>2026-05-01T08:33:03Z</time></trkpt><trkpt lat="39.31219287886466" lon="-3.6172843178298835"><ele>942.0</ele><time>2026-05-01T08:33:04Z</time></trkpt><trkpt lat="39.31212036847967" lon="-3.6174043803951434"><ele>942.0</ele><time>2026-05-01T08:33:05Z</time></trkpt><trkpt lat="39.31207013548226" lon="-3.61751919668262"><ele>942.0</ele><time>2026-05-01T08:33:06Z</time></trkpt><trkpt lat="39.31203106681028" lon="-3.6176270088460214"><ele>942.0</ele><time>2026-05-01T08:33:07Z</time></trkpt><trkpt lat="39.31198752521322" lon="-3.617753454040897"><ele>942.0</ele><time>2026-05-01T08:33:08Z</time></trkpt><trkpt lat="39.31194705746494" lon="-3.61789384165002"><ele>942.0</ele><time>2026-05-01T08:33:08.999Z</time></trkpt><trkpt lat="39.31191466306029" lon="-3.618035130808798"><ele>942.8333333333334</ele><time>2026-05-01T08:33:09.999Z</time></trkpt><trkpt lat="39.3118950599286" lon="-3.618129187452847"><ele>943.6666666666667</ele><time>2026-05-01T08:33:10.999Z</time></trkpt><trkpt lat="39.31186630750943" lon="-3.6182323240129515"><ele>944.5</ele><time>2026-05-01T08:33:11.999Z</time></trkpt><trkpt lat="39.311833577658774" lon="-3.618329059612231"><ele>945.3333333333334</ele><time>2026-05-01T08:33:12.999Z</time></trkpt><trkpt lat="39.31179289149787" lon="-3.6184253965538833"><ele>946.1666666666667</ele><time>2026-05-01T08:33:13.999Z</time></trkpt><trkpt lat="39.31176005128484" lon="-3.6185246323118845"><ele>947.0</ele><time>2026-05-01T08:33:14.999Z</time></trkpt><trkpt lat="39.31173591925211" lon="-3.6186309481686307"><ele>947.8333333333334</ele><time>2026-05-01T08:33:15.999Z</time></trkpt><trkpt lat="39.31171937421792" lon="-3.618747780291139"><ele>948.6666666666667</ele><time>2026-05-01T08:33:16.999Z</time></trkpt><trkpt lat="39.31171127886377" lon="-3.6188770092360336"><ele>949.5</ele><time>2026-05-01T08:33:17.999Z</time></trkpt><trkpt lat="39.31170883774824" lon="-3.6189784527908424"><ele>950.3333333333333</ele><time>2026-05-01T08:33:18.999Z</time></trkpt><trkpt lat="39.31170444887615" lon="-3.6190707301407046"><ele>951.1666666666666</ele><time>2026-05-01T08:33:19.999Z</time></trkpt><trkpt lat="39.3116826497954" lon="-3.619174778530249"><ele>952.0</ele><time>2026-05-01T08:33:20.999Z</time></trkpt><trkpt lat="39.31164413118131" lon="-3.6192765140075016"><ele>952.0</ele><time>2026-05-01T08:33:21.999Z</time></trkpt><trkpt lat="39.31158650288682" lon="-3.6193950517180338"><ele>952.0</ele><time>2026-05-01T08:33:22.999Z</time></trkpt><trkpt lat="39.311516913608905" lon="-3.6195227307725593"><ele>952.0</ele><time>2026-05-01T08:33:23.999Z</time></trkpt><trkpt lat="39.31143999854622" lon="-3.6196695932174343"><ele>952.0</ele><time>2026-05-01T08:33:24.999Z</time></trkpt><trkpt lat="39.3113546918731" lon="-3.6198255653036377"><ele>953.2</ele><time>2026-05-01T08:33:25.999Z</time></trkpt><trkpt lat="39.311277645141885" lon="-3.619964753108102"><ele>954.4000000000001</ele><time>2026-05-01T08:33:26.999Z</time></trkpt><trkpt lat="39.31121664158551" lon="-3.6200619003424412"><ele>955.5999999999999</ele><time>2026-05-01T08:33:27.999Z</time></trkpt><trkpt lat="39.311171699051314" lon="-3.6201423884894295"><ele>956.8</ele><time>2026-05-01T08:33:28.999Z</time></trkpt><trkpt lat="39.31112977557651" lon="-3.620215849462301"><ele>958.0</ele><time>2026-05-01T08:33:29.999Z</time></trkpt><trkpt lat="39.31108180717491" lon="-3.6203172534775927"><ele>959.2</ele><time>2026-05-01T08:33:30.999Z</time></trkpt><trkpt lat="39.311039143419634" lon="-3.6204194833966943"><ele>960.4</ele><time>2026-05-01T08:33:31.999Z</time></trkpt><trkpt lat="39.31100705573297" lon="-3.620527243429826"><ele>961.6000000000001</ele><time>2026-05-01T08:33:32.999Z</time></trkpt><trkpt lat="39.31097706704038" lon="-3.6206538826385"><ele>962.8000000000001</ele><time>2026-05-01T08:33:33.999Z</time></trkpt><trkpt lat="39.31095073898567" lon="-3.620791649140626"><ele>964.0</ele><time>2026-05-01T08:33:34.999Z</time></trkpt><trkpt lat="39.31092949913543" lon="-3.620899652551592"><ele>963.9999999999999</ele><time>2026-05-01T08:33:35.999Z</time></trkpt><trkpt lat="39.31089165313753" lon="-3.621012925055649"><ele>964.0</ele><time>2026-05-01T08:33:36.999Z</time></trkpt><trkpt lat="39.310851453898735" lon="-3.6210991506053523"><ele>964.0</ele><time>2026-05-01T08:33:37.999Z</time></trkpt><trkpt lat="39.31080011124506" lon="-3.621160570176291"><ele>964.0</ele><time>2026-05-01T08:33:38.999Z</time></trkpt><trkpt lat="39.31074155679037" lon="-3.6212246546925324"><ele>963.9999999999999</ele><time>2026-05-01T08:33:39.999Z</time></trkpt><trkpt lat="39.31067676053853" lon="-3.6212689361442614"><ele>964.0</ele><time>2026-05-01T08:33:40.999Z</time></trkpt><trkpt lat="39.31061060935708" lon="-3.6212878495103715"><ele>966.3333333333333</ele><time>2026-05-01T08:33:41.999Z</time></trkpt><trkpt lat="39.31051808126838" lon="-3.6213120171918747"><ele>968.6666666666666</ele><time>2026-05-01T08:33:42.999Z</time></trkpt><trkpt lat="39.31044017167208" lon="-3.6213248456757907"><ele>971.0</ele><time>2026-05-01T08:33:43.999Z</time></trkpt><trkpt lat="39.31034945298053" lon="-3.6213470313855316"><ele>973.3333333333333</ele><time>2026-05-01T08:33:44.999Z</time></trkpt><trkpt lat="39.31027668042378" lon="-3.621357635885962"><ele>975.6666666666666</ele><time>2026-05-01T08:33:45.999Z</time></trkpt><trkpt lat="39.31020470658502" lon="-3.6213615109128234"><ele>978.0</ele><time>2026-05-01T08:33:46.999Z</time></trkpt><trkpt lat="39.31011363745608" lon="-3.6213530401950145"><ele>978.0</ele><time>2026-05-01T08:33:47.999Z</time></trkpt><trkpt lat="39.31001971305037" lon="-3.6213480830841305"><ele>978.0</ele><time>2026-05-01T08:33:48.999Z</time></trkpt><trkpt lat="39.30994353394915" lon="-3.6213448149824137"><ele>978.0</ele><time>2026-05-01T08:33:49.999Z</time></trkpt><trkpt lat="39.309877138886606" lon="-3.6213444218400217"><ele>978.0</ele><time>2026-05-01T08:33:50.999Z</time></trkpt><trkpt lat="39.30979611668033" lon="-3.621349954795383"><ele>978.0</ele><time>2026-05-01T08:33:51.999Z</time></trkpt><trkpt lat="39.3097141832248" lon="-3.621355068277846"><ele>978.0</ele><time>2026-05-01T08:33:52.999Z</time></trkpt><trkpt lat="39.30963807310248" lon="-3.6213716539326533"><ele>978.1666666666666</ele><time>2026-05-01T08:33:53.999Z</time></trkpt><trkpt lat="39.30953308020928" lon="-3.6214496153587237"><ele>978.3333333333333</ele><time>2026-05-01T08:33:55.999Z</time></trkpt><trkpt lat="39.3094705529483" lon="-3.6215198218671687"><ele>978.5</ele><time>2026-05-01T08:33:56.999Z</time></trkpt><trkpt lat="39.30942581172213" lon="-3.6215981220648774"><ele>978.6666666666666</ele><time>2026-05-01T08:33:57.999Z</time></trkpt><trkpt lat="39.30938685838187" lon="-3.6216797975365678"><ele>978.8333333333333</ele><time>2026-05-01T08:33:58.999Z</time></trkpt><trkpt lat="39.30934799821659" lon="-3.6217727789741554"><ele>979.0</ele><time>2026-05-01T08:33:59.999Z</time></trkpt><trkpt lat="39.30931755971008" lon="-3.621870660920585"><ele>978.9999999999999</ele><time>2026-05-01T08:34:00.999Z</time></trkpt><trkpt lat="39.30929198710805" lon="-3.6219699051119996"><ele>979.0</ele><time>2026-05-01T08:34:01.999Z</time></trkpt><trkpt lat="39.3092710510964" lon="-3.6220561858303357"><ele>979.0</ele><time>2026-05-01T08:34:02.999Z</time></trkpt><trkpt lat="39.3092523935437" lon="-3.6221392688208613"><ele>979.0</ele><time>2026-05-01T08:34:03.999Z</time></trkpt><trkpt lat="39.30922371094294" lon="-3.622237913658862"><ele>978.9999999999999</ele><time>2026-05-01T08:34:04.999Z</time></trkpt><trkpt lat="39.30918193257837" lon="-3.6223899173047727"><ele>979.0</ele><time>2026-05-01T08:34:06.999Z</time></trkpt><trkpt lat="39.3091555988107" lon="-3.6224729368539346"><ele>980.1666666666666</ele><time>2026-05-01T08:34:07.999Z</time></trkpt><trkpt lat="39.309129849832956" lon="-3.6225571748847982"><ele>981.3333333333333</ele><time>2026-05-01T08:34:08.999Z</time></trkpt><trkpt lat="39.3091025226309" lon="-3.622636004844659"><ele>982.5</ele><time>2026-05-01T08:34:09.999Z</time></trkpt><trkpt lat="39.30907217423437" lon="-3.6227219382802858"><ele>983.6666666666667</ele><time>2026-05-01T08:34:10.999Z</time></trkpt><trkpt lat="39.309044697748874" lon="-3.622806367938582"><ele>984.8333333333334</ele><time>2026-05-01T08:34:11.999Z</time></trkpt><trkpt lat="39.309007618331705" lon="-3.622915748572722"><ele>986.0</ele><time>2026-05-01T08:34:12.999Z</time></trkpt><trkpt lat="39.30898036691489" lon="-3.623016425282756"><ele>987.0000000000001</ele><time>2026-05-01T08:34:13.999Z</time></trkpt><trkpt lat="39.30896888310761" lon="-3.6231168824726416"><ele>988.0</ele><time>2026-05-01T08:34:14.998Z</time></trkpt><trkpt lat="39.308961925229724" lon="-3.623221335735257"><ele>989.0</ele><time>2026-05-01T08:34:15.998Z</time></trkpt><trkpt lat="39.3089595164973" lon="-3.623352312250056"><ele>990.0</ele><time>2026-05-01T08:34:16.998Z</time></trkpt><trkpt lat="39.308963191854936" lon="-3.6234652448873805"><ele>991.0000000000001</ele><time>2026-05-01T08:34:17.998Z</time></trkpt><trkpt lat="39.308965111243566" lon="-3.623562395660726"><ele>992.0</ele><time>2026-05-01T08:34:18.998Z</time></trkpt><trkpt lat="39.308963887129835" lon="-3.6236477132491043"><ele>992.8333333333334</ele><time>2026-05-01T08:34:19.998Z</time></trkpt><trkpt lat="39.30895811472501" lon="-3.623805164898281"><ele>993.6666666666667</ele><time>2026-05-01T08:34:21.998Z</time></trkpt><trkpt lat="39.30895470348012" lon="-3.6238880096100967"><ele>994.5</ele><time>2026-05-01T08:34:22.998Z</time></trkpt><trkpt lat="39.308949762911006" lon="-3.6239777874424326"><ele>995.3333333333333</ele><time>2026-05-01T08:34:23.998Z</time></trkpt><trkpt lat="39.308945455581785" lon="-3.6240832174066915"><ele>996.1666666666666</ele><time>2026-05-01T08:34:24.998Z</time></trkpt><trkpt lat="39.3089387628947" lon="-3.6241856120854576"><ele>997.0</ele><time>2026-05-01T08:34:25.998Z</time></trkpt><trkpt lat="39.3089388489649" lon="-3.624282082603682"><ele>996.9999999999999</ele><time>2026-05-01T08:34:26.998Z</time></trkpt><trkpt lat="39.30893754400248" lon="-3.6244264930653185"><ele>997.0</ele><time>2026-05-01T08:34:29Z</time></trkpt><trkpt lat="39.30894838551674" lon="-3.624560946873291"><ele>997.0</ele><time>2026-05-01T08:34:31Z</time></trkpt><trkpt lat="39.30895304408427" lon="-3.6246474936777573"><ele>997.0</ele><time>2026-05-01T08:34:32Z</time></trkpt><trkpt lat="39.30894825091586" lon="-3.624743300121576"><ele>996.9999999999999</ele><time>2026-05-01T08:34:33Z</time></trkpt><trkpt lat="39.30894528494972" lon="-3.6248272982992416"><ele>997.0</ele><time>2026-05-01T08:34:34Z</time></trkpt><trkpt lat="39.30896594069914" lon="-3.62500049432295"><ele>997.8333333333333</ele><time>2026-05-01T08:34:36Z</time></trkpt><trkpt lat="39.30898194629512" lon="-3.6250891165486583"><ele>998.6666666666666</ele><time>2026-05-01T08:34:37Z</time></trkpt><trkpt lat="39.3090105370343" lon="-3.625226738562032"><ele>999.5</ele><time>2026-05-01T08:34:39Z</time></trkpt><trkpt lat="39.309021701734764" lon="-3.625307117376451"><ele>1000.3333333333333</ele><time>2026-05-01T08:34:40Z</time></trkpt><trkpt lat="39.309037453715405" lon="-3.6253962551337953"><ele>1001.1666666666666</ele><time>2026-05-01T08:34:41Z</time></trkpt><trkpt lat="39.309048745805455" lon="-3.625495234385635"><ele>1002.0</ele><time>2026-05-01T08:34:43Z</time></trkpt><trkpt lat="39.309068312998036" lon="-3.62560309727112"><ele>1002.0</ele><time>2026-05-01T08:34:45Z</time></trkpt><trkpt lat="39.30909838974842" lon="-3.625716932766428"><ele>1002.0</ele><time>2026-05-01T08:34:47Z</time></trkpt><trkpt lat="39.309127432968104" lon="-3.625831593004313"><ele>1002.0</ele><time>2026-05-01T08:34:49Z</time></trkpt><trkpt lat="39.30916122632848" lon="-3.625985480117224"><ele>1002.0</ele><time>2026-05-01T08:34:51Z</time></trkpt><trkpt lat="39.30917817246017" lon="-3.6260773642609463"><ele>1002.0</ele><time>2026-05-01T08:34:52Z</time></trkpt><trkpt lat="39.30919800028457" lon="-3.626166389064717"><ele>1000.7142857142858</ele><time>2026-05-01T08:34:53Z</time></trkpt><trkpt lat="39.30921782550872" lon="-3.626252593791136"><ele>999.4285714285713</ele><time>2026-05-01T08:34:54Z</time></trkpt><trkpt lat="39.30923952004013" lon="-3.626331965885884"><ele>998.1428571428571</ele><time>2026-05-01T08:34:55Z</time></trkpt><trkpt lat="39.309259904758" lon="-3.6264214294702777"><ele>996.8571428571429</ele><time>2026-05-01T08:34:56Z</time></trkpt><trkpt lat="39.3092820819453" lon="-3.62651230289397"><ele>995.5714285714287</ele><time>2026-05-01T08:34:57Z</time></trkpt><trkpt lat="39.309301561853786" lon="-3.6266058526299796"><ele>994.2857142857142</ele><time>2026-05-01T08:34:58Z</time></trkpt><trkpt lat="39.3093115808725" lon="-3.6266921508235943"><ele>993.0</ele><time>2026-05-01T08:34:59Z</time></trkpt><trkpt lat="39.30932151930446" lon="-3.6267869564466664"><ele>993.0</ele><time>2026-05-01T08:35:00Z</time></trkpt><trkpt lat="39.30931695101278" lon="-3.6268708019950187"><ele>993.0</ele><time>2026-05-01T08:35:01Z</time></trkpt><trkpt lat="39.309294060996045" lon="-3.6270034995637435"><ele>993.0</ele><time>2026-05-01T08:35:02Z</time></trkpt><trkpt lat="39.309256712461135" lon="-3.627135157038647"><ele>993.0</ele><time>2026-05-01T08:35:03Z</time></trkpt><trkpt lat="39.3092163803402" lon="-3.6272668407768776"><ele>993.0</ele><time>2026-05-01T08:35:04Z</time></trkpt><trkpt lat="39.30921165893066" lon="-3.6273868264125366"><ele>992.0</ele><time>2026-05-01T08:35:05Z</time></trkpt><trkpt lat="39.30922057346502" lon="-3.6274885239634287"><ele>991.0</ele><time>2026-05-01T08:35:06Z</time></trkpt><trkpt lat="39.30924765052404" lon="-3.627574365153416"><ele>990.0</ele><time>2026-05-01T08:35:07Z</time></trkpt><trkpt lat="39.309054097434746" lon="-3.627752032544591"><ele>989.0</ele><time>2026-05-01T08:35:08Z</time></trkpt><trkpt lat="39.309023258968374" lon="-3.6278700152880994"><ele>989.0</ele><time>2026-05-01T08:35:09Z</time></trkpt><trkpt lat="39.30899152094533" lon="-3.6279692657855174"><ele>988.9999999999999</ele><time>2026-05-01T08:35:10Z</time></trkpt><trkpt lat="39.308953346830904" lon="-3.628044507483042"><ele>989.0</ele><time>2026-05-01T08:35:11Z</time></trkpt><trkpt lat="39.308902242088465" lon="-3.628109320683363"><ele>989.0</ele><time>2026-05-01T08:35:12Z</time></trkpt><trkpt lat="39.3088365276485" lon="-3.6281725284740935"><ele>988.9999999999999</ele><time>2026-05-01T08:35:13Z</time></trkpt><trkpt lat="39.30877818942651" lon="-3.628215064619914"><ele>989.0</ele><time>2026-05-01T08:35:14Z</time></trkpt><trkpt lat="39.308725623510306" lon="-3.628260619844318"><ele>989.0</ele><time>2026-05-01T08:35:15Z</time></trkpt><trkpt lat="39.308672785468985" lon="-3.6283224616832253"><ele>986.6</ele><time>2026-05-01T08:35:15.999Z</time></trkpt><trkpt lat="39.30860759205607" lon="-3.628446640921408"><ele>984.2</ele><time>2026-05-01T08:35:17.999Z</time></trkpt><trkpt lat="39.30857867646383" lon="-3.6285345468876953"><ele>981.8000000000001</ele><time>2026-05-01T08:35:18.999Z</time></trkpt><trkpt lat="39.30854785956908" lon="-3.6286194344938845"><ele>979.4000000000001</ele><time>2026-05-01T08:35:19.999Z</time></trkpt><trkpt lat="39.30851736413942" lon="-3.6286983330799334"><ele>977.0</ele><time>2026-05-01T08:35:20.999Z</time></trkpt><trkpt lat="39.308466494844765" lon="-3.6288429239694513"><ele>977.0</ele><time>2026-05-01T08:35:22.999Z</time></trkpt><trkpt lat="39.30841619711354" lon="-3.6289935080561846"><ele>977.0</ele><time>2026-05-01T08:35:24.999Z</time></trkpt><trkpt lat="39.30837068239477" lon="-3.629132721682624"><ele>977.0</ele><time>2026-05-01T08:35:26.999Z</time></trkpt><trkpt lat="39.308321926561234" lon="-3.629256907880664"><ele>977.0</ele><time>2026-05-01T08:35:28.999Z</time></trkpt><trkpt lat="39.30828340517098" lon="-3.62935946441207"><ele>977.0</ele><time>2026-05-01T08:35:30.999Z</time></trkpt><trkpt lat="39.3082533493123" lon="-3.6294829430473254"><ele>977.0000000000001</ele><time>2026-05-01T08:35:32.999Z</time></trkpt><trkpt lat="39.308212115361776" lon="-3.629603927195097"><ele>977.0</ele><time>2026-05-01T08:35:34.999Z</time></trkpt><trkpt lat="39.308174810336254" lon="-3.629733558849539"><ele>977.0</ele><time>2026-05-01T08:35:36.999Z</time></trkpt><trkpt lat="39.30813595328725" lon="-3.629837571750413"><ele>977.0</ele><time>2026-05-01T08:35:37.999Z</time></trkpt><trkpt lat="39.30811069821933" lon="-3.6299254328855155"><ele>977.0000000000001</ele><time>2026-05-01T08:35:38.999Z</time></trkpt><trkpt lat="39.30808447313893" lon="-3.630012497355121"><ele>977.0</ele><time>2026-05-01T08:35:39.999Z</time></trkpt><trkpt lat="39.30803928775316" lon="-3.6301613584909727"><ele>974.0</ele><time>2026-05-01T08:35:41.999Z</time></trkpt><trkpt lat="39.30800695679031" lon="-3.630302534274995"><ele>971.0</ele><time>2026-05-01T08:35:43.999Z</time></trkpt><trkpt lat="39.30800952431358" lon="-3.6304479737337485"><ele>968.0</ele><time>2026-05-01T08:35:45.999Z</time></trkpt><trkpt lat="39.308027742594916" lon="-3.6306000853354234"><ele>965.0</ele><time>2026-05-01T08:35:47.999Z</time></trkpt><trkpt lat="39.30803753615128" lon="-3.630681153020338"><ele>962.0</ele><time>2026-05-01T08:35:48.999Z</time></trkpt><trkpt lat="39.30803997467032" lon="-3.630766081804188"><ele>962.0000000000001</ele><time>2026-05-01T08:35:49.999Z</time></trkpt><trkpt lat="39.308024959612176" lon="-3.630854041427305"><ele>962.0</ele><time>2026-05-01T08:35:50.999Z</time></trkpt><trkpt lat="39.30799044192793" lon="-3.630943777025736"><ele>962.0</ele><time>2026-05-01T08:35:51.999Z</time></trkpt><trkpt lat="39.307966701986274" lon="-3.6310297513875214"><ele>962.0</ele><time>2026-05-01T08:35:52.999Z</time></trkpt><trkpt lat="39.30795562117522" lon="-3.6311299428788084"><ele>962.0000000000001</ele><time>2026-05-01T08:35:53.999Z</time></trkpt><trkpt lat="39.30794605381187" lon="-3.6312302755360206"><ele>962.0</ele><time>2026-05-01T08:35:54.999Z</time></trkpt><trkpt lat="39.3079312796164" lon="-3.631339686761841"><ele>960.9999999999999</ele><time>2026-05-01T08:35:55.999Z</time></trkpt><trkpt lat="39.30792009272089" lon="-3.631441098644147"><ele>960.0</ele><time>2026-05-01T08:35:56.999Z</time></trkpt><trkpt lat="39.30791072319145" lon="-3.6315329281169224"><ele>958.9999999999999</ele><time>2026-05-01T08:35:57.999Z</time></trkpt><trkpt lat="39.30789010077583" lon="-3.6316211810585735"><ele>957.9999999999999</ele><time>2026-05-01T08:35:58.999Z</time></trkpt><trkpt lat="39.30787499479941" lon="-3.63171614890257"><ele>957.0</ele><time>2026-05-01T08:35:59.999Z</time></trkpt><trkpt lat="39.30786513385899" lon="-3.6318052258991482"><ele>955.9999999999999</ele><time>2026-05-01T08:36:00.999Z</time></trkpt><trkpt lat="39.30785331040174" lon="-3.631895314646638"><ele>954.9999999999999</ele><time>2026-05-01T08:36:01.999Z</time></trkpt><trkpt lat="39.30784194986435" lon="-3.631981349531989"><ele>954.3333333333333</ele><time>2026-05-01T08:36:02.999Z</time></trkpt><trkpt lat="39.30783046490098" lon="-3.632072878880519"><ele>953.6666666666666</ele><time>2026-05-01T08:36:03.999Z</time></trkpt><trkpt lat="39.30782892493382" lon="-3.6321599936819293"><ele>953.0</ele><time>2026-05-01T08:36:04.999Z</time></trkpt><trkpt lat="39.30782477065344" lon="-3.6322481674267224"><ele>952.3333333333333</ele><time>2026-05-01T08:36:05.999Z</time></trkpt><trkpt lat="39.30782504983857" lon="-3.6324005995166817"><ele>951.6666666666666</ele><time>2026-05-01T08:36:07.999Z</time></trkpt><trkpt lat="39.3078251325004" lon="-3.6325441376889147"><ele>951.0</ele><time>2026-05-01T08:36:09.999Z</time></trkpt><trkpt lat="39.30782376490486" lon="-3.6326322074919832"><ele>951.0</ele><time>2026-05-01T08:36:10.999Z</time></trkpt><trkpt lat="39.30781899707099" lon="-3.6327243517857473"><ele>951.0</ele><time>2026-05-01T08:36:11.999Z</time></trkpt><trkpt lat="39.30782137942133" lon="-3.632813127717736"><ele>951.0</ele><time>2026-05-01T08:36:12.999Z</time></trkpt><trkpt lat="39.307820463382996" lon="-3.632917126430767"><ele>951.0</ele><time>2026-05-01T08:36:13.999Z</time></trkpt><trkpt lat="39.3078219783902" lon="-3.633009406254515"><ele>951.0</ele><time>2026-05-01T08:36:14.999Z</time></trkpt><trkpt lat="39.30782535444359" lon="-3.6330943043560913"><ele>951.0</ele><time>2026-05-01T08:36:15.999Z</time></trkpt><trkpt lat="39.307836508758065" lon="-3.633196084612963"><ele>951.0</ele><time>2026-05-01T08:36:16.999Z</time></trkpt><trkpt lat="39.307849205448434" lon="-3.6332768160659588"><ele>950.1999999999999</ele><time>2026-05-01T08:36:17.999Z</time></trkpt><trkpt lat="39.307860972490005" lon="-3.6333649345887262"><ele>949.3999999999999</ele><time>2026-05-01T08:36:18.999Z</time></trkpt><trkpt lat="39.30789828081596" lon="-3.633496892401434"><ele>948.6</ele><time>2026-05-01T08:36:20.999Z</time></trkpt><trkpt lat="39.30796489991347" lon="-3.633596380315789"><ele>947.8</ele><time>2026-05-01T08:36:22.998Z</time></trkpt><trkpt lat="39.308046743398634" lon="-3.6336465023454787"><ele>947.0</ele><time>2026-05-01T08:36:24.998Z</time></trkpt><trkpt lat="39.308135470775184" lon="-3.633681266945646"><ele>946.8</ele><time>2026-05-01T08:36:26.998Z</time></trkpt><trkpt lat="39.30825516949895" lon="-3.6337333269792857"><ele>946.6</ele><time>2026-05-01T08:36:28.998Z</time></trkpt><trkpt lat="39.308323329336346" lon="-3.633762612006329"><ele>946.3999999999999</ele><time>2026-05-01T08:36:29.998Z</time></trkpt><trkpt lat="39.30839517984361" lon="-3.633850783041312"><ele>946.1999999999999</ele><time>2026-05-01T08:36:31.998Z</time></trkpt><trkpt lat="39.30845915896452" lon="-3.6339880651566476"><ele>946.0</ele><time>2026-05-01T08:36:34Z</time></trkpt><trkpt lat="39.30848087788245" lon="-3.634075026720666"><ele>946.0</ele><time>2026-05-01T08:36:35Z</time></trkpt><trkpt lat="39.308475701336576" lon="-3.6342325398020114"><ele>945.9999999999999</ele><time>2026-05-01T08:36:37Z</time></trkpt><trkpt lat="39.30844614235888" lon="-3.634398643071821"><ele>945.9999999999999</ele><time>2026-05-01T08:36:39Z</time></trkpt><trkpt lat="39.308434849555205" lon="-3.634482787489379"><ele>946.0</ele><time>2026-05-01T08:36:40Z</time></trkpt><trkpt lat="39.30842146316405" lon="-3.634565319701946"><ele>946.0</ele><time>2026-05-01T08:36:41Z</time></trkpt><trkpt lat="39.30840973636496" lon="-3.63465635294722"><ele>945.4285714285714</ele><time>2026-05-01T08:36:42Z</time></trkpt><trkpt lat="39.30838119511128" lon="-3.6347439035275095"><ele>944.8571428571429</ele><time>2026-05-01T08:36:43Z</time></trkpt><trkpt lat="39.30836377725433" lon="-3.6348248607472944"><ele>944.2857142857143</ele><time>2026-05-01T08:36:44Z</time></trkpt><trkpt lat="39.30834866718272" lon="-3.6349105697971775"><ele>943.7142857142858</ele><time>2026-05-01T08:36:45Z</time></trkpt><trkpt lat="39.308329100118875" lon="-3.6350027355157883"><ele>943.1428571428571</ele><time>2026-05-01T08:36:46Z</time></trkpt><trkpt lat="39.30830502291627" lon="-3.635081490602306"><ele>942.5714285714287</ele><time>2026-05-01T08:36:47Z</time></trkpt><trkpt lat="39.30827316799248" lon="-3.6351625381122763"><ele>942.0000000000001</ele><time>2026-05-01T08:36:48Z</time></trkpt><trkpt lat="39.30824376442797" lon="-3.635240893438262"><ele>941.5</ele><time>2026-05-01T08:36:49Z</time></trkpt><trkpt lat="39.30821663499104" lon="-3.63531838765655"><ele>941.0</ele><time>2026-05-01T08:36:50Z</time></trkpt><trkpt lat="39.308160601787236" lon="-3.6354587176636155"><ele>940.5</ele><time>2026-05-01T08:36:52Z</time></trkpt><trkpt lat="39.30813237002018" lon="-3.635538207134077"><ele>940.0</ele><time>2026-05-01T08:36:53Z</time></trkpt><trkpt lat="39.30810788793967" lon="-3.6356145663405433"><ele>939.5</ele><time>2026-05-01T08:36:54Z</time></trkpt><trkpt lat="39.30807952782569" lon="-3.6357122727893394"><ele>939.0</ele><time>2026-05-01T08:36:55Z</time></trkpt><trkpt lat="39.30805975525838" lon="-3.6358174225090476"><ele>938.1666666666666</ele><time>2026-05-01T08:36:56Z</time></trkpt><trkpt lat="39.30805645436785" lon="-3.635920664478393"><ele>937.3333333333333</ele><time>2026-05-01T08:36:57Z</time></trkpt><trkpt lat="39.30806596501707" lon="-3.6360231813626327"><ele>936.5</ele><time>2026-05-01T08:36:58Z</time></trkpt><trkpt lat="39.30808623002958" lon="-3.6361438042453917"><ele>935.6666666666666</ele><time>2026-05-01T08:36:59Z</time></trkpt><trkpt lat="39.30811852905384" lon="-3.636262855468757"><ele>934.8333333333333</ele><time>2026-05-01T08:37:00Z</time></trkpt><trkpt lat="39.30815201673698" lon="-3.636357398788452"><ele>934.0</ele><time>2026-05-01T08:37:01Z</time></trkpt><trkpt lat="39.308176113416444" lon="-3.636521731766236"><ele>933.9999999999999</ele><time>2026-05-01T08:37:03Z</time></trkpt><trkpt lat="39.30814781332232" lon="-3.6366350753206524"><ele>934.0</ele><time>2026-05-01T08:37:04Z</time></trkpt><trkpt lat="39.30811623350566" lon="-3.6367376077223947"><ele>934.0</ele><time>2026-05-01T08:37:05Z</time></trkpt><trkpt lat="39.30810914647161" lon="-3.6368208534300197"><ele>934.0</ele><time>2026-05-01T08:37:06Z</time></trkpt><trkpt lat="39.3081131464069" lon="-3.636924116216618"><ele>933.9999999999999</ele><time>2026-05-01T08:37:07Z</time></trkpt><trkpt lat="39.30812447618108" lon="-3.6370115509218226"><ele>934.0</ele><time>2026-05-01T08:37:08Z</time></trkpt><trkpt lat="39.30813749483185" lon="-3.6371077002056285"><ele>932.9999999999999</ele><time>2026-05-01T08:37:09Z</time></trkpt><trkpt lat="39.30815313693731" lon="-3.637196003324807"><ele>932.0</ele><time>2026-05-01T08:37:10Z</time></trkpt><trkpt lat="39.30817713106663" lon="-3.6373321181255416"><ele>931.0</ele><time>2026-05-01T08:37:12Z</time></trkpt><trkpt lat="39.30818125243123" lon="-3.6374221395801842"><ele>930.0</ele><time>2026-05-01T08:37:14Z</time></trkpt><trkpt lat="39.30813842590125" lon="-3.6375318860295627"><ele>928.9999999999999</ele><time>2026-05-01T08:37:16Z</time></trkpt><trkpt lat="39.30807450037085" lon="-3.6376205745093753"><ele>928.0</ele><time>2026-05-01T08:37:18Z</time></trkpt><trkpt lat="39.30801270819563" lon="-3.637725952437269"><ele>926.4</ele><time>2026-05-01T08:37:20Z</time></trkpt><trkpt lat="39.30796911569382" lon="-3.6378103117633356"><ele>924.8</ele><time>2026-05-01T08:37:21Z</time></trkpt><trkpt lat="39.307919639244304" lon="-3.637928726036905"><ele>923.2</ele><time>2026-05-01T08:37:22Z</time></trkpt><trkpt lat="39.307870429875756" lon="-3.6380769656531826"><ele>921.6</ele><time>2026-05-01T08:37:22.999Z</time></trkpt><trkpt lat="39.307837246554115" lon="-3.638206919286376"><ele>920.0</ele><time>2026-05-01T08:37:23.999Z</time></trkpt><trkpt lat="39.307807273521426" lon="-3.638326347245632"><ele>920.0</ele><time>2026-05-01T08:37:24.999Z</time></trkpt><trkpt lat="39.307775136674145" lon="-3.6384308149194116"><ele>920.0</ele><time>2026-05-01T08:37:25.999Z</time></trkpt><trkpt lat="39.30775384302496" lon="-3.6385531974025556"><ele>920.0</ele><time>2026-05-01T08:37:26.999Z</time></trkpt><trkpt lat="39.30774672659451" lon="-3.6386722493928683"><ele>920.0</ele><time>2026-05-01T08:37:27.999Z</time></trkpt><trkpt lat="39.30773934772046" lon="-3.638794458890304"><ele>920.0</ele><time>2026-05-01T08:37:28.999Z</time></trkpt><trkpt lat="39.30774043795709" lon="-3.638911606570993"><ele>919.4</ele><time>2026-05-01T08:37:29.999Z</time></trkpt><trkpt lat="39.30774696102912" lon="-3.639047248826615"><ele>918.8</ele><time>2026-05-01T08:37:30.999Z</time></trkpt><trkpt lat="39.3077626638557" lon="-3.639190132569173"><ele>918.2</ele><time>2026-05-01T08:37:31.999Z</time></trkpt><trkpt lat="39.307781324800715" lon="-3.6393170931129304"><ele>917.6</ele><time>2026-05-01T08:37:32.999Z</time></trkpt><trkpt lat="39.30779968900948" lon="-3.6394351414449937"><ele>917.0</ele><time>2026-05-01T08:37:33.999Z</time></trkpt><trkpt lat="39.3078140127629" lon="-3.6395559630480983"><ele>916.6666666666667</ele><time>2026-05-01T08:37:34.999Z</time></trkpt><trkpt lat="39.30780726067545" lon="-3.6396693265064965"><ele>916.3333333333334</ele><time>2026-05-01T08:37:35.999Z</time></trkpt><trkpt lat="39.30778233627056" lon="-3.6397512309799205"><ele>916.0</ele><time>2026-05-01T08:37:36.999Z</time></trkpt><trkpt lat="39.30774078434957" lon="-3.6398283477235127"><ele>915.6666666666667</ele><time>2026-05-01T08:37:37.999Z</time></trkpt><trkpt lat="39.30768538180377" lon="-3.6398762727994134"><ele>915.3333333333334</ele><time>2026-05-01T08:37:38.999Z</time></trkpt><trkpt lat="39.307598975357855" lon="-3.6399219718875298"><ele>915.0</ele><time>2026-05-01T08:37:39.999Z</time></trkpt><trkpt lat="39.30750464602006" lon="-3.6399683510790157"><ele>915.0</ele><time>2026-05-01T08:37:40.999Z</time></trkpt><trkpt lat="39.30740881505233" lon="-3.6401092054784123"><ele>915.0</ele><time>2026-05-01T08:37:42.999Z</time></trkpt><trkpt lat="39.30735790495354" lon="-3.640216378498779"><ele>915.0</ele><time>2026-05-01T08:37:43.999Z</time></trkpt><trkpt lat="39.307311954713455" lon="-3.6403324078022865"><ele>915.0</ele><time>2026-05-01T08:37:44.999Z</time></trkpt><trkpt lat="39.30727047082732" lon="-3.6404331630447646"><ele>915.0</ele><time>2026-05-01T08:37:45.999Z</time></trkpt><trkpt lat="39.307234772374905" lon="-3.6405261977325845"><ele>914.1666666666666</ele><time>2026-05-01T08:37:46.999Z</time></trkpt><trkpt lat="39.307170732709444" lon="-3.64063701132557"><ele>913.3333333333333</ele><time>2026-05-01T08:37:47.999Z</time></trkpt><trkpt lat="39.30713795474353" lon="-3.640728761940662"><ele>912.5</ele><time>2026-05-01T08:37:48.999Z</time></trkpt><trkpt lat="39.30711084737273" lon="-3.6408257354071742"><ele>911.6666666666666</ele><time>2026-05-01T08:37:49.999Z</time></trkpt><trkpt lat="39.307092252640984" lon="-3.6409249072444103"><ele>910.8333333333333</ele><time>2026-05-01T08:37:50.999Z</time></trkpt><trkpt lat="39.307090783409734" lon="-3.641015595323304"><ele>910.0</ele><time>2026-05-01T08:37:51.999Z</time></trkpt><trkpt lat="39.307099677084715" lon="-3.6411742291302382"><ele>909.6666666666666</ele><time>2026-05-01T08:37:53.999Z</time></trkpt><trkpt lat="39.30709830401145" lon="-3.6412580745666774"><ele>909.3333333333333</ele><time>2026-05-01T08:37:54.999Z</time></trkpt><trkpt lat="39.307093388977634" lon="-3.6413405833102797"><ele>909.0</ele><time>2026-05-01T08:37:55.999Z</time></trkpt><trkpt lat="39.30708237111966" lon="-3.641434843565411"><ele>908.6666666666667</ele><time>2026-05-01T08:37:56.999Z</time></trkpt><trkpt lat="39.30706742531575" lon="-3.641542130802996"><ele>908.3333333333334</ele><time>2026-05-01T08:37:57.999Z</time></trkpt><trkpt lat="39.30705322907857" lon="-3.641648600682058"><ele>908.0</ele><time>2026-05-01T08:37:58.999Z</time></trkpt><trkpt lat="39.30704237584166" lon="-3.641753668655641"><ele>908.0</ele><time>2026-05-01T08:37:59.999Z</time></trkpt><trkpt lat="39.307041707749114" lon="-3.641850975992111"><ele>908.0000000000001</ele><time>2026-05-01T08:38:00.999Z</time></trkpt><trkpt lat="39.30703666121714" lon="-3.6419415528101093"><ele>908.0</ele><time>2026-05-01T08:38:01.999Z</time></trkpt><trkpt lat="39.307032883664576" lon="-3.642044058213368"><ele>908.0</ele><time>2026-05-01T08:38:02.999Z</time></trkpt><trkpt lat="39.30702506719744" lon="-3.642139462872591"><ele>908.0000000000001</ele><time>2026-05-01T08:38:03.999Z</time></trkpt><trkpt lat="39.30701558114062" lon="-3.642227208714748"><ele>908.0</ele><time>2026-05-01T08:38:04.999Z</time></trkpt><trkpt lat="39.30699961527309" lon="-3.6423092068012406"><ele>908.0</ele><time>2026-05-01T08:38:05.999Z</time></trkpt><trkpt lat="39.306983400402" lon="-3.642395150498918"><ele>907.5000000000001</ele><time>2026-05-01T08:38:06.999Z</time></trkpt><trkpt lat="39.306957779814276" lon="-3.6424848942337"><ele>907.0</ele><time>2026-05-01T08:38:07.999Z</time></trkpt><trkpt lat="39.30692910124371" lon="-3.6425801328556293"><ele>906.5</ele><time>2026-05-01T08:38:08.999Z</time></trkpt><trkpt lat="39.30689783151384" lon="-3.6426772800140745"><ele>906.0</ele><time>2026-05-01T08:38:09.999Z</time></trkpt><trkpt lat="39.30687457161421" lon="-3.642785173136274"><ele>905.5000000000001</ele><time>2026-05-01T08:38:10.999Z</time></trkpt><trkpt lat="39.30684198475877" lon="-3.6428734383305557"><ele>905.0</ele><time>2026-05-01T08:38:11.999Z</time></trkpt><trkpt lat="39.30680690529702" lon="-3.642956887767451"><ele>904.5000000000001</ele><time>2026-05-01T08:38:12.999Z</time></trkpt><trkpt lat="39.306771862192434" lon="-3.6430302503102534"><ele>904.0</ele><time>2026-05-01T08:38:13.999Z</time></trkpt><trkpt lat="39.30672647787818" lon="-3.643101829822218"><ele>903.5</ele><time>2026-05-01T08:38:14.999Z</time></trkpt><trkpt lat="39.30666461551224" lon="-3.6431660861894395"><ele>903.0</ele><time>2026-05-01T08:38:15.999Z</time></trkpt><trkpt lat="39.306595920457774" lon="-3.643226584979464"><ele>902.5000000000001</ele><time>2026-05-01T08:38:16.999Z</time></trkpt><trkpt lat="39.30651905800359" lon="-3.643286530688041"><ele>902.0</ele><time>2026-05-01T08:38:17.999Z</time></trkpt><trkpt lat="39.30644318359251" lon="-3.6433586120661445"><ele>902.0000000000001</ele><time>2026-05-01T08:38:18.999Z</time></trkpt><trkpt lat="39.306390384334314" lon="-3.6434364266789028"><ele>902.0</ele><time>2026-05-01T08:38:19.999Z</time></trkpt><trkpt lat="39.30635337542542" lon="-3.643522716130027"><ele>902.0</ele><time>2026-05-01T08:38:20.999Z</time></trkpt><trkpt lat="39.30630828160917" lon="-3.6436239508663184"><ele>902.0</ele><time>2026-05-01T08:38:21.999Z</time></trkpt><trkpt lat="39.30627027392428" lon="-3.6437212408284165"><ele>902.0000000000001</ele><time>2026-05-01T08:38:22.999Z</time></trkpt><trkpt lat="39.3062435682044" lon="-3.643819745582621"><ele>902.0</ele><time>2026-05-01T08:38:23.999Z</time></trkpt><trkpt lat="39.30622102020975" lon="-3.6439291689724334"><ele>902.0</ele><time>2026-05-01T08:38:24.999Z</time></trkpt><trkpt lat="39.30620458054454" lon="-3.64406358941222"><ele>902.0</ele><time>2026-05-01T08:38:25.999Z</time></trkpt><trkpt lat="39.30620284211481" lon="-3.6442063171221863"><ele>902.0</ele><time>2026-05-01T08:38:26.999Z</time></trkpt><trkpt lat="39.306207007504064" lon="-3.6443388728823187"><ele>902.0</ele><time>2026-05-01T08:38:27.999Z</time></trkpt><trkpt lat="39.306201180411136" lon="-3.6444389697078017"><ele>902.0</ele><time>2026-05-01T08:38:28.998Z</time></trkpt><trkpt lat="39.306196208821916" lon="-3.6445695104796503"><ele>901.1666666666667</ele><time>2026-05-01T08:38:30.998Z</time></trkpt><trkpt lat="39.306179415129236" lon="-3.644698793993513"><ele>900.3333333333334</ele><time>2026-05-01T08:38:32.998Z</time></trkpt><trkpt lat="39.306183004208755" lon="-3.644816474153645"><ele>899.5</ele><time>2026-05-01T08:38:34.998Z</time></trkpt><trkpt lat="39.306162442263485" lon="-3.6449166666615818"><ele>898.6666666666667</ele><time>2026-05-01T08:38:36.998Z</time></trkpt><trkpt lat="39.306112224614395" lon="-3.6449991981106087"><ele>897.8333333333334</ele><time>2026-05-01T08:38:40Z</time></trkpt><trkpt lat="39.306133854122244" lon="-3.645093536771664"><ele>897.0</ele><time>2026-05-01T08:38:42Z</time></trkpt><trkpt lat="39.30614294116111" lon="-3.6452218125612803"><ele>896.5</ele><time>2026-05-01T08:38:44Z</time></trkpt><trkpt lat="39.306117773028184" lon="-3.645302048066195"><ele>896.0</ele><time>2026-05-01T08:38:45Z</time></trkpt><trkpt lat="39.30608191229329" lon="-3.6454081528773523"><ele>895.5</ele><time>2026-05-01T08:38:46Z</time></trkpt><trkpt lat="39.30605041498769" lon="-3.6455002423027807"><ele>895.0</ele><time>2026-05-01T08:38:47Z</time></trkpt><trkpt lat="39.306014515978994" lon="-3.6455899814364865"><ele>894.5</ele><time>2026-05-01T08:38:48Z</time></trkpt><trkpt lat="39.305983576639036" lon="-3.6456838969292438"><ele>894.0</ele><time>2026-05-01T08:38:49Z</time></trkpt><trkpt lat="39.305959132240595" lon="-3.645775910892865"><ele>894.0</ele><time>2026-05-01T08:38:50Z</time></trkpt><trkpt lat="39.305930352645255" lon="-3.6458837145312075"><ele>894.0</ele><time>2026-05-01T08:38:51Z</time></trkpt><trkpt lat="39.30590407957737" lon="-3.6459905848017637"><ele>894.0</ele><time>2026-05-01T08:38:52Z</time></trkpt><trkpt lat="39.305879962632346" lon="-3.6461014943917855"><ele>894.0</ele><time>2026-05-01T08:38:53Z</time></trkpt><trkpt lat="39.30585589107496" lon="-3.6462051419670867"><ele>894.0</ele><time>2026-05-01T08:38:54Z</time></trkpt><trkpt lat="39.305830609056834" lon="-3.6462983521104038"><ele>894.0</ele><time>2026-05-01T08:38:55Z</time></trkpt><trkpt lat="39.30580119883127" lon="-3.646382193499254"><ele>894.1666666666666</ele><time>2026-05-01T08:38:56Z</time></trkpt><trkpt lat="39.305764351329536" lon="-3.646474490744807"><ele>894.3333333333333</ele><time>2026-05-01T08:38:57Z</time></trkpt><trkpt lat="39.30572797744706" lon="-3.6465608041905346"><ele>894.5</ele><time>2026-05-01T08:38:58Z</time></trkpt><trkpt lat="39.30569021977438" lon="-3.646647578069874"><ele>894.6666666666666</ele><time>2026-05-01T08:38:59Z</time></trkpt><trkpt lat="39.30564643332233" lon="-3.6467321687111456"><ele>894.8333333333333</ele><time>2026-05-01T08:39:00Z</time></trkpt><trkpt lat="39.305597366942465" lon="-3.6468260622902826"><ele>895.0</ele><time>2026-05-01T08:39:01Z</time></trkpt><trkpt lat="39.30555409770585" lon="-3.6469107573313946"><ele>894.1666666666666</ele><time>2026-05-01T08:39:02Z</time></trkpt><trkpt lat="39.3055126113908" lon="-3.646998295241631"><ele>893.3333333333333</ele><time>2026-05-01T08:39:03Z</time></trkpt><trkpt lat="39.30547753015064" lon="-3.6470742021469658"><ele>892.5</ele><time>2026-05-01T08:39:04Z</time></trkpt><trkpt lat="39.30542994494277" lon="-3.6472303924830065"><ele>891.6666666666667</ele><time>2026-05-01T08:39:06Z</time></trkpt><trkpt lat="39.30540989396618" lon="-3.647314803950862"><ele>890.8333333333334</ele><time>2026-05-01T08:39:07Z</time></trkpt><trkpt lat="39.305388793610575" lon="-3.6474000257207355"><ele>890.0</ele><time>2026-05-01T08:39:08Z</time></trkpt><trkpt lat="39.30536672780767" lon="-3.6474852599313743"><ele>890.0000000000001</ele><time>2026-05-01T08:39:09Z</time></trkpt><trkpt lat="39.30534313003191" lon="-3.647580056875852"><ele>890.0</ele><time>2026-05-01T08:39:10Z</time></trkpt><trkpt lat="39.30531776760921" lon="-3.6476693763765122"><ele>890.0</ele><time>2026-05-01T08:39:11Z</time></trkpt><trkpt lat="39.30528615741963" lon="-3.647762820646362"><ele>890.0</ele><time>2026-05-01T08:39:12Z</time></trkpt><trkpt lat="39.30525832315899" lon="-3.6478850321105516"><ele>890.0000000000001</ele><time>2026-05-01T08:39:13Z</time></trkpt><trkpt lat="39.30525604973738" lon="-3.647987748289921"><ele>890.0</ele><time>2026-05-01T08:39:14Z</time></trkpt><trkpt lat="39.30526411513959" lon="-3.6481104585659208"><ele>890.2</ele><time>2026-05-01T08:39:15Z</time></trkpt><trkpt lat="39.30527518026858" lon="-3.648236541252567"><ele>890.4</ele><time>2026-05-01T08:39:16Z</time></trkpt><trkpt lat="39.30529882986249" lon="-3.6483815954019656"><ele>890.5999999999999</ele><time>2026-05-01T08:39:17Z</time></trkpt><trkpt lat="39.30533507754369" lon="-3.6485225642904986"><ele>890.8</ele><time>2026-05-01T08:39:18Z</time></trkpt><trkpt lat="39.30536539802834" lon="-3.6486408731494775"><ele>891.0</ele><time>2026-05-01T08:39:19Z</time></trkpt><trkpt lat="39.305380698290904" lon="-3.648755317527464"><ele>891.0</ele><time>2026-05-01T08:39:20Z</time></trkpt><trkpt lat="39.30540203127413" lon="-3.6488849537089467"><ele>890.9999999999999</ele><time>2026-05-01T08:39:21Z</time></trkpt><trkpt lat="39.30543977802687" lon="-3.649025585937079"><ele>890.9999999999999</ele><time>2026-05-01T08:39:22Z</time></trkpt><trkpt lat="39.3054717672128" lon="-3.6491697252538717"><ele>891.0</ele><time>2026-05-01T08:39:23Z</time></trkpt><trkpt lat="39.30551015893028" lon="-3.64930666092593"><ele>891.0</ele><time>2026-05-01T08:39:24Z</time></trkpt><trkpt lat="39.3055592875306" lon="-3.6494519473802445"><ele>889.0</ele><time>2026-05-01T08:39:25Z</time></trkpt><trkpt lat="39.30560371281162" lon="-3.6495817439189566"><ele>886.9999999999999</ele><time>2026-05-01T08:39:26Z</time></trkpt><trkpt lat="39.30565055759099" lon="-3.649699872187332"><ele>884.9999999999999</ele><time>2026-05-01T08:39:27Z</time></trkpt><trkpt lat="39.30570483392183" lon="-3.6498111318433923"><ele>883.0</ele><time>2026-05-01T08:39:27.999Z</time></trkpt><trkpt lat="39.30577914885231" lon="-3.6499460230900582"><ele>881.0</ele><time>2026-05-01T08:39:28.999Z</time></trkpt><trkpt lat="39.30585854272354" lon="-3.650071168880011"><ele>881.0</ele><time>2026-05-01T08:39:29.999Z</time></trkpt><trkpt lat="39.305945880184666" lon="-3.650186070714104"><ele>881.0</ele><time>2026-05-01T08:39:30.999Z</time></trkpt><trkpt lat="39.306043314439144" lon="-3.650298864130312"><ele>881.0</ele><time>2026-05-01T08:39:31.999Z</time></trkpt><trkpt lat="39.306157585665844" lon="-3.6504048390943944"><ele>881.0</ele><time>2026-05-01T08:39:32.999Z</time></trkpt><trkpt lat="39.30628100406148" lon="-3.650525069045172"><ele>881.75</ele><time>2026-05-01T08:39:33.999Z</time></trkpt><trkpt lat="39.306383061549106" lon="-3.650627246685941"><ele>882.5</ele><time>2026-05-01T08:39:34.999Z</time></trkpt><trkpt lat="39.306479991259565" lon="-3.65071942102364"><ele>883.25</ele><time>2026-05-01T08:39:35.999Z</time></trkpt><trkpt lat="39.306565379883" lon="-3.6508033139618594"><ele>884.0</ele><time>2026-05-01T08:39:36.999Z</time></trkpt><trkpt lat="39.306646451838894" lon="-3.6508828353617773"><ele>883.0</ele><time>2026-05-01T08:39:37.999Z</time></trkpt><trkpt lat="39.3067290922832" lon="-3.6509622757023275"><ele>882.0000000000001</ele><time>2026-05-01T08:39:38.999Z</time></trkpt><trkpt lat="39.3067955554226" lon="-3.6510276893392994"><ele>881.0000000000001</ele><time>2026-05-01T08:39:39.999Z</time></trkpt><trkpt lat="39.30688568782726" lon="-3.651118038095283"><ele>880.0</ele><time>2026-05-01T08:39:41.999Z</time></trkpt><trkpt lat="39.30692374677296" lon="-3.6512198941404463"><ele>879.0</ele><time>2026-05-01T08:39:43.999Z</time></trkpt><trkpt lat="39.306912778209394" lon="-3.651381277935413"><ele>879.0</ele><time>2026-05-01T08:39:45.999Z</time></trkpt><trkpt lat="39.306922891895105" lon="-3.651523162020561"><ele>879.0</ele><time>2026-05-01T08:39:47.999Z</time></trkpt><trkpt lat="39.30694486579956" lon="-3.6516193621916773"><ele>879.0</ele><time>2026-05-01T08:39:48.999Z</time></trkpt><trkpt lat="39.306977282176014" lon="-3.651733545032143"><ele>879.0</ele><time>2026-05-01T08:39:49.999Z</time></trkpt><trkpt lat="39.30701167304827" lon="-3.6518389047441695"><ele>879.0</ele><time>2026-05-01T08:39:50.999Z</time></trkpt><trkpt lat="39.30704052244657" lon="-3.6519278578825665"><ele>879.0</ele><time>2026-05-01T08:39:51.999Z</time></trkpt><trkpt lat="39.307064910644684" lon="-3.6520227439331294"><ele>880.0</ele><time>2026-05-01T08:39:52.999Z</time></trkpt><trkpt lat="39.30708949874892" lon="-3.652115387128801"><ele>881.0</ele><time>2026-05-01T08:39:53.999Z</time></trkpt><trkpt lat="39.30712928119089" lon="-3.6522149850469536"><ele>882.0</ele><time>2026-05-01T08:39:54.999Z</time></trkpt><trkpt lat="39.307163915923425" lon="-3.6523230666417343"><ele>883.0</ele><time>2026-05-01T08:39:55.999Z</time></trkpt><trkpt lat="39.30719479946082" lon="-3.652414170401206"><ele>884.0</ele><time>2026-05-01T08:39:56.999Z</time></trkpt><trkpt lat="39.30722969939944" lon="-3.652510716237096"><ele>885.0</ele><time>2026-05-01T08:39:57.999Z</time></trkpt><trkpt lat="39.30725934309565" lon="-3.6526078321071322"><ele>883.2857142857142</ele><time>2026-05-01T08:39:58.999Z</time></trkpt><trkpt lat="39.30728784216714" lon="-3.652689972063733"><ele>881.5714285714286</ele><time>2026-05-01T08:39:59.999Z</time></trkpt><trkpt lat="39.307325023532705" lon="-3.6527711876094333"><ele>879.8571428571429</ele><time>2026-05-01T08:40:00.999Z</time></trkpt><trkpt lat="39.30735541768918" lon="-3.6528425528771553"><ele>878.1428571428571</ele><time>2026-05-01T08:40:01.999Z</time></trkpt><trkpt lat="39.30738632491532" lon="-3.6529303221263736"><ele>876.4285714285714</ele><time>2026-05-01T08:40:02.999Z</time></trkpt><trkpt lat="39.307409380929776" lon="-3.6530242356451814"><ele>874.7142857142857</ele><time>2026-05-01T08:40:03.999Z</time></trkpt><trkpt lat="39.3074133258429" lon="-3.653111370941013"><ele>873.0</ele><time>2026-05-01T08:40:04.999Z</time></trkpt><trkpt lat="39.307410613198776" lon="-3.653210773725706"><ele>872.8333333333334</ele><time>2026-05-01T08:40:05.999Z</time></trkpt><trkpt lat="39.30740332031318" lon="-3.6533082233555008"><ele>872.6666666666667</ele><time>2026-05-01T08:40:06.999Z</time></trkpt><trkpt lat="39.30739996062208" lon="-3.6534132742527947"><ele>872.5</ele><time>2026-05-01T08:40:07.999Z</time></trkpt><trkpt lat="39.30739593862083" lon="-3.653512824067891"><ele>872.3333333333334</ele><time>2026-05-01T08:40:08.999Z</time></trkpt><trkpt lat="39.307382544948375" lon="-3.653631846164568"><ele>872.1666666666667</ele><time>2026-05-01T08:40:09.999Z</time></trkpt><trkpt lat="39.307372994407594" lon="-3.6537462200726276"><ele>872.0</ele><time>2026-05-01T08:40:10.999Z</time></trkpt><trkpt lat="39.30736904127326" lon="-3.6538551290363506"><ele>871.8</ele><time>2026-05-01T08:40:11.999Z</time></trkpt><trkpt lat="39.3073647434879" lon="-3.6539730703204976"><ele>871.6</ele><time>2026-05-01T08:40:12.999Z</time></trkpt><trkpt lat="39.30734988307121" lon="-3.6540950450440266"><ele>871.3999999999999</ele><time>2026-05-01T08:40:13.999Z</time></trkpt><trkpt lat="39.307337231926574" lon="-3.654208885460459"><ele>871.1999999999999</ele><time>2026-05-01T08:40:14.999Z</time></trkpt><trkpt lat="39.30732952905987" lon="-3.6543319005924784"><ele>871.0</ele><time>2026-05-01T08:40:15.999Z</time></trkpt><trkpt lat="39.30732626684943" lon="-3.6544633169722975"><ele>870.1999999999999</ele><time>2026-05-01T08:40:16.999Z</time></trkpt><trkpt lat="39.30732269646469" lon="-3.65459246989032"><ele>869.3999999999999</ele><time>2026-05-01T08:40:17.999Z</time></trkpt><trkpt lat="39.30731318860878" lon="-3.6547308907367815"><ele>868.6</ele><time>2026-05-01T08:40:18.999Z</time></trkpt><trkpt lat="39.30729698442909" lon="-3.6548535862334264"><ele>867.8</ele><time>2026-05-01T08:40:19.999Z</time></trkpt><trkpt lat="39.307275669731865" lon="-3.654959317288096"><ele>867.0</ele><time>2026-05-01T08:40:20.999Z</time></trkpt><trkpt lat="39.30724127497107" lon="-3.6550513734072925"><ele>867.0</ele><time>2026-05-01T08:40:21.999Z</time></trkpt><trkpt lat="39.30719332755439" lon="-3.6551501961806805"><ele>867.0</ele><time>2026-05-01T08:40:22.999Z</time></trkpt><trkpt lat="39.307139785454325" lon="-3.655243019302719"><ele>867.0</ele><time>2026-05-01T08:40:23.999Z</time></trkpt><trkpt lat="39.30707922090639" lon="-3.6553342856428848"><ele>867.0</ele><time>2026-05-01T08:40:24.999Z</time></trkpt><trkpt lat="39.30700633702772" lon="-3.655422825365923"><ele>867.0</ele><time>2026-05-01T08:40:25.999Z</time></trkpt><trkpt lat="39.30693790948506" lon="-3.6555031730809215"><ele>867.0</ele><time>2026-05-01T08:40:26.999Z</time></trkpt><trkpt lat="39.306868632074725" lon="-3.6555793483339896"><ele>867.0</ele><time>2026-05-01T08:40:27.999Z</time></trkpt><trkpt lat="39.306797666210265" lon="-3.6556553166687196"><ele>867.0</ele><time>2026-05-01T08:40:28.999Z</time></trkpt><trkpt lat="39.30673353740517" lon="-3.6557305940715072"><ele>867.0</ele><time>2026-05-01T08:40:29.999Z</time></trkpt><trkpt lat="39.30667095185417" lon="-3.6558088692688755"><ele>867.0</ele><time>2026-05-01T08:40:30.999Z</time></trkpt><trkpt lat="39.30660843147046" lon="-3.6558988193932755"><ele>867.0</ele><time>2026-05-01T08:40:31.999Z</time></trkpt><trkpt lat="39.306554916074944" lon="-3.655978621759218"><ele>867.0</ele><time>2026-05-01T08:40:32.999Z</time></trkpt><trkpt lat="39.30649401912313" lon="-3.656055730468262"><ele>867.0</ele><time>2026-05-01T08:40:33.999Z</time></trkpt><trkpt lat="39.30646433468614" lon="-3.656135788144334"><ele>867.0</ele><time>2026-05-01T08:40:34.998Z</time></trkpt><trkpt lat="39.30642949781049" lon="-3.6562080801480175"><ele>867.0</ele><time>2026-05-01T08:40:35.998Z</time></trkpt><trkpt lat="39.30639234427672" lon="-3.656289765079043"><ele>867.0</ele><time>2026-05-01T08:40:36.998Z</time></trkpt><trkpt lat="39.30635630653024" lon="-3.6563801339733457"><ele>868.2</ele><time>2026-05-01T08:40:37.998Z</time></trkpt><trkpt lat="39.30631495511507" lon="-3.6564925270062725"><ele>869.4000000000001</ele><time>2026-05-01T08:40:38.998Z</time></trkpt><trkpt lat="39.30629016415189" lon="-3.6565796815857183"><ele>870.5999999999999</ele><time>2026-05-01T08:40:39.998Z</time></trkpt><trkpt lat="39.3062423346931" lon="-3.656742155754203"><ele>871.8</ele><time>2026-05-01T08:40:41.998Z</time></trkpt><trkpt lat="39.30621758084487" lon="-3.656846444843949"><ele>873.0</ele><time>2026-05-01T08:40:42.998Z</time></trkpt><trkpt lat="39.30619282540106" lon="-3.6569460252213717"><ele>872.3333333333334</ele><time>2026-05-01T08:40:43.998Z</time></trkpt><trkpt lat="39.30617370840414" lon="-3.6570476905049176"><ele>871.6666666666667</ele><time>2026-05-01T08:40:44.998Z</time></trkpt><trkpt lat="39.306150128780175" lon="-3.6571624237631406"><ele>871.0</ele><time>2026-05-01T08:40:46Z</time></trkpt><trkpt lat="39.3061397958752" lon="-3.6572639912627682"><ele>870.3333333333334</ele><time>2026-05-01T08:40:47Z</time></trkpt><trkpt lat="39.30613593614054" lon="-3.6573677187434814"><ele>869.6666666666667</ele><time>2026-05-01T08:40:48Z</time></trkpt><trkpt lat="39.30612948223506" lon="-3.657463175947001"><ele>869.0</ele><time>2026-05-01T08:40:49Z</time></trkpt><trkpt lat="39.30612068554675" lon="-3.657570441545198"><ele>869.0000000000001</ele><time>2026-05-01T08:40:50Z</time></trkpt><trkpt lat="39.30611160578277" lon="-3.6576800165642256"><ele>869.0</ele><time>2026-05-01T08:40:51Z</time></trkpt><trkpt lat="39.306103463263405" lon="-3.657787581517015"><ele>869.0</ele><time>2026-05-01T08:40:52Z</time></trkpt><trkpt lat="39.30609535257666" lon="-3.6578898293999864"><ele>869.0</ele><time>2026-05-01T08:40:53Z</time></trkpt><trkpt lat="39.30609116788182" lon="-3.6579949508042744"><ele>869.0000000000001</ele><time>2026-05-01T08:40:54Z</time></trkpt><trkpt lat="39.306090854511986" lon="-3.6581027701504256"><ele>869.0</ele><time>2026-05-01T08:40:55Z</time></trkpt><trkpt lat="39.30609754464096" lon="-3.6582011268298036"><ele>869.1428571428572</ele><time>2026-05-01T08:40:56Z</time></trkpt><trkpt lat="39.30611614510394" lon="-3.6582966298728947"><ele>869.2857142857142</ele><time>2026-05-01T08:40:57Z</time></trkpt><trkpt lat="39.30614440637832" lon="-3.658385565889323"><ele>869.4285714285714</ele><time>2026-05-01T08:40:58Z</time></trkpt><trkpt lat="39.30617624969422" lon="-3.6584594152550842"><ele>869.5714285714287</ele><time>2026-05-01T08:40:59Z</time></trkpt><trkpt lat="39.30620334846635" lon="-3.6585419070070326"><ele>869.7142857142858</ele><time>2026-05-01T08:41:01Z</time></trkpt><trkpt lat="39.30623196442568" lon="-3.658631640642988"><ele>869.8571428571429</ele><time>2026-05-01T08:41:03Z</time></trkpt><trkpt lat="39.306258129986674" lon="-3.6587314307082694"><ele>870.0</ele><time>2026-05-01T08:41:04Z</time></trkpt><trkpt lat="39.30628557522375" lon="-3.6588415218717336"><ele>870.0</ele><time>2026-05-01T08:41:05Z</time></trkpt><trkpt lat="39.3063022965906" lon="-3.658939846284541"><ele>870.0</ele><time>2026-05-01T08:41:06Z</time></trkpt><trkpt lat="39.30632097292842" lon="-3.6590356633290115"><ele>870.0</ele><time>2026-05-01T08:41:07Z</time></trkpt><trkpt lat="39.306341295445385" lon="-3.6591154893898894"><ele>870.0</ele><time>2026-05-01T08:41:08Z</time></trkpt><trkpt lat="39.30636963884026" lon="-3.6592058371908402"><ele>870.0</ele><time>2026-05-01T08:41:09Z</time></trkpt><trkpt lat="39.30639461927881" lon="-3.6592986287504274"><ele>870.0</ele><time>2026-05-01T08:41:10Z</time></trkpt><trkpt lat="39.30642240760829" lon="-3.6594564235049396"><ele>867.8</ele><time>2026-05-01T08:41:12Z</time></trkpt><trkpt lat="39.306438571218806" lon="-3.659540095162388"><ele>865.6</ele><time>2026-05-01T08:41:13Z</time></trkpt><trkpt lat="39.306452028813695" lon="-3.6597101883073915"><ele>863.4000000000001</ele><time>2026-05-01T08:41:15Z</time></trkpt><trkpt lat="39.30644812267957" lon="-3.659813598318908"><ele>861.2</ele><time>2026-05-01T08:41:16Z</time></trkpt><trkpt lat="39.30644119049075" lon="-3.6599268251966324"><ele>859.0</ele><time>2026-05-01T08:41:17Z</time></trkpt><trkpt lat="39.30642969744568" lon="-3.6600643439748293"><ele>859.0</ele><time>2026-05-01T08:41:18Z</time></trkpt><trkpt lat="39.306411602082804" lon="-3.6602466133475815"><ele>859.0</ele><time>2026-05-01T08:41:19Z</time></trkpt><trkpt lat="39.30640355806219" lon="-3.6604054977840152"><ele>859.0</ele><time>2026-05-01T08:41:20Z</time></trkpt><trkpt lat="39.30639401682802" lon="-3.660576349819586"><ele>859.0</ele><time>2026-05-01T08:41:21Z</time></trkpt><trkpt lat="39.30638800436164" lon="-3.660725503225847"><ele>859.4999999999999</ele><time>2026-05-01T08:41:22Z</time></trkpt><trkpt lat="39.306385224056314" lon="-3.6608514965531294"><ele>860.0</ele><time>2026-05-01T08:41:23Z</time></trkpt><trkpt lat="39.306375500597966" lon="-3.66094747777623"><ele>860.5</ele><time>2026-05-01T08:41:24Z</time></trkpt><trkpt lat="39.30631428006808" lon="-3.6610736584988284"><ele>861.0</ele><time>2026-05-01T08:41:26Z</time></trkpt><trkpt lat="39.3062859170083" lon="-3.6611504303196374"><ele>861.4999999999999</ele><time>2026-05-01T08:41:27Z</time></trkpt><trkpt lat="39.306225947063034" lon="-3.661242080150198"><ele>862.0</ele><time>2026-05-01T08:41:29Z</time></trkpt><trkpt lat="39.30620067066918" lon="-3.6613628451335196"><ele>862.0</ele><time>2026-05-01T08:41:31Z</time></trkpt><trkpt lat="39.30626012211988" lon="-3.6615032112476382"><ele>862.0</ele><time>2026-05-01T08:41:32.999Z</time></trkpt><trkpt lat="39.30630962331693" lon="-3.6616116687995337"><ele>862.0</ele><time>2026-05-01T08:41:34.999Z</time></trkpt><trkpt lat="39.30632802834032" lon="-3.661724507200803"><ele>862.0</ele><time>2026-05-01T08:41:35.999Z</time></trkpt><trkpt lat="39.30633190396201" lon="-3.6618448325632764"><ele>862.0</ele><time>2026-05-01T08:41:36.999Z</time></trkpt><trkpt lat="39.306339943834885" lon="-3.6619892868382267"><ele>862.1666666666666</ele><time>2026-05-01T08:41:37.999Z</time></trkpt><trkpt lat="39.30635318626856" lon="-3.6621325633842066"><ele>862.3333333333333</ele><time>2026-05-01T08:41:38.999Z</time></trkpt><trkpt lat="39.30636536363703" lon="-3.6622335373314163"><ele>862.5</ele><time>2026-05-01T08:41:39.999Z</time></trkpt><trkpt lat="39.30637466047516" lon="-3.662323222792805"><ele>862.6666666666667</ele><time>2026-05-01T08:41:40.999Z</time></trkpt><trkpt lat="39.30638508179282" lon="-3.6624413664727946"><ele>862.8333333333334</ele><time>2026-05-01T08:41:41.999Z</time></trkpt><trkpt lat="39.30638849012572" lon="-3.6625241687981696"><ele>863.0</ele><time>2026-05-01T08:41:42.999Z</time></trkpt><trkpt lat="39.30638018064855" lon="-3.6626171342416787"><ele>863.0000000000001</ele><time>2026-05-01T08:41:43.999Z</time></trkpt><trkpt lat="39.30636640737589" lon="-3.6627224826955156"><ele>863.0</ele><time>2026-05-01T08:41:44.999Z</time></trkpt><trkpt lat="39.30634521396582" lon="-3.662830922195311"><ele>863.0</ele><time>2026-05-01T08:41:45.999Z</time></trkpt><trkpt lat="39.306321904195094" lon="-3.6629358470221276"><ele>863.0</ele><time>2026-05-01T08:41:46.999Z</time></trkpt><trkpt lat="39.30628563507102" lon="-3.6630370021325356"><ele>863.0000000000001</ele><time>2026-05-01T08:41:47.999Z</time></trkpt><trkpt lat="39.30623719118765" lon="-3.663137154172658"><ele>863.0</ele><time>2026-05-01T08:41:48.999Z</time></trkpt><trkpt lat="39.306182385067366" lon="-3.663235217771358"><ele>861.4</ele><time>2026-05-01T08:41:49.999Z</time></trkpt><trkpt lat="39.30611432749792" lon="-3.6633446590418104"><ele>859.8</ele><time>2026-05-01T08:41:50.999Z</time></trkpt><trkpt lat="39.30603889909099" lon="-3.6634491128955404"><ele>858.2</ele><time>2026-05-01T08:41:51.999Z</time></trkpt><trkpt lat="39.30596558538162" lon="-3.663550760307693"><ele>856.6</ele><time>2026-05-01T08:41:52.999Z</time></trkpt><trkpt lat="39.305909761767275" lon="-3.663638894415443"><ele>855.0</ele><time>2026-05-01T08:41:53.999Z</time></trkpt><trkpt lat="39.305847074477875" lon="-3.6637417553697578"><ele>855.0</ele><time>2026-05-01T08:41:54.999Z</time></trkpt><trkpt lat="39.30578087882782" lon="-3.66384775235665"><ele>855.0</ele><time>2026-05-01T08:41:55.999Z</time></trkpt><trkpt lat="39.30572767575757" lon="-3.66392800293743"><ele>855.0</ele><time>2026-05-01T08:41:56.999Z</time></trkpt><trkpt lat="39.30568611698777" lon="-3.66399526554203"><ele>855.0</ele><time>2026-05-01T08:41:57.999Z</time></trkpt><trkpt lat="39.30563161137862" lon="-3.664079616509238"><ele>855.0</ele><time>2026-05-01T08:41:58.999Z</time></trkpt><trkpt lat="39.305582074488996" lon="-3.6641598858912565"><ele>855.0</ele><time>2026-05-01T08:41:59.999Z</time></trkpt><trkpt lat="39.305540467802544" lon="-3.6642337441086004"><ele>855.0</ele><time>2026-05-01T08:42:00.999Z</time></trkpt><trkpt lat="39.305494816715935" lon="-3.6643052894759047"><ele>855.0</ele><time>2026-05-01T08:42:01.999Z</time></trkpt><trkpt lat="39.30544686647963" lon="-3.664381198841346"><ele>855.0</ele><time>2026-05-01T08:42:02.999Z</time></trkpt><trkpt lat="39.305402856722544" lon="-3.664453509888945"><ele>855.0</ele><time>2026-05-01T08:42:03.999Z</time></trkpt><trkpt lat="39.30535326022496" lon="-3.664529595944915"><ele>855.0</ele><time>2026-05-01T08:42:04.999Z</time></trkpt><trkpt lat="39.305311574694876" lon="-3.664599559684483"><ele>855.0</ele><time>2026-05-01T08:42:05.999Z</time></trkpt><trkpt lat="39.30527786455709" lon="-3.6646795708870408"><ele>855.0</ele><time>2026-05-01T08:42:06.999Z</time></trkpt><trkpt lat="39.30523746011306" lon="-3.664777110169191"><ele>853.6</ele><time>2026-05-01T08:42:07.999Z</time></trkpt><trkpt lat="39.30521548651685" lon="-3.664867852764706"><ele>852.2</ele><time>2026-05-01T08:42:08.999Z</time></trkpt><trkpt lat="39.305185686441725" lon="-3.664975404957544"><ele>850.8</ele><time>2026-05-01T08:42:09.999Z</time></trkpt><trkpt lat="39.305158230650484" lon="-3.6650906047066076"><ele>849.4</ele><time>2026-05-01T08:42:10.999Z</time></trkpt><trkpt lat="39.305135306184525" lon="-3.665207160190998"><ele>848.0</ele><time>2026-05-01T08:42:11.999Z</time></trkpt><trkpt lat="39.30511248038588" lon="-3.665339603721901"><ele>847.6666666666667</ele><time>2026-05-01T08:42:12.999Z</time></trkpt><trkpt lat="39.30509916512769" lon="-3.6654318911773687"><ele>847.3333333333334</ele><time>2026-05-01T08:42:13.999Z</time></trkpt><trkpt lat="39.30508556424847" lon="-3.665550057998095"><ele>847.0</ele><time>2026-05-01T08:42:14.999Z</time></trkpt><trkpt lat="39.30507522215802" lon="-3.6656624348494096"><ele>846.6666666666667</ele><time>2026-05-01T08:42:15.999Z</time></trkpt><trkpt lat="39.30506615439358" lon="-3.6657849992892912"><ele>846.3333333333334</ele><time>2026-05-01T08:42:16.999Z</time></trkpt><trkpt lat="39.305059535193465" lon="-3.6659152761074565"><ele>846.0</ele><time>2026-05-01T08:42:17.999Z</time></trkpt><trkpt lat="39.30505916129511" lon="-3.666048986683826"><ele>845.5999999999999</ele><time>2026-05-01T08:42:18.999Z</time></trkpt><trkpt lat="39.30505599890301" lon="-3.6661751172738444"><ele>845.2</ele><time>2026-05-01T08:42:19.999Z</time></trkpt><trkpt lat="39.305050084577374" lon="-3.666332504488013"><ele>844.8</ele><time>2026-05-01T08:42:20.999Z</time></trkpt><trkpt lat="39.305047494696844" lon="-3.6664736681514793"><ele>844.4000000000001</ele><time>2026-05-01T08:42:21.999Z</time></trkpt><trkpt lat="39.30504127820169" lon="-3.6666119567161974"><ele>844.0</ele><time>2026-05-01T08:42:22.999Z</time></trkpt><trkpt lat="39.30503022238603" lon="-3.666762341776714"><ele>844.0</ele><time>2026-05-01T08:42:23.999Z</time></trkpt><trkpt lat="39.3050194617466" lon="-3.66691311841719"><ele>844.0</ele><time>2026-05-01T08:42:24.999Z</time></trkpt><trkpt lat="39.30501674245253" lon="-3.667052314295924"><ele>844.0</ele><time>2026-05-01T08:42:25.999Z</time></trkpt><trkpt lat="39.30499573154636" lon="-3.667182108042752"><ele>844.0</ele><time>2026-05-01T08:42:26.999Z</time></trkpt><trkpt lat="39.30498131841612" lon="-3.667325881047708"><ele>844.0</ele><time>2026-05-01T08:42:27.999Z</time></trkpt><trkpt lat="39.304961721688855" lon="-3.6674815682170663"><ele>843.2</ele><time>2026-05-01T08:42:28.999Z</time></trkpt><trkpt lat="39.30494027535893" lon="-3.667621652673355"><ele>842.4000000000001</ele><time>2026-05-01T08:42:29.999Z</time></trkpt><trkpt lat="39.30491194029509" lon="-3.667783529452524"><ele>841.6</ele><time>2026-05-01T08:42:30.999Z</time></trkpt><trkpt lat="39.30488572833641" lon="-3.6679032662983233"><ele>840.8</ele><time>2026-05-01T08:42:31.999Z</time></trkpt><trkpt lat="39.304864968180944" lon="-3.6680256339612693"><ele>840.0</ele><time>2026-05-01T08:42:32.999Z</time></trkpt><trkpt lat="39.30484115619494" lon="-3.6681662964549466"><ele>839.8333333333334</ele><time>2026-05-01T08:42:33.999Z</time></trkpt><trkpt lat="39.30482207892071" lon="-3.668279206096737"><ele>839.6666666666667</ele><time>2026-05-01T08:42:34.999Z</time></trkpt><trkpt lat="39.30480412372503" lon="-3.668378241532467"><ele>839.5</ele><time>2026-05-01T08:42:35.999Z</time></trkpt><trkpt lat="39.304785427009925" lon="-3.6684774727679557"><ele>839.3333333333334</ele><time>2026-05-01T08:42:36.999Z</time></trkpt><trkpt lat="39.30476686289255" lon="-3.668603597771845"><ele>839.1666666666667</ele><time>2026-05-01T08:42:37.999Z</time></trkpt><trkpt lat="39.30474658601665" lon="-3.668714178582352"><ele>839.0</ele><time>2026-05-01T08:42:38.999Z</time></trkpt><trkpt lat="39.304731406317394" lon="-3.6688144761705357"><ele>839.6</ele><time>2026-05-01T08:42:39.998Z</time></trkpt><trkpt lat="39.30471152680251" lon="-3.668928144527847"><ele>840.2</ele><time>2026-05-01T08:42:40.998Z</time></trkpt><trkpt lat="39.304693925983756" lon="-3.669030135363253"><ele>840.8000000000001</ele><time>2026-05-01T08:42:41.998Z</time></trkpt><trkpt lat="39.30467130830799" lon="-3.66915117881843"><ele>841.4000000000001</ele><time>2026-05-01T08:42:42.998Z</time></trkpt><trkpt lat="39.30464971324038" lon="-3.669282286280202"><ele>842.0</ele><time>2026-05-01T08:42:43.998Z</time></trkpt><trkpt lat="39.304633064628824" lon="-3.66939125664069"><ele>842.0000000000001</ele><time>2026-05-01T08:42:44.998Z</time></trkpt><trkpt lat="39.30461777042101" lon="-3.6694903928182128"><ele>842.0</ele><time>2026-05-01T08:42:45.998Z</time></trkpt><trkpt lat="39.30461254388411" lon="-3.669590810400573"><ele>842.0</ele><time>2026-05-01T08:42:46.998Z</time></trkpt><trkpt lat="39.304620221783026" lon="-3.669699505345348"><ele>842.0</ele><time>2026-05-01T08:42:47.998Z</time></trkpt><trkpt lat="39.30463749638926" lon="-3.669802513685222"><ele>842.0000000000001</ele><time>2026-05-01T08:42:48.998Z</time></trkpt><trkpt lat="39.304657075886404" lon="-3.6699170159311283"><ele>842.0</ele><time>2026-05-01T08:42:49.998Z</time></trkpt><trkpt lat="39.304683293153786" lon="-3.670037256513777"><ele>842.0</ele><time>2026-05-01T08:42:50.998Z</time></trkpt><trkpt lat="39.30471172152043" lon="-3.6701638137168255"><ele>842.0</ele><time>2026-05-01T08:42:52Z</time></trkpt><trkpt lat="39.30473473588411" lon="-3.670289656399303"><ele>842.0</ele><time>2026-05-01T08:42:53Z</time></trkpt><trkpt lat="39.304762307858375" lon="-3.670418750951313"><ele>842.0</ele><time>2026-05-01T08:42:54Z</time></trkpt><trkpt lat="39.304782746896954" lon="-3.6705444196546075"><ele>842.0</ele><time>2026-05-01T08:42:55Z</time></trkpt><trkpt lat="39.30481088156421" lon="-3.6706840493078357"><ele>840.4000000000001</ele><time>2026-05-01T08:42:56Z</time></trkpt><trkpt lat="39.30483911213622" lon="-3.670828453485692"><ele>838.8000000000001</ele><time>2026-05-01T08:42:57Z</time></trkpt><trkpt lat="39.304864228697646" lon="-3.6709582280236392"><ele>837.2</ele><time>2026-05-01T08:42:58Z</time></trkpt><trkpt lat="39.30488500884129" lon="-3.6710688515887004"><ele>835.6</ele><time>2026-05-01T08:42:59Z</time></trkpt><trkpt lat="39.30491305235184" lon="-3.6711934865273936"><ele>834.0</ele><time>2026-05-01T08:43:00Z</time></trkpt><trkpt lat="39.304933991701226" lon="-3.6713108377031696"><ele>833.6</ele><time>2026-05-01T08:43:01Z</time></trkpt><trkpt lat="39.304958552481395" lon="-3.6714425026770123"><ele>833.2</ele><time>2026-05-01T08:43:02Z</time></trkpt><trkpt lat="39.30498908360837" lon="-3.671586693725074"><ele>832.8000000000001</ele><time>2026-05-01T08:43:03Z</time></trkpt><trkpt lat="39.30501595023337" lon="-3.6717217055749654"><ele>832.4000000000001</ele><time>2026-05-01T08:43:04Z</time></trkpt><trkpt lat="39.30503852645624" lon="-3.671854357111977"><ele>832.0</ele><time>2026-05-01T08:43:05Z</time></trkpt><trkpt lat="39.30505534171907" lon="-3.671968416568071"><ele>832.6666666666666</ele><time>2026-05-01T08:43:06Z</time></trkpt><trkpt lat="39.30507100781633" lon="-3.6720745764765326"><ele>833.3333333333333</ele><time>2026-05-01T08:43:07Z</time></trkpt><trkpt lat="39.30508266432204" lon="-3.672181055536952"><ele>834.0</ele><time>2026-05-01T08:43:08Z</time></trkpt><trkpt lat="39.3051025376144" lon="-3.6723347071647936"><ele>834.6666666666667</ele><time>2026-05-01T08:43:09Z</time></trkpt><trkpt lat="39.30511679668538" lon="-3.672423668921384"><ele>835.3333333333334</ele><time>2026-05-01T08:43:10Z</time></trkpt><trkpt lat="39.30513152533051" lon="-3.6725322199047232"><ele>836.0</ele><time>2026-05-01T08:43:11Z</time></trkpt><trkpt lat="39.30513914702498" lon="-3.672621832036358"><ele>836.0000000000001</ele><time>2026-05-01T08:43:12Z</time></trkpt><trkpt lat="39.3051432773572" lon="-3.6727142024172625"><ele>836.0</ele><time>2026-05-01T08:43:13Z</time></trkpt><trkpt lat="39.30513892727361" lon="-3.6728030119487123"><ele>836.0</ele><time>2026-05-01T08:43:14Z</time></trkpt><trkpt lat="39.305137251080026" lon="-3.6729199191296344"><ele>836.0</ele><time>2026-05-01T08:43:15Z</time></trkpt><trkpt lat="39.30512704991027" lon="-3.673039128849709"><ele>836.0000000000001</ele><time>2026-05-01T08:43:16Z</time></trkpt><trkpt lat="39.30512638073143" lon="-3.6731536727673695"><ele>836.0</ele><time>2026-05-01T08:43:17Z</time></trkpt><trkpt lat="39.30512206317721" lon="-3.6732621529169687"><ele>835.1999999999999</ele><time>2026-05-01T08:43:18Z</time></trkpt><trkpt lat="39.305121560171706" lon="-3.6733849246855383"><ele>834.4</ele><time>2026-05-01T08:43:19Z</time></trkpt><trkpt lat="39.305114472049056" lon="-3.673512103323048"><ele>833.6</ele><time>2026-05-01T08:43:20Z</time></trkpt><trkpt lat="39.30511013071581" lon="-3.6736220920518745"><ele>832.8</ele><time>2026-05-01T08:43:21Z</time></trkpt><trkpt lat="39.30510367945793" lon="-3.673732905607496"><ele>832.0</ele><time>2026-05-01T08:43:22Z</time></trkpt><trkpt lat="39.3050926168077" lon="-3.6738452519896376"><ele>832.0</ele><time>2026-05-01T08:43:23Z</time></trkpt><trkpt lat="39.30508018885396" lon="-3.673967066393869"><ele>832.0</ele><time>2026-05-01T08:43:24Z</time></trkpt><trkpt lat="39.3050707370374" lon="-3.674090351610685"><ele>832.0</ele><time>2026-05-01T08:43:25Z</time></trkpt><trkpt lat="39.30506127478175" lon="-3.6742290072551644"><ele>832.0</ele><time>2026-05-01T08:43:26Z</time></trkpt><trkpt lat="39.30504756872259" lon="-3.674368335228162"><ele>832.0</ele><time>2026-05-01T08:43:27Z</time></trkpt><trkpt lat="39.305033614527325" lon="-3.674506139535216"><ele>832.0</ele><time>2026-05-01T08:43:28Z</time></trkpt><trkpt lat="39.30501905575497" lon="-3.6746310072301234"><ele>832.0</ele><time>2026-05-01T08:43:29Z</time></trkpt><trkpt lat="39.30500279994823" lon="-3.6747597839514827"><ele>832.0</ele><time>2026-05-01T08:43:30Z</time></trkpt><trkpt lat="39.30498847554748" lon="-3.674887797786655"><ele>832.0</ele><time>2026-05-01T08:43:31Z</time></trkpt><trkpt lat="39.30497408231411" lon="-3.675041716332761"><ele>832.0</ele><time>2026-05-01T08:43:32Z</time></trkpt><trkpt lat="39.30495535429972" lon="-3.6752068789934116"><ele>831.4000000000001</ele><time>2026-05-01T08:43:33Z</time></trkpt><trkpt lat="39.304947166775456" lon="-3.6753405357364244"><ele>830.8000000000001</ele><time>2026-05-01T08:43:34Z</time></trkpt><trkpt lat="39.3049403268716" lon="-3.6754537635488767"><ele>830.2</ele><time>2026-05-01T08:43:34.999Z</time></trkpt><trkpt lat="39.304921682181316" lon="-3.675585981145171"><ele>829.6</ele><time>2026-05-01T08:43:35.999Z</time></trkpt><trkpt lat="39.30491437974977" lon="-3.675723010977165"><ele>829.0</ele><time>2026-05-01T08:43:36.999Z</time></trkpt><trkpt lat="39.304907691380514" lon="-3.675870661546504"><ele>829.0</ele><time>2026-05-01T08:43:37.999Z</time></trkpt><trkpt lat="39.304908017287474" lon="-3.6759891153590725"><ele>829.0</ele><time>2026-05-01T08:43:38.999Z</time></trkpt><trkpt lat="39.304900668682635" lon="-3.676141074975929"><ele>829.0</ele><time>2026-05-01T08:43:39.999Z</time></trkpt><trkpt lat="39.304888832350585" lon="-3.676317798561672"><ele>829.0</ele><time>2026-05-01T08:43:40.999Z</time></trkpt><trkpt lat="39.3048892549147" lon="-3.676428788538376"><ele>829.0</ele><time>2026-05-01T08:43:41.999Z</time></trkpt><trkpt lat="39.304882827741594" lon="-3.676591338491445"><ele>829.0</ele><time>2026-05-01T08:43:42.999Z</time></trkpt><trkpt lat="39.30488116884129" lon="-3.6766976696133504"><ele>829.0</ele><time>2026-05-01T08:43:43.999Z</time></trkpt><trkpt lat="39.30487296148952" lon="-3.6768281339352233"><ele>829.0</ele><time>2026-05-01T08:43:44.999Z</time></trkpt><trkpt lat="39.30486235558925" lon="-3.6769783589683405"><ele>829.0</ele><time>2026-05-01T08:43:45.999Z</time></trkpt><trkpt lat="39.30486059891378" lon="-3.677119904470107"><ele>829.0</ele><time>2026-05-01T08:43:46.999Z</time></trkpt><trkpt lat="39.30485673077071" lon="-3.677235470737227"><ele>829.0</ele><time>2026-05-01T08:43:47.999Z</time></trkpt><trkpt lat="39.304848855882824" lon="-3.677375917336094"><ele>829.0</ele><time>2026-05-01T08:43:48.999Z</time></trkpt><trkpt lat="39.3048435265174" lon="-3.6775183190748453"><ele>829.0</ele><time>2026-05-01T08:43:49.999Z</time></trkpt><trkpt lat="39.304840261680546" lon="-3.677618809347939"><ele>829.0</ele><time>2026-05-01T08:43:50.999Z</time></trkpt><trkpt lat="39.30483032043405" lon="-3.6777461032441976"><ele>829.0</ele><time>2026-05-01T08:43:51.999Z</time></trkpt><trkpt lat="39.304825157720565" lon="-3.6778684373379393"><ele>829.6</ele><time>2026-05-01T08:43:52.999Z</time></trkpt><trkpt lat="39.30482628833894" lon="-3.6780015858437523"><ele>830.2</ele><time>2026-05-01T08:43:53.999Z</time></trkpt><trkpt lat="39.3048347466401" lon="-3.6781131412980583"><ele>830.8000000000001</ele><time>2026-05-01T08:43:54.999Z</time></trkpt><trkpt lat="39.30485309285319" lon="-3.678222356567836"><ele>831.4000000000001</ele><time>2026-05-01T08:43:55.999Z</time></trkpt><trkpt lat="39.30487577267407" lon="-3.6783294974961156"><ele>832.0</ele><time>2026-05-01T08:43:56.999Z</time></trkpt><trkpt lat="39.30489546276612" lon="-3.6784507248441414"><ele>832.0</ele><time>2026-05-01T08:43:57.999Z</time></trkpt><trkpt lat="39.30490905332256" lon="-3.6785828736106283"><ele>832.0</ele><time>2026-05-01T08:43:58.999Z</time></trkpt><trkpt lat="39.30491282600727" lon="-3.6787190076655447"><ele>832.0</ele><time>2026-05-01T08:43:59.999Z</time></trkpt><trkpt lat="39.304908409602334" lon="-3.6788514436884485"><ele>832.0</ele><time>2026-05-01T08:44:00.999Z</time></trkpt><trkpt lat="39.30489583824959" lon="-3.6789765471430647"><ele>832.0</ele><time>2026-05-01T08:44:01.999Z</time></trkpt><trkpt lat="39.30486796909041" lon="-3.6790977932003766"><ele>830.8</ele><time>2026-05-01T08:44:02.999Z</time></trkpt><trkpt lat="39.304830906271775" lon="-3.679223812724099"><ele>829.6</ele><time>2026-05-01T08:44:03.999Z</time></trkpt><trkpt lat="39.30478231676494" lon="-3.6793361687447805"><ele>828.4</ele><time>2026-05-01T08:44:04.999Z</time></trkpt><trkpt lat="39.304716243877614" lon="-3.6794717120935228"><ele>827.1999999999999</ele><time>2026-05-01T08:44:05.999Z</time></trkpt><trkpt lat="39.30464778141531" lon="-3.679572780927787"><ele>826.0</ele><time>2026-05-01T08:44:06.999Z</time></trkpt><trkpt lat="39.30454502983282" lon="-3.679700549122491"><ele>826.0</ele><time>2026-05-01T08:44:07.999Z</time></trkpt><trkpt lat="39.30445458611503" lon="-3.6798045639054093"><ele>826.0</ele><time>2026-05-01T08:44:08.999Z</time></trkpt><trkpt lat="39.30436462707901" lon="-3.679910028204207"><ele>826.0</ele><time>2026-05-01T08:44:09.999Z</time></trkpt><trkpt lat="39.30427648778904" lon="-3.6800130865206273"><ele>826.0</ele><time>2026-05-01T08:44:10.999Z</time></trkpt><trkpt lat="39.30420810053769" lon="-3.6801014548261746"><ele>826.0</ele><time>2026-05-01T08:44:11.999Z</time></trkpt><trkpt lat="39.3041563002983" lon="-3.6801980638580263"><ele>826.0</ele><time>2026-05-01T08:44:12.999Z</time></trkpt><trkpt lat="39.30411312240945" lon="-3.6803058123980716"><ele>826.0</ele><time>2026-05-01T08:44:13.999Z</time></trkpt><trkpt lat="39.30407940504135" lon="-3.6804291067014283"><ele>826.0</ele><time>2026-05-01T08:44:14.999Z</time></trkpt><trkpt lat="39.304052936865354" lon="-3.6805667502460637"><ele>826.0</ele><time>2026-05-01T08:44:15.999Z</time></trkpt><trkpt lat="39.30403191963374" lon="-3.68069861273329"><ele>825.1999999999999</ele><time>2026-05-01T08:44:16.999Z</time></trkpt><trkpt lat="39.30401293092512" lon="-3.680834582194202"><ele>824.4</ele><time>2026-05-01T08:44:17.999Z</time></trkpt><trkpt lat="39.30398242657155" lon="-3.6809796055405637"><ele>823.6</ele><time>2026-05-01T08:44:18.999Z</time></trkpt><trkpt lat="39.30395683408504" lon="-3.681114097553516"><ele>822.8</ele><time>2026-05-01T08:44:19.999Z</time></trkpt><trkpt lat="39.30393719005743" lon="-3.6812219760968854"><ele>822.0</ele><time>2026-05-01T08:44:20.999Z</time></trkpt><trkpt lat="39.30391748787505" lon="-3.681311071192532"><ele>821.6666666666666</ele><time>2026-05-01T08:44:21.999Z</time></trkpt><trkpt lat="39.30389587745254" lon="-3.681405713346283"><ele>821.3333333333333</ele><time>2026-05-01T08:44:22.999Z</time></trkpt><trkpt lat="39.30387169240627" lon="-3.681509405069468"><ele>821.0</ele><time>2026-05-01T08:44:23.999Z</time></trkpt><trkpt lat="39.30384365999236" lon="-3.681638102383267"><ele>820.6666666666666</ele><time>2026-05-01T08:44:25.999Z</time></trkpt><trkpt lat="39.30381040437779" lon="-3.6817761385409766"><ele>820.3333333333333</ele><time>2026-05-01T08:44:27.999Z</time></trkpt><trkpt lat="39.303785268559906" lon="-3.681855828261858"><ele>820.0</ele><time>2026-05-01T08:44:28.999Z</time></trkpt><trkpt lat="39.30376476953638" lon="-3.6819437208185644"><ele>819.9999999999999</ele><time>2026-05-01T08:44:29.999Z</time></trkpt><trkpt lat="39.30374230631086" lon="-3.6820328595115726"><ele>820.0</ele><time>2026-05-01T08:44:30.999Z</time></trkpt><trkpt lat="39.3037139944417" lon="-3.682125156258788"><ele>820.0</ele><time>2026-05-01T08:44:31.999Z</time></trkpt><trkpt lat="39.30368831104296" lon="-3.682221946497101"><ele>820.0</ele><time>2026-05-01T08:44:32.999Z</time></trkpt><trkpt lat="39.30366778050976" lon="-3.6823315995050376"><ele>819.9999999999999</ele><time>2026-05-01T08:44:33.999Z</time></trkpt><trkpt lat="39.30364124088292" lon="-3.6824161293432667"><ele>820.0</ele><time>2026-05-01T08:44:34.999Z</time></trkpt><trkpt lat="39.3036044200446" lon="-3.6825100840336553"><ele>820.0</ele><time>2026-05-01T08:44:35.999Z</time></trkpt><trkpt lat="39.30356594740323" lon="-3.682626923486809"><ele>820.0</ele><time>2026-05-01T08:44:36.999Z</time></trkpt><trkpt lat="39.30352796349321" lon="-3.682750660499285"><ele>820.0</ele><time>2026-05-01T08:44:37.999Z</time></trkpt><trkpt lat="39.3035017259445" lon="-3.682858920145315"><ele>820.0</ele><time>2026-05-01T08:44:38.999Z</time></trkpt><trkpt lat="39.30348411197609" lon="-3.6829499471050227"><ele>820.0</ele><time>2026-05-01T08:44:39.999Z</time></trkpt><trkpt lat="39.303447610344094" lon="-3.6830758391344487"><ele>819.8333333333333</ele><time>2026-05-01T08:44:40.999Z</time></trkpt><trkpt lat="39.30340224473126" lon="-3.683195855860157"><ele>819.6666666666666</ele><time>2026-05-01T08:44:41.999Z</time></trkpt><trkpt lat="39.3033729069952" lon="-3.6832975141498543"><ele>819.5</ele><time>2026-05-01T08:44:42.999Z</time></trkpt><trkpt lat="39.303343158509946" lon="-3.683403339527862"><ele>819.3333333333333</ele><time>2026-05-01T08:44:43.999Z</time></trkpt><trkpt lat="39.30331816740552" lon="-3.6834922204986897"><ele>819.1666666666666</ele><time>2026-05-01T08:44:44.998Z</time></trkpt><trkpt lat="39.3032984534078" lon="-3.6835837242744054"><ele>819.0</ele><time>2026-05-01T08:44:45.998Z</time></trkpt><trkpt lat="39.30327355526228" lon="-3.6836972957787997"><ele>818.4000000000001</ele><time>2026-05-01T08:44:46.998Z</time></trkpt><trkpt lat="39.30325413467897" lon="-3.6838030968164825"><ele>817.8</ele><time>2026-05-01T08:44:47.998Z</time></trkpt><trkpt lat="39.3032263414935" lon="-3.683904142337836"><ele>817.2</ele><time>2026-05-01T08:44:48.998Z</time></trkpt><trkpt lat="39.303187580568434" lon="-3.6840262518700997"><ele>816.5999999999999</ele><time>2026-05-01T08:44:49.998Z</time></trkpt><trkpt lat="39.30314133057513" lon="-3.6841488213299893"><ele>816.0</ele><time>2026-05-01T08:44:50.998Z</time></trkpt><trkpt lat="39.30309197839712" lon="-3.6842756405168924"><ele>816.5999999999999</ele><time>2026-05-01T08:44:51.998Z</time></trkpt><trkpt lat="39.30304734194825" lon="-3.684378786789948"><ele>817.2</ele><time>2026-05-01T08:44:52.998Z</time></trkpt><trkpt lat="39.30299178476281" lon="-3.6844663511519578"><ele>817.8</ele><time>2026-05-01T08:44:53.998Z</time></trkpt><trkpt lat="39.30292961555314" lon="-3.684570701885041"><ele>818.4000000000001</ele><time>2026-05-01T08:44:54.998Z</time></trkpt><trkpt lat="39.302850635567914" lon="-3.6846985667235077"><ele>819.0</ele><time>2026-05-01T08:44:55.998Z</time></trkpt><trkpt lat="39.30277604861488" lon="-3.6848092916253226"><ele>819.0</ele><time>2026-05-01T08:44:56.998Z</time></trkpt><trkpt lat="39.30270979761059" lon="-3.6849186965919682"><ele>819.0</ele><time>2026-05-01T08:44:58Z</time></trkpt><trkpt lat="39.30266004160115" lon="-3.6849946211967732"><ele>819.0</ele><time>2026-05-01T08:44:59Z</time></trkpt><trkpt lat="39.302594103141274" lon="-3.685101154750718"><ele>819.0</ele><time>2026-05-01T08:45:00Z</time></trkpt><trkpt lat="39.30252816330164" lon="-3.685206241695743"><ele>819.0</ele><time>2026-05-01T08:45:01Z</time></trkpt><trkpt lat="39.30245219573147" lon="-3.6853267661701583"><ele>818.3333333333334</ele><time>2026-05-01T08:45:02Z</time></trkpt><trkpt lat="39.302379443500364" lon="-3.6854281623907683"><ele>817.6666666666667</ele><time>2026-05-01T08:45:03Z</time></trkpt><trkpt lat="39.30232357963464" lon="-3.6855072067026957"><ele>817.0</ele><time>2026-05-01T08:45:04Z</time></trkpt><trkpt lat="39.302259885250905" lon="-3.6856119745145253"><ele>816.3333333333334</ele><time>2026-05-01T08:45:05Z</time></trkpt><trkpt lat="39.30220678600051" lon="-3.685691992644695"><ele>815.6666666666667</ele><time>2026-05-01T08:45:06Z</time></trkpt><trkpt lat="39.30216402913439" lon="-3.6857584470716116"><ele>815.0</ele><time>2026-05-01T08:45:07Z</time></trkpt><trkpt lat="39.302124837157045" lon="-3.6858304707012093"><ele>815.8</ele><time>2026-05-01T08:45:08Z</time></trkpt><trkpt lat="39.302086859941966" lon="-3.6859068548823877"><ele>816.6</ele><time>2026-05-01T08:45:09Z</time></trkpt><trkpt lat="39.30203505356637" lon="-3.6860440602668136"><ele>817.4000000000001</ele><time>2026-05-01T08:45:11Z</time></trkpt><trkpt lat="39.30199385050757" lon="-3.6861630707311908"><ele>818.2</ele><time>2026-05-01T08:45:13Z</time></trkpt><trkpt lat="39.30195720326213" lon="-3.686248980561651"><ele>819.0</ele><time>2026-05-01T08:45:14Z</time></trkpt><trkpt lat="39.30195540444416" lon="-3.6863947548137"><ele>819.0</ele><time>2026-05-01T08:45:16Z</time></trkpt><trkpt lat="39.30191807953681" lon="-3.686504097179212"><ele>819.0</ele><time>2026-05-01T08:45:17Z</time></trkpt><trkpt lat="39.30188823186595" lon="-3.686622916458664"><ele>819.0</ele><time>2026-05-01T08:45:18Z</time></trkpt><trkpt lat="39.301863675527244" lon="-3.6867252942816178"><ele>819.0</ele><time>2026-05-01T08:45:19Z</time></trkpt><trkpt lat="39.30184140125688" lon="-3.6868142486100886"><ele>819.0</ele><time>2026-05-01T08:45:20Z</time></trkpt><trkpt lat="39.30181606242704" lon="-3.6869144499755744"><ele>819.0</ele><time>2026-05-01T08:45:21Z</time></trkpt><trkpt lat="39.301796708736056" lon="-3.6870077544643367"><ele>818.8000000000001</ele><time>2026-05-01T08:45:22Z</time></trkpt><trkpt lat="39.30177098905864" lon="-3.6871110078104565"><ele>818.6</ele><time>2026-05-01T08:45:23Z</time></trkpt><trkpt lat="39.30173901548698" lon="-3.687218492370346"><ele>818.4</ele><time>2026-05-01T08:45:24Z</time></trkpt><trkpt lat="39.30171304826833" lon="-3.6873130696994143"><ele>818.2</ele><time>2026-05-01T08:45:25Z</time></trkpt><trkpt lat="39.301694310145365" lon="-3.6873936154636597"><ele>818.0</ele><time>2026-05-01T08:45:26Z</time></trkpt><trkpt lat="39.30165517371424" lon="-3.68756268321644"><ele>818.0000000000001</ele><time>2026-05-01T08:45:28Z</time></trkpt><trkpt lat="39.30163411167572" lon="-3.687645789991912"><ele>818.0</ele><time>2026-05-01T08:45:29Z</time></trkpt><trkpt lat="39.301610690707435" lon="-3.687770095044187"><ele>818.0</ele><time>2026-05-01T08:45:31Z</time></trkpt><trkpt lat="39.30159913703645" lon="-3.6878589926064556"><ele>818.0</ele><time>2026-05-01T08:45:33Z</time></trkpt><trkpt lat="39.301599538353436" lon="-3.687952306195477"><ele>818.0000000000001</ele><time>2026-05-01T08:45:39.999Z</time></trkpt><trkpt lat="39.301534234344665" lon="-3.6879949337138482"><ele>818.0</ele><time>2026-05-01T08:45:41.999Z</time></trkpt><trkpt lat="39.30143556315225" lon="-3.6879878774716555"><ele>819.2</ele><time>2026-05-01T08:45:42.999Z</time></trkpt><trkpt lat="39.30132196616308" lon="-3.6879687336192015"><ele>820.4</ele><time>2026-05-01T08:45:43.999Z</time></trkpt><trkpt lat="39.30121982981306" lon="-3.6879558166668005"><ele>821.6</ele><time>2026-05-01T08:45:44.999Z</time></trkpt><trkpt lat="39.301134335866365" lon="-3.6879600594527506"><ele>822.8000000000001</ele><time>2026-05-01T08:45:45.999Z</time></trkpt><trkpt lat="39.30104375203162" lon="-3.6879640113084293"><ele>824.0</ele><time>2026-05-01T08:45:46.999Z</time></trkpt><trkpt lat="39.30094988448558" lon="-3.6879634598485604"><ele>824.0</ele><time>2026-05-01T08:45:47.999Z</time></trkpt><trkpt lat="39.300859535452" lon="-3.6879657883951737"><ele>824.0</ele><time>2026-05-01T08:45:48.999Z</time></trkpt><trkpt lat="39.30076430230234" lon="-3.687968434141176"><ele>824.0</ele><time>2026-05-01T08:45:49.999Z</time></trkpt><trkpt lat="39.30066798419348" lon="-3.6879703828531096"><ele>824.0</ele><time>2026-05-01T08:45:50.999Z</time></trkpt><trkpt lat="39.30057113789403" lon="-3.687971444422614"><ele>824.0</ele><time>2026-05-01T08:45:51.999Z</time></trkpt><trkpt lat="39.300468721481515" lon="-3.6879731381132634"><ele>825.0</ele><time>2026-05-01T08:45:52.999Z</time></trkpt><trkpt lat="39.30036041841627" lon="-3.6879776665100263"><ele>826.0</ele><time>2026-05-01T08:45:53.999Z</time></trkpt><trkpt lat="39.30025398133658" lon="-3.687983759994762"><ele>827.0</ele><time>2026-05-01T08:45:54.999Z</time></trkpt><trkpt lat="39.30014024833454" lon="-3.6879895697979075"><ele>828.0</ele><time>2026-05-01T08:45:55.999Z</time></trkpt><trkpt lat="39.30001995754241" lon="-3.687996553840807"><ele>829.0</ele><time>2026-05-01T08:45:56.999Z</time></trkpt><trkpt lat="39.299889423059135" lon="-3.6880072067251537"><ele>829.75</ele><time>2026-05-01T08:45:57.999Z</time></trkpt><trkpt lat="39.29973997156023" lon="-3.688020625064563"><ele>830.5</ele><time>2026-05-01T08:45:58.999Z</time></trkpt><trkpt lat="39.29959625098284" lon="-3.6880321235840916"><ele>831.25</ele><time>2026-05-01T08:45:59.999Z</time></trkpt><trkpt lat="39.29944758899799" lon="-3.6880417566263324"><ele>832.0</ele><time>2026-05-01T08:46:00.999Z</time></trkpt><trkpt lat="39.29929289340528" lon="-3.6880539891874933"><ele>832.0</ele><time>2026-05-01T08:46:01.999Z</time></trkpt><trkpt lat="39.29913152047199" lon="-3.6880667978881667"><ele>832.0</ele><time>2026-05-01T08:46:02.999Z</time></trkpt><trkpt lat="39.298969218242966" lon="-3.688078735994212"><ele>832.0</ele><time>2026-05-01T08:46:03.999Z</time></trkpt><trkpt lat="39.298804991582706" lon="-3.688092356336942"><ele>834.3333333333333</ele><time>2026-05-01T08:46:04.999Z</time></trkpt><trkpt lat="39.298626933843906" lon="-3.6881079121280056"><ele>836.6666666666667</ele><time>2026-05-01T08:46:05.999Z</time></trkpt><trkpt lat="39.29842378481102" lon="-3.68812099320696"><ele>839.0</ele><time>2026-05-01T08:46:06.999Z</time></trkpt><trkpt lat="39.298202356408" lon="-3.6881299088946373"><ele>840.3333333333334</ele><time>2026-05-01T08:46:07.999Z</time></trkpt><trkpt lat="39.29800765939854" lon="-3.6881269311471767"><ele>841.6666666666667</ele><time>2026-05-01T08:46:08.999Z</time></trkpt><trkpt lat="39.29783379287423" lon="-3.6881085246739413"><ele>843.0</ele><time>2026-05-01T08:46:09.999Z</time></trkpt><trkpt lat="39.29768583153448" lon="-3.6880846061592445"><ele>843.0</ele><time>2026-05-01T08:46:10.999Z</time></trkpt><trkpt lat="39.29753721656179" lon="-3.6880534695156983"><ele>843.0</ele><time>2026-05-01T08:46:11.999Z</time></trkpt><trkpt lat="39.2974105170013" lon="-3.6880036731904804"><ele>843.0</ele><time>2026-05-01T08:46:12.999Z</time></trkpt><trkpt lat="39.2972995185532" lon="-3.687941319176799"><ele>843.0</ele><time>2026-05-01T08:46:13.999Z</time></trkpt><trkpt lat="39.297201528939084" lon="-3.687852465679776"><ele>843.75</ele><time>2026-05-01T08:46:14.999Z</time></trkpt><trkpt lat="39.297102693332725" lon="-3.6877904248897893"><ele>844.5</ele><time>2026-05-01T08:46:15.999Z</time></trkpt><trkpt lat="39.2969917515088" lon="-3.687770522969246"><ele>845.25</ele><time>2026-05-01T08:46:16.999Z</time></trkpt><trkpt lat="39.29687253794278" lon="-3.6877735681426076"><ele>846.0</ele><time>2026-05-01T08:46:17.999Z</time></trkpt><trkpt lat="39.296756994379656" lon="-3.687811713055419"><ele>846.0</ele><time>2026-05-01T08:46:18.999Z</time></trkpt><trkpt lat="39.29664192975599" lon="-3.6878620802936957"><ele>846.0</ele><time>2026-05-01T08:46:19.999Z</time></trkpt><trkpt lat="39.29652133345667" lon="-3.687910894673175"><ele>846.0</ele><time>2026-05-01T08:46:20.999Z</time></trkpt><trkpt lat="39.29639753012388" lon="-3.687954077129845"><ele>846.0</ele><time>2026-05-01T08:46:21.999Z</time></trkpt><trkpt lat="39.29627257493453" lon="-3.6879942651278768"><ele>847.0</ele><time>2026-05-01T08:46:22.999Z</time></trkpt><trkpt lat="39.296148508341886" lon="-3.688023722785983"><ele>848.0</ele><time>2026-05-01T08:46:23.999Z</time></trkpt><trkpt lat="39.296019540485524" lon="-3.688036409985361"><ele>849.0</ele><time>2026-05-01T08:46:24.999Z</time></trkpt><trkpt lat="39.29589137838282" lon="-3.688022494110107"><ele>850.0</ele><time>2026-05-01T08:46:25.999Z</time></trkpt><trkpt lat="39.29576648568277" lon="-3.6879843929528398"><ele>850.0</ele><time>2026-05-01T08:46:26.999Z</time></trkpt><trkpt lat="39.29564323674846" lon="-3.687928061849041"><ele>850.0</ele><time>2026-05-01T08:46:27.999Z</time></trkpt><trkpt lat="39.295529926115115" lon="-3.687858276207077"><ele>850.0</ele><time>2026-05-01T08:46:28.999Z</time></trkpt><trkpt lat="39.295419462167686" lon="-3.687772144443663"><ele>850.0</ele><time>2026-05-01T08:46:29.999Z</time></trkpt><trkpt lat="39.29532068485481" lon="-3.6876686158749665"><ele>852.25</ele><time>2026-05-01T08:46:30.999Z</time></trkpt><trkpt lat="39.295231803831214" lon="-3.6875419079362706"><ele>854.5</ele><time>2026-05-01T08:46:31.999Z</time></trkpt><trkpt lat="39.29515731198305" lon="-3.6873969184103736"><ele>856.75</ele><time>2026-05-01T08:46:32.999Z</time></trkpt><trkpt lat="39.295076577923226" lon="-3.6872414496256067"><ele>859.0</ele><time>2026-05-01T08:46:33.999Z</time></trkpt><trkpt lat="39.29499836441169" lon="-3.6870867189476733"><ele>859.0</ele><time>2026-05-01T08:46:34.999Z</time></trkpt><trkpt lat="39.29492556301686" lon="-3.6869543229031483"><ele>859.0000000000001</ele><time>2026-05-01T08:46:35.999Z</time></trkpt><trkpt lat="39.29483854387078" lon="-3.686856144693985"><ele>859.0000000000001</ele><time>2026-05-01T08:46:36.999Z</time></trkpt><trkpt lat="39.294748724262114" lon="-3.686792296830396"><ele>859.0</ele><time>2026-05-01T08:46:37.999Z</time></trkpt><trkpt lat="39.29465650042563" lon="-3.6867627065574156"><ele>859.0</ele><time>2026-05-01T08:46:38.999Z</time></trkpt><trkpt lat="39.29457099724511" lon="-3.686796310259728"><ele>860.5</ele><time>2026-05-01T08:46:39.999Z</time></trkpt><trkpt lat="39.29448135332648" lon="-3.6868660743546946"><ele>862.0</ele><time>2026-05-01T08:46:40.999Z</time></trkpt><trkpt lat="39.29437408024443" lon="-3.6869444119760844"><ele>863.5</ele><time>2026-05-01T08:46:41.999Z</time></trkpt><trkpt lat="39.294254443584045" lon="-3.6870197300725245"><ele>865.0</ele><time>2026-05-01T08:46:42.999Z</time></trkpt><trkpt lat="39.294117015342714" lon="-3.687108459606865"><ele>865.0</ele><time>2026-05-01T08:46:43.999Z</time></trkpt><trkpt lat="39.293972419462285" lon="-3.6872065417318933"><ele>865.0</ele><time>2026-05-01T08:46:44.999Z</time></trkpt><trkpt lat="39.29382921913484" lon="-3.6873029658536214"><ele>865.0</ele><time>2026-05-01T08:46:45.999Z</time></trkpt><trkpt lat="39.29369959797186" lon="-3.687388293984994"><ele>865.5</ele><time>2026-05-01T08:46:46.999Z</time></trkpt><trkpt lat="39.29357634287856" lon="-3.6874731965782717"><ele>866.0</ele><time>2026-05-01T08:46:47.999Z</time></trkpt><trkpt lat="39.29345456622439" lon="-3.687556147716977"><ele>866.5</ele><time>2026-05-01T08:46:48.999Z</time></trkpt><trkpt lat="39.293335821341906" lon="-3.6876389373357026"><ele>867.0</ele><time>2026-05-01T08:46:49.999Z</time></trkpt><trkpt lat="39.29322186423775" lon="-3.687718536228348"><ele>866.5</ele><time>2026-05-01T08:46:50.998Z</time></trkpt><trkpt lat="39.293109219778266" lon="-3.687793501263112"><ele>866.0</ele><time>2026-05-01T08:46:51.998Z</time></trkpt><trkpt lat="39.29299312471391" lon="-3.6878660695347283"><ele>865.5</ele><time>2026-05-01T08:46:52.998Z</time></trkpt><trkpt lat="39.29286153636961" lon="-3.687954157426891"><ele>865.0</ele><time>2026-05-01T08:46:53.998Z</time></trkpt><trkpt lat="39.292717673955295" lon="-3.6880505538484645"><ele>865.0</ele><time>2026-05-01T08:46:54.998Z</time></trkpt><trkpt lat="39.29255807621893" lon="-3.6881518782164098"><ele>865.0</ele><time>2026-05-01T08:46:55.998Z</time></trkpt><trkpt lat="39.29239182534706" lon="-3.6882596057223624"><ele>865.0</ele><time>2026-05-01T08:46:56.998Z</time></trkpt><trkpt lat="39.29220281237631" lon="-3.688387087399793"><ele>865.6666666666666</ele><time>2026-05-01T08:46:57.998Z</time></trkpt><trkpt lat="39.29199948865681" lon="-3.6885311707381265"><ele>866.3333333333333</ele><time>2026-05-01T08:46:58.998Z</time></trkpt><trkpt lat="39.2918116817372" lon="-3.6886580717663016"><ele>867.0</ele><time>2026-05-01T08:46:59.998Z</time></trkpt><trkpt lat="39.29164100715292" lon="-3.688769446116657"><ele>865.0</ele><time>2026-05-01T08:47:00.998Z</time></trkpt><trkpt lat="39.29148139103455" lon="-3.6888773921828273"><ele>863.0</ele><time>2026-05-01T08:47:01.998Z</time></trkpt><trkpt lat="39.29131775987716" lon="-3.6889782774971263"><ele>861.0</ele><time>2026-05-01T08:47:02.998Z</time></trkpt><trkpt lat="39.29116490091536" lon="-3.6890730445857707"><ele>860.6666666666667</ele><time>2026-05-01T08:47:04Z</time></trkpt><trkpt lat="39.291004651032104" lon="-3.6891635793693927"><ele>860.3333333333334</ele><time>2026-05-01T08:47:05Z</time></trkpt><trkpt lat="39.29084829905029" lon="-3.6892355749292562"><ele>860.0</ele><time>2026-05-01T08:47:06Z</time></trkpt><trkpt lat="39.290684428942754" lon="-3.6892917259588316"><ele>859.6666666666667</ele><time>2026-05-01T08:47:07Z</time></trkpt><trkpt lat="39.290518941597256" lon="-3.6893334637850628"><ele>859.3333333333333</ele><time>2026-05-01T08:47:08Z</time></trkpt><trkpt lat="39.290355812694514" lon="-3.6893525942311918"><ele>859.0</ele><time>2026-05-01T08:47:09Z</time></trkpt><trkpt lat="39.29020709619767" lon="-3.6893578621180088"><ele>859.0</ele><time>2026-05-01T08:47:10Z</time></trkpt><trkpt lat="39.29004769765439" lon="-3.6893654051865057"><ele>859.0</ele><time>2026-05-01T08:47:11Z</time></trkpt><trkpt lat="39.28989882322968" lon="-3.6893653529053614"><ele>859.0</ele><time>2026-05-01T08:47:12Z</time></trkpt><trkpt lat="39.289749624531375" lon="-3.689336106089594"><ele>857.3333333333333</ele><time>2026-05-01T08:47:13Z</time></trkpt><trkpt lat="39.28960469973017" lon="-3.6892813520745253"><ele>855.6666666666667</ele><time>2026-05-01T08:47:14Z</time></trkpt><trkpt lat="39.28946084138044" lon="-3.6892144869938193"><ele>854.0</ele><time>2026-05-01T08:47:15Z</time></trkpt><trkpt lat="39.28930773360349" lon="-3.689130390833066"><ele>854.0</ele><time>2026-05-01T08:47:16Z</time></trkpt><trkpt lat="39.28914551515365" lon="-3.6890289204560043"><ele>854.0</ele><time>2026-05-01T08:47:17Z</time></trkpt><trkpt lat="39.28896640842209" lon="-3.688895442167004"><ele>854.0</ele><time>2026-05-01T08:47:18Z</time></trkpt><trkpt lat="39.28878326963957" lon="-3.688745591584978"><ele>853.3333333333334</ele><time>2026-05-01T08:47:19Z</time></trkpt><trkpt lat="39.28861855564241" lon="-3.6885864023913144"><ele>852.6666666666667</ele><time>2026-05-01T08:47:20Z</time></trkpt><trkpt lat="39.28847651188596" lon="-3.688444527741354"><ele>852.0</ele><time>2026-05-01T08:47:21Z</time></trkpt><trkpt lat="39.28834426621018" lon="-3.688325784271437"><ele>852.0</ele><time>2026-05-01T08:47:22Z</time></trkpt><trkpt lat="39.28821461823826" lon="-3.688235653967725"><ele>852.0</ele><time>2026-05-01T08:47:23Z</time></trkpt><trkpt lat="39.28807947043212" lon="-3.688172076598035"><ele>852.0</ele><time>2026-05-01T08:47:24Z</time></trkpt><trkpt lat="39.2879394537243" lon="-3.688143055593529"><ele>852.0</ele><time>2026-05-01T08:47:25Z</time></trkpt><trkpt lat="39.287792570426966" lon="-3.6881282363693644"><ele>849.6666666666667</ele><time>2026-05-01T08:47:26Z</time></trkpt><trkpt lat="39.28763105491987" lon="-3.688106269088882"><ele>847.3333333333334</ele><time>2026-05-01T08:47:27Z</time></trkpt><trkpt lat="39.28745735151446" lon="-3.688082232437393"><ele>845.0</ele><time>2026-05-01T08:47:28Z</time></trkpt><trkpt lat="39.28726888644185" lon="-3.6880633783996264"><ele>844.0</ele><time>2026-05-01T08:47:29Z</time></trkpt><trkpt lat="39.28706979165541" lon="-3.6880383017918335"><ele>843.0</ele><time>2026-05-01T08:47:30Z</time></trkpt><trkpt lat="39.286882174311806" lon="-3.688010537495249"><ele>842.0</ele><time>2026-05-01T08:47:31Z</time></trkpt><trkpt lat="39.28670345447775" lon="-3.6879879943650846"><ele>842.0</ele><time>2026-05-01T08:47:32Z</time></trkpt><trkpt lat="39.28652502572783" lon="-3.6879627319997317"><ele>842.0</ele><time>2026-05-01T08:47:33Z</time></trkpt><trkpt lat="39.28633988155299" lon="-3.6879399558405455"><ele>842.0</ele><time>2026-05-01T08:47:34Z</time></trkpt><trkpt lat="39.28616742775731" lon="-3.6879239288603864"><ele>840.0</ele><time>2026-05-01T08:47:35Z</time></trkpt><trkpt lat="39.28599109901718" lon="-3.6878989164391367"><ele>838.0</ele><time>2026-05-01T08:47:36Z</time></trkpt><trkpt lat="39.285818443424496" lon="-3.6878759973947037"><ele>836.0</ele><time>2026-05-01T08:47:37Z</time></trkpt><trkpt lat="39.28564239292836" lon="-3.6878511888147005"><ele>835.3333333333334</ele><time>2026-05-01T08:47:38Z</time></trkpt><trkpt lat="39.28547255593426" lon="-3.6878265592121457"><ele>834.6666666666667</ele><time>2026-05-01T08:47:39Z</time></trkpt><trkpt lat="39.28529935567973" lon="-3.687805140894469"><ele>834.0</ele><time>2026-05-01T08:47:40Z</time></trkpt><trkpt lat="39.285130459229954" lon="-3.6877865941089794"><ele>834.0</ele><time>2026-05-01T08:47:41Z</time></trkpt><trkpt lat="39.28496808921568" lon="-3.687774380327851"><ele>834.0</ele><time>2026-05-01T08:47:41.999Z</time></trkpt><trkpt lat="39.2847990295098" lon="-3.6877631030549796"><ele>834.0</ele><time>2026-05-01T08:47:42.999Z</time></trkpt><trkpt lat="39.28463582631687" lon="-3.687751901351224"><ele>834.0</ele><time>2026-05-01T08:47:43.999Z</time></trkpt><trkpt lat="39.28444416227161" lon="-3.687734466613531"><ele>834.0</ele><time>2026-05-01T08:47:44.999Z</time></trkpt><trkpt lat="39.28425776249986" lon="-3.6877243239593254"><ele>834.0</ele><time>2026-05-01T08:47:45.999Z</time></trkpt><trkpt lat="39.284078842500485" lon="-3.68769757181841"><ele>832.6666666666667</ele><time>2026-05-01T08:47:46.999Z</time></trkpt><trkpt lat="39.2838874890301" lon="-3.6876590020814746"><ele>831.3333333333334</ele><time>2026-05-01T08:47:47.999Z</time></trkpt><trkpt lat="39.28371057452068" lon="-3.6876063600188793"><ele>830.0</ele><time>2026-05-01T08:47:48.999Z</time></trkpt><trkpt lat="39.28356360597382" lon="-3.687574095263898"><ele>830.0</ele><time>2026-05-01T08:47:49.999Z</time></trkpt><trkpt lat="39.283407246740545" lon="-3.6875228213331805"><ele>830.0</ele><time>2026-05-01T08:47:50.999Z</time></trkpt><trkpt lat="39.283269131371945" lon="-3.6874635344781717"><ele>830.0</ele><time>2026-05-01T08:47:51.999Z</time></trkpt><trkpt lat="39.28314093134439" lon="-3.687391945792673"><ele>830.0</ele><time>2026-05-01T08:47:52.999Z</time></trkpt><trkpt lat="39.28302989149809" lon="-3.6873097624947855"><ele>829.25</ele><time>2026-05-01T08:47:53.999Z</time></trkpt><trkpt lat="39.28293354928345" lon="-3.687213815809921"><ele>828.5</ele><time>2026-05-01T08:47:54.999Z</time></trkpt><trkpt lat="39.282840525736354" lon="-3.6871043289442675"><ele>827.75</ele><time>2026-05-01T08:47:55.999Z</time></trkpt><trkpt lat="39.28274599496088" lon="-3.686985515601"><ele>827.0</ele><time>2026-05-01T08:47:56.999Z</time></trkpt><trkpt lat="39.282652217362795" lon="-3.6868628145929256"><ele>826.6666666666667</ele><time>2026-05-01T08:47:57.999Z</time></trkpt><trkpt lat="39.28255101640133" lon="-3.686733900862437"><ele>826.3333333333333</ele><time>2026-05-01T08:47:58.999Z</time></trkpt><trkpt lat="39.282444450524984" lon="-3.6865945937976123"><ele>826.0</ele><time>2026-05-01T08:47:59.999Z</time></trkpt><trkpt lat="39.28233023721734" lon="-3.6864380936326144"><ele>825.5</ele><time>2026-05-01T08:48:00.999Z</time></trkpt><trkpt lat="39.28222329036474" lon="-3.686293763658706"><ele>825.0</ele><time>2026-05-01T08:48:01.999Z</time></trkpt><trkpt lat="39.28212651386237" lon="-3.6861523600833777"><ele>824.5</ele><time>2026-05-01T08:48:02.999Z</time></trkpt><trkpt lat="39.2820293595952" lon="-3.6860169728040058"><ele>824.0</ele><time>2026-05-01T08:48:03.999Z</time></trkpt><trkpt lat="39.281945797969634" lon="-3.6858877253876634"><ele>824.0</ele><time>2026-05-01T08:48:04.999Z</time></trkpt><trkpt lat="39.28187807973684" lon="-3.6857403021478783"><ele>824.0</ele><time>2026-05-01T08:48:05.999Z</time></trkpt><trkpt lat="39.28181382782712" lon="-3.685554577974889"><ele>824.0</ele><time>2026-05-01T08:48:06.999Z</time></trkpt><trkpt lat="39.28175942252567" lon="-3.6853785312061187"><ele>824.0</ele><time>2026-05-01T08:48:07.999Z</time></trkpt><trkpt lat="39.28172050433698" lon="-3.6852043460495225"><ele>823.6666666666667</ele><time>2026-05-01T08:48:08.999Z</time></trkpt><trkpt lat="39.281704847316725" lon="-3.685027873037358"><ele>823.3333333333333</ele><time>2026-05-01T08:48:09.999Z</time></trkpt><trkpt lat="39.28171458040501" lon="-3.684838109127153"><ele>823.0</ele><time>2026-05-01T08:48:10.999Z</time></trkpt><trkpt lat="39.28176123890545" lon="-3.684623900283697"><ele>823.0</ele><time>2026-05-01T08:48:11.999Z</time></trkpt><trkpt lat="39.281827385974104" lon="-3.684390447020652"><ele>823.0</ele><time>2026-05-01T08:48:12.999Z</time></trkpt><trkpt lat="39.28188993100792" lon="-3.6841329559167706"><ele>823.0</ele><time>2026-05-01T08:48:13.999Z</time></trkpt><trkpt lat="39.28195551048537" lon="-3.68386889685322"><ele>821.5</ele><time>2026-05-01T08:48:14.999Z</time></trkpt><trkpt lat="39.282036782499354" lon="-3.6835739965335845"><ele>820.0</ele><time>2026-05-01T08:48:15.999Z</time></trkpt><trkpt lat="39.282119022960224" lon="-3.6832971093505966"><ele>820.0</ele><time>2026-05-01T08:48:16.999Z</time></trkpt><trkpt lat="39.28219670396764" lon="-3.6830533452493377"><ele>820.0</ele><time>2026-05-01T08:48:17.999Z</time></trkpt><trkpt lat="39.28227612524002" lon="-3.6828148466340123"><ele>820.0</ele><time>2026-05-01T08:48:18.999Z</time></trkpt><trkpt lat="39.28236660357956" lon="-3.682587711230306"><ele>822.0</ele><time>2026-05-01T08:48:19.999Z</time></trkpt><trkpt lat="39.28246763839919" lon="-3.682380657209009"><ele>824.0</ele><time>2026-05-01T08:48:20.999Z</time></trkpt><trkpt lat="39.28256692919294" lon="-3.682184136261938"><ele>826.0</ele><time>2026-05-01T08:48:21.999Z</time></trkpt><trkpt lat="39.282669701335344" lon="-3.681977577601126"><ele>824.3333333333333</ele><time>2026-05-01T08:48:22.999Z</time></trkpt><trkpt lat="39.28278648788896" lon="-3.681738125523323"><ele>822.6666666666667</ele><time>2026-05-01T08:48:23.999Z</time></trkpt><trkpt lat="39.28289899238425" lon="-3.6815189734597906"><ele>821.0</ele><time>2026-05-01T08:48:24.999Z</time></trkpt><trkpt lat="39.282987687639014" lon="-3.6813194655095915"><ele>821.0</ele><time>2026-05-01T08:48:25.999Z</time></trkpt><trkpt lat="39.2830655620093" lon="-3.6811220858292564"><ele>821.0</ele><time>2026-05-01T08:48:26.999Z</time></trkpt><trkpt lat="39.28313652785416" lon="-3.680921187323155"><ele>821.0</ele><time>2026-05-01T08:48:27.999Z</time></trkpt><trkpt lat="39.28318489537457" lon="-3.68069567536443"><ele>822.3333333333334</ele><time>2026-05-01T08:48:28.999Z</time></trkpt><trkpt lat="39.28321538334176" lon="-3.680441658671103"><ele>823.6666666666667</ele><time>2026-05-01T08:48:29.999Z</time></trkpt><trkpt lat="39.28323967103452" lon="-3.680164387822517"><ele>825.0</ele><time>2026-05-01T08:48:30.999Z</time></trkpt><trkpt lat="39.28327441947411" lon="-3.6799614336509725"><ele>825.0</ele><time>2026-05-01T08:48:31.999Z</time></trkpt><trkpt lat="39.283300794958194" lon="-3.679778273025324"><ele>825.0</ele><time>2026-05-01T08:48:32.999Z</time></trkpt><trkpt lat="39.28332096728235" lon="-3.6795997196632673"><ele>825.0</ele><time>2026-05-01T08:48:33.999Z</time></trkpt><trkpt lat="39.28334328317845" lon="-3.6794317850352063"><ele>825.0</ele><time>2026-05-01T08:48:34.999Z</time></trkpt><trkpt lat="39.283365220674874" lon="-3.6792729607645804"><ele>824.5</ele><time>2026-05-01T08:48:35.999Z</time></trkpt><trkpt lat="39.2833814493131" lon="-3.679120649669349"><ele>824.0</ele><time>2026-05-01T08:48:36.999Z</time></trkpt><trkpt lat="39.28339504342956" lon="-3.678973823939144"><ele>823.5</ele><time>2026-05-01T08:48:37.999Z</time></trkpt><trkpt lat="39.28341484672445" lon="-3.678818846507896"><ele>823.0</ele><time>2026-05-01T08:48:38.999Z</time></trkpt><trkpt lat="39.28344367852758" lon="-3.67863499050205"><ele>823.6666666666666</ele><time>2026-05-01T08:48:39.999Z</time></trkpt><trkpt lat="39.28347142596957" lon="-3.678433954492567"><ele>824.3333333333333</ele><time>2026-05-01T08:48:40.999Z</time></trkpt><trkpt lat="39.283496810805" lon="-3.6782308604593354"><ele>825.0</ele><time>2026-05-01T08:48:41.999Z</time></trkpt><trkpt lat="39.28352154080587" lon="-3.678031378356645"><ele>825.0</ele><time>2026-05-01T08:48:42.999Z</time></trkpt><trkpt lat="39.28354577525851" lon="-3.677824740505573"><ele>825.0</ele><time>2026-05-01T08:48:43.999Z</time></trkpt><trkpt lat="39.283577282985775" lon="-3.677590574231754"><ele>825.0</ele><time>2026-05-01T08:48:44.999Z</time></trkpt><trkpt lat="39.283603200902014" lon="-3.6773744209052635"><ele>825.3333333333333</ele><time>2026-05-01T08:48:45.999Z</time></trkpt><trkpt lat="39.283624529976116" lon="-3.67716216535161"><ele>825.6666666666666</ele><time>2026-05-01T08:48:46.999Z</time></trkpt><trkpt lat="39.28362817554904" lon="-3.676957540394954"><ele>826.0</ele><time>2026-05-01T08:48:47.999Z</time></trkpt><trkpt lat="39.28360313999735" lon="-3.676788425068761"><ele>826.25</ele><time>2026-05-01T08:48:48.999Z</time></trkpt><trkpt lat="39.283563748077974" lon="-3.676609790851326"><ele>826.5</ele><time>2026-05-01T08:48:49.999Z</time></trkpt><trkpt lat="39.283503791212084" lon="-3.676434607724843"><ele>826.75</ele><time>2026-05-01T08:48:50.999Z</time></trkpt><trkpt lat="39.28344010282479" lon="-3.676322223166155"><ele>827.0</ele><time>2026-05-01T08:48:51.999Z</time></trkpt><trkpt lat="39.28336775241797" lon="-3.67621201820557"><ele>827.25</ele><time>2026-05-01T08:48:52.999Z</time></trkpt><trkpt lat="39.28340151194219" lon="-3.6760016787660623"><ele>827.5</ele><time>2026-05-01T08:48:53.999Z</time></trkpt><trkpt lat="39.28335022560563" lon="-3.675851259069693"><ele>827.75</ele><time>2026-05-01T08:48:54.999Z</time></trkpt><trkpt lat="39.283297020776324" lon="-3.6756936992896585"><ele>828.0</ele><time>2026-05-01T08:48:55.999Z</time></trkpt><trkpt lat="39.2832543664417" lon="-3.6755320574720898"><ele>828.0</ele><time>2026-05-01T08:48:56.999Z</time></trkpt><trkpt lat="39.28321831625683" lon="-3.6753414521510006"><ele>828.0</ele><time>2026-05-01T08:48:57.999Z</time></trkpt><trkpt lat="39.2831814423191" lon="-3.675114206904472"><ele>828.0</ele><time>2026-05-01T08:48:58.999Z</time></trkpt><trkpt lat="39.28314368382458" lon="-3.6749135332196903"><ele>827.75</ele><time>2026-05-01T08:48:59.999Z</time></trkpt><trkpt lat="39.28311295836963" lon="-3.6747400475219316"><ele>827.5</ele><time>2026-05-01T08:49:00.998Z</time></trkpt><trkpt lat="39.28308625072417" lon="-3.6745782615840787"><ele>827.25</ele><time>2026-05-01T08:49:01.998Z</time></trkpt><trkpt lat="39.28305809479193" lon="-3.674425120307478"><ele>827.0</ele><time>2026-05-01T08:49:02.998Z</time></trkpt><trkpt lat="39.283031572792055" lon="-3.6742642669695234"><ele>827.5</ele><time>2026-05-01T08:49:03.998Z</time></trkpt><trkpt lat="39.28300807386682" lon="-3.6741040270544216"><ele>828.0</ele><time>2026-05-01T08:49:04.998Z</time></trkpt><trkpt lat="39.28298219890538" lon="-3.6739450167147063"><ele>828.5</ele><time>2026-05-01T08:49:05.998Z</time></trkpt><trkpt lat="39.28295920525449" lon="-3.673803143867191"><ele>829.0</ele><time>2026-05-01T08:49:06.998Z</time></trkpt><trkpt lat="39.28293300137109" lon="-3.673669721046139"><ele>829.25</ele><time>2026-05-01T08:49:07.998Z</time></trkpt><trkpt lat="39.28290654593339" lon="-3.673528857651989"><ele>829.5</ele><time>2026-05-01T08:49:08.998Z</time></trkpt><trkpt lat="39.282880272770434" lon="-3.6733601621461505"><ele>829.75</ele><time>2026-05-01T08:49:10Z</time></trkpt><trkpt lat="39.28284780056116" lon="-3.6731725594592803"><ele>830.0</ele><time>2026-05-01T08:49:11Z</time></trkpt><trkpt lat="39.282824428960275" lon="-3.6730110108540632"><ele>830.0</ele><time>2026-05-01T08:49:12Z</time></trkpt><trkpt lat="39.28279890546835" lon="-3.6728489090634953"><ele>830.0</ele><time>2026-05-01T08:49:13Z</time></trkpt><trkpt lat="39.28276911810105" lon="-3.6726816353368306"><ele>830.0</ele><time>2026-05-01T08:49:14Z</time></trkpt><trkpt lat="39.2827448474152" lon="-3.672511714107882"><ele>830.0</ele><time>2026-05-01T08:49:15Z</time></trkpt><trkpt lat="39.282732415860295" lon="-3.672341762839069"><ele>831.0</ele><time>2026-05-01T08:49:16Z</time></trkpt><trkpt lat="39.282726751891495" lon="-3.6721713165417036"><ele>832.0</ele><time>2026-05-01T08:49:17Z</time></trkpt><trkpt lat="39.282721357821096" lon="-3.6719967493099492"><ele>833.0</ele><time>2026-05-01T08:49:18Z</time></trkpt><trkpt lat="39.28271648568773" lon="-3.6718220764444855"><ele>834.0</ele><time>2026-05-01T08:49:19Z</time></trkpt><trkpt lat="39.28271660675186" lon="-3.671638807204891"><ele>834.6666666666667</ele><time>2026-05-01T08:49:20Z</time></trkpt><trkpt lat="39.28272094375451" lon="-3.6714360677691182"><ele>835.3333333333334</ele><time>2026-05-01T08:49:21Z</time></trkpt><trkpt lat="39.282731603859226" lon="-3.671188375841704"><ele>836.0</ele><time>2026-05-01T08:49:22Z</time></trkpt><trkpt lat="39.28275534478756" lon="-3.6709394233611983"><ele>836.0</ele><time>2026-05-01T08:49:23Z</time></trkpt><trkpt lat="39.28278636926486" lon="-3.670720035199613"><ele>836.0</ele><time>2026-05-01T08:49:24Z</time></trkpt><trkpt lat="39.282821172399025" lon="-3.6705142319754374"><ele>836.0</ele><time>2026-05-01T08:49:25Z</time></trkpt><trkpt lat="39.28287784210575" lon="-3.670299141496367"><ele>836.0</ele><time>2026-05-01T08:49:26Z</time></trkpt><trkpt lat="39.28294719424897" lon="-3.6700585511729096"><ele>836.0</ele><time>2026-05-01T08:49:27Z</time></trkpt><trkpt lat="39.28302230671727" lon="-3.66978013890453"><ele>836.0</ele><time>2026-05-01T08:49:28Z</time></trkpt><trkpt lat="39.28308713724816" lon="-3.669532331487949"><ele>841.0</ele><time>2026-05-01T08:49:29Z</time></trkpt><trkpt lat="39.2831439637015" lon="-3.669320040244133"><ele>846.0</ele><time>2026-05-01T08:49:30Z</time></trkpt><trkpt lat="39.28319617609057" lon="-3.6691253692211316"><ele>851.0</ele><time>2026-05-01T08:49:31Z</time></trkpt><trkpt lat="39.28324515340724" lon="-3.6689418968290797"><ele>851.0</ele><time>2026-05-01T08:49:32Z</time></trkpt><trkpt lat="39.28329425186258" lon="-3.6687553067738015"><ele>851.0</ele><time>2026-05-01T08:49:33Z</time></trkpt><trkpt lat="39.283342341788824" lon="-3.668577556333021"><ele>851.0</ele><time>2026-05-01T08:49:34Z</time></trkpt><trkpt lat="39.28339146498066" lon="-3.668390437222097"><ele>849.6666666666667</ele><time>2026-05-01T08:49:35Z</time></trkpt><trkpt lat="39.283444100443695" lon="-3.6682109113807906"><ele>848.3333333333333</ele><time>2026-05-01T08:49:36Z</time></trkpt><trkpt lat="39.28350382932936" lon="-3.668030236625786"><ele>847.0</ele><time>2026-05-01T08:49:37Z</time></trkpt><trkpt lat="39.28356515979403" lon="-3.6678501093571745"><ele>845.0</ele><time>2026-05-01T08:49:38Z</time></trkpt><trkpt lat="39.28362294418646" lon="-3.6676736453188887"><ele>843.0</ele><time>2026-05-01T08:49:39Z</time></trkpt><trkpt lat="39.283681098125776" lon="-3.6674958936533915"><ele>841.0</ele><time>2026-05-01T08:49:40Z</time></trkpt><trkpt lat="39.28374563978636" lon="-3.6672987356007196"><ele>841.0</ele><time>2026-05-01T08:49:41Z</time></trkpt><trkpt lat="39.28382152827883" lon="-3.667098249053849"><ele>841.0</ele><time>2026-05-01T08:49:42Z</time></trkpt><trkpt lat="39.283892444374374" lon="-3.666931960478673"><ele>841.0</ele><time>2026-05-01T08:49:43Z</time></trkpt><trkpt lat="39.283968884180936" lon="-3.6667473726651925"><ele>845.0</ele><time>2026-05-01T08:49:44Z</time></trkpt><trkpt lat="39.28405095366955" lon="-3.6665370316312624"><ele>849.0</ele><time>2026-05-01T08:49:45Z</time></trkpt><trkpt lat="39.28412786849952" lon="-3.666344433564394"><ele>853.0</ele><time>2026-05-01T08:49:46Z</time></trkpt><trkpt lat="39.28419295738317" lon="-3.6661788594082636"><ele>852.0</ele><time>2026-05-01T08:49:47Z</time></trkpt><trkpt lat="39.28424318177416" lon="-3.666008465150888"><ele>851.0</ele><time>2026-05-01T08:49:48Z</time></trkpt><trkpt lat="39.28427937738379" lon="-3.6658159757720714"><ele>850.0</ele><time>2026-05-01T08:49:49Z</time></trkpt><trkpt lat="39.2843065589002" lon="-3.665606858880276"><ele>850.0</ele><time>2026-05-01T08:49:50Z</time></trkpt><trkpt lat="39.284332083631476" lon="-3.6653822204738917"><ele>850.0</ele><time>2026-05-01T08:49:51Z</time></trkpt><trkpt lat="39.28435627859179" lon="-3.6651626521109137"><ele>850.0</ele><time>2026-05-01T08:49:52Z</time></trkpt><trkpt lat="39.284385772790934" lon="-3.664938895506792"><ele>849.6666666666666</ele><time>2026-05-01T08:49:53Z</time></trkpt><trkpt lat="39.2844166462136" lon="-3.664705838227111"><ele>849.3333333333333</ele><time>2026-05-01T08:49:54Z</time></trkpt><trkpt lat="39.28443778364867" lon="-3.6644764025211827"><ele>849.0</ele><time>2026-05-01T08:49:55Z</time></trkpt><trkpt lat="39.28446283175565" lon="-3.6642481058426744"><ele>848.6666666666667</ele><time>2026-05-01T08:49:55.999Z</time></trkpt><trkpt lat="39.28449235754935" lon="-3.664038309481823"><ele>848.3333333333334</ele><time>2026-05-01T08:49:56.999Z</time></trkpt><trkpt lat="39.284525179744875" lon="-3.6638145416063983"><ele>848.0</ele><time>2026-05-01T08:49:57.999Z</time></trkpt><trkpt lat="39.28454961711412" lon="-3.66359391627752"><ele>848.6666666666667</ele><time>2026-05-01T08:49:58.999Z</time></trkpt><trkpt lat="39.2845687263823" lon="-3.663374452523335"><ele>849.3333333333333</ele><time>2026-05-01T08:49:59.999Z</time></trkpt><trkpt lat="39.284578252398084" lon="-3.6631613641056604"><ele>850.0</ele><time>2026-05-01T08:50:00.999Z</time></trkpt><trkpt lat="39.28457828962455" lon="-3.6629528368870194"><ele>850.25</ele><time>2026-05-01T08:50:01.999Z</time></trkpt><trkpt lat="39.2845654405816" lon="-3.6627603046118593"><ele>850.5</ele><time>2026-05-01T08:50:02.999Z</time></trkpt><trkpt lat="39.28456168923903" lon="-3.662586943914904"><ele>850.75</ele><time>2026-05-01T08:50:03.999Z</time></trkpt><trkpt lat="39.28456517749224" lon="-3.662418116225921"><ele>851.0</ele><time>2026-05-01T08:50:04.999Z</time></trkpt><trkpt lat="39.28456794592301" lon="-3.6622577666104816"><ele>851.0</ele><time>2026-05-01T08:50:05.999Z</time></trkpt><trkpt lat="39.284580097302715" lon="-3.6621075574660136"><ele>851.0</ele><time>2026-05-01T08:50:06.999Z</time></trkpt><trkpt lat="39.284595821674266" lon="-3.661966741502453"><ele>851.0</ele><time>2026-05-01T08:50:07.999Z</time></trkpt><trkpt lat="39.28460848058408" lon="-3.661824613317581"><ele>851.0</ele><time>2026-05-01T08:50:08.999Z</time></trkpt><trkpt lat="39.2846290649272" lon="-3.661673025325989"><ele>850.75</ele><time>2026-05-01T08:50:09.999Z</time></trkpt><trkpt lat="39.28466168152534" lon="-3.6615184556796607"><ele>850.5</ele><time>2026-05-01T08:50:10.999Z</time></trkpt><trkpt lat="39.28471321978975" lon="-3.6613630271620567"><ele>850.25</ele><time>2026-05-01T08:50:11.999Z</time></trkpt><trkpt lat="39.284784025846555" lon="-3.6612149631614"><ele>850.0</ele><time>2026-05-01T08:50:12.999Z</time></trkpt><trkpt lat="39.28487595101217" lon="-3.6610751500146903"><ele>851.75</ele><time>2026-05-01T08:50:13.999Z</time></trkpt><trkpt lat="39.28498202058991" lon="-3.660943885158625"><ele>853.5</ele><time>2026-05-01T08:50:14.999Z</time></trkpt><trkpt lat="39.28508755557122" lon="-3.6608088431904084"><ele>855.25</ele><time>2026-05-01T08:50:15.999Z</time></trkpt><trkpt lat="39.285188333045646" lon="-3.6606601601803685"><ele>857.0</ele><time>2026-05-01T08:50:16.999Z</time></trkpt><trkpt lat="39.28528630964038" lon="-3.6605018272927152"><ele>857.0</ele><time>2026-05-01T08:50:17.999Z</time></trkpt><trkpt lat="39.285378316808654" lon="-3.6603314435890733"><ele>857.0</ele><time>2026-05-01T08:50:18.999Z</time></trkpt><trkpt lat="39.28546636487842" lon="-3.660161092372527"><ele>857.0</ele><time>2026-05-01T08:50:19.999Z</time></trkpt><trkpt lat="39.28555189636106" lon="-3.659987274443467"><ele>858.0</ele><time>2026-05-01T08:50:20.999Z</time></trkpt><trkpt lat="39.285641703847894" lon="-3.6598161301863836"><ele>859.0</ele><time>2026-05-01T08:50:21.999Z</time></trkpt><trkpt lat="39.285734055259084" lon="-3.659652125777473"><ele>860.0</ele><time>2026-05-01T08:50:22.999Z</time></trkpt><trkpt lat="39.285831509445686" lon="-3.6594686061558095"><ele>859.3333333333334</ele><time>2026-05-01T08:50:23.999Z</time></trkpt><trkpt lat="39.28591741824103" lon="-3.6592995276763496"><ele>858.6666666666667</ele><time>2026-05-01T08:50:24.999Z</time></trkpt><trkpt lat="39.28598914436231" lon="-3.659134528021291"><ele>858.0</ele><time>2026-05-01T08:50:25.999Z</time></trkpt><trkpt lat="39.286042604254405" lon="-3.658956222624722"><ele>858.0</ele><time>2026-05-01T08:50:26.999Z</time></trkpt><trkpt lat="39.28606564058926" lon="-3.658768700755693"><ele>858.0</ele><time>2026-05-01T08:50:27.999Z</time></trkpt><trkpt lat="39.28606217950448" lon="-3.6585846686313417"><ele>858.0</ele><time>2026-05-01T08:50:28.999Z</time></trkpt><trkpt lat="39.286053638146825" lon="-3.658365812158938"><ele>858.0</ele><time>2026-05-01T08:50:29.999Z</time></trkpt><trkpt lat="39.28605352035842" lon="-3.658117607837152"><ele>858.0</ele><time>2026-05-01T08:50:30.999Z</time></trkpt><trkpt lat="39.28606359139501" lon="-3.6578524936819066"><ele>858.0</ele><time>2026-05-01T08:50:31.999Z</time></trkpt><trkpt lat="39.28607006679462" lon="-3.657615411048563"><ele>858.0</ele><time>2026-05-01T08:50:32.999Z</time></trkpt><trkpt lat="39.286073912893784" lon="-3.657386826434746"><ele>858.0</ele><time>2026-05-01T08:50:33.999Z</time></trkpt><trkpt lat="39.28607795573769" lon="-3.6571548406370327"><ele>858.0</ele><time>2026-05-01T08:50:34.999Z</time></trkpt><trkpt lat="39.286087453931565" lon="-3.656908128962573"><ele>858.3333333333333</ele><time>2026-05-01T08:50:35.999Z</time></trkpt><trkpt lat="39.28609347619773" lon="-3.6566490478391516"><ele>858.6666666666666</ele><time>2026-05-01T08:50:36.999Z</time></trkpt><trkpt lat="39.28609532612131" lon="-3.6563952655576872"><ele>859.0</ele><time>2026-05-01T08:50:37.999Z</time></trkpt><trkpt lat="39.28610144443317" lon="-3.656141693421355"><ele>859.6666666666666</ele><time>2026-05-01T08:50:38.999Z</time></trkpt><trkpt lat="39.2861115788694" lon="-3.655888474194959"><ele>860.3333333333333</ele><time>2026-05-01T08:50:39.999Z</time></trkpt><trkpt lat="39.286121556935456" lon="-3.655629033344122"><ele>861.0</ele><time>2026-05-01T08:50:40.999Z</time></trkpt><trkpt lat="39.28612863880866" lon="-3.655373628949635"><ele>862.3333333333333</ele><time>2026-05-01T08:50:41.999Z</time></trkpt><trkpt lat="39.286133219537106" lon="-3.6551027354321275"><ele>863.6666666666666</ele><time>2026-05-01T08:50:42.999Z</time></trkpt><trkpt lat="39.28613810122886" lon="-3.6548239062495957"><ele>865.0</ele><time>2026-05-01T08:50:43.999Z</time></trkpt><trkpt lat="39.286146475125925" lon="-3.654544887474842"><ele>865.5</ele><time>2026-05-01T08:50:44.999Z</time></trkpt><trkpt lat="39.28615385689237" lon="-3.6542516854013747"><ele>866.0</ele><time>2026-05-01T08:50:45.999Z</time></trkpt><trkpt lat="39.28616163049041" lon="-3.653942022782493"><ele>867.0</ele><time>2026-05-01T08:50:46.999Z</time></trkpt><trkpt lat="39.28617110786464" lon="-3.653614383179885"><ele>868.0</ele><time>2026-05-01T08:50:47.999Z</time></trkpt><trkpt lat="39.286178599128746" lon="-3.653289845948707"><ele>868.0</ele><time>2026-05-01T08:50:48.999Z</time></trkpt><trkpt lat="39.28618575234258" lon="-3.652977144653499"><ele>868.0</ele><time>2026-05-01T08:50:49.999Z</time></trkpt><trkpt lat="39.28619666711288" lon="-3.652639328318146"><ele>867.5</ele><time>2026-05-01T08:50:50.999Z</time></trkpt><trkpt lat="39.28620814359567" lon="-3.652306622669754"><ele>867.0</ele><time>2026-05-01T08:50:51.999Z</time></trkpt><trkpt lat="39.28621482235402" lon="-3.652000050355724"><ele>868.0</ele><time>2026-05-01T08:50:52.999Z</time></trkpt><trkpt lat="39.28621944926489" lon="-3.6517223614034644"><ele>869.0</ele><time>2026-05-01T08:50:53.999Z</time></trkpt><trkpt lat="39.28622187305402" lon="-3.6514636749554366"><ele>870.0</ele><time>2026-05-01T08:50:54.999Z</time></trkpt><trkpt lat="39.286229426386704" lon="-3.651217204537916"><ele>870.3333333333333</ele><time>2026-05-01T08:50:55.999Z</time></trkpt><trkpt lat="39.286240501802524" lon="-3.6509843463717497"><ele>870.6666666666666</ele><time>2026-05-01T08:50:56.999Z</time></trkpt><trkpt lat="39.286249517404606" lon="-3.6507697799623076"><ele>871.0</ele><time>2026-05-01T08:50:57.999Z</time></trkpt><trkpt lat="39.28624480231051" lon="-3.650557040473694"><ele>871.0</ele><time>2026-05-01T08:50:58.999Z</time></trkpt><trkpt lat="39.286227897886874" lon="-3.6503383824610007"><ele>871.0</ele><time>2026-05-01T08:50:59.999Z</time></trkpt><trkpt lat="39.28619376313611" lon="-3.6501141673122253"><ele>871.0</ele><time>2026-05-01T08:51:00.999Z</time></trkpt><trkpt lat="39.28614246349729" lon="-3.649879004173263"><ele>871.3333333333333</ele><time>2026-05-01T08:51:01.999Z</time></trkpt><trkpt lat="39.286065256847074" lon="-3.6496479714516226"><ele>871.6666666666667</ele><time>2026-05-01T08:51:02.999Z</time></trkpt><trkpt lat="39.28596620472026" lon="-3.649389839666562"><ele>872.0</ele><time>2026-05-01T08:51:03.999Z</time></trkpt><trkpt lat="39.28587145396457" lon="-3.649107719960883"><ele>872.5</ele><time>2026-05-01T08:51:04.999Z</time></trkpt><trkpt lat="39.28577124873021" lon="-3.648814568461808"><ele>873.0</ele><time>2026-05-01T08:51:05.999Z</time></trkpt><trkpt lat="39.28567263951704" lon="-3.6485340541653555"><ele>876.0</ele><time>2026-05-01T08:51:06.999Z</time></trkpt><trkpt lat="39.285572857479636" lon="-3.648238535194423"><ele>879.0</ele><time>2026-05-01T08:51:07.999Z</time></trkpt><trkpt lat="39.28547542544886" lon="-3.6479404225922716"><ele>878.0</ele><time>2026-05-01T08:51:08.999Z</time></trkpt><trkpt lat="39.28536522417571" lon="-3.6476170489808735"><ele>877.0</ele><time>2026-05-01T08:51:09.999Z</time></trkpt><trkpt lat="39.28525864582902" lon="-3.647299624194047"><ele>877.0</ele><time>2026-05-01T08:51:10.999Z</time></trkpt><trkpt lat="39.28514716463094" lon="-3.6469777698177364"><ele>877.0</ele><time>2026-05-01T08:51:11.999Z</time></trkpt><trkpt lat="39.2850302741456" lon="-3.646636475695096"><ele>877.0</ele><time>2026-05-01T08:51:12.999Z</time></trkpt><trkpt lat="39.28492772418559" lon="-3.6463331303179585"><ele>877.0</ele><time>2026-05-01T08:51:13.999Z</time></trkpt><trkpt lat="39.28483037339446" lon="-3.6460420323533858"><ele>878.3333333333333</ele><time>2026-05-01T08:51:14.999Z</time></trkpt><trkpt lat="39.28474144318614" lon="-3.6457846653107424"><ele>879.6666666666667</ele><time>2026-05-01T08:51:16Z</time></trkpt><trkpt lat="39.284663401395925" lon="-3.6455450395794253"><ele>881.0</ele><time>2026-05-01T08:51:17Z</time></trkpt><trkpt lat="39.28458726647185" lon="-3.6453068575604024"><ele>881.6666666666667</ele><time>2026-05-01T08:51:18Z</time></trkpt><trkpt lat="39.28451616246401" lon="-3.645094966996057"><ele>882.3333333333333</ele><time>2026-05-01T08:51:19Z</time></trkpt><trkpt lat="39.28445475335987" lon="-3.6448919224558973"><ele>883.0</ele><time>2026-05-01T08:51:20Z</time></trkpt><trkpt lat="39.28441502880728" lon="-3.644683195819083"><ele>884.3333333333333</ele><time>2026-05-01T08:51:21Z</time></trkpt><trkpt lat="39.2843881632426" lon="-3.644462530849895"><ele>885.6666666666667</ele><time>2026-05-01T08:51:22Z</time></trkpt><trkpt lat="39.28436480536208" lon="-3.6442584909477738"><ele>887.0</ele><time>2026-05-01T08:51:23Z</time></trkpt><trkpt lat="39.28431904564275" lon="-3.6440839756566126"><ele>887.0</ele><time>2026-05-01T08:51:24Z</time></trkpt><trkpt lat="39.28424408604244" lon="-3.6439377340263923"><ele>887.0</ele><time>2026-05-01T08:51:25Z</time></trkpt><trkpt lat="39.284131220507646" lon="-3.643805048550394"><ele>887.0</ele><time>2026-05-01T08:51:26Z</time></trkpt><trkpt lat="39.284034005533776" lon="-3.6436727257872046"><ele>887.0</ele><time>2026-05-01T08:51:27Z</time></trkpt><trkpt lat="39.28397717149544" lon="-3.643538906210481"><ele>887.3333333333334</ele><time>2026-05-01T08:51:28Z</time></trkpt><trkpt lat="39.283943845029064" lon="-3.6433804963968304"><ele>887.6666666666667</ele><time>2026-05-01T08:51:29Z</time></trkpt><trkpt lat="39.283934920756394" lon="-3.643178069031385"><ele>888.0</ele><time>2026-05-01T08:51:30Z</time></trkpt><trkpt lat="39.283924126012586" lon="-3.642959337209509"><ele>889.0</ele><time>2026-05-01T08:51:31Z</time></trkpt><trkpt lat="39.28389242751059" lon="-3.6427334474378474"><ele>890.0</ele><time>2026-05-01T08:51:32Z</time></trkpt><trkpt lat="39.28385139145189" lon="-3.6424994758611704"><ele>891.0</ele><time>2026-05-01T08:51:33Z</time></trkpt><trkpt lat="39.28381646858631" lon="-3.6422682184561594"><ele>891.0</ele><time>2026-05-01T08:51:34Z</time></trkpt><trkpt lat="39.28378719484906" lon="-3.6420630643405563"><ele>891.0</ele><time>2026-05-01T08:51:35Z</time></trkpt><trkpt lat="39.28376634411746" lon="-3.6418591742159734"><ele>891.0</ele><time>2026-05-01T08:51:36Z</time></trkpt><trkpt lat="39.28376093725586" lon="-3.641631302814054"><ele>891.0</ele><time>2026-05-01T08:51:37Z</time></trkpt><trkpt lat="39.283758663310294" lon="-3.6413765886564518"><ele>891.0</ele><time>2026-05-01T08:51:38Z</time></trkpt><trkpt lat="39.28375103567391" lon="-3.6411026101074464"><ele>891.0</ele><time>2026-05-01T08:51:39Z</time></trkpt><trkpt lat="39.283750916166056" lon="-3.6408243947475842"><ele>891.6666666666667</ele><time>2026-05-01T08:51:40Z</time></trkpt><trkpt lat="39.28375271680311" lon="-3.640538012552088"><ele>892.3333333333334</ele><time>2026-05-01T08:51:41Z</time></trkpt><trkpt lat="39.28375140842628" lon="-3.640284050681605"><ele>893.0</ele><time>2026-05-01T08:51:42Z</time></trkpt><trkpt lat="39.28374648082427" lon="-3.640048422915352"><ele>893.6666666666667</ele><time>2026-05-01T08:51:43Z</time></trkpt><trkpt lat="39.28374459845847" lon="-3.63980916012933"><ele>894.3333333333333</ele><time>2026-05-01T08:51:44Z</time></trkpt><trkpt lat="39.283736413019284" lon="-3.63953374247876"><ele>895.0</ele><time>2026-05-01T08:51:45Z</time></trkpt><trkpt lat="39.28371328181062" lon="-3.6392565698508705"><ele>895.6666666666666</ele><time>2026-05-01T08:51:46Z</time></trkpt><trkpt lat="39.28367359857521" lon="-3.6389848034886714"><ele>896.3333333333333</ele><time>2026-05-01T08:51:47Z</time></trkpt><trkpt lat="39.28362056420673" lon="-3.6387099622692314"><ele>897.0</ele><time>2026-05-01T08:51:48Z</time></trkpt><trkpt lat="39.2835644797021" lon="-3.6384175759843966"><ele>897.5</ele><time>2026-05-01T08:51:49Z</time></trkpt><trkpt lat="39.28351051935722" lon="-3.6381126067250418"><ele>898.0</ele><time>2026-05-01T08:51:50Z</time></trkpt><trkpt lat="39.28345997010101" lon="-3.637838295894471"><ele>899.3333333333333</ele><time>2026-05-01T08:51:51Z</time></trkpt><trkpt lat="39.2834080109348" lon="-3.637577841398432"><ele>900.6666666666667</ele><time>2026-05-01T08:51:52Z</time></trkpt><trkpt lat="39.28335699658752" lon="-3.637320128507073"><ele>902.0</ele><time>2026-05-01T08:51:53Z</time></trkpt><trkpt lat="39.28330614887676" lon="-3.637084995893864"><ele>903.0</ele><time>2026-05-01T08:51:54Z</time></trkpt><trkpt lat="39.28325646497376" lon="-3.6368971611014094"><ele>904.0</ele><time>2026-05-01T08:51:55Z</time></trkpt><trkpt lat="39.28324014503812" lon="-3.636788532162395"><ele>905.0</ele><time>2026-05-01T08:51:56Z</time></trkpt><trkpt lat="39.28320850810309" lon="-3.636641225974276"><ele>906.0</ele><time>2026-05-01T08:51:57Z</time></trkpt><trkpt lat="39.28318641008212" lon="-3.6365052367167863"><ele>906.0</ele><time>2026-05-01T08:51:58Z</time></trkpt><trkpt lat="39.283184482540676" lon="-3.636378966625631"><ele>905.9999999999999</ele><time>2026-05-01T08:51:59Z</time></trkpt><trkpt lat="39.28320963968637" lon="-3.6362567915597044"><ele>905.9999999999999</ele><time>2026-05-01T08:52:00Z</time></trkpt><trkpt lat="39.28327435658267" lon="-3.6361483267697454"><ele>906.0</ele><time>2026-05-01T08:52:01Z</time></trkpt><trkpt lat="39.283369941715904" lon="-3.636042500567984"><ele>906.0</ele><time>2026-05-01T08:52:02Z</time></trkpt><trkpt lat="39.28347869438016" lon="-3.6359301167130487"><ele>906.0</ele><time>2026-05-01T08:52:03Z</time></trkpt><trkpt lat="39.283541651169024" lon="-3.6358199670210536"><ele>905.9999999999999</ele><time>2026-05-01T08:52:04Z</time></trkpt><trkpt lat="39.28356450513741" lon="-3.6357133248118747"><ele>905.9999999999999</ele><time>2026-05-01T08:52:05Z</time></trkpt><trkpt lat="39.283544313459906" lon="-3.635628085125898"><ele>906.0</ele><time>2026-05-01T08:52:06Z</time></trkpt><trkpt lat="39.28350201238406" lon="-3.6355375014995595"><ele>906.0</ele><time>2026-05-01T08:52:07Z</time></trkpt><trkpt lat="39.28342339717586" lon="-3.6354204503287812"><ele>906.75</ele><time>2026-05-01T08:52:08Z</time></trkpt><trkpt lat="39.28334188993413" lon="-3.6352885233867913"><ele>907.5</ele><time>2026-05-01T08:52:09Z</time></trkpt><trkpt lat="39.28326666004312" lon="-3.6351341283421728"><ele>908.25</ele><time>2026-05-01T08:52:09.999Z</time></trkpt><trkpt lat="39.28318491461005" lon="-3.634966254436965"><ele>909.0</ele><time>2026-05-01T08:52:10.999Z</time></trkpt><trkpt lat="39.28311787523122" lon="-3.6348376944286622"><ele>909.25</ele><time>2026-05-01T08:52:11.999Z</time></trkpt><trkpt lat="39.28303664918679" lon="-3.634733615025453"><ele>909.5</ele><time>2026-05-01T08:52:12.999Z</time></trkpt><trkpt lat="39.282928639747965" lon="-3.6346418759466115"><ele>909.75</ele><time>2026-05-01T08:52:13.999Z</time></trkpt><trkpt lat="39.282783740468" lon="-3.6345619934063813"><ele>910.0</ele><time>2026-05-01T08:52:14.999Z</time></trkpt><trkpt lat="39.28260533760963" lon="-3.6344816988759767"><ele>912.3333333333333</ele><time>2026-05-01T08:52:15.999Z</time></trkpt><trkpt lat="39.28242854504128" lon="-3.634383527498175"><ele>914.6666666666667</ele><time>2026-05-01T08:52:16.999Z</time></trkpt><trkpt lat="39.282240695907475" lon="-3.6342812004360816"><ele>917.0</ele><time>2026-05-01T08:52:17.999Z</time></trkpt><trkpt lat="39.282084970013784" lon="-3.6341969032748804"><ele>917.0</ele><time>2026-05-01T08:52:18.999Z</time></trkpt><trkpt lat="39.28194801966721" lon="-3.634119133788672"><ele>917.0</ele><time>2026-05-01T08:52:19.999Z</time></trkpt><trkpt lat="39.2818281471813" lon="-3.63404639925067"><ele>917.0</ele><time>2026-05-01T08:52:20.999Z</time></trkpt><trkpt lat="39.28171332098651" lon="-3.6339652160105573"><ele>917.0</ele><time>2026-05-01T08:52:21.999Z</time></trkpt><trkpt lat="39.28160141272723" lon="-3.6338613247168183"><ele>917.0</ele><time>2026-05-01T08:52:22.999Z</time></trkpt><trkpt lat="39.281492740143925" lon="-3.6337465809007727"><ele>917.0</ele><time>2026-05-01T08:52:23.999Z</time></trkpt><trkpt lat="39.281383412800544" lon="-3.6336189666192844"><ele>917.0</ele><time>2026-05-01T08:52:24.999Z</time></trkpt><trkpt lat="39.281260469345874" lon="-3.6334784487003753"><ele>919.0</ele><time>2026-05-01T08:52:25.999Z</time></trkpt><trkpt lat="39.28112275489253" lon="-3.6333318598417463"><ele>921.0</ele><time>2026-05-01T08:52:26.999Z</time></trkpt><trkpt lat="39.28096478096229" lon="-3.6331678538924717"><ele>923.0</ele><time>2026-05-01T08:52:27.999Z</time></trkpt><trkpt lat="39.28082624914174" lon="-3.633021511093646"><ele>923.0</ele><time>2026-05-01T08:52:28.999Z</time></trkpt><trkpt lat="39.280705629706816" lon="-3.632906011635612"><ele>923.0</ele><time>2026-05-01T08:52:29.999Z</time></trkpt><trkpt lat="39.280596247526475" lon="-3.6327940025474468"><ele>923.0</ele><time>2026-05-01T08:52:30.999Z</time></trkpt><trkpt lat="39.28049669105408" lon="-3.632656045806783"><ele>923.0</ele><time>2026-05-01T08:52:31.999Z</time></trkpt><trkpt lat="39.28040499756263" lon="-3.632484063087817"><ele>925.0</ele><time>2026-05-01T08:52:32.999Z</time></trkpt><trkpt lat="39.28032904040538" lon="-3.632303299490073"><ele>927.0</ele><time>2026-05-01T08:52:33.999Z</time></trkpt><trkpt lat="39.2802680686356" lon="-3.6321301209677124"><ele>929.0</ele><time>2026-05-01T08:52:34.999Z</time></trkpt><trkpt lat="39.28021667872549" lon="-3.631911919019691"><ele>930.0</ele><time>2026-05-01T08:52:35.999Z</time></trkpt><trkpt lat="39.28018956865361" lon="-3.631687121546943"><ele>931.0</ele><time>2026-05-01T08:52:36.999Z</time></trkpt><trkpt lat="39.28017271529293" lon="-3.631436805536809"><ele>932.0</ele><time>2026-05-01T08:52:37.999Z</time></trkpt><trkpt lat="39.2801653166904" lon="-3.6311908332260168"><ele>933.3333333333334</ele><time>2026-05-01T08:52:38.999Z</time></trkpt><trkpt lat="39.28015376553453" lon="-3.6309690034695983"><ele>934.6666666666667</ele><time>2026-05-01T08:52:39.999Z</time></trkpt><trkpt lat="39.28014876002397" lon="-3.6307554929537917"><ele>936.0</ele><time>2026-05-01T08:52:40.999Z</time></trkpt><trkpt lat="39.280161008993176" lon="-3.630556073947063"><ele>936.0</ele><time>2026-05-01T08:52:41.999Z</time></trkpt><trkpt lat="39.28020626417956" lon="-3.6303324615887833"><ele>936.0</ele><time>2026-05-01T08:52:42.999Z</time></trkpt><trkpt lat="39.28027018809325" lon="-3.630103430953265"><ele>936.0</ele><time>2026-05-01T08:52:43.999Z</time></trkpt><trkpt lat="39.28033448516271" lon="-3.629858708428026"><ele>937.3333333333333</ele><time>2026-05-01T08:52:44.999Z</time></trkpt><trkpt lat="39.280389529417185" lon="-3.629605607176492"><ele>938.6666666666666</ele><time>2026-05-01T08:52:45.999Z</time></trkpt><trkpt lat="39.28044229218698" lon="-3.6293828969876154"><ele>940.0</ele><time>2026-05-01T08:52:46.999Z</time></trkpt><trkpt lat="39.28048899683532" lon="-3.629190029978681"><ele>941.6666666666666</ele><time>2026-05-01T08:52:47.999Z</time></trkpt><trkpt lat="39.280536502145175" lon="-3.628995622847312"><ele>943.3333333333333</ele><time>2026-05-01T08:52:48.999Z</time></trkpt><trkpt lat="39.28058117048621" lon="-3.6287921752254664"><ele>945.0</ele><time>2026-05-01T08:52:49.999Z</time></trkpt><trkpt lat="39.280609887892716" lon="-3.6286132907054593"><ele>945.5</ele><time>2026-05-01T08:52:50.999Z</time></trkpt><trkpt lat="39.28061576320723" lon="-3.628447750458136"><ele>946.0</ele><time>2026-05-01T08:52:51.999Z</time></trkpt><trkpt lat="39.280599930204886" lon="-3.628278742702481"><ele>946.5</ele><time>2026-05-01T08:52:52.999Z</time></trkpt><trkpt lat="39.280558550484535" lon="-3.6280902485839213"><ele>947.0</ele><time>2026-05-01T08:52:53.999Z</time></trkpt><trkpt lat="39.280499825363194" lon="-3.6279270788175646"><ele>946.8</ele><time>2026-05-01T08:52:54.999Z</time></trkpt><trkpt lat="39.280428845611716" lon="-3.6277941983519515"><ele>946.6</ele><time>2026-05-01T08:52:55.999Z</time></trkpt><trkpt lat="39.280358011258" lon="-3.6276881649927364"><ele>946.3999999999999</ele><time>2026-05-01T08:52:56.999Z</time></trkpt><trkpt lat="39.28028989847908" lon="-3.62762533750076"><ele>946.1999999999999</ele><time>2026-05-01T08:52:57.999Z</time></trkpt><trkpt lat="39.28021759842598" lon="-3.6276105927076268"><ele>946.0</ele><time>2026-05-01T08:52:58.999Z</time></trkpt><trkpt lat="39.28015203234829" lon="-3.627647262667252"><ele>946.0</ele><time>2026-05-01T08:52:59.999Z</time></trkpt><trkpt lat="39.280096297494744" lon="-3.6277369689515666"><ele>945.9999999999999</ele><time>2026-05-01T08:53:00.999Z</time></trkpt><trkpt lat="39.28006324561089" lon="-3.627851011244369"><ele>945.9999999999999</ele><time>2026-05-01T08:53:01.999Z</time></trkpt><trkpt lat="39.28007905696132" lon="-3.627968769852302"><ele>946.0</ele><time>2026-05-01T08:53:02.999Z</time></trkpt><trkpt lat="39.280121167657605" lon="-3.62809142992286"><ele>946.0</ele><time>2026-05-01T08:53:03.999Z</time></trkpt><trkpt lat="39.28016052507078" lon="-3.6282428997061014"><ele>946.25</ele><time>2026-05-01T08:53:04.999Z</time></trkpt><trkpt lat="39.28015103428895" lon="-3.6284281568119656"><ele>946.5</ele><time>2026-05-01T08:53:05.999Z</time></trkpt><trkpt lat="39.280115734051584" lon="-3.6286038303799653"><ele>946.75</ele><time>2026-05-01T08:53:06.999Z</time></trkpt><trkpt lat="39.28005395352718" lon="-3.62878720868323"><ele>947.0</ele><time>2026-05-01T08:53:07.999Z</time></trkpt><trkpt lat="39.27997959656413" lon="-3.6289753082406837"><ele>946.3333333333334</ele><time>2026-05-01T08:53:08.999Z</time></trkpt><trkpt lat="39.279885137067645" lon="-3.6291904791596226"><ele>945.6666666666667</ele><time>2026-05-01T08:53:09.999Z</time></trkpt><trkpt lat="39.279777744978446" lon="-3.629423352290283"><ele>945.0</ele><time>2026-05-01T08:53:10.999Z</time></trkpt><trkpt lat="39.27965956876759" lon="-3.629652661211987"><ele>952.0</ele><time>2026-05-01T08:53:11.999Z</time></trkpt><trkpt lat="39.27951874608364" lon="-3.6299104710203878"><ele>959.0</ele><time>2026-05-01T08:53:12.999Z</time></trkpt><trkpt lat="39.27936821170383" lon="-3.630164879852534"><ele>956.3333333333334</ele><time>2026-05-01T08:53:13.999Z</time></trkpt><trkpt lat="39.27921725735858" lon="-3.6303977205325273"><ele>953.6666666666667</ele><time>2026-05-01T08:53:14.999Z</time></trkpt><trkpt lat="39.27909622670111" lon="-3.6306032001933928"><ele>951.0</ele><time>2026-05-01T08:53:15.999Z</time></trkpt><trkpt lat="39.27899068893776" lon="-3.630824244693172"><ele>954.6666666666667</ele><time>2026-05-01T08:53:16.999Z</time></trkpt><trkpt lat="39.2788895441989" lon="-3.6310740918958846"><ele>958.3333333333334</ele><time>2026-05-01T08:53:17.999Z</time></trkpt><trkpt lat="39.278785334728795" lon="-3.6313295512325676"><ele>962.0</ele><time>2026-05-01T08:53:18.999Z</time></trkpt><trkpt lat="39.27869087297245" lon="-3.6315469669571625"><ele>962.0</ele><time>2026-05-01T08:53:19.999Z</time></trkpt><trkpt lat="39.27858501532396" lon="-3.631728461516068"><ele>962.0</ele><time>2026-05-01T08:53:20.999Z</time></trkpt><trkpt lat="39.27848052504549" lon="-3.631876612607686"><ele>962.0</ele><time>2026-05-01T08:53:22Z</time></trkpt><trkpt lat="39.27838571702853" lon="-3.6320142079529885"><ele>962.0</ele><time>2026-05-01T08:53:23Z</time></trkpt><trkpt lat="39.27830891122077" lon="-3.632137425617449"><ele>962.0</ele><time>2026-05-01T08:53:24Z</time></trkpt><trkpt lat="39.27824133885546" lon="-3.6322474081122613"><ele>962.0</ele><time>2026-05-01T08:53:25Z</time></trkpt><trkpt lat="39.278181755201764" lon="-3.6323372659948485"><ele>962.0</ele><time>2026-05-01T08:53:26Z</time></trkpt><trkpt lat="39.27813603275072" lon="-3.6324011987770586"><ele>962.0</ele><time>2026-05-01T08:53:27Z</time></trkpt><trkpt lat="39.27806414654282" lon="-3.632475449656289"><ele>962.0</ele><time>2026-05-01T08:53:29Z</time></trkpt><trkpt lat="39.27806432463153" lon="-3.6325688065084227"><ele>962.0</ele><time>2026-05-01T08:53:33Z</time></trkpt></trkseg><trkseg><trkpt lat="39.27234477420002" lon="-3.6332299488208273"><ele>925.5</ele><time>2026-05-01T09:07:43.999Z</time></trkpt><trkpt lat="39.27222752763927" lon="-3.6331772946666154"><ele>927.0</ele><time>2026-05-01T09:07:44.999Z</time></trkpt><trkpt lat="39.27209811451514" lon="-3.633112776716535"><ele>928.5</ele><time>2026-05-01T09:07:45.999Z</time></trkpt><trkpt lat="39.27193815109777" lon="-3.6330109161535367"><ele>930.0</ele><time>2026-05-01T09:07:46.999Z</time></trkpt><trkpt lat="39.27177235608648" lon="-3.6329061109660756"><ele>930.0</ele><time>2026-05-01T09:07:47.999Z</time></trkpt><trkpt lat="39.271620149200665" lon="-3.6328138018965026"><ele>930.0</ele><time>2026-05-01T09:07:48.999Z</time></trkpt><trkpt lat="39.271462039462534" lon="-3.6327363041713254"><ele>930.0</ele><time>2026-05-01T09:07:49.999Z</time></trkpt><trkpt lat="39.271311413006174" lon="-3.632679817245191"><ele>921.3333333333333</ele><time>2026-05-01T09:07:50.999Z</time></trkpt><trkpt lat="39.27115550211808" lon="-3.632632138579816"><ele>912.6666666666666</ele><time>2026-05-01T09:07:51.999Z</time></trkpt><trkpt lat="39.271007846061956" lon="-3.632608867630404"><ele>904.0</ele><time>2026-05-01T09:07:52.999Z</time></trkpt><trkpt lat="39.27085609325603" lon="-3.6325958336411426"><ele>904.0</ele><time>2026-05-01T09:07:53.999Z</time></trkpt><trkpt lat="39.27070627698127" lon="-3.632586323968651"><ele>904.0</ele><time>2026-05-01T09:07:54.999Z</time></trkpt><trkpt lat="39.27055677484856" lon="-3.63258563773296"><ele>904.0</ele><time>2026-05-01T09:07:55.999Z</time></trkpt><trkpt lat="39.27040996248545" lon="-3.63259601668769"><ele>904.0</ele><time>2026-05-01T09:07:56.999Z</time></trkpt><trkpt lat="39.27026510745816" lon="-3.632606831620677"><ele>901.75</ele><time>2026-05-01T09:07:57.998Z</time></trkpt><trkpt lat="39.27012840021137" lon="-3.632624053518199"><ele>899.5</ele><time>2026-05-01T09:07:58.998Z</time></trkpt><trkpt lat="39.27000039614781" lon="-3.632656842190628"><ele>897.25</ele><time>2026-05-01T09:07:59.998Z</time></trkpt><trkpt lat="39.269880295801684" lon="-3.6326994731665767"><ele>895.0</ele><time>2026-05-01T09:08:00.998Z</time></trkpt><trkpt lat="39.26976596243707" lon="-3.6327430232059266"><ele>895.6</ele><time>2026-05-01T09:08:01.998Z</time></trkpt><trkpt lat="39.26965878763305" lon="-3.632797063824534"><ele>896.2</ele><time>2026-05-01T09:08:02.998Z</time></trkpt><trkpt lat="39.26956010325042" lon="-3.632859998995783"><ele>896.8</ele><time>2026-05-01T09:08:04Z</time></trkpt><trkpt lat="39.26946817092318" lon="-3.632932790704078"><ele>897.4</ele><time>2026-05-01T09:08:05Z</time></trkpt><trkpt lat="39.26937515865189" lon="-3.6330120304950415"><ele>898.0</ele><time>2026-05-01T09:08:06Z</time></trkpt><trkpt lat="39.26927086183136" lon="-3.6331018656916654"><ele>898.0</ele><time>2026-05-01T09:08:07Z</time></trkpt><trkpt lat="39.26914817363073" lon="-3.633221839155657"><ele>898.0</ele><time>2026-05-01T09:08:08Z</time></trkpt><trkpt lat="39.26904784906265" lon="-3.6333441160748645"><ele>898.0</ele><time>2026-05-01T09:08:09Z</time></trkpt><trkpt lat="39.268947482152676" lon="-3.6334439534245098"><ele>898.0</ele><time>2026-05-01T09:08:10Z</time></trkpt><trkpt lat="39.26884677663769" lon="-3.6335479139290943"><ele>899.1666666666666</ele><time>2026-05-01T09:08:11Z</time></trkpt><trkpt lat="39.268753856817156" lon="-3.633644512738379"><ele>900.3333333333333</ele><time>2026-05-01T09:08:12Z</time></trkpt><trkpt lat="39.268676962885706" lon="-3.633723763140201"><ele>901.5</ele><time>2026-05-01T09:08:13Z</time></trkpt><trkpt lat="39.26860855275851" lon="-3.6337689626731184"><ele>902.6666666666667</ele><time>2026-05-01T09:08:14Z</time></trkpt><trkpt lat="39.26854234870268" lon="-3.6337670552053942"><ele>903.8333333333334</ele><time>2026-05-01T09:08:15Z</time></trkpt><trkpt lat="39.26848021159783" lon="-3.6337184136783627"><ele>905.0</ele><time>2026-05-01T09:08:16Z</time></trkpt><trkpt lat="39.26843855626662" lon="-3.6336288464546542"><ele>901.8333333333334</ele><time>2026-05-01T09:08:17Z</time></trkpt><trkpt lat="39.26841655179829" lon="-3.6335125331817606"><ele>898.6666666666667</ele><time>2026-05-01T09:08:18Z</time></trkpt><trkpt lat="39.268396530957894" lon="-3.6333934574630278"><ele>895.5</ele><time>2026-05-01T09:08:19Z</time></trkpt><trkpt lat="39.26837510961106" lon="-3.633280744724394"><ele>892.3333333333333</ele><time>2026-05-01T09:08:20Z</time></trkpt><trkpt lat="39.2683490218099" lon="-3.6331752724028354"><ele>889.1666666666666</ele><time>2026-05-01T09:08:21Z</time></trkpt><trkpt lat="39.26831263249879" lon="-3.6330848121533332"><ele>886.0</ele><time>2026-05-01T09:08:22Z</time></trkpt><trkpt lat="39.26826377203068" lon="-3.6330143375708124"><ele>886.0</ele><time>2026-05-01T09:08:23Z</time></trkpt><trkpt lat="39.26820609611599" lon="-3.632945256464026"><ele>885.9999999999999</ele><time>2026-05-01T09:08:24Z</time></trkpt><trkpt lat="39.2681337735813" lon="-3.632867438156496"><ele>885.9999999999999</ele><time>2026-05-01T09:08:25Z</time></trkpt><trkpt lat="39.2680244516241" lon="-3.63278064567386"><ele>886.0</ele><time>2026-05-01T09:08:26Z</time></trkpt><trkpt lat="39.26788791034871" lon="-3.6327137172176154"><ele>886.0</ele><time>2026-05-01T09:08:27Z</time></trkpt><trkpt lat="39.267731197591665" lon="-3.6326794450599724"><ele>881.6666666666666</ele><time>2026-05-01T09:08:28Z</time></trkpt><trkpt lat="39.267541445174345" lon="-3.6326642715099684"><ele>877.3333333333333</ele><time>2026-05-01T09:08:29Z</time></trkpt><trkpt lat="39.26730900845942" lon="-3.632662382164577"><ele>873.0</ele><time>2026-05-01T09:08:30Z</time></trkpt><trkpt lat="39.26707757434936" lon="-3.6326560407317356"><ele>875.6666666666667</ele><time>2026-05-01T09:08:31Z</time></trkpt><trkpt lat="39.26685115445944" lon="-3.6326563048447533"><ele>878.3333333333334</ele><time>2026-05-01T09:08:32Z</time></trkpt><trkpt lat="39.26675229711165" lon="-3.632777468692075"><ele>881.0</ele><time>2026-05-01T09:08:33Z</time></trkpt><trkpt lat="39.26651154448263" lon="-3.6328702504556003"><ele>873.5</ele><time>2026-05-01T09:08:34Z</time></trkpt><trkpt lat="39.26626570698009" lon="-3.632971379377329"><ele>866.0</ele><time>2026-05-01T09:08:35Z</time></trkpt><trkpt lat="39.266054421512905" lon="-3.6330558810858204"><ele>866.0</ele><time>2026-05-01T09:08:36Z</time></trkpt><trkpt lat="39.2658700501377" lon="-3.6331531124158554"><ele>866.0</ele><time>2026-05-01T09:08:37Z</time></trkpt><trkpt lat="39.26570239768972" lon="-3.6332706863103446"><ele>866.0</ele><time>2026-05-01T09:08:38Z</time></trkpt><trkpt lat="39.265529285500456" lon="-3.6334180046044895"><ele>863.0</ele><time>2026-05-01T09:08:39Z</time></trkpt><trkpt lat="39.2653345352251" lon="-3.633597776878935"><ele>860.0</ele><time>2026-05-01T09:08:40Z</time></trkpt><trkpt lat="39.26512600566602" lon="-3.6338008802211044"><ele>860.0</ele><time>2026-05-01T09:08:41Z</time></trkpt><trkpt lat="39.264947518565705" lon="-3.633992107177215"><ele>860.0</ele><time>2026-05-01T09:08:42Z</time></trkpt><trkpt lat="39.264795690163176" lon="-3.6341695268340923"><ele>860.0</ele><time>2026-05-01T09:08:43Z</time></trkpt><trkpt lat="39.26466509754834" lon="-3.634332005373058"><ele>858.75</ele><time>2026-05-01T09:08:44Z</time></trkpt><trkpt lat="39.264550071275245" lon="-3.634489161186553"><ele>857.5</ele><time>2026-05-01T09:08:45Z</time></trkpt><trkpt lat="39.26446479192666" lon="-3.6346281327053758"><ele>856.25</ele><time>2026-05-01T09:08:46Z</time></trkpt><trkpt lat="39.264380980256924" lon="-3.634737663225067"><ele>855.0</ele><time>2026-05-01T09:08:47Z</time></trkpt><trkpt lat="39.264279828424364" lon="-3.6348039261527747"><ele>855.0</ele><time>2026-05-01T09:08:47.999Z</time></trkpt><trkpt lat="39.26414608018792" lon="-3.6348437098821726"><ele>855.0</ele><time>2026-05-01T09:08:48.999Z</time></trkpt><trkpt lat="39.263985618240746" lon="-3.6348668921709653"><ele>855.0</ele><time>2026-05-01T09:08:49.999Z</time></trkpt><trkpt lat="39.263852357289274" lon="-3.6349225064874044"><ele>855.0</ele><time>2026-05-01T09:08:50.999Z</time></trkpt><trkpt lat="39.263746499943416" lon="-3.6350264808474155"><ele>852.0</ele><time>2026-05-01T09:08:51.999Z</time></trkpt><trkpt lat="39.26363857709469" lon="-3.635179764470493"><ele>849.0</ele><time>2026-05-01T09:08:52.999Z</time></trkpt><trkpt lat="39.26351801055838" lon="-3.635375096558743"><ele>846.0</ele><time>2026-05-01T09:08:53.999Z</time></trkpt><trkpt lat="39.26338775700024" lon="-3.6355793342797456"><ele>846.0</ele><time>2026-05-01T09:08:54.999Z</time></trkpt><trkpt lat="39.263266386854745" lon="-3.6357692486851896"><ele>846.0</ele><time>2026-05-01T09:08:55.999Z</time></trkpt><trkpt lat="39.26317460969261" lon="-3.6359387828439953"><ele>846.0</ele><time>2026-05-01T09:08:56.999Z</time></trkpt><trkpt lat="39.26309694343494" lon="-3.636100464917558"><ele>848.0</ele><time>2026-05-01T09:08:57.999Z</time></trkpt><trkpt lat="39.2630263449978" lon="-3.636241984974651"><ele>850.0</ele><time>2026-05-01T09:08:58.999Z</time></trkpt><trkpt lat="39.262965481518755" lon="-3.636361456551543"><ele>851.9999999999999</ele><time>2026-05-01T09:08:59.999Z</time></trkpt><trkpt lat="39.262902862025" lon="-3.6364542188498876"><ele>854.0</ele><time>2026-05-01T09:09:00.999Z</time></trkpt><trkpt lat="39.26283446567432" lon="-3.6364908476473605"><ele>856.0</ele><time>2026-05-01T09:09:01.999Z</time></trkpt><trkpt lat="39.262764790433025" lon="-3.6364729287093414"><ele>856.0</ele><time>2026-05-01T09:09:02.999Z</time></trkpt><trkpt lat="39.26269954017368" lon="-3.6364185753807954"><ele>855.9999999999999</ele><time>2026-05-01T09:09:03.999Z</time></trkpt><trkpt lat="39.26266191150421" lon="-3.636325780460792"><ele>855.9999999999999</ele><time>2026-05-01T09:09:04.999Z</time></trkpt><trkpt lat="39.262666434164714" lon="-3.636217750766448"><ele>856.0</ele><time>2026-05-01T09:09:05.999Z</time></trkpt><trkpt lat="39.262700663280334" lon="-3.636092826593611"><ele>856.0</ele><time>2026-05-01T09:09:06.999Z</time></trkpt><trkpt lat="39.26274098190133" lon="-3.6359268733222825"><ele>854.0</ele><time>2026-05-01T09:09:07.999Z</time></trkpt><trkpt lat="39.26277114573058" lon="-3.6357296770379177"><ele>852.0</ele><time>2026-05-01T09:09:08.999Z</time></trkpt><trkpt lat="39.26278319273572" lon="-3.6355033643268473"><ele>850.0</ele><time>2026-05-01T09:09:09.999Z</time></trkpt><trkpt lat="39.26279318232126" lon="-3.6352544959549555"><ele>848.6666666666666</ele><time>2026-05-01T09:09:10.999Z</time></trkpt><trkpt lat="39.2628043473349" lon="-3.634982711723427"><ele>847.3333333333333</ele><time>2026-05-01T09:09:11.999Z</time></trkpt><trkpt lat="39.26280840037101" lon="-3.6347132015055967"><ele>846.0</ele><time>2026-05-01T09:09:12.999Z</time></trkpt><trkpt lat="39.262807406530555" lon="-3.634489620505549"><ele>846.6666666666667</ele><time>2026-05-01T09:09:13.999Z</time></trkpt><trkpt lat="39.262830000837184" lon="-3.634251558018399"><ele>847.3333333333334</ele><time>2026-05-01T09:09:14.999Z</time></trkpt><trkpt lat="39.26287482631101" lon="-3.634021092227559"><ele>848.0</ele><time>2026-05-01T09:09:15.999Z</time></trkpt><trkpt lat="39.26294226151401" lon="-3.6337694524098554"><ele>847.0</ele><time>2026-05-01T09:09:16.999Z</time></trkpt><trkpt lat="39.263008578448456" lon="-3.633483406388067"><ele>846.0</ele><time>2026-05-01T09:09:17.999Z</time></trkpt><trkpt lat="39.263061215090076" lon="-3.6331843561888273"><ele>846.0</ele><time>2026-05-01T09:09:18.999Z</time></trkpt><trkpt lat="39.26310290690649" lon="-3.632923964625676"><ele>846.0</ele><time>2026-05-01T09:09:19.999Z</time></trkpt><trkpt lat="39.263129564740424" lon="-3.632677747995192"><ele>846.0</ele><time>2026-05-01T09:09:20.999Z</time></trkpt><trkpt lat="39.26313379582984" lon="-3.6324663306882727"><ele>845.0</ele><time>2026-05-01T09:09:21.999Z</time></trkpt><trkpt lat="39.263120897009344" lon="-3.6322606653620517"><ele>844.0</ele><time>2026-05-01T09:09:22.999Z</time></trkpt><trkpt lat="39.263086818037756" lon="-3.632055710959743"><ele>843.0</ele><time>2026-05-01T09:09:23.999Z</time></trkpt><trkpt lat="39.26306718695772" lon="-3.6318851157919747"><ele>840.3333333333333</ele><time>2026-05-01T09:09:24.999Z</time></trkpt><trkpt lat="39.263091805249005" lon="-3.6317204930166205"><ele>837.6666666666666</ele><time>2026-05-01T09:09:25.999Z</time></trkpt><trkpt lat="39.263157563712426" lon="-3.631523436933445"><ele>835.0</ele><time>2026-05-01T09:09:26.999Z</time></trkpt><trkpt lat="39.263243919003244" lon="-3.6312854070920015"><ele>829.0</ele><time>2026-05-01T09:09:27.999Z</time></trkpt><trkpt lat="39.26330653886408" lon="-3.6310510901191217"><ele>823.0</ele><time>2026-05-01T09:09:28.999Z</time></trkpt><trkpt lat="39.263325917530054" lon="-3.6308168759109707"><ele>817.0</ele><time>2026-05-01T09:09:29.999Z</time></trkpt><trkpt lat="39.26332849208753" lon="-3.6305511360690614"><ele>816.0</ele><time>2026-05-01T09:09:30.999Z</time></trkpt><trkpt lat="39.26333118210706" lon="-3.630245056578555"><ele>815.0</ele><time>2026-05-01T09:09:31.999Z</time></trkpt><trkpt lat="39.263341758269576" lon="-3.629940343922752"><ele>815.0</ele><time>2026-05-01T09:09:32.999Z</time></trkpt><trkpt lat="39.26333518075667" lon="-3.6296661896272537"><ele>815.0</ele><time>2026-05-01T09:09:33.999Z</time></trkpt><trkpt lat="39.26331247369908" lon="-3.6294379295169605"><ele>815.0</ele><time>2026-05-01T09:09:34.999Z</time></trkpt><trkpt lat="39.263282024139016" lon="-3.6292577190795425"><ele>815.2</ele><time>2026-05-01T09:09:35.999Z</time></trkpt><trkpt lat="39.26323576606499" lon="-3.6291125893827743"><ele>815.4</ele><time>2026-05-01T09:09:36.999Z</time></trkpt><trkpt lat="39.26316780052306" lon="-3.6289830251008346"><ele>815.5999999999999</ele><time>2026-05-01T09:09:37.999Z</time></trkpt><trkpt lat="39.26309278172094" lon="-3.6288794003565963"><ele>815.8</ele><time>2026-05-01T09:09:38.999Z</time></trkpt><trkpt lat="39.263016348953784" lon="-3.628811157695766"><ele>816.0</ele><time>2026-05-01T09:09:39.999Z</time></trkpt><trkpt lat="39.262914265747646" lon="-3.6287620268776837"><ele>816.0</ele><time>2026-05-01T09:09:40.999Z</time></trkpt><trkpt lat="39.26278014349066" lon="-3.6287453853198386"><ele>816.0</ele><time>2026-05-01T09:09:41.999Z</time></trkpt><trkpt lat="39.26261966154982" lon="-3.628741505702576"><ele>816.0</ele><time>2026-05-01T09:09:42.999Z</time></trkpt><trkpt lat="39.2624678583348" lon="-3.6287318147638814"><ele>816.0</ele><time>2026-05-01T09:09:43.999Z</time></trkpt><trkpt lat="39.26235850397333" lon="-3.6286912693313798"><ele>814.25</ele><time>2026-05-01T09:09:44.999Z</time></trkpt><trkpt lat="39.262287371231054" lon="-3.6286139447750623"><ele>812.5</ele><time>2026-05-01T09:09:45.999Z</time></trkpt><trkpt lat="39.26224759925756" lon="-3.6284973695346063"><ele>810.75</ele><time>2026-05-01T09:09:46.999Z</time></trkpt><trkpt lat="39.262228631972874" lon="-3.6283388898677664"><ele>809.0</ele><time>2026-05-01T09:09:47.999Z</time></trkpt><trkpt lat="39.262221541558006" lon="-3.6281456581485543"><ele>809.0</ele><time>2026-05-01T09:09:48.999Z</time></trkpt><trkpt lat="39.26220835611601" lon="-3.627929670947727"><ele>809.0</ele><time>2026-05-01T09:09:49.999Z</time></trkpt><trkpt lat="39.262166283087566" lon="-3.62775116123268"><ele>809.0</ele><time>2026-05-01T09:09:50.999Z</time></trkpt><trkpt lat="39.26208685649653" lon="-3.6275916168628792"><ele>806.75</ele><time>2026-05-01T09:09:51.999Z</time></trkpt><trkpt lat="39.26198375590539" lon="-3.62745105999281"><ele>804.5</ele><time>2026-05-01T09:09:52.999Z</time></trkpt><trkpt lat="39.261876896237254" lon="-3.627344788812285"><ele>802.25</ele><time>2026-05-01T09:09:53.999Z</time></trkpt><trkpt lat="39.26177381918212" lon="-3.6273032675560772"><ele>800.0</ele><time>2026-05-01T09:09:54.999Z</time></trkpt><trkpt lat="39.26164431870358" lon="-3.6272909953324604"><ele>800.0</ele><time>2026-05-01T09:09:55.999Z</time></trkpt><trkpt lat="39.26150630238102" lon="-3.6272867247389913"><ele>800.0</ele><time>2026-05-01T09:09:56.999Z</time></trkpt><trkpt lat="39.26137977498707" lon="-3.627251996405642"><ele>800.0</ele><time>2026-05-01T09:09:57.999Z</time></trkpt><trkpt lat="39.2612838703969" lon="-3.6271712770727236"><ele>800.0</ele><time>2026-05-01T09:09:58.999Z</time></trkpt><trkpt lat="39.2612343230126" lon="-3.6270534876532765"><ele>799.25</ele><time>2026-05-01T09:09:59.999Z</time></trkpt><trkpt lat="39.261211337292394" lon="-3.626902468091715"><ele>798.5</ele><time>2026-05-01T09:10:00.999Z</time></trkpt><trkpt lat="39.261196742440355" lon="-3.626702769335235"><ele>797.75</ele><time>2026-05-01T09:10:01.999Z</time></trkpt><trkpt lat="39.26117404438447" lon="-3.6265195542525537"><ele>797.0</ele><time>2026-05-01T09:10:02.999Z</time></trkpt><trkpt lat="39.261131957105206" lon="-3.62636707113344"><ele>797.0</ele><time>2026-05-01T09:10:03.999Z</time></trkpt><trkpt lat="39.26107597774369" lon="-3.6262366113154925"><ele>797.0</ele><time>2026-05-01T09:10:04.998Z</time></trkpt><trkpt lat="39.261002062019855" lon="-3.626109052461707"><ele>797.0</ele><time>2026-05-01T09:10:05.998Z</time></trkpt><trkpt lat="39.260909494115914" lon="-3.625968617369848"><ele>797.0</ele><time>2026-05-01T09:10:06.998Z</time></trkpt><trkpt lat="39.26079649678856" lon="-3.6257952695470297"><ele>795.0</ele><time>2026-05-01T09:10:07.998Z</time></trkpt><trkpt lat="39.26067494270285" lon="-3.6256034258996426"><ele>793.0</ele><time>2026-05-01T09:10:08.998Z</time></trkpt><trkpt lat="39.260548478414314" lon="-3.6254199928386446"><ele>791.0</ele><time>2026-05-01T09:10:10Z</time></trkpt><trkpt lat="39.26039308900351" lon="-3.625224850934583"><ele>787.5</ele><time>2026-05-01T09:10:11Z</time></trkpt><trkpt lat="39.26020113846283" lon="-3.6250341514794218"><ele>784.0</ele><time>2026-05-01T09:10:12Z</time></trkpt><trkpt lat="39.26000597453657" lon="-3.6248476714438636"><ele>784.0</ele><time>2026-05-01T09:10:13Z</time></trkpt><trkpt lat="39.25983220095633" lon="-3.624687270047429"><ele>784.0</ele><time>2026-05-01T09:10:14Z</time></trkpt><trkpt lat="39.25965039774956" lon="-3.6245436107857154"><ele>784.0</ele><time>2026-05-01T09:10:15Z</time></trkpt><trkpt lat="39.25944680629243" lon="-3.6244102233144835"><ele>781.6666666666666</ele><time>2026-05-01T09:10:16Z</time></trkpt><trkpt lat="39.25925502324041" lon="-3.6242932025015353"><ele>779.3333333333333</ele><time>2026-05-01T09:10:17Z</time></trkpt><trkpt lat="39.259080954306185" lon="-3.624177624977531"><ele>777.0</ele><time>2026-05-01T09:10:18Z</time></trkpt><trkpt lat="39.258910651287344" lon="-3.624061778113026"><ele>776.0</ele><time>2026-05-01T09:10:19Z</time></trkpt><trkpt lat="39.25875902234021" lon="-3.623960428643786"><ele>775.0</ele><time>2026-05-01T09:10:20Z</time></trkpt><trkpt lat="39.258589671207744" lon="-3.623844377104278"><ele>774.0</ele><time>2026-05-01T09:10:21Z</time></trkpt><trkpt lat="39.25840996762972" lon="-3.6237234530685627"><ele>773.0</ele><time>2026-05-01T09:10:22Z</time></trkpt><trkpt lat="39.258216663079644" lon="-3.6235912931153793"><ele>772.0</ele><time>2026-05-01T09:10:23Z</time></trkpt><trkpt lat="39.258043408324795" lon="-3.6234729718676815"><ele>771.0</ele><time>2026-05-01T09:10:24Z</time></trkpt><trkpt lat="39.2578686893184" lon="-3.6233515753928747"><ele>769.6666666666666</ele><time>2026-05-01T09:10:25Z</time></trkpt><trkpt lat="39.25770641221405" lon="-3.623240989499949"><ele>768.3333333333333</ele><time>2026-05-01T09:10:26Z</time></trkpt><trkpt lat="39.25757043351857" lon="-3.6231484928313304"><ele>767.0</ele><time>2026-05-01T09:10:27Z</time></trkpt><trkpt lat="39.257446912999804" lon="-3.623070328766723"><ele>767.0</ele><time>2026-05-01T09:10:28Z</time></trkpt><trkpt lat="39.25734546758196" lon="-3.623000757486983"><ele>767.0</ele><time>2026-05-01T09:10:29Z</time></trkpt><trkpt lat="39.257265526401575" lon="-3.6229307339475527"><ele>767.0</ele><time>2026-05-01T09:10:30Z</time></trkpt><trkpt lat="39.25721736624852" lon="-3.6228385310335742"><ele>767.0</ele><time>2026-05-01T09:10:31Z</time></trkpt><trkpt lat="39.25719698670284" lon="-3.62270030814734"><ele>767.0</ele><time>2026-05-01T09:10:32Z</time></trkpt><trkpt lat="39.25720024551518" lon="-3.622493092776049"><ele>768.0</ele><time>2026-05-01T09:10:33Z</time></trkpt><trkpt lat="39.25719139066223" lon="-3.6222671995727334"><ele>769.0</ele><time>2026-05-01T09:10:34Z</time></trkpt><trkpt lat="39.25717971307305" lon="-3.622024184015667"><ele>770.0</ele><time>2026-05-01T09:10:35Z</time></trkpt><trkpt lat="39.25716698862922" lon="-3.6217693726287967"><ele>770.0</ele><time>2026-05-01T09:10:36Z</time></trkpt><trkpt lat="39.25715297358199" lon="-3.6215540794044347"><ele>770.0</ele><time>2026-05-01T09:10:37Z</time></trkpt><trkpt lat="39.25714276153991" lon="-3.621303287164787"><ele>770.0</ele><time>2026-05-01T09:10:38Z</time></trkpt><trkpt lat="39.25713478723579" lon="-3.6210427224755506"><ele>769.5</ele><time>2026-05-01T09:10:39Z</time></trkpt><trkpt lat="39.25712476766572" lon="-3.620826400428186"><ele>769.0</ele><time>2026-05-01T09:10:40Z</time></trkpt><trkpt lat="39.25711226098805" lon="-3.6206482492736516"><ele>768.5</ele><time>2026-05-01T09:10:41Z</time></trkpt><trkpt lat="39.25709403549805" lon="-3.6204914919018663"><ele>768.0</ele><time>2026-05-01T09:10:42Z</time></trkpt><trkpt lat="39.25705405537237" lon="-3.620333477112725"><ele>766.6666666666666</ele><time>2026-05-01T09:10:43Z</time></trkpt><trkpt lat="39.25698211667318" lon="-3.620155220679915"><ele>765.3333333333333</ele><time>2026-05-01T09:10:44Z</time></trkpt><trkpt lat="39.256880159027894" lon="-3.6199575315674646"><ele>764.0</ele><time>2026-05-01T09:10:45Z</time></trkpt><trkpt lat="39.25676031404795" lon="-3.619748717656644"><ele>764.0</ele><time>2026-05-01T09:10:46Z</time></trkpt><trkpt lat="39.256641678412144" lon="-3.619533138152516"><ele>764.0</ele><time>2026-05-01T09:10:47Z</time></trkpt><trkpt lat="39.25651264677343" lon="-3.61928490590787"><ele>764.0</ele><time>2026-05-01T09:10:48Z</time></trkpt><trkpt lat="39.25639207040749" lon="-3.6190543065385925"><ele>763.6666666666666</ele><time>2026-05-01T09:10:49Z</time></trkpt><trkpt lat="39.25627992976199" lon="-3.618838175751129"><ele>763.3333333333334</ele><time>2026-05-01T09:10:50Z</time></trkpt><trkpt lat="39.25616999036205" lon="-3.6186365433464167"><ele>763.0</ele><time>2026-05-01T09:10:51Z</time></trkpt><trkpt lat="39.256076479998185" lon="-3.618477339523732"><ele>760.6666666666667</ele><time>2026-05-01T09:10:52Z</time></trkpt><trkpt lat="39.25598367567587" lon="-3.6183291981936976"><ele>758.3333333333334</ele><time>2026-05-01T09:10:53Z</time></trkpt><trkpt lat="39.25588294972855" lon="-3.6181881566850187"><ele>756.0</ele><time>2026-05-01T09:10:54Z</time></trkpt><trkpt lat="39.25573818464002" lon="-3.618021770988635"><ele>756.0</ele><time>2026-05-01T09:10:54.999Z</time></trkpt><trkpt lat="39.25556333804077" lon="-3.6178519196928387"><ele>756.0</ele><time>2026-05-01T09:10:55.999Z</time></trkpt><trkpt lat="39.255366731277675" lon="-3.6176757850380192"><ele>756.0</ele><time>2026-05-01T09:10:56.999Z</time></trkpt><trkpt lat="39.2551848567169" lon="-3.617509440988605"><ele>756.0</ele><time>2026-05-01T09:10:57.999Z</time></trkpt><trkpt lat="39.25503097025641" lon="-3.6173630265696546"><ele>756.0</ele><time>2026-05-01T09:10:58.999Z</time></trkpt><trkpt lat="39.25486329851112" lon="-3.617206565519132"><ele>756.0</ele><time>2026-05-01T09:10:59.999Z</time></trkpt><trkpt lat="39.25467737616155" lon="-3.6170379584230075"><ele>756.0</ele><time>2026-05-01T09:11:00.999Z</time></trkpt><trkpt lat="39.25449761380493" lon="-3.616866426967272"><ele>754.3333333333334</ele><time>2026-05-01T09:11:01.999Z</time></trkpt><trkpt lat="39.25433091526848" lon="-3.6167060224044327"><ele>752.6666666666667</ele><time>2026-05-01T09:11:02.999Z</time></trkpt><trkpt lat="39.25417642163151" lon="-3.616554894876523"><ele>751.0</ele><time>2026-05-01T09:11:03.999Z</time></trkpt><trkpt lat="39.2540135542002" lon="-3.616383645001083"><ele>750.5</ele><time>2026-05-01T09:11:04.999Z</time></trkpt><trkpt lat="39.253853867159975" lon="-3.6161744930880304"><ele>750.0</ele><time>2026-05-01T09:11:05.999Z</time></trkpt><trkpt lat="39.253697729145195" lon="-3.6159292244566186"><ele>749.0</ele><time>2026-05-01T09:11:06.999Z</time></trkpt><trkpt lat="39.25355900841509" lon="-3.615697554722646"><ele>748.0</ele><time>2026-05-01T09:11:07.999Z</time></trkpt><trkpt lat="39.25342693272543" lon="-3.6154824217642934"><ele>747.0</ele><time>2026-05-01T09:11:08.999Z</time></trkpt><trkpt lat="39.253315146816725" lon="-3.6152974264151223"><ele>746.3333333333334</ele><time>2026-05-01T09:11:09.999Z</time></trkpt><trkpt lat="39.25319790825693" lon="-3.615066190616538"><ele>745.6666666666667</ele><time>2026-05-01T09:11:10.999Z</time></trkpt><trkpt lat="39.25308827496241" lon="-3.614817321434893"><ele>745.0</ele><time>2026-05-01T09:11:11.999Z</time></trkpt><trkpt lat="39.25298259445761" lon="-3.614550367703671"><ele>742.0</ele><time>2026-05-01T09:11:12.999Z</time></trkpt><trkpt lat="39.252885094220474" lon="-3.614302382070452"><ele>739.0</ele><time>2026-05-01T09:11:13.999Z</time></trkpt><trkpt lat="39.252795359040704" lon="-3.6140801639928593"><ele>736.0</ele><time>2026-05-01T09:11:14.999Z</time></trkpt><trkpt lat="39.252706819135696" lon="-3.613886412142304"><ele>736.0</ele><time>2026-05-01T09:11:15.999Z</time></trkpt><trkpt lat="39.25259623926985" lon="-3.6137236761308857"><ele>736.0</ele><time>2026-05-01T09:11:16.999Z</time></trkpt><trkpt lat="39.25246019987842" lon="-3.6135764950792093"><ele>736.0</ele><time>2026-05-01T09:11:17.999Z</time></trkpt><trkpt lat="39.25229425809227" lon="-3.613431738531605"><ele>734.0</ele><time>2026-05-01T09:11:18.999Z</time></trkpt><trkpt lat="39.25212901073409" lon="-3.6133042906043715"><ele>732.0</ele><time>2026-05-01T09:11:19.999Z</time></trkpt><trkpt lat="39.251956151026384" lon="-3.6131621025892255"><ele>730.0</ele><time>2026-05-01T09:11:20.999Z</time></trkpt><trkpt lat="39.251766851942094" lon="-3.6129935299958476"><ele>730.0</ele><time>2026-05-01T09:11:21.999Z</time></trkpt><trkpt lat="39.25155304433323" lon="-3.6128025372260084"><ele>730.0</ele><time>2026-05-01T09:11:22.999Z</time></trkpt><trkpt lat="39.2513607249086" lon="-3.612636782746217"><ele>728.3333333333334</ele><time>2026-05-01T09:11:23.999Z</time></trkpt><trkpt lat="39.25119680365047" lon="-3.612496685121341"><ele>726.6666666666666</ele><time>2026-05-01T09:11:24.999Z</time></trkpt><trkpt lat="39.25103490273745" lon="-3.6123522613745163"><ele>725.0</ele><time>2026-05-01T09:11:25.999Z</time></trkpt><trkpt lat="39.250873862072666" lon="-3.612202477380052"><ele>725.0</ele><time>2026-05-01T09:11:26.999Z</time></trkpt><trkpt lat="39.25070307152357" lon="-3.6120596927717763"><ele>725.0</ele><time>2026-05-01T09:11:27.999Z</time></trkpt><trkpt lat="39.25055435750274" lon="-3.6119365680429416"><ele>725.0</ele><time>2026-05-01T09:11:28.999Z</time></trkpt><trkpt lat="39.25041066039051" lon="-3.6118229570923255"><ele>723.6666666666666</ele><time>2026-05-01T09:11:29.999Z</time></trkpt><trkpt lat="39.25026848968557" lon="-3.611725539784361"><ele>722.3333333333334</ele><time>2026-05-01T09:11:30.999Z</time></trkpt><trkpt lat="39.25012341215295" lon="-3.6116290352972475"><ele>721.0</ele><time>2026-05-01T09:11:31.999Z</time></trkpt><trkpt lat="39.24998661848213" lon="-3.6115292635188405"><ele>721.0</ele><time>2026-05-01T09:11:32.999Z</time></trkpt><trkpt lat="39.24984229993221" lon="-3.611429445980826"><ele>721.0</ele><time>2026-05-01T09:11:33.999Z</time></trkpt><trkpt lat="39.24968581572137" lon="-3.6113412115497905"><ele>721.0</ele><time>2026-05-01T09:11:34.999Z</time></trkpt><trkpt lat="39.24950120918499" lon="-3.6112599429320333"><ele>720.3333333333334</ele><time>2026-05-01T09:11:35.999Z</time></trkpt><trkpt lat="39.24928795233826" lon="-3.6111933843349644"><ele>719.6666666666666</ele><time>2026-05-01T09:11:36.999Z</time></trkpt><trkpt lat="39.24909888174152" lon="-3.611172952766393"><ele>719.0</ele><time>2026-05-01T09:11:37.999Z</time></trkpt><trkpt lat="39.24893304531532" lon="-3.6111653987992756"><ele>719.0</ele><time>2026-05-01T09:11:38.999Z</time></trkpt><trkpt lat="39.24879697969226" lon="-3.6111733485154143"><ele>719.0</ele><time>2026-05-01T09:11:39.999Z</time></trkpt><trkpt lat="39.248666776106155" lon="-3.6111859262002026"><ele>719.0</ele><time>2026-05-01T09:11:40.999Z</time></trkpt><trkpt lat="39.248518082546184" lon="-3.611178162608523"><ele>719.0</ele><time>2026-05-01T09:11:41.999Z</time></trkpt><trkpt lat="39.24825454663734" lon="-3.6109866099608903"><ele>716.0</ele><time>2026-05-01T09:11:42.999Z</time></trkpt><trkpt lat="39.2480787749161" lon="-3.610943744105937"><ele>713.0</ele><time>2026-05-01T09:11:43.999Z</time></trkpt><trkpt lat="39.247902625548214" lon="-3.6108805193053635"><ele>710.0</ele><time>2026-05-01T09:11:44.999Z</time></trkpt><trkpt lat="39.24771018902768" lon="-3.6107774096422345"><ele>710.0</ele><time>2026-05-01T09:11:45.999Z</time></trkpt><trkpt lat="39.247501637780985" lon="-3.6106381145270374"><ele>710.0</ele><time>2026-05-01T09:11:46.999Z</time></trkpt><trkpt lat="39.247281156844195" lon="-3.6104888886488453"><ele>711.0</ele><time>2026-05-01T09:11:47.999Z</time></trkpt><trkpt lat="39.247030864043744" lon="-3.6103371508680087"><ele>712.0</ele><time>2026-05-01T09:11:48.999Z</time></trkpt><trkpt lat="39.24680456585126" lon="-3.6102087441251065"><ele>710.0</ele><time>2026-05-01T09:11:49.999Z</time></trkpt><trkpt lat="39.24660583048472" lon="-3.6100862846973687"><ele>708.0</ele><time>2026-05-01T09:11:50.999Z</time></trkpt><trkpt lat="39.24641659654013" lon="-3.6099811790483827"><ele>706.0</ele><time>2026-05-01T09:11:51.999Z</time></trkpt><trkpt lat="39.24622912979921" lon="-3.609916551477979"><ele>704.6666666666667</ele><time>2026-05-01T09:11:52.999Z</time></trkpt><trkpt lat="39.24603940013918" lon="-3.6098814453201005"><ele>703.3333333333334</ele><time>2026-05-01T09:11:53.999Z</time></trkpt><trkpt lat="39.245812635519854" lon="-3.60985804303196"><ele>702.0</ele><time>2026-05-01T09:11:54.999Z</time></trkpt><trkpt lat="39.245566389539746" lon="-3.609828489677251"><ele>700.0</ele><time>2026-05-01T09:11:55.999Z</time></trkpt><trkpt lat="39.24532342697312" lon="-3.6097917340786396"><ele>698.0</ele><time>2026-05-01T09:11:56.999Z</time></trkpt><trkpt lat="39.245076801108766" lon="-3.6097554035638835"><ele>698.0</ele><time>2026-05-01T09:11:57.999Z</time></trkpt><trkpt lat="39.24483216185281" lon="-3.6097152856329275"><ele>698.0</ele><time>2026-05-01T09:11:58.999Z</time></trkpt><trkpt lat="39.244585341931504" lon="-3.6096793402860285"><ele>695.0</ele><time>2026-05-01T09:11:59.999Z</time></trkpt><trkpt lat="39.24433710734073" lon="-3.6096429739769986"><ele>692.0</ele><time>2026-05-01T09:12:00.999Z</time></trkpt><trkpt lat="39.24408942539668" lon="-3.6096057889732314"><ele>691.0</ele><time>2026-05-01T09:12:01.999Z</time></trkpt><trkpt lat="39.243849977937344" lon="-3.6095677125932015"><ele>690.0</ele><time>2026-05-01T09:12:02.999Z</time></trkpt><trkpt lat="39.24361179015569" lon="-3.6095279638552134"><ele>689.0</ele><time>2026-05-01T09:12:03.999Z</time></trkpt><trkpt lat="39.243371488594306" lon="-3.609489043904439"><ele>688.0</ele><time>2026-05-01T09:12:04.999Z</time></trkpt><trkpt lat="39.24313881053261" lon="-3.609451499349882"><ele>686.5</ele><time>2026-05-01T09:12:05.999Z</time></trkpt><trkpt lat="39.2428897120297" lon="-3.609413545104043"><ele>685.0</ele><time>2026-05-01T09:12:06.999Z</time></trkpt><trkpt lat="39.24263600570228" lon="-3.609373817668417"><ele>685.0</ele><time>2026-05-01T09:12:07.999Z</time></trkpt><trkpt lat="39.24237317139076" lon="-3.6093310485278347"><ele>685.0</ele><time>2026-05-01T09:12:08.999Z</time></trkpt><trkpt lat="39.242115251917596" lon="-3.609287521251076"><ele>684.5</ele><time>2026-05-01T09:12:09.999Z</time></trkpt><trkpt lat="39.24186729195424" lon="-3.609243526172893"><ele>684.0</ele><time>2026-05-01T09:12:10.999Z</time></trkpt><trkpt lat="39.24161458176285" lon="-3.609207570562387"><ele>682.0</ele><time>2026-05-01T09:12:11.999Z</time></trkpt><trkpt lat="39.241354200971124" lon="-3.6091668504717473"><ele>680.0</ele><time>2026-05-01T09:12:12.999Z</time></trkpt><trkpt lat="39.2410784442671" lon="-3.6091178095826337"><ele>680.0</ele><time>2026-05-01T09:12:13.999Z</time></trkpt><trkpt lat="39.240813301916695" lon="-3.609071305478502"><ele>680.0</ele><time>2026-05-01T09:12:14.999Z</time></trkpt><trkpt lat="39.24055465277742" lon="-3.6090324437357446"><ele>678.0</ele><time>2026-05-01T09:12:16Z</time></trkpt><trkpt lat="39.240301233448776" lon="-3.6089964350344452"><ele>676.0</ele><time>2026-05-01T09:12:17Z</time></trkpt><trkpt lat="39.24004237225297" lon="-3.608952831831634"><ele>675.0</ele><time>2026-05-01T09:12:18Z</time></trkpt><trkpt lat="39.239778875375194" lon="-3.6089101580176015"><ele>674.0</ele><time>2026-05-01T09:12:19Z</time></trkpt><trkpt lat="39.239517275862106" lon="-3.6088737131636863"><ele>674.0</ele><time>2026-05-01T09:12:20Z</time></trkpt><trkpt lat="39.2392569547303" lon="-3.6088351090377695"><ele>674.0</ele><time>2026-05-01T09:12:21Z</time></trkpt><trkpt lat="39.238997970630656" lon="-3.608790100976081"><ele>673.5</ele><time>2026-05-01T09:12:22Z</time></trkpt><trkpt lat="39.23874126322435" lon="-3.6087430857101244"><ele>673.0</ele><time>2026-05-01T09:12:23Z</time></trkpt><trkpt lat="39.23848838713168" lon="-3.6087006633784067"><ele>673.0</ele><time>2026-05-01T09:12:24Z</time></trkpt><trkpt lat="39.2382356373459" lon="-3.608662985959754"><ele>673.0</ele><time>2026-05-01T09:12:25Z</time></trkpt><trkpt lat="39.23796856431355" lon="-3.6086205799917144"><ele>671.0</ele><time>2026-05-01T09:12:26Z</time></trkpt><trkpt lat="39.23769376081812" lon="-3.608571840818976"><ele>669.0</ele><time>2026-05-01T09:12:27Z</time></trkpt><trkpt lat="39.23743804195119" lon="-3.6085242670864837"><ele>669.0</ele><time>2026-05-01T09:12:28Z</time></trkpt><trkpt lat="39.23720575987705" lon="-3.608490344738789"><ele>669.0</ele><time>2026-05-01T09:12:29Z</time></trkpt><trkpt lat="39.23698847746986" lon="-3.6084607587935302"><ele>669.0</ele><time>2026-05-01T09:12:30Z</time></trkpt><trkpt lat="39.23678291875562" lon="-3.608429553640185"><ele>669.0</ele><time>2026-05-01T09:12:31Z</time></trkpt><trkpt lat="39.236588659017016" lon="-3.608402003447453"><ele>669.0</ele><time>2026-05-01T09:12:32Z</time></trkpt><trkpt lat="39.23639113915392" lon="-3.6083733255309713"><ele>669.3333333333334</ele><time>2026-05-01T09:12:33Z</time></trkpt><trkpt lat="39.23619891940094" lon="-3.608342486428164"><ele>669.6666666666667</ele><time>2026-05-01T09:12:34Z</time></trkpt><trkpt lat="39.236026942641196" lon="-3.608316796718536"><ele>670.0</ele><time>2026-05-01T09:12:35Z</time></trkpt><trkpt lat="39.23586189831286" lon="-3.6082914504201913"><ele>670.0</ele><time>2026-05-01T09:12:36Z</time></trkpt><trkpt lat="39.23570658482891" lon="-3.608262371737708"><ele>670.0</ele><time>2026-05-01T09:12:37Z</time></trkpt><trkpt lat="39.23555418030823" lon="-3.6082342310054667"><ele>670.0</ele><time>2026-05-01T09:12:38Z</time></trkpt><trkpt lat="39.23541188338898" lon="-3.608211946365111"><ele>669.5</ele><time>2026-05-01T09:12:39Z</time></trkpt><trkpt lat="39.235269620137736" lon="-3.608188100621079"><ele>669.0</ele><time>2026-05-01T09:12:40Z</time></trkpt><trkpt lat="39.235127928158796" lon="-3.6081634986053586"><ele>668.5</ele><time>2026-05-01T09:12:41Z</time></trkpt><trkpt lat="39.23499014653863" lon="-3.6081405698644797"><ele>668.0</ele><time>2026-05-01T09:12:42Z</time></trkpt><trkpt lat="39.23484117048475" lon="-3.6081165092493572"><ele>667.75</ele><time>2026-05-01T09:12:43Z</time></trkpt><trkpt lat="39.234684233518365" lon="-3.608090503229878"><ele>667.5</ele><time>2026-05-01T09:12:44Z</time></trkpt><trkpt lat="39.234544095975394" lon="-3.6080652396581194"><ele>667.25</ele><time>2026-05-01T09:12:45Z</time></trkpt><trkpt lat="39.2344117847354" lon="-3.608045822966531"><ele>667.0</ele><time>2026-05-01T09:12:46Z</time></trkpt><trkpt lat="39.23428755906219" lon="-3.6080238056334517"><ele>667.0</ele><time>2026-05-01T09:12:47Z</time></trkpt><trkpt lat="39.234176224680766" lon="-3.6079984463511443"><ele>667.0</ele><time>2026-05-01T09:12:48Z</time></trkpt><trkpt lat="39.23406357265115" lon="-3.6079735623154026"><ele>667.0</ele><time>2026-05-01T09:12:49Z</time></trkpt><trkpt lat="39.23396195886504" lon="-3.607953459409756"><ele>667.0</ele><time>2026-05-01T09:12:50Z</time></trkpt><trkpt lat="39.23386594346657" lon="-3.6079406856365903"><ele>667.0</ele><time>2026-05-01T09:12:51Z</time></trkpt><trkpt lat="39.233775768810844" lon="-3.6079278708778504"><ele>666.6666666666667</ele><time>2026-05-01T09:12:52Z</time></trkpt><trkpt lat="39.23368931815066" lon="-3.607917045693555"><ele>666.3333333333334</ele><time>2026-05-01T09:12:53Z</time></trkpt><trkpt lat="39.2336111229081" lon="-3.6079063147365895"><ele>666.0</ele><time>2026-05-01T09:12:54Z</time></trkpt><trkpt lat="39.233538767779805" lon="-3.607892667221221"><ele>665.6666666666666</ele><time>2026-05-01T09:12:55Z</time></trkpt><trkpt lat="39.233471822115995" lon="-3.6078676255844244"><ele>665.3333333333333</ele><time>2026-05-01T09:12:56Z</time></trkpt><trkpt lat="39.233395386581805" lon="-3.60783655407686"><ele>665.0</ele><time>2026-05-01T09:12:57Z</time></trkpt><trkpt lat="39.233314918803416" lon="-3.607819702166081"><ele>664.6666666666666</ele><time>2026-05-01T09:12:58Z</time></trkpt><trkpt lat="39.233249865713674" lon="-3.607812514439752"><ele>664.3333333333333</ele><time>2026-05-01T09:12:59Z</time></trkpt><trkpt lat="39.233179180706706" lon="-3.607803592469318"><ele>664.0</ele><time>2026-05-01T09:13:00Z</time></trkpt><trkpt lat="39.23309714136259" lon="-3.607797708146963"><ele>663.6666666666666</ele><time>2026-05-01T09:13:01Z</time></trkpt><trkpt lat="39.23300720700219" lon="-3.607792724388351"><ele>663.3333333333334</ele><time>2026-05-01T09:13:02Z</time></trkpt><trkpt lat="39.23291033790249" lon="-3.607787664535154"><ele>663.0</ele><time>2026-05-01T09:13:03Z</time></trkpt><trkpt lat="39.232803561449835" lon="-3.6077886770730334"><ele>663.0</ele><time>2026-05-01T09:13:04Z</time></trkpt><trkpt lat="39.232688432262435" lon="-3.6077739723814575"><ele>663.0</ele><time>2026-05-01T09:13:05Z</time></trkpt><trkpt lat="39.23256753305618" lon="-3.607760804791718"><ele>663.0</ele><time>2026-05-01T09:13:06Z</time></trkpt><trkpt lat="39.23243180024703" lon="-3.6077412125335617"><ele>663.0</ele><time>2026-05-01T09:13:07Z</time></trkpt><trkpt lat="39.232294056518946" lon="-3.607717503754005"><ele>663.0</ele><time>2026-05-01T09:13:08Z</time></trkpt><trkpt lat="39.23217103072491" lon="-3.6076932127663968"><ele>663.0</ele><time>2026-05-01T09:13:08.999Z</time></trkpt><trkpt lat="39.23205815660844" lon="-3.6076692976822775"><ele>663.0</ele><time>2026-05-01T09:13:09.999Z</time></trkpt><trkpt lat="39.23195030041278" lon="-3.607645325345809"><ele>663.0</ele><time>2026-05-01T09:13:10.999Z</time></trkpt><trkpt lat="39.23185245269663" lon="-3.6076267084480307"><ele>663.0</ele><time>2026-05-01T09:13:11.999Z</time></trkpt><trkpt lat="39.23175738774024" lon="-3.607615198860422"><ele>663.0</ele><time>2026-05-01T09:13:12.999Z</time></trkpt><trkpt lat="39.23165199387583" lon="-3.6076066380368608"><ele>663.0</ele><time>2026-05-01T09:13:13.999Z</time></trkpt><trkpt lat="39.23153190648657" lon="-3.607595523302639"><ele>663.0</ele><time>2026-05-01T09:13:14.999Z</time></trkpt><trkpt lat="39.231376733015296" lon="-3.60757015722858"><ele>663.0</ele><time>2026-05-01T09:13:15.999Z</time></trkpt><trkpt lat="39.231220207735305" lon="-3.6075412070287833"><ele>662.75</ele><time>2026-05-01T09:13:16.999Z</time></trkpt><trkpt lat="39.231082962328856" lon="-3.6075182084565722"><ele>662.5</ele><time>2026-05-01T09:13:17.999Z</time></trkpt><trkpt lat="39.23095671738446" lon="-3.607495696753139"><ele>662.25</ele><time>2026-05-01T09:13:18.999Z</time></trkpt><trkpt lat="39.23082661631058" lon="-3.6074724045882927"><ele>662.0</ele><time>2026-05-01T09:13:19.999Z</time></trkpt><trkpt lat="39.23068068709235" lon="-3.607449640813762"><ele>661.75</ele><time>2026-05-01T09:13:20.999Z</time></trkpt><trkpt lat="39.23055149725019" lon="-3.6074249515135404"><ele>661.5</ele><time>2026-05-01T09:13:21.999Z</time></trkpt><trkpt lat="39.23041905974725" lon="-3.6074057960659234"><ele>661.25</ele><time>2026-05-01T09:13:22.999Z</time></trkpt><trkpt lat="39.230261647832776" lon="-3.607378642437596"><ele>661.0</ele><time>2026-05-01T09:13:23.999Z</time></trkpt><trkpt lat="39.230098895534645" lon="-3.6073540959265804"><ele>661.0</ele><time>2026-05-01T09:13:24.999Z</time></trkpt><trkpt lat="39.22995048652266" lon="-3.607329977353365"><ele>661.0</ele><time>2026-05-01T09:13:25.999Z</time></trkpt><trkpt lat="39.22981636503518" lon="-3.607301497210677"><ele>661.0</ele><time>2026-05-01T09:13:26.999Z</time></trkpt><trkpt lat="39.22969318865754" lon="-3.6072807415423713"><ele>661.0</ele><time>2026-05-01T09:13:27.999Z</time></trkpt><trkpt lat="39.22957814222816" lon="-3.607263750579411"><ele>660.5</ele><time>2026-05-01T09:13:28.999Z</time></trkpt><trkpt lat="39.229470110983556" lon="-3.6072493662925424"><ele>660.0</ele><time>2026-05-01T09:13:29.999Z</time></trkpt><trkpt lat="39.22935339632114" lon="-3.6072347865607837"><ele>659.5</ele><time>2026-05-01T09:13:30.999Z</time></trkpt><trkpt lat="39.22921112574168" lon="-3.607212828429144"><ele>659.0</ele><time>2026-05-01T09:13:31.999Z</time></trkpt><trkpt lat="39.229079124088074" lon="-3.6071890939746933"><ele>658.4000000000001</ele><time>2026-05-01T09:13:32.999Z</time></trkpt><trkpt lat="39.22895654254613" lon="-3.6071732815340267"><ele>657.8</ele><time>2026-05-01T09:13:33.999Z</time></trkpt><trkpt lat="39.22884274681782" lon="-3.6071622246730826"><ele>657.2</ele><time>2026-05-01T09:13:34.999Z</time></trkpt><trkpt lat="39.22874015258489" lon="-3.60715316229051"><ele>656.5999999999999</ele><time>2026-05-01T09:13:35.999Z</time></trkpt><trkpt lat="39.228637481585686" lon="-3.607133835331673"><ele>656.0</ele><time>2026-05-01T09:13:36.999Z</time></trkpt><trkpt lat="39.22854372015187" lon="-3.6071156363357715"><ele>656.0</ele><time>2026-05-01T09:13:37.999Z</time></trkpt><trkpt lat="39.22845345285623" lon="-3.6070949256266345"><ele>656.0</ele><time>2026-05-01T09:13:38.999Z</time></trkpt><trkpt lat="39.22835631781372" lon="-3.6070801082909543"><ele>656.0</ele><time>2026-05-01T09:13:39.999Z</time></trkpt><trkpt lat="39.228248842668904" lon="-3.607067619825821"><ele>656.0</ele><time>2026-05-01T09:13:40.999Z</time></trkpt><trkpt lat="39.228146927816304" lon="-3.607056523380408"><ele>656.0</ele><time>2026-05-01T09:13:41.999Z</time></trkpt><trkpt lat="39.22806105780174" lon="-3.607044313532881"><ele>655.5</ele><time>2026-05-01T09:13:42.999Z</time></trkpt><trkpt lat="39.227977143410484" lon="-3.607027385595498"><ele>655.0</ele><time>2026-05-01T09:13:43.999Z</time></trkpt><trkpt lat="39.227911878819725" lon="-3.607001327912905"><ele>654.5</ele><time>2026-05-01T09:13:44.999Z</time></trkpt><trkpt lat="39.227855286782116" lon="-3.6068802916826717"><ele>654.0</ele><time>2026-05-01T09:13:46.999Z</time></trkpt><trkpt lat="39.22786516439349" lon="-3.6067985470182493"><ele>653.5</ele><time>2026-05-01T09:13:47.999Z</time></trkpt><trkpt lat="39.22789867123313" lon="-3.606688078210889"><ele>653.0</ele><time>2026-05-01T09:13:48.999Z</time></trkpt><trkpt lat="39.227944383215636" lon="-3.6065457400747616"><ele>652.5</ele><time>2026-05-01T09:13:49.999Z</time></trkpt><trkpt lat="39.227983823463305" lon="-3.606378384749248"><ele>652.0</ele><time>2026-05-01T09:13:50.999Z</time></trkpt><trkpt lat="39.228013509098524" lon="-3.6062307741898305"><ele>651.5</ele><time>2026-05-01T09:13:51.999Z</time></trkpt><trkpt lat="39.22804914456939" lon="-3.6060730214358236"><ele>651.0</ele><time>2026-05-01T09:13:52.999Z</time></trkpt><trkpt lat="39.22809063255598" lon="-3.605890800622531"><ele>650.75</ele><time>2026-05-01T09:13:53.999Z</time></trkpt><trkpt lat="39.22812777269504" lon="-3.605726064025798"><ele>650.5</ele><time>2026-05-01T09:13:54.999Z</time></trkpt><trkpt lat="39.228158393455764" lon="-3.6055691289904113"><ele>650.25</ele><time>2026-05-01T09:13:55.999Z</time></trkpt><trkpt lat="39.22818599895861" lon="-3.605417375745011"><ele>650.0</ele><time>2026-05-01T09:13:56.999Z</time></trkpt><trkpt lat="39.2282140881456" lon="-3.6052728483478806"><ele>649.8</ele><time>2026-05-01T09:13:57.999Z</time></trkpt><trkpt lat="39.228241791570845" lon="-3.6051365481329394"><ele>649.6</ele><time>2026-05-01T09:13:58.999Z</time></trkpt><trkpt lat="39.228264826943565" lon="-3.6049919876080994"><ele>649.4000000000001</ele><time>2026-05-01T09:13:59.999Z</time></trkpt><trkpt lat="39.228290339322086" lon="-3.6048475513867277"><ele>649.2</ele><time>2026-05-01T09:14:00.999Z</time></trkpt><trkpt lat="39.22831345107496" lon="-3.6047459643910895"><ele>649.0</ele><time>2026-05-01T09:14:01.999Z</time></trkpt><trkpt lat="39.22833263771571" lon="-3.6046628254410624"><ele>647.75</ele><time>2026-05-01T09:14:02.999Z</time></trkpt><trkpt lat="39.228380601758985" lon="-3.604462709066279"><ele>646.5</ele><time>2026-05-01T09:14:04.999Z</time></trkpt><trkpt lat="39.22841574497544" lon="-3.6043228702556855"><ele>645.25</ele><time>2026-05-01T09:14:05.999Z</time></trkpt><trkpt lat="39.228436517903184" lon="-3.604208603309707"><ele>644.0</ele><time>2026-05-01T09:14:06.999Z</time></trkpt><trkpt lat="39.22846182185786" lon="-3.604097622544858"><ele>644.0</ele><time>2026-05-01T09:14:07.999Z</time></trkpt><trkpt lat="39.22848524987006" lon="-3.6039797908524966"><ele>644.0</ele><time>2026-05-01T09:14:08.999Z</time></trkpt><trkpt lat="39.22851134365694" lon="-3.6038486025973167"><ele>644.0</ele><time>2026-05-01T09:14:09.999Z</time></trkpt><trkpt lat="39.22853832430542" lon="-3.6037245381185077"><ele>644.0</ele><time>2026-05-01T09:14:10.999Z</time></trkpt><trkpt lat="39.22854987254227" lon="-3.603610508039888"><ele>644.0</ele><time>2026-05-01T09:14:11.999Z</time></trkpt><trkpt lat="39.228524763645346" lon="-3.603493026707529"><ele>643.75</ele><time>2026-05-01T09:14:12.999Z</time></trkpt><trkpt lat="39.22847457709794" lon="-3.6033567062431464"><ele>643.5</ele><time>2026-05-01T09:14:13.999Z</time></trkpt><trkpt lat="39.22843631418417" lon="-3.60318847829322"><ele>643.25</ele><time>2026-05-01T09:14:14.999Z</time></trkpt><trkpt lat="39.22841664515206" lon="-3.6030305227119945"><ele>643.0</ele><time>2026-05-01T09:14:15.999Z</time></trkpt><trkpt lat="39.22839636834867" lon="-3.6029142595534767"><ele>641.75</ele><time>2026-05-01T09:14:16.999Z</time></trkpt><trkpt lat="39.228374702195445" lon="-3.602793212419525"><ele>640.5</ele><time>2026-05-01T09:14:18.999Z</time></trkpt><trkpt lat="39.228252999581244" lon="-3.602681587777919"><ele>639.25</ele><time>2026-05-01T09:14:20.999Z</time></trkpt><trkpt lat="39.22814533333145" lon="-3.6026239055195637"><ele>638.0</ele><time>2026-05-01T09:14:22Z</time></trkpt><trkpt lat="39.22805207976513" lon="-3.6025653966296662"><ele>637.8</ele><time>2026-05-01T09:14:23Z</time></trkpt><trkpt lat="39.22795221265266" lon="-3.602482716269073"><ele>637.5999999999999</ele><time>2026-05-01T09:14:24Z</time></trkpt><trkpt lat="39.22785721474453" lon="-3.6023991501191355"><ele>637.4000000000001</ele><time>2026-05-01T09:14:25Z</time></trkpt><trkpt lat="39.22777589325713" lon="-3.6023219087811804"><ele>637.2</ele><time>2026-05-01T09:14:26Z</time></trkpt><trkpt lat="39.22769977394954" lon="-3.602248576741083"><ele>637.0</ele><time>2026-05-01T09:14:27Z</time></trkpt><trkpt lat="39.22761324521174" lon="-3.602166529393018"><ele>637.0</ele><time>2026-05-01T09:14:28Z</time></trkpt><trkpt lat="39.227508873282694" lon="-3.602071935008913"><ele>637.0</ele><time>2026-05-01T09:14:29Z</time></trkpt><trkpt lat="39.227405950958826" lon="-3.6019584673618112"><ele>637.0</ele><time>2026-05-01T09:14:30Z</time></trkpt><trkpt lat="39.227326509637734" lon="-3.6018640664867725"><ele>637.0</ele><time>2026-05-01T09:14:31Z</time></trkpt><trkpt lat="39.22725153418702" lon="-3.601777879857344"><ele>636.5</ele><time>2026-05-01T09:14:32Z</time></trkpt><trkpt lat="39.22717621654249" lon="-3.6017047068833383"><ele>636.0</ele><time>2026-05-01T09:14:33Z</time></trkpt><trkpt lat="39.2271075134805" lon="-3.6016339705735008"><ele>635.5</ele><time>2026-05-01T09:14:34Z</time></trkpt><trkpt lat="39.22704580195287" lon="-3.6015776439383007"><ele>635.0</ele><time>2026-05-01T09:14:35Z</time></trkpt><trkpt lat="39.22699133619463" lon="-3.6015230471488424"><ele>634.5</ele><time>2026-05-01T09:14:36Z</time></trkpt><trkpt lat="39.22692175304648" lon="-3.6014388581570422"><ele>634.0</ele><time>2026-05-01T09:14:38Z</time></trkpt><trkpt lat="39.22689654460507" lon="-3.6013424909303304"><ele>634.0</ele><time>2026-05-01T09:14:47Z</time></trkpt><trkpt lat="39.22697364410822" lon="-3.601227908667159"><ele>634.0</ele><time>2026-05-01T09:14:49Z</time></trkpt><trkpt lat="39.22703678318284" lon="-3.6012016121467516"><ele>634.0</ele><time>2026-05-01T09:14:50Z</time></trkpt><trkpt lat="39.22709573324029" lon="-3.601172125003709"><ele>634.0</ele><time>2026-05-01T09:14:51Z</time></trkpt><trkpt lat="39.22715690449167" lon="-3.601129437368164"><ele>634.0</ele><time>2026-05-01T09:14:52Z</time></trkpt><trkpt lat="39.22722906478809" lon="-3.60107693981057"><ele>634.0</ele><time>2026-05-01T09:14:53Z</time></trkpt><trkpt lat="39.22731600670461" lon="-3.601011689361515"><ele>633.5</ele><time>2026-05-01T09:14:54Z</time></trkpt><trkpt lat="39.22741381017078" lon="-3.6009396766500856"><ele>633.0</ele><time>2026-05-01T09:14:55Z</time></trkpt><trkpt lat="39.22752021268261" lon="-3.6008609008289127"><ele>632.5</ele><time>2026-05-01T09:14:56Z</time></trkpt><trkpt lat="39.22764867768038" lon="-3.600769469044065"><ele>632.0</ele><time>2026-05-01T09:14:57Z</time></trkpt><trkpt lat="39.227747805141384" lon="-3.600698875198215"><ele>632.0</ele><time>2026-05-01T09:14:58Z</time></trkpt><trkpt lat="39.22783204968834" lon="-3.600627880693005"><ele>632.0</ele><time>2026-05-01T09:14:59Z</time></trkpt><trkpt lat="39.22790790870732" lon="-3.600560149411811"><ele>632.0</ele><time>2026-05-01T09:15:00Z</time></trkpt><trkpt lat="39.227995293569265" lon="-3.6004902371491663"><ele>632.0</ele><time>2026-05-01T09:15:01Z</time></trkpt><trkpt lat="39.228092851923265" lon="-3.600409729401655"><ele>632.0</ele><time>2026-05-01T09:15:02Z</time></trkpt><trkpt lat="39.22820109363134" lon="-3.600320120741726"><ele>631.6666666666666</ele><time>2026-05-01T09:15:03Z</time></trkpt><trkpt lat="39.22833775859563" lon="-3.6002045989376006"><ele>631.3333333333334</ele><time>2026-05-01T09:15:04Z</time></trkpt><trkpt lat="39.228499484123326" lon="-3.600073265934729"><ele>631.0</ele><time>2026-05-01T09:15:05Z</time></trkpt><trkpt lat="39.22868342622534" lon="-3.5999267818857104"><ele>631.0</ele><time>2026-05-01T09:15:06Z</time></trkpt><trkpt lat="39.22884127404748" lon="-3.599797694009942"><ele>631.0</ele><time>2026-05-01T09:15:07Z</time></trkpt><trkpt lat="39.228988846581984" lon="-3.599668469844894"><ele>631.0</ele><time>2026-05-01T09:15:08Z</time></trkpt><trkpt lat="39.2291398632244" lon="-3.599538720642191"><ele>631.6666666666667</ele><time>2026-05-01T09:15:09Z</time></trkpt><trkpt lat="39.22932239299266" lon="-3.5993902604533043"><ele>632.3333333333334</ele><time>2026-05-01T09:15:10Z</time></trkpt><trkpt lat="39.22949838948835" lon="-3.5992453268160967"><ele>633.0</ele><time>2026-05-01T09:15:11Z</time></trkpt><trkpt lat="39.22965921901567" lon="-3.599105356199405"><ele>633.3333333333334</ele><time>2026-05-01T09:15:12Z</time></trkpt><trkpt lat="39.22982078866815" lon="-3.5989547399984323"><ele>633.6666666666667</ele><time>2026-05-01T09:15:13Z</time></trkpt><trkpt lat="39.229974412257604" lon="-3.598806712365734"><ele>634.0</ele><time>2026-05-01T09:15:14Z</time></trkpt><trkpt lat="39.230116094947505" lon="-3.5986697528109044"><ele>634.3333333333334</ele><time>2026-05-01T09:15:15Z</time></trkpt><trkpt lat="39.230249058409065" lon="-3.598532282209768"><ele>634.6666666666666</ele><time>2026-05-01T09:15:16Z</time></trkpt><trkpt lat="39.230364619447634" lon="-3.5984018131189854"><ele>635.0</ele><time>2026-05-01T09:15:17Z</time></trkpt><trkpt lat="39.230474355114396" lon="-3.5982726849245212"><ele>635.0</ele><time>2026-05-01T09:15:18Z</time></trkpt><trkpt lat="39.23059024259875" lon="-3.598137164688948"><ele>635.0</ele><time>2026-05-01T09:15:19Z</time></trkpt><trkpt lat="39.23070600886517" lon="-3.5979887006431412"><ele>635.0</ele><time>2026-05-01T09:15:20Z</time></trkpt><trkpt lat="39.230821923743505" lon="-3.5978419201011063"><ele>635.3333333333333</ele><time>2026-05-01T09:15:21Z</time></trkpt><trkpt lat="39.230957717287055" lon="-3.597673296529238"><ele>635.6666666666666</ele><time>2026-05-01T09:15:21.999Z</time></trkpt><trkpt lat="39.231114258132706" lon="-3.5974818629049765"><ele>636.0</ele><time>2026-05-01T09:15:22.999Z</time></trkpt><trkpt lat="39.23127260268299" lon="-3.5972847422967984"><ele>636.0</ele><time>2026-05-01T09:15:23.999Z</time></trkpt><trkpt lat="39.23142613588773" lon="-3.5970966963270024"><ele>636.0</ele><time>2026-05-01T09:15:24.999Z</time></trkpt><trkpt lat="39.231584922993015" lon="-3.5969192306930875"><ele>636.0</ele><time>2026-05-01T09:15:25.999Z</time></trkpt><trkpt lat="39.23175615444616" lon="-3.596745758791791"><ele>636.3333333333334</ele><time>2026-05-01T09:15:26.999Z</time></trkpt><trkpt lat="39.23190732079045" lon="-3.5966038460814573"><ele>636.6666666666667</ele><time>2026-05-01T09:15:27.999Z</time></trkpt><trkpt lat="39.2320374026357" lon="-3.596479427570156"><ele>637.0</ele><time>2026-05-01T09:15:28.999Z</time></trkpt><trkpt lat="39.2321571794632" lon="-3.596360452375194"><ele>637.0</ele><time>2026-05-01T09:15:29.999Z</time></trkpt><trkpt lat="39.232272460730805" lon="-3.596245535672274"><ele>637.0</ele><time>2026-05-01T09:15:30.999Z</time></trkpt><trkpt lat="39.232406279657376" lon="-3.596118394024498"><ele>637.0</ele><time>2026-05-01T09:15:31.999Z</time></trkpt><trkpt lat="39.23253506455169" lon="-3.5959932746423897"><ele>637.3333333333334</ele><time>2026-05-01T09:15:32.999Z</time></trkpt><trkpt lat="39.232669041174994" lon="-3.5958606285283574"><ele>637.6666666666666</ele><time>2026-05-01T09:15:33.999Z</time></trkpt><trkpt lat="39.232796564440115" lon="-3.5957231410689237"><ele>638.0</ele><time>2026-05-01T09:15:34.999Z</time></trkpt><trkpt lat="39.232920254766526" lon="-3.595565411590793"><ele>638.0</ele><time>2026-05-01T09:15:35.999Z</time></trkpt><trkpt lat="39.233065697331156" lon="-3.595380393481282"><ele>638.0</ele><time>2026-05-01T09:15:36.999Z</time></trkpt><trkpt lat="39.23322217746674" lon="-3.5952037871235345"><ele>638.0</ele><time>2026-05-01T09:15:37.999Z</time></trkpt><trkpt lat="39.23336968626382" lon="-3.5950292994402817"><ele>637.6666666666666</ele><time>2026-05-01T09:15:38.999Z</time></trkpt><trkpt lat="39.23350921848693" lon="-3.594868662962116"><ele>637.3333333333334</ele><time>2026-05-01T09:15:39.999Z</time></trkpt><trkpt lat="39.23363214965413" lon="-3.5947149242346628"><ele>637.0</ele><time>2026-05-01T09:15:40.999Z</time></trkpt><trkpt lat="39.23373356276824" lon="-3.594568144999215"><ele>636.75</ele><time>2026-05-01T09:15:41.999Z</time></trkpt><trkpt lat="39.233828531332925" lon="-3.5944289807323955"><ele>636.5</ele><time>2026-05-01T09:15:42.999Z</time></trkpt><trkpt lat="39.23391954003167" lon="-3.594291896165252"><ele>636.25</ele><time>2026-05-01T09:15:43.999Z</time></trkpt><trkpt lat="39.23401714437648" lon="-3.5941454062624394"><ele>636.0</ele><time>2026-05-01T09:15:44.999Z</time></trkpt><trkpt lat="39.23413242400075" lon="-3.593976917984482"><ele>636.4</ele><time>2026-05-01T09:15:45.999Z</time></trkpt><trkpt lat="39.2342193738158" lon="-3.593842146375969"><ele>636.8</ele><time>2026-05-01T09:15:46.999Z</time></trkpt><trkpt lat="39.23429372514061" lon="-3.593726439405494"><ele>637.1999999999999</ele><time>2026-05-01T09:15:47.999Z</time></trkpt><trkpt lat="39.2343656160851" lon="-3.5936222989288953"><ele>637.6</ele><time>2026-05-01T09:15:48.999Z</time></trkpt><trkpt lat="39.23441237894741" lon="-3.5935313673819693"><ele>638.0</ele><time>2026-05-01T09:15:49.999Z</time></trkpt><trkpt lat="39.23443576856107" lon="-3.5934403975026448"><ele>638.0</ele><time>2026-05-01T09:15:50.999Z</time></trkpt><trkpt lat="39.23445147707332" lon="-3.593346400145608"><ele>638.0</ele><time>2026-05-01T09:15:51.999Z</time></trkpt><trkpt lat="39.2344741352555" lon="-3.5932671839086727"><ele>638.0</ele><time>2026-05-01T09:15:52.999Z</time></trkpt><trkpt lat="39.23451271121956" lon="-3.5931646292421715"><ele>638.0</ele><time>2026-05-01T09:15:53.999Z</time></trkpt><trkpt lat="39.234529907559995" lon="-3.5930657692357255"><ele>638.0</ele><time>2026-05-01T09:15:54.999Z</time></trkpt><trkpt lat="39.23452643294577" lon="-3.5929812453418566"><ele>638.0</ele><time>2026-05-01T09:15:55.999Z</time></trkpt><trkpt lat="39.23448199098419" lon="-3.592848052697127"><ele>637.6</ele><time>2026-05-01T09:15:57.999Z</time></trkpt><trkpt lat="39.234396546755384" lon="-3.5927708432596663"><ele>637.1999999999999</ele><time>2026-05-01T09:15:59.999Z</time></trkpt><trkpt lat="39.23431981101111" lon="-3.592725701704448"><ele>636.8</ele><time>2026-05-01T09:16:00.999Z</time></trkpt><trkpt lat="39.23422483848288" lon="-3.592688928793034"><ele>636.4</ele><time>2026-05-01T09:16:01.999Z</time></trkpt><trkpt lat="39.23413108795907" lon="-3.5926792742277183"><ele>636.0</ele><time>2026-05-01T09:16:02.999Z</time></trkpt><trkpt lat="39.23405341780891" lon="-3.5927000290654996"><ele>635.5</ele><time>2026-05-01T09:16:03.999Z</time></trkpt><trkpt lat="39.23394395576862" lon="-3.592743891051413"><ele>635.0</ele><time>2026-05-01T09:16:04.999Z</time></trkpt><trkpt lat="39.2338014553996" lon="-3.5928085363662374"><ele>634.5</ele><time>2026-05-01T09:16:05.999Z</time></trkpt><trkpt lat="39.23365482318315" lon="-3.592883404492104"><ele>634.0</ele><time>2026-05-01T09:16:06.999Z</time></trkpt><trkpt lat="39.23353090550077" lon="-3.5929543825508516"><ele>634.0</ele><time>2026-05-01T09:16:07.999Z</time></trkpt><trkpt lat="39.23338467593211" lon="-3.593048809475768"><ele>634.0</ele><time>2026-05-01T09:16:08.999Z</time></trkpt><trkpt lat="39.23321172871427" lon="-3.593128815791113"><ele>634.0</ele><time>2026-05-01T09:16:09.999Z</time></trkpt><trkpt lat="39.233010525209984" lon="-3.59321993057675"><ele>633.6666666666667</ele><time>2026-05-01T09:16:10.999Z</time></trkpt><trkpt lat="39.23285420283799" lon="-3.5932904453417773"><ele>633.3333333333334</ele><time>2026-05-01T09:16:11.999Z</time></trkpt><trkpt lat="39.23270235385181" lon="-3.593358314636293"><ele>633.0</ele><time>2026-05-01T09:16:12.999Z</time></trkpt><trkpt lat="39.23256887560948" lon="-3.593413840656453"><ele>633.0</ele><time>2026-05-01T09:16:13.999Z</time></trkpt><trkpt lat="39.23243473388077" lon="-3.5934779245848687"><ele>633.0</ele><time>2026-05-01T09:16:14.999Z</time></trkpt><trkpt lat="39.23228464427648" lon="-3.5935520206343283"><ele>633.0</ele><time>2026-05-01T09:16:15.999Z</time></trkpt><trkpt lat="39.23214439756568" lon="-3.593616742937834"><ele>633.0</ele><time>2026-05-01T09:16:16.999Z</time></trkpt><trkpt lat="39.23202964144997" lon="-3.593656151725801"><ele>633.0</ele><time>2026-05-01T09:16:17.999Z</time></trkpt><trkpt lat="39.231933911391636" lon="-3.593690485574344"><ele>633.0</ele><time>2026-05-01T09:16:18.999Z</time></trkpt><trkpt lat="39.23184764590528" lon="-3.5937254228071756"><ele>633.0</ele><time>2026-05-01T09:16:19.999Z</time></trkpt><trkpt lat="39.231754894352164" lon="-3.5937587831108084"><ele>633.0</ele><time>2026-05-01T09:16:20.999Z</time></trkpt><trkpt lat="39.23165111578687" lon="-3.5937861332844836"><ele>633.1999999999999</ele><time>2026-05-01T09:16:21.999Z</time></trkpt><trkpt lat="39.231546677827446" lon="-3.5938148433946036"><ele>633.4</ele><time>2026-05-01T09:16:22.999Z</time></trkpt><trkpt lat="39.231460541564445" lon="-3.593842583513105"><ele>633.5999999999999</ele><time>2026-05-01T09:16:23.999Z</time></trkpt><trkpt lat="39.23136682978773" lon="-3.5938712822789665"><ele>633.8</ele><time>2026-05-01T09:16:24.999Z</time></trkpt><trkpt lat="39.23126785500515" lon="-3.59389493497445"><ele>634.0</ele><time>2026-05-01T09:16:25.999Z</time></trkpt><trkpt lat="39.231179649370034" lon="-3.5939196737034944"><ele>634.0</ele><time>2026-05-01T09:16:26.999Z</time></trkpt><trkpt lat="39.23109496633157" lon="-3.5939429772626883"><ele>634.0</ele><time>2026-05-01T09:16:28Z</time></trkpt><trkpt lat="39.23102340505066" lon="-3.59395782409813"><ele>634.0</ele><time>2026-05-01T09:16:29Z</time></trkpt><trkpt lat="39.23095459285708" lon="-3.5939724106258626"><ele>634.0</ele><time>2026-05-01T09:16:30Z</time></trkpt><trkpt lat="39.230849440690235" lon="-3.594006361375295"><ele>634.0</ele><time>2026-05-01T09:16:32Z</time></trkpt><trkpt lat="39.23071274255173" lon="-3.594036277574204"><ele>633.5</ele><time>2026-05-01T09:16:34Z</time></trkpt><trkpt lat="39.23061472454395" lon="-3.59405088174883"><ele>633.0</ele><time>2026-05-01T09:16:35Z</time></trkpt><trkpt lat="39.23050711299682" lon="-3.594068237446161"><ele>632.5</ele><time>2026-05-01T09:16:36Z</time></trkpt><trkpt lat="39.23038520557095" lon="-3.5940838078049953"><ele>632.0</ele><time>2026-05-01T09:16:37Z</time></trkpt><trkpt lat="39.23024976457789" lon="-3.594095669912858"><ele>632.0</ele><time>2026-05-01T09:16:38Z</time></trkpt><trkpt lat="39.23008784553073" lon="-3.594111357330993"><ele>632.0</ele><time>2026-05-01T09:16:39Z</time></trkpt><trkpt lat="39.229892729566366" lon="-3.594134479843583"><ele>632.0</ele><time>2026-05-01T09:16:40Z</time></trkpt><trkpt lat="39.229683215273404" lon="-3.594158232499133"><ele>632.0</ele><time>2026-05-01T09:16:41Z</time></trkpt><trkpt lat="39.229519192539286" lon="-3.594176717155378"><ele>632.0</ele><time>2026-05-01T09:16:42Z</time></trkpt><trkpt lat="39.22937626064316" lon="-3.594186824780211"><ele>632.0</ele><time>2026-05-01T09:16:43Z</time></trkpt><trkpt lat="39.22925166163186" lon="-3.594195868288422"><ele>632.0</ele><time>2026-05-01T09:16:44Z</time></trkpt><trkpt lat="39.22914091588389" lon="-3.5942035244646324"><ele>632.0</ele><time>2026-05-01T09:16:45Z</time></trkpt><trkpt lat="39.229037442701596" lon="-3.594211040486056"><ele>632.0</ele><time>2026-05-01T09:16:46Z</time></trkpt><trkpt lat="39.22894812409111" lon="-3.5942139621707625"><ele>632.0</ele><time>2026-05-01T09:16:47Z</time></trkpt><trkpt lat="39.228864139555384" lon="-3.594219279937294"><ele>632.0</ele><time>2026-05-01T09:16:48Z</time></trkpt><trkpt lat="39.228789201738536" lon="-3.594227128449964"><ele>632.0</ele><time>2026-05-01T09:16:49Z</time></trkpt><trkpt lat="39.22872631404925" lon="-3.594234338227289"><ele>632.0</ele><time>2026-05-01T09:16:50Z</time></trkpt><trkpt lat="39.2285879876349" lon="-3.594234096749841"><ele>631.8333333333333</ele><time>2026-05-01T09:16:52Z</time></trkpt><trkpt lat="39.22850325418723" lon="-3.594235424123543"><ele>631.6666666666666</ele><time>2026-05-01T09:16:53Z</time></trkpt><trkpt lat="39.2284137941777" lon="-3.5942306034369875"><ele>631.5</ele><time>2026-05-01T09:16:54Z</time></trkpt><trkpt lat="39.22832010992298" lon="-3.594228315764875"><ele>631.3333333333334</ele><time>2026-05-01T09:16:55Z</time></trkpt><trkpt lat="39.22823344756964" lon="-3.594226441477388"><ele>631.1666666666667</ele><time>2026-05-01T09:16:56Z</time></trkpt><trkpt lat="39.22815872668998" lon="-3.5942245670753987"><ele>631.0</ele><time>2026-05-01T09:16:57Z</time></trkpt><trkpt lat="39.228037780156455" lon="-3.5942235520165315"><ele>631.0</ele><time>2026-05-01T09:16:59Z</time></trkpt><trkpt lat="39.227949264374764" lon="-3.5942229938976573"><ele>631.0</ele><time>2026-05-01T09:17:01Z</time></trkpt><trkpt lat="39.227862701413315" lon="-3.594229806794937"><ele>631.0</ele><time>2026-05-01T09:17:04Z</time></trkpt><trkpt lat="39.22778906102323" lon="-3.594228802262762"><ele>631.0</ele><time>2026-05-01T09:17:06Z</time></trkpt><trkpt lat="39.227694351854325" lon="-3.594225953873153"><ele>631.0</ele><time>2026-05-01T09:17:08Z</time></trkpt><trkpt lat="39.22757416033613" lon="-3.5942127719227184"><ele>631.0</ele><time>2026-05-01T09:17:10Z</time></trkpt><trkpt lat="39.22749800431235" lon="-3.594199217495609"><ele>631.0</ele><time>2026-05-01T09:17:11Z</time></trkpt><trkpt lat="39.22741776812107" lon="-3.5941888500737202"><ele>631.0</ele><time>2026-05-01T09:17:12Z</time></trkpt><trkpt lat="39.227336138101435" lon="-3.5941860960989276"><ele>631.0</ele><time>2026-05-01T09:17:13Z</time></trkpt><trkpt lat="39.227249112296384" lon="-3.5941784598092172"><ele>631.0</ele><time>2026-05-01T09:17:14Z</time></trkpt><trkpt lat="39.227154634539886" lon="-3.594164786618767"><ele>631.0</ele><time>2026-05-01T09:17:15Z</time></trkpt><trkpt lat="39.227059777619665" lon="-3.594150392984745"><ele>631.6</ele><time>2026-05-01T09:17:16Z</time></trkpt><trkpt lat="39.22696131389789" lon="-3.5941368002734517"><ele>632.2</ele><time>2026-05-01T09:17:17Z</time></trkpt><trkpt lat="39.22686558783818" lon="-3.594123861296414"><ele>632.8</ele><time>2026-05-01T09:17:18Z</time></trkpt><trkpt lat="39.226773151265746" lon="-3.5941156388738253"><ele>633.4</ele><time>2026-05-01T09:17:19Z</time></trkpt><trkpt lat="39.2266711122541" lon="-3.594100236676658"><ele>634.0</ele><time>2026-05-01T09:17:20Z</time></trkpt><trkpt lat="39.22656562906542" lon="-3.5940797229226185"><ele>633.75</ele><time>2026-05-01T09:17:21Z</time></trkpt><trkpt lat="39.22645240835218" lon="-3.594052903615164"><ele>633.5</ele><time>2026-05-01T09:17:21.999Z</time></trkpt><trkpt lat="39.22632871994211" lon="-3.5940309663831944"><ele>633.25</ele><time>2026-05-01T09:17:22.999Z</time></trkpt><trkpt lat="39.226200332389105" lon="-3.594006085112398"><ele>633.0</ele><time>2026-05-01T09:17:23.999Z</time></trkpt><trkpt lat="39.22606417105214" lon="-3.5939757157379364"><ele>633.0</ele><time>2026-05-01T09:17:24.999Z</time></trkpt><trkpt lat="39.22589218976895" lon="-3.5939347745335533"><ele>633.0</ele><time>2026-05-01T09:17:25.999Z</time></trkpt><trkpt lat="39.22568849971146" lon="-3.5938821935789234"><ele>633.0</ele><time>2026-05-01T09:17:26.999Z</time></trkpt><trkpt lat="39.225498454620485" lon="-3.593828101263193"><ele>632.6666666666666</ele><time>2026-05-01T09:17:27.999Z</time></trkpt><trkpt lat="39.225328317621866" lon="-3.5937812162450937"><ele>632.3333333333333</ele><time>2026-05-01T09:17:28.999Z</time></trkpt><trkpt lat="39.22517724016776" lon="-3.5937338401393"><ele>632.0</ele><time>2026-05-01T09:17:29.999Z</time></trkpt><trkpt lat="39.225021204499306" lon="-3.593688100844846"><ele>631.6666666666666</ele><time>2026-05-01T09:17:30.999Z</time></trkpt><trkpt lat="39.22483394742125" lon="-3.5936299628413515"><ele>631.3333333333334</ele><time>2026-05-01T09:17:31.999Z</time></trkpt><trkpt lat="39.224678739838055" lon="-3.5935836577679363"><ele>631.0</ele><time>2026-05-01T09:17:32.999Z</time></trkpt><trkpt lat="39.22454088834099" lon="-3.593540722504502"><ele>631.0</ele><time>2026-05-01T09:17:33.999Z</time></trkpt><trkpt lat="39.224414398598675" lon="-3.593505928435631"><ele>631.0</ele><time>2026-05-01T09:17:34.999Z</time></trkpt><trkpt lat="39.22428797918541" lon="-3.5934650593676696"><ele>631.0</ele><time>2026-05-01T09:17:35.999Z</time></trkpt><trkpt lat="39.224145193147045" lon="-3.5934164774277515"><ele>631.0</ele><time>2026-05-01T09:17:36.999Z</time></trkpt><trkpt lat="39.223996736909555" lon="-3.5933675439845607"><ele>631.0</ele><time>2026-05-01T09:17:37.999Z</time></trkpt><trkpt lat="39.223887712055884" lon="-3.593329248300859"><ele>631.0</ele><time>2026-05-01T09:17:38.999Z</time></trkpt><trkpt lat="39.22380098010843" lon="-3.5933010801658227"><ele>631.0</ele><time>2026-05-01T09:17:39.999Z</time></trkpt><trkpt lat="39.2237125178357" lon="-3.593280741520482"><ele>631.0</ele><time>2026-05-01T09:17:40.999Z</time></trkpt><trkpt lat="39.22362958314172" lon="-3.593272139956204"><ele>631.0</ele><time>2026-05-01T09:17:41.999Z</time></trkpt><trkpt lat="39.223557528317244" lon="-3.593279165666279"><ele>631.0</ele><time>2026-05-01T09:17:42.999Z</time></trkpt><trkpt lat="39.22348910212322" lon="-3.5933002262185467"><ele>631.0</ele><time>2026-05-01T09:17:43.999Z</time></trkpt><trkpt lat="39.22343374901861" lon="-3.593345260546396"><ele>631.0</ele><time>2026-05-01T09:17:44.999Z</time></trkpt><trkpt lat="39.223389380490254" lon="-3.593408175266523"><ele>631.0</ele><time>2026-05-01T09:17:45.999Z</time></trkpt><trkpt lat="39.223345359027306" lon="-3.593490908545212"><ele>631.0</ele><time>2026-05-01T09:17:46.999Z</time></trkpt><trkpt lat="39.223302998082374" lon="-3.593595987023993"><ele>631.0</ele><time>2026-05-01T09:17:47.999Z</time></trkpt><trkpt lat="39.22325637429681" lon="-3.5937427755628604"><ele>631.0</ele><time>2026-05-01T09:17:48.999Z</time></trkpt><trkpt lat="39.2232091682119" lon="-3.5939115108989865"><ele>630.8</ele><time>2026-05-01T09:17:49.999Z</time></trkpt><trkpt lat="39.223161303964" lon="-3.5940940647322703"><ele>630.6</ele><time>2026-05-01T09:17:50.999Z</time></trkpt><trkpt lat="39.22312728424089" lon="-3.594223418767409"><ele>630.4</ele><time>2026-05-01T09:17:51.999Z</time></trkpt><trkpt lat="39.22309380888701" lon="-3.594328295273357"><ele>630.2</ele><time>2026-05-01T09:17:52.999Z</time></trkpt><trkpt lat="39.22304959096811" lon="-3.594427638673679"><ele>630.0</ele><time>2026-05-01T09:17:53.999Z</time></trkpt><trkpt lat="39.22300262699219" lon="-3.594537544922744"><ele>629.8333333333334</ele><time>2026-05-01T09:17:54.999Z</time></trkpt><trkpt lat="39.22297989365562" lon="-3.5946145127638776"><ele>629.6666666666666</ele><time>2026-05-01T09:17:55.999Z</time></trkpt><trkpt lat="39.22295766406616" lon="-3.5947570123559447"><ele>629.5</ele><time>2026-05-01T09:17:57.999Z</time></trkpt><trkpt lat="39.22292431150873" lon="-3.594862505698464"><ele>629.3333333333333</ele><time>2026-05-01T09:17:59.999Z</time></trkpt><trkpt lat="39.22283175008049" lon="-3.5949525837872813"><ele>629.1666666666666</ele><time>2026-05-01T09:18:01.999Z</time></trkpt><trkpt lat="39.222770398977" lon="-3.5949866896433753"><ele>629.0</ele><time>2026-05-01T09:18:02.999Z</time></trkpt><trkpt lat="39.22266555211924" lon="-3.594961721356981"><ele>629.0</ele><time>2026-05-01T09:18:04.999Z</time></trkpt><trkpt lat="39.2226103266161" lon="-3.594846670548416"><ele>629.0</ele><time>2026-05-01T09:18:06.999Z</time></trkpt><trkpt lat="39.222626771304434" lon="-3.594694973164908"><ele>629.0</ele><time>2026-05-01T09:18:08.999Z</time></trkpt><trkpt lat="39.22273933931647" lon="-3.5946638116398466"><ele>629.0</ele><time>2026-05-01T09:18:10.999Z</time></trkpt><trkpt lat="39.22284032160683" lon="-3.594764283098757"><ele>629.0</ele><time>2026-05-01T09:18:12.999Z</time></trkpt><trkpt lat="39.22289891940543" lon="-3.5948486820754426"><ele>629.0</ele><time>2026-05-01T09:18:14.999Z</time></trkpt><trkpt lat="39.22295820295049" lon="-3.5947807440499155"><ele>629.0</ele><time>2026-05-01T09:18:16.999Z</time></trkpt><trkpt lat="39.22299925159149" lon="-3.5946144357495458"><ele>629.0</ele><time>2026-05-01T09:18:18.999Z</time></trkpt><trkpt lat="39.22303622442123" lon="-3.594489254698166"><ele>629.0</ele><time>2026-05-01T09:18:19.999Z</time></trkpt><trkpt lat="39.223085590997556" lon="-3.5943587917614757"><ele>629.2</ele><time>2026-05-01T09:18:20.999Z</time></trkpt><trkpt lat="39.22313809764956" lon="-3.5942278620768624"><ele>629.4</ele><time>2026-05-01T09:18:21.999Z</time></trkpt><trkpt lat="39.22318151122292" lon="-3.5940930425009108"><ele>629.6</ele><time>2026-05-01T09:18:22.999Z</time></trkpt><trkpt lat="39.22321758473468" lon="-3.5939729843021966"><ele>629.8</ele><time>2026-05-01T09:18:23.999Z</time></trkpt><trkpt lat="39.22325109385629" lon="-3.5938371657534063"><ele>630.0</ele><time>2026-05-01T09:18:24.999Z</time></trkpt><trkpt lat="39.22328516300959" lon="-3.593704619082831"><ele>630.1666666666666</ele><time>2026-05-01T09:18:25.999Z</time></trkpt><trkpt lat="39.22331452429616" lon="-3.5936037867775217"><ele>630.3333333333334</ele><time>2026-05-01T09:18:26.999Z</time></trkpt><trkpt lat="39.22334704957594" lon="-3.593508886245243"><ele>630.5</ele><time>2026-05-01T09:18:27.999Z</time></trkpt><trkpt lat="39.22338625675593" lon="-3.5934303282625826"><ele>630.6666666666667</ele><time>2026-05-01T09:18:28.999Z</time></trkpt><trkpt lat="39.2234262630586" lon="-3.5933653207969223"><ele>630.8333333333334</ele><time>2026-05-01T09:18:29.999Z</time></trkpt><trkpt lat="39.22352231724956" lon="-3.5932883903390556"><ele>631.0</ele><time>2026-05-01T09:18:31.999Z</time></trkpt><trkpt lat="39.223587435993224" lon="-3.5932406341653107"><ele>631.0</ele><time>2026-05-01T09:18:32.999Z</time></trkpt><trkpt lat="39.22371315088334" lon="-3.5932724761545183"><ele>631.0</ele><time>2026-05-01T09:18:35Z</time></trkpt><trkpt lat="39.22378768348329" lon="-3.593290870255676"><ele>631.0</ele><time>2026-05-01T09:18:36Z</time></trkpt><trkpt lat="39.22387031421965" lon="-3.5933241018253796"><ele>631.0</ele><time>2026-05-01T09:18:37Z</time></trkpt><trkpt lat="39.22396815964889" lon="-3.5933656373411074"><ele>631.0</ele><time>2026-05-01T09:18:38Z</time></trkpt><trkpt lat="39.22408343577951" lon="-3.593410677114688"><ele>631.0</ele><time>2026-05-01T09:18:39Z</time></trkpt><trkpt lat="39.224204228408944" lon="-3.593452900500969"><ele>631.0</ele><time>2026-05-01T09:18:40Z</time></trkpt><trkpt lat="39.224302014566646" lon="-3.5934833664867667"><ele>631.0</ele><time>2026-05-01T09:18:41Z</time></trkpt><trkpt lat="39.22439483883922" lon="-3.59351868500708"><ele>631.0</ele><time>2026-05-01T09:18:42Z</time></trkpt><trkpt lat="39.22449216845235" lon="-3.593555453633364"><ele>631.0</ele><time>2026-05-01T09:18:43Z</time></trkpt><trkpt lat="39.22459628149012" lon="-3.593591462408696"><ele>631.0</ele><time>2026-05-01T09:18:44Z</time></trkpt><trkpt lat="39.22471031740384" lon="-3.5936178442763387"><ele>631.0</ele><time>2026-05-01T09:18:45Z</time></trkpt><trkpt lat="39.224822957536745" lon="-3.5936399304147417"><ele>631.0</ele><time>2026-05-01T09:18:46Z</time></trkpt><trkpt lat="39.22493233093353" lon="-3.5936668758454897"><ele>631.0</ele><time>2026-05-01T09:18:47Z</time></trkpt><trkpt lat="39.22504202639987" lon="-3.5936962848486367"><ele>631.2</ele><time>2026-05-01T09:18:48Z</time></trkpt><trkpt lat="39.22515299983246" lon="-3.5937284377479135"><ele>631.4000000000001</ele><time>2026-05-01T09:18:49Z</time></trkpt><trkpt lat="39.22526151914917" lon="-3.5937581597094903"><ele>631.6</ele><time>2026-05-01T09:18:50Z</time></trkpt><trkpt lat="39.225361486316075" lon="-3.5937892989466915"><ele>631.8000000000001</ele><time>2026-05-01T09:18:51Z</time></trkpt><trkpt lat="39.2254530055951" lon="-3.5938189463548182"><ele>632.0</ele><time>2026-05-01T09:18:52Z</time></trkpt><trkpt lat="39.22553944039933" lon="-3.5938417527049666"><ele>632.0</ele><time>2026-05-01T09:18:53Z</time></trkpt><trkpt lat="39.22562532137273" lon="-3.5938618017218555"><ele>632.0</ele><time>2026-05-01T09:18:54Z</time></trkpt><trkpt lat="39.22570986890639" lon="-3.5938796547088008"><ele>632.0</ele><time>2026-05-01T09:18:55Z</time></trkpt><trkpt lat="39.225780409554645" lon="-3.593898606176406"><ele>632.0</ele><time>2026-05-01T09:18:56Z</time></trkpt><trkpt lat="39.22586031928264" lon="-3.593918958886311"><ele>632.0</ele><time>2026-05-01T09:18:57Z</time></trkpt><trkpt lat="39.225937814984526" lon="-3.5939387419592066"><ele>632.0</ele><time>2026-05-01T09:18:58Z</time></trkpt><trkpt lat="39.22602580115782" lon="-3.593842106673629"><ele>632.1666666666666</ele><time>2026-05-01T09:18:59Z</time></trkpt><trkpt lat="39.226089947984974" lon="-3.593857704221388"><ele>632.3333333333333</ele><time>2026-05-01T09:19:00Z</time></trkpt><trkpt lat="39.22615511137303" lon="-3.5938735489258855"><ele>632.5</ele><time>2026-05-01T09:19:01Z</time></trkpt><trkpt lat="39.22626826042153" lon="-3.5939010615485985"><ele>632.6666666666666</ele><time>2026-05-01T09:19:03Z</time></trkpt><trkpt lat="39.22638399043657" lon="-3.593927078261765"><ele>632.8333333333334</ele><time>2026-05-01T09:19:05Z</time></trkpt><trkpt lat="39.226459512821016" lon="-3.593940953613213"><ele>633.0</ele><time>2026-05-01T09:19:06Z</time></trkpt><trkpt lat="39.226552537959066" lon="-3.5939580446482675"><ele>633.25</ele><time>2026-05-01T09:19:07Z</time></trkpt><trkpt lat="39.226660834845326" lon="-3.593977216982745"><ele>633.5</ele><time>2026-05-01T09:19:08Z</time></trkpt><trkpt lat="39.226789061869056" lon="-3.5939981700448174"><ele>633.75</ele><time>2026-05-01T09:19:09Z</time></trkpt><trkpt lat="39.22692647888442" lon="-3.5940180952985386"><ele>634.0</ele><time>2026-05-01T09:19:10Z</time></trkpt><trkpt lat="39.22705882969188" lon="-3.594037285347805"><ele>634.0</ele><time>2026-05-01T09:19:11Z</time></trkpt><trkpt lat="39.22720713950207" lon="-3.594055381171726"><ele>634.0</ele><time>2026-05-01T09:19:12Z</time></trkpt><trkpt lat="39.227384027091205" lon="-3.594075951109295"><ele>634.0</ele><time>2026-05-01T09:19:13Z</time></trkpt><trkpt lat="39.22757113180242" lon="-3.5940945443355847"><ele>633.0</ele><time>2026-05-01T09:19:14Z</time></trkpt><trkpt lat="39.227774243327765" lon="-3.5941112802210764"><ele>632.0</ele><time>2026-05-01T09:19:15Z</time></trkpt><trkpt lat="39.22796958728542" lon="-3.5941234560387185"><ele>631.0</ele><time>2026-05-01T09:19:16Z</time></trkpt><trkpt lat="39.228130722392315" lon="-3.5941296304966808"><ele>630.6666666666667</ele><time>2026-05-01T09:19:17Z</time></trkpt><trkpt lat="39.228304000025844" lon="-3.594133811008009"><ele>630.3333333333334</ele><time>2026-05-01T09:19:18Z</time></trkpt><trkpt lat="39.22851408027829" lon="-3.594135678921954"><ele>630.0</ele><time>2026-05-01T09:19:19Z</time></trkpt><trkpt lat="39.22871200005196" lon="-3.5941325711293133"><ele>630.0</ele><time>2026-05-01T09:19:20Z</time></trkpt><trkpt lat="39.22888351222159" lon="-3.59412488745358"><ele>630.0</ele><time>2026-05-01T09:19:21Z</time></trkpt><trkpt lat="39.229071341960974" lon="-3.594115158116432"><ele>630.0</ele><time>2026-05-01T09:19:22Z</time></trkpt><trkpt lat="39.22925351437821" lon="-3.5941057836244585"><ele>630.6666666666666</ele><time>2026-05-01T09:19:23Z</time></trkpt><trkpt lat="39.22943160970459" lon="-3.5940923101324187"><ele>631.3333333333333</ele><time>2026-05-01T09:19:24Z</time></trkpt><trkpt lat="39.22959245266948" lon="-3.5940771904432087"><ele>632.0</ele><time>2026-05-01T09:19:25Z</time></trkpt><trkpt lat="39.22973476446643" lon="-3.5940606276999256"><ele>632.0</ele><time>2026-05-01T09:19:26Z</time></trkpt><trkpt lat="39.22986731170896" lon="-3.5940436522310195"><ele>632.0</ele><time>2026-05-01T09:19:27Z</time></trkpt><trkpt lat="39.22998776300618" lon="-3.594027071833789"><ele>632.0</ele><time>2026-05-01T09:19:28Z</time></trkpt><trkpt lat="39.23010210015982" lon="-3.5940105111310574"><ele>632.0</ele><time>2026-05-01T09:19:29Z</time></trkpt><trkpt lat="39.23020320010372" lon="-3.5939945123170407"><ele>632.0</ele><time>2026-05-01T09:19:29.999Z</time></trkpt><trkpt lat="39.23030228158137" lon="-3.5939774020005264"><ele>632.0</ele><time>2026-05-01T09:19:30.999Z</time></trkpt><trkpt lat="39.23041188312931" lon="-3.5939563945435977"><ele>632.0</ele><time>2026-05-01T09:19:31.999Z</time></trkpt><trkpt lat="39.23052856461749" lon="-3.5939338593893115"><ele>632.0</ele><time>2026-05-01T09:19:32.999Z</time></trkpt><trkpt lat="39.23064772458679" lon="-3.593910015204617"><ele>632.0</ele><time>2026-05-01T09:19:33.999Z</time></trkpt><trkpt lat="39.23077182013789" lon="-3.5938838959407944"><ele>632.5</ele><time>2026-05-01T09:19:34.999Z</time></trkpt><trkpt lat="39.23090468887977" lon="-3.5938540223020587"><ele>633.0</ele><time>2026-05-01T09:19:35.999Z</time></trkpt><trkpt lat="39.23104627847032" lon="-3.593820879237821"><ele>633.5</ele><time>2026-05-01T09:19:36.999Z</time></trkpt><trkpt lat="39.23119289848891" lon="-3.593784014522904"><ele>634.0</ele><time>2026-05-01T09:19:37.999Z</time></trkpt><trkpt lat="39.23135612716614" lon="-3.593739997332429"><ele>634.3333333333334</ele><time>2026-05-01T09:19:38.999Z</time></trkpt><trkpt lat="39.23153411998608" lon="-3.593685512273508"><ele>634.6666666666666</ele><time>2026-05-01T09:19:39.999Z</time></trkpt><trkpt lat="39.23169618918052" lon="-3.593633467612211"><ele>635.0</ele><time>2026-05-01T09:19:40.999Z</time></trkpt><trkpt lat="39.23185329504085" lon="-3.5935826428496895"><ele>634.5</ele><time>2026-05-01T09:19:41.999Z</time></trkpt><trkpt lat="39.23199868166289" lon="-3.593535609364928"><ele>634.0</ele><time>2026-05-01T09:19:42.999Z</time></trkpt><trkpt lat="39.23213913025335" lon="-3.593487407358121"><ele>633.5</ele><time>2026-05-01T09:19:43.999Z</time></trkpt><trkpt lat="39.2322857951276" lon="-3.5934317971499934"><ele>633.0</ele><time>2026-05-01T09:19:44.999Z</time></trkpt><trkpt lat="39.232435683112925" lon="-3.5933736445335303"><ele>633.0</ele><time>2026-05-01T09:19:45.999Z</time></trkpt><trkpt lat="39.23259555069061" lon="-3.593307905187375"><ele>633.0</ele><time>2026-05-01T09:19:46.999Z</time></trkpt><trkpt lat="39.23279506663258" lon="-3.593225451084095"><ele>633.0</ele><time>2026-05-01T09:19:47.999Z</time></trkpt><trkpt lat="39.2329829128395" lon="-3.5931413438216815"><ele>633.25</ele><time>2026-05-01T09:19:48.999Z</time></trkpt><trkpt lat="39.233139228188996" lon="-3.593067926008497"><ele>633.5</ele><time>2026-05-01T09:19:49.999Z</time></trkpt><trkpt lat="39.23327397189415" lon="-3.5930039157080937"><ele>633.75</ele><time>2026-05-01T09:19:50.999Z</time></trkpt><trkpt lat="39.23339390275887" lon="-3.5929446362948876"><ele>634.0</ele><time>2026-05-01T09:19:51.999Z</time></trkpt><trkpt lat="39.23350002975841" lon="-3.592890523307829"><ele>633.8</ele><time>2026-05-01T09:19:52.999Z</time></trkpt><trkpt lat="39.23360300688748" lon="-3.592836767712922"><ele>633.5999999999999</ele><time>2026-05-01T09:19:53.999Z</time></trkpt><trkpt lat="39.23370935988512" lon="-3.5927804172409714"><ele>633.4</ele><time>2026-05-01T09:19:54.999Z</time></trkpt><trkpt lat="39.23380086444154" lon="-3.592730865920033"><ele>633.1999999999999</ele><time>2026-05-01T09:19:55.999Z</time></trkpt><trkpt lat="39.23390981129045" lon="-3.592671240162955"><ele>633.0</ele><time>2026-05-01T09:19:56.999Z</time></trkpt><trkpt lat="39.23398546530145" lon="-3.5926239426402673"><ele>633.75</ele><time>2026-05-01T09:19:57.999Z</time></trkpt><trkpt lat="39.234046640763005" lon="-3.592566785698185"><ele>634.5</ele><time>2026-05-01T09:19:58.999Z</time></trkpt><trkpt lat="39.23420692240258" lon="-3.592728141093444"><ele>635.25</ele><time>2026-05-01T09:19:59.999Z</time></trkpt><trkpt lat="39.234283167458756" lon="-3.592740747117426"><ele>636.0</ele><time>2026-05-01T09:20:00.999Z</time></trkpt><trkpt lat="39.23440043052463" lon="-3.5928102805883237"><ele>636.0</ele><time>2026-05-01T09:20:02.999Z</time></trkpt><trkpt lat="39.23473267683634" lon="-3.592592391281214"><ele>636.0</ele><time>2026-05-01T09:20:03.999Z</time></trkpt><trkpt lat="39.234501024201066" lon="-3.592943428246227"><ele>636.3333333333334</ele><time>2026-05-01T09:20:04.999Z</time></trkpt><trkpt lat="39.2345074095697" lon="-3.5930370472626745"><ele>636.6666666666666</ele><time>2026-05-01T09:20:05.999Z</time></trkpt><trkpt lat="39.234506477749456" lon="-3.5931674126064554"><ele>637.0</ele><time>2026-05-01T09:20:06.999Z</time></trkpt><trkpt lat="39.23449105646716" lon="-3.5932766444426933"><ele>637.3333333333333</ele><time>2026-05-01T09:20:07.999Z</time></trkpt><trkpt lat="39.234534109935254" lon="-3.5933954559106303"><ele>637.6666666666666</ele><time>2026-05-01T09:20:08.999Z</time></trkpt><trkpt lat="39.23448700517819" lon="-3.593484818253635"><ele>638.0</ele><time>2026-05-01T09:20:09.999Z</time></trkpt><trkpt lat="39.23440553885578" lon="-3.5934853909988247"><ele>638.0</ele><time>2026-05-01T09:20:13.999Z</time></trkpt><trkpt lat="39.23444691511903" lon="-3.5935543716330165"><ele>638.0</ele><time>2026-05-01T09:20:17.999Z</time></trkpt><trkpt lat="39.23460859541012" lon="-3.5934531962688276"><ele>638.0</ele><time>2026-05-01T09:20:21.999Z</time></trkpt><trkpt lat="39.2346779396786" lon="-3.593344861346026"><ele>638.0</ele><time>2026-05-01T09:20:22.999Z</time></trkpt><trkpt lat="39.23474132123174" lon="-3.593237217868283"><ele>637.0</ele><time>2026-05-01T09:20:23.999Z</time></trkpt><trkpt lat="39.2344879023941" lon="-3.5927850092689404"><ele>636.0</ele><time>2026-05-01T09:20:25.999Z</time></trkpt><trkpt lat="39.23442752565111" lon="-3.5927065614085523"><ele>636.0</ele><time>2026-05-01T09:20:26.999Z</time></trkpt><trkpt lat="39.23432437697968" lon="-3.592645318528639"><ele>636.0</ele><time>2026-05-01T09:20:27.999Z</time></trkpt><trkpt lat="39.2342416525338" lon="-3.592579338184197"><ele>636.0</ele><time>2026-05-01T09:20:28.999Z</time></trkpt><trkpt lat="39.234174799198094" lon="-3.5924936442126434"><ele>636.0</ele><time>2026-05-01T09:20:29.999Z</time></trkpt><trkpt lat="39.234166347609936" lon="-3.5924002831219823"><ele>636.0</ele><time>2026-05-01T09:20:30.999Z</time></trkpt><trkpt lat="39.234193459443816" lon="-3.5923008118190722"><ele>636.0</ele><time>2026-05-01T09:20:31.999Z</time></trkpt><trkpt lat="39.23423654499944" lon="-3.5922312967286527"><ele>636.0</ele><time>2026-05-01T09:20:32.999Z</time></trkpt><trkpt lat="39.23423536941077" lon="-3.5921328311889416"><ele>636.0</ele><time>2026-05-01T09:20:34.999Z</time></trkpt><trkpt lat="39.23432892548108" lon="-3.592092138896907"><ele>636.0</ele><time>2026-05-01T09:20:37.999Z</time></trkpt><trkpt lat="39.23441997752463" lon="-3.5920811083357953"><ele>636.0</ele><time>2026-05-01T09:20:38.999Z</time></trkpt><trkpt lat="39.23452068910801" lon="-3.592094171282525"><ele>636.0</ele><time>2026-05-01T09:20:40Z</time></trkpt><trkpt lat="39.23464297938507" lon="-3.592105916670148"><ele>636.0</ele><time>2026-05-01T09:20:41Z</time></trkpt><trkpt lat="39.23472527215103" lon="-3.5920783308759474"><ele>636.0</ele><time>2026-05-01T09:20:42Z</time></trkpt><trkpt lat="39.234795667764125" lon="-3.5920280067297403"><ele>636.0</ele><time>2026-05-01T09:20:43Z</time></trkpt><trkpt lat="39.23489375090833" lon="-3.591959529226199"><ele>636.0</ele><time>2026-05-01T09:20:44Z</time></trkpt><trkpt lat="39.23501473172708" lon="-3.5918610015763006"><ele>636.0</ele><time>2026-05-01T09:20:45Z</time></trkpt><trkpt lat="39.23514157805692" lon="-3.591750486850488"><ele>636.75</ele><time>2026-05-01T09:20:46Z</time></trkpt><trkpt lat="39.235262129900754" lon="-3.5916349103822562"><ele>637.5</ele><time>2026-05-01T09:20:47Z</time></trkpt><trkpt lat="39.23537967596664" lon="-3.591519230669864"><ele>638.25</ele><time>2026-05-01T09:20:48Z</time></trkpt><trkpt lat="39.23549728162177" lon="-3.591398744364924"><ele>639.0</ele><time>2026-05-01T09:20:49Z</time></trkpt><trkpt lat="39.235620606108746" lon="-3.59127687187822"><ele>639.0</ele><time>2026-05-01T09:20:50Z</time></trkpt><trkpt lat="39.235767880389126" lon="-3.591121354341944"><ele>639.0</ele><time>2026-05-01T09:20:51Z</time></trkpt><trkpt lat="39.23590119878876" lon="-3.5909671089183166"><ele>639.0</ele><time>2026-05-01T09:20:52Z</time></trkpt><trkpt lat="39.2360120513988" lon="-3.590845944165925"><ele>639.0</ele><time>2026-05-01T09:20:53Z</time></trkpt><trkpt lat="39.23607659420494" lon="-3.5907683178709315"><ele>639.0</ele><time>2026-05-01T09:20:54Z</time></trkpt><trkpt lat="39.23613725926285" lon="-3.5906278898563584"><ele>639.0</ele><time>2026-05-01T09:20:56Z</time></trkpt><trkpt lat="39.236173961742324" lon="-3.5905572760467726"><ele>639.0</ele><time>2026-05-01T09:20:57Z</time></trkpt><trkpt lat="39.23610104674996" lon="-3.5903254300831358"><ele>638.6666666666666</ele><time>2026-05-01T09:20:58Z</time></trkpt><trkpt lat="39.236119388171815" lon="-3.590109278263808"><ele>638.3333333333333</ele><time>2026-05-01T09:20:59Z</time></trkpt><trkpt lat="39.236131175436405" lon="-3.5898767755488734"><ele>638.0</ele><time>2026-05-01T09:21:00Z</time></trkpt><trkpt lat="39.2361398502405" lon="-3.5896540081949655"><ele>637.75</ele><time>2026-05-01T09:21:01Z</time></trkpt><trkpt lat="39.23616056672122" lon="-3.5894690713478443"><ele>637.5</ele><time>2026-05-01T09:21:02Z</time></trkpt><trkpt lat="39.23620746557809" lon="-3.5893022059039428"><ele>637.25</ele><time>2026-05-01T09:21:03Z</time></trkpt><trkpt lat="39.23626625143741" lon="-3.589120659703913"><ele>637.0</ele><time>2026-05-01T09:21:04Z</time></trkpt><trkpt lat="39.23634254248877" lon="-3.588890522814281"><ele>637.3333333333334</ele><time>2026-05-01T09:21:05Z</time></trkpt><trkpt lat="39.23640912125313" lon="-3.5886247861476304"><ele>637.6666666666666</ele><time>2026-05-01T09:21:06Z</time></trkpt><trkpt lat="39.23644288096822" lon="-3.5883373428071645"><ele>638.0</ele><time>2026-05-01T09:21:07Z</time></trkpt><trkpt lat="39.236482498552554" lon="-3.588065478105761"><ele>638.6666666666666</ele><time>2026-05-01T09:21:08Z</time></trkpt><trkpt lat="39.23653230174429" lon="-3.5878434338356615"><ele>639.3333333333334</ele><time>2026-05-01T09:21:09Z</time></trkpt><trkpt lat="39.23658086176079" lon="-3.587643592743997"><ele>640.0</ele><time>2026-05-01T09:21:10Z</time></trkpt><trkpt lat="39.236620150710415" lon="-3.587457258804753"><ele>640.0</ele><time>2026-05-01T09:21:11Z</time></trkpt><trkpt lat="39.236648079018366" lon="-3.5872747155588116"><ele>640.0</ele><time>2026-05-01T09:21:12Z</time></trkpt><trkpt lat="39.23667794797392" lon="-3.587103146823236"><ele>640.0</ele><time>2026-05-01T09:21:13Z</time></trkpt><trkpt lat="39.23670223722794" lon="-3.5869433538969147"><ele>640.0</ele><time>2026-05-01T09:21:14Z</time></trkpt><trkpt lat="39.236711987548304" lon="-3.586789332847043"><ele>640.25</ele><time>2026-05-01T09:21:14.999Z</time></trkpt><trkpt lat="39.23671814965539" lon="-3.5866379215518096"><ele>640.5</ele><time>2026-05-01T09:21:15.999Z</time></trkpt><trkpt lat="39.23672538912432" lon="-3.5864596115744676"><ele>640.75</ele><time>2026-05-01T09:21:16.999Z</time></trkpt><trkpt lat="39.23673626309504" lon="-3.586289283898536"><ele>641.0</ele><time>2026-05-01T09:21:17.999Z</time></trkpt><trkpt lat="39.236756437683056" lon="-3.586127152841015"><ele>641.25</ele><time>2026-05-01T09:21:18.999Z</time></trkpt><trkpt lat="39.23678125641479" lon="-3.5859744826184303"><ele>641.5</ele><time>2026-05-01T09:21:19.999Z</time></trkpt><trkpt lat="39.23680611279838" lon="-3.585826666028201"><ele>641.75</ele><time>2026-05-01T09:21:20.999Z</time></trkpt><trkpt lat="39.2368309222911" lon="-3.5856791283046787"><ele>642.0</ele><time>2026-05-01T09:21:21.999Z</time></trkpt><trkpt lat="39.236863980566525" lon="-3.5855002957852835"><ele>641.3333333333334</ele><time>2026-05-01T09:21:22.999Z</time></trkpt><trkpt lat="39.236907999973795" lon="-3.585302048293967"><ele>640.6666666666667</ele><time>2026-05-01T09:21:23.999Z</time></trkpt><trkpt lat="39.23694240407908" lon="-3.585064404332441"><ele>640.0</ele><time>2026-05-01T09:21:24.999Z</time></trkpt><trkpt lat="39.236968874724944" lon="-3.5848070913567933"><ele>640.0</ele><time>2026-05-01T09:21:25.999Z</time></trkpt><trkpt lat="39.23700303186219" lon="-3.5845173393731304"><ele>640.0</ele><time>2026-05-01T09:21:26.999Z</time></trkpt><trkpt lat="39.23704364862412" lon="-3.584202539065815"><ele>640.0</ele><time>2026-05-01T09:21:27.999Z</time></trkpt><trkpt lat="39.23707875421636" lon="-3.5838838112063525"><ele>640.0</ele><time>2026-05-01T09:21:28.999Z</time></trkpt><trkpt lat="39.23710636883182" lon="-3.583610579223992"><ele>639.6666666666667</ele><time>2026-05-01T09:21:29.999Z</time></trkpt><trkpt lat="39.237132446685244" lon="-3.583350312777"><ele>639.3333333333334</ele><time>2026-05-01T09:21:30.999Z</time></trkpt><trkpt lat="39.237155113249685" lon="-3.5831067995937116"><ele>639.0</ele><time>2026-05-01T09:21:31.999Z</time></trkpt><trkpt lat="39.237164514120124" lon="-3.582878351395298"><ele>639.3333333333334</ele><time>2026-05-01T09:21:32.999Z</time></trkpt><trkpt lat="39.23717529391538" lon="-3.5826650073588513"><ele>639.6666666666667</ele><time>2026-05-01T09:21:33.999Z</time></trkpt><trkpt lat="39.23719262662232" lon="-3.5824760708556735"><ele>640.0</ele><time>2026-05-01T09:21:34.999Z</time></trkpt><trkpt lat="39.237218831734126" lon="-3.582291927313631"><ele>640.0</ele><time>2026-05-01T09:21:35.999Z</time></trkpt><trkpt lat="39.23726011048851" lon="-3.582088211536211"><ele>640.0</ele><time>2026-05-01T09:21:36.999Z</time></trkpt><trkpt lat="39.23732653367586" lon="-3.581863375918893"><ele>640.0</ele><time>2026-05-01T09:21:37.999Z</time></trkpt><trkpt lat="39.2373958903193" lon="-3.5816386253641976"><ele>640.3333333333334</ele><time>2026-05-01T09:21:38.999Z</time></trkpt><trkpt lat="39.2374469508759" lon="-3.5814293567000073"><ele>640.6666666666666</ele><time>2026-05-01T09:21:39.999Z</time></trkpt><trkpt lat="39.2374917672869" lon="-3.5811847838855586"><ele>641.0</ele><time>2026-05-01T09:21:40.999Z</time></trkpt><trkpt lat="39.23753092957202" lon="-3.580955701062122"><ele>641.0</ele><time>2026-05-01T09:21:41.999Z</time></trkpt><trkpt lat="39.237564549333335" lon="-3.580749441181393"><ele>641.0</ele><time>2026-05-01T09:21:42.999Z</time></trkpt><trkpt lat="39.237594277409464" lon="-3.580555277921545"><ele>641.0</ele><time>2026-05-01T09:21:43.999Z</time></trkpt><trkpt lat="39.23762016149012" lon="-3.5803739392015546"><ele>640.75</ele><time>2026-05-01T09:21:44.999Z</time></trkpt><trkpt lat="39.23764456653931" lon="-3.58020296228401"><ele>640.5</ele><time>2026-05-01T09:21:45.999Z</time></trkpt><trkpt lat="39.23766908041404" lon="-3.580042796937675"><ele>640.25</ele><time>2026-05-01T09:21:46.999Z</time></trkpt><trkpt lat="39.237693827970595" lon="-3.579887878779879"><ele>640.0</ele><time>2026-05-01T09:21:47.999Z</time></trkpt><trkpt lat="39.23772108403607" lon="-3.579727906736212"><ele>640.0</ele><time>2026-05-01T09:21:48.999Z</time></trkpt><trkpt lat="39.23775032248886" lon="-3.579554258498747"><ele>640.0</ele><time>2026-05-01T09:21:49.999Z</time></trkpt><trkpt lat="39.237601673683265" lon="-3.579513933547022"><ele>640.0</ele><time>2026-05-01T09:21:50.999Z</time></trkpt><trkpt lat="39.23757006884458" lon="-3.579354538812227"><ele>640.0</ele><time>2026-05-01T09:21:51.999Z</time></trkpt><trkpt lat="39.23805438233968" lon="-3.578793487021735"><ele>640.0</ele><time>2026-05-01T09:21:53.999Z</time></trkpt><trkpt lat="39.23807819507669" lon="-3.5785958693421187"><ele>640.0</ele><time>2026-05-01T09:21:54.999Z</time></trkpt><trkpt lat="39.23809484321564" lon="-3.5783630613921935"><ele>640.0</ele><time>2026-05-01T09:21:55.999Z</time></trkpt><trkpt lat="39.238117845895815" lon="-3.578102460895628"><ele>640.3333333333334</ele><time>2026-05-01T09:21:56.999Z</time></trkpt><trkpt lat="39.23815073693875" lon="-3.577841898026872"><ele>640.6666666666666</ele><time>2026-05-01T09:21:57.999Z</time></trkpt><trkpt lat="39.23818990223269" lon="-3.5775544516035303"><ele>641.0</ele><time>2026-05-01T09:21:58.999Z</time></trkpt><trkpt lat="39.23820712341427" lon="-3.5772969301571855"><ele>641.0</ele><time>2026-05-01T09:21:59.999Z</time></trkpt><trkpt lat="39.2382244256628" lon="-3.5770663458951955"><ele>641.0</ele><time>2026-05-01T09:22:00.999Z</time></trkpt><trkpt lat="39.23828631294182" lon="-3.576768231100814"><ele>641.0</ele><time>2026-05-01T09:22:01.999Z</time></trkpt><trkpt lat="39.238317007079054" lon="-3.576544946639167"><ele>640.6666666666666</ele><time>2026-05-01T09:22:02.999Z</time></trkpt><trkpt lat="39.23836211770679" lon="-3.5762983275299467"><ele>640.3333333333334</ele><time>2026-05-01T09:22:03.999Z</time></trkpt><trkpt lat="39.238410514692745" lon="-3.5760819167719524"><ele>640.0</ele><time>2026-05-01T09:22:04.999Z</time></trkpt><trkpt lat="39.238478634455426" lon="-3.5758586497516274"><ele>639.6666666666667</ele><time>2026-05-01T09:22:05.999Z</time></trkpt><trkpt lat="39.23855787322055" lon="-3.575632704403785"><ele>639.3333333333334</ele><time>2026-05-01T09:22:06.999Z</time></trkpt><trkpt lat="39.23863394265554" lon="-3.575440868802518"><ele>639.0</ele><time>2026-05-01T09:22:07.999Z</time></trkpt><trkpt lat="39.238683579716714" lon="-3.5752670676906657"><ele>639.0</ele><time>2026-05-01T09:22:08.999Z</time></trkpt><trkpt lat="39.238714894981946" lon="-3.575087844659891"><ele>639.0</ele><time>2026-05-01T09:22:09.999Z</time></trkpt><trkpt lat="39.23874418449093" lon="-3.574873307217469"><ele>639.0</ele><time>2026-05-01T09:22:10.999Z</time></trkpt><trkpt lat="39.238758246149466" lon="-3.5746850213665877"><ele>639.0</ele><time>2026-05-01T09:22:11.999Z</time></trkpt><trkpt lat="39.23877371874061" lon="-3.5745009520968876"><ele>639.0</ele><time>2026-05-01T09:22:12.999Z</time></trkpt><trkpt lat="39.238764818958096" lon="-3.574316139757987"><ele>639.0</ele><time>2026-05-01T09:22:13.999Z</time></trkpt><trkpt lat="39.238743114659876" lon="-3.574152202658291"><ele>639.0</ele><time>2026-05-01T09:22:14.999Z</time></trkpt><trkpt lat="39.23873888920482" lon="-3.5740045910191673"><ele>639.0</ele><time>2026-05-01T09:22:15.999Z</time></trkpt><trkpt lat="39.238759393362756" lon="-3.573866807327444"><ele>639.0</ele><time>2026-05-01T09:22:16.999Z</time></trkpt><trkpt lat="39.23879898761936" lon="-3.573726346940837"><ele>639.0</ele><time>2026-05-01T09:22:17.999Z</time></trkpt><trkpt lat="39.238850584453736" lon="-3.57359416864848"><ele>639.0</ele><time>2026-05-01T09:22:18.999Z</time></trkpt><trkpt lat="39.2389131248731" lon="-3.5734516243942647"><ele>639.75</ele><time>2026-05-01T09:22:19.999Z</time></trkpt><trkpt lat="39.23899556602617" lon="-3.5732965414408127"><ele>640.5</ele><time>2026-05-01T09:22:20.999Z</time></trkpt><trkpt lat="39.23908984862688" lon="-3.5731587470773793"><ele>641.25</ele><time>2026-05-01T09:22:21.999Z</time></trkpt><trkpt lat="39.23919034341067" lon="-3.5730445138477824"><ele>642.0</ele><time>2026-05-01T09:22:22.999Z</time></trkpt><trkpt lat="39.23930807098328" lon="-3.5729379761326916"><ele>641.6666666666666</ele><time>2026-05-01T09:22:23.999Z</time></trkpt><trkpt lat="39.23944023796465" lon="-3.572847278165251"><ele>641.3333333333333</ele><time>2026-05-01T09:22:24.999Z</time></trkpt><trkpt lat="39.239607854433615" lon="-3.572740111171272"><ele>641.0</ele><time>2026-05-01T09:22:25.999Z</time></trkpt><trkpt lat="39.23978839455012" lon="-3.572626405591985"><ele>641.25</ele><time>2026-05-01T09:22:26.999Z</time></trkpt><trkpt lat="39.23992836370608" lon="-3.5725126447010287"><ele>641.5</ele><time>2026-05-01T09:22:27.999Z</time></trkpt><trkpt lat="39.240032824132236" lon="-3.57238936836845"><ele>641.75</ele><time>2026-05-01T09:22:28.999Z</time></trkpt><trkpt lat="39.24011449562068" lon="-3.572262903504474"><ele>642.0</ele><time>2026-05-01T09:22:29.999Z</time></trkpt><trkpt lat="39.24021609955143" lon="-3.57209097397935"><ele>642.3333333333334</ele><time>2026-05-01T09:22:30.999Z</time></trkpt><trkpt lat="39.240337318330816" lon="-3.5718922897831606"><ele>642.6666666666667</ele><time>2026-05-01T09:22:31.999Z</time></trkpt><trkpt lat="39.24048646397433" lon="-3.571683795609953"><ele>643.0</ele><time>2026-05-01T09:22:32.999Z</time></trkpt><trkpt lat="39.240646605867376" lon="-3.571476672441594"><ele>643.0</ele><time>2026-05-01T09:22:33.999Z</time></trkpt><trkpt lat="39.24077052620335" lon="-3.5713046951391068"><ele>643.0</ele><time>2026-05-01T09:22:34.999Z</time></trkpt><trkpt lat="39.24088499610458" lon="-3.571150815787924"><ele>643.0</ele><time>2026-05-01T09:22:35.999Z</time></trkpt><trkpt lat="39.24100605419303" lon="-3.5709716430493277"><ele>642.6666666666667</ele><time>2026-05-01T09:22:36.999Z</time></trkpt><trkpt lat="39.24111718343342" lon="-3.5707918607902456"><ele>642.3333333333334</ele><time>2026-05-01T09:22:37.998Z</time></trkpt><trkpt lat="39.241204240031685" lon="-3.5706226931567615"><ele>642.0</ele><time>2026-05-01T09:22:38.998Z</time></trkpt><trkpt lat="39.24128272285415" lon="-3.5704383819153636"><ele>641.3333333333334</ele><time>2026-05-01T09:22:39.998Z</time></trkpt><trkpt lat="39.241369335278954" lon="-3.570251054319926"><ele>640.6666666666667</ele><time>2026-05-01T09:22:40.998Z</time></trkpt><trkpt lat="39.24145672018926" lon="-3.5700552141465365"><ele>640.0</ele><time>2026-05-01T09:22:41.998Z</time></trkpt><trkpt lat="39.24154705002939" lon="-3.5698781821563514"><ele>641.0</ele><time>2026-05-01T09:22:42.998Z</time></trkpt><trkpt lat="39.24164442652425" lon="-3.569712006309219"><ele>642.0</ele><time>2026-05-01T09:22:43.998Z</time></trkpt><trkpt lat="39.241745654320155" lon="-3.569549765218907"><ele>643.0</ele><time>2026-05-01T09:22:44.998Z</time></trkpt><trkpt lat="39.24183539676848" lon="-3.569403539279296"><ele>643.0</ele><time>2026-05-01T09:22:45.999Z</time></trkpt><trkpt lat="39.24191006442975" lon="-3.569274436816742"><ele>643.0</ele><time>2026-05-01T09:22:46.999Z</time></trkpt><trkpt lat="39.24199166619599" lon="-3.5691662190001616"><ele>643.0</ele><time>2026-05-01T09:22:47.999Z</time></trkpt><trkpt lat="39.24209873189462" lon="-3.5690592483309542"><ele>643.0</ele><time>2026-05-01T09:22:48.999Z</time></trkpt><trkpt lat="39.24223043319736" lon="-3.568934328737802"><ele>643.0</ele><time>2026-05-01T09:22:49.999Z</time></trkpt><trkpt lat="39.242320845684134" lon="-3.5688104476304647"><ele>643.0</ele><time>2026-05-01T09:22:50.999Z</time></trkpt><trkpt lat="39.242413761510136" lon="-3.5686635554354154"><ele>643.0</ele><time>2026-05-01T09:22:51.999Z</time></trkpt><trkpt lat="39.24252207908796" lon="-3.5684804850774867"><ele>643.0</ele><time>2026-05-01T09:22:52.999Z</time></trkpt><trkpt lat="39.242652253373905" lon="-3.5682681492815553"><ele>643.0</ele><time>2026-05-01T09:22:53.999Z</time></trkpt><trkpt lat="39.24279057350823" lon="-3.56804467216873"><ele>643.0</ele><time>2026-05-01T09:22:54.999Z</time></trkpt><trkpt lat="39.24292434272779" lon="-3.5678385941362336"><ele>643.0</ele><time>2026-05-01T09:22:55.999Z</time></trkpt><trkpt lat="39.24303289708807" lon="-3.5676733628531805"><ele>643.0</ele><time>2026-05-01T09:22:56.999Z</time></trkpt><trkpt lat="39.243130926020086" lon="-3.567530028776167"><ele>643.0</ele><time>2026-05-01T09:22:57.999Z</time></trkpt><trkpt lat="39.24322346123055" lon="-3.5674078254689126"><ele>643.0</ele><time>2026-05-01T09:22:58.999Z</time></trkpt><trkpt lat="39.24330925015755" lon="-3.5672982854841138"><ele>643.5</ele><time>2026-05-01T09:22:59.999Z</time></trkpt><trkpt lat="39.243381720412664" lon="-3.5671763935293384"><ele>644.0</ele><time>2026-05-01T09:23:00.999Z</time></trkpt><trkpt lat="39.24345008680993" lon="-3.5670255711882457"><ele>644.5</ele><time>2026-05-01T09:23:01.999Z</time></trkpt><trkpt lat="39.24352505074016" lon="-3.5668512934855396"><ele>645.0</ele><time>2026-05-01T09:23:02.999Z</time></trkpt><trkpt lat="39.24358918896354" lon="-3.5667148085034284"><ele>645.0</ele><time>2026-05-01T09:23:03.999Z</time></trkpt><trkpt lat="39.24364542897055" lon="-3.566618881568803"><ele>645.0</ele><time>2026-05-01T09:23:04.999Z</time></trkpt><trkpt lat="39.24371760417651" lon="-3.566540040172481"><ele>645.0</ele><time>2026-05-01T09:23:05.999Z</time></trkpt><trkpt lat="39.243808211954445" lon="-3.5664526495845577"><ele>645.0</ele><time>2026-05-01T09:23:06.999Z</time></trkpt><trkpt lat="39.24389519464559" lon="-3.5663361040460893"><ele>645.0</ele><time>2026-05-01T09:23:07.999Z</time></trkpt><trkpt lat="39.24397260456666" lon="-3.566208088493881"><ele>645.5</ele><time>2026-05-01T09:23:08.999Z</time></trkpt><trkpt lat="39.2440615699165" lon="-3.56608031233513"><ele>646.0</ele><time>2026-05-01T09:23:09.999Z</time></trkpt><trkpt lat="39.24414030553699" lon="-3.5659616106742686"><ele>646.5</ele><time>2026-05-01T09:23:10.999Z</time></trkpt><trkpt lat="39.244198118646366" lon="-3.56582373366898"><ele>647.0</ele><time>2026-05-01T09:23:11.999Z</time></trkpt><trkpt lat="39.24425357236491" lon="-3.5656648897333225"><ele>647.0</ele><time>2026-05-01T09:23:12.999Z</time></trkpt><trkpt lat="39.24431078642376" lon="-3.565485988772505"><ele>647.0</ele><time>2026-05-01T09:23:13.999Z</time></trkpt><trkpt lat="39.24437142363263" lon="-3.565307080595836"><ele>647.0</ele><time>2026-05-01T09:23:14.999Z</time></trkpt><trkpt lat="39.24443606885577" lon="-3.5651282904415385"><ele>646.5</ele><time>2026-05-01T09:23:15.999Z</time></trkpt><trkpt lat="39.24450184047993" lon="-3.5649706259214655"><ele>646.0</ele><time>2026-05-01T09:23:16.999Z</time></trkpt><trkpt lat="39.244576878589946" lon="-3.56480197502425"><ele>645.5</ele><time>2026-05-01T09:23:17.999Z</time></trkpt><trkpt lat="39.244644192060186" lon="-3.5646412064068946"><ele>645.0</ele><time>2026-05-01T09:23:18.999Z</time></trkpt><trkpt lat="39.244715140868834" lon="-3.5644906393896876"><ele>645.25</ele><time>2026-05-01T09:23:19.999Z</time></trkpt><trkpt lat="39.24479650441483" lon="-3.564329158695611"><ele>645.5</ele><time>2026-05-01T09:23:20.999Z</time></trkpt><trkpt lat="39.24486296627829" lon="-3.5641537331174047"><ele>645.75</ele><time>2026-05-01T09:23:21.999Z</time></trkpt><trkpt lat="39.2449207143175" lon="-3.5639833551863123"><ele>646.0</ele><time>2026-05-01T09:23:22.999Z</time></trkpt><trkpt lat="39.24497944105948" lon="-3.5638347094163434"><ele>645.5999999999999</ele><time>2026-05-01T09:23:23.999Z</time></trkpt><trkpt lat="39.24504053451095" lon="-3.5636788820232455"><ele>645.2</ele><time>2026-05-01T09:23:24.999Z</time></trkpt><trkpt lat="39.24509229584697" lon="-3.563541230380097"><ele>644.8</ele><time>2026-05-01T09:23:25.999Z</time></trkpt><trkpt lat="39.24514348341292" lon="-3.5634316514938553"><ele>644.4000000000001</ele><time>2026-05-01T09:23:26.999Z</time></trkpt><trkpt lat="39.24520382779554" lon="-3.5633422168992843"><ele>644.0</ele><time>2026-05-01T09:23:27.999Z</time></trkpt><trkpt lat="39.24528721410018" lon="-3.563239349734103"><ele>644.0</ele><time>2026-05-01T09:23:28.999Z</time></trkpt><trkpt lat="39.24537558314953" lon="-3.5631506522265637"><ele>644.0</ele><time>2026-05-01T09:23:29.999Z</time></trkpt><trkpt lat="39.24547677036848" lon="-3.563041611332635"><ele>644.0</ele><time>2026-05-01T09:23:30.999Z</time></trkpt><trkpt lat="39.245583570135736" lon="-3.5629174249826145"><ele>644.0</ele><time>2026-05-01T09:23:31.999Z</time></trkpt><trkpt lat="39.2456907937402" lon="-3.5627960529857337"><ele>644.5</ele><time>2026-05-01T09:23:32.999Z</time></trkpt><trkpt lat="39.245781702928596" lon="-3.5626625389037523"><ele>645.0</ele><time>2026-05-01T09:23:33.999Z</time></trkpt><trkpt lat="39.24586055203321" lon="-3.562516704050273"><ele>645.5</ele><time>2026-05-01T09:23:34.999Z</time></trkpt><trkpt lat="39.245941315531" lon="-3.56235885493555"><ele>646.0</ele><time>2026-05-01T09:23:35.999Z</time></trkpt><trkpt lat="39.246026771739636" lon="-3.5622160679111556"><ele>646.0</ele><time>2026-05-01T09:23:36.999Z</time></trkpt><trkpt lat="39.24611156527291" lon="-3.5620957672774995"><ele>646.0</ele><time>2026-05-01T09:23:37.999Z</time></trkpt><trkpt lat="39.24619873734427" lon="-3.5619905960689735"><ele>646.0</ele><time>2026-05-01T09:23:38.999Z</time></trkpt><trkpt lat="39.246304474443356" lon="-3.5618810846997895"><ele>646.0</ele><time>2026-05-01T09:23:39.999Z</time></trkpt><trkpt lat="39.24641504052498" lon="-3.5617571496459206"><ele>646.5</ele><time>2026-05-01T09:23:40.999Z</time></trkpt><trkpt lat="39.24649741336248" lon="-3.5616350701293573"><ele>647.0</ele><time>2026-05-01T09:23:41.999Z</time></trkpt><trkpt lat="39.24656658485589" lon="-3.5615081071137253"><ele>647.5</ele><time>2026-05-01T09:23:42.999Z</time></trkpt><trkpt lat="39.24662945365364" lon="-3.5613686161591285"><ele>648.0</ele><time>2026-05-01T09:23:43.999Z</time></trkpt><trkpt lat="39.2466984703073" lon="-3.561213639517717"><ele>647.5</ele><time>2026-05-01T09:23:44.999Z</time></trkpt><trkpt lat="39.24677716950019" lon="-3.5610646702960342"><ele>647.0</ele><time>2026-05-01T09:23:45.999Z</time></trkpt><trkpt lat="39.24686528454453" lon="-3.560922631448153"><ele>646.5</ele><time>2026-05-01T09:23:46.999Z</time></trkpt><trkpt lat="39.246965218396596" lon="-3.5607716624916486"><ele>646.0</ele><time>2026-05-01T09:23:47.999Z</time></trkpt><trkpt lat="39.247053453379586" lon="-3.560632753908806"><ele>646.0</ele><time>2026-05-01T09:23:48.999Z</time></trkpt><trkpt lat="39.24713178715863" lon="-3.5605115650334245"><ele>646.0</ele><time>2026-05-01T09:23:49.999Z</time></trkpt><trkpt lat="39.24720554158916" lon="-3.560416209789608"><ele>646.0</ele><time>2026-05-01T09:23:50.999Z</time></trkpt><trkpt lat="39.24728197967278" lon="-3.560306997012494"><ele>646.0</ele><time>2026-05-01T09:23:51.999Z</time></trkpt><trkpt lat="39.24735413468981" lon="-3.560180598440184"><ele>645.75</ele><time>2026-05-01T09:23:52.999Z</time></trkpt><trkpt lat="39.24741964444897" lon="-3.5600388498501507"><ele>645.5</ele><time>2026-05-01T09:23:53.999Z</time></trkpt><trkpt lat="39.24748880992924" lon="-3.5598885093148582"><ele>645.25</ele><time>2026-05-01T09:23:54.999Z</time></trkpt><trkpt lat="39.247567118852935" lon="-3.559722311532852"><ele>645.0</ele><time>2026-05-01T09:23:55.999Z</time></trkpt><trkpt lat="39.2476608260983" lon="-3.559532558974057"><ele>645.0</ele><time>2026-05-01T09:23:56.999Z</time></trkpt><trkpt lat="39.24774666606337" lon="-3.5593438422846466"><ele>645.0</ele><time>2026-05-01T09:23:57.999Z</time></trkpt><trkpt lat="39.24782813717026" lon="-3.5591813673478265"><ele>645.0</ele><time>2026-05-01T09:23:58.999Z</time></trkpt><trkpt lat="39.24791652597581" lon="-3.559025237843372"><ele>645.0</ele><time>2026-05-01T09:23:59.999Z</time></trkpt><trkpt lat="39.24800976809461" lon="-3.5588657513401882"><ele>645.0</ele><time>2026-05-01T09:24:00.999Z</time></trkpt><trkpt lat="39.2481127794234" lon="-3.5586689739088992"><ele>645.0</ele><time>2026-05-01T09:24:01.999Z</time></trkpt><trkpt lat="39.248190834772764" lon="-3.5585289300655556"><ele>645.0</ele><time>2026-05-01T09:24:02.999Z</time></trkpt><trkpt lat="39.24829158235028" lon="-3.558379252600512"><ele>645.0</ele><time>2026-05-01T09:24:03.999Z</time></trkpt><trkpt lat="39.248397996746846" lon="-3.5582350202959576"><ele>645.0</ele><time>2026-05-01T09:24:04.999Z</time></trkpt><trkpt lat="39.24849597222653" lon="-3.558113016029242"><ele>645.0</ele><time>2026-05-01T09:24:05.999Z</time></trkpt><trkpt lat="39.24858860805838" lon="-3.5579954203314266"><ele>645.0</ele><time>2026-05-01T09:24:06.999Z</time></trkpt><trkpt lat="39.248672733535074" lon="-3.557907671417784"><ele>645.0</ele><time>2026-05-01T09:24:07.999Z</time></trkpt><trkpt lat="39.248726711038316" lon="-3.5578331620953136"><ele>645.0</ele><time>2026-05-01T09:24:08.999Z</time></trkpt><trkpt lat="39.248774831070726" lon="-3.557752341704034"><ele>645.0</ele><time>2026-05-01T09:24:11.999Z</time></trkpt><trkpt lat="39.24882325195363" lon="-3.5576770465281133"><ele>645.0</ele><time>2026-05-01T09:24:13.999Z</time></trkpt><trkpt lat="39.248876813756134" lon="-3.5575941390533403"><ele>645.0</ele><time>2026-05-01T09:24:14.999Z</time></trkpt><trkpt lat="39.24893347929461" lon="-3.5575073888496354"><ele>645.2</ele><time>2026-05-01T09:24:15.999Z</time></trkpt><trkpt lat="39.24901247291224" lon="-3.5574364057876324"><ele>645.4</ele><time>2026-05-01T09:24:16.999Z</time></trkpt><trkpt lat="39.2490655852638" lon="-3.5573246794243523"><ele>645.5999999999999</ele><time>2026-05-01T09:24:17.999Z</time></trkpt><trkpt lat="39.249141716270834" lon="-3.5572025176766178"><ele>645.8</ele><time>2026-05-01T09:24:18.999Z</time></trkpt><trkpt lat="39.24921562063493" lon="-3.5570713010155854"><ele>646.0</ele><time>2026-05-01T09:24:19.999Z</time></trkpt><trkpt lat="39.24928395054924" lon="-3.5569441817603265"><ele>645.5</ele><time>2026-05-01T09:24:20.999Z</time></trkpt><trkpt lat="39.249363468227415" lon="-3.5568078836340713"><ele>645.0</ele><time>2026-05-01T09:24:21.999Z</time></trkpt><trkpt lat="39.24944575421764" lon="-3.5566984036635483"><ele>644.5</ele><time>2026-05-01T09:24:22.999Z</time></trkpt><trkpt lat="39.24952184079982" lon="-3.556617750025844"><ele>644.0</ele><time>2026-05-01T09:24:23.999Z</time></trkpt><trkpt lat="39.249592671677036" lon="-3.5565064391767787"><ele>644.0</ele><time>2026-05-01T09:24:24.999Z</time></trkpt><trkpt lat="39.24965585982732" lon="-3.5563857127880203"><ele>644.0</ele><time>2026-05-01T09:24:25.999Z</time></trkpt><trkpt lat="39.24973896987626" lon="-3.556266429641059"><ele>644.0</ele><time>2026-05-01T09:24:26.999Z</time></trkpt><trkpt lat="39.24980943654287" lon="-3.556188669995947"><ele>644.0</ele><time>2026-05-01T09:24:27.999Z</time></trkpt><trkpt lat="39.24985865340123" lon="-3.556135846142866"><ele>644.0</ele><time>2026-05-01T09:24:29.999Z</time></trkpt><trkpt lat="39.24990784128831" lon="-3.5560671755645106"><ele>644.0</ele><time>2026-05-01T09:24:42.999Z</time></trkpt><trkpt lat="39.24997600410998" lon="-3.5559693967130244"><ele>644.0</ele><time>2026-05-01T09:26:42.999Z</time></trkpt><trkpt lat="39.25004607596217" lon="-3.5558989994893855"><ele>644.0</ele><time>2026-05-01T09:26:43.999Z</time></trkpt><trkpt lat="39.25012901366505" lon="-3.5558190829765004"><ele>644.0</ele><time>2026-05-01T09:26:44.999Z</time></trkpt><trkpt lat="39.2502114261681" lon="-3.5557307788348282"><ele>644.0</ele><time>2026-05-01T09:26:45.999Z</time></trkpt><trkpt lat="39.25027070690572" lon="-3.555657851715503"><ele>644.0</ele><time>2026-05-01T09:26:46.999Z</time></trkpt><trkpt lat="39.25035405013613" lon="-3.5555646920585526"><ele>644.0</ele><time>2026-05-01T09:26:47.999Z</time></trkpt><trkpt lat="39.25042234621196" lon="-3.555473733045735"><ele>644.0</ele><time>2026-05-01T09:26:48.999Z</time></trkpt><trkpt lat="39.25047971079048" lon="-3.5554072280993267"><ele>644.0</ele><time>2026-05-01T09:26:49.999Z</time></trkpt><trkpt lat="39.250542459866566" lon="-3.555351383453018"><ele>644.0</ele><time>2026-05-01T09:26:50.999Z</time></trkpt><trkpt lat="39.2506515532293" lon="-3.555236024078609"><ele>643.8333333333333</ele><time>2026-05-01T09:26:51.999Z</time></trkpt><trkpt lat="39.25071560863959" lon="-3.555160658354745"><ele>643.6666666666666</ele><time>2026-05-01T09:26:52.999Z</time></trkpt><trkpt lat="39.25078138635691" lon="-3.5550938778658834"><ele>643.5</ele><time>2026-05-01T09:26:53.999Z</time></trkpt><trkpt lat="39.25084719294223" lon="-3.555039120977203"><ele>643.3333333333334</ele><time>2026-05-01T09:26:54.999Z</time></trkpt><trkpt lat="39.25090876212261" lon="-3.5549925168265073"><ele>643.1666666666667</ele><time>2026-05-01T09:26:55.999Z</time></trkpt><trkpt lat="39.25097063502869" lon="-3.554946006830908"><ele>643.0</ele><time>2026-05-01T09:26:56.999Z</time></trkpt><trkpt lat="39.251059549008744" lon="-3.5548828905510264"><ele>643.0</ele><time>2026-05-01T09:26:58Z</time></trkpt><trkpt lat="39.25118694729899" lon="-3.5547978384119965"><ele>643.0</ele><time>2026-05-01T09:26:59Z</time></trkpt><trkpt lat="39.25130412437818" lon="-3.554718740528933"><ele>643.0</ele><time>2026-05-01T09:27:00Z</time></trkpt><trkpt lat="39.25139986474545" lon="-3.5546659928106874"><ele>643.0</ele><time>2026-05-01T09:27:01Z</time></trkpt><trkpt lat="39.25147669871539" lon="-3.5546164607199042"><ele>643.0</ele><time>2026-05-01T09:27:02Z</time></trkpt><trkpt lat="39.25153354646103" lon="-3.554542700405676"><ele>643.0</ele><time>2026-05-01T09:27:03Z</time></trkpt><trkpt lat="39.25156735838382" lon="-3.5544086927428853"><ele>643.0</ele><time>2026-05-01T09:27:04Z</time></trkpt><trkpt lat="39.25164519630698" lon="-3.5542778181106667"><ele>643.0</ele><time>2026-05-01T09:27:05Z</time></trkpt><trkpt lat="39.251725875953376" lon="-3.554114995787943"><ele>643.0</ele><time>2026-05-01T09:27:06Z</time></trkpt><trkpt lat="39.251807817490274" lon="-3.5539427972762363"><ele>643.0</ele><time>2026-05-01T09:27:07Z</time></trkpt><trkpt lat="39.25188847899329" lon="-3.5537713576119923"><ele>643.0</ele><time>2026-05-01T09:27:08Z</time></trkpt><trkpt lat="39.25194841466742" lon="-3.553602028940415"><ele>643.0</ele><time>2026-05-01T09:27:09Z</time></trkpt><trkpt lat="39.25199828137856" lon="-3.5534603662277298"><ele>643.0</ele><time>2026-05-01T09:27:10Z</time></trkpt><trkpt lat="39.2521469319767" lon="-3.553396081127341"><ele>643.0</ele><time>2026-05-01T09:27:11Z</time></trkpt><trkpt lat="39.25224718763656" lon="-3.553305284740923"><ele>643.0</ele><time>2026-05-01T09:27:12Z</time></trkpt><trkpt lat="39.25237993223935" lon="-3.5531964932734845"><ele>643.0</ele><time>2026-05-01T09:27:13Z</time></trkpt><trkpt lat="39.252522688597345" lon="-3.5530769878010555"><ele>643.0</ele><time>2026-05-01T09:27:14Z</time></trkpt><trkpt lat="39.25267456891205" lon="-3.5529995248967494"><ele>643.0</ele><time>2026-05-01T09:27:15Z</time></trkpt><trkpt lat="39.25280049234481" lon="-3.5529360832490386"><ele>643.0</ele><time>2026-05-01T09:27:16Z</time></trkpt><trkpt lat="39.25293258551477" lon="-3.5528862116520865"><ele>643.0</ele><time>2026-05-01T09:27:17Z</time></trkpt><trkpt lat="39.253067357814444" lon="-3.552822704775177"><ele>643.0</ele><time>2026-05-01T09:27:18Z</time></trkpt><trkpt lat="39.25322485421231" lon="-3.5527268433449315"><ele>643.3333333333334</ele><time>2026-05-01T09:27:19Z</time></trkpt><trkpt lat="39.253368991434" lon="-3.5526200051720074"><ele>643.6666666666666</ele><time>2026-05-01T09:27:20Z</time></trkpt><trkpt lat="39.25350195049379" lon="-3.55250717051824"><ele>644.0</ele><time>2026-05-01T09:27:21Z</time></trkpt><trkpt lat="39.25363107331314" lon="-3.5523988861979614"><ele>644.0</ele><time>2026-05-01T09:27:22Z</time></trkpt><trkpt lat="39.25376043791967" lon="-3.5522712574324107"><ele>644.0</ele><time>2026-05-01T09:27:23Z</time></trkpt><trkpt lat="39.2538974603543" lon="-3.5521168813280544"><ele>644.0</ele><time>2026-05-01T09:27:24Z</time></trkpt><trkpt lat="39.254026614386675" lon="-3.5519663124554994"><ele>643.8333333333333</ele><time>2026-05-01T09:27:25Z</time></trkpt><trkpt lat="39.25411831689486" lon="-3.5518593238996554"><ele>643.6666666666666</ele><time>2026-05-01T09:27:26Z</time></trkpt><trkpt lat="39.25419758632499" lon="-3.5517897837417878"><ele>643.5</ele><time>2026-05-01T09:27:27Z</time></trkpt><trkpt lat="39.25426036458687" lon="-3.5517437452428458"><ele>643.3333333333334</ele><time>2026-05-01T09:27:28Z</time></trkpt><trkpt lat="39.25433105100821" lon="-3.5517175016854026"><ele>643.1666666666667</ele><time>2026-05-01T09:27:29Z</time></trkpt><trkpt lat="39.254411001532475" lon="-3.5517115452645838"><ele>643.0</ele><time>2026-05-01T09:27:30Z</time></trkpt><trkpt lat="39.254523031731026" lon="-3.55168434907234"><ele>643.0</ele><time>2026-05-01T09:27:31Z</time></trkpt><trkpt lat="39.25462296934124" lon="-3.551636048799524"><ele>643.0</ele><time>2026-05-01T09:27:32Z</time></trkpt><trkpt lat="39.25470621863969" lon="-3.5515655737465606"><ele>643.0</ele><time>2026-05-01T09:27:33Z</time></trkpt><trkpt lat="39.25480373702363" lon="-3.55146129874196"><ele>643.0</ele><time>2026-05-01T09:27:34Z</time></trkpt><trkpt lat="39.25491396164268" lon="-3.551323894128675"><ele>643.0</ele><time>2026-05-01T09:27:35Z</time></trkpt><trkpt lat="39.2550182237351" lon="-3.551167212395492"><ele>643.0</ele><time>2026-05-01T09:27:36Z</time></trkpt><trkpt lat="39.25509937423646" lon="-3.5510116088231714"><ele>643.0</ele><time>2026-05-01T09:27:37Z</time></trkpt><trkpt lat="39.25517995807746" lon="-3.5508600615966945"><ele>643.0</ele><time>2026-05-01T09:27:38Z</time></trkpt><trkpt lat="39.255276197011646" lon="-3.550722295884061"><ele>643.0</ele><time>2026-05-01T09:27:39Z</time></trkpt><trkpt lat="39.255412733080966" lon="-3.550560082564673"><ele>643.0</ele><time>2026-05-01T09:27:40Z</time></trkpt><trkpt lat="39.255567915175995" lon="-3.550366674060778"><ele>643.0</ele><time>2026-05-01T09:27:41Z</time></trkpt><trkpt lat="39.25570909718369" lon="-3.5501789604543466"><ele>643.25</ele><time>2026-05-01T09:27:42Z</time></trkpt><trkpt lat="39.25580631251148" lon="-3.5500218849317693"><ele>643.5</ele><time>2026-05-01T09:27:43Z</time></trkpt><trkpt lat="39.255877715020134" lon="-3.5498686289906374"><ele>643.75</ele><time>2026-05-01T09:27:44Z</time></trkpt><trkpt lat="39.25594378992761" lon="-3.549700208998048"><ele>644.0</ele><time>2026-05-01T09:27:45Z</time></trkpt><trkpt lat="39.25601501680975" lon="-3.549518862640137"><ele>643.0</ele><time>2026-05-01T09:27:46Z</time></trkpt><trkpt lat="39.25607919716747" lon="-3.5493319233744822"><ele>642.0</ele><time>2026-05-01T09:27:47Z</time></trkpt><trkpt lat="39.25613907361443" lon="-3.549112412048151"><ele>641.0</ele><time>2026-05-01T09:27:48Z</time></trkpt><trkpt lat="39.256208748703074" lon="-3.54884535559269"><ele>640.6666666666666</ele><time>2026-05-01T09:27:49Z</time></trkpt><trkpt lat="39.256281319334015" lon="-3.548610334171674"><ele>640.3333333333334</ele><time>2026-05-01T09:27:50Z</time></trkpt><trkpt lat="39.25636730725719" lon="-3.5483929336087794"><ele>640.0</ele><time>2026-05-01T09:27:51Z</time></trkpt><trkpt lat="39.25646297065285" lon="-3.548194443689175"><ele>639.8</ele><time>2026-05-01T09:27:52Z</time></trkpt><trkpt lat="39.2565456161649" lon="-3.548046823826482"><ele>639.6</ele><time>2026-05-01T09:27:53Z</time></trkpt><trkpt lat="39.25662381773854" lon="-3.547930794521958"><ele>639.4</ele><time>2026-05-01T09:27:54Z</time></trkpt><trkpt lat="39.25668790103096" lon="-3.547842505762758"><ele>639.2</ele><time>2026-05-01T09:27:55Z</time></trkpt><trkpt lat="39.25674035985207" lon="-3.5477703360849815"><ele>639.0</ele><time>2026-05-01T09:27:56Z</time></trkpt><trkpt lat="39.256808637534505" lon="-3.54769234232416"><ele>639.5</ele><time>2026-05-01T09:27:57Z</time></trkpt><trkpt lat="39.256890286355144" lon="-3.547635270147133"><ele>640.0</ele><time>2026-05-01T09:27:58Z</time></trkpt><trkpt lat="39.25699073594072" lon="-3.547595643363281"><ele>640.5</ele><time>2026-05-01T09:27:58.999Z</time></trkpt><trkpt lat="39.25711284702327" lon="-3.5475356804073095"><ele>641.0</ele><time>2026-05-01T09:27:59.999Z</time></trkpt><trkpt lat="39.25722196892779" lon="-3.5474541253532177"><ele>641.0</ele><time>2026-05-01T09:28:00.999Z</time></trkpt><trkpt lat="39.257306754872225" lon="-3.5473823854618876"><ele>641.0</ele><time>2026-05-01T09:28:01.999Z</time></trkpt><trkpt lat="39.257388588360726" lon="-3.5473009347355635"><ele>641.0</ele><time>2026-05-01T09:28:02.999Z</time></trkpt><trkpt lat="39.2574597544606" lon="-3.5472125732201354"><ele>641.0</ele><time>2026-05-01T09:28:03.999Z</time></trkpt><trkpt lat="39.25751946495503" lon="-3.54711898563778"><ele>641.0</ele><time>2026-05-01T09:28:04.999Z</time></trkpt><trkpt lat="39.25757452908396" lon="-3.547018993516949"><ele>641.0</ele><time>2026-05-01T09:28:05.999Z</time></trkpt><trkpt lat="39.25764120724343" lon="-3.5468916121748304"><ele>641.0</ele><time>2026-05-01T09:28:06.999Z</time></trkpt><trkpt lat="39.25773968808825" lon="-3.5467068542117772"><ele>641.0</ele><time>2026-05-01T09:28:07.999Z</time></trkpt><trkpt lat="39.25785600239705" lon="-3.5464953291382417"><ele>641.0</ele><time>2026-05-01T09:28:08.999Z</time></trkpt><trkpt lat="39.25797369138201" lon="-3.5462752301044556"><ele>641.0</ele><time>2026-05-01T09:28:09.999Z</time></trkpt><trkpt lat="39.258081932072635" lon="-3.546055863006922"><ele>641.0</ele><time>2026-05-01T09:28:10.999Z</time></trkpt><trkpt lat="39.25818688960484" lon="-3.545835061881843"><ele>641.3333333333333</ele><time>2026-05-01T09:28:11.999Z</time></trkpt><trkpt lat="39.25827977586268" lon="-3.5456426212187284"><ele>641.6666666666666</ele><time>2026-05-01T09:28:12.999Z</time></trkpt><trkpt lat="39.258361690135" lon="-3.5454562763449795"><ele>642.0</ele><time>2026-05-01T09:28:13.999Z</time></trkpt><trkpt lat="39.25844401031847" lon="-3.5452664555166975"><ele>642.0</ele><time>2026-05-01T09:28:14.999Z</time></trkpt><trkpt lat="39.258528609551945" lon="-3.5451037578380133"><ele>642.0</ele><time>2026-05-01T09:28:15.999Z</time></trkpt><trkpt lat="39.25862504758223" lon="-3.5449343136024205"><ele>642.0</ele><time>2026-05-01T09:28:16.999Z</time></trkpt><trkpt lat="39.25871682226524" lon="-3.5448081656309376"><ele>642.0</ele><time>2026-05-01T09:28:17.999Z</time></trkpt><trkpt lat="39.2588069234358" lon="-3.544681007792597"><ele>642.0</ele><time>2026-05-01T09:28:18.999Z</time></trkpt><trkpt lat="39.25890379072103" lon="-3.5445597045325306"><ele>642.0</ele><time>2026-05-01T09:28:19.999Z</time></trkpt><trkpt lat="39.25901766573583" lon="-3.5444360996801776"><ele>642.0</ele><time>2026-05-01T09:28:20.999Z</time></trkpt><trkpt lat="39.25914977415496" lon="-3.544313391934226"><ele>642.0</ele><time>2026-05-01T09:28:21.999Z</time></trkpt><trkpt lat="39.25929958274673" lon="-3.544185841986686"><ele>643.3333333333334</ele><time>2026-05-01T09:28:22.999Z</time></trkpt><trkpt lat="39.259443340208136" lon="-3.544051896365898"><ele>644.6666666666667</ele><time>2026-05-01T09:28:23.999Z</time></trkpt><trkpt lat="39.25956294841625" lon="-3.5439315425992928"><ele>646.0</ele><time>2026-05-01T09:28:24.999Z</time></trkpt><trkpt lat="39.25968035435141" lon="-3.5438206675686863"><ele>646.0</ele><time>2026-05-01T09:28:25.999Z</time></trkpt><trkpt lat="39.25980295431898" lon="-3.5437301161917003"><ele>646.0</ele><time>2026-05-01T09:28:26.999Z</time></trkpt><trkpt lat="39.25992246394962" lon="-3.5436527407135228"><ele>646.0</ele><time>2026-05-01T09:28:27.999Z</time></trkpt><trkpt lat="39.26002791000655" lon="-3.5435567892431936"><ele>646.0</ele><time>2026-05-01T09:28:28.999Z</time></trkpt><trkpt lat="39.26013673290618" lon="-3.5434414778793077"><ele>646.0</ele><time>2026-05-01T09:28:29.999Z</time></trkpt><trkpt lat="39.260256824561814" lon="-3.543299213364787"><ele>646.0</ele><time>2026-05-01T09:28:30.999Z</time></trkpt><trkpt lat="39.26038398248061" lon="-3.5431291926361785"><ele>646.0</ele><time>2026-05-01T09:28:31.999Z</time></trkpt><trkpt lat="39.26050665739194" lon="-3.542969488891803"><ele>646.0</ele><time>2026-05-01T09:28:32.999Z</time></trkpt><trkpt lat="39.260612750031996" lon="-3.542825644471889"><ele>646.0</ele><time>2026-05-01T09:28:33.999Z</time></trkpt><trkpt lat="39.26069871042449" lon="-3.5426993512228835"><ele>646.0</ele><time>2026-05-01T09:28:34.999Z</time></trkpt><trkpt lat="39.26078410299233" lon="-3.5425783408290155"><ele>646.0</ele><time>2026-05-01T09:28:35.999Z</time></trkpt><trkpt lat="39.260867091478" lon="-3.5424754671171925"><ele>646.5999999999999</ele><time>2026-05-01T09:28:36.999Z</time></trkpt><trkpt lat="39.26094684830454" lon="-3.542385852398087"><ele>647.2</ele><time>2026-05-01T09:28:37.999Z</time></trkpt><trkpt lat="39.26102024067244" lon="-3.542307976114787"><ele>647.8</ele><time>2026-05-01T09:28:38.999Z</time></trkpt><trkpt lat="39.26109608481822" lon="-3.54222797279194"><ele>648.4000000000001</ele><time>2026-05-01T09:28:39.999Z</time></trkpt><trkpt lat="39.26117403198789" lon="-3.5421594211492584"><ele>649.0</ele><time>2026-05-01T09:28:40.999Z</time></trkpt><trkpt lat="39.261285469276444" lon="-3.542077880981414"><ele>649.0</ele><time>2026-05-01T09:28:41.999Z</time></trkpt><trkpt lat="39.26140298869575" lon="-3.5420097401024093"><ele>649.0</ele><time>2026-05-01T09:28:42.999Z</time></trkpt><trkpt lat="39.261506054282854" lon="-3.5419712451404393"><ele>649.0</ele><time>2026-05-01T09:28:43.999Z</time></trkpt><trkpt lat="39.26161012991265" lon="-3.5419444941413762"><ele>649.0</ele><time>2026-05-01T09:28:44.999Z</time></trkpt><trkpt lat="39.2617065871484" lon="-3.5419106373372427"><ele>649.0</ele><time>2026-05-01T09:28:45.999Z</time></trkpt><trkpt lat="39.261791332474274" lon="-3.541859289355184"><ele>649.25</ele><time>2026-05-01T09:28:46.999Z</time></trkpt><trkpt lat="39.26187589650728" lon="-3.541790115764314"><ele>649.5</ele><time>2026-05-01T09:28:47.999Z</time></trkpt><trkpt lat="39.26199906462886" lon="-3.54168896910855"><ele>649.75</ele><time>2026-05-01T09:28:48.999Z</time></trkpt><trkpt lat="39.262146126105094" lon="-3.541582325873251"><ele>650.0</ele><time>2026-05-01T09:28:49.999Z</time></trkpt><trkpt lat="39.26229236314336" lon="-3.541496536322247"><ele>650.0</ele><time>2026-05-01T09:28:50.999Z</time></trkpt><trkpt lat="39.26242530941101" lon="-3.5414178486670265"><ele>650.0</ele><time>2026-05-01T09:28:51.999Z</time></trkpt><trkpt lat="39.26256566661665" lon="-3.5413119473331833"><ele>650.0</ele><time>2026-05-01T09:28:52.999Z</time></trkpt><trkpt lat="39.2626988154435" lon="-3.5411893878761926"><ele>650.3333333333333</ele><time>2026-05-01T09:28:53.999Z</time></trkpt><trkpt lat="39.26283391767522" lon="-3.5410513373265657"><ele>650.6666666666666</ele><time>2026-05-01T09:28:54.999Z</time></trkpt><trkpt lat="39.26296653080134" lon="-3.5409134823909687"><ele>651.0</ele><time>2026-05-01T09:28:55.999Z</time></trkpt><trkpt lat="39.26310343501515" lon="-3.5407695793657155"><ele>651.25</ele><time>2026-05-01T09:28:56.999Z</time></trkpt><trkpt lat="39.263238218964574" lon="-3.540641566977694"><ele>651.5</ele><time>2026-05-01T09:28:57.999Z</time></trkpt><trkpt lat="39.26335496680863" lon="-3.5405325337158744"><ele>651.75</ele><time>2026-05-01T09:28:58.999Z</time></trkpt><trkpt lat="39.26346894919932" lon="-3.5404534157735768"><ele>652.0</ele><time>2026-05-01T09:28:59.999Z</time></trkpt><trkpt lat="39.26358189593773" lon="-3.5403869876627243"><ele>652.25</ele><time>2026-05-01T09:29:00.999Z</time></trkpt><trkpt lat="39.2636756124804" lon="-3.5403299156682357"><ele>652.5</ele><time>2026-05-01T09:29:01.999Z</time></trkpt><trkpt lat="39.26378505515498" lon="-3.540265030473064"><ele>652.75</ele><time>2026-05-01T09:29:02.999Z</time></trkpt><trkpt lat="39.263908962147084" lon="-3.5401766670029997"><ele>653.0</ele><time>2026-05-01T09:29:04Z</time></trkpt><trkpt lat="39.264016041496724" lon="-3.540080153103818"><ele>653.0</ele><time>2026-05-01T09:29:05Z</time></trkpt><trkpt lat="39.26414399462199" lon="-3.539947113404451"><ele>653.0</ele><time>2026-05-01T09:29:06Z</time></trkpt><trkpt lat="39.2642861746444" lon="-3.5397936792316953"><ele>653.0</ele><time>2026-05-01T09:29:07Z</time></trkpt><trkpt lat="39.26444795845793" lon="-3.539641610253083"><ele>653.0</ele><time>2026-05-01T09:29:08Z</time></trkpt><trkpt lat="39.2646024047287" lon="-3.539529649441765"><ele>653.0</ele><time>2026-05-01T09:29:09Z</time></trkpt><trkpt lat="39.264767295756" lon="-3.5394393637282717"><ele>653.0</ele><time>2026-05-01T09:29:10Z</time></trkpt><trkpt lat="39.264951290944495" lon="-3.539347818926913"><ele>653.0</ele><time>2026-05-01T09:29:11Z</time></trkpt><trkpt lat="39.26514397757146" lon="-3.539239862244907"><ele>653.0</ele><time>2026-05-01T09:29:12Z</time></trkpt><trkpt lat="39.26530362643563" lon="-3.5391365071421794"><ele>653.0</ele><time>2026-05-01T09:29:13Z</time></trkpt><trkpt lat="39.265442446386125" lon="-3.539042665671536"><ele>653.0</ele><time>2026-05-01T09:29:14Z</time></trkpt><trkpt lat="39.26557159491666" lon="-3.5389622402382916"><ele>653.0</ele><time>2026-05-01T09:29:15Z</time></trkpt><trkpt lat="39.26569109473297" lon="-3.5388959771099944"><ele>653.0</ele><time>2026-05-01T09:29:16Z</time></trkpt><trkpt lat="39.265804824360906" lon="-3.5388319052514445"><ele>653.0</ele><time>2026-05-01T09:29:17Z</time></trkpt><trkpt lat="39.26590637811799" lon="-3.5387503200113235"><ele>653.3333333333333</ele><time>2026-05-01T09:29:18Z</time></trkpt><trkpt lat="39.26598777530718" lon="-3.538665036055584"><ele>653.6666666666666</ele><time>2026-05-01T09:29:19Z</time></trkpt><trkpt lat="39.26606002390087" lon="-3.538575818232715"><ele>654.0</ele><time>2026-05-01T09:29:20Z</time></trkpt><trkpt lat="39.26612261718942" lon="-3.5384867744824713"><ele>654.3333333333334</ele><time>2026-05-01T09:29:21Z</time></trkpt><trkpt lat="39.266164545225315" lon="-3.5384008233396975"><ele>654.6666666666667</ele><time>2026-05-01T09:29:22Z</time></trkpt><trkpt lat="39.2662025163799" lon="-3.538320773446283"><ele>655.0</ele><time>2026-05-01T09:29:23Z</time></trkpt><trkpt lat="39.26623558618054" lon="-3.538241262722554"><ele>655.0</ele><time>2026-05-01T09:29:24Z</time></trkpt><trkpt lat="39.26628191345068" lon="-3.538143938553449"><ele>655.0</ele><time>2026-05-01T09:29:26Z</time></trkpt><trkpt lat="39.26636103422084" lon="-3.5381806898617825"><ele>655.0</ele><time>2026-05-01T09:29:40Z</time></trkpt><trkpt lat="39.266389573282986" lon="-3.5382599664530647"><ele>655.0</ele><time>2026-05-01T09:29:41Z</time></trkpt><trkpt lat="39.26642066794786" lon="-3.5383881899745764"><ele>655.0</ele><time>2026-05-01T09:29:42Z</time></trkpt><trkpt lat="39.26647159105197" lon="-3.538472555764405"><ele>655.0</ele><time>2026-05-01T09:29:43Z</time></trkpt><trkpt lat="39.266505457104685" lon="-3.5385562455825057"><ele>655.2</ele><time>2026-05-01T09:29:44Z</time></trkpt><trkpt lat="39.26655237786861" lon="-3.5386653221741504"><ele>655.4</ele><time>2026-05-01T09:29:45Z</time></trkpt><trkpt lat="39.266614612116086" lon="-3.538805994873808"><ele>655.5999999999999</ele><time>2026-05-01T09:29:46Z</time></trkpt><trkpt lat="39.26664693581141" lon="-3.5389179556273707"><ele>655.8</ele><time>2026-05-01T09:29:47Z</time></trkpt><trkpt lat="39.26668501058026" lon="-3.5389979255131343"><ele>656.0</ele><time>2026-05-01T09:29:48Z</time></trkpt><trkpt lat="39.26674201050692" lon="-3.5391220905742213"><ele>656.1666666666666</ele><time>2026-05-01T09:29:50Z</time></trkpt><trkpt lat="39.26679826905723" lon="-3.5391818829577457"><ele>656.3333333333333</ele><time>2026-05-01T09:29:52Z</time></trkpt><trkpt lat="39.266850546119024" lon="-3.5392948844848884"><ele>656.5</ele><time>2026-05-01T09:30:03Z</time></trkpt><trkpt lat="39.266906781916084" lon="-3.539368975263294"><ele>656.6666666666666</ele><time>2026-05-01T09:30:04Z</time></trkpt><trkpt lat="39.26693896430609" lon="-3.5394751904187114"><ele>656.8333333333334</ele><time>2026-05-01T09:30:05Z</time></trkpt><trkpt lat="39.266906310286984" lon="-3.5396013128552584"><ele>657.0</ele><time>2026-05-01T09:30:05.999Z</time></trkpt><trkpt lat="39.26690657144269" lon="-3.539749237379915"><ele>657.0</ele><time>2026-05-01T09:30:08Z</time></trkpt><trkpt lat="39.266883221908195" lon="-3.539931197509607"><ele>657.0</ele><time>2026-05-01T09:30:09.999Z</time></trkpt><trkpt lat="39.266865305975834" lon="-3.540049426542202"><ele>657.0</ele><time>2026-05-01T09:30:10.999Z</time></trkpt><trkpt lat="39.266830560798944" lon="-3.5401719965951375"><ele>657.0</ele><time>2026-05-01T09:30:11.999Z</time></trkpt><trkpt lat="39.26680704729492" lon="-3.5402868941033914"><ele>657.0</ele><time>2026-05-01T09:30:12.999Z</time></trkpt><trkpt lat="39.26678931853384" lon="-3.5403937537944876"><ele>657.1428571428571</ele><time>2026-05-01T09:30:13.999Z</time></trkpt><trkpt lat="39.266772294437104" lon="-3.540474053498852"><ele>657.2857142857143</ele><time>2026-05-01T09:30:14.999Z</time></trkpt><trkpt lat="39.266754547605046" lon="-3.5405601849516337"><ele>657.4285714285714</ele><time>2026-05-01T09:30:16.999Z</time></trkpt><trkpt lat="39.26674632238101" lon="-3.5406604714933883"><ele>657.5714285714286</ele><time>2026-05-01T09:30:20.999Z</time></trkpt><trkpt lat="39.2667271738368" lon="-3.5407586143220082"><ele>657.7142857142858</ele><time>2026-05-01T09:30:22.999Z</time></trkpt><trkpt lat="39.26670340364264" lon="-3.540841878854422"><ele>657.8571428571429</ele><time>2026-05-01T09:30:24.999Z</time></trkpt><trkpt lat="39.26668450004634" lon="-3.5409292359344344"><ele>658.0</ele><time>2026-05-01T09:30:28.999Z</time></trkpt><trkpt lat="39.26670357507496" lon="-3.5407479543363216"><ele>658.0</ele><time>2026-05-01T09:31:07.999Z</time></trkpt><trkpt lat="39.26673644938727" lon="-3.5406204695291756"><ele>658.0</ele><time>2026-05-01T09:31:08.999Z</time></trkpt><trkpt lat="39.266777916510826" lon="-3.5404480181484375"><ele>658.0</ele><time>2026-05-01T09:31:10Z</time></trkpt><trkpt lat="39.26679935356157" lon="-3.5402244996204213"><ele>658.0</ele><time>2026-05-01T09:31:11Z</time></trkpt><trkpt lat="39.26684849125987" lon="-3.540039778905541"><ele>657.8</ele><time>2026-05-01T09:31:12Z</time></trkpt><trkpt lat="39.26687485735849" lon="-3.5398654900473208"><ele>657.5999999999999</ele><time>2026-05-01T09:31:13Z</time></trkpt><trkpt lat="39.26687776546243" lon="-3.5397073741646805"><ele>657.4000000000001</ele><time>2026-05-01T09:31:14Z</time></trkpt><trkpt lat="39.26688778654938" lon="-3.539573790235621"><ele>657.2</ele><time>2026-05-01T09:31:15Z</time></trkpt><trkpt lat="39.26688854854686" lon="-3.539473819383967"><ele>657.0</ele><time>2026-05-01T09:31:16Z</time></trkpt><trkpt lat="39.26688736457038" lon="-3.539370801974626"><ele>657.0</ele><time>2026-05-01T09:31:18Z</time></trkpt><trkpt lat="39.2668207477052" lon="-3.5392821812494395"><ele>657.0</ele><time>2026-05-01T09:31:21Z</time></trkpt><trkpt lat="39.2667703300216" lon="-3.5391785480297724"><ele>657.0</ele><time>2026-05-01T09:31:22Z</time></trkpt><trkpt lat="39.26670259301348" lon="-3.539046243120255"><ele>657.0</ele><time>2026-05-01T09:31:23Z</time></trkpt><trkpt lat="39.26663223727214" lon="-3.538893214863567"><ele>656.6666666666666</ele><time>2026-05-01T09:31:24Z</time></trkpt><trkpt lat="39.26654317051705" lon="-3.5387038658069407"><ele>656.3333333333333</ele><time>2026-05-01T09:31:25Z</time></trkpt><trkpt lat="39.266452806743416" lon="-3.5384856373113682"><ele>656.0</ele><time>2026-05-01T09:31:26Z</time></trkpt><trkpt lat="39.26637592985733" lon="-3.538269203238214"><ele>655.75</ele><time>2026-05-01T09:31:27Z</time></trkpt><trkpt lat="39.26633697482285" lon="-3.538092705054309"><ele>655.5</ele><time>2026-05-01T09:31:28Z</time></trkpt><trkpt lat="39.26632029708428" lon="-3.5379208343974744"><ele>655.25</ele><time>2026-05-01T09:31:29Z</time></trkpt><trkpt lat="39.26631623250822" lon="-3.5377242526706554"><ele>655.0</ele><time>2026-05-01T09:31:30Z</time></trkpt><trkpt lat="39.266313871716" lon="-3.5374784855957526"><ele>655.0</ele><time>2026-05-01T09:31:31Z</time></trkpt><trkpt lat="39.26631638798601" lon="-3.5372063174919224"><ele>655.0</ele><time>2026-05-01T09:31:32Z</time></trkpt><trkpt lat="39.26631745431973" lon="-3.5369411815310756"><ele>655.0</ele><time>2026-05-01T09:31:33Z</time></trkpt><trkpt lat="39.26631769669498" lon="-3.5366361666445183"><ele>654.5</ele><time>2026-05-01T09:31:34Z</time></trkpt><trkpt lat="39.266297553404584" lon="-3.536303121164469"><ele>654.0</ele><time>2026-05-01T09:31:35Z</time></trkpt><trkpt lat="39.266320220760555" lon="-3.5359671879855825"><ele>654.0</ele><time>2026-05-01T09:31:36Z</time></trkpt><trkpt lat="39.266321740617364" lon="-3.535671626990027"><ele>654.0</ele><time>2026-05-01T09:31:37Z</time></trkpt><trkpt lat="39.26632464232228" lon="-3.5354188418966417"><ele>654.0</ele><time>2026-05-01T09:31:38Z</time></trkpt><trkpt lat="39.26631702260515" lon="-3.535158891922454"><ele>654.0</ele><time>2026-05-01T09:31:39Z</time></trkpt><trkpt lat="39.266298130252665" lon="-3.5349047144489014"><ele>654.0</ele><time>2026-05-01T09:31:40Z</time></trkpt><trkpt lat="39.26626543359758" lon="-3.534627321969306"><ele>654.0</ele><time>2026-05-01T09:31:41Z</time></trkpt><trkpt lat="39.266233040313566" lon="-3.53436668404435"><ele>653.3333333333334</ele><time>2026-05-01T09:31:42Z</time></trkpt><trkpt lat="39.266205959500645" lon="-3.5341656232334864"><ele>652.6666666666667</ele><time>2026-05-01T09:31:43Z</time></trkpt><trkpt lat="39.26617004509136" lon="-3.5339709601507954"><ele>652.0</ele><time>2026-05-01T09:31:44Z</time></trkpt><trkpt lat="39.26616599241636" lon="-3.53378421188186"><ele>651.5</ele><time>2026-05-01T09:31:45Z</time></trkpt><trkpt lat="39.26619272806124" lon="-3.5336241312112824"><ele>651.0</ele><time>2026-05-01T09:31:46Z</time></trkpt><trkpt lat="39.26622539779267" lon="-3.533448230545076"><ele>650.5</ele><time>2026-05-01T09:31:47Z</time></trkpt><trkpt lat="39.266282438764435" lon="-3.533242915538807"><ele>650.0</ele><time>2026-05-01T09:31:48Z</time></trkpt><trkpt lat="39.266360018767394" lon="-3.5329986239507867"><ele>649.0</ele><time>2026-05-01T09:31:49Z</time></trkpt><trkpt lat="39.26643810915785" lon="-3.532711013900591"><ele>648.0</ele><time>2026-05-01T09:31:50Z</time></trkpt><trkpt lat="39.26656658612852" lon="-3.5324292416206555"><ele>650.0</ele><time>2026-05-01T09:31:51Z</time></trkpt><trkpt lat="39.2666855179256" lon="-3.5321257683777967"><ele>652.0</ele><time>2026-05-01T09:31:52Z</time></trkpt><trkpt lat="39.266767058984314" lon="-3.5318669759636383"><ele>652.0</ele><time>2026-05-01T09:31:53Z</time></trkpt><trkpt lat="39.26685624405855" lon="-3.5316224076303446"><ele>652.0</ele><time>2026-05-01T09:31:54Z</time></trkpt><trkpt lat="39.266952828088314" lon="-3.53139804526295"><ele>652.0</ele><time>2026-05-01T09:31:55Z</time></trkpt><trkpt lat="39.26710068936241" lon="-3.5312197108042906"><ele>652.0</ele><time>2026-05-01T09:31:56Z</time></trkpt><trkpt lat="39.26724955154924" lon="-3.531046640690514"><ele>652.0</ele><time>2026-05-01T09:31:57Z</time></trkpt><trkpt lat="39.267398004711815" lon="-3.530873445722836"><ele>652.0</ele><time>2026-05-01T09:31:58Z</time></trkpt><trkpt lat="39.26754766003686" lon="-3.5307267824391206"><ele>652.0</ele><time>2026-05-01T09:31:59Z</time></trkpt><trkpt lat="39.267673395789764" lon="-3.5306213960481267"><ele>652.0</ele><time>2026-05-01T09:32:00Z</time></trkpt><trkpt lat="39.267823704261886" lon="-3.530486196534768"><ele>652.0</ele><time>2026-05-01T09:32:01Z</time></trkpt><trkpt lat="39.267640507552905" lon="-3.529570499285798"><ele>651.6666666666667</ele><time>2026-05-01T09:32:02Z</time></trkpt><trkpt lat="39.2677506512035" lon="-3.5293613597377687"><ele>651.3333333333334</ele><time>2026-05-01T09:32:03Z</time></trkpt><trkpt lat="39.267862460693074" lon="-3.529159050777917"><ele>651.0</ele><time>2026-05-01T09:32:04Z</time></trkpt><trkpt lat="39.26798064933799" lon="-3.5289548140218225"><ele>651.0</ele><time>2026-05-01T09:32:05Z</time></trkpt><trkpt lat="39.268096421884536" lon="-3.5287774827839367"><ele>651.0</ele><time>2026-05-01T09:32:06Z</time></trkpt><trkpt lat="39.26821267414544" lon="-3.5286376317964696"><ele>651.0</ele><time>2026-05-01T09:32:07Z</time></trkpt><trkpt lat="39.268333474371865" lon="-3.5285257724637518"><ele>651.3333333333334</ele><time>2026-05-01T09:32:08Z</time></trkpt><trkpt lat="39.268482951035715" lon="-3.528388154794008"><ele>651.6666666666667</ele><time>2026-05-01T09:32:09Z</time></trkpt><trkpt lat="39.26862394047279" lon="-3.5282450056621775"><ele>652.0</ele><time>2026-05-01T09:32:10Z</time></trkpt><trkpt lat="39.26872391478195" lon="-3.5281131502018437"><ele>652.0</ele><time>2026-05-01T09:32:11Z</time></trkpt><trkpt lat="39.26880417762684" lon="-3.5279595841483995"><ele>652.0</ele><time>2026-05-01T09:32:12Z</time></trkpt><trkpt lat="39.268896056801864" lon="-3.5277838228406053"><ele>652.0</ele><time>2026-05-01T09:32:13Z</time></trkpt><trkpt lat="39.268983383205146" lon="-3.5275934499360617"><ele>651.6666666666667</ele><time>2026-05-01T09:32:14Z</time></trkpt><trkpt lat="39.26905887626494" lon="-3.527402345990703"><ele>651.3333333333334</ele><time>2026-05-01T09:32:14.999Z</time></trkpt><trkpt lat="39.269118662287596" lon="-3.527223212276495"><ele>651.0</ele><time>2026-05-01T09:32:15.999Z</time></trkpt><trkpt lat="39.26916564684647" lon="-3.5270516358863295"><ele>650.75</ele><time>2026-05-01T09:32:16.999Z</time></trkpt><trkpt lat="39.26919213928408" lon="-3.5268846318047924"><ele>650.5</ele><time>2026-05-01T09:32:17.999Z</time></trkpt><trkpt lat="39.26920446026866" lon="-3.5267230594649392"><ele>650.25</ele><time>2026-05-01T09:32:18.999Z</time></trkpt><trkpt lat="39.26920871775669" lon="-3.526544850797449"><ele>650.0</ele><time>2026-05-01T09:32:19.999Z</time></trkpt><trkpt lat="39.26921105354944" lon="-3.5263367554473537"><ele>650.6666666666666</ele><time>2026-05-01T09:32:20.999Z</time></trkpt><trkpt lat="39.269211219948524" lon="-3.5260868840782837"><ele>651.3333333333334</ele><time>2026-05-01T09:32:21.999Z</time></trkpt><trkpt lat="39.26922464415639" lon="-3.5258464973729264"><ele>652.0</ele><time>2026-05-01T09:32:22.999Z</time></trkpt><trkpt lat="39.26925160152811" lon="-3.52564314841832"><ele>652.0</ele><time>2026-05-01T09:32:23.999Z</time></trkpt><trkpt lat="39.26928719250668" lon="-3.5254436430701577"><ele>652.0</ele><time>2026-05-01T09:32:24.999Z</time></trkpt><trkpt lat="39.26933301398118" lon="-3.525266753309863"><ele>652.0</ele><time>2026-05-01T09:32:25.999Z</time></trkpt><trkpt lat="39.26937711557429" lon="-3.5251098803528516"><ele>652.0</ele><time>2026-05-01T09:32:26.999Z</time></trkpt><trkpt lat="39.26942118885294" lon="-3.524955363792481"><ele>651.6666666666667</ele><time>2026-05-01T09:32:27.999Z</time></trkpt><trkpt lat="39.26947622761961" lon="-3.5247922987352736"><ele>651.3333333333334</ele><time>2026-05-01T09:32:28.999Z</time></trkpt><trkpt lat="39.269548525882534" lon="-3.5246075995221053"><ele>651.0</ele><time>2026-05-01T09:32:29.999Z</time></trkpt><trkpt lat="39.26963900233381" lon="-3.524415263078277"><ele>650.3333333333334</ele><time>2026-05-01T09:32:30.999Z</time></trkpt><trkpt lat="39.26974415415937" lon="-3.524228050101149"><ele>649.6666666666667</ele><time>2026-05-01T09:32:31.999Z</time></trkpt><trkpt lat="39.26984779946766" lon="-3.524056492835681"><ele>649.0</ele><time>2026-05-01T09:32:32.999Z</time></trkpt><trkpt lat="39.269974526529055" lon="-3.523861387774217"><ele>649.0</ele><time>2026-05-01T09:32:33.999Z</time></trkpt><trkpt lat="39.270115870258365" lon="-3.523636989285943"><ele>649.0</ele><time>2026-05-01T09:32:34.999Z</time></trkpt><trkpt lat="39.270260826436306" lon="-3.523391883094159"><ele>649.0</ele><time>2026-05-01T09:32:35.999Z</time></trkpt><trkpt lat="39.270416268493264" lon="-3.523125695663891"><ele>649.0</ele><time>2026-05-01T09:32:36.999Z</time></trkpt><trkpt lat="39.27057443423942" lon="-3.5228527975892363"><ele>648.0</ele><time>2026-05-01T09:32:37.999Z</time></trkpt><trkpt lat="39.270716257741945" lon="-3.5226139256183635"><ele>647.0</ele><time>2026-05-01T09:32:38.999Z</time></trkpt><trkpt lat="39.27085192971487" lon="-3.522390438948725"><ele>647.0</ele><time>2026-05-01T09:32:39.999Z</time></trkpt><trkpt lat="39.27097691419807" lon="-3.522186774905585"><ele>647.0</ele><time>2026-05-01T09:32:40.999Z</time></trkpt><trkpt lat="39.27108742690536" lon="-3.5220101697668786"><ele>647.0</ele><time>2026-05-01T09:32:41.999Z</time></trkpt><trkpt lat="39.27119348620815" lon="-3.5218473542108772"><ele>647.0</ele><time>2026-05-01T09:32:42.999Z</time></trkpt><trkpt lat="39.27126831032654" lon="-3.521703208708629"><ele>647.0</ele><time>2026-05-01T09:32:43.999Z</time></trkpt><trkpt lat="39.27134906182983" lon="-3.521602498626827"><ele>647.0</ele><time>2026-05-01T09:32:44.999Z</time></trkpt><trkpt lat="39.271400079038735" lon="-3.5214948417633427"><ele>647.0</ele><time>2026-05-01T09:32:45.999Z</time></trkpt><trkpt lat="39.27144145269174" lon="-3.52140209717564"><ele>647.0</ele><time>2026-05-01T09:32:46.999Z</time></trkpt><trkpt lat="39.27162345855535" lon="-3.521156484958764"><ele>647.3333333333333</ele><time>2026-05-01T09:32:47.999Z</time></trkpt><trkpt lat="39.27168369737665" lon="-3.5210743491574488"><ele>647.6666666666666</ele><time>2026-05-01T09:32:48.999Z</time></trkpt><trkpt lat="39.27173748425326" lon="-3.5209970353207938"><ele>648.0</ele><time>2026-05-01T09:32:49.999Z</time></trkpt><trkpt lat="39.27179980767997" lon="-3.520904453887305"><ele>648.3333333333334</ele><time>2026-05-01T09:32:50.999Z</time></trkpt><trkpt lat="39.27185825274199" lon="-3.5208134474397355"><ele>648.6666666666667</ele><time>2026-05-01T09:32:51.999Z</time></trkpt><trkpt lat="39.271911561275274" lon="-3.520729785333155"><ele>649.0</ele><time>2026-05-01T09:32:52.999Z</time></trkpt><trkpt lat="39.27196353008007" lon="-3.5206465811936227"><ele>649.0</ele><time>2026-05-01T09:32:53.999Z</time></trkpt><trkpt lat="39.272026057636374" lon="-3.520546128408444"><ele>649.0</ele><time>2026-05-01T09:32:54.999Z</time></trkpt><trkpt lat="39.27209803349004" lon="-3.5204304966296345"><ele>649.0</ele><time>2026-05-01T09:32:55.999Z</time></trkpt><trkpt lat="39.272148235911196" lon="-3.5203498445570456"><ele>649.0</ele><time>2026-05-01T09:32:56.999Z</time></trkpt><trkpt lat="39.27219820387734" lon="-3.5202695714153385"><ele>649.0</ele><time>2026-05-01T09:32:57.999Z</time></trkpt><trkpt lat="39.27224207489618" lon="-3.5202000071064763"><ele>649.0</ele><time>2026-05-01T09:32:58.999Z</time></trkpt><trkpt lat="39.27229979851132" lon="-3.5201079718176307"><ele>649.0</ele><time>2026-05-01T09:32:59.999Z</time></trkpt><trkpt lat="39.272366300434996" lon="-3.520001939902571"><ele>649.0</ele><time>2026-05-01T09:33:00.999Z</time></trkpt><trkpt lat="39.272422282138955" lon="-3.5199131290093564"><ele>649.0</ele><time>2026-05-01T09:33:01.999Z</time></trkpt><trkpt lat="39.2724737949188" lon="-3.519833998387591"><ele>649.0</ele><time>2026-05-01T09:33:02.999Z</time></trkpt><trkpt lat="39.27251625943808" lon="-3.5197687673592175"><ele>649.0</ele><time>2026-05-01T09:33:03.999Z</time></trkpt><trkpt lat="39.27259361517383" lon="-3.5196535527464587"><ele>649.0</ele><time>2026-05-01T09:33:05.999Z</time></trkpt><trkpt lat="39.27267241289038" lon="-3.519537487073912"><ele>649.0</ele><time>2026-05-01T09:33:07.999Z</time></trkpt><trkpt lat="39.27275124876547" lon="-3.5194237862569495"><ele>649.0</ele><time>2026-05-01T09:33:09.999Z</time></trkpt><trkpt lat="39.272800403356364" lon="-3.519355600668257"><ele>649.0</ele><time>2026-05-01T09:33:10.999Z</time></trkpt><trkpt lat="39.272860713369326" lon="-3.5192733882817917"><ele>649.0</ele><time>2026-05-01T09:33:11.999Z</time></trkpt><trkpt lat="39.27290807612705" lon="-3.5192088251517277"><ele>649.0</ele><time>2026-05-01T09:33:12.999Z</time></trkpt><trkpt lat="39.272983189536376" lon="-3.5191064338814115"><ele>649.0</ele><time>2026-05-01T09:33:14.999Z</time></trkpt><trkpt lat="39.27305692692712" lon="-3.5189995043237183"><ele>649.0</ele><time>2026-05-01T09:33:17Z</time></trkpt><trkpt lat="39.27311278636276" lon="-3.5189191009218734"><ele>649.0</ele><time>2026-05-01T09:33:18Z</time></trkpt><trkpt lat="39.27317366622212" lon="-3.518825465694481"><ele>649.0</ele><time>2026-05-01T09:33:19Z</time></trkpt><trkpt lat="39.27322509799134" lon="-3.518742456638584"><ele>649.0</ele><time>2026-05-01T09:33:20Z</time></trkpt><trkpt lat="39.27326340854034" lon="-3.518677597203413"><ele>649.0</ele><time>2026-05-01T09:33:21Z</time></trkpt><trkpt lat="39.27333131409233" lon="-3.518562633736087"><ele>649.0</ele><time>2026-05-01T09:33:23Z</time></trkpt><trkpt lat="39.273375518139" lon="-3.5184924069531007"><ele>649.0</ele><time>2026-05-01T09:33:25Z</time></trkpt><trkpt lat="39.273462664786955" lon="-3.518376515638422"><ele>649.0</ele><time>2026-05-01T09:33:30Z</time></trkpt><trkpt lat="39.27353666707539" lon="-3.518314695135359"><ele>649.0</ele><time>2026-05-01T09:33:31Z</time></trkpt><trkpt lat="39.273607348106395" lon="-3.5182113787690077"><ele>649.0</ele><time>2026-05-01T09:33:32Z</time></trkpt><trkpt lat="39.27369246123569" lon="-3.5181364407218765"><ele>649.0</ele><time>2026-05-01T09:33:33Z</time></trkpt><trkpt lat="39.27377691877121" lon="-3.518048790423172"><ele>649.0</ele><time>2026-05-01T09:33:34Z</time></trkpt><trkpt lat="39.273844350260504" lon="-3.5179763321205537"><ele>649.0</ele><time>2026-05-01T09:33:35Z</time></trkpt><trkpt lat="39.27390437417704" lon="-3.5178987081787962"><ele>649.0</ele><time>2026-05-01T09:33:36Z</time></trkpt><trkpt lat="39.2739612273174" lon="-3.517816425463359"><ele>649.0</ele><time>2026-05-01T09:33:37Z</time></trkpt><trkpt lat="39.27402679829834" lon="-3.5177332703135638"><ele>649.0</ele><time>2026-05-01T09:33:38Z</time></trkpt><trkpt lat="39.274092864532236" lon="-3.517649164504532"><ele>649.0</ele><time>2026-05-01T09:33:39Z</time></trkpt><trkpt lat="39.27414911172934" lon="-3.517576153159411"><ele>649.0</ele><time>2026-05-01T09:33:40Z</time></trkpt><trkpt lat="39.27420961058863" lon="-3.517490602607692"><ele>649.0</ele><time>2026-05-01T09:33:41Z</time></trkpt><trkpt lat="39.27425040922387" lon="-3.517409559798486"><ele>649.0</ele><time>2026-05-01T09:33:42Z</time></trkpt><trkpt lat="39.274303271397756" lon="-3.5173303664085123"><ele>649.0</ele><time>2026-05-01T09:33:43Z</time></trkpt><trkpt lat="39.274358064386675" lon="-3.5172428289168756"><ele>649.0</ele><time>2026-05-01T09:33:44Z</time></trkpt><trkpt lat="39.27442498195864" lon="-3.5171324542561857"><ele>649.0</ele><time>2026-05-01T09:33:45Z</time></trkpt><trkpt lat="39.27449804243101" lon="-3.5170119404226607"><ele>649.0</ele><time>2026-05-01T09:33:46Z</time></trkpt><trkpt lat="39.27456818911698" lon="-3.516896232316557"><ele>648.75</ele><time>2026-05-01T09:33:47Z</time></trkpt><trkpt lat="39.27463784572378" lon="-3.5167788181627553"><ele>648.5</ele><time>2026-05-01T09:33:48Z</time></trkpt><trkpt lat="39.274713803589975" lon="-3.5166538425672966"><ele>648.25</ele><time>2026-05-01T09:33:49Z</time></trkpt><trkpt lat="39.274805814780606" lon="-3.516500442942591"><ele>648.0</ele><time>2026-05-01T09:33:50Z</time></trkpt><trkpt lat="39.274923317098924" lon="-3.5162935121928625"><ele>648.5</ele><time>2026-05-01T09:33:51Z</time></trkpt><trkpt lat="39.27503374317935" lon="-3.51609904318652"><ele>649.0</ele><time>2026-05-01T09:33:52Z</time></trkpt><trkpt lat="39.27511095028056" lon="-3.5159609082835863"><ele>649.5</ele><time>2026-05-01T09:33:53Z</time></trkpt><trkpt lat="39.275163233375025" lon="-3.515867191074716"><ele>650.0</ele><time>2026-05-01T09:33:54Z</time></trkpt><trkpt lat="39.2752010638953" lon="-3.515799497180746"><ele>650.0</ele><time>2026-05-01T09:33:56Z</time></trkpt><trkpt lat="39.275239921589815" lon="-3.5157300255588684"><ele>650.0</ele><time>2026-05-01T09:33:58Z</time></trkpt><trkpt lat="39.27527870804318" lon="-3.5156606813881486"><ele>650.0</ele><time>2026-05-01T09:33:59Z</time></trkpt><trkpt lat="39.27533889625143" lon="-3.5155569430306586"><ele>650.0</ele><time>2026-05-01T09:34:00Z</time></trkpt><trkpt lat="39.2754022683568" lon="-3.5154518219872757"><ele>650.0</ele><time>2026-05-01T09:34:01Z</time></trkpt><trkpt lat="39.27545043712529" lon="-3.5153814710550124"><ele>650.0</ele><time>2026-05-01T09:34:02Z</time></trkpt><trkpt lat="39.27554555855861" lon="-3.5153423867584164"><ele>649.4</ele><time>2026-05-01T09:34:04Z</time></trkpt><trkpt lat="39.27567643240149" lon="-3.5152608642089263"><ele>648.8</ele><time>2026-05-01T09:34:06Z</time></trkpt><trkpt lat="39.27574383616583" lon="-3.5152013087923764"><ele>648.2</ele><time>2026-05-01T09:34:07Z</time></trkpt><trkpt lat="39.27579338166397" lon="-3.5151192616584006"><ele>647.6</ele><time>2026-05-01T09:34:08Z</time></trkpt><trkpt lat="39.27586531078795" lon="-3.5150346933980954"><ele>647.0</ele><time>2026-05-01T09:34:09Z</time></trkpt><trkpt lat="39.275938970190445" lon="-3.514959301070156"><ele>647.0</ele><time>2026-05-01T09:34:10Z</time></trkpt><trkpt lat="39.276014707025524" lon="-3.5148783876105147"><ele>647.0</ele><time>2026-05-01T09:34:11Z</time></trkpt><trkpt lat="39.27609054208659" lon="-3.514789178586472"><ele>647.0</ele><time>2026-05-01T09:34:12Z</time></trkpt><trkpt lat="39.276158913015564" lon="-3.51469812100592"><ele>647.0</ele><time>2026-05-01T09:34:13Z</time></trkpt><trkpt lat="39.276225789566766" lon="-3.514577605995065"><ele>647.0</ele><time>2026-05-01T09:34:14Z</time></trkpt><trkpt lat="39.2762874399916" lon="-3.5144522268777987"><ele>647.0</ele><time>2026-05-01T09:34:15Z</time></trkpt><trkpt lat="39.27634562401099" lon="-3.5143306701942936"><ele>647.0</ele><time>2026-05-01T09:34:16Z</time></trkpt><trkpt lat="39.27639958970137" lon="-3.5142115603338806"><ele>647.0</ele><time>2026-05-01T09:34:17Z</time></trkpt><trkpt lat="39.2764488697572" lon="-3.5141009113811013"><ele>647.0</ele><time>2026-05-01T09:34:18Z</time></trkpt><trkpt lat="39.276495153981124" lon="-3.513989688151265"><ele>647.0</ele><time>2026-05-01T09:34:19Z</time></trkpt><trkpt lat="39.276539560467256" lon="-3.5138787105384286"><ele>647.0</ele><time>2026-05-01T09:34:20Z</time></trkpt><trkpt lat="39.27659257306204" lon="-3.5137812905786343"><ele>647.0</ele><time>2026-05-01T09:34:20.999Z</time></trkpt><trkpt lat="39.27663558770654" lon="-3.5136867777974876"><ele>647.0</ele><time>2026-05-01T09:34:21.999Z</time></trkpt><trkpt lat="39.276673973422" lon="-3.5135847738727737"><ele>647.0</ele><time>2026-05-01T09:34:22.999Z</time></trkpt><trkpt lat="39.27671648758155" lon="-3.513492991363866"><ele>647.0</ele><time>2026-05-01T09:34:23.999Z</time></trkpt><trkpt lat="39.27676143004777" lon="-3.5134093651645983"><ele>647.0</ele><time>2026-05-01T09:34:24.999Z</time></trkpt><trkpt lat="39.2767902198241" lon="-3.5133111581116534"><ele>647.1666666666666</ele><time>2026-05-01T09:34:25.999Z</time></trkpt><trkpt lat="39.276841801618254" lon="-3.5132329837524057"><ele>647.3333333333333</ele><time>2026-05-01T09:34:26.999Z</time></trkpt><trkpt lat="39.27687473322895" lon="-3.513151079130965"><ele>647.5</ele><time>2026-05-01T09:34:27.999Z</time></trkpt><trkpt lat="39.27690703529134" lon="-3.513074205751624"><ele>647.6666666666666</ele><time>2026-05-01T09:34:28.999Z</time></trkpt><trkpt lat="39.27692378315484" lon="-3.51298344330413"><ele>647.8333333333334</ele><time>2026-05-01T09:34:29.999Z</time></trkpt><trkpt lat="39.27696164208125" lon="-3.5129148404394503"><ele>648.0</ele><time>2026-05-01T09:34:30.999Z</time></trkpt><trkpt lat="39.27701956850815" lon="-3.5127741548508493"><ele>647.5999999999999</ele><time>2026-05-01T09:34:32.999Z</time></trkpt><trkpt lat="39.27706635214814" lon="-3.512648765578101"><ele>647.1999999999999</ele><time>2026-05-01T09:34:34.999Z</time></trkpt><trkpt lat="39.2771170637762" lon="-3.5125271435131773"><ele>646.8</ele><time>2026-05-01T09:34:36.999Z</time></trkpt><trkpt lat="39.27714583779753" lon="-3.512450608576171"><ele>646.4</ele><time>2026-05-01T09:34:37.999Z</time></trkpt><trkpt lat="39.27719999230762" lon="-3.512325499237283"><ele>646.0</ele><time>2026-05-01T09:34:38.999Z</time></trkpt><trkpt lat="39.27727534872803" lon="-3.512169162585573"><ele>645.6666666666667</ele><time>2026-05-01T09:34:39.999Z</time></trkpt><trkpt lat="39.27736226736615" lon="-3.5120146221305046"><ele>645.3333333333334</ele><time>2026-05-01T09:34:40.999Z</time></trkpt><trkpt lat="39.277460860091594" lon="-3.511867228878045"><ele>645.0</ele><time>2026-05-01T09:34:41.999Z</time></trkpt><trkpt lat="39.277581860723586" lon="-3.5116927201039743"><ele>645.0</ele><time>2026-05-01T09:34:42.999Z</time></trkpt><trkpt lat="39.27772577185186" lon="-3.511489382913528"><ele>645.0</ele><time>2026-05-01T09:34:43.999Z</time></trkpt><trkpt lat="39.27785347352068" lon="-3.511267690432761"><ele>645.0</ele><time>2026-05-01T09:34:44.999Z</time></trkpt><trkpt lat="39.2779666048125" lon="-3.511084759103827"><ele>645.0</ele><time>2026-05-01T09:34:45.999Z</time></trkpt><trkpt lat="39.278081396952054" lon="-3.510904171283247"><ele>645.0</ele><time>2026-05-01T09:34:46.999Z</time></trkpt><trkpt lat="39.278199367890714" lon="-3.510721752134199"><ele>645.0</ele><time>2026-05-01T09:34:47.999Z</time></trkpt><trkpt lat="39.278291478475076" lon="-3.510572068376258"><ele>645.0</ele><time>2026-05-01T09:34:48.999Z</time></trkpt><trkpt lat="39.27836811941448" lon="-3.510428124685308"><ele>645.0</ele><time>2026-05-01T09:34:49.999Z</time></trkpt><trkpt lat="39.27843304360556" lon="-3.510271988861169"><ele>645.0</ele><time>2026-05-01T09:34:50.999Z</time></trkpt><trkpt lat="39.27847070058637" lon="-3.5101272125446665"><ele>645.0</ele><time>2026-05-01T09:34:51.999Z</time></trkpt><trkpt lat="39.27850497996205" lon="-3.5099826805290664"><ele>644.0</ele><time>2026-05-01T09:34:52.999Z</time></trkpt><trkpt lat="39.27853730619933" lon="-3.5098085107061925"><ele>643.0</ele><time>2026-05-01T09:34:53.999Z</time></trkpt><trkpt lat="39.27856670580786" lon="-3.5095921171632583"><ele>642.0</ele><time>2026-05-01T09:34:54.999Z</time></trkpt><trkpt lat="39.27858037332784" lon="-3.5093765464069153"><ele>642.0</ele><time>2026-05-01T09:34:55.999Z</time></trkpt><trkpt lat="39.2785902721492" lon="-3.5091348991275213"><ele>642.0</ele><time>2026-05-01T09:34:56.999Z</time></trkpt><trkpt lat="39.27861008321007" lon="-3.5088962816784"><ele>642.0</ele><time>2026-05-01T09:34:57.999Z</time></trkpt><trkpt lat="39.27866036656776" lon="-3.5086937472762134"><ele>642.0</ele><time>2026-05-01T09:34:58.999Z</time></trkpt><trkpt lat="39.27871370410451" lon="-3.5085007008720948"><ele>642.0</ele><time>2026-05-01T09:34:59.999Z</time></trkpt><trkpt lat="39.27878161680255" lon="-3.5082991381640376"><ele>642.0</ele><time>2026-05-01T09:35:00.999Z</time></trkpt><trkpt lat="39.27884519946289" lon="-3.5080617240288476"><ele>641.6666666666666</ele><time>2026-05-01T09:35:01.999Z</time></trkpt><trkpt lat="39.27893043575884" lon="-3.507801403025486"><ele>641.3333333333333</ele><time>2026-05-01T09:35:02.999Z</time></trkpt><trkpt lat="39.279022680875556" lon="-3.5075532910989913"><ele>641.0</ele><time>2026-05-01T09:35:03.999Z</time></trkpt><trkpt lat="39.27912486160425" lon="-3.5073375791471757"><ele>641.0</ele><time>2026-05-01T09:35:04.999Z</time></trkpt><trkpt lat="39.27920166713281" lon="-3.5071450714320465"><ele>641.0</ele><time>2026-05-01T09:35:05.999Z</time></trkpt><trkpt lat="39.27927590507381" lon="-3.50692366650031"><ele>641.0</ele><time>2026-05-01T09:35:06.999Z</time></trkpt><trkpt lat="39.27936089174178" lon="-3.506688893325628"><ele>641.3333333333333</ele><time>2026-05-01T09:35:07.999Z</time></trkpt><trkpt lat="39.27944669798028" lon="-3.506422807389091"><ele>641.6666666666666</ele><time>2026-05-01T09:35:08.999Z</time></trkpt><trkpt lat="39.279517258013094" lon="-3.506171707028518"><ele>642.0</ele><time>2026-05-01T09:35:09.999Z</time></trkpt><trkpt lat="39.27957190097184" lon="-3.5059522249092523"><ele>642.25</ele><time>2026-05-01T09:35:10.999Z</time></trkpt><trkpt lat="39.27961732030631" lon="-3.5057579580969485"><ele>642.5</ele><time>2026-05-01T09:35:11.999Z</time></trkpt><trkpt lat="39.2796564627819" lon="-3.505574922554506"><ele>642.75</ele><time>2026-05-01T09:35:12.999Z</time></trkpt><trkpt lat="39.27967844178784" lon="-3.505404248251713"><ele>643.0</ele><time>2026-05-01T09:35:13.999Z</time></trkpt><trkpt lat="39.279682319062644" lon="-3.5052465983793284"><ele>643.25</ele><time>2026-05-01T09:35:14.999Z</time></trkpt><trkpt lat="39.279673802708565" lon="-3.5050974193410447"><ele>643.5</ele><time>2026-05-01T09:35:15.999Z</time></trkpt><trkpt lat="39.2796512057138" lon="-3.504945973440491"><ele>643.75</ele><time>2026-05-01T09:35:16.999Z</time></trkpt><trkpt lat="39.279620949617104" lon="-3.5047724772322653"><ele>644.0</ele><time>2026-05-01T09:35:17.999Z</time></trkpt><trkpt lat="39.27958086213128" lon="-3.504555261286068"><ele>644.0</ele><time>2026-05-01T09:35:18.999Z</time></trkpt><trkpt lat="39.279550909568094" lon="-3.5042986349401297"><ele>644.0</ele><time>2026-05-01T09:35:19.999Z</time></trkpt><trkpt lat="39.279503094034425" lon="-3.5040438210495157"><ele>644.0</ele><time>2026-05-01T09:35:20.999Z</time></trkpt><trkpt lat="39.27946553272517" lon="-3.503819009689011"><ele>643.3333333333333</ele><time>2026-05-01T09:35:22Z</time></trkpt><trkpt lat="39.27942178061966" lon="-3.5035916467739865"><ele>642.6666666666666</ele><time>2026-05-01T09:35:23Z</time></trkpt><trkpt lat="39.27939512943977" lon="-3.50336574936187"><ele>642.0</ele><time>2026-05-01T09:35:24Z</time></trkpt><trkpt lat="39.27935733610329" lon="-3.5031361484602863"><ele>642.3333333333334</ele><time>2026-05-01T09:35:25Z</time></trkpt><trkpt lat="39.27932339043042" lon="-3.5029093331481627"><ele>642.6666666666667</ele><time>2026-05-01T09:35:26Z</time></trkpt><trkpt lat="39.27929477170995" lon="-3.5026837385727325"><ele>643.0</ele><time>2026-05-01T09:35:27Z</time></trkpt><trkpt lat="39.27926841557689" lon="-3.5024206142340133"><ele>643.0</ele><time>2026-05-01T09:35:28Z</time></trkpt><trkpt lat="39.279241617079485" lon="-3.502176887306188"><ele>643.0</ele><time>2026-05-01T09:35:29Z</time></trkpt><trkpt lat="39.279216473931044" lon="-3.5019396188687955"><ele>643.0</ele><time>2026-05-01T09:35:30Z</time></trkpt><trkpt lat="39.27918599484197" lon="-3.5017264986236296"><ele>643.3333333333334</ele><time>2026-05-01T09:35:31Z</time></trkpt><trkpt lat="39.27914579517596" lon="-3.501499995488205"><ele>643.6666666666666</ele><time>2026-05-01T09:35:32Z</time></trkpt><trkpt lat="39.27910980057867" lon="-3.501275986632217"><ele>644.0</ele><time>2026-05-01T09:35:33Z</time></trkpt><trkpt lat="39.27908371443644" lon="-3.5010571848479755"><ele>644.0</ele><time>2026-05-01T09:35:34Z</time></trkpt><trkpt lat="39.27906616392989" lon="-3.5008587364942843"><ele>644.0</ele><time>2026-05-01T09:35:35Z</time></trkpt><trkpt lat="39.27906016018803" lon="-3.50063316895645"><ele>644.0</ele><time>2026-05-01T09:35:36Z</time></trkpt><trkpt lat="39.27905357094259" lon="-3.5003875532013584"><ele>644.5</ele><time>2026-05-01T09:35:37Z</time></trkpt><trkpt lat="39.279059102175566" lon="-3.5001087958614368"><ele>645.0</ele><time>2026-05-01T09:35:38Z</time></trkpt><trkpt lat="39.279041627659225" lon="-3.4997969871681835"><ele>644.6666666666666</ele><time>2026-05-01T09:35:39Z</time></trkpt><trkpt lat="39.279046928810516" lon="-3.499528772892431"><ele>644.3333333333333</ele><time>2026-05-01T09:35:40Z</time></trkpt><trkpt lat="39.27905643804036" lon="-3.4992966651640893"><ele>644.0</ele><time>2026-05-01T09:35:41Z</time></trkpt><trkpt lat="39.27907455815618" lon="-3.4990992601454805"><ele>644.0</ele><time>2026-05-01T09:35:42Z</time></trkpt><trkpt lat="39.27910125244724" lon="-3.4989341470978252"><ele>644.0</ele><time>2026-05-01T09:35:43Z</time></trkpt><trkpt lat="39.27914581043612" lon="-3.498761994230565"><ele>644.0</ele><time>2026-05-01T09:35:44Z</time></trkpt><trkpt lat="39.27920166571555" lon="-3.4985875371458235"><ele>644.0</ele><time>2026-05-01T09:35:45Z</time></trkpt><trkpt lat="39.27928235392275" lon="-3.4984111359165007"><ele>643.6666666666666</ele><time>2026-05-01T09:35:46Z</time></trkpt><trkpt lat="39.27936209990776" lon="-3.4981948794607023"><ele>643.3333333333334</ele><time>2026-05-01T09:35:47Z</time></trkpt><trkpt lat="39.27943128030905" lon="-3.4979826175888915"><ele>643.0</ele><time>2026-05-01T09:35:48Z</time></trkpt><trkpt lat="39.27948276612309" lon="-3.4977458582324408"><ele>643.0</ele><time>2026-05-01T09:35:49Z</time></trkpt><trkpt lat="39.27954281527384" lon="-3.497518778287453"><ele>643.0</ele><time>2026-05-01T09:35:50Z</time></trkpt><trkpt lat="39.279591302562494" lon="-3.497306680515432"><ele>643.0</ele><time>2026-05-01T09:35:51Z</time></trkpt><trkpt lat="39.27962772910817" lon="-3.4971242918346355"><ele>643.25</ele><time>2026-05-01T09:35:52Z</time></trkpt><trkpt lat="39.2796550124658" lon="-3.4969287691860584"><ele>643.5</ele><time>2026-05-01T09:35:53Z</time></trkpt><trkpt lat="39.27966255318037" lon="-3.496736568125928"><ele>643.75</ele><time>2026-05-01T09:35:54Z</time></trkpt><trkpt lat="39.27965777464282" lon="-3.4965761024027557"><ele>644.0</ele><time>2026-05-01T09:35:56Z</time></trkpt><trkpt lat="39.27965184489799" lon="-3.4963888425166156"><ele>643.6666666666666</ele><time>2026-05-01T09:35:57Z</time></trkpt><trkpt lat="39.27966067790551" lon="-3.4961559223576426"><ele>643.3333333333334</ele><time>2026-05-01T09:35:58Z</time></trkpt><trkpt lat="39.27963335935914" lon="-3.495911084310225"><ele>643.0</ele><time>2026-05-01T09:35:59Z</time></trkpt><trkpt lat="39.27962191089205" lon="-3.495657804253248"><ele>643.0</ele><time>2026-05-01T09:36:00Z</time></trkpt><trkpt lat="39.279595856077705" lon="-3.495391829846303"><ele>643.0</ele><time>2026-05-01T09:36:01Z</time></trkpt><trkpt lat="39.27955167266838" lon="-3.4951444002486753"><ele>643.0</ele><time>2026-05-01T09:36:02Z</time></trkpt><trkpt lat="39.279505391607046" lon="-3.4948865899037043"><ele>643.0</ele><time>2026-05-01T09:36:03Z</time></trkpt><trkpt lat="39.279460784455694" lon="-3.4946118959921866"><ele>643.0</ele><time>2026-05-01T09:36:04Z</time></trkpt><trkpt lat="39.27941942410258" lon="-3.494315163545355"><ele>643.0</ele><time>2026-05-01T09:36:05Z</time></trkpt><trkpt lat="39.27938298474248" lon="-3.494031711949411"><ele>643.0</ele><time>2026-05-01T09:36:06Z</time></trkpt><trkpt lat="39.27935258990455" lon="-3.49375871505106"><ele>643.0</ele><time>2026-05-01T09:36:07Z</time></trkpt><trkpt lat="39.279335069465645" lon="-3.493497317236204"><ele>643.0</ele><time>2026-05-01T09:36:08Z</time></trkpt><trkpt lat="39.27933070893939" lon="-3.493266478887371"><ele>643.0</ele><time>2026-05-01T09:36:09Z</time></trkpt><trkpt lat="39.27928032202624" lon="-3.4930673680833366"><ele>643.0</ele><time>2026-05-01T09:36:10Z</time></trkpt><trkpt lat="39.27923124573325" lon="-3.492875912417501"><ele>643.0</ele><time>2026-05-01T09:36:11Z</time></trkpt><trkpt lat="39.279165520499596" lon="-3.4926540903663708"><ele>643.0</ele><time>2026-05-01T09:36:12Z</time></trkpt><trkpt lat="39.279085082969004" lon="-3.492439282085898"><ele>643.0</ele><time>2026-05-01T09:36:13Z</time></trkpt><trkpt lat="39.27900597223158" lon="-3.4922155299131794"><ele>642.6666666666667</ele><time>2026-05-01T09:36:14Z</time></trkpt><trkpt lat="39.27894123586149" lon="-3.4920133927762786"><ele>642.3333333333334</ele><time>2026-05-01T09:36:15Z</time></trkpt><trkpt lat="39.27888914856088" lon="-3.491827862057736"><ele>642.0</ele><time>2026-05-01T09:36:16Z</time></trkpt><trkpt lat="39.27883870288379" lon="-3.4916395491933994"><ele>641.8</ele><time>2026-05-01T09:36:17Z</time></trkpt><trkpt lat="39.278796330764116" lon="-3.491476815109269"><ele>641.6</ele><time>2026-05-01T09:36:18Z</time></trkpt><trkpt lat="39.278761828818105" lon="-3.4913417982437833"><ele>641.4</ele><time>2026-05-01T09:36:19Z</time></trkpt><trkpt lat="39.27873417423083" lon="-3.491233577042979"><ele>641.1999999999999</ele><time>2026-05-01T09:36:20Z</time></trkpt><trkpt lat="39.278721608354054" lon="-3.491117421926778"><ele>641.0</ele><time>2026-05-01T09:36:22Z</time></trkpt><trkpt lat="39.27868434865945" lon="-3.491038593681942"><ele>641.25</ele><time>2026-05-01T09:36:34Z</time></trkpt><trkpt lat="39.27864621992379" lon="-3.490866366608692"><ele>641.5</ele><time>2026-05-01T09:36:35Z</time></trkpt><trkpt lat="39.27862588452428" lon="-3.490697089645017"><ele>641.75</ele><time>2026-05-01T09:36:35.999Z</time></trkpt><trkpt lat="39.27857862373203" lon="-3.4905388268312074"><ele>642.0</ele><time>2026-05-01T09:36:36.999Z</time></trkpt><trkpt lat="39.27854959315106" lon="-3.490392605087735"><ele>642.0</ele><time>2026-05-01T09:36:37.999Z</time></trkpt><trkpt lat="39.27853369840511" lon="-3.4902287415877646"><ele>642.0</ele><time>2026-05-01T09:36:38.999Z</time></trkpt><trkpt lat="39.278484322402605" lon="-3.4900736349196517"><ele>642.0</ele><time>2026-05-01T09:36:39.999Z</time></trkpt><trkpt lat="39.278445989464814" lon="-3.4898964779120076"><ele>642.0</ele><time>2026-05-01T09:36:40.999Z</time></trkpt><trkpt lat="39.278413984501235" lon="-3.489671250499466"><ele>641.6666666666666</ele><time>2026-05-01T09:36:41.999Z</time></trkpt><trkpt lat="39.27835441072759" lon="-3.4894172790728186"><ele>641.3333333333333</ele><time>2026-05-01T09:36:42.999Z</time></trkpt><trkpt lat="39.278253606791345" lon="-3.4892232515944817"><ele>641.0</ele><time>2026-05-01T09:36:43.999Z</time></trkpt><trkpt lat="39.27817667495478" lon="-3.489010362808956"><ele>641.0</ele><time>2026-05-01T09:36:44.999Z</time></trkpt><trkpt lat="39.27810401127188" lon="-3.4887631453529715"><ele>641.0</ele><time>2026-05-01T09:36:45.999Z</time></trkpt><trkpt lat="39.27803443347305" lon="-3.488504739569891"><ele>641.0</ele><time>2026-05-01T09:36:46.999Z</time></trkpt><trkpt lat="39.277979622739906" lon="-3.488294431552137"><ele>641.0</ele><time>2026-05-01T09:36:47.999Z</time></trkpt><trkpt lat="39.2779355340549" lon="-3.488111276612833"><ele>641.0</ele><time>2026-05-01T09:36:48.999Z</time></trkpt><trkpt lat="39.27792216818885" lon="-3.4879732159829495"><ele>641.0</ele><time>2026-05-01T09:36:49.999Z</time></trkpt><trkpt lat="39.27790118516973" lon="-3.4878764138790754"><ele>641.0</ele><time>2026-05-01T09:36:50.999Z</time></trkpt><trkpt lat="39.27789107223947" lon="-3.4877897422481245"><ele>641.0</ele><time>2026-05-01T09:36:51.999Z</time></trkpt><trkpt lat="39.27786681940287" lon="-3.4877084351095813"><ele>641.0</ele><time>2026-05-01T09:36:52.999Z</time></trkpt><trkpt lat="39.27784177629873" lon="-3.4875989328663994"><ele>641.0</ele><time>2026-05-01T09:36:53.999Z</time></trkpt><trkpt lat="39.27780969741814" lon="-3.487491929560304"><ele>641.0</ele><time>2026-05-01T09:36:54.999Z</time></trkpt><trkpt lat="39.277791673057294" lon="-3.4874107962893004"><ele>641.0</ele><time>2026-05-01T09:36:55.999Z</time></trkpt><trkpt lat="39.277771941992505" lon="-3.487313743333346"><ele>641.0</ele><time>2026-05-01T09:36:56.999Z</time></trkpt><trkpt lat="39.27800963744058" lon="-3.487108282316692"><ele>641.0</ele><time>2026-05-01T09:36:57.999Z</time></trkpt><trkpt lat="39.278035738517254" lon="-3.4870165594399296"><ele>641.0</ele><time>2026-05-01T09:36:58.999Z</time></trkpt><trkpt lat="39.278072347317455" lon="-3.4869097601498544"><ele>641.0</ele><time>2026-05-01T09:36:59.999Z</time></trkpt><trkpt lat="39.27811716189147" lon="-3.486800854999296"><ele>641.0</ele><time>2026-05-01T09:37:00.999Z</time></trkpt><trkpt lat="39.27816777365" lon="-3.486692235929638"><ele>641.0</ele><time>2026-05-01T09:37:01.999Z</time></trkpt><trkpt lat="39.27821496322667" lon="-3.486588768820582"><ele>641.0</ele><time>2026-05-01T09:37:02.999Z</time></trkpt><trkpt lat="39.27825948209207" lon="-3.4864745117166254"><ele>641.0</ele><time>2026-05-01T09:37:03.999Z</time></trkpt><trkpt lat="39.27829875779201" lon="-3.486375902699434"><ele>641.0</ele><time>2026-05-01T09:37:04.999Z</time></trkpt><trkpt lat="39.27833719425126" lon="-3.486293754348259"><ele>641.0</ele><time>2026-05-01T09:37:05.999Z</time></trkpt><trkpt lat="39.27838854861724" lon="-3.486193763324345"><ele>641.0</ele><time>2026-05-01T09:37:06.999Z</time></trkpt><trkpt lat="39.27842946541647" lon="-3.4861036074854814"><ele>641.0</ele><time>2026-05-01T09:37:07.999Z</time></trkpt><trkpt lat="39.27847015586935" lon="-3.4860071525818794"><ele>640.5999999999999</ele><time>2026-05-01T09:37:08.999Z</time></trkpt><trkpt lat="39.27850914876173" lon="-3.485904170408354"><ele>640.1999999999999</ele><time>2026-05-01T09:37:09.999Z</time></trkpt><trkpt lat="39.278543278476434" lon="-3.485804102155733"><ele>639.8</ele><time>2026-05-01T09:37:10.999Z</time></trkpt><trkpt lat="39.278579284637516" lon="-3.4856980390648724"><ele>639.4</ele><time>2026-05-01T09:37:11.999Z</time></trkpt><trkpt lat="39.27861456875064" lon="-3.4855902960876497"><ele>639.0</ele><time>2026-05-01T09:37:12.999Z</time></trkpt><trkpt lat="39.27864971939296" lon="-3.485467220747596"><ele>639.2</ele><time>2026-05-01T09:37:13.999Z</time></trkpt><trkpt lat="39.278685365101126" lon="-3.485351014488622"><ele>639.4</ele><time>2026-05-01T09:37:14.999Z</time></trkpt><trkpt lat="39.278715673961585" lon="-3.485234899425165"><ele>639.6</ele><time>2026-05-01T09:37:15.999Z</time></trkpt><trkpt lat="39.27874807574265" lon="-3.485113183811092"><ele>639.8</ele><time>2026-05-01T09:37:16.999Z</time></trkpt><trkpt lat="39.27878216802056" lon="-3.485005139320419"><ele>640.0</ele><time>2026-05-01T09:37:17.999Z</time></trkpt><trkpt lat="39.27883138287458" lon="-3.4848887070364922"><ele>640.0</ele><time>2026-05-01T09:37:18.999Z</time></trkpt><trkpt lat="39.2788876142955" lon="-3.4847758357551357"><ele>640.0</ele><time>2026-05-01T09:37:19.999Z</time></trkpt><trkpt lat="39.278948697242626" lon="-3.4846624947607903"><ele>640.0</ele><time>2026-05-01T09:37:20.999Z</time></trkpt><trkpt lat="39.27901380632485" lon="-3.4845511123772703"><ele>640.0</ele><time>2026-05-01T09:37:21.999Z</time></trkpt><trkpt lat="39.27908510322361" lon="-3.484443704461828"><ele>640.0</ele><time>2026-05-01T09:37:22.999Z</time></trkpt><trkpt lat="39.27916724531125" lon="-3.4843271444823074"><ele>640.5</ele><time>2026-05-01T09:37:23.999Z</time></trkpt><trkpt lat="39.27926037216739" lon="-3.484205763900939"><ele>641.0</ele><time>2026-05-01T09:37:24.999Z</time></trkpt><trkpt lat="39.279369398340386" lon="-3.484083701414486"><ele>641.5</ele><time>2026-05-01T09:37:25.999Z</time></trkpt><trkpt lat="39.27947516346132" lon="-3.4839760376039988"><ele>642.0</ele><time>2026-05-01T09:37:26.999Z</time></trkpt><trkpt lat="39.27957680874036" lon="-3.48387377578093"><ele>642.0</ele><time>2026-05-01T09:37:28Z</time></trkpt><trkpt lat="39.27968054384747" lon="-3.4837669810105987"><ele>642.0</ele><time>2026-05-01T09:37:29Z</time></trkpt><trkpt lat="39.279787205886464" lon="-3.4836592705695026"><ele>642.0</ele><time>2026-05-01T09:37:30Z</time></trkpt><trkpt lat="39.27989792074289" lon="-3.4835534283776006"><ele>642.0</ele><time>2026-05-01T09:37:31Z</time></trkpt><trkpt lat="39.280011904035625" lon="-3.4834509726172493"><ele>642.5</ele><time>2026-05-01T09:37:32Z</time></trkpt><trkpt lat="39.28012039974377" lon="-3.4833491442347753"><ele>643.0</ele><time>2026-05-01T09:37:33Z</time></trkpt><trkpt lat="39.28022502774232" lon="-3.483235268722806"><ele>643.5</ele><time>2026-05-01T09:37:34Z</time></trkpt><trkpt lat="39.280324615999" lon="-3.4831010387009114"><ele>644.0</ele><time>2026-05-01T09:37:35Z</time></trkpt><trkpt lat="39.28042978139353" lon="-3.482952174207479"><ele>644.0</ele><time>2026-05-01T09:37:36Z</time></trkpt><trkpt lat="39.2805529065119" lon="-3.482777848184191"><ele>644.0</ele><time>2026-05-01T09:37:37Z</time></trkpt><trkpt lat="39.28071303615526" lon="-3.4825898954481103"><ele>644.0</ele><time>2026-05-01T09:37:38Z</time></trkpt><trkpt lat="39.28087925913392" lon="-3.4823926094833983"><ele>644.0</ele><time>2026-05-01T09:37:39Z</time></trkpt><trkpt lat="39.28103037171568" lon="-3.4822170084532096"><ele>644.0</ele><time>2026-05-01T09:37:40Z</time></trkpt><trkpt lat="39.28116491127111" lon="-3.4820746236259605"><ele>644.0</ele><time>2026-05-01T09:37:41Z</time></trkpt><trkpt lat="39.28131096344058" lon="-3.4819445009799352"><ele>645.0</ele><time>2026-05-01T09:37:42Z</time></trkpt><trkpt lat="39.281471099239496" lon="-3.4818179092044956"><ele>646.0</ele><time>2026-05-01T09:37:43Z</time></trkpt><trkpt lat="39.28161426691351" lon="-3.4817015418140245"><ele>647.0</ele><time>2026-05-01T09:37:44Z</time></trkpt><trkpt lat="39.281747841711336" lon="-3.4815922070881773"><ele>647.0</ele><time>2026-05-01T09:37:45Z</time></trkpt><trkpt lat="39.28185664515149" lon="-3.4814858532192674"><ele>647.0</ele><time>2026-05-01T09:37:46Z</time></trkpt><trkpt lat="39.28195139739416" lon="-3.4813693190750903"><ele>647.0</ele><time>2026-05-01T09:37:47Z</time></trkpt><trkpt lat="39.28204220898873" lon="-3.4812367890794005"><ele>647.0</ele><time>2026-05-01T09:37:48Z</time></trkpt><trkpt lat="39.282121801927566" lon="-3.481081961990151"><ele>646.75</ele><time>2026-05-01T09:37:49Z</time></trkpt><trkpt lat="39.282196049222385" lon="-3.4809069529724486"><ele>646.5</ele><time>2026-05-01T09:37:50Z</time></trkpt><trkpt lat="39.28227488982682" lon="-3.480743926091219"><ele>646.25</ele><time>2026-05-01T09:37:51Z</time></trkpt><trkpt lat="39.282355084268445" lon="-3.480614988235143"><ele>646.0</ele><time>2026-05-01T09:37:52Z</time></trkpt><trkpt lat="39.28241391507401" lon="-3.480508876125519"><ele>646.0</ele><time>2026-05-01T09:37:53Z</time></trkpt><trkpt lat="39.28247331989871" lon="-3.4803710369076466"><ele>646.0</ele><time>2026-05-01T09:37:54Z</time></trkpt><trkpt lat="39.282545297754524" lon="-3.480229919603493"><ele>646.0</ele><time>2026-05-01T09:37:55Z</time></trkpt><trkpt lat="39.282639923746196" lon="-3.4801186854222217"><ele>646.0</ele><time>2026-05-01T09:37:56Z</time></trkpt><trkpt lat="39.28274023219356" lon="-3.4799969876172026"><ele>646.0</ele><time>2026-05-01T09:37:57Z</time></trkpt><trkpt lat="39.28281383294148" lon="-3.479843432673022"><ele>646.0</ele><time>2026-05-01T09:37:58Z</time></trkpt><trkpt lat="39.28288383478375" lon="-3.479654958787876"><ele>646.0</ele><time>2026-05-01T09:37:59Z</time></trkpt><trkpt lat="39.28296328896681" lon="-3.479446044739371"><ele>646.0</ele><time>2026-05-01T09:38:00Z</time></trkpt><trkpt lat="39.28304130495273" lon="-3.479234732953108"><ele>646.0</ele><time>2026-05-01T09:38:01Z</time></trkpt><trkpt lat="39.28311963622966" lon="-3.479060308552978"><ele>646.0</ele><time>2026-05-01T09:38:02Z</time></trkpt><trkpt lat="39.28321897144292" lon="-3.4788864619631275"><ele>646.6666666666667</ele><time>2026-05-01T09:38:03Z</time></trkpt><trkpt lat="39.28332096411946" lon="-3.478737805959416"><ele>647.3333333333334</ele><time>2026-05-01T09:38:04Z</time></trkpt><trkpt lat="39.28342573373826" lon="-3.4785998605492012"><ele>648.0</ele><time>2026-05-01T09:38:05Z</time></trkpt><trkpt lat="39.28353666138645" lon="-3.4784544487917075"><ele>648.0</ele><time>2026-05-01T09:38:06Z</time></trkpt><trkpt lat="39.28364539421712" lon="-3.4783074810003036"><ele>648.0</ele><time>2026-05-01T09:38:07Z</time></trkpt><trkpt lat="39.28374776313816" lon="-3.4781768425931765"><ele>648.0</ele><time>2026-05-01T09:38:08Z</time></trkpt><trkpt lat="39.28385056858613" lon="-3.4780517220070593"><ele>648.0</ele><time>2026-05-01T09:38:09Z</time></trkpt><trkpt lat="39.28395668373042" lon="-3.4779258263813393"><ele>648.3333333333334</ele><time>2026-05-01T09:38:10Z</time></trkpt><trkpt lat="39.284061406551444" lon="-3.4777917706927477"><ele>648.6666666666667</ele><time>2026-05-01T09:38:11Z</time></trkpt><trkpt lat="39.28416476202326" lon="-3.477648534812561"><ele>649.0</ele><time>2026-05-01T09:38:12Z</time></trkpt><trkpt lat="39.28426731601919" lon="-3.47749628510414"><ele>649.0</ele><time>2026-05-01T09:38:13Z</time></trkpt><trkpt lat="39.28438828845169" lon="-3.477309981555676"><ele>649.0</ele><time>2026-05-01T09:38:14Z</time></trkpt><trkpt lat="39.28451808218756" lon="-3.4770969517991595"><ele>649.0</ele><time>2026-05-01T09:38:15Z</time></trkpt><trkpt lat="39.28461768244352" lon="-3.476907787493385"><ele>648.3333333333334</ele><time>2026-05-01T09:38:16Z</time></trkpt><trkpt lat="39.28471393906118" lon="-3.4767145649215867"><ele>647.6666666666666</ele><time>2026-05-01T09:38:17Z</time></trkpt><trkpt lat="39.28480411197433" lon="-3.4765450032950205"><ele>647.0</ele><time>2026-05-01T09:38:18Z</time></trkpt><trkpt lat="39.28490318020956" lon="-3.476358785531823"><ele>647.0</ele><time>2026-05-01T09:38:19Z</time></trkpt><trkpt lat="39.284984483754755" lon="-3.4762108893005457"><ele>647.0</ele><time>2026-05-01T09:38:20Z</time></trkpt><trkpt lat="39.28506590830973" lon="-3.47607287912881"><ele>647.0</ele><time>2026-05-01T09:38:21Z</time></trkpt><trkpt lat="39.28515619917609" lon="-3.4759450256983007"><ele>647.0</ele><time>2026-05-01T09:38:22Z</time></trkpt><trkpt lat="39.28525859487364" lon="-3.4758169411265896"><ele>647.0</ele><time>2026-05-01T09:38:23Z</time></trkpt><trkpt lat="39.285367779715095" lon="-3.4756894514188525"><ele>647.0</ele><time>2026-05-01T09:38:24Z</time></trkpt><trkpt lat="39.28547799407894" lon="-3.475553936933816"><ele>647.0</ele><time>2026-05-01T09:38:25Z</time></trkpt><trkpt lat="39.28558205822911" lon="-3.475405269903629"><ele>647.0</ele><time>2026-05-01T09:38:26Z</time></trkpt><trkpt lat="39.28567289635749" lon="-3.4752665860198686"><ele>647.0</ele><time>2026-05-01T09:38:27Z</time></trkpt><trkpt lat="39.28575379159368" lon="-3.4751298568750455"><ele>647.0</ele><time>2026-05-01T09:38:28Z</time></trkpt><trkpt lat="39.28583328929023" lon="-3.474981414119147"><ele>647.0</ele><time>2026-05-01T09:38:29Z</time></trkpt><trkpt lat="39.28590033282987" lon="-3.4748324325821183"><ele>647.0</ele><time>2026-05-01T09:38:30Z</time></trkpt><trkpt lat="39.28594704857481" lon="-3.474694485130411"><ele>647.0</ele><time>2026-05-01T09:38:31Z</time></trkpt><trkpt lat="39.28598934249786" lon="-3.4745429268658183"><ele>647.0</ele><time>2026-05-01T09:38:32Z</time></trkpt><trkpt lat="39.286034629084526" lon="-3.474375968778006"><ele>647.0</ele><time>2026-05-01T09:38:33Z</time></trkpt><trkpt lat="39.28609302348113" lon="-3.4741896156283616"><ele>647.0</ele><time>2026-05-01T09:38:34Z</time></trkpt><trkpt lat="39.286159755699444" lon="-3.4739935552940366"><ele>647.0</ele><time>2026-05-01T09:38:35Z</time></trkpt><trkpt lat="39.28623288680377" lon="-3.47383703783127"><ele>647.0</ele><time>2026-05-01T09:38:36Z</time></trkpt><trkpt lat="39.28631223654245" lon="-3.4736871366850743"><ele>647.0</ele><time>2026-05-01T09:38:37Z</time></trkpt><trkpt lat="39.286389752535364" lon="-3.4735544148804087"><ele>647.25</ele><time>2026-05-01T09:38:38Z</time></trkpt><trkpt lat="39.286459904547755" lon="-3.473444271302909"><ele>647.5</ele><time>2026-05-01T09:38:39Z</time></trkpt><trkpt lat="39.286537510051616" lon="-3.4733342058552834"><ele>647.75</ele><time>2026-05-01T09:38:40Z</time></trkpt><trkpt lat="39.28663480236217" lon="-3.4732117054650797"><ele>648.0</ele><time>2026-05-01T09:38:41Z</time></trkpt><trkpt lat="39.28673231499726" lon="-3.473106924683563"><ele>648.0</ele><time>2026-05-01T09:38:42Z</time></trkpt><trkpt lat="39.28680170284985" lon="-3.4730320053155195"><ele>648.0</ele><time>2026-05-01T09:38:43Z</time></trkpt><trkpt lat="39.28685339132486" lon="-3.472968000973253"><ele>648.0</ele><time>2026-05-01T09:38:44Z</time></trkpt><trkpt lat="39.286897956525905" lon="-3.4728715929681413"><ele>648.0</ele><time>2026-05-01T09:38:45Z</time></trkpt><trkpt lat="39.286954408743554" lon="-3.4727701701346585"><ele>648.0</ele><time>2026-05-01T09:38:46Z</time></trkpt><trkpt lat="39.28702470830331" lon="-3.4726653709111366"><ele>648.5</ele><time>2026-05-01T09:38:47Z</time></trkpt><trkpt lat="39.287091984665395" lon="-3.472576818469786"><ele>649.0</ele><time>2026-05-01T09:38:48Z</time></trkpt><trkpt lat="39.28716962769273" lon="-3.4724806265633354"><ele>649.5</ele><time>2026-05-01T09:38:49Z</time></trkpt><trkpt lat="39.287258503972126" lon="-3.472358859415275"><ele>650.0</ele><time>2026-05-01T09:38:50Z</time></trkpt><trkpt lat="39.28737194583224" lon="-3.4721982331177577"><ele>650.0</ele><time>2026-05-01T09:38:51Z</time></trkpt><trkpt lat="39.287471618324105" lon="-3.47204387093354"><ele>650.0</ele><time>2026-05-01T09:38:52Z</time></trkpt><trkpt lat="39.28756908742587" lon="-3.471892800991532"><ele>650.0</ele><time>2026-05-01T09:38:53Z</time></trkpt><trkpt lat="39.28767708695503" lon="-3.471746179198002"><ele>650.0</ele><time>2026-05-01T09:38:54Z</time></trkpt><trkpt lat="39.28779735894731" lon="-3.471609680592594"><ele>650.0</ele><time>2026-05-01T09:38:55Z</time></trkpt><trkpt lat="39.287964045771005" lon="-3.4714578502896054"><ele>650.0</ele><time>2026-05-01T09:38:55.999Z</time></trkpt><trkpt lat="39.288094987683635" lon="-3.4713137852291984"><ele>650.25</ele><time>2026-05-01T09:38:56.999Z</time></trkpt><trkpt lat="39.28819493842643" lon="-3.4712002454670423"><ele>650.5</ele><time>2026-05-01T09:38:57.999Z</time></trkpt><trkpt lat="39.288290659689864" lon="-3.471100063694054"><ele>650.75</ele><time>2026-05-01T09:38:58.999Z</time></trkpt><trkpt lat="39.2883976689962" lon="-3.4710142817859038"><ele>651.0</ele><time>2026-05-01T09:38:59.999Z</time></trkpt><trkpt lat="39.288513497954334" lon="-3.4709323607527436"><ele>651.0</ele><time>2026-05-01T09:39:00.999Z</time></trkpt><trkpt lat="39.28862802649828" lon="-3.4708450216272566"><ele>651.0</ele><time>2026-05-01T09:39:01.999Z</time></trkpt><trkpt lat="39.28871600557596" lon="-3.4707487131044186"><ele>651.0</ele><time>2026-05-01T09:39:02.999Z</time></trkpt><trkpt lat="39.28882994876889" lon="-3.470611345239581"><ele>651.0</ele><time>2026-05-01T09:39:03.999Z</time></trkpt><trkpt lat="39.28893203686812" lon="-3.4704538549385204"><ele>650.6666666666666</ele><time>2026-05-01T09:39:04.999Z</time></trkpt><trkpt lat="39.28904415240482" lon="-3.4702543468336127"><ele>650.3333333333333</ele><time>2026-05-01T09:39:05.999Z</time></trkpt><trkpt lat="39.289155956690564" lon="-3.4700486605538012"><ele>650.0</ele><time>2026-05-01T09:39:06.999Z</time></trkpt><trkpt lat="39.28927306473046" lon="-3.4698890642380524"><ele>650.0</ele><time>2026-05-01T09:39:07.999Z</time></trkpt><trkpt lat="39.28940282253101" lon="-3.4697621771396383"><ele>650.0</ele><time>2026-05-01T09:39:09Z</time></trkpt><trkpt lat="39.28952351854783" lon="-3.4696539363977768"><ele>650.0</ele><time>2026-05-01T09:39:09.999Z</time></trkpt><trkpt lat="39.2896436035893" lon="-3.4695550563729474"><ele>650.0</ele><time>2026-05-01T09:39:10.999Z</time></trkpt><trkpt lat="39.289794576461766" lon="-3.469395865113977"><ele>650.0</ele><time>2026-05-01T09:39:11.999Z</time></trkpt><trkpt lat="39.28992075791154" lon="-3.469298600774146"><ele>650.0</ele><time>2026-05-01T09:39:12.999Z</time></trkpt><trkpt lat="39.29003633983374" lon="-3.469196525015445"><ele>650.0</ele><time>2026-05-01T09:39:13.999Z</time></trkpt><trkpt lat="39.29011913569066" lon="-3.469091776544573"><ele>650.0</ele><time>2026-05-01T09:39:14.999Z</time></trkpt><trkpt lat="39.290214148325305" lon="-3.46895580159658"><ele>650.0</ele><time>2026-05-01T09:39:15.999Z</time></trkpt><trkpt lat="39.29031353346834" lon="-3.4688025299089835"><ele>650.0</ele><time>2026-05-01T09:39:16.999Z</time></trkpt><trkpt lat="39.29041742521726" lon="-3.468633887815958"><ele>650.0</ele><time>2026-05-01T09:39:17.999Z</time></trkpt><trkpt lat="39.290546990784485" lon="-3.468436662984393"><ele>650.0</ele><time>2026-05-01T09:39:18.999Z</time></trkpt><trkpt lat="39.29067287314707" lon="-3.4682857550217094"><ele>650.0</ele><time>2026-05-01T09:39:19.999Z</time></trkpt><trkpt lat="39.29078423086071" lon="-3.4681605112995064"><ele>650.0</ele><time>2026-05-01T09:39:20.999Z</time></trkpt><trkpt lat="39.290881142747956" lon="-3.468053707826443"><ele>650.0</ele><time>2026-05-01T09:39:21.999Z</time></trkpt><trkpt lat="39.29095510951365" lon="-3.467980156051337"><ele>650.0</ele><time>2026-05-01T09:39:22.999Z</time></trkpt><trkpt lat="39.291030532064845" lon="-3.4678968172095983"><ele>650.0</ele><time>2026-05-01T09:39:24.999Z</time></trkpt><trkpt lat="39.291090612690375" lon="-3.4678201014003207"><ele>650.0</ele><time>2026-05-01T09:39:26.999Z</time></trkpt><trkpt lat="39.29113606993144" lon="-3.4677551277912095"><ele>650.1666666666666</ele><time>2026-05-01T09:39:28.999Z</time></trkpt><trkpt lat="39.291200784290695" lon="-3.4676819724503285"><ele>650.3333333333333</ele><time>2026-05-01T09:39:31.999Z</time></trkpt><trkpt lat="39.29124685440047" lon="-3.4675956702025332"><ele>650.5</ele><time>2026-05-01T09:39:34Z</time></trkpt><trkpt lat="39.291309598531946" lon="-3.4675775024828592"><ele>650.6666666666666</ele><time>2026-05-01T09:39:36Z</time></trkpt><trkpt lat="39.29139800097975" lon="-3.467568368622272"><ele>650.8333333333334</ele><time>2026-05-01T09:39:39Z</time></trkpt><trkpt lat="39.29145898554879" lon="-3.467539661545411"><ele>651.0</ele><time>2026-05-01T09:39:43Z</time></trkpt><trkpt lat="39.291516659844945" lon="-3.46747284988497"><ele>651.0</ele><time>2026-05-01T09:44:46Z</time></trkpt><trkpt lat="39.29155853877649" lon="-3.467374787498301"><ele>651.0</ele><time>2026-05-01T09:44:48Z</time></trkpt><trkpt lat="39.29158343449617" lon="-3.467260504858271"><ele>651.0</ele><time>2026-05-01T09:44:50Z</time></trkpt><trkpt lat="39.291591409691854" lon="-3.467167199743917"><ele>651.0</ele><time>2026-05-01T09:44:54Z</time></trkpt><trkpt lat="39.29166241949714" lon="-3.4670820295014404"><ele>651.0</ele><time>2026-05-01T09:44:55.999Z</time></trkpt><trkpt lat="39.29175776842352" lon="-3.4670146284566203"><ele>651.0</ele><time>2026-05-01T09:44:56.999Z</time></trkpt><trkpt lat="39.2918363638704" lon="-3.4669442542430757"><ele>651.0</ele><time>2026-05-01T09:44:57.999Z</time></trkpt><trkpt lat="39.29184002696839" lon="-3.4668298566958025"><ele>651.0</ele><time>2026-05-01T09:44:58.999Z</time></trkpt><trkpt lat="39.29189263492705" lon="-3.4667772310216907"><ele>651.0</ele><time>2026-05-01T09:45:00.999Z</time></trkpt><trkpt lat="39.29195234898249" lon="-3.466717496845875"><ele>651.0</ele><time>2026-05-01T09:45:03.999Z</time></trkpt><trkpt lat="39.292026147205135" lon="-3.4666496235458037"><ele>651.0</ele><time>2026-05-01T09:45:06.999Z</time></trkpt><trkpt lat="39.292134377073054" lon="-3.4665547969492554"><ele>651.0</ele><time>2026-05-01T09:45:08.999Z</time></trkpt><trkpt lat="39.29221069986486" lon="-3.466492253922437"><ele>651.0</ele><time>2026-05-01T09:45:09.999Z</time></trkpt><trkpt lat="39.29230381097155" lon="-3.466427158215576"><ele>651.0</ele><time>2026-05-01T09:45:10.999Z</time></trkpt><trkpt lat="39.2924056839976" lon="-3.466360789103018"><ele>651.0</ele><time>2026-05-01T09:45:11.999Z</time></trkpt><trkpt lat="39.292535844823476" lon="-3.46628138543718"><ele>651.25</ele><time>2026-05-01T09:45:12.999Z</time></trkpt><trkpt lat="39.292662714224264" lon="-3.466204613992036"><ele>651.5</ele><time>2026-05-01T09:45:13.999Z</time></trkpt><trkpt lat="39.29277408691921" lon="-3.466164482269459"><ele>651.75</ele><time>2026-05-01T09:45:14.999Z</time></trkpt><trkpt lat="39.29287282950043" lon="-3.466102208087914"><ele>652.0</ele><time>2026-05-01T09:45:15.999Z</time></trkpt><trkpt lat="39.29298563393135" lon="-3.466027633136095"><ele>652.5</ele><time>2026-05-01T09:45:16.999Z</time></trkpt><trkpt lat="39.29309412024685" lon="-3.4659498461874607"><ele>653.0</ele><time>2026-05-01T09:45:17.999Z</time></trkpt><trkpt lat="39.29319431698621" lon="-3.4658715481898756"><ele>653.5</ele><time>2026-05-01T09:45:18.999Z</time></trkpt><trkpt lat="39.29327009176656" lon="-3.4657690442276143"><ele>654.0</ele><time>2026-05-01T09:45:19.999Z</time></trkpt><trkpt lat="39.293362016837214" lon="-3.465677395626223"><ele>654.0</ele><time>2026-05-01T09:45:20.999Z</time></trkpt><trkpt lat="39.29346254035101" lon="-3.4655845570000197"><ele>654.0</ele><time>2026-05-01T09:45:21.999Z</time></trkpt><trkpt lat="39.29357133126594" lon="-3.465492571785684"><ele>654.0</ele><time>2026-05-01T09:45:22.999Z</time></trkpt><trkpt lat="39.29370014035127" lon="-3.465390061637631"><ele>654.0</ele><time>2026-05-01T09:45:23.999Z</time></trkpt><trkpt lat="39.29382231864523" lon="-3.4653003834420315"><ele>654.75</ele><time>2026-05-01T09:45:24.999Z</time></trkpt><trkpt lat="39.29393659590296" lon="-3.465231474435453"><ele>655.5</ele><time>2026-05-01T09:45:25.999Z</time></trkpt><trkpt lat="39.29406370749431" lon="-3.465158462512177"><ele>656.25</ele><time>2026-05-01T09:45:26.999Z</time></trkpt><trkpt lat="39.2941941817311" lon="-3.465109117369576"><ele>657.0</ele><time>2026-05-01T09:45:27.999Z</time></trkpt><trkpt lat="39.29429204513675" lon="-3.4650201168749146"><ele>657.0</ele><time>2026-05-01T09:45:28.999Z</time></trkpt><trkpt lat="39.29437938453853" lon="-3.4649458614029873"><ele>657.0</ele><time>2026-05-01T09:45:29.999Z</time></trkpt><trkpt lat="39.29446099719196" lon="-3.46485425598123"><ele>657.0</ele><time>2026-05-01T09:45:30.999Z</time></trkpt><trkpt lat="39.29455482305167" lon="-3.4647282286244017"><ele>657.0</ele><time>2026-05-01T09:45:31.999Z</time></trkpt><trkpt lat="39.294649763826754" lon="-3.464542539401177"><ele>656.75</ele><time>2026-05-01T09:45:32.999Z</time></trkpt><trkpt lat="39.29473761652879" lon="-3.464351560131689"><ele>656.5</ele><time>2026-05-01T09:45:34.999Z</time></trkpt><trkpt lat="39.29479280236721" lon="-3.4642227177115483"><ele>656.25</ele><time>2026-05-01T09:45:35.999Z</time></trkpt><trkpt lat="39.29484615036272" lon="-3.4640952313320184"><ele>656.0</ele><time>2026-05-01T09:45:36.999Z</time></trkpt><trkpt lat="39.294902142809434" lon="-3.463957160955141"><ele>656.0</ele><time>2026-05-01T09:45:37.999Z</time></trkpt><trkpt lat="39.29497504074125" lon="-3.4638196940953523"><ele>656.0</ele><time>2026-05-01T09:45:38.999Z</time></trkpt><trkpt lat="39.29504601790465" lon="-3.463638041819857"><ele>656.0</ele><time>2026-05-01T09:45:39.999Z</time></trkpt><trkpt lat="39.295110402150364" lon="-3.4634798855890723"><ele>656.0</ele><time>2026-05-01T09:45:40.999Z</time></trkpt><trkpt lat="39.295149071941424" lon="-3.4633325161024753"><ele>655.75</ele><time>2026-05-01T09:45:41.999Z</time></trkpt><trkpt lat="39.29519962075407" lon="-3.4632018812103884"><ele>655.5</ele><time>2026-05-01T09:45:42.999Z</time></trkpt><trkpt lat="39.29524723840486" lon="-3.463078821416822"><ele>655.25</ele><time>2026-05-01T09:45:43.999Z</time></trkpt><trkpt lat="39.2953021964511" lon="-3.4629324939140402"><ele>655.0</ele><time>2026-05-01T09:45:44.999Z</time></trkpt><trkpt lat="39.2953635565278" lon="-3.4627651050584802"><ele>654.8</ele><time>2026-05-01T09:45:45.999Z</time></trkpt><trkpt lat="39.29543289775727" lon="-3.462615542901362"><ele>654.6</ele><time>2026-05-01T09:45:46.999Z</time></trkpt><trkpt lat="39.29547581996777" lon="-3.462482758711182"><ele>654.4000000000001</ele><time>2026-05-01T09:45:47.999Z</time></trkpt><trkpt lat="39.2954982560813" lon="-3.4623561783322727"><ele>654.2</ele><time>2026-05-01T09:45:48.999Z</time></trkpt><trkpt lat="39.29554755361431" lon="-3.462254369131351"><ele>654.0</ele><time>2026-05-01T09:45:49.999Z</time></trkpt><trkpt lat="39.29558128201781" lon="-3.4621513780829023"><ele>654.1666666666666</ele><time>2026-05-01T09:45:50.999Z</time></trkpt><trkpt lat="39.29561581443479" lon="-3.462046219529962"><ele>654.3333333333334</ele><time>2026-05-01T09:45:51.999Z</time></trkpt><trkpt lat="39.29565091061949" lon="-3.4619501782214233"><ele>654.5</ele><time>2026-05-01T09:45:52.999Z</time></trkpt><trkpt lat="39.29569380664655" lon="-3.461860583555613"><ele>654.6666666666667</ele><time>2026-05-01T09:45:53.999Z</time></trkpt><trkpt lat="39.29574332216887" lon="-3.4617675996855026"><ele>654.8333333333334</ele><time>2026-05-01T09:45:54.999Z</time></trkpt><trkpt lat="39.29578480873791" lon="-3.4616879025917497"><ele>655.0</ele><time>2026-05-01T09:45:55.999Z</time></trkpt><trkpt lat="39.295817226264184" lon="-3.4616157935708016"><ele>655.0</ele><time>2026-05-01T09:45:56.999Z</time></trkpt><trkpt lat="39.295855795985744" lon="-3.4614721073332477"><ele>655.0</ele><time>2026-05-01T09:45:58.999Z</time></trkpt><trkpt lat="39.295887366506264" lon="-3.461390191999641"><ele>655.0</ele><time>2026-05-01T09:45:59.999Z</time></trkpt><trkpt lat="39.29591837710459" lon="-3.4613097289669903"><ele>655.0</ele><time>2026-05-01T09:46:01.999Z</time></trkpt><trkpt lat="39.2959468924249" lon="-3.4612357401023206"><ele>655.0</ele><time>2026-05-01T09:46:05Z</time></trkpt><trkpt lat="39.29604541403363" lon="-3.4612871300805113"><ele>655.0</ele><time>2026-05-01T09:46:06Z</time></trkpt><trkpt lat="39.296105458813656" lon="-3.4613539005184992"><ele>655.0</ele><time>2026-05-01T09:46:10Z</time></trkpt><trkpt lat="39.29617800001936" lon="-3.461395234046815"><ele>655.0</ele><time>2026-05-01T09:46:28.999Z</time></trkpt><trkpt lat="39.29606045315188" lon="-3.4613044048696278"><ele>655.0</ele><time>2026-05-01T09:46:36.999Z</time></trkpt><trkpt lat="39.29596809739656" lon="-3.46124841368499"><ele>655.0</ele><time>2026-05-01T09:46:37.999Z</time></trkpt><trkpt lat="39.29584529666138" lon="-3.461167869754326"><ele>654.6666666666667</ele><time>2026-05-01T09:46:38.999Z</time></trkpt><trkpt lat="39.29569607849933" lon="-3.4610744062790615"><ele>654.3333333333334</ele><time>2026-05-01T09:46:39.999Z</time></trkpt><trkpt lat="39.295529690420906" lon="-3.4609641680501557"><ele>654.0</ele><time>2026-05-01T09:46:40.999Z</time></trkpt><trkpt lat="39.29534031753007" lon="-3.4608361183138405"><ele>653.0</ele><time>2026-05-01T09:46:41.999Z</time></trkpt><trkpt lat="39.2951317081501" lon="-3.4607023204162655"><ele>652.0</ele><time>2026-05-01T09:46:42.999Z</time></trkpt><trkpt lat="39.29490875128326" lon="-3.4605886071622125"><ele>651.5</ele><time>2026-05-01T09:46:43.999Z</time></trkpt><trkpt lat="39.29467730558296" lon="-3.4604360228247892"><ele>651.0</ele><time>2026-05-01T09:46:44.999Z</time></trkpt><trkpt lat="39.294430490101085" lon="-3.4602729917398336"><ele>651.0</ele><time>2026-05-01T09:46:45.999Z</time></trkpt><trkpt lat="39.29418007197928" lon="-3.4601064884307355"><ele>651.0</ele><time>2026-05-01T09:46:46.999Z</time></trkpt><trkpt lat="39.29393930819172" lon="-3.459946404360954"><ele>651.0</ele><time>2026-05-01T09:46:47.999Z</time></trkpt><trkpt lat="39.29369595600073" lon="-3.459784599209437"><ele>651.0</ele><time>2026-05-01T09:46:48.999Z</time></trkpt><trkpt lat="39.2934606963933" lon="-3.4596281748563613"><ele>651.5</ele><time>2026-05-01T09:46:49.999Z</time></trkpt><trkpt lat="39.293239101451825" lon="-3.459481471825371"><ele>652.0</ele><time>2026-05-01T09:46:50.999Z</time></trkpt><trkpt lat="39.293012743295485" lon="-3.4593323061181263"><ele>651.0</ele><time>2026-05-01T09:46:51.999Z</time></trkpt><trkpt lat="39.29276756492304" lon="-3.4591707382479466"><ele>650.0</ele><time>2026-05-01T09:46:52.999Z</time></trkpt><trkpt lat="39.29255040353665" lon="-3.4590276330606624"><ele>650.0</ele><time>2026-05-01T09:46:53.999Z</time></trkpt><trkpt lat="39.29234749862939" lon="-3.4588939225953985"><ele>650.0</ele><time>2026-05-01T09:46:54.999Z</time></trkpt><trkpt lat="39.292158628361896" lon="-3.4587694606994357"><ele>650.0</ele><time>2026-05-01T09:46:55.999Z</time></trkpt><trkpt lat="39.2919483430925" lon="-3.458630885362841"><ele>650.0</ele><time>2026-05-01T09:46:56.999Z</time></trkpt><trkpt lat="39.291729754468996" lon="-3.4584866950714988"><ele>650.0</ele><time>2026-05-01T09:46:57.999Z</time></trkpt><trkpt lat="39.29148058762941" lon="-3.4583218951758528"><ele>649.0</ele><time>2026-05-01T09:46:58.999Z</time></trkpt><trkpt lat="39.29122730395611" lon="-3.4581543724216526"><ele>648.0</ele><time>2026-05-01T09:46:59.999Z</time></trkpt><trkpt lat="39.29097283517874" lon="-3.4579866068935"><ele>648.0</ele><time>2026-05-01T09:47:00.999Z</time></trkpt><trkpt lat="39.290745702579834" lon="-3.4578136614060346"><ele>648.0</ele><time>2026-05-01T09:47:01.999Z</time></trkpt><trkpt lat="39.29048508145129" lon="-3.4576649236872936"><ele>647.5</ele><time>2026-05-01T09:47:02.999Z</time></trkpt><trkpt lat="39.29023809863723" lon="-3.457500670091529"><ele>647.0</ele><time>2026-05-01T09:47:03.999Z</time></trkpt><trkpt lat="39.29000830861377" lon="-3.4573438431049675"><ele>647.0</ele><time>2026-05-01T09:47:04.999Z</time></trkpt><trkpt lat="39.28979036291644" lon="-3.45719490725573"><ele>647.0</ele><time>2026-05-01T09:47:05.999Z</time></trkpt><trkpt lat="39.28960998862707" lon="-3.4570772779717953"><ele>647.0</ele><time>2026-05-01T09:47:06.999Z</time></trkpt><trkpt lat="39.28945295152744" lon="-3.4569883257774534"><ele>648.0</ele><time>2026-05-01T09:47:07.999Z</time></trkpt><trkpt lat="39.28931066233175" lon="-3.4569262663429035"><ele>649.0</ele><time>2026-05-01T09:47:08.999Z</time></trkpt><trkpt lat="39.289175030912645" lon="-3.4568800871210854"><ele>650.0</ele><time>2026-05-01T09:47:09.999Z</time></trkpt><trkpt lat="39.28905747247039" lon="-3.4568538213364652"><ele>651.0</ele><time>2026-05-01T09:47:10.999Z</time></trkpt><trkpt lat="39.28897686053631" lon="-3.4568403057940973"><ele>651.3333333333334</ele><time>2026-05-01T09:47:11.999Z</time></trkpt><trkpt lat="39.2889025574448" lon="-3.4568084069245018"><ele>651.6666666666666</ele><time>2026-05-01T09:47:13.999Z</time></trkpt><trkpt lat="39.28883752804894" lon="-3.4568021812210294"><ele>652.0</ele><time>2026-05-01T09:47:15.999Z</time></trkpt><trkpt lat="39.28878800797206" lon="-3.4567158300521217"><ele>652.3333333333333</ele><time>2026-05-01T09:47:29.999Z</time></trkpt><trkpt lat="39.28872514003772" lon="-3.456631436113922"><ele>652.6666666666666</ele><time>2026-05-01T09:47:31.999Z</time></trkpt><trkpt lat="39.28868274577839" lon="-3.4565640213696143"><ele>653.0</ele><time>2026-05-01T09:47:32.999Z</time></trkpt><trkpt lat="39.28860233967059" lon="-3.4565431880132023"><ele>653.0</ele><time>2026-05-01T09:47:33.999Z</time></trkpt><trkpt lat="39.28847731564751" lon="-3.4565250071453093"><ele>653.0</ele><time>2026-05-01T09:47:34.999Z</time></trkpt><trkpt lat="39.288310203578355" lon="-3.456482519209067"><ele>653.0</ele><time>2026-05-01T09:47:35.999Z</time></trkpt><trkpt lat="39.28815850480774" lon="-3.45643238139161"><ele>653.1666666666666</ele><time>2026-05-01T09:47:36.999Z</time></trkpt><trkpt lat="39.288054280728936" lon="-3.45636984624755"><ele>653.3333333333333</ele><time>2026-05-01T09:47:37.999Z</time></trkpt><trkpt lat="39.28797576248563" lon="-3.4563006369408655"><ele>653.5</ele><time>2026-05-01T09:47:38.999Z</time></trkpt><trkpt lat="39.28792213022428" lon="-3.456222671065384"><ele>653.6666666666666</ele><time>2026-05-01T09:47:39.999Z</time></trkpt><trkpt lat="39.28790914311099" lon="-3.4561325422964146"><ele>653.8333333333334</ele><time>2026-05-01T09:47:40.999Z</time></trkpt><trkpt lat="39.28793270311317" lon="-3.456034994643971"><ele>654.0</ele><time>2026-05-01T09:47:41.999Z</time></trkpt><trkpt lat="39.28794588803978" lon="-3.455880787150705"><ele>654.0</ele><time>2026-05-01T09:47:42.999Z</time></trkpt><trkpt lat="39.28800984803185" lon="-3.455715735586636"><ele>654.0</ele><time>2026-05-01T09:47:43.999Z</time></trkpt><trkpt lat="39.28807546478589" lon="-3.45554729293891"><ele>654.0</ele><time>2026-05-01T09:47:44.999Z</time></trkpt><trkpt lat="39.288122381384916" lon="-3.455426056996721"><ele>654.0</ele><time>2026-05-01T09:47:45.999Z</time></trkpt><trkpt lat="39.288157141853354" lon="-3.455336233337428"><ele>653.8000000000001</ele><time>2026-05-01T09:47:46.999Z</time></trkpt><trkpt lat="39.28818646276752" lon="-3.4552563908832314"><ele>653.6</ele><time>2026-05-01T09:47:47.999Z</time></trkpt><trkpt lat="39.288292592623854" lon="-3.4552160753913244"><ele>653.4</ele><time>2026-05-01T09:47:48.999Z</time></trkpt><trkpt lat="39.288378482863486" lon="-3.455218688857645"><ele>653.2</ele><time>2026-05-01T09:47:49.999Z</time></trkpt><trkpt lat="39.28846914514224" lon="-3.455220827012103"><ele>653.0</ele><time>2026-05-01T09:47:50.999Z</time></trkpt><trkpt lat="39.288558402669956" lon="-3.455315261718343"><ele>653.0</ele><time>2026-05-01T09:47:51.999Z</time></trkpt><trkpt lat="39.28864284116767" lon="-3.455390047258496"><ele>653.0</ele><time>2026-05-01T09:47:52.999Z</time></trkpt><trkpt lat="39.28871891253427" lon="-3.4554756874259542"><ele>653.0</ele><time>2026-05-01T09:47:53.999Z</time></trkpt><trkpt lat="39.28879827438331" lon="-3.4555429283920436"><ele>653.0</ele><time>2026-05-01T09:47:54.999Z</time></trkpt><trkpt lat="39.288885706128404" lon="-3.4556692427313638"><ele>653.0</ele><time>2026-05-01T09:47:55.999Z</time></trkpt><trkpt lat="39.28897171828537" lon="-3.4557918419590656"><ele>652.4</ele><time>2026-05-01T09:47:56.999Z</time></trkpt><trkpt lat="39.28904371295481" lon="-3.4559020547271007"><ele>651.8</ele><time>2026-05-01T09:47:57.999Z</time></trkpt><trkpt lat="39.28910524992395" lon="-3.4559887749747293"><ele>651.2</ele><time>2026-05-01T09:47:58.999Z</time></trkpt><trkpt lat="39.2891628920453" lon="-3.4560397005784678"><ele>650.6</ele><time>2026-05-01T09:47:59.999Z</time></trkpt><trkpt lat="39.28925538690336" lon="-3.4560368052900308"><ele>650.0</ele><time>2026-05-01T09:48:01.999Z</time></trkpt><trkpt lat="39.28921462893894" lon="-3.455928850311985"><ele>650.0</ele><time>2026-05-01T09:48:03.999Z</time></trkpt><trkpt lat="39.28910830455086" lon="-3.4557735055667105"><ele>650.0</ele><time>2026-05-01T09:48:05.999Z</time></trkpt><trkpt lat="39.28904414242217" lon="-3.4556370479354976"><ele>650.0</ele><time>2026-05-01T09:48:06.999Z</time></trkpt><trkpt lat="39.288947986721524" lon="-3.4554953165346465"><ele>650.0</ele><time>2026-05-01T09:48:07.999Z</time></trkpt><trkpt lat="39.288833850978484" lon="-3.455340351532863"><ele>650.75</ele><time>2026-05-01T09:48:08.999Z</time></trkpt><trkpt lat="39.28873707748032" lon="-3.455215200289101"><ele>651.5</ele><time>2026-05-01T09:48:09.999Z</time></trkpt><trkpt lat="39.28866574199051" lon="-3.455108144003261"><ele>652.25</ele><time>2026-05-01T09:48:10.999Z</time></trkpt><trkpt lat="39.28860664248514" lon="-3.4550561710371412"><ele>653.0</ele><time>2026-05-01T09:48:11.999Z</time></trkpt><trkpt lat="39.288731325501004" lon="-3.454785305888751"><ele>653.0</ele><time>2026-05-01T09:48:15.999Z</time></trkpt><trkpt lat="39.28881115755595" lon="-3.454632189019976"><ele>653.0</ele><time>2026-05-01T09:48:16.999Z</time></trkpt><trkpt lat="39.28891482198305" lon="-3.4544523130528804"><ele>653.0</ele><time>2026-05-01T09:48:17.999Z</time></trkpt><trkpt lat="39.28904073392576" lon="-3.4542503909082836"><ele>650.6666666666666</ele><time>2026-05-01T09:48:18.999Z</time></trkpt><trkpt lat="39.28918637504685" lon="-3.4540419504238358"><ele>648.3333333333334</ele><time>2026-05-01T09:48:19.999Z</time></trkpt><trkpt lat="39.2893180192109" lon="-3.453835338257585"><ele>646.0</ele><time>2026-05-01T09:48:20.999Z</time></trkpt><trkpt lat="39.28945703132806" lon="-3.453594481720171"><ele>645.6666666666667</ele><time>2026-05-01T09:48:21.999Z</time></trkpt><trkpt lat="39.289626423832075" lon="-3.4533692058898673"><ele>645.3333333333334</ele><time>2026-05-01T09:48:22.999Z</time></trkpt><trkpt lat="39.28976722223844" lon="-3.453185880039764"><ele>645.0</ele><time>2026-05-01T09:48:23.999Z</time></trkpt><trkpt lat="39.289916923792596" lon="-3.453034445606874"><ele>645.0</ele><time>2026-05-01T09:48:24.999Z</time></trkpt><trkpt lat="39.290071576730995" lon="-3.4529081772536694"><ele>645.0</ele><time>2026-05-01T09:48:25.999Z</time></trkpt><trkpt lat="39.29022568531651" lon="-3.4528068180451443"><ele>645.0</ele><time>2026-05-01T09:48:26.999Z</time></trkpt><trkpt lat="39.290393482694896" lon="-3.4527110680594295"><ele>645.6666666666666</ele><time>2026-05-01T09:48:27.999Z</time></trkpt><trkpt lat="39.29059884080509" lon="-3.4526217564009096"><ele>646.3333333333333</ele><time>2026-05-01T09:48:28.999Z</time></trkpt><trkpt lat="39.290790736002215" lon="-3.4525162180688698"><ele>647.0</ele><time>2026-05-01T09:48:29.999Z</time></trkpt><trkpt lat="39.29095042474395" lon="-3.4523710760900315"><ele>647.0</ele><time>2026-05-01T09:48:30.999Z</time></trkpt><trkpt lat="39.291139692864704" lon="-3.452223885437614"><ele>647.0</ele><time>2026-05-01T09:48:31.999Z</time></trkpt><trkpt lat="39.291317205330785" lon="-3.4521311670063235"><ele>647.0</ele><time>2026-05-01T09:48:32.999Z</time></trkpt><trkpt lat="39.291511393794366" lon="-3.452036780908647"><ele>646.0</ele><time>2026-05-01T09:48:33.999Z</time></trkpt><trkpt lat="39.29171648936544" lon="-3.451931982725308"><ele>645.0</ele><time>2026-05-01T09:48:34.999Z</time></trkpt><trkpt lat="39.29191342639907" lon="-3.4518437914682325"><ele>644.0</ele><time>2026-05-01T09:48:35.999Z</time></trkpt><trkpt lat="39.29209363266009" lon="-3.4517456127257633"><ele>644.0</ele><time>2026-05-01T09:48:36.999Z</time></trkpt><trkpt lat="39.29224694954907" lon="-3.451645378601513"><ele>644.0</ele><time>2026-05-01T09:48:37.999Z</time></trkpt><trkpt lat="39.29238761026077" lon="-3.4515428218522914"><ele>644.0</ele><time>2026-05-01T09:48:38.999Z</time></trkpt><trkpt lat="39.29252671217744" lon="-3.451430817801245"><ele>644.3333333333333</ele><time>2026-05-01T09:48:39.999Z</time></trkpt><trkpt lat="39.29267146479547" lon="-3.451290620648871"><ele>644.6666666666666</ele><time>2026-05-01T09:48:40.999Z</time></trkpt><trkpt lat="39.29284296231436" lon="-3.4511184813068287"><ele>645.0</ele><time>2026-05-01T09:48:41.999Z</time></trkpt><trkpt lat="39.29301742783284" lon="-3.450922498709771"><ele>645.0</ele><time>2026-05-01T09:48:42.999Z</time></trkpt><trkpt lat="39.293154552551826" lon="-3.4507424317728117"><ele>645.0</ele><time>2026-05-01T09:48:43.999Z</time></trkpt><trkpt lat="39.29326663596563" lon="-3.450563162318166"><ele>645.0</ele><time>2026-05-01T09:48:44.999Z</time></trkpt><trkpt lat="39.29336231874578" lon="-3.4503641605622386"><ele>644.5</ele><time>2026-05-01T09:48:45.999Z</time></trkpt><trkpt lat="39.293473947192794" lon="-3.4501197716795633"><ele>644.0</ele><time>2026-05-01T09:48:46.999Z</time></trkpt><trkpt lat="39.29360138111432" lon="-3.449844481001388"><ele>643.6666666666666</ele><time>2026-05-01T09:48:47.999Z</time></trkpt><trkpt lat="39.293736752963916" lon="-3.449584933158883"><ele>643.3333333333334</ele><time>2026-05-01T09:48:48.999Z</time></trkpt><trkpt lat="39.2938372794144" lon="-3.449391670629822"><ele>643.0</ele><time>2026-05-01T09:48:49.999Z</time></trkpt><trkpt lat="39.29391704883553" lon="-3.4492365249335015"><ele>642.75</ele><time>2026-05-01T09:48:50.999Z</time></trkpt><trkpt lat="39.293988363388515" lon="-3.449113096244988"><ele>642.5</ele><time>2026-05-01T09:48:51.999Z</time></trkpt><trkpt lat="39.29405563106873" lon="-3.448998239247346"><ele>642.25</ele><time>2026-05-01T09:48:52.999Z</time></trkpt><trkpt lat="39.294119233701736" lon="-3.448889640196197"><ele>642.0</ele><time>2026-05-01T09:48:53.999Z</time></trkpt><trkpt lat="39.29423485582207" lon="-3.44882715055948"><ele>641.5</ele><time>2026-05-01T09:48:54.999Z</time></trkpt><trkpt lat="39.29432176571297" lon="-3.448754390472952"><ele>641.0</ele><time>2026-05-01T09:48:55.999Z</time></trkpt><trkpt lat="39.29441593199111" lon="-3.4487043588089334"><ele>640.5</ele><time>2026-05-01T09:48:56.999Z</time></trkpt><trkpt lat="39.29453700126272" lon="-3.4486633765217523"><ele>640.0</ele><time>2026-05-01T09:48:57.999Z</time></trkpt><trkpt lat="39.29468964404386" lon="-3.4486198809837547"><ele>639.75</ele><time>2026-05-01T09:48:58.999Z</time></trkpt><trkpt lat="39.29484206426652" lon="-3.4485775768095928"><ele>639.5</ele><time>2026-05-01T09:48:59.999Z</time></trkpt><trkpt lat="39.29497784491707" lon="-3.44854045084729"><ele>639.25</ele><time>2026-05-01T09:49:00.999Z</time></trkpt><trkpt lat="39.29510467050509" lon="-3.448497801551605"><ele>639.0</ele><time>2026-05-01T09:49:01.999Z</time></trkpt><trkpt lat="39.29520641360504" lon="-3.4484533483030813"><ele>639.0000000000001</ele><time>2026-05-01T09:49:02.999Z</time></trkpt><trkpt lat="39.29528232359945" lon="-3.448404936836782"><ele>639.0</ele><time>2026-05-01T09:49:03.999Z</time></trkpt><trkpt lat="39.29535279136529" lon="-3.4483611289685285"><ele>639.0</ele><time>2026-05-01T09:49:04.999Z</time></trkpt><trkpt lat="39.295413020678154" lon="-3.448318247105033"><ele>639.0</ele><time>2026-05-01T09:49:05.999Z</time></trkpt><trkpt lat="39.295469528913976" lon="-3.448280564900948"><ele>639.0</ele><time>2026-05-01T09:49:06.999Z</time></trkpt><trkpt lat="39.29552862891886" lon="-3.4482356316281932"><ele>639.0000000000001</ele><time>2026-05-01T09:49:07.999Z</time></trkpt><trkpt lat="39.29559437421759" lon="-3.448171431875554"><ele>639.0</ele><time>2026-05-01T09:49:08.999Z</time></trkpt><trkpt lat="39.295662435709" lon="-3.44810474531988"><ele>639.3333333333334</ele><time>2026-05-01T09:49:09.999Z</time></trkpt><trkpt lat="39.29572701002517" lon="-3.4480403478842456"><ele>639.6666666666666</ele><time>2026-05-01T09:49:10.999Z</time></trkpt><trkpt lat="39.29578532705874" lon="-3.447978179561795"><ele>640.0</ele><time>2026-05-01T09:49:11.999Z</time></trkpt><trkpt lat="39.29583907236404" lon="-3.4479216187245236"><ele>640.3333333333333</ele><time>2026-05-01T09:49:12.999Z</time></trkpt><trkpt lat="39.295932939203205" lon="-3.447839485354876"><ele>640.6666666666666</ele><time>2026-05-01T09:49:14.999Z</time></trkpt><trkpt lat="39.29601806049684" lon="-3.4477634907593586"><ele>641.0</ele><time>2026-05-01T09:49:16.999Z</time></trkpt><trkpt lat="39.296074062987806" lon="-3.4477175105607065"><ele>641.1428571428571</ele><time>2026-05-01T09:49:17.999Z</time></trkpt><trkpt lat="39.29613106797744" lon="-3.4476665222420557"><ele>641.2857142857142</ele><time>2026-05-01T09:49:18.999Z</time></trkpt><trkpt lat="39.29618965609782" lon="-3.4476089799712084"><ele>641.4285714285713</ele><time>2026-05-01T09:49:19.999Z</time></trkpt><trkpt lat="39.296249243881505" lon="-3.4475584205179945"><ele>641.5714285714286</ele><time>2026-05-01T09:49:20.999Z</time></trkpt><trkpt lat="39.296313259845554" lon="-3.4475122808037866"><ele>641.7142857142857</ele><time>2026-05-01T09:49:21.999Z</time></trkpt><trkpt lat="39.29637653076531" lon="-3.4474686692705805"><ele>641.8571428571428</ele><time>2026-05-01T09:49:22.999Z</time></trkpt><trkpt lat="39.29643815052257" lon="-3.447427531908568"><ele>642.0</ele><time>2026-05-01T09:49:23.999Z</time></trkpt><trkpt lat="39.296503082470636" lon="-3.447382034810735"><ele>642.0</ele><time>2026-05-01T09:49:24.999Z</time></trkpt><trkpt lat="39.296571862382926" lon="-3.4473380326437493"><ele>642.0</ele><time>2026-05-01T09:49:25.999Z</time></trkpt><trkpt lat="39.296646395225515" lon="-3.447294535648249"><ele>642.0</ele><time>2026-05-01T09:49:26.999Z</time></trkpt><trkpt lat="39.296714514041525" lon="-3.4472476951549265"><ele>642.0</ele><time>2026-05-01T09:49:27.999Z</time></trkpt><trkpt lat="39.29677162842664" lon="-3.4472014865473475"><ele>642.0</ele><time>2026-05-01T09:49:28.999Z</time></trkpt><trkpt lat="39.29682872999766" lon="-3.4471407523279156"><ele>642.0</ele><time>2026-05-01T09:49:29.999Z</time></trkpt><trkpt lat="39.29690855642711" lon="-3.4470426284602493"><ele>642.6666666666666</ele><time>2026-05-01T09:49:31.999Z</time></trkpt><trkpt lat="39.296973483016934" lon="-3.4469637674407347"><ele>643.3333333333334</ele><time>2026-05-01T09:49:33.999Z</time></trkpt><trkpt lat="39.29702822060686" lon="-3.446890408073198"><ele>644.0</ele><time>2026-05-01T09:49:36.999Z</time></trkpt><trkpt lat="39.29709758795046" lon="-3.4468266040246367"><ele>644.6666666666667</ele><time>2026-05-01T09:49:38.999Z</time></trkpt><trkpt lat="39.29716326033286" lon="-3.446748669626559"><ele>645.3333333333334</ele><time>2026-05-01T09:49:39.999Z</time></trkpt><trkpt lat="39.297234466667156" lon="-3.4466551180633496"><ele>646.0</ele><time>2026-05-01T09:49:40.999Z</time></trkpt><trkpt lat="39.297296781441524" lon="-3.4465773097498467"><ele>646.4</ele><time>2026-05-01T09:49:41.999Z</time></trkpt><trkpt lat="39.297361714735004" lon="-3.4464965165783585"><ele>646.8</ele><time>2026-05-01T09:49:42.999Z</time></trkpt><trkpt lat="39.29742923371807" lon="-3.4464052652923347"><ele>647.1999999999999</ele><time>2026-05-01T09:49:43.999Z</time></trkpt><trkpt lat="39.2974878719629" lon="-3.446321004705844"><ele>647.5999999999999</ele><time>2026-05-01T09:49:44.999Z</time></trkpt><trkpt lat="39.29755394254739" lon="-3.4462339608412242"><ele>648.0</ele><time>2026-05-01T09:49:45.999Z</time></trkpt><trkpt lat="39.29760863270046" lon="-3.446153976434595"><ele>648.8</ele><time>2026-05-01T09:49:46.999Z</time></trkpt><trkpt lat="39.29766256042272" lon="-3.4460662302806546"><ele>649.5999999999999</ele><time>2026-05-01T09:49:47.999Z</time></trkpt><trkpt lat="39.29771670027641" lon="-3.4459835288761904"><ele>650.4000000000001</ele><time>2026-05-01T09:49:48.999Z</time></trkpt><trkpt lat="39.29776743195102" lon="-3.445892961270929"><ele>651.2</ele><time>2026-05-01T09:49:49.999Z</time></trkpt><trkpt lat="39.297807868518525" lon="-3.4457821106369915"><ele>652.0</ele><time>2026-05-01T09:49:50.999Z</time></trkpt><trkpt lat="39.297861420548074" lon="-3.4456455684149323"><ele>652.0</ele><time>2026-05-01T09:49:51.999Z</time></trkpt><trkpt lat="39.29791508305266" lon="-3.4455294643316368"><ele>652.0</ele><time>2026-05-01T09:49:52.999Z</time></trkpt><trkpt lat="39.297968502895955" lon="-3.44539907007204"><ele>652.0</ele><time>2026-05-01T09:49:53.999Z</time></trkpt><trkpt lat="39.298010338321006" lon="-3.445308833938767"><ele>652.0</ele><time>2026-05-01T09:49:54.999Z</time></trkpt><trkpt lat="39.29805658385976" lon="-3.445235616521098"><ele>652.0</ele><time>2026-05-01T09:49:55.999Z</time></trkpt><trkpt lat="39.298132863755114" lon="-3.445163763933676"><ele>652.5</ele><time>2026-05-01T09:49:56.999Z</time></trkpt><trkpt lat="39.298236356847305" lon="-3.445073304686267"><ele>653.0</ele><time>2026-05-01T09:49:57.999Z</time></trkpt><trkpt lat="39.2983393187165" lon="-3.4449638917578884"><ele>653.5</ele><time>2026-05-01T09:49:58.999Z</time></trkpt><trkpt lat="39.29842447771608" lon="-3.4448469742144323"><ele>654.0</ele><time>2026-05-01T09:49:59.999Z</time></trkpt><trkpt lat="39.29850823106295" lon="-3.4447285230286186"><ele>654.25</ele><time>2026-05-01T09:50:00.999Z</time></trkpt><trkpt lat="39.29859276760913" lon="-3.4446067200837267"><ele>654.5</ele><time>2026-05-01T09:50:01.999Z</time></trkpt><trkpt lat="39.298687547484704" lon="-3.4444651332921494"><ele>654.75</ele><time>2026-05-01T09:50:02.999Z</time></trkpt><trkpt lat="39.29878577903491" lon="-3.4443074858548806"><ele>655.0</ele><time>2026-05-01T09:50:03.999Z</time></trkpt><trkpt lat="39.29888404677366" lon="-3.4441299888258534"><ele>654.75</ele><time>2026-05-01T09:50:04.999Z</time></trkpt><trkpt lat="39.29898156476326" lon="-3.443951822447141"><ele>654.5</ele><time>2026-05-01T09:50:05.999Z</time></trkpt><trkpt lat="39.299057212185865" lon="-3.443830321819086"><ele>654.25</ele><time>2026-05-01T09:50:06.999Z</time></trkpt><trkpt lat="39.29911810369599" lon="-3.4437261027166395"><ele>654.0</ele><time>2026-05-01T09:50:07.999Z</time></trkpt><trkpt lat="39.29918094384248" lon="-3.4436324084761973"><ele>653.8000000000001</ele><time>2026-05-01T09:50:08.999Z</time></trkpt><trkpt lat="39.29925094656218" lon="-3.443561711380561"><ele>653.6</ele><time>2026-05-01T09:50:09.999Z</time></trkpt><trkpt lat="39.29933489274119" lon="-3.4434761201717974"><ele>653.4</ele><time>2026-05-01T09:50:11Z</time></trkpt><trkpt lat="39.29939851070785" lon="-3.443394112275559"><ele>653.2</ele><time>2026-05-01T09:50:12Z</time></trkpt><trkpt lat="39.29944081284444" lon="-3.4433131467547877"><ele>653.0</ele><time>2026-05-01T09:50:13Z</time></trkpt><trkpt lat="39.29949538956219" lon="-3.4432113735869163"><ele>653.0</ele><time>2026-05-01T09:50:14Z</time></trkpt><trkpt lat="39.29956007924602" lon="-3.443106113325367"><ele>653.0</ele><time>2026-05-01T09:50:15Z</time></trkpt><trkpt lat="39.29961341814041" lon="-3.443020489541326"><ele>653.0</ele><time>2026-05-01T09:50:16Z</time></trkpt><trkpt lat="39.299666492240696" lon="-3.4429332282862295"><ele>653.0</ele><time>2026-05-01T09:50:17Z</time></trkpt><trkpt lat="39.29972906091231" lon="-3.4428446041984953"><ele>653.0</ele><time>2026-05-01T09:50:18Z</time></trkpt><trkpt lat="39.29979975926192" lon="-3.442745614210414"><ele>653.6666666666666</ele><time>2026-05-01T09:50:19Z</time></trkpt><trkpt lat="39.29986756872474" lon="-3.442655061767576"><ele>654.3333333333333</ele><time>2026-05-01T09:50:20Z</time></trkpt><trkpt lat="39.299910456837914" lon="-3.4425881862716805"><ele>655.0</ele><time>2026-05-01T09:50:21Z</time></trkpt><trkpt lat="39.299954054792124" lon="-3.44251446016454"><ele>655.6666666666666</ele><time>2026-05-01T09:50:22Z</time></trkpt><trkpt lat="39.30000030958289" lon="-3.4424429607460634"><ele>656.3333333333334</ele><time>2026-05-01T09:50:23Z</time></trkpt><trkpt lat="39.300057970462994" lon="-3.4423565598051638"><ele>657.0</ele><time>2026-05-01T09:50:24Z</time></trkpt><trkpt lat="39.30012640999418" lon="-3.4422544085904514"><ele>657.0</ele><time>2026-05-01T09:50:25Z</time></trkpt><trkpt lat="39.300190592516216" lon="-3.442168076668395"><ele>657.0</ele><time>2026-05-01T09:50:26Z</time></trkpt><trkpt lat="39.30025852175362" lon="-3.4420680567738198"><ele>657.0</ele><time>2026-05-01T09:50:27Z</time></trkpt><trkpt lat="39.30033180196445" lon="-3.4419586809151634"><ele>657.0</ele><time>2026-05-01T09:50:28Z</time></trkpt><trkpt lat="39.30042459907945" lon="-3.441816723939813"><ele>657.0</ele><time>2026-05-01T09:50:29Z</time></trkpt><trkpt lat="39.30052474462919" lon="-3.4416756858744377"><ele>657.0</ele><time>2026-05-01T09:50:30Z</time></trkpt><trkpt lat="39.30059962095272" lon="-3.4415586110304224"><ele>657.0</ele><time>2026-05-01T09:50:31Z</time></trkpt><trkpt lat="39.300661708800824" lon="-3.4414561974387357"><ele>657.0</ele><time>2026-05-01T09:50:32Z</time></trkpt><trkpt lat="39.30070359173411" lon="-3.4413675752140143"><ele>657.0</ele><time>2026-05-01T09:50:33Z</time></trkpt><trkpt lat="39.300750380861025" lon="-3.4412610665369807"><ele>657.25</ele><time>2026-05-01T09:50:34Z</time></trkpt><trkpt lat="39.30080178819053" lon="-3.4411564838701745"><ele>657.5</ele><time>2026-05-01T09:50:35Z</time></trkpt><trkpt lat="39.300859031100416" lon="-3.4410510088427935"><ele>657.75</ele><time>2026-05-01T09:50:36Z</time></trkpt><trkpt lat="39.300922101975544" lon="-3.4409272243530657"><ele>658.0</ele><time>2026-05-01T09:50:37Z</time></trkpt><trkpt lat="39.30099133853478" lon="-3.4407446456507027"><ele>658.0</ele><time>2026-05-01T09:50:38Z</time></trkpt><trkpt lat="39.30105334818368" lon="-3.4405474739140325"><ele>658.0</ele><time>2026-05-01T09:50:39Z</time></trkpt><trkpt lat="39.301099893647724" lon="-3.44036268800571"><ele>658.0</ele><time>2026-05-01T09:50:40Z</time></trkpt><trkpt lat="39.30113752954436" lon="-3.4401862949662143"><ele>658.0</ele><time>2026-05-01T09:50:41Z</time></trkpt><trkpt lat="39.301179289577014" lon="-3.4400269365213365"><ele>658.0</ele><time>2026-05-01T09:50:42Z</time></trkpt><trkpt lat="39.30122816177974" lon="-3.43987599421052"><ele>658.0</ele><time>2026-05-01T09:50:43Z</time></trkpt><trkpt lat="39.30128762663095" lon="-3.4397317065738293"><ele>658.0</ele><time>2026-05-01T09:50:44Z</time></trkpt><trkpt lat="39.30136484087693" lon="-3.439538752563257"><ele>658.6666666666667</ele><time>2026-05-01T09:50:45Z</time></trkpt><trkpt lat="39.30144724019038" lon="-3.4393275179544442"><ele>659.3333333333334</ele><time>2026-05-01T09:50:46Z</time></trkpt><trkpt lat="39.30151987740132" lon="-3.439152107438324"><ele>660.0</ele><time>2026-05-01T09:50:47Z</time></trkpt><trkpt lat="39.30159936192974" lon="-3.4389703952913138"><ele>659.6666666666666</ele><time>2026-05-01T09:50:48Z</time></trkpt><trkpt lat="39.30168259778931" lon="-3.4387727546754547"><ele>659.3333333333333</ele><time>2026-05-01T09:50:49Z</time></trkpt><trkpt lat="39.301753631678736" lon="-3.4385488862557354"><ele>659.0</ele><time>2026-05-01T09:50:50Z</time></trkpt><trkpt lat="39.301832093514605" lon="-3.4383087105369436"><ele>659.0</ele><time>2026-05-01T09:50:51Z</time></trkpt><trkpt lat="39.3019050094633" lon="-3.4381166707185655"><ele>659.0</ele><time>2026-05-01T09:50:52Z</time></trkpt><trkpt lat="39.30198126152354" lon="-3.437936299509097"><ele>659.0</ele><time>2026-05-01T09:50:53Z</time></trkpt><trkpt lat="39.30208907397787" lon="-3.437699353903427"><ele>659.6666666666666</ele><time>2026-05-01T09:50:54Z</time></trkpt><trkpt lat="39.30217168388052" lon="-3.4374866548715084"><ele>660.3333333333334</ele><time>2026-05-01T09:50:55Z</time></trkpt><trkpt lat="39.30226001359058" lon="-3.4372682320109393"><ele>661.0</ele><time>2026-05-01T09:50:56Z</time></trkpt><trkpt lat="39.30232264914427" lon="-3.4370922362948577"><ele>661.5</ele><time>2026-05-01T09:50:57Z</time></trkpt><trkpt lat="39.30239160567103" lon="-3.436944861402577"><ele>662.0</ele><time>2026-05-01T09:50:58Z</time></trkpt><trkpt lat="39.30247391115958" lon="-3.43680598536118"><ele>662.5</ele><time>2026-05-01T09:50:59Z</time></trkpt><trkpt lat="39.302553524723265" lon="-3.4366626119221"><ele>663.0</ele><time>2026-05-01T09:51:00Z</time></trkpt><trkpt lat="39.30262452248337" lon="-3.4365542837610836"><ele>663.0</ele><time>2026-05-01T09:51:01Z</time></trkpt><trkpt lat="39.30270438593457" lon="-3.4363968357185155"><ele>663.0</ele><time>2026-05-01T09:51:02Z</time></trkpt><trkpt lat="39.30280026148475" lon="-3.436234655209456"><ele>663.0</ele><time>2026-05-01T09:51:03Z</time></trkpt><trkpt lat="39.30290902267468" lon="-3.43605596985731"><ele>663.0</ele><time>2026-05-01T09:51:04Z</time></trkpt><trkpt lat="39.303023483460635" lon="-3.435868276794147"><ele>663.0</ele><time>2026-05-01T09:51:05Z</time></trkpt><trkpt lat="39.30312294982753" lon="-3.435700154753653"><ele>663.0</ele><time>2026-05-01T09:51:06Z</time></trkpt><trkpt lat="39.30320883219694" lon="-3.4355325658157723"><ele>664.0</ele><time>2026-05-01T09:51:07Z</time></trkpt><trkpt lat="39.303277135025866" lon="-3.4354055908008028"><ele>665.0</ele><time>2026-05-01T09:51:08Z</time></trkpt><trkpt lat="39.303337810355586" lon="-3.4353131646613386"><ele>666.0</ele><time>2026-05-01T09:51:09Z</time></trkpt><trkpt lat="39.30339740408438" lon="-3.4352413315405466"><ele>667.0</ele><time>2026-05-01T09:51:10Z</time></trkpt><trkpt lat="39.30344352104438" lon="-3.4351725171200425"><ele>668.0</ele><time>2026-05-01T09:51:11Z</time></trkpt><trkpt lat="39.30350900626323" lon="-3.435093763967449"><ele>668.0</ele><time>2026-05-01T09:51:12Z</time></trkpt><trkpt lat="39.30356166501039" lon="-3.4350399638271387"><ele>668.0</ele><time>2026-05-01T09:51:13Z</time></trkpt><trkpt lat="39.3036333097878" lon="-3.4349433596945165"><ele>668.0</ele><time>2026-05-01T09:51:15Z</time></trkpt><trkpt lat="39.303688135280844" lon="-3.43488762286696"><ele>668.0</ele><time>2026-05-01T09:51:18Z</time></trkpt><trkpt lat="39.303602527734846" lon="-3.434974653263686"><ele>668.0</ele><time>2026-05-01T09:51:24Z</time></trkpt><trkpt lat="39.30354027622296" lon="-3.4350550744877064"><ele>668.0</ele><time>2026-05-01T09:51:25Z</time></trkpt><trkpt lat="39.30345385258413" lon="-3.4351426261888696"><ele>668.0</ele><time>2026-05-01T09:51:26Z</time></trkpt><trkpt lat="39.30336649953669" lon="-3.435228007052663"><ele>668.0</ele><time>2026-05-01T09:51:27Z</time></trkpt><trkpt lat="39.30330552400472" lon="-3.4352814174922233"><ele>668.0</ele><time>2026-05-01T09:51:28Z</time></trkpt><trkpt lat="39.30323489269296" lon="-3.4353244662891447"><ele>668.0</ele><time>2026-05-01T09:51:30Z</time></trkpt><trkpt lat="39.30312845613265" lon="-3.4353769754048504"><ele>668.0</ele><time>2026-05-01T09:51:32Z</time></trkpt><trkpt lat="39.30303531837954" lon="-3.435409201615889"><ele>666.75</ele><time>2026-05-01T09:51:33Z</time></trkpt><trkpt lat="39.302930826030114" lon="-3.435418712285708"><ele>665.5</ele><time>2026-05-01T09:51:34Z</time></trkpt><trkpt lat="39.302775930854466" lon="-3.4354420341450185"><ele>664.25</ele><time>2026-05-01T09:51:35Z</time></trkpt><trkpt lat="39.302633812097156" lon="-3.4354411990281455"><ele>663.0</ele><time>2026-05-01T09:51:36Z</time></trkpt><trkpt lat="39.30251278000671" lon="-3.4354297439770654"><ele>663.0</ele><time>2026-05-01T09:51:37Z</time></trkpt><trkpt lat="39.302407768359764" lon="-3.43547178563227"><ele>663.0</ele><time>2026-05-01T09:51:38Z</time></trkpt><trkpt lat="39.302314275168506" lon="-3.435521784918627"><ele>663.0</ele><time>2026-05-01T09:51:39Z</time></trkpt><trkpt lat="39.302233336772126" lon="-3.4355599098870284"><ele>663.0</ele><time>2026-05-01T09:51:40Z</time></trkpt><trkpt lat="39.302166492651" lon="-3.4355818933055526"><ele>663.0</ele><time>2026-05-01T09:51:41Z</time></trkpt><trkpt lat="39.30209724663319" lon="-3.435588954192944"><ele>663.0</ele><time>2026-05-01T09:51:42Z</time></trkpt><trkpt lat="39.30197795588002" lon="-3.4355278046431037"><ele>662.5999999999999</ele><time>2026-05-01T09:51:44Z</time></trkpt><trkpt lat="39.3019165401762" lon="-3.4354530910603147"><ele>662.1999999999999</ele><time>2026-05-01T09:51:45Z</time></trkpt><trkpt lat="39.3018596148611" lon="-3.435357876797507"><ele>661.8</ele><time>2026-05-01T09:51:46Z</time></trkpt><trkpt lat="39.30179867180895" lon="-3.4352486028312788"><ele>661.4</ele><time>2026-05-01T09:51:47Z</time></trkpt><trkpt lat="39.301734669145745" lon="-3.4351607957581285"><ele>661.0</ele><time>2026-05-01T09:51:48Z</time></trkpt><trkpt lat="39.301665304330854" lon="-3.4350868660159732"><ele>661.0</ele><time>2026-05-01T09:51:49Z</time></trkpt><trkpt lat="39.30159172726977" lon="-3.435043353274952"><ele>661.0</ele><time>2026-05-01T09:51:50Z</time></trkpt><trkpt lat="39.3015200163364" lon="-3.435025937463033"><ele>661.0</ele><time>2026-05-01T09:51:51Z</time></trkpt><trkpt lat="39.301433155327196" lon="-3.4350079445324533"><ele>661.0</ele><time>2026-05-01T09:51:52Z</time></trkpt><trkpt lat="39.30130591572891" lon="-3.4350344941461834"><ele>661.0</ele><time>2026-05-01T09:51:53Z</time></trkpt><trkpt lat="39.30118822538089" lon="-3.4350040763501686"><ele>660.4</ele><time>2026-05-01T09:51:54Z</time></trkpt><trkpt lat="39.30107678714771" lon="-3.434974873565275"><ele>659.8</ele><time>2026-05-01T09:51:55Z</time></trkpt><trkpt lat="39.300967916418415" lon="-3.4349427033731117"><ele>659.1999999999999</ele><time>2026-05-01T09:51:56Z</time></trkpt><trkpt lat="39.30086226164671" lon="-3.4349114834635377"><ele>658.5999999999999</ele><time>2026-05-01T09:51:57Z</time></trkpt><trkpt lat="39.300758200235826" lon="-3.434880734373154"><ele>658.0</ele><time>2026-05-01T09:51:58Z</time></trkpt><trkpt lat="39.300639869214905" lon="-3.434848624604089"><ele>657.3333333333334</ele><time>2026-05-01T09:51:59Z</time></trkpt><trkpt lat="39.30047619568982" lon="-3.4348048905370128"><ele>656.6666666666666</ele><time>2026-05-01T09:52:00Z</time></trkpt><trkpt lat="39.3002682541886" lon="-3.434762076084337"><ele>656.0</ele><time>2026-05-01T09:52:00.999Z</time></trkpt><trkpt lat="39.300068003476085" lon="-3.4347360042347166"><ele>656.0</ele><time>2026-05-01T09:52:01.999Z</time></trkpt><trkpt lat="39.29986498009838" lon="-3.4347084650100785"><ele>656.0</ele><time>2026-05-01T09:52:02.999Z</time></trkpt><trkpt lat="39.299671903522885" lon="-3.434659018077878"><ele>656.0</ele><time>2026-05-01T09:52:03.999Z</time></trkpt><trkpt lat="39.299505594659095" lon="-3.434608020745268"><ele>655.3333333333333</ele><time>2026-05-01T09:52:04.999Z</time></trkpt><trkpt lat="39.2993378072567" lon="-3.4345535625055286"><ele>654.6666666666666</ele><time>2026-05-01T09:52:05.999Z</time></trkpt><trkpt lat="39.299180048892836" lon="-3.434515665781099"><ele>654.0</ele><time>2026-05-01T09:52:06.999Z</time></trkpt><trkpt lat="39.29903418881218" lon="-3.434492645320012"><ele>653.75</ele><time>2026-05-01T09:52:07.999Z</time></trkpt><trkpt lat="39.29891141607509" lon="-3.4344745534656163"><ele>653.5</ele><time>2026-05-01T09:52:08.999Z</time></trkpt><trkpt lat="39.29878222886453" lon="-3.434457888149002"><ele>653.25</ele><time>2026-05-01T09:52:10Z</time></trkpt><trkpt lat="39.29866593586496" lon="-3.434425476936373"><ele>653.0</ele><time>2026-05-01T09:52:11Z</time></trkpt><trkpt lat="39.29858663101122" lon="-3.43436350296165"><ele>653.0</ele><time>2026-05-01T09:52:12Z</time></trkpt><trkpt lat="39.298511956535854" lon="-3.4342958509545753"><ele>653.0</ele><time>2026-05-01T09:52:13Z</time></trkpt><trkpt lat="39.298437655617086" lon="-3.4341855500121166"><ele>653.0</ele><time>2026-05-01T09:52:14Z</time></trkpt><trkpt lat="39.29838234346781" lon="-3.4340647435468186"><ele>653.0</ele><time>2026-05-01T09:52:15Z</time></trkpt><trkpt lat="39.29834937277783" lon="-3.433935721736695"><ele>653.0</ele><time>2026-05-01T09:52:16Z</time></trkpt><trkpt lat="39.29831160820343" lon="-3.433760837426945"><ele>653.0</ele><time>2026-05-01T09:52:17Z</time></trkpt><trkpt lat="39.29825183750917" lon="-3.4336257750271937"><ele>653.0</ele><time>2026-05-01T09:52:18Z</time></trkpt><trkpt lat="39.298202202252526" lon="-3.433493930691511"><ele>653.0</ele><time>2026-05-01T09:52:19Z</time></trkpt><trkpt lat="39.29813916820005" lon="-3.4333872360799798"><ele>653.0</ele><time>2026-05-01T09:52:20Z</time></trkpt><trkpt lat="39.298086849166054" lon="-3.433271115435049"><ele>653.0</ele><time>2026-05-01T09:52:21Z</time></trkpt><trkpt lat="39.29804564270487" lon="-3.43314453746437"><ele>653.0</ele><time>2026-05-01T09:52:22Z</time></trkpt><trkpt lat="39.298004078941744" lon="-3.4330355717806604"><ele>653.0</ele><time>2026-05-01T09:52:23Z</time></trkpt><trkpt lat="39.29796751449401" lon="-3.4329374530267414"><ele>653.0</ele><time>2026-05-01T09:52:24Z</time></trkpt><trkpt lat="39.2979158625672" lon="-3.4328631259222817"><ele>653.0</ele><time>2026-05-01T09:52:25Z</time></trkpt><trkpt lat="39.297880407085046" lon="-3.4327610830652615"><ele>653.0</ele><time>2026-05-01T09:52:26Z</time></trkpt><trkpt lat="39.29782145464896" lon="-3.4326657849335236"><ele>653.0</ele><time>2026-05-01T09:52:27Z</time></trkpt><trkpt lat="39.29773192730072" lon="-3.432563267382139"><ele>653.0</ele><time>2026-05-01T09:52:28Z</time></trkpt><trkpt lat="39.29762080535173" lon="-3.4324409820133703"><ele>653.0</ele><time>2026-05-01T09:52:29Z</time></trkpt><trkpt lat="39.29749258526223" lon="-3.432303721359591"><ele>653.0</ele><time>2026-05-01T09:52:30Z</time></trkpt><trkpt lat="39.297345375995995" lon="-3.432113032222582"><ele>653.3333333333333</ele><time>2026-05-01T09:52:31Z</time></trkpt><trkpt lat="39.29722398976996" lon="-3.43189456543174"><ele>653.6666666666666</ele><time>2026-05-01T09:52:32Z</time></trkpt><trkpt lat="39.29712172291133" lon="-3.4316633215724304"><ele>654.0</ele><time>2026-05-01T09:52:33Z</time></trkpt><trkpt lat="39.29700971964344" lon="-3.431474997017615"><ele>654.0</ele><time>2026-05-01T09:52:34Z</time></trkpt><trkpt lat="39.29691663024166" lon="-3.431309258150074"><ele>654.0</ele><time>2026-05-01T09:52:35Z</time></trkpt><trkpt lat="39.29682840785377" lon="-3.4311595458465614"><ele>654.0</ele><time>2026-05-01T09:52:36Z</time></trkpt><trkpt lat="39.2967454519194" lon="-3.4310258202602415"><ele>654.0</ele><time>2026-05-01T09:52:37Z</time></trkpt><trkpt lat="39.29666496816718" lon="-3.4309020890144954"><ele>654.0</ele><time>2026-05-01T09:52:38Z</time></trkpt><trkpt lat="39.296584774964266" lon="-3.43078039913329"><ele>654.0</ele><time>2026-05-01T09:52:39Z</time></trkpt><trkpt lat="39.2965002606758" lon="-3.430647139737188"><ele>654.0</ele><time>2026-05-01T09:52:40Z</time></trkpt><trkpt lat="39.296422068412575" lon="-3.43051244292246"><ele>654.0</ele><time>2026-05-01T09:52:41Z</time></trkpt><trkpt lat="39.29636897280651" lon="-3.4303770803530638"><ele>653.25</ele><time>2026-05-01T09:52:42Z</time></trkpt><trkpt lat="39.296328105494325" lon="-3.430210536560057"><ele>652.5</ele><time>2026-05-01T09:52:43Z</time></trkpt><trkpt lat="39.296286220491005" lon="-3.430042595217379"><ele>651.75</ele><time>2026-05-01T09:52:44Z</time></trkpt><trkpt lat="39.29622891078501" lon="-3.429871874284983"><ele>651.0</ele><time>2026-05-01T09:52:45Z</time></trkpt><trkpt lat="39.296153394057775" lon="-3.429695789227218"><ele>650.75</ele><time>2026-05-01T09:52:46Z</time></trkpt><trkpt lat="39.29606950132804" lon="-3.429532398921829"><ele>650.5</ele><time>2026-05-01T09:52:47Z</time></trkpt><trkpt lat="39.29598766623179" lon="-3.429386224257349"><ele>650.25</ele><time>2026-05-01T09:52:48Z</time></trkpt><trkpt lat="39.29590983159108" lon="-3.4292528474925126"><ele>650.0</ele><time>2026-05-01T09:52:49Z</time></trkpt><trkpt lat="39.295822510186376" lon="-3.4291091454485243"><ele>650.0</ele><time>2026-05-01T09:52:50Z</time></trkpt><trkpt lat="39.295733726376476" lon="-3.4289699467617343"><ele>650.0</ele><time>2026-05-01T09:52:51Z</time></trkpt><trkpt lat="39.29565600901973" lon="-3.428846693858389"><ele>650.0</ele><time>2026-05-01T09:52:52Z</time></trkpt><trkpt lat="39.295576441099776" lon="-3.42871529996431"><ele>650.0</ele><time>2026-05-01T09:52:53Z</time></trkpt><trkpt lat="39.295494952474925" lon="-3.4285534981028793"><ele>650.3333333333333</ele><time>2026-05-01T09:52:54Z</time></trkpt><trkpt lat="39.29542741031885" lon="-3.428389043061194"><ele>650.6666666666666</ele><time>2026-05-01T09:52:55Z</time></trkpt><trkpt lat="39.29536612369905" lon="-3.428173043362178"><ele>651.0</ele><time>2026-05-01T09:52:56Z</time></trkpt><trkpt lat="39.29532004015314" lon="-3.4279483359819016"><ele>650.5</ele><time>2026-05-01T09:52:57Z</time></trkpt><trkpt lat="39.29527291360509" lon="-3.4277632104863978"><ele>650.0</ele><time>2026-05-01T09:52:58Z</time></trkpt><trkpt lat="39.29521409594215" lon="-3.427621879928951"><ele>649.5</ele><time>2026-05-01T09:52:59Z</time></trkpt><trkpt lat="39.295144326420434" lon="-3.4274966833506735"><ele>649.0</ele><time>2026-05-01T09:53:00Z</time></trkpt><trkpt lat="39.295039271545015" lon="-3.427376135647008"><ele>649.0</ele><time>2026-05-01T09:53:01Z</time></trkpt><trkpt lat="39.29490551678904" lon="-3.427246566094453"><ele>649.0</ele><time>2026-05-01T09:53:02Z</time></trkpt><trkpt lat="39.29475747974734" lon="-3.427131577145733"><ele>649.0</ele><time>2026-05-01T09:53:03Z</time></trkpt><trkpt lat="39.2945872951154" lon="-3.4269838004470725"><ele>648.0</ele><time>2026-05-01T09:53:04Z</time></trkpt><trkpt lat="39.29444080471044" lon="-3.4268198287447573"><ele>647.0</ele><time>2026-05-01T09:53:05Z</time></trkpt><trkpt lat="39.294289703792714" lon="-3.4266451683392183"><ele>646.0</ele><time>2026-05-01T09:53:06Z</time></trkpt><trkpt lat="39.29413808506045" lon="-3.4264707484924175"><ele>646.0</ele><time>2026-05-01T09:53:07Z</time></trkpt><trkpt lat="39.29401452917492" lon="-3.4263380216760724"><ele>646.0</ele><time>2026-05-01T09:53:08Z</time></trkpt><trkpt lat="39.29390484263329" lon="-3.4262482262530547"><ele>646.0</ele><time>2026-05-01T09:53:09Z</time></trkpt><trkpt lat="39.293777391436805" lon="-3.426169028872864"><ele>646.0</ele><time>2026-05-01T09:53:10Z</time></trkpt><trkpt lat="39.293635836176534" lon="-3.426062643446917"><ele>645.6666666666667</ele><time>2026-05-01T09:53:11Z</time></trkpt><trkpt lat="39.29352204425714" lon="-3.4259390349507592"><ele>645.3333333333334</ele><time>2026-05-01T09:53:12Z</time></trkpt><trkpt lat="39.29341173450674" lon="-3.4257927922390743"><ele>645.0</ele><time>2026-05-01T09:53:13Z</time></trkpt><trkpt lat="39.29330182550829" lon="-3.425613824157672"><ele>644.6666666666666</ele><time>2026-05-01T09:53:14Z</time></trkpt><trkpt lat="39.2931378107552" lon="-3.425442175273216"><ele>644.3333333333333</ele><time>2026-05-01T09:53:15Z</time></trkpt><trkpt lat="39.29300478059794" lon="-3.4252710882914794"><ele>644.0</ele><time>2026-05-01T09:53:16Z</time></trkpt><trkpt lat="39.29292841113265" lon="-3.425088001057513"><ele>642.6666666666666</ele><time>2026-05-01T09:53:17Z</time></trkpt><trkpt lat="39.29284546064913" lon="-3.42491687841682"><ele>641.3333333333334</ele><time>2026-05-01T09:53:18Z</time></trkpt><trkpt lat="39.29273899259523" lon="-3.4247424709228538"><ele>640.0</ele><time>2026-05-01T09:53:19Z</time></trkpt><trkpt lat="39.292643286819725" lon="-3.424572979782617"><ele>640.0</ele><time>2026-05-01T09:53:20Z</time></trkpt><trkpt lat="39.292560548337086" lon="-3.424453989223139"><ele>640.0</ele><time>2026-05-01T09:53:21Z</time></trkpt><trkpt lat="39.29248453141636" lon="-3.4243561774501785"><ele>640.0</ele><time>2026-05-01T09:53:22Z</time></trkpt><trkpt lat="39.292416583493754" lon="-3.424268748145565"><ele>640.0</ele><time>2026-05-01T09:53:23Z</time></trkpt><trkpt lat="39.29235306973246" lon="-3.424187024320503"><ele>640.0</ele><time>2026-05-01T09:53:24Z</time></trkpt><trkpt lat="39.29229259986891" lon="-3.424104753217274"><ele>639.8333333333334</ele><time>2026-05-01T09:53:25Z</time></trkpt><trkpt lat="39.29223730552901" lon="-3.4240201096404936"><ele>639.6666666666667</ele><time>2026-05-01T09:53:26Z</time></trkpt><trkpt lat="39.29219209687294" lon="-3.423945298410111"><ele>639.5</ele><time>2026-05-01T09:53:27Z</time></trkpt><trkpt lat="39.29214784223732" lon="-3.423863057837519"><ele>639.3333333333334</ele><time>2026-05-01T09:53:28Z</time></trkpt><trkpt lat="39.29211282059216" lon="-3.4237930453577508"><ele>639.1666666666666</ele><time>2026-05-01T09:53:29Z</time></trkpt><trkpt lat="39.29207337328197" lon="-3.4237093521008988"><ele>639.0</ele><time>2026-05-01T09:53:30Z</time></trkpt><trkpt lat="39.29203350589255" lon="-3.423620854477302"><ele>639.0</ele><time>2026-05-01T09:53:31Z</time></trkpt><trkpt lat="39.29200600432242" lon="-3.4235139793410796"><ele>639.0</ele><time>2026-05-01T09:53:32Z</time></trkpt><trkpt lat="39.29199060524529" lon="-3.423407505696632"><ele>639.0</ele><time>2026-05-01T09:53:33Z</time></trkpt><trkpt lat="39.29198872579996" lon="-3.4233035296810015"><ele>639.0</ele><time>2026-05-01T09:53:34Z</time></trkpt><trkpt lat="39.29199631584922" lon="-3.423196724304879"><ele>639.0</ele><time>2026-05-01T09:53:35Z</time></trkpt><trkpt lat="39.29200700863346" lon="-3.4230991004992726"><ele>639.0</ele><time>2026-05-01T09:53:36Z</time></trkpt><trkpt lat="39.29202190189477" lon="-3.4229942066494106"><ele>639.5714285714287</ele><time>2026-05-01T09:53:37Z</time></trkpt><trkpt lat="39.29204049753038" lon="-3.42289768643298"><ele>640.1428571428571</ele><time>2026-05-01T09:53:38Z</time></trkpt><trkpt lat="39.29206045075406" lon="-3.4228071262940416"><ele>640.7142857142858</ele><time>2026-05-01T09:53:39Z</time></trkpt><trkpt lat="39.29208127094109" lon="-3.4227103137882047"><ele>641.2857142857143</ele><time>2026-05-01T09:53:40Z</time></trkpt><trkpt lat="39.29211368431115" lon="-3.4226274683579643"><ele>641.8571428571429</ele><time>2026-05-01T09:53:41Z</time></trkpt><trkpt lat="39.292124717826525" lon="-3.4225363559324715"><ele>642.4285714285714</ele><time>2026-05-01T09:53:42Z</time></trkpt><trkpt lat="39.29214103305104" lon="-3.4224440320024416"><ele>643.0</ele><time>2026-05-01T09:53:43Z</time></trkpt><trkpt lat="39.29215963417787" lon="-3.4223447265370415"><ele>643.0</ele><time>2026-05-01T09:53:44Z</time></trkpt><trkpt lat="39.292176709176864" lon="-3.4222388296427737"><ele>643.0</ele><time>2026-05-01T09:53:45Z</time></trkpt><trkpt lat="39.29218911091812" lon="-3.4221293694959978"><ele>643.0</ele><time>2026-05-01T09:53:46Z</time></trkpt><trkpt lat="39.29220559291796" lon="-3.4220315143274296"><ele>643.0</ele><time>2026-05-01T09:53:47Z</time></trkpt><trkpt lat="39.29222036022944" lon="-3.421924371712621"><ele>643.0</ele><time>2026-05-01T09:53:48Z</time></trkpt><trkpt lat="39.292229485161954" lon="-3.4218328767739385"><ele>643.0</ele><time>2026-05-01T09:53:49Z</time></trkpt><trkpt lat="39.29223188159044" lon="-3.42174506057261"><ele>643.2</ele><time>2026-05-01T09:53:50Z</time></trkpt><trkpt lat="39.29223594406445" lon="-3.4216534747998146"><ele>643.4</ele><time>2026-05-01T09:53:51Z</time></trkpt><trkpt lat="39.29221910400069" lon="-3.4215548083206357"><ele>643.6</ele><time>2026-05-01T09:53:52Z</time></trkpt><trkpt lat="39.292212045502055" lon="-3.4214322608130217"><ele>643.8000000000001</ele><time>2026-05-01T09:53:53Z</time></trkpt><trkpt lat="39.29231384577519" lon="-3.421281364278948"><ele>644.0</ele><time>2026-05-01T09:53:54Z</time></trkpt><trkpt lat="39.29235986159351" lon="-3.4211233759611774"><ele>644.5</ele><time>2026-05-01T09:53:55Z</time></trkpt><trkpt lat="39.29241871985009" lon="-3.4209506045712215"><ele>645.0</ele><time>2026-05-01T09:53:56Z</time></trkpt><trkpt lat="39.2924886854042" lon="-3.4208021491673426"><ele>645.5</ele><time>2026-05-01T09:53:57Z</time></trkpt><trkpt lat="39.29254195507586" lon="-3.4206673591316763"><ele>646.0</ele><time>2026-05-01T09:53:58Z</time></trkpt><trkpt lat="39.29260346142243" lon="-3.420566533814281"><ele>645.0</ele><time>2026-05-01T09:53:59Z</time></trkpt><trkpt lat="39.292601238535745" lon="-3.4203937959361115"><ele>644.0</ele><time>2026-05-01T09:54:00Z</time></trkpt><trkpt lat="39.292616829824254" lon="-3.420211615452373"><ele>643.0</ele><time>2026-05-01T09:54:01Z</time></trkpt><trkpt lat="39.29263043576886" lon="-3.4199804142579397"><ele>643.0</ele><time>2026-05-01T09:54:02Z</time></trkpt><trkpt lat="39.29263874420505" lon="-3.4197351306541517"><ele>643.0</ele><time>2026-05-01T09:54:03Z</time></trkpt><trkpt lat="39.29264496688527" lon="-3.419509118290798"><ele>643.0</ele><time>2026-05-01T09:54:04Z</time></trkpt><trkpt lat="39.292645205274866" lon="-3.4192929732985835"><ele>642.6666666666667</ele><time>2026-05-01T09:54:05Z</time></trkpt><trkpt lat="39.29265282894161" lon="-3.419104361717587"><ele>642.3333333333334</ele><time>2026-05-01T09:54:06Z</time></trkpt><trkpt lat="39.29267706833572" lon="-3.4189160730436305"><ele>642.0</ele><time>2026-05-01T09:54:07Z</time></trkpt><trkpt lat="39.29271015415638" lon="-3.418716529471955"><ele>642.0</ele><time>2026-05-01T09:54:08Z</time></trkpt><trkpt lat="39.292749977976044" lon="-3.4185257670553986"><ele>642.0</ele><time>2026-05-01T09:54:09Z</time></trkpt><trkpt lat="39.292790735491394" lon="-3.4183776888354807"><ele>642.0</ele><time>2026-05-01T09:54:10Z</time></trkpt><trkpt lat="39.292821565554604" lon="-3.4182258987441676"><ele>642.0</ele><time>2026-05-01T09:54:11Z</time></trkpt><trkpt lat="39.2928465417007" lon="-3.418058113343588"><ele>642.25</ele><time>2026-05-01T09:54:12Z</time></trkpt><trkpt lat="39.29287871029868" lon="-3.4178984806333483"><ele>642.5</ele><time>2026-05-01T09:54:13Z</time></trkpt><trkpt lat="39.29290799402691" lon="-3.417757395032599"><ele>642.75</ele><time>2026-05-01T09:54:14Z</time></trkpt><trkpt lat="39.29294895601769" lon="-3.4176184994281873"><ele>643.0</ele><time>2026-05-01T09:54:15Z</time></trkpt><trkpt lat="39.29300228923014" lon="-3.417469378557671"><ele>643.0</ele><time>2026-05-01T09:54:16Z</time></trkpt><trkpt lat="39.293052935133694" lon="-3.417306215776935"><ele>643.0</ele><time>2026-05-01T09:54:17Z</time></trkpt><trkpt lat="39.29309239700806" lon="-3.41714936858781"><ele>643.0</ele><time>2026-05-01T09:54:18Z</time></trkpt><trkpt lat="39.29314268723179" lon="-3.4169862058286955"><ele>643.0</ele><time>2026-05-01T09:54:19Z</time></trkpt><trkpt lat="39.293194491491256" lon="-3.4168315975343777"><ele>643.6666666666667</ele><time>2026-05-01T09:54:20Z</time></trkpt><trkpt lat="39.29325427238576" lon="-3.4166422065568143"><ele>644.3333333333334</ele><time>2026-05-01T09:54:21Z</time></trkpt><trkpt lat="39.29330218712977" lon="-3.416470091192585"><ele>645.0</ele><time>2026-05-01T09:54:22Z</time></trkpt><trkpt lat="39.29335337838169" lon="-3.4162716592135234"><ele>645.0</ele><time>2026-05-01T09:54:23Z</time></trkpt><trkpt lat="39.29340917028239" lon="-3.4160836211190193"><ele>645.0</ele><time>2026-05-01T09:54:24Z</time></trkpt><trkpt lat="39.29346660858148" lon="-3.4159167173007225"><ele>645.0</ele><time>2026-05-01T09:54:25Z</time></trkpt><trkpt lat="39.293523424487226" lon="-3.415738636000549"><ele>645.0</ele><time>2026-05-01T09:54:26Z</time></trkpt><trkpt lat="39.29356778002219" lon="-3.4155513780843787"><ele>644.0</ele><time>2026-05-01T09:54:27Z</time></trkpt><trkpt lat="39.29359700191008" lon="-3.415353932460114"><ele>643.0</ele><time>2026-05-01T09:54:28Z</time></trkpt><trkpt lat="39.2936539519888" lon="-3.4150923680999683"><ele>642.0</ele><time>2026-05-01T09:54:29Z</time></trkpt><trkpt lat="39.29372951815429" lon="-3.414820381613237"><ele>642.6666666666666</ele><time>2026-05-01T09:54:30Z</time></trkpt><trkpt lat="39.29378731685268" lon="-3.414576334943527"><ele>643.3333333333333</ele><time>2026-05-01T09:54:31Z</time></trkpt><trkpt lat="39.29383621519007" lon="-3.4143723510742023"><ele>644.0</ele><time>2026-05-01T09:54:32Z</time></trkpt><trkpt lat="39.29387463074671" lon="-3.414218430956211"><ele>644.5</ele><time>2026-05-01T09:54:33Z</time></trkpt><trkpt lat="39.29393334144114" lon="-3.414034256266517"><ele>645.0</ele><time>2026-05-01T09:54:34Z</time></trkpt><trkpt lat="39.29399623837866" lon="-3.4138537046205166"><ele>645.5</ele><time>2026-05-01T09:54:35Z</time></trkpt><trkpt lat="39.294021887035846" lon="-3.413718709607595"><ele>646.0</ele><time>2026-05-01T09:54:36Z</time></trkpt><trkpt lat="39.2940342691174" lon="-3.4135549407283627"><ele>646.0</ele><time>2026-05-01T09:54:37Z</time></trkpt><trkpt lat="39.294038640855355" lon="-3.4133779121426793"><ele>646.0</ele><time>2026-05-01T09:54:38Z</time></trkpt><trkpt lat="39.2940471399741" lon="-3.413208670414012"><ele>646.0</ele><time>2026-05-01T09:54:39Z</time></trkpt><trkpt lat="39.294055862716135" lon="-3.4130903444757634"><ele>646.0</ele><time>2026-05-01T09:54:40Z</time></trkpt><trkpt lat="39.29407806023098" lon="-3.412982017740046"><ele>646.0</ele><time>2026-05-01T09:54:41Z</time></trkpt><trkpt lat="39.294116701563155" lon="-3.4128723377732486"><ele>645.3333333333334</ele><time>2026-05-01T09:54:42Z</time></trkpt><trkpt lat="39.29418657559001" lon="-3.4126957975471557"><ele>644.6666666666666</ele><time>2026-05-01T09:54:43Z</time></trkpt><trkpt lat="39.29422941028055" lon="-3.4125270972876294"><ele>644.0</ele><time>2026-05-01T09:54:44Z</time></trkpt><trkpt lat="39.29430142411084" lon="-3.4123125239069787"><ele>643.75</ele><time>2026-05-01T09:54:45Z</time></trkpt><trkpt lat="39.294367282604455" lon="-3.41213848922315"><ele>643.5</ele><time>2026-05-01T09:54:46Z</time></trkpt><trkpt lat="39.294421918022124" lon="-3.4119579235893833"><ele>643.25</ele><time>2026-05-01T09:54:47Z</time></trkpt><trkpt lat="39.29447061923267" lon="-3.4117778153003275"><ele>643.0</ele><time>2026-05-01T09:54:48Z</time></trkpt><trkpt lat="39.29451669738049" lon="-3.411617247579334"><ele>643.0</ele><time>2026-05-01T09:54:49Z</time></trkpt><trkpt lat="39.29456768843619" lon="-3.411444940755573"><ele>643.0</ele><time>2026-05-01T09:54:50Z</time></trkpt><trkpt lat="39.29460715586936" lon="-3.411304642769166"><ele>643.0</ele><time>2026-05-01T09:54:51Z</time></trkpt><trkpt lat="39.29465014166046" lon="-3.411175767232958"><ele>643.0</ele><time>2026-05-01T09:54:52Z</time></trkpt><trkpt lat="39.294705526651114" lon="-3.4110688631304553"><ele>643.0</ele><time>2026-05-01T09:54:53Z</time></trkpt><trkpt lat="39.294774347931174" lon="-3.4109756709401036"><ele>643.0</ele><time>2026-05-01T09:54:54Z</time></trkpt><trkpt lat="39.29485256571739" lon="-3.410887427171217"><ele>643.0</ele><time>2026-05-01T09:54:55Z</time></trkpt><trkpt lat="39.294941951070854" lon="-3.410791185909914"><ele>643.0</ele><time>2026-05-01T09:54:56Z</time></trkpt><trkpt lat="39.29503603880302" lon="-3.4106870070114725"><ele>643.0</ele><time>2026-05-01T09:54:57Z</time></trkpt><trkpt lat="39.29513624583278" lon="-3.4105734105248593"><ele>642.1999999999999</ele><time>2026-05-01T09:54:58Z</time></trkpt><trkpt lat="39.29521154185963" lon="-3.4104589686068447"><ele>641.4</ele><time>2026-05-01T09:54:59Z</time></trkpt><trkpt lat="39.29527089588397" lon="-3.4103428937135027"><ele>640.5999999999999</ele><time>2026-05-01T09:55:00Z</time></trkpt><trkpt lat="39.295335216452784" lon="-3.4102309289151655"><ele>639.8</ele><time>2026-05-01T09:55:01Z</time></trkpt><trkpt lat="39.29539995792103" lon="-3.410149244632435"><ele>639.0</ele><time>2026-05-01T09:55:02Z</time></trkpt><trkpt lat="39.29546597086635" lon="-3.4100671697340577"><ele>639.0</ele><time>2026-05-01T09:55:03Z</time></trkpt><trkpt lat="39.295545044345666" lon="-3.409962091789117"><ele>639.0</ele><time>2026-05-01T09:55:04Z</time></trkpt><trkpt lat="39.29563744029503" lon="-3.4098266913710247"><ele>639.0</ele><time>2026-05-01T09:55:05Z</time></trkpt><trkpt lat="39.295716749927685" lon="-3.4097037057693718"><ele>639.0</ele><time>2026-05-01T09:55:06Z</time></trkpt><trkpt lat="39.29578209436503" lon="-3.409574104850069"><ele>640.0</ele><time>2026-05-01T09:55:07Z</time></trkpt><trkpt lat="39.29585723370096" lon="-3.409515851739178"><ele>641.0</ele><time>2026-05-01T09:55:08Z</time></trkpt><trkpt lat="39.295932708784925" lon="-3.4094185763089384"><ele>642.0</ele><time>2026-05-01T09:55:09Z</time></trkpt><trkpt lat="39.296024076206386" lon="-3.4093123427645895"><ele>643.0</ele><time>2026-05-01T09:55:10Z</time></trkpt><trkpt lat="39.2961386201685" lon="-3.4091956447047327"><ele>643.0</ele><time>2026-05-01T09:55:11Z</time></trkpt><trkpt lat="39.29623849298839" lon="-3.4091170503362087"><ele>643.0</ele><time>2026-05-01T09:55:12Z</time></trkpt><trkpt lat="39.2963255987599" lon="-3.4090422627862074"><ele>643.0</ele><time>2026-05-01T09:55:13Z</time></trkpt><trkpt lat="39.29641088914486" lon="-3.4089731136065193"><ele>643.0</ele><time>2026-05-01T09:55:14Z</time></trkpt><trkpt lat="39.29650418124891" lon="-3.4088961901193917"><ele>643.0</ele><time>2026-05-01T09:55:15Z</time></trkpt><trkpt lat="39.2965858155321" lon="-3.408821295401893"><ele>642.5</ele><time>2026-05-01T09:55:16Z</time></trkpt><trkpt lat="39.29666415221562" lon="-3.4087556099181064"><ele>642.0</ele><time>2026-05-01T09:55:17Z</time></trkpt><trkpt lat="39.296748175403" lon="-3.4086867076222633"><ele>641.5</ele><time>2026-05-01T09:55:18Z</time></trkpt><trkpt lat="39.2968192783484" lon="-3.408650324797325"><ele>641.0</ele><time>2026-05-01T09:55:19Z</time></trkpt><trkpt lat="39.29689343829309" lon="-3.408612025954827"><ele>640.5</ele><time>2026-05-01T09:55:20Z</time></trkpt><trkpt lat="39.2969615737347" lon="-3.4085799260733314"><ele>640.0</ele><time>2026-05-01T09:55:21Z</time></trkpt><trkpt lat="39.29703177964396" lon="-3.4085483272473476"><ele>640.0</ele><time>2026-05-01T09:55:22Z</time></trkpt><trkpt lat="39.29713268858198" lon="-3.4084880275743688"><ele>640.0</ele><time>2026-05-01T09:55:24Z</time></trkpt><trkpt lat="39.29720708113822" lon="-3.408442226095723"><ele>640.0</ele><time>2026-05-01T09:55:26Z</time></trkpt><trkpt lat="39.2972883307441" lon="-3.4083684651646724"><ele>640.0</ele><time>2026-05-01T09:56:04Z</time></trkpt><trkpt lat="39.29734935169924" lon="-3.408290754565058"><ele>640.0</ele><time>2026-05-01T09:56:05Z</time></trkpt><trkpt lat="39.29741469898809" lon="-3.408199833611632"><ele>640.2</ele><time>2026-05-01T09:56:06Z</time></trkpt><trkpt lat="39.29748147007088" lon="-3.4080858019956413"><ele>640.4</ele><time>2026-05-01T09:56:07Z</time></trkpt><trkpt lat="39.297529642050954" lon="-3.4080031099697283"><ele>640.5999999999999</ele><time>2026-05-01T09:56:08Z</time></trkpt><trkpt lat="39.2975804257065" lon="-3.407925481528664"><ele>640.8</ele><time>2026-05-01T09:56:09Z</time></trkpt><trkpt lat="39.29763345287453" lon="-3.407849494566016"><ele>641.0</ele><time>2026-05-01T09:56:10Z</time></trkpt><trkpt lat="39.2977125752897" lon="-3.407749453060804"><ele>641.8</ele><time>2026-05-01T09:56:11Z</time></trkpt><trkpt lat="39.29777850840204" lon="-3.407661890549394"><ele>642.5999999999999</ele><time>2026-05-01T09:56:12Z</time></trkpt><trkpt lat="39.297804415960286" lon="-3.407545501238952"><ele>643.4</ele><time>2026-05-01T09:56:13Z</time></trkpt><trkpt lat="39.29786727884711" lon="-3.4074713330430035"><ele>644.2</ele><time>2026-05-01T09:56:14Z</time></trkpt><trkpt lat="39.29793438795936" lon="-3.4073766582368625"><ele>645.0</ele><time>2026-05-01T09:56:15Z</time></trkpt><trkpt lat="39.298024066602544" lon="-3.407279093462707"><ele>643.75</ele><time>2026-05-01T09:56:16Z</time></trkpt><trkpt lat="39.29810438183437" lon="-3.407151020665457"><ele>642.5</ele><time>2026-05-01T09:56:17Z</time></trkpt><trkpt lat="39.298192983603435" lon="-3.407049462827095"><ele>641.25</ele><time>2026-05-01T09:56:18Z</time></trkpt><trkpt lat="39.29827038385613" lon="-3.406933482786567"><ele>640.0</ele><time>2026-05-01T09:56:19Z</time></trkpt><trkpt lat="39.29834244597176" lon="-3.4068187032637054"><ele>640.0</ele><time>2026-05-01T09:56:20Z</time></trkpt><trkpt lat="39.29841665446527" lon="-3.4067046048382195"><ele>640.0</ele><time>2026-05-01T09:56:21Z</time></trkpt><trkpt lat="39.29848049227129" lon="-3.4066039339536864"><ele>640.0</ele><time>2026-05-01T09:56:22.001Z</time></trkpt><trkpt lat="39.298531057542164" lon="-3.4065160885312467"><ele>640.0</ele><time>2026-05-01T09:56:23.001Z</time></trkpt><trkpt lat="39.29857540332968" lon="-3.4064578677406825"><ele>640.0</ele><time>2026-05-01T09:56:24.001Z</time></trkpt><trkpt lat="39.29862867354885" lon="-3.4063597731610793"><ele>640.0</ele><time>2026-05-01T09:56:26.001Z</time></trkpt><trkpt lat="39.29869202251057" lon="-3.4062713772270623"><ele>640.0</ele><time>2026-05-01T09:56:29.001Z</time></trkpt><trkpt lat="39.29876565531094" lon="-3.406166301631422"><ele>640.0</ele><time>2026-05-01T09:56:31.001Z</time></trkpt><trkpt lat="39.29881932223359" lon="-3.4060854014988093"><ele>640.0</ele><time>2026-05-01T09:56:32.001Z</time></trkpt><trkpt lat="39.29890017560918" lon="-3.4059628364890084"><ele>640.0</ele><time>2026-05-01T09:56:33.001Z</time></trkpt><trkpt lat="39.299000877813505" lon="-3.4058101827950438"><ele>640.75</ele><time>2026-05-01T09:56:34.001Z</time></trkpt><trkpt lat="39.29909620107316" lon="-3.4056657572591664"><ele>641.5</ele><time>2026-05-01T09:56:35Z</time></trkpt><trkpt lat="39.29917788525081" lon="-3.4055420447320865"><ele>642.25</ele><time>2026-05-01T09:56:36Z</time></trkpt><trkpt lat="39.29927027618996" lon="-3.405402116576894"><ele>643.0</ele><time>2026-05-01T09:56:37Z</time></trkpt><trkpt lat="39.29936274296038" lon="-3.4052620735724513"><ele>643.2</ele><time>2026-05-01T09:56:38Z</time></trkpt><trkpt lat="39.29944699045153" lon="-3.405167698398656"><ele>643.4</ele><time>2026-05-01T09:56:39Z</time></trkpt><trkpt lat="39.2994951597518" lon="-3.405089025684572"><ele>643.6</ele><time>2026-05-01T09:56:40Z</time></trkpt><trkpt lat="39.29954850235044" lon="-3.4050179914636223"><ele>643.8000000000001</ele><time>2026-05-01T09:56:42Z</time></trkpt><trkpt lat="39.29962016979686" lon="-3.40490001619197"><ele>644.0</ele><time>2026-05-01T09:56:44Z</time></trkpt><trkpt lat="39.29969152735708" lon="-3.404778616090352"><ele>644.0</ele><time>2026-05-01T09:56:45Z</time></trkpt><trkpt lat="39.29972560800893" lon="-3.404643341271198"><ele>644.0</ele><time>2026-05-01T09:56:46Z</time></trkpt><trkpt lat="39.29976133485077" lon="-3.4045385027220982"><ele>644.0</ele><time>2026-05-01T09:56:47Z</time></trkpt><trkpt lat="39.29979472058148" lon="-3.4044419003324142"><ele>644.0</ele><time>2026-05-01T09:56:48Z</time></trkpt><trkpt lat="39.29982395269206" lon="-3.40435731654915"><ele>644.0</ele><time>2026-05-01T09:56:49Z</time></trkpt><trkpt lat="39.299858380401126" lon="-3.4042569052624896"><ele>644.0</ele><time>2026-05-01T09:56:51Z</time></trkpt><trkpt lat="39.29988466988523" lon="-3.4041783249690027"><ele>644.0</ele><time>2026-05-01T09:56:57Z</time></trkpt><trkpt lat="39.299913233829" lon="-3.4040929462292646"><ele>644.0</ele><time>2026-05-01T09:57:32Z</time></trkpt><trkpt lat="39.29994066206398" lon="-3.404010962159146"><ele>644.0</ele><time>2026-05-01T09:57:36Z</time></trkpt><trkpt lat="39.299975188605764" lon="-3.4039077609371984"><ele>644.0</ele><time>2026-05-01T09:57:50Z</time></trkpt><trkpt lat="39.300050235578695" lon="-3.4038095367816785"><ele>644.0</ele><time>2026-05-01T09:57:53Z</time></trkpt><trkpt lat="39.30008149280256" lon="-3.4036976265248624"><ele>644.0</ele><time>2026-05-01T09:57:55Z</time></trkpt><trkpt lat="39.300109259125776" lon="-3.4036161511454424"><ele>644.0</ele><time>2026-05-01T09:57:56Z</time></trkpt><trkpt lat="39.30013974852873" lon="-3.403496722255948"><ele>644.0</ele><time>2026-05-01T09:57:57Z</time></trkpt><trkpt lat="39.300169355213725" lon="-3.403359795987963"><ele>644.0</ele><time>2026-05-01T09:57:58Z</time></trkpt><trkpt lat="39.30019723578142" lon="-3.403194316002621"><ele>644.0</ele><time>2026-05-01T09:57:59Z</time></trkpt><trkpt lat="39.30024352715028" lon="-3.402990096193757"><ele>644.0</ele><time>2026-05-01T09:58:02Z</time></trkpt><trkpt lat="39.30026344972305" lon="-3.4028723842432647"><ele>644.0</ele><time>2026-05-01T09:58:03Z</time></trkpt><trkpt lat="39.30028642793605" lon="-3.402767704701986"><ele>644.0</ele><time>2026-05-01T09:58:04Z</time></trkpt><trkpt lat="39.300312130929086" lon="-3.4026556790104374"><ele>644.0</ele><time>2026-05-01T09:58:05Z</time></trkpt><trkpt lat="39.3003454634981" lon="-3.4025307568311827"><ele>644.0</ele><time>2026-05-01T09:58:06Z</time></trkpt><trkpt lat="39.300362700272025" lon="-3.402406099400765"><ele>644.0</ele><time>2026-05-01T09:58:07Z</time></trkpt><trkpt lat="39.3004036931041" lon="-3.402320984621363"><ele>644.0</ele><time>2026-05-01T09:58:08Z</time></trkpt><trkpt lat="39.30042699245512" lon="-3.402242227152338"><ele>644.0</ele><time>2026-05-01T09:58:09Z</time></trkpt><trkpt lat="39.30045401237927" lon="-3.402088140102659"><ele>644.0</ele><time>2026-05-01T09:58:11Z</time></trkpt><trkpt lat="39.30049264877092" lon="-3.4020136287750655"><ele>644.0</ele><time>2026-05-01T09:58:12Z</time></trkpt><trkpt lat="39.30051604769987" lon="-3.4019342222783138"><ele>644.0</ele><time>2026-05-01T09:58:13Z</time></trkpt><trkpt lat="39.30053761832775" lon="-3.4018438119958487"><ele>644.0</ele><time>2026-05-01T09:58:14Z</time></trkpt><trkpt lat="39.300558374912555" lon="-3.401765527911354"><ele>644.0</ele><time>2026-05-01T09:58:15Z</time></trkpt><trkpt lat="39.300570465917" lon="-3.401641700475121"><ele>644.0</ele><time>2026-05-01T09:58:17Z</time></trkpt><trkpt lat="39.30059247710598" lon="-3.4015344124053892"><ele>644.0</ele><time>2026-05-01T09:58:47Z</time></trkpt><trkpt lat="39.300609390255865" lon="-3.4014101234735503"><ele>644.0</ele><time>2026-05-01T09:58:49Z</time></trkpt><trkpt lat="39.30061025952022" lon="-3.4013126538847107"><ele>644.0</ele><time>2026-05-01T09:58:51Z</time></trkpt><trkpt lat="39.300613716361916" lon="-3.401176660206609"><ele>644.0</ele><time>2026-05-01T09:58:53Z</time></trkpt><trkpt lat="39.30061479581903" lon="-3.401080396998494"><ele>644.0</ele><time>2026-05-01T09:58:55Z</time></trkpt><trkpt lat="39.30061582538896" lon="-3.400988582636653"><ele>644.0</ele><time>2026-05-01T09:58:57Z</time></trkpt><trkpt lat="39.30062013881465" lon="-3.400897635193861"><ele>644.0</ele><time>2026-05-01T09:58:59Z</time></trkpt><trkpt lat="39.30062780040549" lon="-3.40080619474272"><ele>644.0</ele><time>2026-05-01T09:59:01Z</time></trkpt><trkpt lat="39.30063848406717" lon="-3.4007125085486463"><ele>644.0</ele><time>2026-05-01T09:59:03Z</time></trkpt><trkpt lat="39.30065167767566" lon="-3.4006219252296126"><ele>644.0</ele><time>2026-05-01T09:59:05Z</time></trkpt><trkpt lat="39.30066729686875" lon="-3.4005361498204034"><ele>643.3333333333333</ele><time>2026-05-01T09:59:07Z</time></trkpt><trkpt lat="39.3007018918418" lon="-3.4004463713538575"><ele>642.6666666666666</ele><time>2026-05-01T09:59:09Z</time></trkpt><trkpt lat="39.30072460659901" lon="-3.40035578546402"><ele>642.0</ele><time>2026-05-01T09:59:11Z</time></trkpt><trkpt lat="39.30074906571787" lon="-3.400240021433517"><ele>641.3333333333334</ele><time>2026-05-01T09:59:13Z</time></trkpt><trkpt lat="39.300766767532984" lon="-3.400136621210544"><ele>640.6666666666667</ele><time>2026-05-01T09:59:15Z</time></trkpt><trkpt lat="39.3007739942349" lon="-3.400026114106847"><ele>640.0</ele><time>2026-05-01T09:59:17Z</time></trkpt><trkpt lat="39.30081339165661" lon="-3.399891934404362"><ele>640.0</ele><time>2026-05-01T09:59:19Z</time></trkpt><trkpt lat="39.30081418579654" lon="-3.399777212489267"><ele>640.0</ele><time>2026-05-01T09:59:20Z</time></trkpt><trkpt lat="39.300853036571475" lon="-3.3996323230896643"><ele>640.0</ele><time>2026-05-01T09:59:21Z</time></trkpt><trkpt lat="39.30088769410735" lon="-3.3994187391446435"><ele>640.0</ele><time>2026-05-01T09:59:22Z</time></trkpt><trkpt lat="39.30091434522855" lon="-3.399239170731113"><ele>639.5</ele><time>2026-05-01T09:59:23Z</time></trkpt><trkpt lat="39.30097130949458" lon="-3.399070510254289"><ele>639.0</ele><time>2026-05-01T09:59:24Z</time></trkpt><trkpt lat="39.30103508796461" lon="-3.398884948424919"><ele>638.5</ele><time>2026-05-01T09:59:25Z</time></trkpt><trkpt lat="39.30109820165228" lon="-3.398710031345228"><ele>638.0</ele><time>2026-05-01T09:59:26Z</time></trkpt><trkpt lat="39.30116181671386" lon="-3.3985274890292136"><ele>637.6666666666666</ele><time>2026-05-01T09:59:27Z</time></trkpt><trkpt lat="39.30121041100135" lon="-3.398364816492893"><ele>637.3333333333334</ele><time>2026-05-01T09:59:28Z</time></trkpt><trkpt lat="39.30126779614607" lon="-3.398173982517163"><ele>637.0</ele><time>2026-05-01T09:59:29Z</time></trkpt><trkpt lat="39.30133121776393" lon="-3.397979285054232"><ele>637.0</ele><time>2026-05-01T09:59:30Z</time></trkpt><trkpt lat="39.301403931564444" lon="-3.397810626284294"><ele>637.0</ele><time>2026-05-01T09:59:31Z</time></trkpt><trkpt lat="39.30149558560725" lon="-3.397599891420053"><ele>637.0</ele><time>2026-05-01T09:59:32Z</time></trkpt><trkpt lat="39.301576869439096" lon="-3.3973809746595793"><ele>637.6666666666667</ele><time>2026-05-01T09:59:33Z</time></trkpt><trkpt lat="39.301654786343306" lon="-3.3971893760342127"><ele>638.3333333333334</ele><time>2026-05-01T09:59:34Z</time></trkpt><trkpt lat="39.30172343432348" lon="-3.397007598182074"><ele>639.0</ele><time>2026-05-01T09:59:35Z</time></trkpt><trkpt lat="39.3017848365405" lon="-3.3968331054314898"><ele>639.5</ele><time>2026-05-01T09:59:36Z</time></trkpt><trkpt lat="39.30185339317321" lon="-3.3966754479064307"><ele>640.0</ele><time>2026-05-01T09:59:37Z</time></trkpt><trkpt lat="39.301923152234345" lon="-3.396533396577237"><ele>640.5</ele><time>2026-05-01T09:59:38Z</time></trkpt><trkpt lat="39.30201170992795" lon="-3.396399879876232"><ele>641.0</ele><time>2026-05-01T09:59:39Z</time></trkpt><trkpt lat="39.30211525050742" lon="-3.3962520952058126"><ele>641.25</ele><time>2026-05-01T09:59:40Z</time></trkpt><trkpt lat="39.302183785768904" lon="-3.3961045261443945"><ele>641.5</ele><time>2026-05-01T09:59:41Z</time></trkpt><trkpt lat="39.302258707915186" lon="-3.395950017001341"><ele>641.75</ele><time>2026-05-01T09:59:42Z</time></trkpt><trkpt lat="39.302313633879685" lon="-3.395809209085872"><ele>642.0</ele><time>2026-05-01T09:59:43Z</time></trkpt><trkpt lat="39.30235154280429" lon="-3.39568547685695"><ele>642.6666666666666</ele><time>2026-05-01T09:59:44Z</time></trkpt><trkpt lat="39.3023885021816" lon="-3.395549764094333"><ele>643.3333333333333</ele><time>2026-05-01T09:59:45Z</time></trkpt><trkpt lat="39.30246569559321" lon="-3.3953265457630897"><ele>644.0</ele><time>2026-05-01T09:59:46Z</time></trkpt><trkpt lat="39.30252583762533" lon="-3.39511918962724"><ele>644.0</ele><time>2026-05-01T09:59:47Z</time></trkpt><trkpt lat="39.30257317886974" lon="-3.39490949090983"><ele>644.0</ele><time>2026-05-01T09:59:48Z</time></trkpt><trkpt lat="39.302625658437165" lon="-3.3947430228784246"><ele>644.0</ele><time>2026-05-01T09:59:49Z</time></trkpt><trkpt lat="39.302703140267084" lon="-3.3946077655177667"><ele>644.0</ele><time>2026-05-01T09:59:50Z</time></trkpt><trkpt lat="39.302781030599064" lon="-3.3944637830177404"><ele>643.3333333333333</ele><time>2026-05-01T09:59:51Z</time></trkpt><trkpt lat="39.30286938502272" lon="-3.394319790230297"><ele>642.6666666666666</ele><time>2026-05-01T09:59:52Z</time></trkpt><trkpt lat="39.302953847512896" lon="-3.3941417610066504"><ele>642.0</ele><time>2026-05-01T09:59:53Z</time></trkpt><trkpt lat="39.30303350515697" lon="-3.393962732640247"><ele>643.3333333333334</ele><time>2026-05-01T09:59:54Z</time></trkpt><trkpt lat="39.30311674987769" lon="-3.3938019999497766"><ele>644.6666666666667</ele><time>2026-05-01T09:59:55Z</time></trkpt><trkpt lat="39.30322078852678" lon="-3.393627704621414"><ele>646.0</ele><time>2026-05-01T09:59:56Z</time></trkpt><trkpt lat="39.303332997921615" lon="-3.3935135476117964"><ele>646.0</ele><time>2026-05-01T09:59:57Z</time></trkpt><trkpt lat="39.30342228922457" lon="-3.3934079300199045"><ele>646.0</ele><time>2026-05-01T09:59:58Z</time></trkpt><trkpt lat="39.30348072617309" lon="-3.3932577164887925"><ele>646.0</ele><time>2026-05-01T09:59:59Z</time></trkpt><trkpt lat="39.303527090590364" lon="-3.393123214868574"><ele>646.0</ele><time>2026-05-01T10:00:00Z</time></trkpt><trkpt lat="39.30357335832812" lon="-3.392992690306942"><ele>645.5</ele><time>2026-05-01T10:00:01Z</time></trkpt><trkpt lat="39.303628462200486" lon="-3.3928395354282856"><ele>645.0</ele><time>2026-05-01T10:00:02Z</time></trkpt><trkpt lat="39.30369409129742" lon="-3.3926939140512005"><ele>644.5</ele><time>2026-05-01T10:00:03Z</time></trkpt><trkpt lat="39.303761485972316" lon="-3.392543734215866"><ele>644.0</ele><time>2026-05-01T10:00:04Z</time></trkpt><trkpt lat="39.30381454071481" lon="-3.3923966524780615"><ele>644.0</ele><time>2026-05-01T10:00:05Z</time></trkpt><trkpt lat="39.30387918457782" lon="-3.3922404964472106"><ele>644.0</ele><time>2026-05-01T10:00:06Z</time></trkpt><trkpt lat="39.303951002120165" lon="-3.3921008614981734"><ele>644.0</ele><time>2026-05-01T10:00:07Z</time></trkpt><trkpt lat="39.3040092773334" lon="-3.3919565485458443"><ele>644.0</ele><time>2026-05-01T10:00:08Z</time></trkpt><trkpt lat="39.30407212599558" lon="-3.39180994148885"><ele>642.5</ele><time>2026-05-01T10:00:09Z</time></trkpt><trkpt lat="39.30413236500423" lon="-3.391664018767987"><ele>641.0</ele><time>2026-05-01T10:00:10Z</time></trkpt><trkpt lat="39.30420681898479" lon="-3.3915302780751793"><ele>639.5</ele><time>2026-05-01T10:00:11Z</time></trkpt><trkpt lat="39.304294152989335" lon="-3.3914245829902234"><ele>638.0</ele><time>2026-05-01T10:00:12Z</time></trkpt><trkpt lat="39.30435097988378" lon="-3.3913000964595836"><ele>637.1999999999999</ele><time>2026-05-01T10:00:13Z</time></trkpt><trkpt lat="39.30438692945308" lon="-3.391219757809415"><ele>636.4</ele><time>2026-05-01T10:00:14Z</time></trkpt><trkpt lat="39.30442020020277" lon="-3.3911327605996138"><ele>635.5999999999999</ele><time>2026-05-01T10:00:15Z</time></trkpt><trkpt lat="39.30445418769002" lon="-3.39103206724695"><ele>634.8</ele><time>2026-05-01T10:00:16Z</time></trkpt><trkpt lat="39.30451782771386" lon="-3.3908688162494127"><ele>634.0</ele><time>2026-05-01T10:00:17Z</time></trkpt><trkpt lat="39.304576206522675" lon="-3.390688917972353"><ele>634.0</ele><time>2026-05-01T10:00:18Z</time></trkpt><trkpt lat="39.304628777782746" lon="-3.390533907230577"><ele>634.0</ele><time>2026-05-01T10:00:19Z</time></trkpt><trkpt lat="39.30468025245187" lon="-3.3903704016386573"><ele>634.0</ele><time>2026-05-01T10:00:20Z</time></trkpt><trkpt lat="39.30474548367797" lon="-3.39020400751645"><ele>634.0</ele><time>2026-05-01T10:00:21Z</time></trkpt><trkpt lat="39.30479642637634" lon="-3.390046659491481"><ele>634.0</ele><time>2026-05-01T10:00:22Z</time></trkpt><trkpt lat="39.3048366918698" lon="-3.389876327722249"><ele>634.0</ele><time>2026-05-01T10:00:23Z</time></trkpt><trkpt lat="39.30488624622292" lon="-3.389730004968884"><ele>634.0</ele><time>2026-05-01T10:00:24Z</time></trkpt><trkpt lat="39.30493649906687" lon="-3.3895895572203285"><ele>634.0</ele><time>2026-05-01T10:00:25Z</time></trkpt><trkpt lat="39.304993104065936" lon="-3.389444107467407"><ele>634.0</ele><time>2026-05-01T10:00:26Z</time></trkpt><trkpt lat="39.3050481320625" lon="-3.3893094307382"><ele>634.0</ele><time>2026-05-01T10:00:27Z</time></trkpt><trkpt lat="39.30510868452714" lon="-3.389200847505339"><ele>634.0</ele><time>2026-05-01T10:00:28Z</time></trkpt><trkpt lat="39.30513790901899" lon="-3.389072767338551"><ele>634.0</ele><time>2026-05-01T10:00:29Z</time></trkpt><trkpt lat="39.30518546807901" lon="-3.388935067462454"><ele>634.0</ele><time>2026-05-01T10:00:30Z</time></trkpt><trkpt lat="39.30522092275382" lon="-3.388792472283397"><ele>634.0</ele><time>2026-05-01T10:00:31Z</time></trkpt><trkpt lat="39.305260640959474" lon="-3.3886532699210576"><ele>634.0</ele><time>2026-05-01T10:00:32Z</time></trkpt><trkpt lat="39.30529969245095" lon="-3.3885233447383905"><ele>634.0</ele><time>2026-05-01T10:00:33Z</time></trkpt><trkpt lat="39.30534316444146" lon="-3.3884133475268814"><ele>634.0</ele><time>2026-05-01T10:00:34Z</time></trkpt><trkpt lat="39.305396823947554" lon="-3.388311509127598"><ele>634.0</ele><time>2026-05-01T10:00:35Z</time></trkpt><trkpt lat="39.30545912855994" lon="-3.3882370800102604"><ele>634.0</ele><time>2026-05-01T10:00:36Z</time></trkpt><trkpt lat="39.305539180267274" lon="-3.3881737583479246"><ele>634.0</ele><time>2026-05-01T10:00:37Z</time></trkpt><trkpt lat="39.30561661593212" lon="-3.3881121460979804"><ele>634.0</ele><time>2026-05-01T10:00:38Z</time></trkpt><trkpt lat="39.30570834662818" lon="-3.3880438058512152"><ele>634.0</ele><time>2026-05-01T10:00:39Z</time></trkpt><trkpt lat="39.30583766383847" lon="-3.3879308437731304"><ele>634.0</ele><time>2026-05-01T10:00:40Z</time></trkpt><trkpt lat="39.305992108437245" lon="-3.387765651638943"><ele>634.25</ele><time>2026-05-01T10:00:41Z</time></trkpt><trkpt lat="39.30612748461819" lon="-3.3876346977708516"><ele>634.5</ele><time>2026-05-01T10:00:42Z</time></trkpt><trkpt lat="39.306247596151835" lon="-3.3875448495077376"><ele>634.75</ele><time>2026-05-01T10:00:43Z</time></trkpt><trkpt lat="39.30636308053499" lon="-3.3874560901597794"><ele>635.0</ele><time>2026-05-01T10:00:44Z</time></trkpt><trkpt lat="39.306426925011785" lon="-3.387362556785207"><ele>635.4</ele><time>2026-05-01T10:00:45Z</time></trkpt><trkpt lat="39.306476545876016" lon="-3.3873115442196426"><ele>635.8</ele><time>2026-05-01T10:00:46Z</time></trkpt><trkpt lat="39.30651505681167" lon="-3.387217194428596"><ele>636.2</ele><time>2026-05-01T10:00:50Z</time></trkpt><trkpt lat="39.30659474295238" lon="-3.3873274331938314"><ele>636.6</ele><time>2026-05-01T10:01:00Z</time></trkpt><trkpt lat="39.30665300415105" lon="-3.387371773774083"><ele>637.0</ele><time>2026-05-01T10:01:01Z</time></trkpt><trkpt lat="39.30677170099521" lon="-3.3874595332557256"><ele>637.0</ele><time>2026-05-01T10:01:03Z</time></trkpt><trkpt lat="39.306838020682335" lon="-3.387507820735623"><ele>637.0</ele><time>2026-05-01T10:01:04Z</time></trkpt><trkpt lat="39.3069358899493" lon="-3.387603881814389"><ele>637.0</ele><time>2026-05-01T10:01:06Z</time></trkpt><trkpt lat="39.30699713285818" lon="-3.3876462405241035"><ele>637.0</ele><time>2026-05-01T10:01:07Z</time></trkpt><trkpt lat="39.30705823210163" lon="-3.3876948963949047"><ele>637.0</ele><time>2026-05-01T10:01:08Z</time></trkpt><trkpt lat="39.30717394781431" lon="-3.3877842238212805"><ele>637.4</ele><time>2026-05-01T10:01:10Z</time></trkpt><trkpt lat="39.307253480164356" lon="-3.3878226850585027"><ele>637.8000000000001</ele><time>2026-05-01T10:01:11Z</time></trkpt><trkpt lat="39.30738141517123" lon="-3.3878469165934457"><ele>638.2</ele><time>2026-05-01T10:01:12Z</time></trkpt><trkpt lat="39.30747928412963" lon="-3.3879261175146187"><ele>638.6</ele><time>2026-05-01T10:01:13Z</time></trkpt><trkpt lat="39.30755541326188" lon="-3.3879818972116182"><ele>639.0</ele><time>2026-05-01T10:01:14Z</time></trkpt><trkpt lat="39.30763136706311" lon="-3.388036428617341"><ele>639.8</ele><time>2026-05-01T10:01:15Z</time></trkpt><trkpt lat="39.30772326445905" lon="-3.388098987852605"><ele>640.5999999999999</ele><time>2026-05-01T10:01:16Z</time></trkpt><trkpt lat="39.30784270878485" lon="-3.38817683205339"><ele>641.4</ele><time>2026-05-01T10:01:17Z</time></trkpt><trkpt lat="39.30794891234681" lon="-3.388231612841365"><ele>642.1999999999999</ele><time>2026-05-01T10:01:18Z</time></trkpt><trkpt lat="39.308043799661924" lon="-3.388230074137824"><ele>643.0</ele><time>2026-05-01T10:01:19Z</time></trkpt><trkpt lat="39.30814643410724" lon="-3.3882776926609925"><ele>643.2</ele><time>2026-05-01T10:01:21Z</time></trkpt><trkpt lat="39.30824547130823" lon="-3.3883167691222873"><ele>643.4</ele><time>2026-05-01T10:01:23Z</time></trkpt><trkpt lat="39.30831904037294" lon="-3.388358102758011"><ele>643.6</ele><time>2026-05-01T10:01:25Z</time></trkpt><trkpt lat="39.30840008209088" lon="-3.388393277636199"><ele>643.8000000000001</ele><time>2026-05-01T10:01:27Z</time></trkpt><trkpt lat="39.30848395107121" lon="-3.3884153921847022"><ele>644.0</ele><time>2026-05-01T10:01:29Z</time></trkpt><trkpt lat="39.308571399365384" lon="-3.3884834407095448"><ele>644.0</ele><time>2026-05-01T10:01:31Z</time></trkpt><trkpt lat="39.308650942408256" lon="-3.3885267828499783"><ele>644.0</ele><time>2026-05-01T10:01:36Z</time></trkpt><trkpt lat="39.308725967100926" lon="-3.388565455257389"><ele>644.0</ele><time>2026-05-01T10:01:39Z</time></trkpt><trkpt lat="39.30868997812294" lon="-3.388369666851564"><ele>644.0</ele><time>2026-05-01T10:01:48Z</time></trkpt><trkpt lat="39.3087668990961" lon="-3.388286487047002"><ele>644.0</ele><time>2026-05-01T10:01:51Z</time></trkpt><trkpt lat="39.30884959787456" lon="-3.3882015675651793"><ele>644.0</ele><time>2026-05-01T10:01:53Z</time></trkpt><trkpt lat="39.30887394895044" lon="-3.388118053063156"><ele>644.0</ele><time>2026-05-01T10:01:55Z</time></trkpt><trkpt lat="39.3089158190399" lon="-3.3880308353638044"><ele>644.0</ele><time>2026-05-01T10:01:59Z</time></trkpt><trkpt lat="39.30895742439756" lon="-3.3879422216592054"><ele>644.0</ele><time>2026-05-01T10:02:01Z</time></trkpt><trkpt lat="39.308994405806764" lon="-3.3878561895679984"><ele>644.0</ele><time>2026-05-01T10:02:02Z</time></trkpt><trkpt lat="39.3090260183233" lon="-3.387782647791797"><ele>644.0</ele><time>2026-05-01T10:02:03Z</time></trkpt><trkpt lat="39.30905187212588" lon="-3.3877075776390013"><ele>644.0</ele><time>2026-05-01T10:02:04Z</time></trkpt><trkpt lat="39.309145851246065" lon="-3.3875727947780856"><ele>644.1666666666666</ele><time>2026-05-01T10:02:06Z</time></trkpt><trkpt lat="39.30921488905762" lon="-3.387481398782428"><ele>644.3333333333333</ele><time>2026-05-01T10:02:07Z</time></trkpt><trkpt lat="39.309274096447744" lon="-3.387434260380724"><ele>644.5</ele><time>2026-05-01T10:02:08Z</time></trkpt><trkpt lat="39.30934594348049" lon="-3.3873929907087397"><ele>644.6666666666666</ele><time>2026-05-01T10:02:10Z</time></trkpt><trkpt lat="39.30941811963901" lon="-3.3873831088119277"><ele>644.8333333333334</ele><time>2026-05-01T10:02:13Z</time></trkpt><trkpt lat="39.30949115816728" lon="-3.3874481876640967"><ele>645.0</ele><time>2026-05-01T10:02:15Z</time></trkpt><trkpt lat="39.309552482229016" lon="-3.387467058803445"><ele>645.0</ele><time>2026-05-01T10:02:17Z</time></trkpt><trkpt lat="39.30963820071429" lon="-3.3874737237360915"><ele>645.0</ele><time>2026-05-01T10:02:20Z</time></trkpt><trkpt lat="39.30971418518722" lon="-3.387216672153382"><ele>645.0</ele><time>2026-05-01T10:02:22Z</time></trkpt><trkpt lat="39.30978481918062" lon="-3.38718754331011"><ele>645.0</ele><time>2026-05-01T10:02:24Z</time></trkpt><trkpt lat="39.30991449510225" lon="-3.3872170633084253"><ele>645.1666666666666</ele><time>2026-05-01T10:02:26Z</time></trkpt><trkpt lat="39.309977018398115" lon="-3.387251272199122"><ele>645.3333333333334</ele><time>2026-05-01T10:02:27Z</time></trkpt><trkpt lat="39.310048031062436" lon="-3.3872808907833956"><ele>645.5</ele><time>2026-05-01T10:02:29Z</time></trkpt><trkpt lat="39.310117197289784" lon="-3.3872153479428944"><ele>645.6666666666667</ele><time>2026-05-01T10:02:32Z</time></trkpt><trkpt lat="39.3101817014117" lon="-3.3871272142683746"><ele>645.8333333333334</ele><time>2026-05-01T10:02:34.999Z</time></trkpt><trkpt lat="39.31025944656858" lon="-3.387049862237785"><ele>646.0</ele><time>2026-05-01T10:02:36.999Z</time></trkpt><trkpt lat="39.31033037967822" lon="-3.386968772690459"><ele>646.0</ele><time>2026-05-01T10:02:38.999Z</time></trkpt><trkpt lat="39.31039635555345" lon="-3.3868885962549613"><ele>646.0</ele><time>2026-05-01T10:02:41Z</time></trkpt><trkpt lat="39.31045697353832" lon="-3.386818301330813"><ele>646.0</ele><time>2026-05-01T10:02:43Z</time></trkpt><trkpt lat="39.3105072885149" lon="-3.3867473267648984"><ele>646.0</ele><time>2026-05-01T10:02:45Z</time></trkpt><trkpt lat="39.31058381527842" lon="-3.3865994181422514"><ele>646.0</ele><time>2026-05-01T10:02:47Z</time></trkpt><trkpt lat="39.310623621827254" lon="-3.3865180602866323"><ele>646.3333333333334</ele><time>2026-05-01T10:02:48Z</time></trkpt><trkpt lat="39.31066976131779" lon="-3.3864282908810797"><ele>646.6666666666667</ele><time>2026-05-01T10:02:49Z</time></trkpt><trkpt lat="39.31070777410826" lon="-3.386360274375"><ele>647.0</ele><time>2026-05-01T10:02:50Z</time></trkpt><trkpt lat="39.31073716361229" lon="-3.386273201000669"><ele>647.3333333333334</ele><time>2026-05-01T10:02:51Z</time></trkpt><trkpt lat="39.31076341214107" lon="-3.3861535281045043"><ele>647.6666666666666</ele><time>2026-05-01T10:02:52Z</time></trkpt><trkpt lat="39.31079259936639" lon="-3.386048176581341"><ele>648.0</ele><time>2026-05-01T10:02:53Z</time></trkpt><trkpt lat="39.31084234315099" lon="-3.3859698782248984"><ele>648.0</ele><time>2026-05-01T10:02:54Z</time></trkpt><trkpt lat="39.31090970326406" lon="-3.3858903140982677"><ele>648.0</ele><time>2026-05-01T10:02:55Z</time></trkpt><trkpt lat="39.31099625434084" lon="-3.385802953872138"><ele>648.0</ele><time>2026-05-01T10:02:56Z</time></trkpt><trkpt lat="39.31112210108484" lon="-3.3856715550381256"><ele>648.0</ele><time>2026-05-01T10:02:57Z</time></trkpt><trkpt lat="39.311259635834254" lon="-3.385515803679666"><ele>648.0</ele><time>2026-05-01T10:02:58Z</time></trkpt><trkpt lat="39.311373912212474" lon="-3.3853814919877125"><ele>648.0</ele><time>2026-05-01T10:02:59Z</time></trkpt><trkpt lat="39.31147174113666" lon="-3.385272572697945"><ele>648.0</ele><time>2026-05-01T10:03:00Z</time></trkpt><trkpt lat="39.311559311890115" lon="-3.385160537424086"><ele>648.0</ele><time>2026-05-01T10:03:01Z</time></trkpt><trkpt lat="39.31163932794123" lon="-3.3850293098748523"><ele>648.0</ele><time>2026-05-01T10:03:02Z</time></trkpt><trkpt lat="39.31169161081448" lon="-3.384933035706208"><ele>648.0</ele><time>2026-05-01T10:03:03Z</time></trkpt><trkpt lat="39.31174213447197" lon="-3.3848286805894015"><ele>648.0</ele><time>2026-05-01T10:03:04Z</time></trkpt><trkpt lat="39.31177929788553" lon="-3.384732952050348"><ele>648.0</ele><time>2026-05-01T10:03:05Z</time></trkpt><trkpt lat="39.31181969004118" lon="-3.3846596580662287"><ele>648.0</ele><time>2026-05-01T10:03:06Z</time></trkpt><trkpt lat="39.311922681535265" lon="-3.384601702699698"><ele>647.75</ele><time>2026-05-01T10:03:08Z</time></trkpt><trkpt lat="39.311997682106785" lon="-3.384532096913628"><ele>647.5</ele><time>2026-05-01T10:03:09Z</time></trkpt><trkpt lat="39.31207524900389" lon="-3.3844189259024033"><ele>647.25</ele><time>2026-05-01T10:03:10Z</time></trkpt><trkpt lat="39.312178256376676" lon="-3.3842440890161742"><ele>647.0</ele><time>2026-05-01T10:03:11Z</time></trkpt><trkpt lat="39.31230005157628" lon="-3.384047848884649"><ele>647.25</ele><time>2026-05-01T10:03:12Z</time></trkpt><trkpt lat="39.31239209430165" lon="-3.383874223980605"><ele>647.5</ele><time>2026-05-01T10:03:13Z</time></trkpt><trkpt lat="39.312471880103054" lon="-3.3837190789603313"><ele>647.75</ele><time>2026-05-01T10:03:14Z</time></trkpt><trkpt lat="39.312543941182966" lon="-3.3836078830933514"><ele>648.0</ele><time>2026-05-01T10:03:15Z</time></trkpt><trkpt lat="39.31263100270843" lon="-3.3834675784486987"><ele>648.0</ele><time>2026-05-01T10:03:16Z</time></trkpt><trkpt lat="39.312707664480584" lon="-3.383294682093228"><ele>648.0</ele><time>2026-05-01T10:03:17Z</time></trkpt><trkpt lat="39.312776137699615" lon="-3.383132595006029"><ele>648.0</ele><time>2026-05-01T10:03:18Z</time></trkpt><trkpt lat="39.31283270295752" lon="-3.3830128649831783"><ele>648.0</ele><time>2026-05-01T10:03:19Z</time></trkpt><trkpt lat="39.312907284104746" lon="-3.3829052439081613"><ele>647.6666666666666</ele><time>2026-05-01T10:03:20Z</time></trkpt><trkpt lat="39.31301700104769" lon="-3.3827765036577633"><ele>647.3333333333333</ele><time>2026-05-01T10:03:21Z</time></trkpt><trkpt lat="39.313157909791315" lon="-3.3826103313598335"><ele>647.0</ele><time>2026-05-01T10:03:22Z</time></trkpt><trkpt lat="39.31330245109952" lon="-3.3824298589837256"><ele>647.3333333333333</ele><time>2026-05-01T10:03:23Z</time></trkpt><trkpt lat="39.31344662517564" lon="-3.3822570444038487"><ele>647.6666666666666</ele><time>2026-05-01T10:03:24Z</time></trkpt><trkpt lat="39.31356140934816" lon="-3.38211769414895"><ele>648.0</ele><time>2026-05-01T10:03:25Z</time></trkpt><trkpt lat="39.313682702717685" lon="-3.3819823775894884"><ele>648.0</ele><time>2026-05-01T10:03:26Z</time></trkpt><trkpt lat="39.31381926007171" lon="-3.3818288903513865"><ele>648.0</ele><time>2026-05-01T10:03:27Z</time></trkpt><trkpt lat="39.31395401942111" lon="-3.3816726720005112"><ele>648.0</ele><time>2026-05-01T10:03:28Z</time></trkpt><trkpt lat="39.314052100079" lon="-3.381554459646848"><ele>648.1666666666666</ele><time>2026-05-01T10:03:29Z</time></trkpt><trkpt lat="39.31413521881386" lon="-3.3814585202417056"><ele>648.3333333333334</ele><time>2026-05-01T10:03:30Z</time></trkpt><trkpt lat="39.31419908512946" lon="-3.381381764009494"><ele>648.5</ele><time>2026-05-01T10:03:31Z</time></trkpt><trkpt lat="39.314245310752376" lon="-3.381324945137901"><ele>648.6666666666667</ele><time>2026-05-01T10:03:32Z</time></trkpt><trkpt lat="39.314291409739845" lon="-3.3812606130157308"><ele>648.8333333333334</ele><time>2026-05-01T10:03:34Z</time></trkpt><trkpt lat="39.31436810930312" lon="-3.3813533714668886"><ele>649.0</ele><time>2026-05-01T10:03:47Z</time></trkpt><trkpt lat="39.31444331209872" lon="-3.3813577151505987"><ele>649.0</ele><time>2026-05-01T10:03:48Z</time></trkpt><trkpt lat="39.31454057923249" lon="-3.3813689389421806"><ele>649.0</ele><time>2026-05-01T10:03:49Z</time></trkpt><trkpt lat="39.314679281030365" lon="-3.3814142680270582"><ele>649.0</ele><time>2026-05-01T10:03:50Z</time></trkpt><trkpt lat="39.31484316070099" lon="-3.3814270136624853"><ele>649.0</ele><time>2026-05-01T10:03:51Z</time></trkpt><trkpt lat="39.315014483427056" lon="-3.3814831062038584"><ele>649.6666666666667</ele><time>2026-05-01T10:03:52Z</time></trkpt><trkpt lat="39.31520645413536" lon="-3.3814999505532093"><ele>650.3333333333334</ele><time>2026-05-01T10:03:53Z</time></trkpt><trkpt lat="39.315430862933226" lon="-3.3815452889550977"><ele>651.0</ele><time>2026-05-01T10:03:54Z</time></trkpt><trkpt lat="39.31566410799368" lon="-3.381594802060292"><ele>651.5</ele><time>2026-05-01T10:03:55Z</time></trkpt><trkpt lat="39.31591648277037" lon="-3.381654577851757"><ele>652.0</ele><time>2026-05-01T10:03:56Z</time></trkpt><trkpt lat="39.31620322753666" lon="-3.381717544581258"><ele>653.3333333333334</ele><time>2026-05-01T10:03:57Z</time></trkpt><trkpt lat="39.31640597095301" lon="-3.3817574893330566"><ele>654.6666666666666</ele><time>2026-05-01T10:03:58Z</time></trkpt><trkpt lat="39.31657443079101" lon="-3.381795222190154"><ele>656.0</ele><time>2026-05-01T10:03:59Z</time></trkpt><trkpt lat="39.31670059467238" lon="-3.381849884453832"><ele>656.0</ele><time>2026-05-01T10:04:00Z</time></trkpt><trkpt lat="39.316799254485375" lon="-3.381871945089544"><ele>656.0</ele><time>2026-05-01T10:04:01Z</time></trkpt><trkpt lat="39.31687057863753" lon="-3.3818868144486354"><ele>656.0</ele><time>2026-05-01T10:04:02Z</time></trkpt><trkpt lat="39.316961454850166" lon="-3.381893113697414"><ele>656.0</ele><time>2026-05-01T10:04:04Z</time></trkpt><trkpt lat="39.317025876526294" lon="-3.3819267960950703"><ele>656.0</ele><time>2026-05-01T10:04:14Z</time></trkpt><trkpt lat="39.316939702745266" lon="-3.3818883955659125"><ele>656.0</ele><time>2026-05-01T10:04:19Z</time></trkpt><trkpt lat="39.31687202690856" lon="-3.381890450138028"><ele>656.0</ele><time>2026-05-01T10:04:22Z</time></trkpt><trkpt lat="39.3168003260895" lon="-3.38185444071912"><ele>656.0</ele><time>2026-05-01T10:04:27Z</time></trkpt><trkpt lat="39.31668885250428" lon="-3.381835443211482"><ele>656.0</ele><time>2026-05-01T10:04:30Z</time></trkpt><trkpt lat="39.31661271959661" lon="-3.3818265134157564"><ele>656.0</ele><time>2026-05-01T10:04:32Z</time></trkpt><trkpt lat="39.31653395354879" lon="-3.381807106459921"><ele>656.0</ele><time>2026-05-01T10:04:34Z</time></trkpt><trkpt lat="39.31644481024601" lon="-3.3818094355056822"><ele>656.0</ele><time>2026-05-01T10:04:36Z</time></trkpt><trkpt lat="39.31637279965113" lon="-3.3817759151051"><ele>655.1999999999999</ele><time>2026-05-01T10:04:37.999Z</time></trkpt><trkpt lat="39.31628124153995" lon="-3.381778689895542"><ele>654.4</ele><time>2026-05-01T10:05:03Z</time></trkpt><trkpt lat="39.31616825145944" lon="-3.3817415116190657"><ele>653.6</ele><time>2026-05-01T10:05:05Z</time></trkpt><trkpt lat="39.31605889803055" lon="-3.381718002600436"><ele>652.8</ele><time>2026-05-01T10:05:07Z</time></trkpt><trkpt lat="39.31596371957771" lon="-3.3816940294481372"><ele>652.0</ele><time>2026-05-01T10:05:09Z</time></trkpt><trkpt lat="39.315858693409815" lon="-3.3816673088536278"><ele>652.0</ele><time>2026-05-01T10:05:11Z</time></trkpt><trkpt lat="39.31578472730818" lon="-3.3816502610567776"><ele>652.0</ele><time>2026-05-01T10:05:12Z</time></trkpt><trkpt lat="39.31569953226915" lon="-3.381631855590279"><ele>652.0</ele><time>2026-05-01T10:05:13Z</time></trkpt><trkpt lat="39.31562309967809" lon="-3.3816120286413"><ele>652.0</ele><time>2026-05-01T10:05:14Z</time></trkpt><trkpt lat="39.315556018868165" lon="-3.381599948103948"><ele>652.0</ele><time>2026-05-01T10:05:15Z</time></trkpt><trkpt lat="39.315445080080785" lon="-3.38157160815704"><ele>652.0</ele><time>2026-05-01T10:05:17Z</time></trkpt><trkpt lat="39.31533257224842" lon="-3.3815500614478093"><ele>651.8333333333334</ele><time>2026-05-01T10:05:19Z</time></trkpt><trkpt lat="39.315259050446585" lon="-3.3815382104973195"><ele>651.6666666666667</ele><time>2026-05-01T10:05:20Z</time></trkpt><trkpt lat="39.31518640537973" lon="-3.3815245570076056"><ele>651.5</ele><time>2026-05-01T10:05:21Z</time></trkpt><trkpt lat="39.315115354433274" lon="-3.3815250774607355"><ele>651.3333333333334</ele><time>2026-05-01T10:05:22Z</time></trkpt><trkpt lat="39.315052042792686" lon="-3.3814971193304486"><ele>651.1666666666666</ele><time>2026-05-01T10:05:23Z</time></trkpt><trkpt lat="39.31498830735828" lon="-3.381481603853019"><ele>651.0</ele><time>2026-05-01T10:05:24Z</time></trkpt><trkpt lat="39.31486076064424" lon="-3.381459982675384"><ele>651.0</ele><time>2026-05-01T10:05:26Z</time></trkpt><trkpt lat="39.314798541416096" lon="-3.3814457352466754"><ele>651.0</ele><time>2026-05-01T10:05:27Z</time></trkpt><trkpt lat="39.314685300668586" lon="-3.3814211577167357"><ele>651.0</ele><time>2026-05-01T10:05:29Z</time></trkpt><trkpt lat="39.3146173361773" lon="-3.3814112181591014"><ele>651.0</ele><time>2026-05-01T10:05:30Z</time></trkpt><trkpt lat="39.3145264874079" lon="-3.3814099757329994"><ele>651.0</ele><time>2026-05-01T10:05:32Z</time></trkpt><trkpt lat="39.31443595875302" lon="-3.3813960609602534"><ele>651.0</ele><time>2026-05-01T10:05:34Z</time></trkpt><trkpt lat="39.3143559021587" lon="-3.381379328796023"><ele>650.1999999999999</ele><time>2026-05-01T10:05:36Z</time></trkpt><trkpt lat="39.31428079871569" lon="-3.3813318357311513"><ele>649.4</ele><time>2026-05-01T10:05:38Z</time></trkpt><trkpt lat="39.31426924856741" lon="-3.381159936196404"><ele>648.6</ele><time>2026-05-01T10:05:40Z</time></trkpt><trkpt lat="39.314307353646484" lon="-3.3810814965758444"><ele>647.8</ele><time>2026-05-01T10:05:41Z</time></trkpt><trkpt lat="39.31434830729157" lon="-3.380967886429101"><ele>647.0</ele><time>2026-05-01T10:05:42Z</time></trkpt><trkpt lat="39.314400857268744" lon="-3.3808115671119463"><ele>647.0</ele><time>2026-05-01T10:05:43Z</time></trkpt><trkpt lat="39.31444308366726" lon="-3.3806200988623467"><ele>647.0</ele><time>2026-05-01T10:05:44Z</time></trkpt><trkpt lat="39.314503851063854" lon="-3.380459433022475"><ele>647.0</ele><time>2026-05-01T10:05:45Z</time></trkpt><trkpt lat="39.314552653720426" lon="-3.3803371379808547"><ele>647.0</ele><time>2026-05-01T10:05:46Z</time></trkpt><trkpt lat="39.31458017052565" lon="-3.380227086275275"><ele>646.8333333333333</ele><time>2026-05-01T10:05:47Z</time></trkpt><trkpt lat="39.31463546475002" lon="-3.380130912246962"><ele>646.6666666666666</ele><time>2026-05-01T10:05:48Z</time></trkpt><trkpt lat="39.31465579257589" lon="-3.380052571197667"><ele>646.5</ele><time>2026-05-01T10:05:49Z</time></trkpt><trkpt lat="39.31471710803468" lon="-3.379957909413644"><ele>646.3333333333334</ele><time>2026-05-01T10:05:51Z</time></trkpt><trkpt lat="39.314743485187805" lon="-3.3798498905858554"><ele>646.1666666666667</ele><time>2026-05-01T10:05:54Z</time></trkpt><trkpt lat="39.31479219861281" lon="-3.379753693567249"><ele>646.0</ele><time>2026-05-01T10:05:56Z</time></trkpt><trkpt lat="39.31480457261347" lon="-3.379648891034439"><ele>645.0</ele><time>2026-05-01T10:05:57Z</time></trkpt><trkpt lat="39.31499494210316" lon="-3.3796164710976506"><ele>644.0</ele><time>2026-05-01T10:05:58Z</time></trkpt><trkpt lat="39.315123486947456" lon="-3.379552125486978"><ele>643.0</ele><time>2026-05-01T10:05:59Z</time></trkpt><trkpt lat="39.31525460243246" lon="-3.3794984544777953"><ele>643.0</ele><time>2026-05-01T10:06:00Z</time></trkpt><trkpt lat="39.31541111891792" lon="-3.3794360023356034"><ele>643.0</ele><time>2026-05-01T10:06:01Z</time></trkpt><trkpt lat="39.31557642550272" lon="-3.3793343724026235"><ele>643.0</ele><time>2026-05-01T10:06:02Z</time></trkpt><trkpt lat="39.31571066530326" lon="-3.379216666277637"><ele>644.3333333333334</ele><time>2026-05-01T10:06:03Z</time></trkpt><trkpt lat="39.31583689865928" lon="-3.3790809843612655"><ele>645.6666666666666</ele><time>2026-05-01T10:06:04Z</time></trkpt><trkpt lat="39.31597490119162" lon="-3.378953880903692"><ele>647.0</ele><time>2026-05-01T10:06:05Z</time></trkpt><trkpt lat="39.31612903373795" lon="-3.378798392053618"><ele>647.0</ele><time>2026-05-01T10:06:06Z</time></trkpt><trkpt lat="39.316284665744874" lon="-3.3786258796036113"><ele>647.0</ele><time>2026-05-01T10:06:07Z</time></trkpt><trkpt lat="39.31644443115877" lon="-3.378446414582157"><ele>647.0</ele><time>2026-05-01T10:06:08Z</time></trkpt><trkpt lat="39.31660017063852" lon="-3.378258813122461"><ele>647.0</ele><time>2026-05-01T10:06:09Z</time></trkpt><trkpt lat="39.31675685554525" lon="-3.378073068524961"><ele>647.0</ele><time>2026-05-01T10:06:10Z</time></trkpt><trkpt lat="39.31691742435232" lon="-3.377888244207677"><ele>647.0</ele><time>2026-05-01T10:06:11Z</time></trkpt><trkpt lat="39.31708192691298" lon="-3.37769825988515"><ele>647.6666666666666</ele><time>2026-05-01T10:06:12Z</time></trkpt><trkpt lat="39.3172454931838" lon="-3.3775096005463148"><ele>648.3333333333334</ele><time>2026-05-01T10:06:13Z</time></trkpt><trkpt lat="39.317396387299624" lon="-3.377298324392635"><ele>649.0</ele><time>2026-05-01T10:06:14Z</time></trkpt><trkpt lat="39.31758225069778" lon="-3.3771070761304225"><ele>649.0</ele><time>2026-05-01T10:06:15Z</time></trkpt><trkpt lat="39.31777267971286" lon="-3.3768785743202905"><ele>649.0</ele><time>2026-05-01T10:06:16Z</time></trkpt><trkpt lat="39.317967002125506" lon="-3.376645382692116"><ele>650.0</ele><time>2026-05-01T10:06:17Z</time></trkpt><trkpt lat="39.318155008948295" lon="-3.3764256373885537"><ele>651.0</ele><time>2026-05-01T10:06:18Z</time></trkpt><trkpt lat="39.31833439287783" lon="-3.3762080073017673"><ele>651.0</ele><time>2026-05-01T10:06:19Z</time></trkpt><trkpt lat="39.318512957448576" lon="-3.375994031883961"><ele>651.0</ele><time>2026-05-01T10:06:20Z</time></trkpt><trkpt lat="39.31868665219937" lon="-3.37578830459489"><ele>651.0</ele><time>2026-05-01T10:06:21Z</time></trkpt><trkpt lat="39.318865580332385" lon="-3.3755944361778005"><ele>651.0</ele><time>2026-05-01T10:06:22Z</time></trkpt><trkpt lat="39.319054683615214" lon="-3.3754128002075148"><ele>651.5</ele><time>2026-05-01T10:06:23Z</time></trkpt><trkpt lat="39.31925036672631" lon="-3.375256688909276"><ele>652.0</ele><time>2026-05-01T10:06:24Z</time></trkpt><trkpt lat="39.31945918137215" lon="-3.3751030151531682"><ele>652.0</ele><time>2026-05-01T10:06:25Z</time></trkpt><trkpt lat="39.31967176819953" lon="-3.3749477770470855"><ele>652.0</ele><time>2026-05-01T10:06:26Z</time></trkpt><trkpt lat="39.319888516861354" lon="-3.3747754716339378"><ele>651.0</ele><time>2026-05-01T10:06:27Z</time></trkpt><trkpt lat="39.320110915138805" lon="-3.3745530345305093"><ele>650.0</ele><time>2026-05-01T10:06:28Z</time></trkpt><trkpt lat="39.320315819730084" lon="-3.3743374677472815"><ele>650.0</ele><time>2026-05-01T10:06:29Z</time></trkpt><trkpt lat="39.320500844346086" lon="-3.374132385012855"><ele>650.0</ele><time>2026-05-01T10:06:30Z</time></trkpt><trkpt lat="39.3206852544261" lon="-3.373923576228264"><ele>649.0</ele><time>2026-05-01T10:06:31Z</time></trkpt><trkpt lat="39.32085704117991" lon="-3.37372995908113"><ele>648.0</ele><time>2026-05-01T10:06:32Z</time></trkpt><trkpt lat="39.32103884376393" lon="-3.3735536117560816"><ele>648.0</ele><time>2026-05-01T10:06:33Z</time></trkpt><trkpt lat="39.321207787913465" lon="-3.3733603431930494"><ele>648.0</ele><time>2026-05-01T10:06:34Z</time></trkpt><trkpt lat="39.32137424821439" lon="-3.3731654727107663"><ele>649.0</ele><time>2026-05-01T10:06:35Z</time></trkpt><trkpt lat="39.32154044837779" lon="-3.3729639394794946"><ele>650.0</ele><time>2026-05-01T10:06:36Z</time></trkpt><trkpt lat="39.321678659154166" lon="-3.3727323228230564"><ele>650.0</ele><time>2026-05-01T10:06:37Z</time></trkpt><trkpt lat="39.321822432889995" lon="-3.372481964541536"><ele>650.0</ele><time>2026-05-01T10:06:38Z</time></trkpt><trkpt lat="39.321960840055375" lon="-3.372211357699599"><ele>650.0</ele><time>2026-05-01T10:06:39Z</time></trkpt><trkpt lat="39.32209230555765" lon="-3.371951688836047"><ele>650.0</ele><time>2026-05-01T10:06:40Z</time></trkpt><trkpt lat="39.32223055573741" lon="-3.3717312548340432"><ele>650.5</ele><time>2026-05-01T10:06:41Z</time></trkpt><trkpt lat="39.32235828409723" lon="-3.3714964824243787"><ele>651.0</ele><time>2026-05-01T10:06:42Z</time></trkpt><trkpt lat="39.32250771922291" lon="-3.371269398159118"><ele>651.0</ele><time>2026-05-01T10:06:43Z</time></trkpt><trkpt lat="39.32267319598511" lon="-3.37105795716092"><ele>651.0</ele><time>2026-05-01T10:06:44Z</time></trkpt><trkpt lat="39.32285592962343" lon="-3.3708625466462605"><ele>651.0</ele><time>2026-05-01T10:06:45Z</time></trkpt><trkpt lat="39.32304603013904" lon="-3.370677386493879"><ele>651.0</ele><time>2026-05-01T10:06:46Z</time></trkpt><trkpt lat="39.32321693130243" lon="-3.370519095247979"><ele>651.0</ele><time>2026-05-01T10:06:47Z</time></trkpt><trkpt lat="39.32337603934297" lon="-3.3703644166876034"><ele>650.6666666666666</ele><time>2026-05-01T10:06:48Z</time></trkpt><trkpt lat="39.32352093675408" lon="-3.37021960143019"><ele>650.3333333333333</ele><time>2026-05-01T10:06:49Z</time></trkpt><trkpt lat="39.32366248419272" lon="-3.3700877479365534"><ele>650.0</ele><time>2026-05-01T10:06:50Z</time></trkpt><trkpt lat="39.32381062029659" lon="-3.3699644938605346"><ele>650.6666666666666</ele><time>2026-05-01T10:06:51Z</time></trkpt><trkpt lat="39.323983958493635" lon="-3.369839863923768"><ele>651.3333333333334</ele><time>2026-05-01T10:06:52Z</time></trkpt><trkpt lat="39.3241826952407" lon="-3.3697164922421328"><ele>652.0</ele><time>2026-05-01T10:06:53Z</time></trkpt><trkpt lat="39.324400648364985" lon="-3.369607270205767"><ele>651.0</ele><time>2026-05-01T10:06:54Z</time></trkpt><trkpt lat="39.32464152180662" lon="-3.369471700377171"><ele>650.0</ele><time>2026-05-01T10:06:55Z</time></trkpt><trkpt lat="39.32488701455004" lon="-3.3693309285295014"><ele>650.0</ele><time>2026-05-01T10:06:56Z</time></trkpt><trkpt lat="39.32513618433502" lon="-3.3691973266876"><ele>650.0</ele><time>2026-05-01T10:06:57Z</time></trkpt><trkpt lat="39.32540514594863" lon="-3.369050018568045"><ele>650.5</ele><time>2026-05-01T10:06:58Z</time></trkpt><trkpt lat="39.32566881222288" lon="-3.3689002191521435"><ele>651.0</ele><time>2026-05-01T10:06:59Z</time></trkpt><trkpt lat="39.325904793126135" lon="-3.368776571255836"><ele>649.5</ele><time>2026-05-01T10:07:00Z</time></trkpt><trkpt lat="39.32612694786405" lon="-3.3686647988522305"><ele>648.0</ele><time>2026-05-01T10:07:01Z</time></trkpt><trkpt lat="39.32632997212362" lon="-3.3685559582278386"><ele>647.6666666666666</ele><time>2026-05-01T10:07:02Z</time></trkpt><trkpt lat="39.32651770039899" lon="-3.3684436304426786"><ele>647.3333333333333</ele><time>2026-05-01T10:07:03Z</time></trkpt><trkpt lat="39.32669893089007" lon="-3.3683356147199794"><ele>647.0</ele><time>2026-05-01T10:07:04Z</time></trkpt><trkpt lat="39.326876434669444" lon="-3.368242677120333"><ele>647.0</ele><time>2026-05-01T10:07:05Z</time></trkpt><trkpt lat="39.3270706503556" lon="-3.3681743341106167"><ele>647.0</ele><time>2026-05-01T10:07:06Z</time></trkpt><trkpt lat="39.32727685719807" lon="-3.368116067383055"><ele>647.0</ele><time>2026-05-01T10:07:07Z</time></trkpt><trkpt lat="39.32748988216925" lon="-3.3680761475045005"><ele>648.3333333333333</ele><time>2026-05-01T10:07:08Z</time></trkpt><trkpt lat="39.32770497816889" lon="-3.3680162206594453"><ele>649.6666666666666</ele><time>2026-05-01T10:07:09Z</time></trkpt><trkpt lat="39.327928009324296" lon="-3.3679791877292433"><ele>651.0</ele><time>2026-05-01T10:07:10Z</time></trkpt><trkpt lat="39.3281622178243" lon="-3.3679578612639216"><ele>652.5</ele><time>2026-05-01T10:07:11Z</time></trkpt><trkpt lat="39.32841276011555" lon="-3.3679172965035775"><ele>654.0</ele><time>2026-05-01T10:07:12Z</time></trkpt><trkpt lat="39.32865437619458" lon="-3.367876058415571"><ele>656.0</ele><time>2026-05-01T10:07:13Z</time></trkpt><trkpt lat="39.3289071288209" lon="-3.367837222521701"><ele>658.0</ele><time>2026-05-01T10:07:14Z</time></trkpt><trkpt lat="39.32916320987239" lon="-3.3677928427413546"><ele>658.0</ele><time>2026-05-01T10:07:15Z</time></trkpt><trkpt lat="39.32944424761233" lon="-3.3677451584023266"><ele>658.0</ele><time>2026-05-01T10:07:16Z</time></trkpt><trkpt lat="39.32972568485802" lon="-3.3676973535426087"><ele>657.0</ele><time>2026-05-01T10:07:17Z</time></trkpt><trkpt lat="39.330019095167096" lon="-3.367649391656906"><ele>656.0</ele><time>2026-05-01T10:07:18Z</time></trkpt><trkpt lat="39.330321896264" lon="-3.3676032664305207"><ele>657.5</ele><time>2026-05-01T10:07:19Z</time></trkpt><trkpt lat="39.33063722446864" lon="-3.367555984888577"><ele>659.0</ele><time>2026-05-01T10:07:20Z</time></trkpt><trkpt lat="39.33093432631051" lon="-3.367506972184909"><ele>659.0</ele><time>2026-05-01T10:07:21Z</time></trkpt><trkpt lat="39.33120172379072" lon="-3.3674601283373202"><ele>659.0</ele><time>2026-05-01T10:07:22Z</time></trkpt><trkpt lat="39.33144991420671" lon="-3.367418950265519"><ele>659.5</ele><time>2026-05-01T10:07:23Z</time></trkpt><trkpt lat="39.33168753790338" lon="-3.3673842598253323"><ele>660.0</ele><time>2026-05-01T10:07:24Z</time></trkpt><trkpt lat="39.331922654747956" lon="-3.367348423907671"><ele>660.0</ele><time>2026-05-01T10:07:25Z</time></trkpt><trkpt lat="39.332185005932914" lon="-3.36730998729483"><ele>660.0</ele><time>2026-05-01T10:07:26Z</time></trkpt><trkpt lat="39.33243844676507" lon="-3.367268806487409"><ele>660.0</ele><time>2026-05-01T10:07:27Z</time></trkpt><trkpt lat="39.33265198956989" lon="-3.3672317867387336"><ele>660.0</ele><time>2026-05-01T10:07:28Z</time></trkpt><trkpt lat="39.33280232456109" lon="-3.367204370610613"><ele>660.0</ele><time>2026-05-01T10:07:29Z</time></trkpt><trkpt lat="39.33292058908798" lon="-3.3671785462382458"><ele>660.0</ele><time>2026-05-01T10:07:30Z</time></trkpt><trkpt lat="39.33302425692865" lon="-3.367152566118943"><ele>660.0</ele><time>2026-05-01T10:07:31Z</time></trkpt><trkpt lat="39.33313424625776" lon="-3.3671256295858565"><ele>660.0</ele><time>2026-05-01T10:07:32Z</time></trkpt><trkpt lat="39.33323604626724" lon="-3.3670978131317724"><ele>660.0</ele><time>2026-05-01T10:07:33Z</time></trkpt><trkpt lat="39.33335371876665" lon="-3.3670546875283227"><ele>660.0</ele><time>2026-05-01T10:07:34Z</time></trkpt><trkpt lat="39.333481102272195" lon="-3.3669988200712133"><ele>659.6666666666666</ele><time>2026-05-01T10:07:35Z</time></trkpt><trkpt lat="39.33361191458981" lon="-3.366931519802286"><ele>659.3333333333333</ele><time>2026-05-01T10:07:36Z</time></trkpt><trkpt lat="39.333765635481" lon="-3.3668576606693463"><ele>659.0</ele><time>2026-05-01T10:07:37Z</time></trkpt><trkpt lat="39.333926494865736" lon="-3.3667799864727397"><ele>658.6666666666666</ele><time>2026-05-01T10:07:38Z</time></trkpt><trkpt lat="39.33407381495473" lon="-3.366689957531907"><ele>658.3333333333334</ele><time>2026-05-01T10:07:39Z</time></trkpt><trkpt lat="39.33421799165703" lon="-3.366603399712245"><ele>658.0</ele><time>2026-05-01T10:07:40Z</time></trkpt><trkpt lat="39.334355279698286" lon="-3.3665154231955614"><ele>658.0</ele><time>2026-05-01T10:07:41Z</time></trkpt><trkpt lat="39.3344944759402" lon="-3.366420820640444"><ele>658.0</ele><time>2026-05-01T10:07:42Z</time></trkpt><trkpt lat="39.3346348285985" lon="-3.36631620702389"><ele>658.0</ele><time>2026-05-01T10:07:43Z</time></trkpt><trkpt lat="39.33477334047229" lon="-3.3661982629994385"><ele>656.75</ele><time>2026-05-01T10:07:44Z</time></trkpt><trkpt lat="39.33489669636528" lon="-3.3660837820142144"><ele>655.5</ele><time>2026-05-01T10:07:45Z</time></trkpt><trkpt lat="39.33500607646077" lon="-3.3659875303984728"><ele>654.25</ele><time>2026-05-01T10:07:46Z</time></trkpt><trkpt lat="39.33508969373572" lon="-3.3659106312437594"><ele>653.0</ele><time>2026-05-01T10:07:47Z</time></trkpt><trkpt lat="39.33515865947432" lon="-3.3658488488738434"><ele>653.0</ele><time>2026-05-01T10:07:48Z</time></trkpt><trkpt lat="39.33524501201905" lon="-3.3657663932955884"><ele>653.0</ele><time>2026-05-01T10:07:50Z</time></trkpt><trkpt lat="39.33531120688869" lon="-3.3658745453493424"><ele>653.0</ele><time>2026-05-01T10:07:52Z</time></trkpt><trkpt lat="39.335304017983404" lon="-3.365971410136043"><ele>653.0</ele><time>2026-05-01T10:07:54Z</time></trkpt><trkpt lat="39.3353185461776" lon="-3.366150382869368"><ele>653.0</ele><time>2026-05-01T10:07:56Z</time></trkpt><trkpt lat="39.33534872264078" lon="-3.3662372744969464"><ele>653.0</ele><time>2026-05-01T10:07:57Z</time></trkpt><trkpt lat="39.33538663165798" lon="-3.366311806942838"><ele>653.0</ele><time>2026-05-01T10:07:58Z</time></trkpt><trkpt lat="39.33543339085877" lon="-3.366441486889743"><ele>653.0</ele><time>2026-05-01T10:08:00Z</time></trkpt><trkpt lat="39.335479972170795" lon="-3.3665865000390744"><ele>653.0</ele><time>2026-05-01T10:08:02Z</time></trkpt><trkpt lat="39.33550721273523" lon="-3.366700347339485"><ele>653.0</ele><time>2026-05-01T10:08:03Z</time></trkpt><trkpt lat="39.33552526143844" lon="-3.366802751193542"><ele>653.1666666666666</ele><time>2026-05-01T10:08:04Z</time></trkpt><trkpt lat="39.335551511415375" lon="-3.36692191151577"><ele>653.3333333333333</ele><time>2026-05-01T10:08:05Z</time></trkpt><trkpt lat="39.33557141265095" lon="-3.3670208005982407"><ele>653.5</ele><time>2026-05-01T10:08:06Z</time></trkpt><trkpt lat="39.3355880988387" lon="-3.367103870778105"><ele>653.6666666666666</ele><time>2026-05-01T10:08:07Z</time></trkpt><trkpt lat="39.33561188724375" lon="-3.3671833894699885"><ele>653.8333333333334</ele><time>2026-05-01T10:08:08Z</time></trkpt><trkpt lat="39.33564808760657" lon="-3.367324437748322"><ele>654.0</ele><time>2026-05-01T10:08:10Z</time></trkpt><trkpt lat="39.33566694861719" lon="-3.3674481623733428"><ele>654.1428571428571</ele><time>2026-05-01T10:08:12Z</time></trkpt><trkpt lat="39.33566203082255" lon="-3.3675491253728502"><ele>654.2857142857143</ele><time>2026-05-01T10:08:14Z</time></trkpt><trkpt lat="39.335615130904976" lon="-3.3676188281417123"><ele>654.4285714285714</ele><time>2026-05-01T10:08:16Z</time></trkpt><trkpt lat="39.3355525672749" lon="-3.3676536974704008"><ele>654.5714285714286</ele><time>2026-05-01T10:08:18Z</time></trkpt><trkpt lat="39.3354841267261" lon="-3.367699526871747"><ele>654.7142857142857</ele><time>2026-05-01T10:08:20Z</time></trkpt><trkpt lat="39.33551176830552" lon="-3.3677826454037465"><ele>654.8571428571429</ele><time>2026-05-01T10:08:23Z</time></trkpt><trkpt lat="39.335579219915225" lon="-3.3677853396926833"><ele>655.0</ele><time>2026-05-01T10:08:25Z</time></trkpt><trkpt lat="39.33565643182408" lon="-3.3677907315156643"><ele>654.8</ele><time>2026-05-01T10:08:26Z</time></trkpt><trkpt lat="39.335750218931985" lon="-3.3678084458249766"><ele>654.6</ele><time>2026-05-01T10:08:27Z</time></trkpt><trkpt lat="39.33584751655761" lon="-3.367840146822244"><ele>654.4000000000001</ele><time>2026-05-01T10:08:28Z</time></trkpt><trkpt lat="39.3359275395414" lon="-3.3678904902623517"><ele>654.2</ele><time>2026-05-01T10:08:29Z</time></trkpt><trkpt lat="39.33600664062388" lon="-3.3679652794193538"><ele>654.0</ele><time>2026-05-01T10:08:30Z</time></trkpt><trkpt lat="39.33608454995108" lon="-3.368045465998046"><ele>654.0</ele><time>2026-05-01T10:08:31Z</time></trkpt><trkpt lat="39.33617120094334" lon="-3.3681229943915545"><ele>654.0</ele><time>2026-05-01T10:08:32Z</time></trkpt><trkpt lat="39.33626162812414" lon="-3.3681505399891805"><ele>654.0</ele><time>2026-05-01T10:08:33Z</time></trkpt><trkpt lat="39.33636557828127" lon="-3.3681665730390846"><ele>654.0</ele><time>2026-05-01T10:08:34Z</time></trkpt><trkpt lat="39.33646659034775" lon="-3.3681687858465175"><ele>654.0</ele><time>2026-05-01T10:08:35Z</time></trkpt><trkpt lat="39.3365771568229" lon="-3.368165508590774"><ele>653.75</ele><time>2026-05-01T10:08:36Z</time></trkpt><trkpt lat="39.33670707559406" lon="-3.368162009089717"><ele>653.5</ele><time>2026-05-01T10:08:37Z</time></trkpt><trkpt lat="39.33683368923498" lon="-3.3681586090498863"><ele>653.25</ele><time>2026-05-01T10:08:38Z</time></trkpt><trkpt lat="39.33695476316789" lon="-3.36815536467476"><ele>653.0</ele><time>2026-05-01T10:08:39Z</time></trkpt><trkpt lat="39.337073474617696" lon="-3.3681565271185243"><ele>653.0</ele><time>2026-05-01T10:08:40Z</time></trkpt><trkpt lat="39.33719234831597" lon="-3.368159580951317"><ele>653.0</ele><time>2026-05-01T10:08:41Z</time></trkpt><trkpt lat="39.33730482880743" lon="-3.36816449438092"><ele>653.0</ele><time>2026-05-01T10:08:42Z</time></trkpt><trkpt lat="39.337413717920704" lon="-3.368171035802159"><ele>653.0</ele><time>2026-05-01T10:08:43Z</time></trkpt><trkpt lat="39.3375245551644" lon="-3.368178458025302"><ele>653.25</ele><time>2026-05-01T10:08:44Z</time></trkpt><trkpt lat="39.33763719351937" lon="-3.368186173401034"><ele>653.5</ele><time>2026-05-01T10:08:45Z</time></trkpt><trkpt lat="39.33776612942196" lon="-3.3681960341601127"><ele>653.75</ele><time>2026-05-01T10:08:46Z</time></trkpt><trkpt lat="39.33787958543201" lon="-3.3682047110361624"><ele>654.0</ele><time>2026-05-01T10:08:47Z</time></trkpt><trkpt lat="39.33799411601846" lon="-3.3682339987587744"><ele>653.75</ele><time>2026-05-01T10:08:48Z</time></trkpt><trkpt lat="39.33810932888856" lon="-3.3682416658799466"><ele>653.5</ele><time>2026-05-01T10:08:49Z</time></trkpt><trkpt lat="39.33821791803003" lon="-3.3682298591151048"><ele>653.25</ele><time>2026-05-01T10:08:50Z</time></trkpt><trkpt lat="39.3383283480912" lon="-3.368236180254921"><ele>653.0</ele><time>2026-05-01T10:08:51Z</time></trkpt><trkpt lat="39.33844344209312" lon="-3.36824276835761"><ele>653.0</ele><time>2026-05-01T10:08:52Z</time></trkpt><trkpt lat="39.338534725498164" lon="-3.3682479935281027"><ele>653.0</ele><time>2026-05-01T10:08:53Z</time></trkpt><trkpt lat="39.33863229777206" lon="-3.3682733366011686"><ele>653.0</ele><time>2026-05-01T10:08:54Z</time></trkpt><trkpt lat="39.3387446297242" lon="-3.368281817447101"><ele>653.0</ele><time>2026-05-01T10:08:55Z</time></trkpt><trkpt lat="39.3388646386884" lon="-3.3682690651870195"><ele>653.0</ele><time>2026-05-01T10:08:56Z</time></trkpt><trkpt lat="39.33897268623159" lon="-3.3682932275174746"><ele>652.4</ele><time>2026-05-01T10:08:57Z</time></trkpt><trkpt lat="39.33908267995934" lon="-3.3682914670429693"><ele>651.8</ele><time>2026-05-01T10:08:58Z</time></trkpt><trkpt lat="39.33918800331457" lon="-3.368298454301162"><ele>651.2</ele><time>2026-05-01T10:08:59Z</time></trkpt><trkpt lat="39.339295347661775" lon="-3.368301328767137"><ele>650.6</ele><time>2026-05-01T10:09:00Z</time></trkpt><trkpt lat="39.33939577008619" lon="-3.368301984570559"><ele>650.0</ele><time>2026-05-01T10:09:01Z</time></trkpt><trkpt lat="39.33949159665341" lon="-3.368299525963462"><ele>650.0</ele><time>2026-05-01T10:09:02Z</time></trkpt><trkpt lat="39.33955946760671" lon="-3.3682902313846035"><ele>650.0</ele><time>2026-05-01T10:09:03Z</time></trkpt><trkpt lat="39.33963296138299" lon="-3.368244081423743"><ele>650.0</ele><time>2026-05-01T10:09:04Z</time></trkpt><trkpt lat="39.33970028972927" lon="-3.3682146297700943"><ele>650.0</ele><time>2026-05-01T10:09:05Z</time></trkpt><trkpt lat="39.339762989638636" lon="-3.368183716100737"><ele>650.0</ele><time>2026-05-01T10:09:06Z</time></trkpt><trkpt lat="39.33983674879026" lon="-3.3681402937895535"><ele>650.0</ele><time>2026-05-01T10:09:07Z</time></trkpt><trkpt lat="39.33991768991141" lon="-3.3680922084995495"><ele>650.0</ele><time>2026-05-01T10:09:08Z</time></trkpt><trkpt lat="39.340019632239894" lon="-3.36804046568767"><ele>650.0</ele><time>2026-05-01T10:09:09Z</time></trkpt><trkpt lat="39.34011664112831" lon="-3.367997056819155"><ele>650.0</ele><time>2026-05-01T10:09:10Z</time></trkpt><trkpt lat="39.34022242253344" lon="-3.3679743953654735"><ele>650.0</ele><time>2026-05-01T10:09:11Z</time></trkpt><trkpt lat="39.340329183098035" lon="-3.3679365098098137"><ele>650.0</ele><time>2026-05-01T10:09:12Z</time></trkpt><trkpt lat="39.34044148917367" lon="-3.3679000948311435"><ele>650.75</ele><time>2026-05-01T10:09:13Z</time></trkpt><trkpt lat="39.34056731907795" lon="-3.367860024454068"><ele>651.5</ele><time>2026-05-01T10:09:14Z</time></trkpt><trkpt lat="39.34069563908199" lon="-3.367819338911969"><ele>652.25</ele><time>2026-05-01T10:09:15Z</time></trkpt><trkpt lat="39.34086028763453" lon="-3.3677779965441634"><ele>653.0</ele><time>2026-05-01T10:09:16Z</time></trkpt><trkpt lat="39.3410516978708" lon="-3.3677065734637233"><ele>653.0</ele><time>2026-05-01T10:09:17Z</time></trkpt><trkpt lat="39.34121200107888" lon="-3.3676866616775962"><ele>653.0</ele><time>2026-05-01T10:09:18Z</time></trkpt><trkpt lat="39.34135875728868" lon="-3.367651222185103"><ele>653.0</ele><time>2026-05-01T10:09:19Z</time></trkpt><trkpt lat="39.341502282116" lon="-3.367629118172588"><ele>652.25</ele><time>2026-05-01T10:09:20Z</time></trkpt><trkpt lat="39.34163136196504" lon="-3.3676052505710325"><ele>651.5</ele><time>2026-05-01T10:09:21Z</time></trkpt><trkpt lat="39.34174994424144" lon="-3.3675844496579734"><ele>650.75</ele><time>2026-05-01T10:09:22Z</time></trkpt><trkpt lat="39.34186078852938" lon="-3.367562571494082"><ele>650.0</ele><time>2026-05-01T10:09:23Z</time></trkpt><trkpt lat="39.341978738503485" lon="-3.3675112046229034"><ele>650.0</ele><time>2026-05-01T10:09:24Z</time></trkpt><trkpt lat="39.342106460340105" lon="-3.3674673371097463"><ele>650.0</ele><time>2026-05-01T10:09:25Z</time></trkpt><trkpt lat="39.34224148921126" lon="-3.367446964495763"><ele>650.0</ele><time>2026-05-01T10:09:26Z</time></trkpt><trkpt lat="39.34237343866716" lon="-3.367409236016234"><ele>650.0</ele><time>2026-05-01T10:09:27Z</time></trkpt><trkpt lat="39.342510840171634" lon="-3.36740314094458"><ele>649.75</ele><time>2026-05-01T10:09:28Z</time></trkpt><trkpt lat="39.342643477719164" lon="-3.367405173167541"><ele>649.5</ele><time>2026-05-01T10:09:29Z</time></trkpt><trkpt lat="39.34278900722294" lon="-3.367402869707745"><ele>649.25</ele><time>2026-05-01T10:09:30Z</time></trkpt><trkpt lat="39.34294528775204" lon="-3.367394987511289"><ele>649.0</ele><time>2026-05-01T10:09:31Z</time></trkpt><trkpt lat="39.34311510575891" lon="-3.367383845977845"><ele>649.5</ele><time>2026-05-01T10:09:32Z</time></trkpt><trkpt lat="39.34325957620384" lon="-3.367354141168922"><ele>650.0</ele><time>2026-05-01T10:09:33Z</time></trkpt><trkpt lat="39.34339446025847" lon="-3.3673396134462816"><ele>650.5</ele><time>2026-05-01T10:09:34Z</time></trkpt><trkpt lat="39.34351436396272" lon="-3.367325100303547"><ele>651.0</ele><time>2026-05-01T10:09:35Z</time></trkpt><trkpt lat="39.34362489959027" lon="-3.3673109278051303"><ele>651.0</ele><time>2026-05-01T10:09:36Z</time></trkpt><trkpt lat="39.34375233682752" lon="-3.367306229527459"><ele>651.0</ele><time>2026-05-01T10:09:37Z</time></trkpt><trkpt lat="39.34388584941074" lon="-3.367239655503975"><ele>651.0</ele><time>2026-05-01T10:09:38Z</time></trkpt><trkpt lat="39.344027554370115" lon="-3.367182512808674"><ele>651.0</ele><time>2026-05-01T10:09:39Z</time></trkpt><trkpt lat="39.34417679737787" lon="-3.3671223304634066"><ele>651.25</ele><time>2026-05-01T10:09:40Z</time></trkpt><trkpt lat="39.344342954201935" lon="-3.367056349434561"><ele>651.5</ele><time>2026-05-01T10:09:41Z</time></trkpt><trkpt lat="39.34448056926561" lon="-3.367004238320998"><ele>651.75</ele><time>2026-05-01T10:09:42Z</time></trkpt><trkpt lat="39.34460605202702" lon="-3.3669598866108403"><ele>652.0</ele><time>2026-05-01T10:09:43Z</time></trkpt><trkpt lat="39.34472855595451" lon="-3.366918334583421"><ele>652.75</ele><time>2026-05-01T10:09:44Z</time></trkpt><trkpt lat="39.34484789887293" lon="-3.3668820462098354"><ele>653.5</ele><time>2026-05-01T10:09:45Z</time></trkpt><trkpt lat="39.3449681873521" lon="-3.3668514933122293"><ele>654.25</ele><time>2026-05-01T10:09:46Z</time></trkpt><trkpt lat="39.34507642537472" lon="-3.366847477149715"><ele>655.0</ele><time>2026-05-01T10:09:47Z</time></trkpt><trkpt lat="39.345186869510194" lon="-3.366830758080922"><ele>655.0</ele><time>2026-05-01T10:09:48Z</time></trkpt><trkpt lat="39.345317052968944" lon="-3.3668320742854805"><ele>655.0</ele><time>2026-05-01T10:09:49Z</time></trkpt><trkpt lat="39.34546901241139" lon="-3.3668474335165057"><ele>655.0</ele><time>2026-05-01T10:09:50Z</time></trkpt><trkpt lat="39.34561120244306" lon="-3.3668620977727888"><ele>655.0</ele><time>2026-05-01T10:09:51Z</time></trkpt><trkpt lat="39.34573846970048" lon="-3.3668640193535593"><ele>654.25</ele><time>2026-05-01T10:09:52Z</time></trkpt><trkpt lat="39.345870588293586" lon="-3.3668269065974252"><ele>653.5</ele><time>2026-05-01T10:09:53Z</time></trkpt><trkpt lat="39.345997772431616" lon="-3.3667914557668213"><ele>652.75</ele><time>2026-05-01T10:09:54Z</time></trkpt><trkpt lat="39.3461193830682" lon="-3.366764825363455"><ele>652.0</ele><time>2026-05-01T10:09:55Z</time></trkpt><trkpt lat="39.34625447626567" lon="-3.366700326841686"><ele>653.0</ele><time>2026-05-01T10:09:56Z</time></trkpt><trkpt lat="39.34641440286901" lon="-3.3666383161409055"><ele>654.0</ele><time>2026-05-01T10:09:57Z</time></trkpt><trkpt lat="39.346587338626286" lon="-3.366540614480479"><ele>655.0</ele><time>2026-05-01T10:09:58Z</time></trkpt><trkpt lat="39.34673675765162" lon="-3.3664498417793163"><ele>655.0</ele><time>2026-05-01T10:09:59Z</time></trkpt><trkpt lat="39.34686229306639" lon="-3.3663653553343527"><ele>655.0</ele><time>2026-05-01T10:10:00Z</time></trkpt><trkpt lat="39.346986220327175" lon="-3.3662759505230966"><ele>655.0</ele><time>2026-05-01T10:10:01Z</time></trkpt><trkpt lat="39.34714610144054" lon="-3.36616937520061"><ele>654.6666666666667</ele><time>2026-05-01T10:10:02Z</time></trkpt><trkpt lat="39.34732272188938" lon="-3.3660730151843787"><ele>654.3333333333334</ele><time>2026-05-01T10:10:03Z</time></trkpt><trkpt lat="39.34750280903721" lon="-3.3660017611008284"><ele>654.0</ele><time>2026-05-01T10:10:04Z</time></trkpt><trkpt lat="39.347710149517134" lon="-3.3659282624336218"><ele>654.0</ele><time>2026-05-01T10:10:05Z</time></trkpt><trkpt lat="39.347884025018814" lon="-3.3658607197811414"><ele>654.0</ele><time>2026-05-01T10:10:06Z</time></trkpt><trkpt lat="39.34803151428453" lon="-3.365793940837005"><ele>654.0</ele><time>2026-05-01T10:10:07Z</time></trkpt><trkpt lat="39.34817064430359" lon="-3.365699248477898"><ele>654.3333333333334</ele><time>2026-05-01T10:10:08Z</time></trkpt><trkpt lat="39.34829140310041" lon="-3.3655875307786753"><ele>654.6666666666667</ele><time>2026-05-01T10:10:09Z</time></trkpt><trkpt lat="39.348404023534265" lon="-3.3654630689226837"><ele>655.0</ele><time>2026-05-01T10:10:10Z</time></trkpt><trkpt lat="39.34851751572992" lon="-3.3653163352483477"><ele>655.0</ele><time>2026-05-01T10:10:11Z</time></trkpt><trkpt lat="39.34863120269356" lon="-3.3651471833460866"><ele>655.0</ele><time>2026-05-01T10:10:12Z</time></trkpt><trkpt lat="39.34873032242666" lon="-3.3649844790755186"><ele>655.0</ele><time>2026-05-01T10:10:13Z</time></trkpt><trkpt lat="39.34884025333133" lon="-3.3647948078655308"><ele>654.6666666666667</ele><time>2026-05-01T10:10:14Z</time></trkpt><trkpt lat="39.34894753544858" lon="-3.3646110025629055"><ele>654.3333333333334</ele><time>2026-05-01T10:10:15Z</time></trkpt><trkpt lat="39.34906242961207" lon="-3.3644308896079136"><ele>654.0</ele><time>2026-05-01T10:10:16Z</time></trkpt><trkpt lat="39.34917211929694" lon="-3.364283838487295"><ele>654.0</ele><time>2026-05-01T10:10:17Z</time></trkpt><trkpt lat="39.34929733119875" lon="-3.3641567861290644"><ele>654.0</ele><time>2026-05-01T10:10:18Z</time></trkpt><trkpt lat="39.3494503297655" lon="-3.364015358881688"><ele>654.0</ele><time>2026-05-01T10:10:19Z</time></trkpt><trkpt lat="39.349638622104486" lon="-3.3638660612097175"><ele>654.0</ele><time>2026-05-01T10:10:20Z</time></trkpt><trkpt lat="39.34984135405637" lon="-3.3637258373519017"><ele>654.0</ele><time>2026-05-01T10:10:21Z</time></trkpt><trkpt lat="39.350039586551226" lon="-3.3635778606262194"><ele>654.0</ele><time>2026-05-01T10:10:22Z</time></trkpt><trkpt lat="39.35020031208518" lon="-3.363445712132613"><ele>654.0</ele><time>2026-05-01T10:10:23Z</time></trkpt><trkpt lat="39.350333564805524" lon="-3.363351459566199"><ele>654.0</ele><time>2026-05-01T10:10:24Z</time></trkpt><trkpt lat="39.35045560643691" lon="-3.363291861612543"><ele>653.75</ele><time>2026-05-01T10:10:25Z</time></trkpt><trkpt lat="39.35057604403721" lon="-3.3632675560521745"><ele>653.5</ele><time>2026-05-01T10:10:26Z</time></trkpt><trkpt lat="39.35069607027011" lon="-3.3632443773196217"><ele>653.25</ele><time>2026-05-01T10:10:27Z</time></trkpt><trkpt lat="39.35083151693938" lon="-3.3632350126881887"><ele>653.0</ele><time>2026-05-01T10:10:28Z</time></trkpt><trkpt lat="39.350980045447685" lon="-3.3632357516042535"><ele>653.0</ele><time>2026-05-01T10:10:29Z</time></trkpt><trkpt lat="39.35115245526076" lon="-3.363223700947264"><ele>653.0</ele><time>2026-05-01T10:10:30Z</time></trkpt><trkpt lat="39.351341193144115" lon="-3.363230908271708"><ele>653.0</ele><time>2026-05-01T10:10:31Z</time></trkpt><trkpt lat="39.351498220079336" lon="-3.3632165471968243"><ele>653.25</ele><time>2026-05-01T10:10:32Z</time></trkpt><trkpt lat="39.35162786258698" lon="-3.3631751684582"><ele>653.5</ele><time>2026-05-01T10:10:33Z</time></trkpt><trkpt lat="39.35174179684397" lon="-3.363160168592543"><ele>653.75</ele><time>2026-05-01T10:10:34Z</time></trkpt><trkpt lat="39.351837950005795" lon="-3.3630924936878133"><ele>654.0</ele><time>2026-05-01T10:10:35Z</time></trkpt><trkpt lat="39.35192443091071" lon="-3.3630322822953005"><ele>653.5</ele><time>2026-05-01T10:10:36Z</time></trkpt><trkpt lat="39.35200277780706" lon="-3.3629471431521405"><ele>653.0</ele><time>2026-05-01T10:10:37Z</time></trkpt><trkpt lat="39.35209796248639" lon="-3.3628462507717423"><ele>652.5</ele><time>2026-05-01T10:10:38Z</time></trkpt><trkpt lat="39.35220707831891" lon="-3.362719428487296"><ele>652.0</ele><time>2026-05-01T10:10:39Z</time></trkpt><trkpt lat="39.352363242834336" lon="-3.362562618033758"><ele>652.0</ele><time>2026-05-01T10:10:40Z</time></trkpt><trkpt lat="39.35252378382141" lon="-3.3624366610563663"><ele>652.0</ele><time>2026-05-01T10:10:41Z</time></trkpt><trkpt lat="39.352694006067914" lon="-3.362325807302048"><ele>652.0</ele><time>2026-05-01T10:10:42Z</time></trkpt><trkpt lat="39.35286045864755" lon="-3.3622322615134013"><ele>651.6666666666667</ele><time>2026-05-01T10:10:43Z</time></trkpt><trkpt lat="39.35300749459689" lon="-3.3621492789204783"><ele>651.3333333333334</ele><time>2026-05-01T10:10:44Z</time></trkpt><trkpt lat="39.353156266530874" lon="-3.3620628215428847"><ele>651.0</ele><time>2026-05-01T10:10:45Z</time></trkpt><trkpt lat="39.35333109125299" lon="-3.361960419477193"><ele>651.0</ele><time>2026-05-01T10:10:46Z</time></trkpt><trkpt lat="39.35350080770659" lon="-3.3618543980342808"><ele>651.0</ele><time>2026-05-01T10:10:47Z</time></trkpt><trkpt lat="39.35366855111542" lon="-3.3617381727669438"><ele>651.0</ele><time>2026-05-01T10:10:48Z</time></trkpt><trkpt lat="39.35385881585042" lon="-3.3616005997322698"><ele>650.5</ele><time>2026-05-01T10:10:49Z</time></trkpt><trkpt lat="39.35406844900991" lon="-3.3614453662708046"><ele>650.0</ele><time>2026-05-01T10:10:50Z</time></trkpt><trkpt lat="39.35427625875585" lon="-3.361288144794306"><ele>649.6666666666666</ele><time>2026-05-01T10:10:51Z</time></trkpt><trkpt lat="39.35443532653777" lon="-3.3611640889612935"><ele>649.3333333333334</ele><time>2026-05-01T10:10:52Z</time></trkpt><trkpt lat="39.35457586661085" lon="-3.361042960837612"><ele>649.0</ele><time>2026-05-01T10:10:53Z</time></trkpt><trkpt lat="39.354700432350604" lon="-3.3609255797615005"><ele>648.6666666666667</ele><time>2026-05-01T10:10:54Z</time></trkpt><trkpt lat="39.354836111180106" lon="-3.360778898760195"><ele>648.3333333333334</ele><time>2026-05-01T10:10:55Z</time></trkpt><trkpt lat="39.35499159561248" lon="-3.3605912796673882"><ele>648.0</ele><time>2026-05-01T10:10:56Z</time></trkpt><trkpt lat="39.35513140844051" lon="-3.3604146169584412"><ele>648.0</ele><time>2026-05-01T10:10:57Z</time></trkpt><trkpt lat="39.35525031204096" lon="-3.3602616125803784"><ele>648.0</ele><time>2026-05-01T10:10:58Z</time></trkpt><trkpt lat="39.35535725964247" lon="-3.3601229594084545"><ele>648.0</ele><time>2026-05-01T10:10:59Z</time></trkpt><trkpt lat="39.35546300651596" lon="-3.359993255262962"><ele>647.75</ele><time>2026-05-01T10:11:00Z</time></trkpt><trkpt lat="39.35557127548338" lon="-3.3598811645539737"><ele>647.5</ele><time>2026-05-01T10:11:01Z</time></trkpt><trkpt lat="39.35568535354179" lon="-3.359797912323919"><ele>647.25</ele><time>2026-05-01T10:11:02Z</time></trkpt><trkpt lat="39.35582383085429" lon="-3.359728845413881"><ele>647.0</ele><time>2026-05-01T10:11:03Z</time></trkpt><trkpt lat="39.35599657249897" lon="-3.3596685556431045"><ele>647.0</ele><time>2026-05-01T10:11:04Z</time></trkpt><trkpt lat="39.35620063963192" lon="-3.3596153845259202"><ele>647.0</ele><time>2026-05-01T10:11:05Z</time></trkpt><trkpt lat="39.356384114475745" lon="-3.3595659486463596"><ele>647.0</ele><time>2026-05-01T10:11:06Z</time></trkpt><trkpt lat="39.3565171738552" lon="-3.359525631569548"><ele>646.8</ele><time>2026-05-01T10:11:07Z</time></trkpt><trkpt lat="39.3566221228775" lon="-3.3594804488984926"><ele>646.6</ele><time>2026-05-01T10:11:08Z</time></trkpt><trkpt lat="39.356715879244504" lon="-3.359409927761702"><ele>646.4</ele><time>2026-05-01T10:11:09Z</time></trkpt><trkpt lat="39.35680269722646" lon="-3.3593142710834734"><ele>646.1999999999999</ele><time>2026-05-01T10:11:10Z</time></trkpt><trkpt lat="39.35688231643814" lon="-3.3592120174423807"><ele>646.0</ele><time>2026-05-01T10:11:11Z</time></trkpt><trkpt lat="39.35697668696595" lon="-3.3590807217159857"><ele>646.0</ele><time>2026-05-01T10:11:12Z</time></trkpt><trkpt lat="39.35705978970788" lon="-3.358954285593619"><ele>646.0</ele><time>2026-05-01T10:11:13Z</time></trkpt><trkpt lat="39.35711734912578" lon="-3.358842461429694"><ele>646.0</ele><time>2026-05-01T10:11:14Z</time></trkpt><trkpt lat="39.35714160818776" lon="-3.3587344159432564"><ele>646.0</ele><time>2026-05-01T10:11:15Z</time></trkpt><trkpt lat="39.35715500041351" lon="-3.358628119872393"><ele>646.0</ele><time>2026-05-01T10:11:16Z</time></trkpt><trkpt lat="39.35716373542406" lon="-3.3585277247044103"><ele>646.1999999999999</ele><time>2026-05-01T10:11:17Z</time></trkpt><trkpt lat="39.35717287089068" lon="-3.358435475421359"><ele>646.4</ele><time>2026-05-01T10:11:18Z</time></trkpt><trkpt lat="39.35718182422609" lon="-3.35834506566762"><ele>646.6</ele><time>2026-05-01T10:11:19Z</time></trkpt><trkpt lat="39.357193410602434" lon="-3.358204323773443"><ele>646.8</ele><time>2026-05-01T10:11:21Z</time></trkpt><trkpt lat="39.357199475980856" lon="-3.358122447670342"><ele>647.0</ele><time>2026-05-01T10:11:24Z</time></trkpt><trkpt lat="39.35735455478732" lon="-3.358015872868816"><ele>647.75</ele><time>2026-05-01T10:11:37Z</time></trkpt><trkpt lat="39.35745672697522" lon="-3.3579750219883744"><ele>648.5</ele><time>2026-05-01T10:11:38Z</time></trkpt><trkpt lat="39.357604866620456" lon="-3.35793325011554"><ele>649.25</ele><time>2026-05-01T10:11:39Z</time></trkpt><trkpt lat="39.357725109190206" lon="-3.357901258720833"><ele>650.0</ele><time>2026-05-01T10:11:40Z</time></trkpt><trkpt lat="39.35783423604674" lon="-3.357870594937786"><ele>650.0</ele><time>2026-05-01T10:11:41Z</time></trkpt><trkpt lat="39.35793020851079" lon="-3.3578418008722317"><ele>650.0</ele><time>2026-05-01T10:11:42Z</time></trkpt><trkpt lat="39.35801317131632" lon="-3.3578150116574967"><ele>650.0</ele><time>2026-05-01T10:11:43Z</time></trkpt><trkpt lat="39.358088592981744" lon="-3.357792459228596"><ele>650.0</ele><time>2026-05-01T10:11:44Z</time></trkpt><trkpt lat="39.358163226680624" lon="-3.3577697833583273"><ele>650.0</ele><time>2026-05-01T10:11:45Z</time></trkpt><trkpt lat="39.35822648132222" lon="-3.357757080318099"><ele>650.0</ele><time>2026-05-01T10:11:46Z</time></trkpt><trkpt lat="39.358307255868816" lon="-3.3577294701699283"><ele>649.6666666666666</ele><time>2026-05-01T10:11:47Z</time></trkpt><trkpt lat="39.35838522207048" lon="-3.35769246955286"><ele>649.3333333333333</ele><time>2026-05-01T10:11:48Z</time></trkpt><trkpt lat="39.358460891410495" lon="-3.357647673841143"><ele>649.0</ele><time>2026-05-01T10:11:49Z</time></trkpt><trkpt lat="39.35853172560343" lon="-3.3575857481410534"><ele>648.6666666666666</ele><time>2026-05-01T10:11:50Z</time></trkpt><trkpt lat="39.35859132628773" lon="-3.3575148818765896"><ele>648.3333333333334</ele><time>2026-05-01T10:11:51Z</time></trkpt><trkpt lat="39.35868763348939" lon="-3.35752143145277"><ele>648.0</ele><time>2026-05-01T10:11:52Z</time></trkpt><trkpt lat="39.358802600712046" lon="-3.357527209005522"><ele>647.3333333333334</ele><time>2026-05-01T10:11:53Z</time></trkpt><trkpt lat="39.3589548549228" lon="-3.3575360015036093"><ele>646.6666666666667</ele><time>2026-05-01T10:11:54Z</time></trkpt><trkpt lat="39.35912860421391" lon="-3.357498856692319"><ele>646.0</ele><time>2026-05-01T10:11:55Z</time></trkpt><trkpt lat="39.359279060564454" lon="-3.3574172944539056"><ele>646.0</ele><time>2026-05-01T10:11:56Z</time></trkpt><trkpt lat="39.35939657273704" lon="-3.3573971953287742"><ele>646.0</ele><time>2026-05-01T10:11:57Z</time></trkpt><trkpt lat="39.35949461700358" lon="-3.3573652515067294"><ele>646.0</ele><time>2026-05-01T10:11:58Z</time></trkpt><trkpt lat="39.35959175075904" lon="-3.3573423075166486"><ele>646.0</ele><time>2026-05-01T10:11:59Z</time></trkpt><trkpt lat="39.3596886182371" lon="-3.357310834534749"><ele>646.0</ele><time>2026-05-01T10:12:00Z</time></trkpt><trkpt lat="39.35977378560795" lon="-3.357284754483836"><ele>646.1666666666667</ele><time>2026-05-01T10:12:01Z</time></trkpt><trkpt lat="39.3598491088481" lon="-3.357257483350976"><ele>646.3333333333334</ele><time>2026-05-01T10:12:02Z</time></trkpt><trkpt lat="39.359923270308414" lon="-3.357236411617466"><ele>646.5</ele><time>2026-05-01T10:12:03Z</time></trkpt><trkpt lat="39.360012844822855" lon="-3.3572077440399806"><ele>646.6666666666666</ele><time>2026-05-01T10:12:04Z</time></trkpt><trkpt lat="39.360101324047584" lon="-3.3571768141194474"><ele>646.8333333333333</ele><time>2026-05-01T10:12:05Z</time></trkpt><trkpt lat="39.36019853634632" lon="-3.357144303869609"><ele>647.0</ele><time>2026-05-01T10:12:06Z</time></trkpt><trkpt lat="39.360309021494025" lon="-3.3571102589601423"><ele>647.2</ele><time>2026-05-01T10:12:07Z</time></trkpt><trkpt lat="39.36042034468724" lon="-3.357068455212619"><ele>647.4000000000001</ele><time>2026-05-01T10:12:08Z</time></trkpt><trkpt lat="39.3605205393739" lon="-3.357038116126852"><ele>647.5999999999999</ele><time>2026-05-01T10:12:09Z</time></trkpt><trkpt lat="39.360617078316956" lon="-3.357008088828306"><ele>647.8</ele><time>2026-05-01T10:12:10Z</time></trkpt><trkpt lat="39.360709524688076" lon="-3.3569749099966444"><ele>648.0</ele><time>2026-05-01T10:12:11Z</time></trkpt><trkpt lat="39.36080011905431" lon="-3.3569412711460402"><ele>648.0</ele><time>2026-05-01T10:12:12Z</time></trkpt><trkpt lat="39.36088914753901" lon="-3.356915468863314"><ele>648.0</ele><time>2026-05-01T10:12:13Z</time></trkpt><trkpt lat="39.3609741470619" lon="-3.356881635526389"><ele>648.0</ele><time>2026-05-01T10:12:14Z</time></trkpt><trkpt lat="39.361062550321755" lon="-3.3568551227946384"><ele>648.0</ele><time>2026-05-01T10:12:15Z</time></trkpt><trkpt lat="39.36114260082785" lon="-3.3568254432497424"><ele>648.0</ele><time>2026-05-01T10:12:16Z</time></trkpt><trkpt lat="39.36122259664526" lon="-3.3567974546054535"><ele>648.0</ele><time>2026-05-01T10:12:17Z</time></trkpt><trkpt lat="39.36130873953323" lon="-3.356764667793443"><ele>648.6666666666666</ele><time>2026-05-01T10:12:18Z</time></trkpt><trkpt lat="39.3613860266945" lon="-3.3567416686913667"><ele>649.3333333333334</ele><time>2026-05-01T10:12:19Z</time></trkpt><trkpt lat="39.36146458666012" lon="-3.3567143849232224"><ele>650.0</ele><time>2026-05-01T10:12:20Z</time></trkpt><trkpt lat="39.36153996856261" lon="-3.356683355282044"><ele>650.6666666666667</ele><time>2026-05-01T10:12:21Z</time></trkpt><trkpt lat="39.36161753393417" lon="-3.3566628674925716"><ele>651.3333333333334</ele><time>2026-05-01T10:12:22Z</time></trkpt><trkpt lat="39.36169404714492" lon="-3.356639901342657"><ele>652.0</ele><time>2026-05-01T10:12:23Z</time></trkpt><trkpt lat="39.361769116131086" lon="-3.3566200975061387"><ele>652.0</ele><time>2026-05-01T10:12:24Z</time></trkpt><trkpt lat="39.3618434145992" lon="-3.3565691586310047"><ele>652.0</ele><time>2026-05-01T10:12:25Z</time></trkpt><trkpt lat="39.36194195835195" lon="-3.356529066639101"><ele>652.0</ele><time>2026-05-01T10:12:26Z</time></trkpt><trkpt lat="39.36203637670077" lon="-3.3564906547087254"><ele>652.0</ele><time>2026-05-01T10:12:27Z</time></trkpt><trkpt lat="39.362126181464554" lon="-3.356452936579998"><ele>652.0</ele><time>2026-05-01T10:12:28Z</time></trkpt><trkpt lat="39.36220185162712" lon="-3.3564215576566196"><ele>652.0</ele><time>2026-05-01T10:12:29Z</time></trkpt><trkpt lat="39.36227979243294" lon="-3.3564035345846577"><ele>652.0</ele><time>2026-05-01T10:12:30Z</time></trkpt><trkpt lat="39.36236082911691" lon="-3.3563650490917043"><ele>652.0</ele><time>2026-05-01T10:12:31Z</time></trkpt><trkpt lat="39.36243970471334" lon="-3.356332561859177"><ele>652.0</ele><time>2026-05-01T10:12:32Z</time></trkpt><trkpt lat="39.36251617885908" lon="-3.3562980016539905"><ele>652.0</ele><time>2026-05-01T10:12:33Z</time></trkpt><trkpt lat="39.36258384792626" lon="-3.3562685928215137"><ele>652.0</ele><time>2026-05-01T10:12:34Z</time></trkpt><trkpt lat="39.362646785533656" lon="-3.356241381641891"><ele>652.0</ele><time>2026-05-01T10:12:35Z</time></trkpt><trkpt lat="39.36275780424884" lon="-3.35618600237622"><ele>652.0</ele><time>2026-05-01T10:12:37Z</time></trkpt><trkpt lat="39.362873153644564" lon="-3.356149099880577"><ele>652.0</ele><time>2026-05-01T10:12:39Z</time></trkpt><trkpt lat="39.36293993248679" lon="-3.3560361334492037"><ele>652.0</ele><time>2026-05-01T10:12:41Z</time></trkpt><trkpt lat="39.36305061467291" lon="-3.3560019097086675"><ele>651.8333333333334</ele><time>2026-05-01T10:12:43Z</time></trkpt><trkpt lat="39.363114151372145" lon="-3.356006167227067"><ele>651.6666666666667</ele><time>2026-05-01T10:12:44Z</time></trkpt><trkpt lat="39.36317839087703" lon="-3.3560240134713446"><ele>651.5</ele><time>2026-05-01T10:12:45Z</time></trkpt><trkpt lat="39.36324775898778" lon="-3.356024239081801"><ele>651.3333333333334</ele><time>2026-05-01T10:12:46Z</time></trkpt><trkpt lat="39.36329709467536" lon="-3.3559722610314155"><ele>651.1666666666666</ele><time>2026-05-01T10:12:47Z</time></trkpt><trkpt lat="39.36339507258654" lon="-3.355967132113255"><ele>651.0</ele><time>2026-05-01T10:12:49Z</time></trkpt><trkpt lat="39.36350943477521" lon="-3.35597809182016"><ele>651.0</ele><time>2026-05-01T10:12:51Z</time></trkpt><trkpt lat="39.363615100918885" lon="-3.3560299469961836"><ele>651.0</ele><time>2026-05-01T10:12:53Z</time></trkpt><trkpt lat="39.363689490422914" lon="-3.3560542430557954"><ele>651.0</ele><time>2026-05-01T10:12:54Z</time></trkpt><trkpt lat="39.36376410157708" lon="-3.3560991955144472"><ele>651.0</ele><time>2026-05-01T10:12:55Z</time></trkpt><trkpt lat="39.36384761153766" lon="-3.3562071793080404"><ele>651.0</ele><time>2026-05-01T10:12:56Z</time></trkpt><trkpt lat="39.363956461205674" lon="-3.356332834334349"><ele>651.0</ele><time>2026-05-01T10:12:57Z</time></trkpt><trkpt lat="39.364084237218584" lon="-3.3564635243302945"><ele>651.0</ele><time>2026-05-01T10:12:58Z</time></trkpt><trkpt lat="39.364205811364975" lon="-3.3565718525233375"><ele>651.0</ele><time>2026-05-01T10:12:59Z</time></trkpt><trkpt lat="39.364317684893955" lon="-3.356675031404274"><ele>651.0</ele><time>2026-05-01T10:13:00Z</time></trkpt><trkpt lat="39.36441470888104" lon="-3.3567577457002433"><ele>651.0</ele><time>2026-05-01T10:13:01Z</time></trkpt><trkpt lat="39.364504240853506" lon="-3.3568231054881488"><ele>651.0</ele><time>2026-05-01T10:13:02Z</time></trkpt><trkpt lat="39.36457324839241" lon="-3.356894654693874"><ele>651.0</ele><time>2026-05-01T10:13:03Z</time></trkpt><trkpt lat="39.364663244163964" lon="-3.3569563159978757"><ele>651.0</ele><time>2026-05-01T10:13:04Z</time></trkpt><trkpt lat="39.364761812559955" lon="-3.3569869611663803"><ele>651.0</ele><time>2026-05-01T10:13:05Z</time></trkpt><trkpt lat="39.36483951846544" lon="-3.3570161482504135"><ele>650.8333333333334</ele><time>2026-05-01T10:13:06Z</time></trkpt><trkpt lat="39.364928025874654" lon="-3.3570506974025105"><ele>650.6666666666666</ele><time>2026-05-01T10:13:07Z</time></trkpt><trkpt lat="39.36500466926878" lon="-3.3570798434914124"><ele>650.5</ele><time>2026-05-01T10:13:08Z</time></trkpt><trkpt lat="39.36507158503847" lon="-3.3571050880498348"><ele>650.3333333333333</ele><time>2026-05-01T10:13:09Z</time></trkpt><trkpt lat="39.36513488016331" lon="-3.3571275281111137"><ele>650.1666666666666</ele><time>2026-05-01T10:13:10Z</time></trkpt><trkpt lat="39.36521681299609" lon="-3.357155788656265"><ele>650.0</ele><time>2026-05-01T10:13:11Z</time></trkpt><trkpt lat="39.36531096278058" lon="-3.357188263108934"><ele>650.0</ele><time>2026-05-01T10:13:12Z</time></trkpt><trkpt lat="39.365414329450395" lon="-3.3572245477381624"><ele>650.0</ele><time>2026-05-01T10:13:13Z</time></trkpt><trkpt lat="39.36553434643679" lon="-3.357266954221825"><ele>650.0</ele><time>2026-05-01T10:13:14Z</time></trkpt><trkpt lat="39.36564041767814" lon="-3.3573005036602086"><ele>650.0</ele><time>2026-05-01T10:13:15Z</time></trkpt><trkpt lat="39.3657326999819" lon="-3.3573322579468297"><ele>650.0</ele><time>2026-05-01T10:13:16Z</time></trkpt><trkpt lat="39.3658130360697" lon="-3.3573528181314036"><ele>650.0</ele><time>2026-05-01T10:13:17Z</time></trkpt><trkpt lat="39.365881763875315" lon="-3.3573744472445224"><ele>650.0</ele><time>2026-05-01T10:13:18Z</time></trkpt><trkpt lat="39.36599645189361" lon="-3.357418821709063"><ele>650.0</ele><time>2026-05-01T10:13:20Z</time></trkpt><trkpt lat="39.366094806786556" lon="-3.3574361283411855"><ele>650.0</ele><time>2026-05-01T10:13:22Z</time></trkpt><trkpt lat="39.366174022034144" lon="-3.357454870526679"><ele>650.0</ele><time>2026-05-01T10:13:24Z</time></trkpt><trkpt lat="39.36624586337138" lon="-3.357483621868173"><ele>650.0</ele><time>2026-05-01T10:13:27Z</time></trkpt><trkpt lat="39.36632403319592" lon="-3.3575664327703034"><ele>650.0</ele><time>2026-05-01T10:13:30Z</time></trkpt><trkpt lat="39.36635592195966" lon="-3.357646842471655"><ele>650.0</ele><time>2026-05-01T10:13:31Z</time></trkpt><trkpt lat="39.36647143732382" lon="-3.3577261659728244"><ele>650.0</ele><time>2026-05-01T10:13:33Z</time></trkpt><trkpt lat="39.366544569469916" lon="-3.3577388087138105"><ele>650.0</ele><time>2026-05-01T10:13:34Z</time></trkpt><trkpt lat="39.36661671869737" lon="-3.3577777129282356"><ele>650.0</ele><time>2026-05-01T10:13:35Z</time></trkpt><trkpt lat="39.36673352948126" lon="-3.3578289876187246"><ele>649.8</ele><time>2026-05-01T10:13:37Z</time></trkpt><trkpt lat="39.36679441650357" lon="-3.3578803969319067"><ele>649.6</ele><time>2026-05-01T10:13:39Z</time></trkpt><trkpt lat="39.366863278372236" lon="-3.357888533942516"><ele>649.4000000000001</ele><time>2026-05-01T10:13:43Z</time></trkpt><trkpt lat="39.36694130511595" lon="-3.3576465915293787"><ele>649.2</ele><time>2026-05-01T10:13:45Z</time></trkpt><trkpt lat="39.36697581392568" lon="-3.3575478411383237"><ele>649.0</ele><time>2026-05-01T10:13:46Z</time></trkpt><trkpt lat="39.36701283738529" lon="-3.3574472213923428"><ele>649.0</ele><time>2026-05-01T10:13:47Z</time></trkpt><trkpt lat="39.36703703943312" lon="-3.357363006759334"><ele>649.0</ele><time>2026-05-01T10:13:48Z</time></trkpt><trkpt lat="39.367060440985995" lon="-3.3572859819892513"><ele>649.0</ele><time>2026-05-01T10:13:49Z</time></trkpt><trkpt lat="39.367101809974876" lon="-3.357134401022673"><ele>649.0</ele><time>2026-05-01T10:13:51Z</time></trkpt><trkpt lat="39.367127670591145" lon="-3.357044283026156"><ele>649.0</ele><time>2026-05-01T10:13:52Z</time></trkpt><trkpt lat="39.36716333924305" lon="-3.356906807548957"><ele>649.0</ele><time>2026-05-01T10:13:54Z</time></trkpt><trkpt lat="39.36719701942599" lon="-3.3567669145797203"><ele>649.0</ele><time>2026-05-01T10:13:56Z</time></trkpt><trkpt lat="39.36722861290121" lon="-3.356668996216392"><ele>649.0</ele><time>2026-05-01T10:13:57Z</time></trkpt><trkpt lat="39.367262972123804" lon="-3.3565326340251387"><ele>649.0</ele><time>2026-05-01T10:13:58Z</time></trkpt><trkpt lat="39.367308964046956" lon="-3.356361602171382"><ele>649.0</ele><time>2026-05-01T10:13:59Z</time></trkpt><trkpt lat="39.367350499855846" lon="-3.3562177738350076"><ele>648.8333333333334</ele><time>2026-05-01T10:14:00Z</time></trkpt><trkpt lat="39.367369425280415" lon="-3.356082029761671"><ele>648.6666666666667</ele><time>2026-05-01T10:14:01Z</time></trkpt><trkpt lat="39.36738923044847" lon="-3.3559696176334453"><ele>648.5</ele><time>2026-05-01T10:14:02Z</time></trkpt><trkpt lat="39.36741999542908" lon="-3.3558656433303544"><ele>648.3333333333334</ele><time>2026-05-01T10:14:03Z</time></trkpt><trkpt lat="39.36744411968277" lon="-3.3557726853898635"><ele>648.1666666666666</ele><time>2026-05-01T10:14:04Z</time></trkpt><trkpt lat="39.367481562607395" lon="-3.355691105560083"><ele>648.0</ele><time>2026-05-01T10:14:05Z</time></trkpt><trkpt lat="39.36751749959039" lon="-3.3556135197795793"><ele>647.5999999999999</ele><time>2026-05-01T10:14:06Z</time></trkpt><trkpt lat="39.367577909351965" lon="-3.3555032690654074"><ele>647.1999999999999</ele><time>2026-05-01T10:14:08Z</time></trkpt><trkpt lat="39.36762848111687" lon="-3.3554244524271164"><ele>646.8</ele><time>2026-05-01T10:14:09Z</time></trkpt><trkpt lat="39.36769403935148" lon="-3.3552821895163087"><ele>646.4</ele><time>2026-05-01T10:14:10Z</time></trkpt><trkpt lat="39.36776188074789" lon="-3.3552151900536455"><ele>646.0</ele><time>2026-05-01T10:14:11Z</time></trkpt><trkpt lat="39.3678160044405" lon="-3.355171638968193"><ele>646.0</ele><time>2026-05-01T10:14:12Z</time></trkpt><trkpt lat="39.36788240988442" lon="-3.355116710417638"><ele>646.0</ele><time>2026-05-01T10:14:13Z</time></trkpt><trkpt lat="39.36793527181225" lon="-3.355064288962828"><ele>646.0</ele><time>2026-05-01T10:14:14Z</time></trkpt><trkpt lat="39.36800470008299" lon="-3.354933466416837"><ele>646.0</ele><time>2026-05-01T10:14:16Z</time></trkpt><trkpt lat="39.36804303380414" lon="-3.3548683431004753"><ele>646.0</ele><time>2026-05-01T10:14:17Z</time></trkpt><trkpt lat="39.36811111474756" lon="-3.354771646317176"><ele>646.0</ele><time>2026-05-01T10:14:19Z</time></trkpt><trkpt lat="39.36814887437102" lon="-3.354679276816815"><ele>645.5999999999999</ele><time>2026-05-01T10:14:21Z</time></trkpt><trkpt lat="39.36820760228636" lon="-3.3545074835419637"><ele>645.2</ele><time>2026-05-01T10:14:23Z</time></trkpt><trkpt lat="39.36824668880631" lon="-3.3544159309744734"><ele>644.8</ele><time>2026-05-01T10:14:24Z</time></trkpt><trkpt lat="39.368290973426824" lon="-3.3543508364806747"><ele>644.4000000000001</ele><time>2026-05-01T10:14:25Z</time></trkpt><trkpt lat="39.368328757384006" lon="-3.3542236815769115"><ele>644.0</ele><time>2026-05-01T10:14:27Z</time></trkpt><trkpt lat="39.36836548847285" lon="-3.3541490870155966"><ele>644.0</ele><time>2026-05-01T10:14:29Z</time></trkpt><trkpt lat="39.36841492982611" lon="-3.354042270809359"><ele>644.0</ele><time>2026-05-01T10:14:32Z</time></trkpt><trkpt lat="39.36845986778779" lon="-3.3539250983319726"><ele>644.0</ele><time>2026-05-01T10:14:35Z</time></trkpt><trkpt lat="39.36850968315089" lon="-3.3538056320591885"><ele>644.0</ele><time>2026-05-01T10:14:37Z</time></trkpt><trkpt lat="39.36853592740815" lon="-3.3537131010762122"><ele>644.0</ele><time>2026-05-01T10:14:39Z</time></trkpt><trkpt lat="39.368517959508985" lon="-3.3536026294650774"><ele>644.1666666666666</ele><time>2026-05-01T10:14:41Z</time></trkpt><trkpt lat="39.36857184141045" lon="-3.35352345408554"><ele>644.3333333333333</ele><time>2026-05-01T10:14:43Z</time></trkpt><trkpt lat="39.36869293786059" lon="-3.353477993018159"><ele>644.5</ele><time>2026-05-01T10:14:45Z</time></trkpt><trkpt lat="39.36875354277277" lon="-3.3534345402467345"><ele>644.6666666666666</ele><time>2026-05-01T10:14:46Z</time></trkpt><trkpt lat="39.368820581806105" lon="-3.3533793013440123"><ele>644.8333333333334</ele><time>2026-05-01T10:14:47Z</time></trkpt><trkpt lat="39.36889200425171" lon="-3.3533216874656566"><ele>645.0</ele><time>2026-05-01T10:14:48Z</time></trkpt><trkpt lat="39.36895902173105" lon="-3.3532610830931233"><ele>644.4</ele><time>2026-05-01T10:14:49Z</time></trkpt><trkpt lat="39.36905015305612" lon="-3.353165963078981"><ele>643.8</ele><time>2026-05-01T10:14:51Z</time></trkpt><trkpt lat="39.36915078158835" lon="-3.35308233937414"><ele>643.2</ele><time>2026-05-01T10:14:53Z</time></trkpt><trkpt lat="39.369220968753446" lon="-3.353078908475514"><ele>642.6</ele><time>2026-05-01T10:14:54Z</time></trkpt><trkpt lat="39.36930753230763" lon="-3.353104395525771"><ele>642.0</ele><time>2026-05-01T10:14:55Z</time></trkpt><trkpt lat="39.36939854790698" lon="-3.3531027996537737"><ele>642.0</ele><time>2026-05-01T10:14:56Z</time></trkpt><trkpt lat="39.36951262592109" lon="-3.3530672646739728"><ele>642.0</ele><time>2026-05-01T10:14:57Z</time></trkpt><trkpt lat="39.36962278884607" lon="-3.3530496214655554"><ele>642.0</ele><time>2026-05-01T10:14:58Z</time></trkpt><trkpt lat="39.369713567423645" lon="-3.353040332491551"><ele>642.0</ele><time>2026-05-01T10:14:59Z</time></trkpt><trkpt lat="39.369800801901135" lon="-3.3530224633074375"><ele>642.0</ele><time>2026-05-01T10:15:00Z</time></trkpt><trkpt lat="39.36990504872113" lon="-3.3530185405748734"><ele>643.3333333333334</ele><time>2026-05-01T10:15:01Z</time></trkpt><trkpt lat="39.370007376124796" lon="-3.3530163940268674"><ele>644.6666666666666</ele><time>2026-05-01T10:15:02Z</time></trkpt><trkpt lat="39.37010628425473" lon="-3.3530146969148147"><ele>646.0</ele><time>2026-05-01T10:15:03Z</time></trkpt><trkpt lat="39.3701900192048" lon="-3.353013914879523"><ele>647.3333333333333</ele><time>2026-05-01T10:15:04Z</time></trkpt><trkpt lat="39.370268937776125" lon="-3.353013177821403"><ele>648.6666666666666</ele><time>2026-05-01T10:15:05Z</time></trkpt><trkpt lat="39.37034556515494" lon="-3.353012462168645"><ele>650.0</ele><time>2026-05-01T10:15:06Z</time></trkpt><trkpt lat="39.3704241101042" lon="-3.353011728606583"><ele>650.0</ele><time>2026-05-01T10:15:07Z</time></trkpt><trkpt lat="39.37051745327144" lon="-3.3530108568370696"><ele>650.0</ele><time>2026-05-01T10:15:08Z</time></trkpt><trkpt lat="39.37062410303866" lon="-3.3530279405955152"><ele>650.0</ele><time>2026-05-01T10:15:09Z</time></trkpt><trkpt lat="39.37070958716394" lon="-3.353022739581657"><ele>650.0</ele><time>2026-05-01T10:15:10Z</time></trkpt><trkpt lat="39.37080039217405" lon="-3.353022395257297"><ele>650.0</ele><time>2026-05-01T10:15:11Z</time></trkpt><trkpt lat="39.37089259506187" lon="-3.353022536037446"><ele>648.8</ele><time>2026-05-01T10:15:12Z</time></trkpt><trkpt lat="39.370969020081034" lon="-3.3530159985468977"><ele>647.6</ele><time>2026-05-01T10:15:13Z</time></trkpt><trkpt lat="39.37107136389945" lon="-3.3530217265659594"><ele>646.4000000000001</ele><time>2026-05-01T10:15:14Z</time></trkpt><trkpt lat="39.371169365605965" lon="-3.353007262080077"><ele>645.2</ele><time>2026-05-01T10:15:15Z</time></trkpt><trkpt lat="39.371266887681074" lon="-3.3529976834985926"><ele>644.0</ele><time>2026-05-01T10:15:16Z</time></trkpt><trkpt lat="39.371374776824226" lon="-3.352977471012558"><ele>643.6</ele><time>2026-05-01T10:15:17Z</time></trkpt><trkpt lat="39.37147493574433" lon="-3.3529612140637295"><ele>643.2</ele><time>2026-05-01T10:15:18Z</time></trkpt><trkpt lat="39.37156603103354" lon="-3.3529394942793473"><ele>642.8000000000001</ele><time>2026-05-01T10:15:19Z</time></trkpt><trkpt lat="39.371647548701034" lon="-3.352920594470983"><ele>642.4000000000001</ele><time>2026-05-01T10:15:20Z</time></trkpt><trkpt lat="39.37173478714152" lon="-3.3529093905228144"><ele>642.0</ele><time>2026-05-01T10:15:21Z</time></trkpt><trkpt lat="39.37182040619435" lon="-3.352894054390441"><ele>642.0</ele><time>2026-05-01T10:15:22Z</time></trkpt><trkpt lat="39.37190515604937" lon="-3.3528764357375787"><ele>642.0</ele><time>2026-05-01T10:15:23Z</time></trkpt><trkpt lat="39.37202062063387" lon="-3.3528412784722814"><ele>642.0</ele><time>2026-05-01T10:15:24Z</time></trkpt><trkpt lat="39.372163866193326" lon="-3.352830182975419"><ele>642.0</ele><time>2026-05-01T10:15:25Z</time></trkpt><trkpt lat="39.37228353735416" lon="-3.352799579483257"><ele>642.75</ele><time>2026-05-01T10:15:26Z</time></trkpt><trkpt lat="39.37241501586656" lon="-3.3527698167544093"><ele>643.5</ele><time>2026-05-01T10:15:27Z</time></trkpt><trkpt lat="39.37253817531808" lon="-3.352739223398999"><ele>644.25</ele><time>2026-05-01T10:15:28Z</time></trkpt><trkpt lat="39.372645453460024" lon="-3.352720407245963"><ele>645.0</ele><time>2026-05-01T10:15:29Z</time></trkpt><trkpt lat="39.37273798317122" lon="-3.352706453177665"><ele>645.0</ele><time>2026-05-01T10:15:30Z</time></trkpt><trkpt lat="39.372811401180556" lon="-3.3526755308911795"><ele>645.0</ele><time>2026-05-01T10:15:31Z</time></trkpt><trkpt lat="39.37289675357482" lon="-3.352680868283288"><ele>645.0</ele><time>2026-05-01T10:15:32Z</time></trkpt><trkpt lat="39.372994051735645" lon="-3.35267471770864"><ele>645.0</ele><time>2026-05-01T10:15:33Z</time></trkpt><trkpt lat="39.373090370869384" lon="-3.3527024865121815"><ele>645.0</ele><time>2026-05-01T10:15:34Z</time></trkpt><trkpt lat="39.373192052929866" lon="-3.3526937082140433"><ele>644.5</ele><time>2026-05-01T10:15:35Z</time></trkpt><trkpt lat="39.37331805172332" lon="-3.3527054436002404"><ele>644.0</ele><time>2026-05-01T10:15:36Z</time></trkpt><trkpt lat="39.37344613901389" lon="-3.3527357781033347"><ele>643.5</ele><time>2026-05-01T10:15:37Z</time></trkpt><trkpt lat="39.37357793649915" lon="-3.352749228498679"><ele>643.0</ele><time>2026-05-01T10:15:38Z</time></trkpt><trkpt lat="39.373712852585655" lon="-3.3527755175093197"><ele>642.0</ele><time>2026-05-01T10:15:39Z</time></trkpt><trkpt lat="39.373859682182804" lon="-3.3527973479058035"><ele>641.0</ele><time>2026-05-01T10:15:40Z</time></trkpt><trkpt lat="39.37399321500439" lon="-3.352797844596379"><ele>640.0</ele><time>2026-05-01T10:15:41Z</time></trkpt><trkpt lat="39.37411621272635" lon="-3.3528154369674197"><ele>639.0</ele><time>2026-05-01T10:15:42Z</time></trkpt><trkpt lat="39.37422190286444" lon="-3.352830553837568"><ele>639.0</ele><time>2026-05-01T10:15:43Z</time></trkpt><trkpt lat="39.374317422048804" lon="-3.352844215955934"><ele>639.0</ele><time>2026-05-01T10:15:44Z</time></trkpt><trkpt lat="39.37439231616911" lon="-3.352854928069379"><ele>639.0</ele><time>2026-05-01T10:15:45Z</time></trkpt><trkpt lat="39.374506768782624" lon="-3.352872571965911"><ele>639.0</ele><time>2026-05-01T10:15:47Z</time></trkpt><trkpt lat="39.374581047718095" lon="-3.3528958155405695"><ele>639.0</ele><time>2026-05-01T10:15:49Z</time></trkpt><trkpt lat="39.37456393386947" lon="-3.353083097636313"><ele>639.2</ele><time>2026-05-01T10:15:50Z</time></trkpt><trkpt lat="39.37454666951793" lon="-3.3532610812570462"><ele>639.4</ele><time>2026-05-01T10:15:52Z</time></trkpt><trkpt lat="39.37453303277658" lon="-3.353394953641994"><ele>639.6</ele><time>2026-05-01T10:15:53Z</time></trkpt><trkpt lat="39.374519470214835" lon="-3.3535062260217763"><ele>639.8</ele><time>2026-05-01T10:15:54Z</time></trkpt><trkpt lat="39.374506328572274" lon="-3.3536230685478707"><ele>640.0</ele><time>2026-05-01T10:15:55Z</time></trkpt><trkpt lat="39.374495562923315" lon="-3.353746957894666"><ele>640.0</ele><time>2026-05-01T10:15:56Z</time></trkpt><trkpt lat="39.37448335064693" lon="-3.3538751476808595"><ele>640.0</ele><time>2026-05-01T10:15:57Z</time></trkpt><trkpt lat="39.374471902997705" lon="-3.353997608964709"><ele>640.0</ele><time>2026-05-01T10:15:58Z</time></trkpt><trkpt lat="39.37446492450851" lon="-3.3541106075430998"><ele>640.0</ele><time>2026-05-01T10:15:59Z</time></trkpt><trkpt lat="39.37446031110831" lon="-3.354213694360081"><ele>640.0</ele><time>2026-05-01T10:16:00Z</time></trkpt><trkpt lat="39.37444175003184" lon="-3.3543307698961504"><ele>640.0</ele><time>2026-05-01T10:16:01Z</time></trkpt><trkpt lat="39.3744301574233" lon="-3.354441193441582"><ele>640.0</ele><time>2026-05-01T10:16:02Z</time></trkpt><trkpt lat="39.374417268385045" lon="-3.3545362184927376"><ele>640.0</ele><time>2026-05-01T10:16:03Z</time></trkpt><trkpt lat="39.37442313418838" lon="-3.354631966944581"><ele>640.0</ele><time>2026-05-01T10:16:04Z</time></trkpt><trkpt lat="39.37441511887284" lon="-3.354730775510709"><ele>640.0</ele><time>2026-05-01T10:16:05Z</time></trkpt><trkpt lat="39.37440468143751" lon="-3.3548594426763847"><ele>640.0</ele><time>2026-05-01T10:16:07Z</time></trkpt><trkpt lat="39.374391979821034" lon="-3.3550104974538857"><ele>640.0</ele><time>2026-05-01T10:16:09Z</time></trkpt><trkpt lat="39.37437160652606" lon="-3.3550968803251644"><ele>640.0</ele><time>2026-05-01T10:16:10Z</time></trkpt><trkpt lat="39.37436121480572" lon="-3.3551971811890953"><ele>640.0</ele><time>2026-05-01T10:16:11Z</time></trkpt><trkpt lat="39.37434974326668" lon="-3.3553037961834313"><ele>640.0</ele><time>2026-05-01T10:16:12Z</time></trkpt><trkpt lat="39.37434187161767" lon="-3.3553955226804604"><ele>640.0</ele><time>2026-05-01T10:16:13Z</time></trkpt><trkpt lat="39.37433507172424" lon="-3.355550189107242"><ele>640.0</ele><time>2026-05-01T10:16:15Z</time></trkpt><trkpt lat="39.37433121001591" lon="-3.3556325954570085"><ele>640.0</ele><time>2026-05-01T10:16:16Z</time></trkpt><trkpt lat="39.37431901079986" lon="-3.355735485976788"><ele>640.0</ele><time>2026-05-01T10:16:17Z</time></trkpt><trkpt lat="39.374309596921776" lon="-3.3558255843681195"><ele>640.0</ele><time>2026-05-01T10:16:18Z</time></trkpt><trkpt lat="39.37429799033624" lon="-3.3559112017778405"><ele>640.0</ele><time>2026-05-01T10:16:19Z</time></trkpt><trkpt lat="39.37427604131178" lon="-3.355987988623658"><ele>640.0</ele><time>2026-05-01T10:16:20Z</time></trkpt><trkpt lat="39.374229615083905" lon="-3.3560754593963096"><ele>640.0</ele><time>2026-05-01T10:16:22Z</time></trkpt><trkpt lat="39.37415769443825" lon="-3.3561118390118896"><ele>640.0</ele><time>2026-05-01T10:16:25Z</time></trkpt><trkpt lat="39.37407844635028" lon="-3.3561349788415904"><ele>640.0</ele><time>2026-05-01T10:16:26Z</time></trkpt><trkpt lat="39.37400747899827" lon="-3.3561460661929954"><ele>640.0</ele><time>2026-05-01T10:16:27Z</time></trkpt><trkpt lat="39.37393390980317" lon="-3.3561555133378898"><ele>640.0</ele><time>2026-05-01T10:16:28Z</time></trkpt><trkpt lat="39.373841986435224" lon="-3.3561673173714994"><ele>640.0</ele><time>2026-05-01T10:16:29Z</time></trkpt><trkpt lat="39.37373163842879" lon="-3.356161729700534"><ele>640.0</ele><time>2026-05-01T10:16:30Z</time></trkpt><trkpt lat="39.37364863262463" lon="-3.356179324101208"><ele>640.0</ele><time>2026-05-01T10:16:31Z</time></trkpt><trkpt lat="39.37357510378375" lon="-3.356216802733768"><ele>640.0</ele><time>2026-05-01T10:16:32Z</time></trkpt><trkpt lat="39.37350321875309" lon="-3.3562330537004663"><ele>640.0</ele><time>2026-05-01T10:16:33Z</time></trkpt><trkpt lat="39.373415510770215" lon="-3.356249296577609"><ele>640.0</ele><time>2026-05-01T10:16:35Z</time></trkpt><trkpt lat="39.37335206611479" lon="-3.356281108962096"><ele>640.0</ele><time>2026-05-01T10:16:37Z</time></trkpt><trkpt lat="39.373376601986564" lon="-3.3564257593049103"><ele>640.0</ele><time>2026-05-01T10:16:38Z</time></trkpt><trkpt lat="39.373393797763896" lon="-3.356549296693036"><ele>640.0</ele><time>2026-05-01T10:16:39Z</time></trkpt><trkpt lat="39.37340845293534" lon="-3.35665458200908"><ele>640.0</ele><time>2026-05-01T10:16:40Z</time></trkpt><trkpt lat="39.37340942075119" lon="-3.356752955957727"><ele>640.0</ele><time>2026-05-01T10:16:41Z</time></trkpt><trkpt lat="39.37342543367866" lon="-3.3568524583131785"><ele>640.0</ele><time>2026-05-01T10:16:42Z</time></trkpt><trkpt lat="39.37344324341477" lon="-3.356969635945971"><ele>640.0</ele><time>2026-05-01T10:16:43Z</time></trkpt><trkpt lat="39.373464521549906" lon="-3.357090457310994"><ele>640.0</ele><time>2026-05-01T10:16:44Z</time></trkpt><trkpt lat="39.37348406080975" lon="-3.3572162115344732"><ele>640.0</ele><time>2026-05-01T10:16:45Z</time></trkpt><trkpt lat="39.37350609597471" lon="-3.3573455616343035"><ele>639.4</ele><time>2026-05-01T10:16:46Z</time></trkpt><trkpt lat="39.37352289040714" lon="-3.357481662091401"><ele>638.8</ele><time>2026-05-01T10:16:47Z</time></trkpt><trkpt lat="39.37354142001411" lon="-3.35762495716672"><ele>638.2</ele><time>2026-05-01T10:16:48Z</time></trkpt><trkpt lat="39.37356175661789" lon="-3.3577576688919692"><ele>637.6</ele><time>2026-05-01T10:16:49Z</time></trkpt><trkpt lat="39.373579054820894" lon="-3.357889366486256"><ele>637.0</ele><time>2026-05-01T10:16:50Z</time></trkpt><trkpt lat="39.3735963977444" lon="-3.358013183716562"><ele>637.6</ele><time>2026-05-01T10:16:51Z</time></trkpt><trkpt lat="39.373613803464366" lon="-3.358131748106203"><ele>638.2</ele><time>2026-05-01T10:16:52Z</time></trkpt><trkpt lat="39.37362644500903" lon="-3.3582236518070023"><ele>638.8</ele><time>2026-05-01T10:16:53Z</time></trkpt><trkpt lat="39.37357426808853" lon="-3.35838628560984"><ele>639.4</ele><time>2026-05-01T10:16:55Z</time></trkpt><trkpt lat="39.37351076874076" lon="-3.3583930583072426"><ele>640.0</ele><time>2026-05-01T10:16:56Z</time></trkpt><trkpt lat="39.373423890651125" lon="-3.3584012258285156"><ele>640.0</ele><time>2026-05-01T10:16:57Z</time></trkpt><trkpt lat="39.37330017344198" lon="-3.358414584669537"><ele>640.0</ele><time>2026-05-01T10:16:58Z</time></trkpt><trkpt lat="39.37319729221101" lon="-3.358433359822126"><ele>640.0</ele><time>2026-05-01T10:16:59Z</time></trkpt><trkpt lat="39.37310929699144" lon="-3.358447453823427"><ele>640.0</ele><time>2026-05-01T10:17:00Z</time></trkpt><trkpt lat="39.373025476808614" lon="-3.3584790051961155"><ele>640.0</ele><time>2026-05-01T10:17:01Z</time></trkpt><trkpt lat="39.37295231252958" lon="-3.3584908108857987"><ele>640.5</ele><time>2026-05-01T10:17:02Z</time></trkpt><trkpt lat="39.37288746883033" lon="-3.3585012739787095"><ele>641.0</ele><time>2026-05-01T10:17:03Z</time></trkpt><trkpt lat="39.37280501089837" lon="-3.358545653252823"><ele>641.5</ele><time>2026-05-01T10:17:05Z</time></trkpt><trkpt lat="39.37279675301262" lon="-3.3587131376868054"><ele>642.0</ele><time>2026-05-01T10:17:07Z</time></trkpt><trkpt lat="39.372811365726264" lon="-3.3588143180529113"><ele>642.5</ele><time>2026-05-01T10:17:08Z</time></trkpt><trkpt lat="39.3728176884187" lon="-3.35891979342472"><ele>643.0</ele><time>2026-05-01T10:17:09Z</time></trkpt><trkpt lat="39.372882982775145" lon="-3.3590203813339157"><ele>643.2</ele><time>2026-05-01T10:17:10Z</time></trkpt><trkpt lat="39.37296886019183" lon="-3.359070255490449"><ele>643.4</ele><time>2026-05-01T10:17:11Z</time></trkpt><trkpt lat="39.37305028014319" lon="-3.3591327653838943"><ele>643.6</ele><time>2026-05-01T10:17:12Z</time></trkpt><trkpt lat="39.37312938420223" lon="-3.359193447119473"><ele>643.8000000000001</ele><time>2026-05-01T10:17:13Z</time></trkpt><trkpt lat="39.37320649729555" lon="-3.359258227872775"><ele>644.0</ele><time>2026-05-01T10:17:14Z</time></trkpt><trkpt lat="39.37329060076456" lon="-3.3593288810054425"><ele>644.0</ele><time>2026-05-01T10:17:15Z</time></trkpt><trkpt lat="39.37338461001938" lon="-3.3594078557204057"><ele>644.0</ele><time>2026-05-01T10:17:16Z</time></trkpt><trkpt lat="39.37349375449368" lon="-3.3594967311210846"><ele>644.0</ele><time>2026-05-01T10:17:17Z</time></trkpt><trkpt lat="39.37362548734584" lon="-3.359603401168747"><ele>644.0</ele><time>2026-05-01T10:17:18Z</time></trkpt><trkpt lat="39.37374793253568" lon="-3.3596995471927964"><ele>644.0</ele><time>2026-05-01T10:17:19Z</time></trkpt><trkpt lat="39.373875740964976" lon="-3.3597934163114087"><ele>644.0</ele><time>2026-05-01T10:17:20Z</time></trkpt><trkpt lat="39.374009960257375" lon="-3.3598876509693034"><ele>644.0</ele><time>2026-05-01T10:17:21Z</time></trkpt><trkpt lat="39.37413645633526" lon="-3.3599709597927854"><ele>644.0</ele><time>2026-05-01T10:17:22Z</time></trkpt><trkpt lat="39.37425621934415" lon="-3.3600501802870726"><ele>644.0</ele><time>2026-05-01T10:17:23Z</time></trkpt><trkpt lat="39.37437797219652" lon="-3.3601320464990776"><ele>644.0</ele><time>2026-05-01T10:17:24Z</time></trkpt><trkpt lat="39.37450542439178" lon="-3.360217744936254"><ele>644.0</ele><time>2026-05-01T10:17:25Z</time></trkpt><trkpt lat="39.37463706683956" lon="-3.3603289297343983"><ele>644.0</ele><time>2026-05-01T10:17:26Z</time></trkpt><trkpt lat="39.37478741528745" lon="-3.3604257255147814"><ele>643.6666666666666</ele><time>2026-05-01T10:17:27Z</time></trkpt><trkpt lat="39.37494466907541" lon="-3.360525916738166"><ele>643.3333333333334</ele><time>2026-05-01T10:17:28Z</time></trkpt><trkpt lat="39.375118357735346" lon="-3.360638735995629"><ele>643.0</ele><time>2026-05-01T10:17:29Z</time></trkpt><trkpt lat="39.37527798377934" lon="-3.360743042413575"><ele>643.0</ele><time>2026-05-01T10:17:30Z</time></trkpt><trkpt lat="39.37543883983756" lon="-3.3608196057649513"><ele>643.0</ele><time>2026-05-01T10:17:31Z</time></trkpt><trkpt lat="39.37557887547174" lon="-3.360906535890323"><ele>643.0</ele><time>2026-05-01T10:17:32Z</time></trkpt><trkpt lat="39.375716096875294" lon="-3.360991719153346"><ele>643.0</ele><time>2026-05-01T10:17:33Z</time></trkpt><trkpt lat="39.37586157809492" lon="-3.3610818536592895"><ele>643.0</ele><time>2026-05-01T10:17:34Z</time></trkpt><trkpt lat="39.37601288488967" lon="-3.3611756354808344"><ele>643.0</ele><time>2026-05-01T10:17:35Z</time></trkpt><trkpt lat="39.37616886986378" lon="-3.361274389304923"><ele>642.6666666666667</ele><time>2026-05-01T10:17:36Z</time></trkpt><trkpt lat="39.376343451654925" lon="-3.3614106072483296"><ele>642.3333333333334</ele><time>2026-05-01T10:17:37Z</time></trkpt><trkpt lat="39.37651042139075" lon="-3.3614919135723276"><ele>642.0</ele><time>2026-05-01T10:17:38Z</time></trkpt><trkpt lat="39.376665737242966" lon="-3.3615919500380245"><ele>642.0</ele><time>2026-05-01T10:17:39Z</time></trkpt><trkpt lat="39.376809506208254" lon="-3.3617099723400625"><ele>642.0</ele><time>2026-05-01T10:17:40Z</time></trkpt><trkpt lat="39.37696170569699" lon="-3.361819780288969"><ele>642.0</ele><time>2026-05-01T10:17:41Z</time></trkpt><trkpt lat="39.377137672456996" lon="-3.361929154411562"><ele>641.6666666666666</ele><time>2026-05-01T10:17:42Z</time></trkpt><trkpt lat="39.37733112749071" lon="-3.3620866254618083"><ele>641.3333333333333</ele><time>2026-05-01T10:17:43Z</time></trkpt><trkpt lat="39.37750834624763" lon="-3.362230420470033"><ele>641.0</ele><time>2026-05-01T10:17:44Z</time></trkpt><trkpt lat="39.377655386144376" lon="-3.362352756596269"><ele>640.6666666666666</ele><time>2026-05-01T10:17:45Z</time></trkpt><trkpt lat="39.37782272837838" lon="-3.3624976943750013"><ele>640.3333333333334</ele><time>2026-05-01T10:17:46Z</time></trkpt><trkpt lat="39.377958609231236" lon="-3.3626072653933083"><ele>640.0</ele><time>2026-05-01T10:17:47Z</time></trkpt><trkpt lat="39.37809185770625" lon="-3.362699246383574"><ele>640.0</ele><time>2026-05-01T10:17:48Z</time></trkpt><trkpt lat="39.37824838910775" lon="-3.362796095161917"><ele>640.0</ele><time>2026-05-01T10:17:49Z</time></trkpt><trkpt lat="39.378407037024914" lon="-3.362880064963836"><ele>640.0</ele><time>2026-05-01T10:17:50Z</time></trkpt><trkpt lat="39.37857386729432" lon="-3.362966841829975"><ele>640.3333333333334</ele><time>2026-05-01T10:17:51Z</time></trkpt><trkpt lat="39.378766287687434" lon="-3.3630690614234067"><ele>640.6666666666666</ele><time>2026-05-01T10:17:52Z</time></trkpt><trkpt lat="39.37893261374301" lon="-3.363163311208007"><ele>641.0</ele><time>2026-05-01T10:17:53Z</time></trkpt><trkpt lat="39.37910480971092" lon="-3.3632754478608833"><ele>641.3333333333333</ele><time>2026-05-01T10:17:54Z</time></trkpt><trkpt lat="39.37928384797265" lon="-3.363410280203158"><ele>641.6666666666666</ele><time>2026-05-01T10:17:55Z</time></trkpt><trkpt lat="39.37946222156942" lon="-3.363557189391535"><ele>642.0</ele><time>2026-05-01T10:17:56Z</time></trkpt><trkpt lat="39.37964841194347" lon="-3.363729879297501"><ele>642.3333333333334</ele><time>2026-05-01T10:17:57Z</time></trkpt><trkpt lat="39.379815469559226" lon="-3.3638647589368156"><ele>642.6666666666667</ele><time>2026-05-01T10:17:58Z</time></trkpt><trkpt lat="39.3799506885729" lon="-3.363982420276635"><ele>643.0</ele><time>2026-05-01T10:17:59Z</time></trkpt><trkpt lat="39.38007107496525" lon="-3.364089221504404"><ele>643.0</ele><time>2026-05-01T10:18:00Z</time></trkpt><trkpt lat="39.38021455610344" lon="-3.3642294995843103"><ele>643.0</ele><time>2026-05-01T10:18:01Z</time></trkpt><trkpt lat="39.380355624292164" lon="-3.3643861328235283"><ele>643.0</ele><time>2026-05-01T10:18:02Z</time></trkpt><trkpt lat="39.3805010100613" lon="-3.3645653182531303"><ele>642.5</ele><time>2026-05-01T10:18:03Z</time></trkpt><trkpt lat="39.380662091288166" lon="-3.364775437744472"><ele>642.0</ele><time>2026-05-01T10:18:04Z</time></trkpt><trkpt lat="39.380839719482026" lon="-3.3650144625885106"><ele>642.0</ele><time>2026-05-01T10:18:05Z</time></trkpt><trkpt lat="39.381026722891235" lon="-3.3652594060112224"><ele>642.0</ele><time>2026-05-01T10:18:06Z</time></trkpt><trkpt lat="39.381191702366316" lon="-3.3654532085311364"><ele>641.6666666666666</ele><time>2026-05-01T10:18:07Z</time></trkpt><trkpt lat="39.38134189168099" lon="-3.365613585298466"><ele>641.3333333333333</ele><time>2026-05-01T10:18:08Z</time></trkpt><trkpt lat="39.3814848462007" lon="-3.3657100071099006"><ele>641.0</ele><time>2026-05-01T10:18:09Z</time></trkpt><trkpt lat="39.38164293773322" lon="-3.3658137349030968"><ele>641.0</ele><time>2026-05-01T10:18:10Z</time></trkpt><trkpt lat="39.38183246767932" lon="-3.3659303708740094"><ele>641.0</ele><time>2026-05-01T10:18:11Z</time></trkpt><trkpt lat="39.38204049421906" lon="-3.366058388462207"><ele>641.0</ele><time>2026-05-01T10:18:12Z</time></trkpt><trkpt lat="39.382268917539584" lon="-3.3661989590542127"><ele>641.0</ele><time>2026-05-01T10:18:13Z</time></trkpt><trkpt lat="39.38252471498698" lon="-3.3663507500691887"><ele>641.0</ele><time>2026-05-01T10:18:14Z</time></trkpt><trkpt lat="39.38274180293064" lon="-3.3664694264053496"><ele>641.3333333333333</ele><time>2026-05-01T10:18:15Z</time></trkpt><trkpt lat="39.38292107804248" lon="-3.366584910263507"><ele>641.6666666666666</ele><time>2026-05-01T10:18:16Z</time></trkpt><trkpt lat="39.383089700805705" lon="-3.3666644243478117"><ele>642.0</ele><time>2026-05-01T10:18:17Z</time></trkpt><trkpt lat="39.38324886430416" lon="-3.3667349380812244"><ele>642.0</ele><time>2026-05-01T10:18:18Z</time></trkpt><trkpt lat="39.383407192617796" lon="-3.3668041565432993"><ele>642.0</ele><time>2026-05-01T10:18:19Z</time></trkpt><trkpt lat="39.38356827698483" lon="-3.3668707404791585"><ele>642.0</ele><time>2026-05-01T10:18:20Z</time></trkpt><trkpt lat="39.38371514888797" lon="-3.36690509081185"><ele>642.0</ele><time>2026-05-01T10:18:21Z</time></trkpt><trkpt lat="39.38384548388695" lon="-3.366950949200955"><ele>642.0</ele><time>2026-05-01T10:18:22Z</time></trkpt><trkpt lat="39.38395772234666" lon="-3.366986920352635"><ele>642.0</ele><time>2026-05-01T10:18:23Z</time></trkpt><trkpt lat="39.384060170916186" lon="-3.3670179925732064"><ele>642.0</ele><time>2026-05-01T10:18:24Z</time></trkpt><trkpt lat="39.38414333510396" lon="-3.3670432159195527"><ele>642.0</ele><time>2026-05-01T10:18:25Z</time></trkpt><trkpt lat="39.38420923895238" lon="-3.3670849722470884"><ele>642.0</ele><time>2026-05-01T10:18:26Z</time></trkpt><trkpt lat="39.38432316320775" lon="-3.367119289854914"><ele>642.0</ele><time>2026-05-01T10:18:28Z</time></trkpt><trkpt lat="39.384453180063126" lon="-3.367138527074853"><ele>642.0</ele><time>2026-05-01T10:18:30Z</time></trkpt><trkpt lat="39.384537883563404" lon="-3.36714530697062"><ele>642.0</ele><time>2026-05-01T10:18:31Z</time></trkpt><trkpt lat="39.38463653957856" lon="-3.3671923973486586"><ele>642.0</ele><time>2026-05-01T10:18:32Z</time></trkpt><trkpt lat="39.38477901793294" lon="-3.3672159872291876"><ele>642.0</ele><time>2026-05-01T10:18:33Z</time></trkpt><trkpt lat="39.384951227020764" lon="-3.3672235211106742"><ele>642.0</ele><time>2026-05-01T10:18:34Z</time></trkpt><trkpt lat="39.385108586918705" lon="-3.3672383957556846"><ele>642.0</ele><time>2026-05-01T10:18:35Z</time></trkpt><trkpt lat="39.385240197199124" lon="-3.3672558204287184"><ele>642.0</ele><time>2026-05-01T10:18:36Z</time></trkpt><trkpt lat="39.385367418611246" lon="-3.3672783106186293"><ele>642.0</ele><time>2026-05-01T10:18:37Z</time></trkpt><trkpt lat="39.385498769636165" lon="-3.367303557284345"><ele>642.0</ele><time>2026-05-01T10:18:38Z</time></trkpt><trkpt lat="39.38561873791256" lon="-3.367351998981512"><ele>642.0</ele><time>2026-05-01T10:18:39Z</time></trkpt><trkpt lat="39.38575399316096" lon="-3.3673656978859254"><ele>641.75</ele><time>2026-05-01T10:18:40Z</time></trkpt><trkpt lat="39.38587340667279" lon="-3.3673985194867226"><ele>641.5</ele><time>2026-05-01T10:18:41Z</time></trkpt><trkpt lat="39.38598844575271" lon="-3.36742780399358"><ele>641.25</ele><time>2026-05-01T10:18:42Z</time></trkpt><trkpt lat="39.3860981280379" lon="-3.367455200205731"><ele>641.0</ele><time>2026-05-01T10:18:43Z</time></trkpt><trkpt lat="39.3862166877689" lon="-3.3674828973290714"><ele>640.5</ele><time>2026-05-01T10:18:44Z</time></trkpt><trkpt lat="39.38635057336399" lon="-3.3675083604450373"><ele>640.0</ele><time>2026-05-01T10:18:45Z</time></trkpt><trkpt lat="39.38649538795554" lon="-3.3675215688116515"><ele>639.5</ele><time>2026-05-01T10:18:46Z</time></trkpt><trkpt lat="39.38663353897583" lon="-3.3675273459057364"><ele>639.0</ele><time>2026-05-01T10:18:47Z</time></trkpt><trkpt lat="39.386762389174216" lon="-3.367529761778905"><ele>639.0</ele><time>2026-05-01T10:18:48Z</time></trkpt><trkpt lat="39.386895310826944" lon="-3.3675280093916604"><ele>639.0</ele><time>2026-05-01T10:18:49Z</time></trkpt><trkpt lat="39.38704185670375" lon="-3.367524751546553"><ele>639.0</ele><time>2026-05-01T10:18:50Z</time></trkpt><trkpt lat="39.387191555843" lon="-3.3675190442253036"><ele>639.0</ele><time>2026-05-01T10:18:51Z</time></trkpt><trkpt lat="39.387343489228215" lon="-3.367523346500092"><ele>639.3333333333334</ele><time>2026-05-01T10:18:52Z</time></trkpt><trkpt lat="39.38749344033393" lon="-3.367499839771673"><ele>639.6666666666667</ele><time>2026-05-01T10:18:53Z</time></trkpt><trkpt lat="39.38766984243619" lon="-3.3674854892740163"><ele>640.0</ele><time>2026-05-01T10:18:54Z</time></trkpt><trkpt lat="39.38782615127813" lon="-3.3674796843280723"><ele>640.0</ele><time>2026-05-01T10:18:55Z</time></trkpt><trkpt lat="39.38798365595905" lon="-3.367511641948005"><ele>640.0</ele><time>2026-05-01T10:18:56Z</time></trkpt><trkpt lat="39.38812881001237" lon="-3.3675354533628243"><ele>640.0</ele><time>2026-05-01T10:18:57Z</time></trkpt><trkpt lat="39.388286254283024" lon="-3.3675742427008903"><ele>640.0</ele><time>2026-05-01T10:18:58Z</time></trkpt><trkpt lat="39.3884406868812" lon="-3.3676232328867393"><ele>640.0</ele><time>2026-05-01T10:18:59Z</time></trkpt><trkpt lat="39.38859237194567" lon="-3.3676775570762425"><ele>640.0</ele><time>2026-05-01T10:19:00Z</time></trkpt><trkpt lat="39.38873817481393" lon="-3.3677403886258204"><ele>639.6666666666667</ele><time>2026-05-01T10:19:01Z</time></trkpt><trkpt lat="39.388882111180585" lon="-3.3678147689807436"><ele>639.3333333333334</ele><time>2026-05-01T10:19:02Z</time></trkpt><trkpt lat="39.38902208191565" lon="-3.3678964702020857"><ele>639.0</ele><time>2026-05-01T10:19:03Z</time></trkpt><trkpt lat="39.389193541949155" lon="-3.367971130058537"><ele>639.6666666666666</ele><time>2026-05-01T10:19:04Z</time></trkpt><trkpt lat="39.389372352140334" lon="-3.3680942665223017"><ele>640.3333333333333</ele><time>2026-05-01T10:19:05Z</time></trkpt><trkpt lat="39.389580162639945" lon="-3.3681673910084315"><ele>641.0</ele><time>2026-05-01T10:19:06Z</time></trkpt><trkpt lat="39.38978291026398" lon="-3.3682426805946424"><ele>639.0</ele><time>2026-05-01T10:19:07Z</time></trkpt><trkpt lat="39.39002517697804" lon="-3.3683161308749487"><ele>637.0</ele><time>2026-05-01T10:19:08Z</time></trkpt><trkpt lat="39.390254469358936" lon="-3.368385267001522"><ele>637.0</ele><time>2026-05-01T10:19:09Z</time></trkpt><trkpt lat="39.390446186281466" lon="-3.3684447508004767"><ele>637.0</ele><time>2026-05-01T10:19:10Z</time></trkpt><trkpt lat="39.39062912024249" lon="-3.3685186303161427"><ele>637.0</ele><time>2026-05-01T10:19:11Z</time></trkpt><trkpt lat="39.390793080396485" lon="-3.3685728764927956"><ele>637.0</ele><time>2026-05-01T10:19:12Z</time></trkpt><trkpt lat="39.39094676044652" lon="-3.3686217371790845"><ele>637.0</ele><time>2026-05-01T10:19:13Z</time></trkpt><trkpt lat="39.3910863189189" lon="-3.368664126755376"><ele>637.0</ele><time>2026-05-01T10:19:14Z</time></trkpt><trkpt lat="39.39121729331438" lon="-3.368700874058847"><ele>637.0</ele><time>2026-05-01T10:19:15Z</time></trkpt><trkpt lat="39.391348068620104" lon="-3.368736919610561"><ele>637.75</ele><time>2026-05-01T10:19:16Z</time></trkpt><trkpt lat="39.391496736213206" lon="-3.3687835432612845"><ele>638.5</ele><time>2026-05-01T10:19:17Z</time></trkpt><trkpt lat="39.39163260109852" lon="-3.368818752874008"><ele>639.25</ele><time>2026-05-01T10:19:18Z</time></trkpt><trkpt lat="39.391752235106814" lon="-3.368862748403931"><ele>640.0</ele><time>2026-05-01T10:19:19Z</time></trkpt><trkpt lat="39.39186371316442" lon="-3.368910614852091"><ele>640.0</ele><time>2026-05-01T10:19:20Z</time></trkpt><trkpt lat="39.39200399067312" lon="-3.36897465080957"><ele>640.0</ele><time>2026-05-01T10:19:21Z</time></trkpt><trkpt lat="39.39214633974627" lon="-3.369032372526602"><ele>640.0</ele><time>2026-05-01T10:19:22Z</time></trkpt><trkpt lat="39.3922699955823" lon="-3.369087597039393"><ele>640.0</ele><time>2026-05-01T10:19:23Z</time></trkpt><trkpt lat="39.3923788324967" lon="-3.3691454702022"><ele>639.8</ele><time>2026-05-01T10:19:24Z</time></trkpt><trkpt lat="39.39248118434183" lon="-3.36920062324736"><ele>639.6</ele><time>2026-05-01T10:19:25Z</time></trkpt><trkpt lat="39.39256664011753" lon="-3.3692455551715095"><ele>639.4</ele><time>2026-05-01T10:19:26Z</time></trkpt><trkpt lat="39.39263785890698" lon="-3.3692885308074914"><ele>639.2</ele><time>2026-05-01T10:19:27Z</time></trkpt><trkpt lat="39.39270976655132" lon="-3.369342196734629"><ele>639.0</ele><time>2026-05-01T10:19:28Z</time></trkpt><trkpt lat="39.39280128824827" lon="-3.369394863952338"><ele>639.0</ele><time>2026-05-01T10:19:29Z</time></trkpt><trkpt lat="39.392899148740696" lon="-3.3694096126505624"><ele>639.0</ele><time>2026-05-01T10:19:30Z</time></trkpt><trkpt lat="39.39299547964047" lon="-3.369448600987464"><ele>639.0</ele><time>2026-05-01T10:19:31Z</time></trkpt><trkpt lat="39.39312196195418" lon="-3.3694671435408217"><ele>639.0</ele><time>2026-05-01T10:19:32Z</time></trkpt><trkpt lat="39.39325282457539" lon="-3.3694624629192806"><ele>639.0</ele><time>2026-05-01T10:19:33Z</time></trkpt><trkpt lat="39.39338900464751" lon="-3.369480749007928"><ele>639.0</ele><time>2026-05-01T10:19:34Z</time></trkpt><trkpt lat="39.39353708587339" lon="-3.3695055399666"><ele>639.0</ele><time>2026-05-01T10:19:35Z</time></trkpt><trkpt lat="39.39373418745243" lon="-3.369561167855389"><ele>639.0</ele><time>2026-05-01T10:19:36Z</time></trkpt><trkpt lat="39.39396127639374" lon="-3.369590814207876"><ele>639.0</ele><time>2026-05-01T10:19:37Z</time></trkpt><trkpt lat="39.39415650408891" lon="-3.3696332512077887"><ele>639.0</ele><time>2026-05-01T10:19:38Z</time></trkpt><trkpt lat="39.394355164460364" lon="-3.3696770300125958"><ele>639.0</ele><time>2026-05-01T10:19:39Z</time></trkpt><trkpt lat="39.39453530213403" lon="-3.3697169552763233"><ele>639.0</ele><time>2026-05-01T10:19:40Z</time></trkpt><trkpt lat="39.39470622348186" lon="-3.369753472834935"><ele>639.0</ele><time>2026-05-01T10:19:41Z</time></trkpt><trkpt lat="39.39485584256072" lon="-3.3697940015317456"><ele>639.6666666666666</ele><time>2026-05-01T10:19:42Z</time></trkpt><trkpt lat="39.395017283407796" lon="-3.3698590297568694"><ele>640.3333333333333</ele><time>2026-05-01T10:19:43Z</time></trkpt><trkpt lat="39.39517000061529" lon="-3.3699343300564193"><ele>641.0</ele><time>2026-05-01T10:19:44Z</time></trkpt><trkpt lat="39.39533550676545" lon="-3.3700319361528353"><ele>641.0</ele><time>2026-05-01T10:19:45Z</time></trkpt><trkpt lat="39.395539994862254" lon="-3.370167284921903"><ele>641.0</ele><time>2026-05-01T10:19:46Z</time></trkpt><trkpt lat="39.39577408519061" lon="-3.3702874327777694"><ele>641.0</ele><time>2026-05-01T10:19:47Z</time></trkpt><trkpt lat="39.39598870409316" lon="-3.3704497107698255"><ele>641.0</ele><time>2026-05-01T10:19:48Z</time></trkpt><trkpt lat="39.3961667573148" lon="-3.3705722474234143"><ele>641.0</ele><time>2026-05-01T10:19:49Z</time></trkpt><trkpt lat="39.39632539477511" lon="-3.3706909560714684"><ele>641.0</ele><time>2026-05-01T10:19:50Z</time></trkpt><trkpt lat="39.396470590758454" lon="-3.370773907770136"><ele>641.0</ele><time>2026-05-01T10:19:51Z</time></trkpt><trkpt lat="39.39659774028922" lon="-3.3708642419385773"><ele>641.75</ele><time>2026-05-01T10:19:52Z</time></trkpt><trkpt lat="39.39671290530558" lon="-3.370941225877045"><ele>642.5</ele><time>2026-05-01T10:19:53Z</time></trkpt><trkpt lat="39.39681551368355" lon="-3.371026536490254"><ele>643.25</ele><time>2026-05-01T10:19:54Z</time></trkpt><trkpt lat="39.39691685276428" lon="-3.371077211506804"><ele>644.0</ele><time>2026-05-01T10:19:55Z</time></trkpt><trkpt lat="39.39701715962967" lon="-3.3710921613282747"><ele>644.0</ele><time>2026-05-01T10:19:56Z</time></trkpt><trkpt lat="39.39710139373867" lon="-3.3711149988651155"><ele>644.0</ele><time>2026-05-01T10:19:57Z</time></trkpt><trkpt lat="39.39717485435669" lon="-3.3711285916536995"><ele>644.0</ele><time>2026-05-01T10:19:58Z</time></trkpt><trkpt lat="39.397296503853966" lon="-3.3711388036503784"><ele>644.0</ele><time>2026-05-01T10:20:00Z</time></trkpt><trkpt lat="39.39739875690797" lon="-3.3711294666137124"><ele>644.0</ele><time>2026-05-01T10:20:02Z</time></trkpt><trkpt lat="39.397492705696706" lon="-3.3710989534775275"><ele>644.4000000000001</ele><time>2026-05-01T10:20:05Z</time></trkpt><trkpt lat="39.397636069206946" lon="-3.3710253007879905"><ele>644.8</ele><time>2026-05-01T10:20:07Z</time></trkpt><trkpt lat="39.39770944580361" lon="-3.370988597982782"><ele>645.2</ele><time>2026-05-01T10:20:08Z</time></trkpt><trkpt lat="39.397782018161216" lon="-3.3709682006956285"><ele>645.5999999999999</ele><time>2026-05-01T10:20:09Z</time></trkpt><trkpt lat="39.39787016395765" lon="-3.3708835752592505"><ele>646.0</ele><time>2026-05-01T10:20:10Z</time></trkpt><trkpt lat="39.39797106359138" lon="-3.370838152062263"><ele>646.25</ele><time>2026-05-01T10:20:11Z</time></trkpt><trkpt lat="39.39808301819246" lon="-3.3707551016442117"><ele>646.5</ele><time>2026-05-01T10:20:12Z</time></trkpt><trkpt lat="39.39818239876751" lon="-3.3706848250309704"><ele>646.75</ele><time>2026-05-01T10:20:13Z</time></trkpt><trkpt lat="39.39828049601509" lon="-3.370608114470885"><ele>647.0</ele><time>2026-05-01T10:20:14Z</time></trkpt><trkpt lat="39.398399208488115" lon="-3.3705099284814515"><ele>647.0</ele><time>2026-05-01T10:20:15Z</time></trkpt><trkpt lat="39.39853568339151" lon="-3.370419305451162"><ele>647.0</ele><time>2026-05-01T10:20:16Z</time></trkpt><trkpt lat="39.39866210031277" lon="-3.3703455099612705"><ele>647.0</ele><time>2026-05-01T10:20:17Z</time></trkpt><trkpt lat="39.39879707792574" lon="-3.3702656707419876"><ele>647.0</ele><time>2026-05-01T10:20:18Z</time></trkpt><trkpt lat="39.3989826253466" lon="-3.3701662979700826"><ele>647.0</ele><time>2026-05-01T10:20:19Z</time></trkpt><trkpt lat="39.39915087280956" lon="-3.3700880761910557"><ele>647.0</ele><time>2026-05-01T10:20:20Z</time></trkpt><trkpt lat="39.399313973609374" lon="-3.370030127700952"><ele>647.0</ele><time>2026-05-01T10:20:21Z</time></trkpt><trkpt lat="39.399480746383276" lon="-3.3699894533140022"><ele>647.0</ele><time>2026-05-01T10:20:22Z</time></trkpt><trkpt lat="39.3996299187206" lon="-3.369950903964268"><ele>647.0</ele><time>2026-05-01T10:20:23Z</time></trkpt><trkpt lat="39.39977695230366" lon="-3.369955974286675"><ele>647.0</ele><time>2026-05-01T10:20:24Z</time></trkpt><trkpt lat="39.39993044250711" lon="-3.370013162567528"><ele>647.0</ele><time>2026-05-01T10:20:25Z</time></trkpt><trkpt lat="39.400105813767446" lon="-3.370071883900457"><ele>647.0</ele><time>2026-05-01T10:20:26Z</time></trkpt><trkpt lat="39.4003019630784" lon="-3.3701366690120684"><ele>647.0</ele><time>2026-05-01T10:20:27Z</time></trkpt><trkpt lat="39.400466920755754" lon="-3.3701722497465485"><ele>647.6666666666666</ele><time>2026-05-01T10:20:28Z</time></trkpt><trkpt lat="39.40061791100103" lon="-3.370173441851752"><ele>648.3333333333334</ele><time>2026-05-01T10:20:29Z</time></trkpt><trkpt lat="39.40077140229597" lon="-3.3701502553395057"><ele>649.0</ele><time>2026-05-01T10:20:30Z</time></trkpt><trkpt lat="39.400941668311255" lon="-3.370100858267648"><ele>649.0</ele><time>2026-05-01T10:20:31Z</time></trkpt><trkpt lat="39.401131494036704" lon="-3.3700349913170142"><ele>649.0</ele><time>2026-05-01T10:20:32Z</time></trkpt><trkpt lat="39.40133077635412" lon="-3.36996845140407"><ele>649.0</ele><time>2026-05-01T10:20:33Z</time></trkpt><trkpt lat="39.40148360671542" lon="-3.369894791772189"><ele>648.6666666666667</ele><time>2026-05-01T10:20:34Z</time></trkpt><trkpt lat="39.401630206949605" lon="-3.36984849998646"><ele>648.3333333333334</ele><time>2026-05-01T10:20:35Z</time></trkpt><trkpt lat="39.40177016439637" lon="-3.369814996722662"><ele>648.0</ele><time>2026-05-01T10:20:36Z</time></trkpt><trkpt lat="39.40192849713413" lon="-3.369791095750624"><ele>648.0</ele><time>2026-05-01T10:20:37Z</time></trkpt><trkpt lat="39.40207559211528" lon="-3.369805721271344"><ele>648.0</ele><time>2026-05-01T10:20:38Z</time></trkpt><trkpt lat="39.40224540464239" lon="-3.369828518777923"><ele>648.0</ele><time>2026-05-01T10:20:39Z</time></trkpt><trkpt lat="39.40241314866712" lon="-3.3698502660113046"><ele>647.6666666666666</ele><time>2026-05-01T10:20:40Z</time></trkpt><trkpt lat="39.402637338642236" lon="-3.36991001017592"><ele>647.3333333333333</ele><time>2026-05-01T10:20:41Z</time></trkpt><trkpt lat="39.40284718451436" lon="-3.369981315354439"><ele>647.0</ele><time>2026-05-01T10:20:42Z</time></trkpt><trkpt lat="39.40302108478462" lon="-3.370048432100814"><ele>648.3333333333333</ele><time>2026-05-01T10:20:43Z</time></trkpt><trkpt lat="39.40317970269012" lon="-3.3701084573923046"><ele>649.6666666666666</ele><time>2026-05-01T10:20:44Z</time></trkpt><trkpt lat="39.403329154048116" lon="-3.3701479149840736"><ele>651.0</ele><time>2026-05-01T10:20:45Z</time></trkpt><trkpt lat="39.40348755148361" lon="-3.370144940405932"><ele>651.0</ele><time>2026-05-01T10:20:46Z</time></trkpt><trkpt lat="39.40365384396388" lon="-3.3701386479290942"><ele>651.0</ele><time>2026-05-01T10:20:47Z</time></trkpt><trkpt lat="39.403833019446985" lon="-3.3700979745775577"><ele>651.0</ele><time>2026-05-01T10:20:48Z</time></trkpt><trkpt lat="39.40401954009367" lon="-3.3700774494998336"><ele>650.6666666666666</ele><time>2026-05-01T10:20:49Z</time></trkpt><trkpt lat="39.404224558715036" lon="-3.3700870928516924"><ele>650.3333333333333</ele><time>2026-05-01T10:20:50Z</time></trkpt><trkpt lat="39.40444057543645" lon="-3.3700616959796634"><ele>650.0</ele><time>2026-05-01T10:20:51Z</time></trkpt><trkpt lat="39.404652239267676" lon="-3.3700435303099465"><ele>649.6666666666666</ele><time>2026-05-01T10:20:52Z</time></trkpt><trkpt lat="39.404842620551584" lon="-3.370016768881882"><ele>649.3333333333334</ele><time>2026-05-01T10:20:53Z</time></trkpt><trkpt lat="39.40501355307009" lon="-3.369981845135876"><ele>649.0</ele><time>2026-05-01T10:20:54Z</time></trkpt><trkpt lat="39.405172118284995" lon="-3.369941637999464"><ele>649.0</ele><time>2026-05-01T10:20:55Z</time></trkpt><trkpt lat="39.40531322673382" lon="-3.3698706290777385"><ele>649.0</ele><time>2026-05-01T10:20:56Z</time></trkpt><trkpt lat="39.40544649065846" lon="-3.369805830545884"><ele>649.0</ele><time>2026-05-01T10:20:57Z</time></trkpt><trkpt lat="39.40556540248639" lon="-3.3697470367707765"><ele>649.0</ele><time>2026-05-01T10:20:58Z</time></trkpt><trkpt lat="39.40567634734736" lon="-3.369693596852708"><ele>649.0</ele><time>2026-05-01T10:20:59Z</time></trkpt><trkpt lat="39.405777929536754" lon="-3.3696506493984675"><ele>649.0</ele><time>2026-05-01T10:21:00Z</time></trkpt><trkpt lat="39.405879061144155" lon="-3.3696366961721314"><ele>649.0</ele><time>2026-05-01T10:21:01Z</time></trkpt><trkpt lat="39.40596677692286" lon="-3.369604495502418"><ele>649.0</ele><time>2026-05-01T10:21:02Z</time></trkpt><trkpt lat="39.406058669387676" lon="-3.3695823442990287"><ele>649.0</ele><time>2026-05-01T10:21:03Z</time></trkpt><trkpt lat="39.40615354091756" lon="-3.3695657982329394"><ele>649.0</ele><time>2026-05-01T10:21:04Z</time></trkpt><trkpt lat="39.406236570035176" lon="-3.369559034646555"><ele>649.0</ele><time>2026-05-01T10:21:05Z</time></trkpt><trkpt lat="39.40630270429592" lon="-3.3695618115273063"><ele>649.0</ele><time>2026-05-01T10:21:06Z</time></trkpt><trkpt lat="39.40641172880167" lon="-3.3695752480009324"><ele>649.0</ele><time>2026-05-01T10:21:08Z</time></trkpt><trkpt lat="39.406517630634845" lon="-3.3695917213224567"><ele>649.0</ele><time>2026-05-01T10:21:10Z</time></trkpt><trkpt lat="39.40661980433778" lon="-3.369603090672618"><ele>648.6666666666667</ele><time>2026-05-01T10:21:12Z</time></trkpt><trkpt lat="39.40670627197828" lon="-3.3696309636946977"><ele>648.3333333333334</ele><time>2026-05-01T10:21:14Z</time></trkpt><trkpt lat="39.406805465449764" lon="-3.369654148440012"><ele>648.0</ele><time>2026-05-01T10:21:16Z</time></trkpt><trkpt lat="39.40687908240133" lon="-3.369682091679428"><ele>647.6666666666666</ele><time>2026-05-01T10:21:18Z</time></trkpt><trkpt lat="39.40696060207358" lon="-3.3697044870126405"><ele>647.3333333333333</ele><time>2026-05-01T10:21:20Z</time></trkpt><trkpt lat="39.40704882920006" lon="-3.369712565725689"><ele>647.0</ele><time>2026-05-01T10:21:22Z</time></trkpt><trkpt lat="39.407157192193075" lon="-3.369709633248041"><ele>646.8</ele><time>2026-05-01T10:21:24Z</time></trkpt><trkpt lat="39.40726706284497" lon="-3.369731930115558"><ele>646.6</ele><time>2026-05-01T10:21:26Z</time></trkpt><trkpt lat="39.40734906189501" lon="-3.369731385415011"><ele>646.4</ele><time>2026-05-01T10:21:27Z</time></trkpt><trkpt lat="39.40745710539015" lon="-3.369711959399167"><ele>646.1999999999999</ele><time>2026-05-01T10:21:28Z</time></trkpt><trkpt lat="39.40757939057517" lon="-3.3697124116457777"><ele>646.0</ele><time>2026-05-01T10:21:29Z</time></trkpt><trkpt lat="39.407713466171344" lon="-3.369732140720593"><ele>646.0</ele><time>2026-05-01T10:21:30Z</time></trkpt><trkpt lat="39.40786350091907" lon="-3.3697227149356435"><ele>646.0</ele><time>2026-05-01T10:21:31Z</time></trkpt><trkpt lat="39.40801452726394" lon="-3.3697182307835973"><ele>646.0</ele><time>2026-05-01T10:21:32Z</time></trkpt><trkpt lat="39.408162536397974" lon="-3.369715344125918"><ele>646.0</ele><time>2026-05-01T10:21:33Z</time></trkpt><trkpt lat="39.4082876650274" lon="-3.3697322688171827"><ele>646.0</ele><time>2026-05-01T10:21:34Z</time></trkpt><trkpt lat="39.40841459595078" lon="-3.369760676667025"><ele>646.0</ele><time>2026-05-01T10:21:35Z</time></trkpt><trkpt lat="39.408556794920294" lon="-3.369809163818345"><ele>646.0</ele><time>2026-05-01T10:21:36Z</time></trkpt><trkpt lat="39.408711390906255" lon="-3.369873432717582"><ele>646.0</ele><time>2026-05-01T10:21:37Z</time></trkpt><trkpt lat="39.40884989002432" lon="-3.3699571078724224"><ele>646.0</ele><time>2026-05-01T10:21:38Z</time></trkpt><trkpt lat="39.408994739845895" lon="-3.37007205961895"><ele>646.0</ele><time>2026-05-01T10:21:39Z</time></trkpt><trkpt lat="39.409140415648196" lon="-3.3701915905619426"><ele>646.0</ele><time>2026-05-01T10:21:40Z</time></trkpt><trkpt lat="39.409284800735485" lon="-3.3702929996316002"><ele>646.0</ele><time>2026-05-01T10:21:41Z</time></trkpt><trkpt lat="39.40942350831039" lon="-3.370332244129106"><ele>646.0</ele><time>2026-05-01T10:21:42Z</time></trkpt><trkpt lat="39.409564222035854" lon="-3.3703470777743676"><ele>646.0</ele><time>2026-05-01T10:21:43Z</time></trkpt><trkpt lat="39.409721995147805" lon="-3.370336286555051"><ele>646.0</ele><time>2026-05-01T10:21:44Z</time></trkpt><trkpt lat="39.409884683624206" lon="-3.370303074086937"><ele>646.0</ele><time>2026-05-01T10:21:45Z</time></trkpt><trkpt lat="39.410075020977686" lon="-3.3702501078206906"><ele>646.0</ele><time>2026-05-01T10:21:46Z</time></trkpt><trkpt lat="39.41028059629178" lon="-3.37018065507104"><ele>646.0</ele><time>2026-05-01T10:21:47Z</time></trkpt><trkpt lat="39.410512665713995" lon="-3.3700883441538614"><ele>645.0</ele><time>2026-05-01T10:21:48Z</time></trkpt><trkpt lat="39.41075370573557" lon="-3.369976265861311"><ele>644.0</ele><time>2026-05-01T10:21:49Z</time></trkpt><trkpt lat="39.411025499341555" lon="-3.36985700145836"><ele>644.0</ele><time>2026-05-01T10:21:50Z</time></trkpt><trkpt lat="39.41128699074119" lon="-3.3697535314961162"><ele>644.0</ele><time>2026-05-01T10:21:51Z</time></trkpt><trkpt lat="39.411518756932175" lon="-3.369665872460516"><ele>646.0</ele><time>2026-05-01T10:21:52Z</time></trkpt><trkpt lat="39.41174974192839" lon="-3.3695866628574422"><ele>648.0</ele><time>2026-05-01T10:21:53Z</time></trkpt><trkpt lat="39.411982923849735" lon="-3.3695151622993005"><ele>648.5</ele><time>2026-05-01T10:21:54Z</time></trkpt><trkpt lat="39.41220493282491" lon="-3.369427002969488"><ele>649.0</ele><time>2026-05-01T10:21:55Z</time></trkpt><trkpt lat="39.41244830951508" lon="-3.3693572040805337"><ele>649.0</ele><time>2026-05-01T10:21:56Z</time></trkpt><trkpt lat="39.41270552114394" lon="-3.369301499328313"><ele>649.0</ele><time>2026-05-01T10:21:57Z</time></trkpt><trkpt lat="39.41294772624814" lon="-3.369273644816905"><ele>647.0</ele><time>2026-05-01T10:21:58Z</time></trkpt><trkpt lat="39.41321695252122" lon="-3.369230317975444"><ele>645.0</ele><time>2026-05-01T10:21:59Z</time></trkpt><trkpt lat="39.413504626074975" lon="-3.3691938600672673"><ele>645.0</ele><time>2026-05-01T10:22:00Z</time></trkpt><trkpt lat="39.41378871496763" lon="-3.369128994111822"><ele>645.0</ele><time>2026-05-01T10:22:01Z</time></trkpt><trkpt lat="39.41405864856492" lon="-3.3690899008217285"><ele>645.0</ele><time>2026-05-01T10:22:02Z</time></trkpt><trkpt lat="39.4143230107273" lon="-3.3690634678706926"><ele>645.0</ele><time>2026-05-01T10:22:03Z</time></trkpt><trkpt lat="39.41460270304745" lon="-3.3690433125462738"><ele>644.5</ele><time>2026-05-01T10:22:04Z</time></trkpt><trkpt lat="39.41488258474276" lon="-3.3690388392150927"><ele>644.0</ele><time>2026-05-01T10:22:05Z</time></trkpt><trkpt lat="39.41516453135984" lon="-3.3690110816105556"><ele>644.0</ele><time>2026-05-01T10:22:06Z</time></trkpt><trkpt lat="39.415431210723256" lon="-3.368982900540364"><ele>644.0</ele><time>2026-05-01T10:22:07Z</time></trkpt><trkpt lat="39.415670567940545" lon="-3.3689582857926235"><ele>644.5</ele><time>2026-05-01T10:22:08Z</time></trkpt><trkpt lat="39.41590859778786" lon="-3.368911913077272"><ele>645.0</ele><time>2026-05-01T10:22:09Z</time></trkpt><trkpt lat="39.41614258824251" lon="-3.368886018183792"><ele>645.0</ele><time>2026-05-01T10:22:10Z</time></trkpt><trkpt lat="39.41639598106782" lon="-3.3688596022667303"><ele>645.0</ele><time>2026-05-01T10:22:11Z</time></trkpt><trkpt lat="39.41663314628961" lon="-3.368837074860233"><ele>645.0</ele><time>2026-05-01T10:22:12Z</time></trkpt><trkpt lat="39.416855483518475" lon="-3.368833593705305"><ele>645.0</ele><time>2026-05-01T10:22:13Z</time></trkpt><trkpt lat="39.417078081910745" lon="-3.368860369178876"><ele>645.0</ele><time>2026-05-01T10:22:14Z</time></trkpt><trkpt lat="39.41732770349092" lon="-3.3688905660403963"><ele>644.0</ele><time>2026-05-01T10:22:15Z</time></trkpt><trkpt lat="39.417595100705284" lon="-3.3689037396677053"><ele>643.0</ele><time>2026-05-01T10:22:16Z</time></trkpt><trkpt lat="39.41786750908715" lon="-3.3689496222111823"><ele>642.6666666666667</ele><time>2026-05-01T10:22:17Z</time></trkpt><trkpt lat="39.418091600448264" lon="-3.368996344053506"><ele>642.3333333333334</ele><time>2026-05-01T10:22:18Z</time></trkpt><trkpt lat="39.41828873186285" lon="-3.3690328243183387"><ele>642.0</ele><time>2026-05-01T10:22:19Z</time></trkpt><trkpt lat="39.41846336944932" lon="-3.3690633323182824"><ele>642.0</ele><time>2026-05-01T10:22:20Z</time></trkpt><trkpt lat="39.41862899934312" lon="-3.369092266669197"><ele>642.0</ele><time>2026-05-01T10:22:21Z</time></trkpt><trkpt lat="39.41877743558629" lon="-3.3691171483928626"><ele>642.0</ele><time>2026-05-01T10:22:22Z</time></trkpt><trkpt lat="39.41891398299556" lon="-3.3691399554594015"><ele>642.4000000000001</ele><time>2026-05-01T10:22:23Z</time></trkpt><trkpt lat="39.41901614662912" lon="-3.369155905612061"><ele>642.8000000000001</ele><time>2026-05-01T10:22:24Z</time></trkpt><trkpt lat="39.419100382340986" lon="-3.3691598298538508"><ele>643.2</ele><time>2026-05-01T10:22:25Z</time></trkpt><trkpt lat="39.41917744602524" lon="-3.3691486356653852"><ele>643.6</ele><time>2026-05-01T10:22:26Z</time></trkpt><trkpt lat="39.419301252132676" lon="-3.3691018201448295"><ele>644.0</ele><time>2026-05-01T10:22:28Z</time></trkpt><trkpt lat="39.41936001162741" lon="-3.3689968364577"><ele>644.0</ele><time>2026-05-01T10:22:29Z</time></trkpt><trkpt lat="39.4194511246606" lon="-3.3688877564000674"><ele>644.0</ele><time>2026-05-01T10:22:30Z</time></trkpt><trkpt lat="39.419566964458824" lon="-3.368737620883886"><ele>644.0</ele><time>2026-05-01T10:22:31Z</time></trkpt><trkpt lat="39.419686944566436" lon="-3.368562110118756"><ele>644.0</ele><time>2026-05-01T10:22:32Z</time></trkpt><trkpt lat="39.41981014851149" lon="-3.368400448806363"><ele>644.0</ele><time>2026-05-01T10:22:33Z</time></trkpt><trkpt lat="39.419926137325255" lon="-3.36820626354839"><ele>644.0</ele><time>2026-05-01T10:22:34Z</time></trkpt><trkpt lat="39.42003859603113" lon="-3.368023596081231"><ele>644.0</ele><time>2026-05-01T10:22:35Z</time></trkpt><trkpt lat="39.42015563262727" lon="-3.3678480056330065"><ele>644.0</ele><time>2026-05-01T10:22:36Z</time></trkpt><trkpt lat="39.42027000962178" lon="-3.3676714328567527"><ele>644.0</ele><time>2026-05-01T10:22:37Z</time></trkpt><trkpt lat="39.42036429008777" lon="-3.3674902734429386"><ele>644.0</ele><time>2026-05-01T10:22:38Z</time></trkpt><trkpt lat="39.420461387419245" lon="-3.367330349291792"><ele>644.0</ele><time>2026-05-01T10:22:39Z</time></trkpt><trkpt lat="39.42055237832017" lon="-3.367177232226806"><ele>644.0</ele><time>2026-05-01T10:22:40Z</time></trkpt><trkpt lat="39.42064421941056" lon="-3.3670218443796696"><ele>643.3333333333333</ele><time>2026-05-01T10:22:41Z</time></trkpt><trkpt lat="39.420736679344394" lon="-3.366867330272893"><ele>642.6666666666666</ele><time>2026-05-01T10:22:42Z</time></trkpt><trkpt lat="39.420857043304736" lon="-3.366713174398114"><ele>642.0</ele><time>2026-05-01T10:22:43Z</time></trkpt><trkpt lat="39.420979128396624" lon="-3.3665332885467305"><ele>642.0</ele><time>2026-05-01T10:22:44Z</time></trkpt><trkpt lat="39.421123118678" lon="-3.366344195895715"><ele>642.0</ele><time>2026-05-01T10:22:45Z</time></trkpt><trkpt lat="39.42127904913545" lon="-3.3661576166946743"><ele>642.0</ele><time>2026-05-01T10:22:46Z</time></trkpt><trkpt lat="39.42142472277646" lon="-3.3659911614023863"><ele>642.3333333333334</ele><time>2026-05-01T10:22:47Z</time></trkpt><trkpt lat="39.42156582672253" lon="-3.365859996342414"><ele>642.6666666666667</ele><time>2026-05-01T10:22:48Z</time></trkpt><trkpt lat="39.42171034547084" lon="-3.3657481328163588"><ele>643.0</ele><time>2026-05-01T10:22:49Z</time></trkpt><trkpt lat="39.42187159746643" lon="-3.3656302517122194"><ele>643.0</ele><time>2026-05-01T10:22:50Z</time></trkpt><trkpt lat="39.42202995661568" lon="-3.3654784911415274"><ele>643.0</ele><time>2026-05-01T10:22:51Z</time></trkpt><trkpt lat="39.422169492649644" lon="-3.365354142650221"><ele>643.0</ele><time>2026-05-01T10:22:52Z</time></trkpt><trkpt lat="39.42229974623263" lon="-3.3652335357879317"><ele>643.0</ele><time>2026-05-01T10:22:53Z</time></trkpt><trkpt lat="39.42241788133426" lon="-3.3651204395081007"><ele>643.0</ele><time>2026-05-01T10:22:54Z</time></trkpt><trkpt lat="39.42252405897208" lon="-3.3650142950927453"><ele>643.0</ele><time>2026-05-01T10:22:55Z</time></trkpt><trkpt lat="39.42262218818555" lon="-3.3649115210399554"><ele>643.0</ele><time>2026-05-01T10:22:56Z</time></trkpt><trkpt lat="39.42270723638751" lon="-3.3648215307207647"><ele>643.0</ele><time>2026-05-01T10:22:57Z</time></trkpt><trkpt lat="39.42279142484478" lon="-3.3647317192389674"><ele>643.0</ele><time>2026-05-01T10:22:58Z</time></trkpt><trkpt lat="39.42286538463144" lon="-3.364652819558195"><ele>643.0</ele><time>2026-05-01T10:22:59Z</time></trkpt><trkpt lat="39.42293935467671" lon="-3.3645739090218507"><ele>643.0</ele><time>2026-05-01T10:23:00Z</time></trkpt><trkpt lat="39.42300642620562" lon="-3.364502357761102"><ele>643.0</ele><time>2026-05-01T10:23:01Z</time></trkpt><trkpt lat="39.42308249122865" lon="-3.364447521037534"><ele>643.0</ele><time>2026-05-01T10:23:02Z</time></trkpt><trkpt lat="39.423139459789276" lon="-3.3643822280480036"><ele>643.0</ele><time>2026-05-01T10:23:03Z</time></trkpt><trkpt lat="39.423199745680634" lon="-3.3642963710802674"><ele>643.0</ele><time>2026-05-01T10:23:04Z</time></trkpt><trkpt lat="39.42327054024267" lon="-3.364221123216465"><ele>643.0</ele><time>2026-05-01T10:23:05Z</time></trkpt><trkpt lat="39.42337091358182" lon="-3.364147488274115"><ele>643.0</ele><time>2026-05-01T10:23:06Z</time></trkpt><trkpt lat="39.423463771360915" lon="-3.3640480288476335"><ele>643.0</ele><time>2026-05-01T10:23:07Z</time></trkpt><trkpt lat="39.42356539751507" lon="-3.3639427320401807"><ele>643.0</ele><time>2026-05-01T10:23:08Z</time></trkpt><trkpt lat="39.42364423336889" lon="-3.3638308832361195"><ele>643.0</ele><time>2026-05-01T10:23:09Z</time></trkpt><trkpt lat="39.423712549403156" lon="-3.363747281303228"><ele>643.0</ele><time>2026-05-01T10:23:10Z</time></trkpt><trkpt lat="39.42376683693955" lon="-3.363680846681745"><ele>643.0</ele><time>2026-05-01T10:23:11Z</time></trkpt><trkpt lat="39.42384090572647" lon="-3.3635972312181384"><ele>643.6666666666667</ele><time>2026-05-01T10:23:13Z</time></trkpt><trkpt lat="39.42383609672503" lon="-3.3634655629628947"><ele>644.3333333333334</ele><time>2026-05-01T10:23:15Z</time></trkpt><trkpt lat="39.42386812023617" lon="-3.3633363771709543"><ele>645.0</ele><time>2026-05-01T10:23:17Z</time></trkpt><trkpt lat="39.42394501120198" lon="-3.363349656845837"><ele>645.6666666666666</ele><time>2026-05-01T10:23:18Z</time></trkpt><trkpt lat="39.42400758116559" lon="-3.3633915437903394"><ele>646.3333333333333</ele><time>2026-05-01T10:23:19Z</time></trkpt><trkpt lat="39.42408240097736" lon="-3.363406033366799"><ele>647.0</ele><time>2026-05-01T10:23:20Z</time></trkpt><trkpt lat="39.4241631604699" lon="-3.3633654498148653"><ele>647.0</ele><time>2026-05-01T10:23:21Z</time></trkpt><trkpt lat="39.4242200996337" lon="-3.3632390323084977"><ele>647.0</ele><time>2026-05-01T10:23:22Z</time></trkpt><trkpt lat="39.42429923203658" lon="-3.363171793935936"><ele>647.0</ele><time>2026-05-01T10:23:23Z</time></trkpt><trkpt lat="39.4243656485884" lon="-3.363117364970648"><ele>647.0</ele><time>2026-05-01T10:23:24Z</time></trkpt><trkpt lat="39.42442133406451" lon="-3.363075573515229"><ele>647.0</ele><time>2026-05-01T10:23:25Z</time></trkpt><trkpt lat="39.42447921931675" lon="-3.3630327530085755"><ele>647.0</ele><time>2026-05-01T10:23:26Z</time></trkpt><trkpt lat="39.42455810703206" lon="-3.36299652043082"><ele>647.0</ele><time>2026-05-01T10:23:27Z</time></trkpt><trkpt lat="39.42462712125548" lon="-3.3629331777823146"><ele>647.0</ele><time>2026-05-01T10:23:28Z</time></trkpt><trkpt lat="39.4246885768833" lon="-3.362884143953797"><ele>647.0</ele><time>2026-05-01T10:23:29Z</time></trkpt><trkpt lat="39.4247477901584" lon="-3.36283405040097"><ele>647.0</ele><time>2026-05-01T10:23:30Z</time></trkpt><trkpt lat="39.424825448796526" lon="-3.3628282752176486"><ele>647.0</ele><time>2026-05-01T10:23:31Z</time></trkpt><trkpt lat="39.424901540718196" lon="-3.362790098199733"><ele>647.0</ele><time>2026-05-01T10:23:32Z</time></trkpt><trkpt lat="39.42501381659679" lon="-3.3628088899781505"><ele>646.8</ele><time>2026-05-01T10:23:33Z</time></trkpt><trkpt lat="39.425116805732415" lon="-3.3627979523026053"><ele>646.6</ele><time>2026-05-01T10:23:34Z</time></trkpt><trkpt lat="39.425211710793846" lon="-3.3627754994389045"><ele>646.4</ele><time>2026-05-01T10:23:35Z</time></trkpt><trkpt lat="39.42528748500243" lon="-3.3627263596249306"><ele>646.1999999999999</ele><time>2026-05-01T10:23:36Z</time></trkpt><trkpt lat="39.42536119537669" lon="-3.362704631835262"><ele>646.0</ele><time>2026-05-01T10:23:37Z</time></trkpt><trkpt lat="39.42545177719935" lon="-3.3626773193939212"><ele>646.0</ele><time>2026-05-01T10:23:38Z</time></trkpt><trkpt lat="39.425538864731415" lon="-3.3626510605295987"><ele>646.0</ele><time>2026-05-01T10:23:39Z</time></trkpt><trkpt lat="39.425618688499895" lon="-3.3626269918503877"><ele>646.0</ele><time>2026-05-01T10:23:40Z</time></trkpt><trkpt lat="39.42568629219691" lon="-3.362606607800133"><ele>646.0</ele><time>2026-05-01T10:23:41Z</time></trkpt><trkpt lat="39.42579946191651" lon="-3.3625724825130754"><ele>646.0</ele><time>2026-05-01T10:23:43Z</time></trkpt><trkpt lat="39.42589295052119" lon="-3.3625527705512708"><ele>646.0</ele><time>2026-05-01T10:23:45Z</time></trkpt><trkpt lat="39.4259721984182" lon="-3.3625357195376893"><ele>646.0</ele><time>2026-05-01T10:23:47Z</time></trkpt><trkpt lat="39.42603813565475" lon="-3.3625192737946685"><ele>646.0</ele><time>2026-05-01T10:23:49Z</time></trkpt><trkpt lat="39.426106674937465" lon="-3.3625192536177377"><ele>646.0</ele><time>2026-05-01T10:23:51Z</time></trkpt><trkpt lat="39.42614025428587" lon="-3.3624341420446666"><ele>646.0</ele><time>2026-05-01T10:23:53Z</time></trkpt><trkpt lat="39.42611757134092" lon="-3.3623148424595333"><ele>646.0</ele><time>2026-05-01T10:23:55Z</time></trkpt><trkpt lat="39.42610824296112" lon="-3.3622098723833913"><ele>646.1999999999999</ele><time>2026-05-01T10:23:57Z</time></trkpt><trkpt lat="39.42610483221884" lon="-3.3620870664672515"><ele>646.4</ele><time>2026-05-01T10:23:59Z</time></trkpt><trkpt lat="39.42609051475166" lon="-3.3619454840344116"><ele>646.6</ele><time>2026-05-01T10:24:01Z</time></trkpt><trkpt lat="39.42608331265898" lon="-3.3618561695739055"><ele>646.8</ele><time>2026-05-01T10:24:02Z</time></trkpt><trkpt lat="39.42607276572807" lon="-3.361703877391187"><ele>647.0</ele><time>2026-05-01T10:24:04Z</time></trkpt><trkpt lat="39.426049578530844" lon="-3.361541155363929"><ele>647.0</ele><time>2026-05-01T10:24:06Z</time></trkpt><trkpt lat="39.426041071719055" lon="-3.361446759375207"><ele>647.0</ele><time>2026-05-01T10:24:07Z</time></trkpt><trkpt lat="39.426040680636994" lon="-3.361341421918792"><ele>647.0</ele><time>2026-05-01T10:24:08Z</time></trkpt><trkpt lat="39.42603182436113" lon="-3.361232767663089"><ele>647.0</ele><time>2026-05-01T10:24:09Z</time></trkpt><trkpt lat="39.426022278834765" lon="-3.361135077562896"><ele>647.0</ele><time>2026-05-01T10:24:10Z</time></trkpt><trkpt lat="39.426015155186164" lon="-3.3610496124102336"><ele>647.0</ele><time>2026-05-01T10:24:11Z</time></trkpt><trkpt lat="39.426003910794684" lon="-3.360901360934688"><ele>647.0</ele><time>2026-05-01T10:24:13Z</time></trkpt><trkpt lat="39.42599915747791" lon="-3.3608154520011273"><ele>647.0</ele><time>2026-05-01T10:24:14Z</time></trkpt><trkpt lat="39.42600370818043" lon="-3.3607001868002"><ele>647.0</ele><time>2026-05-01T10:24:15Z</time></trkpt><trkpt lat="39.425999392011335" lon="-3.3605870738503247"><ele>647.0</ele><time>2026-05-01T10:24:16Z</time></trkpt><trkpt lat="39.42599802280446" lon="-3.3604844676915224"><ele>647.0</ele><time>2026-05-01T10:24:17Z</time></trkpt><trkpt lat="39.425986431242556" lon="-3.3603911856768094"><ele>647.0</ele><time>2026-05-01T10:24:18Z</time></trkpt><trkpt lat="39.42599602640605" lon="-3.360306642252943"><ele>647.0</ele><time>2026-05-01T10:24:19Z</time></trkpt><trkpt lat="39.42600089236819" lon="-3.3601572576251604"><ele>647.0</ele><time>2026-05-01T10:24:21Z</time></trkpt><trkpt lat="39.42600185907516" lon="-3.3600606406321054"><ele>647.0</ele><time>2026-05-01T10:24:22Z</time></trkpt><trkpt lat="39.42600148434701" lon="-3.3599535024525067"><ele>647.0</ele><time>2026-05-01T10:24:23Z</time></trkpt><trkpt lat="39.426000383732735" lon="-3.359866164067625"><ele>647.0</ele><time>2026-05-01T10:24:24Z</time></trkpt><trkpt lat="39.42600250804887" lon="-3.3597159047689633"><ele>646.8</ele><time>2026-05-01T10:24:26Z</time></trkpt><trkpt lat="39.42600726264088" lon="-3.359549462206066"><ele>646.6</ele><time>2026-05-01T10:24:28Z</time></trkpt><trkpt lat="39.42601076471143" lon="-3.359376984332967"><ele>646.4</ele><time>2026-05-01T10:24:30Z</time></trkpt><trkpt lat="39.426016031352106" lon="-3.3592532077762067"><ele>646.1999999999999</ele><time>2026-05-01T10:24:31Z</time></trkpt><trkpt lat="39.42601704189315" lon="-3.359155036712933"><ele>646.0</ele><time>2026-05-01T10:24:32Z</time></trkpt><trkpt lat="39.42601841013868" lon="-3.3590675188450883"><ele>646.0</ele><time>2026-05-01T10:24:33Z</time></trkpt><trkpt lat="39.42602164236721" lon="-3.3589570842485523"><ele>646.0</ele><time>2026-05-01T10:24:34Z</time></trkpt><trkpt lat="39.42602161842377" lon="-3.3588420495214284"><ele>646.0</ele><time>2026-05-01T10:24:35Z</time></trkpt><trkpt lat="39.42602828571795" lon="-3.3587405805000747"><ele>646.0</ele><time>2026-05-01T10:24:36Z</time></trkpt><trkpt lat="39.42603831140413" lon="-3.358651003421342"><ele>646.0</ele><time>2026-05-01T10:24:37Z</time></trkpt><trkpt lat="39.42604764439675" lon="-3.3585032773944494"><ele>646.0</ele><time>2026-05-01T10:24:39Z</time></trkpt><trkpt lat="39.42605550106881" lon="-3.358350201270041"><ele>646.0</ele><time>2026-05-01T10:24:41Z</time></trkpt><trkpt lat="39.42606789481914" lon="-3.3582546968590314"><ele>646.0</ele><time>2026-05-01T10:24:42Z</time></trkpt><trkpt lat="39.42607616239424" lon="-3.3581687403997815"><ele>646.0</ele><time>2026-05-01T10:24:43Z</time></trkpt><trkpt lat="39.42610435227191" lon="-3.358032790070623"><ele>646.0</ele><time>2026-05-01T10:24:45Z</time></trkpt><trkpt lat="39.4261195466842" lon="-3.357921877397532"><ele>646.0</ele><time>2026-05-01T10:24:47Z</time></trkpt><trkpt lat="39.42614232039951" lon="-3.357834872256389"><ele>646.0</ele><time>2026-05-01T10:24:50Z</time></trkpt><trkpt lat="39.42616342217215" lon="-3.3577354027373136"><ele>645.5999999999999</ele><time>2026-05-01T10:25:06Z</time></trkpt><trkpt lat="39.4261904905379" lon="-3.357612357631546"><ele>645.2</ele><time>2026-05-01T10:25:08Z</time></trkpt><trkpt lat="39.4261983080286" lon="-3.357484415272109"><ele>644.8</ele><time>2026-05-01T10:25:10Z</time></trkpt><trkpt lat="39.42623787767218" lon="-3.357365789560548"><ele>644.4000000000001</ele><time>2026-05-01T10:25:12Z</time></trkpt><trkpt lat="39.42625477938596" lon="-3.3572612212926143"><ele>644.0</ele><time>2026-05-01T10:25:14Z</time></trkpt><trkpt lat="39.42627522198039" lon="-3.35708599001823"><ele>644.0</ele><time>2026-05-01T10:25:16Z</time></trkpt><trkpt lat="39.4263002666975" lon="-3.3569499771638847"><ele>644.0</ele><time>2026-05-01T10:25:17Z</time></trkpt><trkpt lat="39.42633557169301" lon="-3.356785437043845"><ele>644.0</ele><time>2026-05-01T10:25:18Z</time></trkpt><trkpt lat="39.426362511830746" lon="-3.3566311483121063"><ele>644.0</ele><time>2026-05-01T10:25:19Z</time></trkpt><trkpt lat="39.42639483519282" lon="-3.356481219921297"><ele>644.0</ele><time>2026-05-01T10:25:20Z</time></trkpt><trkpt lat="39.426408662863416" lon="-3.356340309474808"><ele>644.0</ele><time>2026-05-01T10:25:21Z</time></trkpt><trkpt lat="39.426433386131784" lon="-3.356208251639842"><ele>644.0</ele><time>2026-05-01T10:25:22Z</time></trkpt><trkpt lat="39.42647456540344" lon="-3.3560783193197317"><ele>644.0</ele><time>2026-05-01T10:25:23Z</time></trkpt><trkpt lat="39.42649439775555" lon="-3.3559308723600063"><ele>644.0</ele><time>2026-05-01T10:25:24Z</time></trkpt><trkpt lat="39.4265145200737" lon="-3.3557943714020038"><ele>644.0</ele><time>2026-05-01T10:25:25Z</time></trkpt><trkpt lat="39.42652146799505" lon="-3.355670169255071"><ele>644.0</ele><time>2026-05-01T10:25:26Z</time></trkpt><trkpt lat="39.4265149577239" lon="-3.355555128845618"><ele>644.0</ele><time>2026-05-01T10:25:27Z</time></trkpt><trkpt lat="39.42657428303172" lon="-3.3554583978483437"><ele>644.0</ele><time>2026-05-01T10:25:28Z</time></trkpt><trkpt lat="39.42663796633033" lon="-3.355368175607776"><ele>644.0</ele><time>2026-05-01T10:25:29Z</time></trkpt><trkpt lat="39.426718432126435" lon="-3.3552944541761107"><ele>644.25</ele><time>2026-05-01T10:25:30Z</time></trkpt><trkpt lat="39.426817217513275" lon="-3.355216858958439"><ele>644.5</ele><time>2026-05-01T10:25:31Z</time></trkpt><trkpt lat="39.426897794908996" lon="-3.3551036390873787"><ele>644.75</ele><time>2026-05-01T10:25:32Z</time></trkpt><trkpt lat="39.42699652703745" lon="-3.35500680610103"><ele>645.0</ele><time>2026-05-01T10:25:33Z</time></trkpt><trkpt lat="39.42710766724918" lon="-3.354919500541211"><ele>644.25</ele><time>2026-05-01T10:25:34Z</time></trkpt><trkpt lat="39.42721102817122" lon="-3.3548163385417022"><ele>643.5</ele><time>2026-05-01T10:25:35Z</time></trkpt><trkpt lat="39.42730898060348" lon="-3.354721562340747"><ele>642.75</ele><time>2026-05-01T10:25:36Z</time></trkpt><trkpt lat="39.42739952269271" lon="-3.3546349848244663"><ele>642.0</ele><time>2026-05-01T10:25:36.999Z</time></trkpt><trkpt lat="39.42747533582617" lon="-3.354535105252899"><ele>642.0</ele><time>2026-05-01T10:25:37.999Z</time></trkpt><trkpt lat="39.42755634610344" lon="-3.354455273273234"><ele>642.0</ele><time>2026-05-01T10:25:38.999Z</time></trkpt><trkpt lat="39.42764823060925" lon="-3.354383469059355"><ele>642.0</ele><time>2026-05-01T10:25:39.999Z</time></trkpt><trkpt lat="39.42773324161378" lon="-3.3542989168018016"><ele>642.0</ele><time>2026-05-01T10:25:40.999Z</time></trkpt><trkpt lat="39.42782489747214" lon="-3.3542084814382367"><ele>642.0</ele><time>2026-05-01T10:25:41.999Z</time></trkpt><trkpt lat="39.427919223698" lon="-3.354110887819479"><ele>642.25</ele><time>2026-05-01T10:25:42.999Z</time></trkpt><trkpt lat="39.428015590085515" lon="-3.354015775167221"><ele>642.5</ele><time>2026-05-01T10:25:43.999Z</time></trkpt><trkpt lat="39.42811304164987" lon="-3.3539187383073576"><ele>642.75</ele><time>2026-05-01T10:25:45Z</time></trkpt><trkpt lat="39.42821439188594" lon="-3.3538197564831083"><ele>643.0</ele><time>2026-05-01T10:25:46Z</time></trkpt><trkpt lat="39.428317102644" lon="-3.3537175589130204"><ele>643.25</ele><time>2026-05-01T10:25:47Z</time></trkpt><trkpt lat="39.428419576737795" lon="-3.3536159937677477"><ele>643.5</ele><time>2026-05-01T10:25:48Z</time></trkpt><trkpt lat="39.42852409081729" lon="-3.3535148168798523"><ele>643.75</ele><time>2026-05-01T10:25:49Z</time></trkpt><trkpt lat="39.42862866431889" lon="-3.353414077583269"><ele>644.0</ele><time>2026-05-01T10:25:50Z</time></trkpt><trkpt lat="39.428734159842804" lon="-3.3533115778968154"><ele>643.75</ele><time>2026-05-01T10:25:51Z</time></trkpt><trkpt lat="39.42883651585915" lon="-3.3532083591992907"><ele>643.5</ele><time>2026-05-01T10:25:52Z</time></trkpt><trkpt lat="39.42894180219461" lon="-3.353104914958619"><ele>643.25</ele><time>2026-05-01T10:25:53Z</time></trkpt><trkpt lat="39.429048341420085" lon="-3.352996414289218"><ele>643.0</ele><time>2026-05-01T10:25:54Z</time></trkpt><trkpt lat="39.42915874989031" lon="-3.3528906761709063"><ele>643.0</ele><time>2026-05-01T10:25:55Z</time></trkpt><trkpt lat="39.42927319579509" lon="-3.3527808950384737"><ele>643.0</ele><time>2026-05-01T10:25:56Z</time></trkpt><trkpt lat="39.42938894884849" lon="-3.3526679623349174"><ele>643.0</ele><time>2026-05-01T10:25:57Z</time></trkpt><trkpt lat="39.42950476345979" lon="-3.352555223266653"><ele>643.0</ele><time>2026-05-01T10:25:58Z</time></trkpt><trkpt lat="39.429620888876684" lon="-3.352441193399798"><ele>643.0</ele><time>2026-05-01T10:25:59Z</time></trkpt><trkpt lat="39.429736703567784" lon="-3.3523323329250916"><ele>643.0</ele><time>2026-05-01T10:26:00Z</time></trkpt><trkpt lat="39.42984617669102" lon="-3.352218896933499"><ele>643.0</ele><time>2026-05-01T10:26:01Z</time></trkpt><trkpt lat="39.42996044736356" lon="-3.352105464291567"><ele>643.0</ele><time>2026-05-01T10:26:02Z</time></trkpt><trkpt lat="39.430077352627485" lon="-3.351992956842264"><ele>643.0</ele><time>2026-05-01T10:26:03Z</time></trkpt><trkpt lat="39.430196194204896" lon="-3.3518761488655087"><ele>643.0</ele><time>2026-05-01T10:26:04Z</time></trkpt><trkpt lat="39.430317540780855" lon="-3.351758219534152"><ele>643.0</ele><time>2026-05-01T10:26:05Z</time></trkpt><trkpt lat="39.4304372859551" lon="-3.3516406166854984"><ele>642.5</ele><time>2026-05-01T10:26:06Z</time></trkpt><trkpt lat="39.43054719904127" lon="-3.3515361297644537"><ele>642.0</ele><time>2026-05-01T10:26:07Z</time></trkpt><trkpt lat="39.430647993847344" lon="-3.3514371732733905"><ele>641.5</ele><time>2026-05-01T10:26:08Z</time></trkpt><trkpt lat="39.430738868781255" lon="-3.351338812381709"><ele>641.0</ele><time>2026-05-01T10:26:09Z</time></trkpt><trkpt lat="39.43082199660685" lon="-3.351247713579576"><ele>641.0</ele><time>2026-05-01T10:26:10Z</time></trkpt><trkpt lat="39.43089862291886" lon="-3.3511600152041776"><ele>641.0</ele><time>2026-05-01T10:26:11Z</time></trkpt><trkpt lat="39.4309692481497" lon="-3.3510731944504077"><ele>641.0</ele><time>2026-05-01T10:26:12Z</time></trkpt><trkpt lat="39.43103311981712" lon="-3.3509767355361464"><ele>641.0</ele><time>2026-05-01T10:26:13Z</time></trkpt><trkpt lat="39.43109320515374" lon="-3.350877543971892"><ele>641.0</ele><time>2026-05-01T10:26:14Z</time></trkpt><trkpt lat="39.43116928820689" lon="-3.3507843277123803"><ele>641.0</ele><time>2026-05-01T10:26:15Z</time></trkpt><trkpt lat="39.43126008903015" lon="-3.350695613820388"><ele>641.0</ele><time>2026-05-01T10:26:16Z</time></trkpt><trkpt lat="39.43136696120283" lon="-3.3506226707958544"><ele>641.0</ele><time>2026-05-01T10:26:17Z</time></trkpt><trkpt lat="39.43146047558716" lon="-3.3505086124342536"><ele>641.0</ele><time>2026-05-01T10:26:18Z</time></trkpt><trkpt lat="39.43156934857051" lon="-3.3504107336052353"><ele>640.75</ele><time>2026-05-01T10:26:19Z</time></trkpt><trkpt lat="39.43167882573838" lon="-3.350318163786279"><ele>640.5</ele><time>2026-05-01T10:26:20Z</time></trkpt><trkpt lat="39.431789536260716" lon="-3.3502216806834806"><ele>640.25</ele><time>2026-05-01T10:26:21Z</time></trkpt><trkpt lat="39.43190424223259" lon="-3.350117568924095"><ele>640.0</ele><time>2026-05-01T10:26:22Z</time></trkpt><trkpt lat="39.43201351235325" lon="-3.35000870042815"><ele>640.0</ele><time>2026-05-01T10:26:23Z</time></trkpt><trkpt lat="39.43211991072455" lon="-3.3498968069666155"><ele>640.0</ele><time>2026-05-01T10:26:24Z</time></trkpt><trkpt lat="39.43222206234955" lon="-3.349790478899002"><ele>640.0</ele><time>2026-05-01T10:26:25Z</time></trkpt><trkpt lat="39.43231928273673" lon="-3.349680205376776"><ele>640.0</ele><time>2026-05-01T10:26:26Z</time></trkpt><trkpt lat="39.43242601957445" lon="-3.349585775470152"><ele>640.5</ele><time>2026-05-01T10:26:27Z</time></trkpt><trkpt lat="39.43252414539241" lon="-3.349489589112357"><ele>641.0</ele><time>2026-05-01T10:26:28Z</time></trkpt><trkpt lat="39.43262149967651" lon="-3.3493941590491128"><ele>641.5</ele><time>2026-05-01T10:26:29Z</time></trkpt><trkpt lat="39.432718537483346" lon="-3.349299039299141"><ele>642.0</ele><time>2026-05-01T10:26:30Z</time></trkpt><trkpt lat="39.43282560927789" lon="-3.3491940822171014"><ele>642.0</ele><time>2026-05-01T10:26:31Z</time></trkpt><trkpt lat="39.432922528240965" lon="-3.3490990736481256"><ele>642.0</ele><time>2026-05-01T10:26:32Z</time></trkpt><trkpt lat="39.4330196598584" lon="-3.349003856662017"><ele>642.0</ele><time>2026-05-01T10:26:33Z</time></trkpt><trkpt lat="39.43311602055924" lon="-3.3489093952334965"><ele>642.0</ele><time>2026-05-01T10:26:34Z</time></trkpt><trkpt lat="39.43321078720194" lon="-3.3488164966507283"><ele>641.75</ele><time>2026-05-01T10:26:35Z</time></trkpt><trkpt lat="39.4333066780967" lon="-3.348722496556059"><ele>641.5</ele><time>2026-05-01T10:26:36Z</time></trkpt><trkpt lat="39.433406104833374" lon="-3.3486249702815174"><ele>641.25</ele><time>2026-05-01T10:26:37Z</time></trkpt><trkpt lat="39.43350229694843" lon="-3.348506155954131"><ele>641.0</ele><time>2026-05-01T10:26:38Z</time></trkpt><trkpt lat="39.4336089933279" lon="-3.348400381175124"><ele>641.0</ele><time>2026-05-01T10:26:39Z</time></trkpt><trkpt lat="39.433711780829924" lon="-3.348325143688153"><ele>641.0</ele><time>2026-05-01T10:26:40Z</time></trkpt><trkpt lat="39.43380360958616" lon="-3.3482350723668497"><ele>641.0</ele><time>2026-05-01T10:26:41Z</time></trkpt><trkpt lat="39.4339018379858" lon="-3.3481387236829123"><ele>641.0</ele><time>2026-05-01T10:26:42Z</time></trkpt><trkpt lat="39.433998533671364" lon="-3.3480438783068576"><ele>641.0</ele><time>2026-05-01T10:26:43Z</time></trkpt><trkpt lat="39.43408971172387" lon="-3.3479544452138312"><ele>641.0</ele><time>2026-05-01T10:26:44Z</time></trkpt><trkpt lat="39.434177763323916" lon="-3.3478680786360617"><ele>641.0</ele><time>2026-05-01T10:26:45Z</time></trkpt><trkpt lat="39.43426233504491" lon="-3.34776579818815"><ele>641.0</ele><time>2026-05-01T10:26:46Z</time></trkpt><trkpt lat="39.434378757815644" lon="-3.347656807832223"><ele>641.0</ele><time>2026-05-01T10:26:47Z</time></trkpt><trkpt lat="39.434489028897396" lon="-3.3475483888325432"><ele>641.0</ele><time>2026-05-01T10:26:48Z</time></trkpt><trkpt lat="39.43459472989478" lon="-3.3474472417798533"><ele>641.0</ele><time>2026-05-01T10:26:49Z</time></trkpt><trkpt lat="39.4346924095163" lon="-3.3473539756955026"><ele>641.0</ele><time>2026-05-01T10:26:50Z</time></trkpt><trkpt lat="39.43477690016574" lon="-3.3472710176355633"><ele>640.8333333333333</ele><time>2026-05-01T10:26:51Z</time></trkpt><trkpt lat="39.43485381011702" lon="-3.347193325038067"><ele>640.6666666666666</ele><time>2026-05-01T10:26:52Z</time></trkpt><trkpt lat="39.43492270268272" lon="-3.347124517573474"><ele>640.5</ele><time>2026-05-01T10:26:53Z</time></trkpt><trkpt lat="39.434981590314756" lon="-3.347078936302811"><ele>640.3333333333334</ele><time>2026-05-01T10:26:54Z</time></trkpt><trkpt lat="39.43504978831149" lon="-3.3470154304010635"><ele>640.1666666666667</ele><time>2026-05-01T10:26:55Z</time></trkpt><trkpt lat="39.43511727873719" lon="-3.3469470861332553"><ele>640.0</ele><time>2026-05-01T10:26:56Z</time></trkpt><trkpt lat="39.4351881621352" lon="-3.3468789436249997"><ele>640.0</ele><time>2026-05-01T10:26:57Z</time></trkpt><trkpt lat="39.43526461819535" lon="-3.346800564517577"><ele>640.0</ele><time>2026-05-01T10:26:58Z</time></trkpt><trkpt lat="39.43534928549248" lon="-3.346708794088402"><ele>640.0</ele><time>2026-05-01T10:26:59Z</time></trkpt><trkpt lat="39.43544354706129" lon="-3.3466063034809967"><ele>640.0</ele><time>2026-05-01T10:27:00Z</time></trkpt><trkpt lat="39.43555706888241" lon="-3.346517092762039"><ele>640.0</ele><time>2026-05-01T10:27:01Z</time></trkpt><trkpt lat="39.43565966304409" lon="-3.3464167041984747"><ele>640.0</ele><time>2026-05-01T10:27:02Z</time></trkpt><trkpt lat="39.435761132429064" lon="-3.346317416177863"><ele>640.0</ele><time>2026-05-01T10:27:03Z</time></trkpt><trkpt lat="39.4358654448722" lon="-3.346215346255913"><ele>640.0</ele><time>2026-05-01T10:27:04Z</time></trkpt><trkpt lat="39.435975534753936" lon="-3.346107623124167"><ele>640.0</ele><time>2026-05-01T10:27:05Z</time></trkpt><trkpt lat="39.43609215692779" lon="-3.345993508032463"><ele>640.0</ele><time>2026-05-01T10:27:06Z</time></trkpt><trkpt lat="39.436211340835136" lon="-3.3458769489330344"><ele>640.0</ele><time>2026-05-01T10:27:07Z</time></trkpt><trkpt lat="39.436321277230014" lon="-3.345742651640412"><ele>640.0</ele><time>2026-05-01T10:27:08Z</time></trkpt><trkpt lat="39.436450198084174" lon="-3.345630872359745"><ele>640.0</ele><time>2026-05-01T10:27:09Z</time></trkpt><trkpt lat="39.43657261455406" lon="-3.3455031357053127"><ele>640.0</ele><time>2026-05-01T10:27:10Z</time></trkpt><trkpt lat="39.43673671543736" lon="-3.345344900849056"><ele>640.0</ele><time>2026-05-01T10:27:11Z</time></trkpt><trkpt lat="39.436922730401356" lon="-3.345164542125025"><ele>640.0</ele><time>2026-05-01T10:27:12Z</time></trkpt><trkpt lat="39.437112895176604" lon="-3.3449739597048564"><ele>640.0</ele><time>2026-05-01T10:27:13Z</time></trkpt><trkpt lat="39.43727698934524" lon="-3.3448171389335113"><ele>640.0</ele><time>2026-05-01T10:27:14Z</time></trkpt><trkpt lat="39.437420739597115" lon="-3.344668469212222"><ele>641.3333333333334</ele><time>2026-05-01T10:27:15Z</time></trkpt><trkpt lat="39.43756405139303" lon="-3.344527626203596"><ele>642.6666666666666</ele><time>2026-05-01T10:27:16Z</time></trkpt><trkpt lat="39.43771238379696" lon="-3.344389158084097"><ele>644.0</ele><time>2026-05-01T10:27:17Z</time></trkpt><trkpt lat="39.43786528974336" lon="-3.344252852828561"><ele>644.5</ele><time>2026-05-01T10:27:18Z</time></trkpt><trkpt lat="39.43804725037683" lon="-3.344081935087754"><ele>645.0</ele><time>2026-05-01T10:27:19Z</time></trkpt><trkpt lat="39.43823700376929" lon="-3.3438926873645354"><ele>645.5</ele><time>2026-05-01T10:27:20Z</time></trkpt><trkpt lat="39.438442950112346" lon="-3.3436805083043724"><ele>646.0</ele><time>2026-05-01T10:27:21Z</time></trkpt><trkpt lat="39.43862709420322" lon="-3.3434970825851607"><ele>646.0</ele><time>2026-05-01T10:27:22Z</time></trkpt><trkpt lat="39.43878234722241" lon="-3.343344361521894"><ele>646.0</ele><time>2026-05-01T10:27:23Z</time></trkpt><trkpt lat="39.43891520375143" lon="-3.3432147068772404"><ele>646.0</ele><time>2026-05-01T10:27:24Z</time></trkpt><trkpt lat="39.43902418077715" lon="-3.3431059777422334"><ele>646.5999999999999</ele><time>2026-05-01T10:27:25Z</time></trkpt><trkpt lat="39.4391270821192" lon="-3.3430050125260413"><ele>647.2</ele><time>2026-05-01T10:27:26Z</time></trkpt><trkpt lat="39.43921822109661" lon="-3.342909831166648"><ele>647.8</ele><time>2026-05-01T10:27:27Z</time></trkpt><trkpt lat="39.43929638158852" lon="-3.342825938886186"><ele>648.4000000000001</ele><time>2026-05-01T10:27:28Z</time></trkpt><trkpt lat="39.439373227546" lon="-3.342776711913739"><ele>649.0</ele><time>2026-05-01T10:27:29Z</time></trkpt><trkpt lat="39.43943246810484" lon="-3.342718234092062"><ele>649.0</ele><time>2026-05-01T10:27:30Z</time></trkpt><trkpt lat="39.43948778318156" lon="-3.342663631154963"><ele>649.0</ele><time>2026-05-01T10:27:31Z</time></trkpt><trkpt lat="39.43954880070782" lon="-3.3426033991841724"><ele>649.0</ele><time>2026-05-01T10:27:32Z</time></trkpt><trkpt lat="39.43962600281181" lon="-3.342527191059819"><ele>649.0</ele><time>2026-05-01T10:27:33Z</time></trkpt><trkpt lat="39.43970598722402" lon="-3.3424482364514025"><ele>649.0</ele><time>2026-05-01T10:27:34Z</time></trkpt><trkpt lat="39.439793979307886" lon="-3.3423343199263353"><ele>649.0</ele><time>2026-05-01T10:27:35Z</time></trkpt><trkpt lat="39.43990532961102" lon="-3.3422514604088853"><ele>649.0</ele><time>2026-05-01T10:27:36Z</time></trkpt><trkpt lat="39.44001523387882" lon="-3.3421176175872653"><ele>649.0</ele><time>2026-05-01T10:27:37Z</time></trkpt><trkpt lat="39.44015754772388" lon="-3.341981703585707"><ele>649.0</ele><time>2026-05-01T10:27:38Z</time></trkpt><trkpt lat="39.44030711072108" lon="-3.341835537585806"><ele>649.0</ele><time>2026-05-01T10:27:39Z</time></trkpt><trkpt lat="39.440471532996675" lon="-3.3416729355379204"><ele>649.0</ele><time>2026-05-01T10:27:40Z</time></trkpt><trkpt lat="39.440661158911375" lon="-3.3414876432749328"><ele>647.5</ele><time>2026-05-01T10:27:41Z</time></trkpt><trkpt lat="39.440872160628736" lon="-3.3412756150055634"><ele>646.0</ele><time>2026-05-01T10:27:41.999Z</time></trkpt><trkpt lat="39.441103268905984" lon="-3.341050581100229"><ele>646.5</ele><time>2026-05-01T10:27:42.999Z</time></trkpt><trkpt lat="39.441344711231416" lon="-3.3408153749882494"><ele>647.0</ele><time>2026-05-01T10:27:43.999Z</time></trkpt><trkpt lat="39.44158598612636" lon="-3.340598301240316"><ele>645.5</ele><time>2026-05-01T10:27:44.999Z</time></trkpt><trkpt lat="39.44183114957208" lon="-3.3403526381521793"><ele>644.0</ele><time>2026-05-01T10:27:45.999Z</time></trkpt><trkpt lat="39.44207154940221" lon="-3.3401116547699377"><ele>645.0</ele><time>2026-05-01T10:27:46.999Z</time></trkpt><trkpt lat="39.44228956099251" lon="-3.3398931142932566"><ele>646.0</ele><time>2026-05-01T10:27:47.999Z</time></trkpt><trkpt lat="39.44250799711841" lon="-3.339673842887404"><ele>646.0</ele><time>2026-05-01T10:27:48.999Z</time></trkpt><trkpt lat="39.44271726538298" lon="-3.339463381022186"><ele>646.0</ele><time>2026-05-01T10:27:49.999Z</time></trkpt><trkpt lat="39.44289680848004" lon="-3.3392835137338017"><ele>647.0</ele><time>2026-05-01T10:27:51Z</time></trkpt><trkpt lat="39.443050410430665" lon="-3.3391165389180415"><ele>648.0</ele><time>2026-05-01T10:27:52Z</time></trkpt><trkpt lat="39.4431981378567" lon="-3.338991521232691"><ele>649.0</ele><time>2026-05-01T10:27:53Z</time></trkpt><trkpt lat="39.443354646882156" lon="-3.338852303548506"><ele>649.25</ele><time>2026-05-01T10:27:54Z</time></trkpt><trkpt lat="39.443496346904695" lon="-3.3387146120765103"><ele>649.5</ele><time>2026-05-01T10:27:55Z</time></trkpt><trkpt lat="39.443602857499286" lon="-3.338611663637722"><ele>649.75</ele><time>2026-05-01T10:27:56Z</time></trkpt><trkpt lat="39.44367715217721" lon="-3.3385361943069203"><ele>650.0</ele><time>2026-05-01T10:27:57Z</time></trkpt><trkpt lat="39.4437268762059" lon="-3.338483592728619"><ele>649.8</ele><time>2026-05-01T10:27:58Z</time></trkpt><trkpt lat="39.443823457491355" lon="-3.338384854466714"><ele>649.6</ele><time>2026-05-01T10:28:00Z</time></trkpt><trkpt lat="39.443884174921145" lon="-3.3383198337781526"><ele>649.4000000000001</ele><time>2026-05-01T10:28:01Z</time></trkpt><trkpt lat="39.44393818233711" lon="-3.3382722701324243"><ele>649.2</ele><time>2026-05-01T10:28:04Z</time></trkpt><trkpt lat="39.444015982475335" lon="-3.338186843065385"><ele>649.0</ele><time>2026-05-01T10:28:07Z</time></trkpt><trkpt lat="39.444090024157525" lon="-3.338100182338666"><ele>648.5</ele><time>2026-05-01T10:28:08Z</time></trkpt><trkpt lat="39.44418649231553" lon="-3.338004334481574"><ele>648.0</ele><time>2026-05-01T10:28:09Z</time></trkpt><trkpt lat="39.444270592742185" lon="-3.3379301496108584"><ele>647.5</ele><time>2026-05-01T10:28:10Z</time></trkpt><trkpt lat="39.44436929236968" lon="-3.3378338539070715"><ele>647.0</ele><time>2026-05-01T10:28:11Z</time></trkpt><trkpt lat="39.444487911307625" lon="-3.337696556617415"><ele>647.3333333333333</ele><time>2026-05-01T10:28:12Z</time></trkpt><trkpt lat="39.444644876659304" lon="-3.3375643926230874"><ele>647.6666666666666</ele><time>2026-05-01T10:28:13Z</time></trkpt><trkpt lat="39.44478715090929" lon="-3.337428769054664"><ele>648.0</ele><time>2026-05-01T10:28:14Z</time></trkpt><trkpt lat="39.44491529708435" lon="-3.337305559561066"><ele>647.6666666666666</ele><time>2026-05-01T10:28:15Z</time></trkpt><trkpt lat="39.44503039321949" lon="-3.3371937773869385"><ele>647.3333333333333</ele><time>2026-05-01T10:28:16Z</time></trkpt><trkpt lat="39.445154593260575" lon="-3.3370726073693255"><ele>647.0</ele><time>2026-05-01T10:28:17Z</time></trkpt><trkpt lat="39.445282487938954" lon="-3.336947275424975"><ele>647.0</ele><time>2026-05-01T10:28:18Z</time></trkpt><trkpt lat="39.44537656057788" lon="-3.336831818540076"><ele>647.0</ele><time>2026-05-01T10:28:19Z</time></trkpt><trkpt lat="39.44547606442956" lon="-3.3367435056772696"><ele>647.0</ele><time>2026-05-01T10:28:20Z</time></trkpt><trkpt lat="39.44557082174016" lon="-3.3366572184180074"><ele>647.0</ele><time>2026-05-01T10:28:21Z</time></trkpt><trkpt lat="39.44566589825297" lon="-3.3365709752530526"><ele>647.3333333333333</ele><time>2026-05-01T10:28:22Z</time></trkpt><trkpt lat="39.44578542199937" lon="-3.336458586608393"><ele>647.6666666666666</ele><time>2026-05-01T10:28:23Z</time></trkpt><trkpt lat="39.445929311014496" lon="-3.336318544100829"><ele>648.0</ele><time>2026-05-01T10:28:24Z</time></trkpt><trkpt lat="39.44609531657793" lon="-3.3361572943458886"><ele>648.0</ele><time>2026-05-01T10:28:25Z</time></trkpt><trkpt lat="39.44627554069708" lon="-3.3359650447216183"><ele>648.0</ele><time>2026-05-01T10:28:26Z</time></trkpt><trkpt lat="39.44647950893474" lon="-3.3357634006146197"><ele>648.0</ele><time>2026-05-01T10:28:27Z</time></trkpt><trkpt lat="39.44668618051063" lon="-3.335585470735743"><ele>648.0</ele><time>2026-05-01T10:28:28Z</time></trkpt><trkpt lat="39.44690046602436" lon="-3.3354167776433226"><ele>649.5</ele><time>2026-05-01T10:28:29Z</time></trkpt><trkpt lat="39.44714950242574" lon="-3.3352327007554714"><ele>651.0</ele><time>2026-05-01T10:28:30Z</time></trkpt><trkpt lat="39.44741153410584" lon="-3.335075988949012"><ele>651.0</ele><time>2026-05-01T10:28:31Z</time></trkpt><trkpt lat="39.44766818356141" lon="-3.3349131495913094"><ele>651.0</ele><time>2026-05-01T10:28:32Z</time></trkpt><trkpt lat="39.44790622673632" lon="-3.334741510546534"><ele>650.0</ele><time>2026-05-01T10:28:33Z</time></trkpt><trkpt lat="39.44813791532747" lon="-3.334601775188144"><ele>649.0</ele><time>2026-05-01T10:28:34Z</time></trkpt><trkpt lat="39.44831721414532" lon="-3.334491303909105"><ele>649.0</ele><time>2026-05-01T10:28:35Z</time></trkpt><trkpt lat="39.44846471981574" lon="-3.334398335453673"><ele>649.0</ele><time>2026-05-01T10:28:36Z</time></trkpt><trkpt lat="39.448588072502695" lon="-3.3343168852865626"><ele>649.0</ele><time>2026-05-01T10:28:37Z</time></trkpt><trkpt lat="39.448703917517825" lon="-3.334240791727793"><ele>649.0</ele><time>2026-05-01T10:28:38Z</time></trkpt><trkpt lat="39.448833945938446" lon="-3.3341564492994684"><ele>648.6666666666667</ele><time>2026-05-01T10:28:39Z</time></trkpt><trkpt lat="39.449004802273" lon="-3.334048644740452"><ele>648.3333333333334</ele><time>2026-05-01T10:28:40Z</time></trkpt><trkpt lat="39.44919751463585" lon="-3.3339292836809293"><ele>648.0</ele><time>2026-05-01T10:28:41Z</time></trkpt><trkpt lat="39.44937541938778" lon="-3.3338107537064565"><ele>648.0</ele><time>2026-05-01T10:28:42Z</time></trkpt><trkpt lat="39.449535906719696" lon="-3.3337048958318816"><ele>648.0</ele><time>2026-05-01T10:28:43Z</time></trkpt><trkpt lat="39.4496699000986" lon="-3.3336186409087882"><ele>648.0</ele><time>2026-05-01T10:28:44Z</time></trkpt><trkpt lat="39.44979529095823" lon="-3.3335613100989185"><ele>648.0</ele><time>2026-05-01T10:28:45Z</time></trkpt><trkpt lat="39.44990310602594" lon="-3.3334922241107523"><ele>648.0</ele><time>2026-05-01T10:28:46Z</time></trkpt><trkpt lat="39.45001935828079" lon="-3.333417731736412"><ele>648.0</ele><time>2026-05-01T10:28:47Z</time></trkpt><trkpt lat="39.45013807171959" lon="-3.3333416622263985"><ele>648.0</ele><time>2026-05-01T10:28:48Z</time></trkpt><trkpt lat="39.45024752331454" lon="-3.333271527529362"><ele>648.0</ele><time>2026-05-01T10:28:49Z</time></trkpt><trkpt lat="39.45035040060665" lon="-3.333192793483224"><ele>648.0</ele><time>2026-05-01T10:28:50Z</time></trkpt><trkpt lat="39.450454001700514" lon="-3.333123318260925"><ele>648.0</ele><time>2026-05-01T10:28:51Z</time></trkpt><trkpt lat="39.450553841742" lon="-3.3330582766282557"><ele>648.0</ele><time>2026-05-01T10:28:52Z</time></trkpt><trkpt lat="39.450656539226294" lon="-3.3329920204080348"><ele>648.0</ele><time>2026-05-01T10:28:53Z</time></trkpt><trkpt lat="39.450764770641236" lon="-3.332924895679066"><ele>648.0</ele><time>2026-05-01T10:28:54Z</time></trkpt><trkpt lat="39.45086933381941" lon="-3.332857785349287"><ele>648.0</ele><time>2026-05-01T10:28:55Z</time></trkpt><trkpt lat="39.45097576427528" lon="-3.332787366115901"><ele>648.0</ele><time>2026-05-01T10:28:56Z</time></trkpt><trkpt lat="39.45108131713198" lon="-3.3327168167057386"><ele>648.0</ele><time>2026-05-01T10:28:57Z</time></trkpt><trkpt lat="39.45119003887077" lon="-3.332647092075966"><ele>648.0</ele><time>2026-05-01T10:28:58Z</time></trkpt><trkpt lat="39.4513297641873" lon="-3.332558531345383"><ele>648.0</ele><time>2026-05-01T10:28:59Z</time></trkpt><trkpt lat="39.451510966984316" lon="-3.3324672732682292"><ele>649.0</ele><time>2026-05-01T10:29:00Z</time></trkpt><trkpt lat="39.451691602803045" lon="-3.332353323258362"><ele>650.0</ele><time>2026-05-01T10:29:01Z</time></trkpt><trkpt lat="39.451824501177725" lon="-3.332267486281473"><ele>651.0</ele><time>2026-05-01T10:29:02Z</time></trkpt><trkpt lat="39.45191463733387" lon="-3.3322093683672063"><ele>651.1999999999999</ele><time>2026-05-01T10:29:03Z</time></trkpt><trkpt lat="39.45199086214777" lon="-3.3320933543144307"><ele>651.4</ele><time>2026-05-01T10:29:05Z</time></trkpt><trkpt lat="39.452092302821164" lon="-3.332047837814901"><ele>651.6</ele><time>2026-05-01T10:29:07Z</time></trkpt><trkpt lat="39.452188570161496" lon="-3.3320250052353226"><ele>651.8</ele><time>2026-05-01T10:29:09Z</time></trkpt><trkpt lat="39.45227325057847" lon="-3.3319844048637854"><ele>652.0</ele><time>2026-05-01T10:29:11Z</time></trkpt><trkpt lat="39.45237790076501" lon="-3.3319196619505163"><ele>652.0</ele><time>2026-05-01T10:29:13Z</time></trkpt><trkpt lat="39.4524397893317" lon="-3.3318832744558766"><ele>652.0</ele><time>2026-05-01T10:29:14Z</time></trkpt><trkpt lat="39.452506769746016" lon="-3.331841182625614"><ele>652.0</ele><time>2026-05-01T10:29:15Z</time></trkpt><trkpt lat="39.45257951348168" lon="-3.331795979462992"><ele>652.0</ele><time>2026-05-01T10:29:16Z</time></trkpt><trkpt lat="39.45264774783966" lon="-3.3317480954991385"><ele>652.0</ele><time>2026-05-01T10:29:17Z</time></trkpt><trkpt lat="39.452748372178206" lon="-3.3316798022350933"><ele>652.0</ele><time>2026-05-01T10:29:18Z</time></trkpt><trkpt lat="39.452885373766286" lon="-3.3315886636398813"><ele>651.3333333333334</ele><time>2026-05-01T10:29:19Z</time></trkpt><trkpt lat="39.45306140702442" lon="-3.331481052113426"><ele>650.6666666666666</ele><time>2026-05-01T10:29:20Z</time></trkpt><trkpt lat="39.45326468919744" lon="-3.3313546467614206"><ele>650.0</ele><time>2026-05-01T10:29:21Z</time></trkpt><trkpt lat="39.45348240391423" lon="-3.331213880830273"><ele>650.0</ele><time>2026-05-01T10:29:22Z</time></trkpt><trkpt lat="39.45366563784237" lon="-3.331090108215806"><ele>650.0</ele><time>2026-05-01T10:29:23Z</time></trkpt><trkpt lat="39.45381689642202" lon="-3.3309880373928236"><ele>650.0</ele><time>2026-05-01T10:29:24Z</time></trkpt><trkpt lat="39.45397910400159" lon="-3.330886050955692"><ele>649.6666666666666</ele><time>2026-05-01T10:29:25Z</time></trkpt><trkpt lat="39.45417160696075" lon="-3.330772229200262"><ele>649.3333333333334</ele><time>2026-05-01T10:29:26Z</time></trkpt><trkpt lat="39.45434051869901" lon="-3.3306687600023475"><ele>649.0</ele><time>2026-05-01T10:29:27Z</time></trkpt><trkpt lat="39.45455108986548" lon="-3.330541951902981"><ele>649.3333333333334</ele><time>2026-05-01T10:29:27.999Z</time></trkpt><trkpt lat="39.454745101472724" lon="-3.3304210051899927"><ele>649.6666666666666</ele><time>2026-05-01T10:29:28.999Z</time></trkpt><trkpt lat="39.454934012399875" lon="-3.330295713377458"><ele>650.0</ele><time>2026-05-01T10:29:29.999Z</time></trkpt><trkpt lat="39.45512438868734" lon="-3.330170831188985"><ele>650.0</ele><time>2026-05-01T10:29:30.999Z</time></trkpt><trkpt lat="39.45532850105839" lon="-3.3300349707343577"><ele>650.0</ele><time>2026-05-01T10:29:31.999Z</time></trkpt><trkpt lat="39.45556902702608" lon="-3.3298776035932014"><ele>651.5</ele><time>2026-05-01T10:29:32.999Z</time></trkpt><trkpt lat="39.455811297845905" lon="-3.3297169133119384"><ele>653.0</ele><time>2026-05-01T10:29:33.999Z</time></trkpt><trkpt lat="39.45601108401566" lon="-3.329585388227442"><ele>653.0</ele><time>2026-05-01T10:29:34.999Z</time></trkpt><trkpt lat="39.45619085829889" lon="-3.329467700287091"><ele>653.0</ele><time>2026-05-01T10:29:35.999Z</time></trkpt><trkpt lat="39.45632521126674" lon="-3.329378305447172"><ele>653.0</ele><time>2026-05-01T10:29:36.999Z</time></trkpt><trkpt lat="39.456420800979416" lon="-3.3293163562757675"><ele>653.0</ele><time>2026-05-01T10:29:37.999Z</time></trkpt><trkpt lat="39.456484894111846" lon="-3.3292754753114218"><ele>653.0</ele><time>2026-05-01T10:29:38.999Z</time></trkpt><trkpt lat="39.456471280601676" lon="-3.329394224251672"><ele>653.0</ele><time>2026-05-01T10:29:46.999Z</time></trkpt><trkpt lat="39.45638152318576" lon="-3.3293678986533286"><ele>653.0</ele><time>2026-05-01T10:29:48.999Z</time></trkpt><trkpt lat="39.45631308709942" lon="-3.329408035607649"><ele>653.0</ele><time>2026-05-01T10:29:50.999Z</time></trkpt><trkpt lat="39.45625601342123" lon="-3.329443187021205"><ele>653.0</ele><time>2026-05-01T10:29:51.999Z</time></trkpt><trkpt lat="39.45617083777652" lon="-3.329499599926648"><ele>653.0</ele><time>2026-05-01T10:29:52.999Z</time></trkpt><trkpt lat="39.45610894469618" lon="-3.329541938530482"><ele>653.0</ele><time>2026-05-01T10:29:53.999Z</time></trkpt><trkpt lat="39.45602276369229" lon="-3.329598674520163"><ele>653.0</ele><time>2026-05-01T10:29:55.999Z</time></trkpt><trkpt lat="39.45594989265626" lon="-3.3296439454061897"><ele>653.0</ele><time>2026-05-01T10:29:58Z</time></trkpt><trkpt lat="39.455891326686" lon="-3.3296803293309387"><ele>653.0</ele><time>2026-05-01T10:30:00Z</time></trkpt><trkpt lat="39.45581269726614" lon="-3.3297291776311937"><ele>653.0</ele><time>2026-05-01T10:30:01Z</time></trkpt><trkpt lat="39.455729288725905" lon="-3.3297814554106377"><ele>652.4</ele><time>2026-05-01T10:30:02Z</time></trkpt><trkpt lat="39.45564937278455" lon="-3.3298316019809713"><ele>651.8</ele><time>2026-05-01T10:30:03Z</time></trkpt><trkpt lat="39.455572139687085" lon="-3.329880065025465"><ele>651.2</ele><time>2026-05-01T10:30:04Z</time></trkpt><trkpt lat="39.4554569635412" lon="-3.3299539233628193"><ele>650.6</ele><time>2026-05-01T10:30:05Z</time></trkpt><trkpt lat="39.455369100736995" lon="-3.330010820485097"><ele>650.0</ele><time>2026-05-01T10:30:06Z</time></trkpt><trkpt lat="39.45529439397947" lon="-3.3300591982410674"><ele>650.0</ele><time>2026-05-01T10:30:07Z</time></trkpt><trkpt lat="39.455231576868734" lon="-3.3300998766688927"><ele>650.0</ele><time>2026-05-01T10:30:08Z</time></trkpt><trkpt lat="39.45517487847287" lon="-3.330136794700994"><ele>650.0</ele><time>2026-05-01T10:30:09Z</time></trkpt><trkpt lat="39.45510439876775" lon="-3.330183867322807"><ele>650.0</ele><time>2026-05-01T10:30:10Z</time></trkpt><trkpt lat="39.4550188105049" lon="-3.3302427552091936"><ele>650.0</ele><time>2026-05-01T10:30:11Z</time></trkpt><trkpt lat="39.45490697873881" lon="-3.330319699590427"><ele>650.0</ele><time>2026-05-01T10:30:12Z</time></trkpt><trkpt lat="39.45478441222427" lon="-3.330397272009146"><ele>650.0</ele><time>2026-05-01T10:30:13Z</time></trkpt><trkpt lat="39.45467249197359" lon="-3.330452727771817"><ele>650.0</ele><time>2026-05-01T10:30:14Z</time></trkpt><trkpt lat="39.45457294906719" lon="-3.330502866048795"><ele>650.0</ele><time>2026-05-01T10:30:15Z</time></trkpt><trkpt lat="39.45451767479248" lon="-3.3306814465584518"><ele>650.0</ele><time>2026-05-01T10:30:16Z</time></trkpt><trkpt lat="39.45443626224128" lon="-3.330733369218273"><ele>649.6</ele><time>2026-05-01T10:30:17Z</time></trkpt><trkpt lat="39.454367358127556" lon="-3.3307706010399003"><ele>649.2</ele><time>2026-05-01T10:30:18Z</time></trkpt><trkpt lat="39.454271652596915" lon="-3.3308382432949424"><ele>648.8</ele><time>2026-05-01T10:30:20Z</time></trkpt><trkpt lat="39.45417386332776" lon="-3.330908052761257"><ele>648.4</ele><time>2026-05-01T10:30:22Z</time></trkpt><trkpt lat="39.45413883951391" lon="-3.3310223669057457"><ele>648.0</ele><time>2026-05-01T10:30:24Z</time></trkpt><trkpt lat="39.454163159923255" lon="-3.3311256285701014"><ele>648.0</ele><time>2026-05-01T10:30:25Z</time></trkpt><trkpt lat="39.45414472388172" lon="-3.3312645455823566"><ele>648.0</ele><time>2026-05-01T10:30:26Z</time></trkpt><trkpt lat="39.45414005957983" lon="-3.3314337533652894"><ele>648.0</ele><time>2026-05-01T10:30:27Z</time></trkpt><trkpt lat="39.45415384548031" lon="-3.331598547841406"><ele>648.0</ele><time>2026-05-01T10:30:28Z</time></trkpt><trkpt lat="39.45414128188302" lon="-3.3317135934663242"><ele>647.4</ele><time>2026-05-01T10:30:29Z</time></trkpt><trkpt lat="39.45414630291602" lon="-3.3318069077463157"><ele>646.8</ele><time>2026-05-01T10:30:30Z</time></trkpt><trkpt lat="39.45418403845564" lon="-3.3318955654827462"><ele>646.2</ele><time>2026-05-01T10:30:32Z</time></trkpt><trkpt lat="39.45426397071531" lon="-3.3318478297652945"><ele>645.6</ele><time>2026-05-01T10:30:35Z</time></trkpt><trkpt lat="39.45417731124249" lon="-3.3319328101842838"><ele>645.0</ele><time>2026-05-01T10:30:46Z</time></trkpt><trkpt lat="39.454082813894686" lon="-3.332023782752656"><ele>645.0</ele><time>2026-05-01T10:30:48Z</time></trkpt><trkpt lat="39.45402266040132" lon="-3.332080264050662"><ele>645.0</ele><time>2026-05-01T10:30:49Z</time></trkpt><trkpt lat="39.45394902990479" lon="-3.3321337661642194"><ele>645.0</ele><time>2026-05-01T10:30:50Z</time></trkpt><trkpt lat="39.45387762350826" lon="-3.3321803068662317"><ele>645.0</ele><time>2026-05-01T10:30:51Z</time></trkpt><trkpt lat="39.45378910642274" lon="-3.3322359407298703"><ele>645.0</ele><time>2026-05-01T10:30:52Z</time></trkpt><trkpt lat="39.45365428630047" lon="-3.3323187274517703"><ele>645.6666666666666</ele><time>2026-05-01T10:30:53Z</time></trkpt><trkpt lat="39.45350211630642" lon="-3.3323923784576834"><ele>646.3333333333333</ele><time>2026-05-01T10:30:54Z</time></trkpt><trkpt lat="39.45332556943664" lon="-3.3325059315349743"><ele>647.0</ele><time>2026-05-01T10:30:55Z</time></trkpt><trkpt lat="39.45312644509026" lon="-3.3326445547293075"><ele>647.0</ele><time>2026-05-01T10:30:56Z</time></trkpt><trkpt lat="39.452956038900055" lon="-3.3327704722786993"><ele>647.0</ele><time>2026-05-01T10:30:57Z</time></trkpt><trkpt lat="39.452802940644865" lon="-3.3328816615988672"><ele>647.0</ele><time>2026-05-01T10:30:58Z</time></trkpt><trkpt lat="39.45265846409444" lon="-3.3329870833841153"><ele>647.0</ele><time>2026-05-01T10:30:59Z</time></trkpt><trkpt lat="39.45250715725393" lon="-3.3331008579033696"><ele>647.0</ele><time>2026-05-01T10:31:00Z</time></trkpt><trkpt lat="39.452351581088166" lon="-3.3332088656882326"><ele>647.0</ele><time>2026-05-01T10:31:01Z</time></trkpt><trkpt lat="39.452181526194934" lon="-3.333316266206702"><ele>647.3333333333333</ele><time>2026-05-01T10:31:02Z</time></trkpt><trkpt lat="39.45202592500581" lon="-3.333411553512828"><ele>647.6666666666666</ele><time>2026-05-01T10:31:03Z</time></trkpt><trkpt lat="39.45186887878734" lon="-3.3335040576053494"><ele>648.0</ele><time>2026-05-01T10:31:04Z</time></trkpt><trkpt lat="39.451729908476935" lon="-3.333586320882133"><ele>648.0</ele><time>2026-05-01T10:31:05Z</time></trkpt><trkpt lat="39.451568157462525" lon="-3.33368893992129"><ele>648.0</ele><time>2026-05-01T10:31:06Z</time></trkpt><trkpt lat="39.4514102587131" lon="-3.3338069916124984"><ele>648.0</ele><time>2026-05-01T10:31:07Z</time></trkpt><trkpt lat="39.45128913025843" lon="-3.3338866824852156"><ele>648.2</ele><time>2026-05-01T10:31:08Z</time></trkpt><trkpt lat="39.45118785641836" lon="-3.3339541449187906"><ele>648.4</ele><time>2026-05-01T10:31:09Z</time></trkpt><trkpt lat="39.45108538319698" lon="-3.334023169322331"><ele>648.6</ele><time>2026-05-01T10:31:10Z</time></trkpt><trkpt lat="39.45101389995603" lon="-3.334068206058414"><ele>648.8000000000001</ele><time>2026-05-01T10:31:11Z</time></trkpt><trkpt lat="39.4509456634147" lon="-3.334102515460557"><ele>649.0</ele><time>2026-05-01T10:31:12Z</time></trkpt><trkpt lat="39.4508736926248" lon="-3.334131487999224"><ele>649.0</ele><time>2026-05-01T10:31:13Z</time></trkpt><trkpt lat="39.450768709843736" lon="-3.334145387190648"><ele>649.0</ele><time>2026-05-01T10:31:14Z</time></trkpt><trkpt lat="39.45066001676152" lon="-3.334111555067553"><ele>649.0</ele><time>2026-05-01T10:31:15Z</time></trkpt><trkpt lat="39.45057837795586" lon="-3.3341189058238165"><ele>649.0</ele><time>2026-05-01T10:31:16Z</time></trkpt><trkpt lat="39.4504960353747" lon="-3.33410680515502"><ele>649.0</ele><time>2026-05-01T10:31:17Z</time></trkpt><trkpt lat="39.450406544925436" lon="-3.334076866255476"><ele>648.6666666666667</ele><time>2026-05-01T10:31:18Z</time></trkpt><trkpt lat="39.450329495886564" lon="-3.3340995607047086"><ele>648.3333333333334</ele><time>2026-05-01T10:31:19Z</time></trkpt><trkpt lat="39.45025949571064" lon="-3.3341103891436403"><ele>648.0</ele><time>2026-05-01T10:31:20Z</time></trkpt><trkpt lat="39.45018143440008" lon="-3.3341397529804446"><ele>647.6666666666666</ele><time>2026-05-01T10:31:21Z</time></trkpt><trkpt lat="39.45010750315601" lon="-3.334186478202218"><ele>647.3333333333333</ele><time>2026-05-01T10:31:22Z</time></trkpt><trkpt lat="39.45003692981125" lon="-3.334238325823619"><ele>647.0</ele><time>2026-05-01T10:31:23Z</time></trkpt><trkpt lat="39.449973604003304" lon="-3.334271384785163"><ele>647.0</ele><time>2026-05-01T10:31:24Z</time></trkpt><trkpt lat="39.449897113765175" lon="-3.3343822052491765"><ele>647.0</ele><time>2026-05-01T10:31:26Z</time></trkpt><trkpt lat="39.44981919326808" lon="-3.3344693849785814"><ele>647.0</ele><time>2026-05-01T10:31:28Z</time></trkpt><trkpt lat="39.44975875360684" lon="-3.334543144289173"><ele>647.0</ele><time>2026-05-01T10:31:29Z</time></trkpt><trkpt lat="39.449702763633574" lon="-3.3346381195979795"><ele>647.0</ele><time>2026-05-01T10:31:30Z</time></trkpt><trkpt lat="39.44965075412876" lon="-3.3347173200883433"><ele>647.0</ele><time>2026-05-01T10:31:31Z</time></trkpt><trkpt lat="39.44959327874218" lon="-3.3347847022690478"><ele>647.0</ele><time>2026-05-01T10:31:32Z</time></trkpt><trkpt lat="39.44954026687822" lon="-3.3348363344881737"><ele>647.0</ele><time>2026-05-01T10:31:33Z</time></trkpt><trkpt lat="39.44946820529658" lon="-3.3349076593584592"><ele>647.0</ele><time>2026-05-01T10:31:34Z</time></trkpt><trkpt lat="39.449404029087084" lon="-3.334971045987192"><ele>647.0</ele><time>2026-05-01T10:31:35Z</time></trkpt><trkpt lat="39.44934978786756" lon="-3.335022210968556"><ele>647.0</ele><time>2026-05-01T10:31:36Z</time></trkpt><trkpt lat="39.44929507926573" lon="-3.3350702334545916"><ele>647.0</ele><time>2026-05-01T10:31:37Z</time></trkpt><trkpt lat="39.44919947860419" lon="-3.3351174554932825"><ele>647.0</ele><time>2026-05-01T10:31:39Z</time></trkpt><trkpt lat="39.44909207498801" lon="-3.335152171051843"><ele>647.0</ele><time>2026-05-01T10:31:40.999Z</time></trkpt><trkpt lat="39.44902970956291" lon="-3.33516974380354"><ele>647.0</ele><time>2026-05-01T10:31:41.999Z</time></trkpt><trkpt lat="39.44893479877355" lon="-3.3351965578471168"><ele>647.0</ele><time>2026-05-01T10:31:43.999Z</time></trkpt><trkpt lat="39.4488622121035" lon="-3.335228697143667"><ele>647.0</ele><time>2026-05-01T10:31:45.999Z</time></trkpt><trkpt lat="39.44879519389354" lon="-3.3352522915951166"><ele>647.0</ele><time>2026-05-01T10:31:47.999Z</time></trkpt><trkpt lat="39.448729436158075" lon="-3.33528824851315"><ele>650.0</ele><time>2026-05-01T10:31:50.999Z</time></trkpt><trkpt lat="39.44870382804532" lon="-3.33516672739979"><ele>650.0</ele><time>2026-05-01T10:31:52.999Z</time></trkpt><trkpt lat="39.44862012968256" lon="-3.3351237651678667"><ele>650.0</ele><time>2026-05-01T10:31:59.999Z</time></trkpt><trkpt lat="39.448623077619764" lon="-3.335339438916821"><ele>650.0</ele><time>2026-05-01T10:32:01.999Z</time></trkpt></trkseg></trk></gpx>